<?xml version="1.0" encoding="UTF-8" standalone="no" ?>
<gpx xmlns="http://www.topografix.com/GPX/1/1" xmlns:xsi="http://www.w3.org/2001/XMLSchema-instance" xsi:schemaLocation="http://www.topografix.com/GPX/1/1 http://www.topografix.com/GPX/1/1/gpx.xsd" version="1.1" creator="VisuGPX - https://www.visugpx.com">
  <metadata>
    <name>Marathon Race ( maxirace ) Annecy</name>
    <desc><![CDATA[Marathon Race ( maxirace ) Annecy]]></desc>
  </metadata>
  <trk>
    <name><![CDATA[Doussard Course à pied]]></name>
    <trkseg>
      <trkpt lat="45.78127" lon="6.22372">
        <ele>458.39999389648</ele>
        <time>2017-05-28T05:30:08.000Z</time>
      </trkpt>
      <trkpt lat="45.78127" lon="6.22372">
        <ele>449</ele>
        <time>2017-05-28T05:30:09.000Z</time>
      </trkpt>
      <trkpt lat="45.78128" lon="6.22372">
        <ele>449</ele>
        <time>2017-05-28T05:30:10.000Z</time>
      </trkpt>
      <trkpt lat="45.78131" lon="6.22372">
        <ele>459</ele>
        <time>2017-05-28T05:30:13.000Z</time>
      </trkpt>
      <trkpt lat="45.78133" lon="6.22372">
        <ele>458.79998779297</ele>
        <time>2017-05-28T05:30:14.000Z</time>
      </trkpt>
      <trkpt lat="45.78155" lon="6.22374">
        <ele>458.39999389648</ele>
        <time>2017-05-28T05:30:23.000Z</time>
      </trkpt>
      <trkpt lat="45.78179" lon="6.22374">
        <ele>458</ele>
        <time>2017-05-28T05:30:32.000Z</time>
      </trkpt>
      <trkpt lat="45.78201" lon="6.22376">
        <ele>457.39999389648</ele>
        <time>2017-05-28T05:30:40.000Z</time>
      </trkpt>
      <trkpt lat="45.78225" lon="6.22377">
        <ele>457.20001220703</ele>
        <time>2017-05-28T05:30:48.000Z</time>
      </trkpt>
      <trkpt lat="45.78247" lon="6.22383">
        <ele>457</ele>
        <time>2017-05-28T05:30:55.000Z</time>
      </trkpt>
      <trkpt lat="45.7827" lon="6.22394">
        <ele>456.79998779297</ele>
        <time>2017-05-28T05:31:03.000Z</time>
      </trkpt>
      <trkpt lat="45.7829" lon="6.22405">
        <ele>456.20001220703</ele>
        <time>2017-05-28T05:31:10.000Z</time>
      </trkpt>
      <trkpt lat="45.78309" lon="6.22416">
        <ele>456.79998779297</ele>
        <time>2017-05-28T05:31:17.000Z</time>
      </trkpt>
      <trkpt lat="45.78329" lon="6.22428">
        <ele>457.20001220703</ele>
        <time>2017-05-28T05:31:24.000Z</time>
      </trkpt>
      <trkpt lat="45.78348" lon="6.22439">
        <ele>456.79998779297</ele>
        <time>2017-05-28T05:31:31.000Z</time>
      </trkpt>
      <trkpt lat="45.78348" lon="6.2245">
        <ele>457</ele>
        <time>2017-05-28T05:31:34.000Z</time>
      </trkpt>
      <trkpt lat="45.78347" lon="6.22453">
        <ele>457</ele>
        <time>2017-05-28T05:31:35.000Z</time>
      </trkpt>
      <trkpt lat="45.78345" lon="6.22456">
        <ele>457.20001220703</ele>
        <time>2017-05-28T05:31:36.000Z</time>
      </trkpt>
      <trkpt lat="45.78343" lon="6.22459">
        <ele>457.39999389648</ele>
        <time>2017-05-28T05:31:37.000Z</time>
      </trkpt>
      <trkpt lat="45.78342" lon="6.22461">
        <ele>457.39999389648</ele>
        <time>2017-05-28T05:31:38.000Z</time>
      </trkpt>
      <trkpt lat="45.7834" lon="6.22463">
        <ele>457.20001220703</ele>
        <time>2017-05-28T05:31:39.000Z</time>
      </trkpt>
      <trkpt lat="45.7834" lon="6.22465">
        <ele>457.20001220703</ele>
        <time>2017-05-28T05:31:40.000Z</time>
      </trkpt>
      <trkpt lat="45.7834" lon="6.22466">
        <ele>457.39999389648</ele>
        <time>2017-05-28T05:31:41.000Z</time>
      </trkpt>
      <trkpt lat="45.78337" lon="6.22467">
        <ele>457.20001220703</ele>
        <time>2017-05-28T05:31:45.000Z</time>
      </trkpt>
      <trkpt lat="45.78337" lon="6.22468">
        <ele>457.39999389648</ele>
        <time>2017-05-28T05:31:46.000Z</time>
      </trkpt>
      <trkpt lat="45.78324" lon="6.22492">
        <ele>457.39999389648</ele>
        <time>2017-05-28T05:31:56.000Z</time>
      </trkpt>
      <trkpt lat="45.78307" lon="6.22515">
        <ele>456.79998779297</ele>
        <time>2017-05-28T05:32:03.000Z</time>
      </trkpt>
      <trkpt lat="45.78291" lon="6.22533">
        <ele>456</ele>
        <time>2017-05-28T05:32:09.000Z</time>
      </trkpt>
      <trkpt lat="45.78276" lon="6.22554">
        <ele>455.39999389648</ele>
        <time>2017-05-28T05:32:16.000Z</time>
      </trkpt>
      <trkpt lat="45.78261" lon="6.22574">
        <ele>455.39999389648</ele>
        <time>2017-05-28T05:32:23.000Z</time>
      </trkpt>
      <trkpt lat="45.78247" lon="6.22594">
        <ele>455.20001220703</ele>
        <time>2017-05-28T05:32:30.000Z</time>
      </trkpt>
      <trkpt lat="45.78233" lon="6.22612">
        <ele>455.39999389648</ele>
        <time>2017-05-28T05:32:38.000Z</time>
      </trkpt>
      <trkpt lat="45.78218" lon="6.22632">
        <ele>455.20001220703</ele>
        <time>2017-05-28T05:32:45.000Z</time>
      </trkpt>
      <trkpt lat="45.78206" lon="6.22649">
        <ele>455</ele>
        <time>2017-05-28T05:32:52.000Z</time>
      </trkpt>
      <trkpt lat="45.78193" lon="6.22671">
        <ele>455.60000610352</ele>
        <time>2017-05-28T05:32:59.000Z</time>
      </trkpt>
      <trkpt lat="45.78179" lon="6.22691">
        <ele>455.60000610352</ele>
        <time>2017-05-28T05:33:06.000Z</time>
      </trkpt>
      <trkpt lat="45.78165" lon="6.22709">
        <ele>456.39999389648</ele>
        <time>2017-05-28T05:33:13.000Z</time>
      </trkpt>
      <trkpt lat="45.78151" lon="6.22728">
        <ele>456.60000610352</ele>
        <time>2017-05-28T05:33:20.000Z</time>
      </trkpt>
      <trkpt lat="45.78134" lon="6.22747">
        <ele>456.60000610352</ele>
        <time>2017-05-28T05:33:27.000Z</time>
      </trkpt>
      <trkpt lat="45.7812" lon="6.22764">
        <ele>457</ele>
        <time>2017-05-28T05:33:34.000Z</time>
      </trkpt>
      <trkpt lat="45.78104" lon="6.2278">
        <ele>457</ele>
        <time>2017-05-28T05:33:41.000Z</time>
      </trkpt>
      <trkpt lat="45.78086" lon="6.22791">
        <ele>457.60000610352</ele>
        <time>2017-05-28T05:33:48.000Z</time>
      </trkpt>
      <trkpt lat="45.78074" lon="6.22809">
        <ele>457.60000610352</ele>
        <time>2017-05-28T05:33:56.000Z</time>
      </trkpt>
      <trkpt lat="45.78075" lon="6.22812">
        <ele>457.60000610352</ele>
        <time>2017-05-28T05:33:57.000Z</time>
      </trkpt>
      <trkpt lat="45.78076" lon="6.22815">
        <ele>457.60000610352</ele>
        <time>2017-05-28T05:33:58.000Z</time>
      </trkpt>
      <trkpt lat="45.78078" lon="6.22818">
        <ele>457.79998779297</ele>
        <time>2017-05-28T05:33:59.000Z</time>
      </trkpt>
      <trkpt lat="45.78081" lon="6.22821">
        <ele>457.79998779297</ele>
        <time>2017-05-28T05:34:00.000Z</time>
      </trkpt>
      <trkpt lat="45.78083" lon="6.22823">
        <ele>458</ele>
        <time>2017-05-28T05:34:01.000Z</time>
      </trkpt>
      <trkpt lat="45.78087" lon="6.22825">
        <ele>458.20001220703</ele>
        <time>2017-05-28T05:34:02.000Z</time>
      </trkpt>
      <trkpt lat="45.78105" lon="6.22834">
        <ele>457.79998779297</ele>
        <time>2017-05-28T05:34:08.000Z</time>
      </trkpt>
      <trkpt lat="45.78122" lon="6.22853">
        <ele>456.79998779297</ele>
        <time>2017-05-28T05:34:15.000Z</time>
      </trkpt>
      <trkpt lat="45.78136" lon="6.22874">
        <ele>456.39999389648</ele>
        <time>2017-05-28T05:34:22.000Z</time>
      </trkpt>
      <trkpt lat="45.78153" lon="6.22884">
        <ele>456.20001220703</ele>
        <time>2017-05-28T05:34:29.000Z</time>
      </trkpt>
      <trkpt lat="45.78169" lon="6.229">
        <ele>455.60000610352</ele>
        <time>2017-05-28T05:34:36.000Z</time>
      </trkpt>
      <trkpt lat="45.78185" lon="6.22915">
        <ele>455.20001220703</ele>
        <time>2017-05-28T05:34:42.000Z</time>
      </trkpt>
      <trkpt lat="45.78201" lon="6.22935">
        <ele>454.60000610352</ele>
        <time>2017-05-28T05:34:49.000Z</time>
      </trkpt>
      <trkpt lat="45.78217" lon="6.22952">
        <ele>454.39999389648</ele>
        <time>2017-05-28T05:34:55.000Z</time>
      </trkpt>
      <trkpt lat="45.78233" lon="6.22972">
        <ele>453.79998779297</ele>
        <time>2017-05-28T05:35:02.000Z</time>
      </trkpt>
      <trkpt lat="45.7825" lon="6.22989">
        <ele>453.60000610352</ele>
        <time>2017-05-28T05:35:09.000Z</time>
      </trkpt>
      <trkpt lat="45.78264" lon="6.23009">
        <ele>453</ele>
        <time>2017-05-28T05:35:16.000Z</time>
      </trkpt>
      <trkpt lat="45.78279" lon="6.23029">
        <ele>452.79998779297</ele>
        <time>2017-05-28T05:35:23.000Z</time>
      </trkpt>
      <trkpt lat="45.78295" lon="6.23047">
        <ele>452.39999389648</ele>
        <time>2017-05-28T05:35:30.000Z</time>
      </trkpt>
      <trkpt lat="45.7831" lon="6.23065">
        <ele>452.20001220703</ele>
        <time>2017-05-28T05:35:36.000Z</time>
      </trkpt>
      <trkpt lat="45.78325" lon="6.23085">
        <ele>452.20001220703</ele>
        <time>2017-05-28T05:35:44.000Z</time>
      </trkpt>
      <trkpt lat="45.78342" lon="6.23104">
        <ele>451.20001220703</ele>
        <time>2017-05-28T05:35:51.000Z</time>
      </trkpt>
      <trkpt lat="45.78357" lon="6.23122">
        <ele>450.60000610352</ele>
        <time>2017-05-28T05:35:57.000Z</time>
      </trkpt>
      <trkpt lat="45.78371" lon="6.23141">
        <ele>450.60000610352</ele>
        <time>2017-05-28T05:36:04.000Z</time>
      </trkpt>
      <trkpt lat="45.78388" lon="6.2316">
        <ele>450.20001220703</ele>
        <time>2017-05-28T05:36:11.000Z</time>
      </trkpt>
      <trkpt lat="45.78403" lon="6.23178">
        <ele>450.60000610352</ele>
        <time>2017-05-28T05:36:17.000Z</time>
      </trkpt>
      <trkpt lat="45.78398" lon="6.23206">
        <ele>450.39999389648</ele>
        <time>2017-05-28T05:36:24.000Z</time>
      </trkpt>
      <trkpt lat="45.78392" lon="6.23235">
        <ele>449.60000610352</ele>
        <time>2017-05-28T05:36:31.000Z</time>
      </trkpt>
      <trkpt lat="45.78389" lon="6.23267">
        <ele>449.79998779297</ele>
        <time>2017-05-28T05:36:38.000Z</time>
      </trkpt>
      <trkpt lat="45.78387" lon="6.23301">
        <ele>449.79998779297</ele>
        <time>2017-05-28T05:36:46.000Z</time>
      </trkpt>
      <trkpt lat="45.7838" lon="6.23329">
        <ele>450</ele>
        <time>2017-05-28T05:36:53.000Z</time>
      </trkpt>
      <trkpt lat="45.78371" lon="6.23355">
        <ele>450</ele>
        <time>2017-05-28T05:36:59.000Z</time>
      </trkpt>
      <trkpt lat="45.78359" lon="6.23381">
        <ele>450</ele>
        <time>2017-05-28T05:37:05.000Z</time>
      </trkpt>
      <trkpt lat="45.78349" lon="6.23404">
        <ele>450.20001220703</ele>
        <time>2017-05-28T05:37:11.000Z</time>
      </trkpt>
      <trkpt lat="45.7834" lon="6.23427">
        <ele>450</ele>
        <time>2017-05-28T05:37:17.000Z</time>
      </trkpt>
      <trkpt lat="45.78327" lon="6.23451">
        <ele>450.39999389648</ele>
        <time>2017-05-28T05:37:24.000Z</time>
      </trkpt>
      <trkpt lat="45.78316" lon="6.23475">
        <ele>450.39999389648</ele>
        <time>2017-05-28T05:37:31.000Z</time>
      </trkpt>
      <trkpt lat="45.78306" lon="6.23496">
        <ele>450.20001220703</ele>
        <time>2017-05-28T05:37:37.000Z</time>
      </trkpt>
      <trkpt lat="45.78296" lon="6.23519">
        <ele>450</ele>
        <time>2017-05-28T05:37:43.000Z</time>
      </trkpt>
      <trkpt lat="45.78288" lon="6.23545">
        <ele>450</ele>
        <time>2017-05-28T05:37:50.000Z</time>
      </trkpt>
      <trkpt lat="45.78283" lon="6.23573">
        <ele>449.79998779297</ele>
        <time>2017-05-28T05:37:57.000Z</time>
      </trkpt>
      <trkpt lat="45.78287" lon="6.236">
        <ele>449.39999389648</ele>
        <time>2017-05-28T05:38:04.000Z</time>
      </trkpt>
      <trkpt lat="45.78294" lon="6.23627">
        <ele>449.20001220703</ele>
        <time>2017-05-28T05:38:10.000Z</time>
      </trkpt>
      <trkpt lat="45.78292" lon="6.23657">
        <ele>449.20001220703</ele>
        <time>2017-05-28T05:38:17.000Z</time>
      </trkpt>
      <trkpt lat="45.78286" lon="6.23687">
        <ele>449.39999389648</ele>
        <time>2017-05-28T05:38:24.000Z</time>
      </trkpt>
      <trkpt lat="45.78276" lon="6.23715">
        <ele>449.60000610352</ele>
        <time>2017-05-28T05:38:31.000Z</time>
      </trkpt>
      <trkpt lat="45.78267" lon="6.23742">
        <ele>449.60000610352</ele>
        <time>2017-05-28T05:38:38.000Z</time>
      </trkpt>
      <trkpt lat="45.78254" lon="6.23766">
        <ele>449.79998779297</ele>
        <time>2017-05-28T05:38:45.000Z</time>
      </trkpt>
      <trkpt lat="45.78241" lon="6.23788">
        <ele>450</ele>
        <time>2017-05-28T05:38:52.000Z</time>
      </trkpt>
      <trkpt lat="45.78224" lon="6.23806">
        <ele>450.20001220703</ele>
        <time>2017-05-28T05:38:59.000Z</time>
      </trkpt>
      <trkpt lat="45.78208" lon="6.23821">
        <ele>450.20001220703</ele>
        <time>2017-05-28T05:39:06.000Z</time>
      </trkpt>
      <trkpt lat="45.7819" lon="6.23834">
        <ele>450.20001220703</ele>
        <time>2017-05-28T05:39:13.000Z</time>
      </trkpt>
      <trkpt lat="45.78172" lon="6.23851">
        <ele>450.60000610352</ele>
        <time>2017-05-28T05:39:20.000Z</time>
      </trkpt>
      <trkpt lat="45.78153" lon="6.23868">
        <ele>450.79998779297</ele>
        <time>2017-05-28T05:39:27.000Z</time>
      </trkpt>
      <trkpt lat="45.78135" lon="6.23884">
        <ele>451.60000610352</ele>
        <time>2017-05-28T05:39:34.000Z</time>
      </trkpt>
      <trkpt lat="45.78128" lon="6.23906">
        <ele>452</ele>
        <time>2017-05-28T05:39:42.000Z</time>
      </trkpt>
      <trkpt lat="45.78139" lon="6.23929">
        <ele>451.79998779297</ele>
        <time>2017-05-28T05:39:49.000Z</time>
      </trkpt>
      <trkpt lat="45.78148" lon="6.23957">
        <ele>451</ele>
        <time>2017-05-28T05:39:56.000Z</time>
      </trkpt>
      <trkpt lat="45.78151" lon="6.23984">
        <ele>450.39999389648</ele>
        <time>2017-05-28T05:40:03.000Z</time>
      </trkpt>
      <trkpt lat="45.78145" lon="6.24016">
        <ele>450.79998779297</ele>
        <time>2017-05-28T05:40:11.000Z</time>
      </trkpt>
      <trkpt lat="45.78139" lon="6.24042">
        <ele>451.60000610352</ele>
        <time>2017-05-28T05:40:19.000Z</time>
      </trkpt>
      <trkpt lat="45.78138" lon="6.24045">
        <ele>451.60000610352</ele>
        <time>2017-05-28T05:40:20.000Z</time>
      </trkpt>
      <trkpt lat="45.78138" lon="6.24049">
        <ele>451.39999389648</ele>
        <time>2017-05-28T05:40:21.000Z</time>
      </trkpt>
      <trkpt lat="45.78141" lon="6.24067">
        <ele>451</ele>
        <time>2017-05-28T05:40:25.000Z</time>
      </trkpt>
      <trkpt lat="45.78144" lon="6.2407">
        <ele>451</ele>
        <time>2017-05-28T05:40:26.000Z</time>
      </trkpt>
      <trkpt lat="45.78147" lon="6.24073">
        <ele>451</ele>
        <time>2017-05-28T05:40:27.000Z</time>
      </trkpt>
      <trkpt lat="45.7815" lon="6.24076">
        <ele>450.79998779297</ele>
        <time>2017-05-28T05:40:28.000Z</time>
      </trkpt>
      <trkpt lat="45.78153" lon="6.24078">
        <ele>451</ele>
        <time>2017-05-28T05:40:29.000Z</time>
      </trkpt>
      <trkpt lat="45.78155" lon="6.2408">
        <ele>451</ele>
        <time>2017-05-28T05:40:30.000Z</time>
      </trkpt>
      <trkpt lat="45.78175" lon="6.24083">
        <ele>451.20001220703</ele>
        <time>2017-05-28T05:40:39.000Z</time>
      </trkpt>
      <trkpt lat="45.78197" lon="6.24072">
        <ele>451.39999389648</ele>
        <time>2017-05-28T05:40:47.000Z</time>
      </trkpt>
      <trkpt lat="45.78217" lon="6.24063">
        <ele>451.20001220703</ele>
        <time>2017-05-28T05:40:54.000Z</time>
      </trkpt>
      <trkpt lat="45.78237" lon="6.24054">
        <ele>451</ele>
        <time>2017-05-28T05:41:01.000Z</time>
      </trkpt>
      <trkpt lat="45.78259" lon="6.24043">
        <ele>450</ele>
        <time>2017-05-28T05:41:09.000Z</time>
      </trkpt>
      <trkpt lat="45.78277" lon="6.24026">
        <ele>449.79998779297</ele>
        <time>2017-05-28T05:41:16.000Z</time>
      </trkpt>
      <trkpt lat="45.78297" lon="6.24013">
        <ele>449.20001220703</ele>
        <time>2017-05-28T05:41:25.000Z</time>
      </trkpt>
      <trkpt lat="45.78321" lon="6.24002">
        <ele>449</ele>
        <time>2017-05-28T05:41:33.000Z</time>
      </trkpt>
      <trkpt lat="45.7834" lon="6.23982">
        <ele>449.20001220703</ele>
        <time>2017-05-28T05:41:41.000Z</time>
      </trkpt>
      <trkpt lat="45.78361" lon="6.23963">
        <ele>449.39999389648</ele>
        <time>2017-05-28T05:41:49.000Z</time>
      </trkpt>
      <trkpt lat="45.78385" lon="6.23949">
        <ele>449.39999389648</ele>
        <time>2017-05-28T05:41:59.000Z</time>
      </trkpt>
      <trkpt lat="45.78409" lon="6.23928">
        <ele>449.79998779297</ele>
        <time>2017-05-28T05:42:07.000Z</time>
      </trkpt>
      <trkpt lat="45.78427" lon="6.23905">
        <ele>448.79998779297</ele>
        <time>2017-05-28T05:42:14.000Z</time>
      </trkpt>
      <trkpt lat="45.78443" lon="6.23881">
        <ele>448.20001220703</ele>
        <time>2017-05-28T05:42:21.000Z</time>
      </trkpt>
      <trkpt lat="45.78459" lon="6.23862">
        <ele>447.39999389648</ele>
        <time>2017-05-28T05:42:28.000Z</time>
      </trkpt>
      <trkpt lat="45.78474" lon="6.23836">
        <ele>447</ele>
        <time>2017-05-28T05:42:36.000Z</time>
      </trkpt>
      <trkpt lat="45.78473" lon="6.23803">
        <ele>446.60000610352</ele>
        <time>2017-05-28T05:42:43.000Z</time>
      </trkpt>
      <trkpt lat="45.78467" lon="6.23772">
        <ele>446.39999389648</ele>
        <time>2017-05-28T05:42:50.000Z</time>
      </trkpt>
      <trkpt lat="45.78461" lon="6.23742">
        <ele>446.39999389648</ele>
        <time>2017-05-28T05:42:57.000Z</time>
      </trkpt>
      <trkpt lat="45.78464" lon="6.23709">
        <ele>445.79998779297</ele>
        <time>2017-05-28T05:43:06.000Z</time>
      </trkpt>
      <trkpt lat="45.78474" lon="6.23694">
        <ele>446.20001220703</ele>
        <time>2017-05-28T05:43:11.000Z</time>
      </trkpt>
      <trkpt lat="45.78493" lon="6.23683">
        <ele>446.39999389648</ele>
        <time>2017-05-28T05:43:19.000Z</time>
      </trkpt>
      <trkpt lat="45.7851" lon="6.23663">
        <ele>446.79998779297</ele>
        <time>2017-05-28T05:43:27.000Z</time>
      </trkpt>
      <trkpt lat="45.7852" lon="6.2363">
        <ele>446.79998779297</ele>
        <time>2017-05-28T05:43:35.000Z</time>
      </trkpt>
      <trkpt lat="45.78532" lon="6.23608">
        <ele>446.79998779297</ele>
        <time>2017-05-28T05:43:42.000Z</time>
      </trkpt>
      <trkpt lat="45.78548" lon="6.23582">
        <ele>447.39999389648</ele>
        <time>2017-05-28T05:43:51.000Z</time>
      </trkpt>
      <trkpt lat="45.7856" lon="6.23553">
        <ele>447.60000610352</ele>
        <time>2017-05-28T05:44:00.000Z</time>
      </trkpt>
      <trkpt lat="45.7857" lon="6.23524">
        <ele>447.79998779297</ele>
        <time>2017-05-28T05:44:08.000Z</time>
      </trkpt>
      <trkpt lat="45.78588" lon="6.23505">
        <ele>448.39999389648</ele>
        <time>2017-05-28T05:44:16.000Z</time>
      </trkpt>
      <trkpt lat="45.78609" lon="6.23486">
        <ele>449.39999389648</ele>
        <time>2017-05-28T05:44:26.000Z</time>
      </trkpt>
      <trkpt lat="45.78629" lon="6.23478">
        <ele>451.20001220703</ele>
        <time>2017-05-28T05:44:35.000Z</time>
      </trkpt>
      <trkpt lat="45.78631" lon="6.23476">
        <ele>451.39999389648</ele>
        <time>2017-05-28T05:44:36.000Z</time>
      </trkpt>
      <trkpt lat="45.78632" lon="6.23475">
        <ele>451.60000610352</ele>
        <time>2017-05-28T05:44:37.000Z</time>
      </trkpt>
      <trkpt lat="45.78635" lon="6.23473">
        <ele>451.60000610352</ele>
        <time>2017-05-28T05:44:38.000Z</time>
      </trkpt>
      <trkpt lat="45.78638" lon="6.23472">
        <ele>451.79998779297</ele>
        <time>2017-05-28T05:44:39.000Z</time>
      </trkpt>
      <trkpt lat="45.7864" lon="6.23471">
        <ele>452</ele>
        <time>2017-05-28T05:44:40.000Z</time>
      </trkpt>
      <trkpt lat="45.78643" lon="6.23469">
        <ele>452</ele>
        <time>2017-05-28T05:44:41.000Z</time>
      </trkpt>
      <trkpt lat="45.78646" lon="6.23467">
        <ele>452.20001220703</ele>
        <time>2017-05-28T05:44:42.000Z</time>
      </trkpt>
      <trkpt lat="45.78665" lon="6.23443">
        <ele>452.79998779297</ele>
        <time>2017-05-28T05:44:51.000Z</time>
      </trkpt>
      <trkpt lat="45.78678" lon="6.23413">
        <ele>451.79998779297</ele>
        <time>2017-05-28T05:44:58.000Z</time>
      </trkpt>
      <trkpt lat="45.78693" lon="6.23389">
        <ele>451.20001220703</ele>
        <time>2017-05-28T05:45:04.000Z</time>
      </trkpt>
      <trkpt lat="45.78699" lon="6.23388">
        <ele>451.20001220703</ele>
        <time>2017-05-28T05:45:06.000Z</time>
      </trkpt>
      <trkpt lat="45.78702" lon="6.23389">
        <ele>451.20001220703</ele>
        <time>2017-05-28T05:45:07.000Z</time>
      </trkpt>
      <trkpt lat="45.78705" lon="6.23391">
        <ele>451.20001220703</ele>
        <time>2017-05-28T05:45:08.000Z</time>
      </trkpt>
      <trkpt lat="45.78707" lon="6.23393">
        <ele>451.39999389648</ele>
        <time>2017-05-28T05:45:09.000Z</time>
      </trkpt>
      <trkpt lat="45.7871" lon="6.23394">
        <ele>451.79998779297</ele>
        <time>2017-05-28T05:45:10.000Z</time>
      </trkpt>
      <trkpt lat="45.78712" lon="6.23397">
        <ele>452</ele>
        <time>2017-05-28T05:45:11.000Z</time>
      </trkpt>
      <trkpt lat="45.78715" lon="6.23399">
        <ele>452.39999389648</ele>
        <time>2017-05-28T05:45:12.000Z</time>
      </trkpt>
      <trkpt lat="45.78717" lon="6.23401">
        <ele>452.79998779297</ele>
        <time>2017-05-28T05:45:13.000Z</time>
      </trkpt>
      <trkpt lat="45.7872" lon="6.23402">
        <ele>453</ele>
        <time>2017-05-28T05:45:14.000Z</time>
      </trkpt>
      <trkpt lat="45.78722" lon="6.23402">
        <ele>453.39999389648</ele>
        <time>2017-05-28T05:45:15.000Z</time>
      </trkpt>
      <trkpt lat="45.78725" lon="6.23403">
        <ele>453.79998779297</ele>
        <time>2017-05-28T05:45:16.000Z</time>
      </trkpt>
      <trkpt lat="45.78743" lon="6.2339">
        <ele>456.39999389648</ele>
        <time>2017-05-28T05:45:25.000Z</time>
      </trkpt>
      <trkpt lat="45.78749" lon="6.23389">
        <ele>457.20001220703</ele>
        <time>2017-05-28T05:45:28.000Z</time>
      </trkpt>
      <trkpt lat="45.78752" lon="6.2339">
        <ele>457.39999389648</ele>
        <time>2017-05-28T05:45:29.000Z</time>
      </trkpt>
      <trkpt lat="45.7877" lon="6.23401">
        <ele>460</ele>
        <time>2017-05-28T05:45:38.000Z</time>
      </trkpt>
      <trkpt lat="45.78782" lon="6.23416">
        <ele>463.20001220703</ele>
        <time>2017-05-28T05:45:48.000Z</time>
      </trkpt>
      <trkpt lat="45.78795" lon="6.23431">
        <ele>466.39999389648</ele>
        <time>2017-05-28T05:45:56.000Z</time>
      </trkpt>
      <trkpt lat="45.78813" lon="6.23431">
        <ele>468.20001220703</ele>
        <time>2017-05-28T05:46:05.000Z</time>
      </trkpt>
      <trkpt lat="45.78835" lon="6.23425">
        <ele>470.20001220703</ele>
        <time>2017-05-28T05:46:17.000Z</time>
      </trkpt>
      <trkpt lat="45.78858" lon="6.23427">
        <ele>472.60000610352</ele>
        <time>2017-05-28T05:46:28.000Z</time>
      </trkpt>
      <trkpt lat="45.7886" lon="6.23426">
        <ele>472.79998779297</ele>
        <time>2017-05-28T05:46:30.000Z</time>
      </trkpt>
      <trkpt lat="45.78861" lon="6.23426">
        <ele>473</ele>
        <time>2017-05-28T05:46:31.000Z</time>
      </trkpt>
      <trkpt lat="45.78862" lon="6.23427">
        <ele>473</ele>
        <time>2017-05-28T05:46:32.000Z</time>
      </trkpt>
      <trkpt lat="45.78892" lon="6.23435">
        <ele>475.39999389648</ele>
        <time>2017-05-28T05:46:43.000Z</time>
      </trkpt>
      <trkpt lat="45.78914" lon="6.23438">
        <ele>478</ele>
        <time>2017-05-28T05:46:53.000Z</time>
      </trkpt>
      <trkpt lat="45.78937" lon="6.23451">
        <ele>480</ele>
        <time>2017-05-28T05:47:02.000Z</time>
      </trkpt>
      <trkpt lat="45.78952" lon="6.23471">
        <ele>482.60000610352</ele>
        <time>2017-05-28T05:47:12.000Z</time>
      </trkpt>
      <trkpt lat="45.78969" lon="6.23491">
        <ele>485.60000610352</ele>
        <time>2017-05-28T05:47:24.000Z</time>
      </trkpt>
      <trkpt lat="45.78989" lon="6.23502">
        <ele>488.79998779297</ele>
        <time>2017-05-28T05:47:36.000Z</time>
      </trkpt>
      <trkpt lat="45.79006" lon="6.23516">
        <ele>491</ele>
        <time>2017-05-28T05:47:52.000Z</time>
      </trkpt>
      <trkpt lat="45.79008" lon="6.23517">
        <ele>491.20001220703</ele>
        <time>2017-05-28T05:47:53.000Z</time>
      </trkpt>
      <trkpt lat="45.7901" lon="6.23518">
        <ele>491.20001220703</ele>
        <time>2017-05-28T05:47:54.000Z</time>
      </trkpt>
      <trkpt lat="45.79015" lon="6.23523">
        <ele>491.79998779297</ele>
        <time>2017-05-28T05:47:59.000Z</time>
      </trkpt>
      <trkpt lat="45.79017" lon="6.23524">
        <ele>492</ele>
        <time>2017-05-28T05:48:00.000Z</time>
      </trkpt>
      <trkpt lat="45.79018" lon="6.23525">
        <ele>492.39999389648</ele>
        <time>2017-05-28T05:48:01.000Z</time>
      </trkpt>
      <trkpt lat="45.7902" lon="6.23526">
        <ele>492.60000610352</ele>
        <time>2017-05-28T05:48:02.000Z</time>
      </trkpt>
      <trkpt lat="45.79022" lon="6.23527">
        <ele>492.79998779297</ele>
        <time>2017-05-28T05:48:03.000Z</time>
      </trkpt>
      <trkpt lat="45.79038" lon="6.23542">
        <ele>495.60000610352</ele>
        <time>2017-05-28T05:48:19.000Z</time>
      </trkpt>
      <trkpt lat="45.7904" lon="6.23544">
        <ele>496</ele>
        <time>2017-05-28T05:48:21.000Z</time>
      </trkpt>
      <trkpt lat="45.79041" lon="6.23545">
        <ele>496.20001220703</ele>
        <time>2017-05-28T05:48:22.000Z</time>
      </trkpt>
      <trkpt lat="45.79054" lon="6.23559">
        <ele>499.60000610352</ele>
        <time>2017-05-28T05:48:37.000Z</time>
      </trkpt>
      <trkpt lat="45.79073" lon="6.23573">
        <ele>502.60000610352</ele>
        <time>2017-05-28T05:48:52.000Z</time>
      </trkpt>
      <trkpt lat="45.79081" lon="6.2358">
        <ele>504.39999389648</ele>
        <time>2017-05-28T05:49:00.000Z</time>
      </trkpt>
      <trkpt lat="45.79082" lon="6.23583">
        <ele>504.79998779297</ele>
        <time>2017-05-28T05:49:01.000Z</time>
      </trkpt>
      <trkpt lat="45.79083" lon="6.23585">
        <ele>505</ele>
        <time>2017-05-28T05:49:02.000Z</time>
      </trkpt>
      <trkpt lat="45.79084" lon="6.23587">
        <ele>505</ele>
        <time>2017-05-28T05:49:03.000Z</time>
      </trkpt>
      <trkpt lat="45.79084" lon="6.23588">
        <ele>505.20001220703</ele>
        <time>2017-05-28T05:49:04.000Z</time>
      </trkpt>
      <trkpt lat="45.79086" lon="6.23592">
        <ele>505.79998779297</ele>
        <time>2017-05-28T05:49:07.000Z</time>
      </trkpt>
      <trkpt lat="45.79089" lon="6.23596">
        <ele>506.79998779297</ele>
        <time>2017-05-28T05:49:12.000Z</time>
      </trkpt>
      <trkpt lat="45.7909" lon="6.23598">
        <ele>507.20001220703</ele>
        <time>2017-05-28T05:49:13.000Z</time>
      </trkpt>
      <trkpt lat="45.79094" lon="6.23603">
        <ele>508.60000610352</ele>
        <time>2017-05-28T05:49:18.000Z</time>
      </trkpt>
      <trkpt lat="45.79095" lon="6.23604">
        <ele>508.79998779297</ele>
        <time>2017-05-28T05:49:19.000Z</time>
      </trkpt>
      <trkpt lat="45.791" lon="6.23606">
        <ele>509.79998779297</ele>
        <time>2017-05-28T05:49:24.000Z</time>
      </trkpt>
      <trkpt lat="45.79102" lon="6.23606">
        <ele>510</ele>
        <time>2017-05-28T05:49:25.000Z</time>
      </trkpt>
      <trkpt lat="45.79103" lon="6.23606">
        <ele>510.20001220703</ele>
        <time>2017-05-28T05:49:26.000Z</time>
      </trkpt>
      <trkpt lat="45.79104" lon="6.23606">
        <ele>510.39999389648</ele>
        <time>2017-05-28T05:49:27.000Z</time>
      </trkpt>
      <trkpt lat="45.79106" lon="6.23606">
        <ele>510.60000610352</ele>
        <time>2017-05-28T05:49:28.000Z</time>
      </trkpt>
      <trkpt lat="45.79107" lon="6.23607">
        <ele>510.79998779297</ele>
        <time>2017-05-28T05:49:29.000Z</time>
      </trkpt>
      <trkpt lat="45.79108" lon="6.23606">
        <ele>511.20001220703</ele>
        <time>2017-05-28T05:49:30.000Z</time>
      </trkpt>
      <trkpt lat="45.79111" lon="6.23606">
        <ele>512</ele>
        <time>2017-05-28T05:49:33.000Z</time>
      </trkpt>
      <trkpt lat="45.79112" lon="6.23606">
        <ele>512.20001220703</ele>
        <time>2017-05-28T05:49:34.000Z</time>
      </trkpt>
      <trkpt lat="45.79114" lon="6.23606">
        <ele>512.40002441406</ele>
        <time>2017-05-28T05:49:35.000Z</time>
      </trkpt>
      <trkpt lat="45.79124" lon="6.23604">
        <ele>514.20001220703</ele>
        <time>2017-05-28T05:49:44.000Z</time>
      </trkpt>
      <trkpt lat="45.79125" lon="6.23604">
        <ele>514.40002441406</ele>
        <time>2017-05-28T05:49:45.000Z</time>
      </trkpt>
      <trkpt lat="45.79128" lon="6.23605">
        <ele>515.20001220703</ele>
        <time>2017-05-28T05:49:48.000Z</time>
      </trkpt>
      <trkpt lat="45.79129" lon="6.23606">
        <ele>515.40002441406</ele>
        <time>2017-05-28T05:49:49.000Z</time>
      </trkpt>
      <trkpt lat="45.79132" lon="6.23607">
        <ele>516.20001220703</ele>
        <time>2017-05-28T05:49:52.000Z</time>
      </trkpt>
      <trkpt lat="45.79141" lon="6.2361">
        <ele>518</ele>
        <time>2017-05-28T05:50:00.000Z</time>
      </trkpt>
      <trkpt lat="45.79144" lon="6.23612">
        <ele>518.59997558594</ele>
        <time>2017-05-28T05:50:03.000Z</time>
      </trkpt>
      <trkpt lat="45.79146" lon="6.23612">
        <ele>519.20001220703</ele>
        <time>2017-05-28T05:50:05.000Z</time>
      </trkpt>
      <trkpt lat="45.79155" lon="6.23614">
        <ele>520.59997558594</ele>
        <time>2017-05-28T05:50:12.000Z</time>
      </trkpt>
      <trkpt lat="45.79168" lon="6.23621">
        <ele>523.79998779297</ele>
        <time>2017-05-28T05:50:25.000Z</time>
      </trkpt>
      <trkpt lat="45.79172" lon="6.23622">
        <ele>524.59997558594</ele>
        <time>2017-05-28T05:50:29.000Z</time>
      </trkpt>
      <trkpt lat="45.79186" lon="6.2362">
        <ele>527.79998779297</ele>
        <time>2017-05-28T05:50:42.000Z</time>
      </trkpt>
      <trkpt lat="45.79188" lon="6.23618">
        <ele>529</ele>
        <time>2017-05-28T05:50:47.000Z</time>
      </trkpt>
      <trkpt lat="45.79189" lon="6.23618">
        <ele>529</ele>
        <time>2017-05-28T05:50:48.000Z</time>
      </trkpt>
      <trkpt lat="45.7919" lon="6.23617">
        <ele>529.20001220703</ele>
        <time>2017-05-28T05:50:49.000Z</time>
      </trkpt>
      <trkpt lat="45.79203" lon="6.23616">
        <ele>531.59997558594</ele>
        <time>2017-05-28T05:51:00.000Z</time>
      </trkpt>
      <trkpt lat="45.79204" lon="6.23616">
        <ele>532</ele>
        <time>2017-05-28T05:51:01.000Z</time>
      </trkpt>
      <trkpt lat="45.79205" lon="6.23616">
        <ele>532.20001220703</ele>
        <time>2017-05-28T05:51:02.000Z</time>
      </trkpt>
      <trkpt lat="45.79207" lon="6.23616">
        <ele>532.59997558594</ele>
        <time>2017-05-28T05:51:04.000Z</time>
      </trkpt>
      <trkpt lat="45.79208" lon="6.23615">
        <ele>533</ele>
        <time>2017-05-28T05:51:05.000Z</time>
      </trkpt>
      <trkpt lat="45.79209" lon="6.23614">
        <ele>533.20001220703</ele>
        <time>2017-05-28T05:51:06.000Z</time>
      </trkpt>
      <trkpt lat="45.79209" lon="6.23613">
        <ele>533.59997558594</ele>
        <time>2017-05-28T05:51:07.000Z</time>
      </trkpt>
      <trkpt lat="45.79211" lon="6.23614">
        <ele>534</ele>
        <time>2017-05-28T05:51:09.000Z</time>
      </trkpt>
      <trkpt lat="45.79215" lon="6.23613">
        <ele>535.59997558594</ele>
        <time>2017-05-28T05:51:16.000Z</time>
      </trkpt>
      <trkpt lat="45.79218" lon="6.23612">
        <ele>537.20001220703</ele>
        <time>2017-05-28T05:51:21.000Z</time>
      </trkpt>
      <trkpt lat="45.79224" lon="6.23612">
        <ele>539.20001220703</ele>
        <time>2017-05-28T05:51:30.000Z</time>
      </trkpt>
      <trkpt lat="45.79225" lon="6.23612">
        <ele>539.59997558594</ele>
        <time>2017-05-28T05:51:31.000Z</time>
      </trkpt>
      <trkpt lat="45.79226" lon="6.23611">
        <ele>540</ele>
        <time>2017-05-28T05:51:32.000Z</time>
      </trkpt>
      <trkpt lat="45.79227" lon="6.23611">
        <ele>540.40002441406</ele>
        <time>2017-05-28T05:51:33.000Z</time>
      </trkpt>
      <trkpt lat="45.79232" lon="6.23608">
        <ele>541.59997558594</ele>
        <time>2017-05-28T05:51:39.000Z</time>
      </trkpt>
      <trkpt lat="45.79235" lon="6.23606">
        <ele>543</ele>
        <time>2017-05-28T05:51:44.000Z</time>
      </trkpt>
      <trkpt lat="45.79239" lon="6.236">
        <ele>544.59997558594</ele>
        <time>2017-05-28T05:51:50.000Z</time>
      </trkpt>
      <trkpt lat="45.79242" lon="6.23598">
        <ele>545.20001220703</ele>
        <time>2017-05-28T05:51:52.000Z</time>
      </trkpt>
      <trkpt lat="45.79243" lon="6.23598">
        <ele>545.59997558594</ele>
        <time>2017-05-28T05:51:53.000Z</time>
      </trkpt>
      <trkpt lat="45.79252" lon="6.2359">
        <ele>548.79998779297</ele>
        <time>2017-05-28T05:52:05.000Z</time>
      </trkpt>
      <trkpt lat="45.79254" lon="6.23587">
        <ele>549.40002441406</ele>
        <time>2017-05-28T05:52:08.000Z</time>
      </trkpt>
      <trkpt lat="45.79263" lon="6.23582">
        <ele>552.59997558594</ele>
        <time>2017-05-28T05:52:20.000Z</time>
      </trkpt>
      <trkpt lat="45.79271" lon="6.23582">
        <ele>555</ele>
        <time>2017-05-28T05:52:27.000Z</time>
      </trkpt>
      <trkpt lat="45.79284" lon="6.23588">
        <ele>558.20001220703</ele>
        <time>2017-05-28T05:52:39.000Z</time>
      </trkpt>
      <trkpt lat="45.793" lon="6.23592">
        <ele>561.40002441406</ele>
        <time>2017-05-28T05:52:54.000Z</time>
      </trkpt>
      <trkpt lat="45.79305" lon="6.23597">
        <ele>563</ele>
        <time>2017-05-28T05:53:01.000Z</time>
      </trkpt>
      <trkpt lat="45.79305" lon="6.23598">
        <ele>563.40002441406</ele>
        <time>2017-05-28T05:53:02.000Z</time>
      </trkpt>
      <trkpt lat="45.79316" lon="6.2361">
        <ele>566.40002441406</ele>
        <time>2017-05-28T05:53:15.000Z</time>
      </trkpt>
      <trkpt lat="45.79327" lon="6.23621">
        <ele>569.59997558594</ele>
        <time>2017-05-28T05:53:27.000Z</time>
      </trkpt>
      <trkpt lat="45.7934" lon="6.23626">
        <ele>572.79998779297</ele>
        <time>2017-05-28T05:53:40.000Z</time>
      </trkpt>
      <trkpt lat="45.79344" lon="6.23627">
        <ele>573.59997558594</ele>
        <time>2017-05-28T05:53:44.000Z</time>
      </trkpt>
      <trkpt lat="45.79345" lon="6.23628">
        <ele>573.79998779297</ele>
        <time>2017-05-28T05:53:45.000Z</time>
      </trkpt>
      <trkpt lat="45.79346" lon="6.23629">
        <ele>574</ele>
        <time>2017-05-28T05:53:46.000Z</time>
      </trkpt>
      <trkpt lat="45.79349" lon="6.23631">
        <ele>574.59997558594</ele>
        <time>2017-05-28T05:53:50.000Z</time>
      </trkpt>
      <trkpt lat="45.79351" lon="6.23631">
        <ele>575</ele>
        <time>2017-05-28T05:53:51.000Z</time>
      </trkpt>
      <trkpt lat="45.79353" lon="6.23631">
        <ele>575</ele>
        <time>2017-05-28T05:53:52.000Z</time>
      </trkpt>
      <trkpt lat="45.79366" lon="6.23633">
        <ele>578</ele>
        <time>2017-05-28T05:54:04.000Z</time>
      </trkpt>
      <trkpt lat="45.79373" lon="6.23635">
        <ele>579.40002441406</ele>
        <time>2017-05-28T05:54:11.000Z</time>
      </trkpt>
      <trkpt lat="45.79379" lon="6.23635">
        <ele>581.40002441406</ele>
        <time>2017-05-28T05:54:19.000Z</time>
      </trkpt>
      <trkpt lat="45.7939" lon="6.23642">
        <ele>584.20001220703</ele>
        <time>2017-05-28T05:54:30.000Z</time>
      </trkpt>
      <trkpt lat="45.7939" lon="6.23644">
        <ele>584.59997558594</ele>
        <time>2017-05-28T05:54:31.000Z</time>
      </trkpt>
      <trkpt lat="45.79391" lon="6.23646">
        <ele>585.20001220703</ele>
        <time>2017-05-28T05:54:33.000Z</time>
      </trkpt>
      <trkpt lat="45.79392" lon="6.23648">
        <ele>585.40002441406</ele>
        <time>2017-05-28T05:54:34.000Z</time>
      </trkpt>
      <trkpt lat="45.79393" lon="6.2365">
        <ele>585.59997558594</ele>
        <time>2017-05-28T05:54:35.000Z</time>
      </trkpt>
      <trkpt lat="45.79394" lon="6.23651">
        <ele>586.20001220703</ele>
        <time>2017-05-28T05:54:36.000Z</time>
      </trkpt>
      <trkpt lat="45.79394" lon="6.23653">
        <ele>586.40002441406</ele>
        <time>2017-05-28T05:54:37.000Z</time>
      </trkpt>
      <trkpt lat="45.79395" lon="6.23654">
        <ele>586.59997558594</ele>
        <time>2017-05-28T05:54:38.000Z</time>
      </trkpt>
      <trkpt lat="45.79394" lon="6.23668">
        <ele>589.79998779297</ele>
        <time>2017-05-28T05:54:50.000Z</time>
      </trkpt>
      <trkpt lat="45.79393" lon="6.2367">
        <ele>590.40002441406</ele>
        <time>2017-05-28T05:54:52.000Z</time>
      </trkpt>
      <trkpt lat="45.79393" lon="6.23672">
        <ele>590.59997558594</ele>
        <time>2017-05-28T05:54:53.000Z</time>
      </trkpt>
      <trkpt lat="45.79391" lon="6.2369">
        <ele>593.59997558594</ele>
        <time>2017-05-28T05:55:04.000Z</time>
      </trkpt>
      <trkpt lat="45.79391" lon="6.23702">
        <ele>596.40002441406</ele>
        <time>2017-05-28T05:55:14.000Z</time>
      </trkpt>
      <trkpt lat="45.79389" lon="6.2371">
        <ele>597.59997558594</ele>
        <time>2017-05-28T05:55:19.000Z</time>
      </trkpt>
      <trkpt lat="45.79388" lon="6.23713">
        <ele>598.20001220703</ele>
        <time>2017-05-28T05:55:21.000Z</time>
      </trkpt>
      <trkpt lat="45.79387" lon="6.23719">
        <ele>599.40002441406</ele>
        <time>2017-05-28T05:55:27.000Z</time>
      </trkpt>
      <trkpt lat="45.79381" lon="6.23731">
        <ele>602.40002441406</ele>
        <time>2017-05-28T05:55:39.000Z</time>
      </trkpt>
      <trkpt lat="45.7938" lon="6.23733">
        <ele>602.79998779297</ele>
        <time>2017-05-28T05:55:41.000Z</time>
      </trkpt>
      <trkpt lat="45.79379" lon="6.23738">
        <ele>603.79998779297</ele>
        <time>2017-05-28T05:55:44.000Z</time>
      </trkpt>
      <trkpt lat="45.79379" lon="6.23741">
        <ele>604.40002441406</ele>
        <time>2017-05-28T05:55:46.000Z</time>
      </trkpt>
      <trkpt lat="45.79378" lon="6.23749">
        <ele>606</ele>
        <time>2017-05-28T05:55:52.000Z</time>
      </trkpt>
      <trkpt lat="45.79379" lon="6.23752">
        <ele>606.79998779297</ele>
        <time>2017-05-28T05:55:54.000Z</time>
      </trkpt>
      <trkpt lat="45.79379" lon="6.23754">
        <ele>607.20001220703</ele>
        <time>2017-05-28T05:55:55.000Z</time>
      </trkpt>
      <trkpt lat="45.79377" lon="6.23757">
        <ele>607.40002441406</ele>
        <time>2017-05-28T05:55:56.000Z</time>
      </trkpt>
      <trkpt lat="45.79377" lon="6.23759">
        <ele>607.79998779297</ele>
        <time>2017-05-28T05:55:57.000Z</time>
      </trkpt>
      <trkpt lat="45.79376" lon="6.23761">
        <ele>608</ele>
        <time>2017-05-28T05:55:58.000Z</time>
      </trkpt>
      <trkpt lat="45.79374" lon="6.23763">
        <ele>608.20001220703</ele>
        <time>2017-05-28T05:55:59.000Z</time>
      </trkpt>
      <trkpt lat="45.79373" lon="6.23765">
        <ele>608.40002441406</ele>
        <time>2017-05-28T05:56:00.000Z</time>
      </trkpt>
      <trkpt lat="45.79372" lon="6.23767">
        <ele>608.59997558594</ele>
        <time>2017-05-28T05:56:01.000Z</time>
      </trkpt>
      <trkpt lat="45.79371" lon="6.23768">
        <ele>609</ele>
        <time>2017-05-28T05:56:02.000Z</time>
      </trkpt>
      <trkpt lat="45.79369" lon="6.2377">
        <ele>609.20001220703</ele>
        <time>2017-05-28T05:56:03.000Z</time>
      </trkpt>
      <trkpt lat="45.7936" lon="6.23782">
        <ele>611.79998779297</ele>
        <time>2017-05-28T05:56:15.000Z</time>
      </trkpt>
      <trkpt lat="45.79359" lon="6.23783">
        <ele>612</ele>
        <time>2017-05-28T05:56:16.000Z</time>
      </trkpt>
      <trkpt lat="45.79358" lon="6.23784">
        <ele>612.20001220703</ele>
        <time>2017-05-28T05:56:17.000Z</time>
      </trkpt>
      <trkpt lat="45.79356" lon="6.23784">
        <ele>612.40002441406</ele>
        <time>2017-05-28T05:56:18.000Z</time>
      </trkpt>
      <trkpt lat="45.79355" lon="6.23784">
        <ele>612.59997558594</ele>
        <time>2017-05-28T05:56:19.000Z</time>
      </trkpt>
      <trkpt lat="45.79354" lon="6.23784">
        <ele>612.79998779297</ele>
        <time>2017-05-28T05:56:20.000Z</time>
      </trkpt>
      <trkpt lat="45.79354" lon="6.23784">
        <ele>612.79998779297</ele>
        <time>2017-05-28T05:56:21.000Z</time>
      </trkpt>
      <trkpt lat="45.79352" lon="6.23784">
        <ele>613</ele>
        <time>2017-05-28T05:56:22.000Z</time>
      </trkpt>
      <trkpt lat="45.7935" lon="6.23784">
        <ele>613.20001220703</ele>
        <time>2017-05-28T05:56:23.000Z</time>
      </trkpt>
      <trkpt lat="45.79349" lon="6.23784">
        <ele>613.40002441406</ele>
        <time>2017-05-28T05:56:24.000Z</time>
      </trkpt>
      <trkpt lat="45.7933" lon="6.23781">
        <ele>616.59997558594</ele>
        <time>2017-05-28T05:56:37.000Z</time>
      </trkpt>
      <trkpt lat="45.79309" lon="6.23779">
        <ele>619.59997558594</ele>
        <time>2017-05-28T05:56:53.000Z</time>
      </trkpt>
      <trkpt lat="45.79301" lon="6.2378">
        <ele>620.79998779297</ele>
        <time>2017-05-28T05:56:59.000Z</time>
      </trkpt>
      <trkpt lat="45.793" lon="6.23781">
        <ele>621.40002441406</ele>
        <time>2017-05-28T05:57:00.000Z</time>
      </trkpt>
      <trkpt lat="45.79276" lon="6.23789">
        <ele>624.40002441406</ele>
        <time>2017-05-28T05:57:17.000Z</time>
      </trkpt>
      <trkpt lat="45.79257" lon="6.23797">
        <ele>627.40002441406</ele>
        <time>2017-05-28T05:57:32.000Z</time>
      </trkpt>
      <trkpt lat="45.79254" lon="6.23799">
        <ele>628</ele>
        <time>2017-05-28T05:57:35.000Z</time>
      </trkpt>
      <trkpt lat="45.79252" lon="6.238">
        <ele>628.20001220703</ele>
        <time>2017-05-28T05:57:36.000Z</time>
      </trkpt>
      <trkpt lat="45.7924" lon="6.23807">
        <ele>629.79998779297</ele>
        <time>2017-05-28T05:57:45.000Z</time>
      </trkpt>
      <trkpt lat="45.7924" lon="6.23809">
        <ele>630</ele>
        <time>2017-05-28T05:57:46.000Z</time>
      </trkpt>
      <trkpt lat="45.79239" lon="6.2381">
        <ele>630</ele>
        <time>2017-05-28T05:57:47.000Z</time>
      </trkpt>
      <trkpt lat="45.79236" lon="6.23812">
        <ele>630.40002441406</ele>
        <time>2017-05-28T05:57:50.000Z</time>
      </trkpt>
      <trkpt lat="45.79234" lon="6.23813">
        <ele>630.59997558594</ele>
        <time>2017-05-28T05:57:51.000Z</time>
      </trkpt>
      <trkpt lat="45.79232" lon="6.23815">
        <ele>631</ele>
        <time>2017-05-28T05:57:52.000Z</time>
      </trkpt>
      <trkpt lat="45.79231" lon="6.23816">
        <ele>631.20001220703</ele>
        <time>2017-05-28T05:57:53.000Z</time>
      </trkpt>
      <trkpt lat="45.79229" lon="6.23817">
        <ele>631.20001220703</ele>
        <time>2017-05-28T05:57:54.000Z</time>
      </trkpt>
      <trkpt lat="45.79214" lon="6.23838">
        <ele>634</ele>
        <time>2017-05-28T05:58:11.000Z</time>
      </trkpt>
      <trkpt lat="45.79207" lon="6.23843">
        <ele>635.20001220703</ele>
        <time>2017-05-28T05:58:16.000Z</time>
      </trkpt>
      <trkpt lat="45.79206" lon="6.23845">
        <ele>635.40002441406</ele>
        <time>2017-05-28T05:58:17.000Z</time>
      </trkpt>
      <trkpt lat="45.79205" lon="6.23846">
        <ele>635.59997558594</ele>
        <time>2017-05-28T05:58:18.000Z</time>
      </trkpt>
      <trkpt lat="45.79204" lon="6.23848">
        <ele>635.79998779297</ele>
        <time>2017-05-28T05:58:19.000Z</time>
      </trkpt>
      <trkpt lat="45.79203" lon="6.2385">
        <ele>636</ele>
        <time>2017-05-28T05:58:20.000Z</time>
      </trkpt>
      <trkpt lat="45.79202" lon="6.23852">
        <ele>636.20001220703</ele>
        <time>2017-05-28T05:58:21.000Z</time>
      </trkpt>
      <trkpt lat="45.79201" lon="6.23854">
        <ele>636.20001220703</ele>
        <time>2017-05-28T05:58:22.000Z</time>
      </trkpt>
      <trkpt lat="45.79201" lon="6.23856">
        <ele>636.40002441406</ele>
        <time>2017-05-28T05:58:23.000Z</time>
      </trkpt>
      <trkpt lat="45.79184" lon="6.23882">
        <ele>639.59997558594</ele>
        <time>2017-05-28T05:58:39.000Z</time>
      </trkpt>
      <trkpt lat="45.79171" lon="6.23905">
        <ele>642.40002441406</ele>
        <time>2017-05-28T05:58:54.000Z</time>
      </trkpt>
      <trkpt lat="45.79168" lon="6.2392">
        <ele>644.20001220703</ele>
        <time>2017-05-28T05:59:03.000Z</time>
      </trkpt>
      <trkpt lat="45.79167" lon="6.23921">
        <ele>644.40002441406</ele>
        <time>2017-05-28T05:59:04.000Z</time>
      </trkpt>
      <trkpt lat="45.79166" lon="6.23923">
        <ele>644.59997558594</ele>
        <time>2017-05-28T05:59:05.000Z</time>
      </trkpt>
      <trkpt lat="45.79165" lon="6.23925">
        <ele>644.79998779297</ele>
        <time>2017-05-28T05:59:06.000Z</time>
      </trkpt>
      <trkpt lat="45.79167" lon="6.23927">
        <ele>645</ele>
        <time>2017-05-28T05:59:07.000Z</time>
      </trkpt>
      <trkpt lat="45.79168" lon="6.23929">
        <ele>645.20001220703</ele>
        <time>2017-05-28T05:59:08.000Z</time>
      </trkpt>
      <trkpt lat="45.79169" lon="6.23929">
        <ele>645.20001220703</ele>
        <time>2017-05-28T05:59:09.000Z</time>
      </trkpt>
      <trkpt lat="45.7917" lon="6.23929">
        <ele>645.59997558594</ele>
        <time>2017-05-28T05:59:10.000Z</time>
      </trkpt>
      <trkpt lat="45.79171" lon="6.23929">
        <ele>645.79998779297</ele>
        <time>2017-05-28T05:59:11.000Z</time>
      </trkpt>
      <trkpt lat="45.79172" lon="6.23928">
        <ele>646</ele>
        <time>2017-05-28T05:59:12.000Z</time>
      </trkpt>
      <trkpt lat="45.79173" lon="6.23928">
        <ele>646.20001220703</ele>
        <time>2017-05-28T05:59:13.000Z</time>
      </trkpt>
      <trkpt lat="45.7919" lon="6.23917">
        <ele>648.59997558594</ele>
        <time>2017-05-28T05:59:29.000Z</time>
      </trkpt>
      <trkpt lat="45.79193" lon="6.23913">
        <ele>649.79998779297</ele>
        <time>2017-05-28T05:59:34.000Z</time>
      </trkpt>
      <trkpt lat="45.79194" lon="6.23911">
        <ele>650</ele>
        <time>2017-05-28T05:59:35.000Z</time>
      </trkpt>
      <trkpt lat="45.79197" lon="6.23909">
        <ele>650.59997558594</ele>
        <time>2017-05-28T05:59:38.000Z</time>
      </trkpt>
      <trkpt lat="45.79198" lon="6.23907">
        <ele>650.79998779297</ele>
        <time>2017-05-28T05:59:39.000Z</time>
      </trkpt>
      <trkpt lat="45.79199" lon="6.23905">
        <ele>651</ele>
        <time>2017-05-28T05:59:40.000Z</time>
      </trkpt>
      <trkpt lat="45.79202" lon="6.239">
        <ele>651.79998779297</ele>
        <time>2017-05-28T05:59:44.000Z</time>
      </trkpt>
      <trkpt lat="45.79204" lon="6.23897">
        <ele>652.40002441406</ele>
        <time>2017-05-28T05:59:47.000Z</time>
      </trkpt>
      <trkpt lat="45.79206" lon="6.23897">
        <ele>652.40002441406</ele>
        <time>2017-05-28T05:59:48.000Z</time>
      </trkpt>
      <trkpt lat="45.79207" lon="6.23896">
        <ele>652.40002441406</ele>
        <time>2017-05-28T05:59:49.000Z</time>
      </trkpt>
      <trkpt lat="45.79208" lon="6.23895">
        <ele>652.59997558594</ele>
        <time>2017-05-28T05:59:50.000Z</time>
      </trkpt>
      <trkpt lat="45.79209" lon="6.23895">
        <ele>652.79998779297</ele>
        <time>2017-05-28T05:59:51.000Z</time>
      </trkpt>
      <trkpt lat="45.79211" lon="6.23894">
        <ele>653</ele>
        <time>2017-05-28T05:59:52.000Z</time>
      </trkpt>
      <trkpt lat="45.79212" lon="6.23893">
        <ele>653.20001220703</ele>
        <time>2017-05-28T05:59:53.000Z</time>
      </trkpt>
      <trkpt lat="45.79222" lon="6.23887">
        <ele>654.79998779297</ele>
        <time>2017-05-28T06:00:00.000Z</time>
      </trkpt>
      <trkpt lat="45.79223" lon="6.23887">
        <ele>655</ele>
        <time>2017-05-28T06:00:01.000Z</time>
      </trkpt>
      <trkpt lat="45.79224" lon="6.23886">
        <ele>655</ele>
        <time>2017-05-28T06:00:02.000Z</time>
      </trkpt>
      <trkpt lat="45.79226" lon="6.23886">
        <ele>655.20001220703</ele>
        <time>2017-05-28T06:00:03.000Z</time>
      </trkpt>
      <trkpt lat="45.79228" lon="6.23886">
        <ele>655.20001220703</ele>
        <time>2017-05-28T06:00:04.000Z</time>
      </trkpt>
      <trkpt lat="45.79229" lon="6.23886">
        <ele>655.59997558594</ele>
        <time>2017-05-28T06:00:05.000Z</time>
      </trkpt>
      <trkpt lat="45.79231" lon="6.23886">
        <ele>655.59997558594</ele>
        <time>2017-05-28T06:00:06.000Z</time>
      </trkpt>
      <trkpt lat="45.79233" lon="6.23886">
        <ele>655.79998779297</ele>
        <time>2017-05-28T06:00:07.000Z</time>
      </trkpt>
      <trkpt lat="45.79235" lon="6.23886">
        <ele>655.79998779297</ele>
        <time>2017-05-28T06:00:08.000Z</time>
      </trkpt>
      <trkpt lat="45.79237" lon="6.23886">
        <ele>656.20001220703</ele>
        <time>2017-05-28T06:00:09.000Z</time>
      </trkpt>
      <trkpt lat="45.79238" lon="6.23886">
        <ele>656.40002441406</ele>
        <time>2017-05-28T06:00:10.000Z</time>
      </trkpt>
      <trkpt lat="45.7924" lon="6.23886">
        <ele>656.59997558594</ele>
        <time>2017-05-28T06:00:11.000Z</time>
      </trkpt>
      <trkpt lat="45.79241" lon="6.23886">
        <ele>656.79998779297</ele>
        <time>2017-05-28T06:00:12.000Z</time>
      </trkpt>
      <trkpt lat="45.79243" lon="6.23886">
        <ele>657</ele>
        <time>2017-05-28T06:00:13.000Z</time>
      </trkpt>
      <trkpt lat="45.79244" lon="6.23886">
        <ele>657.20001220703</ele>
        <time>2017-05-28T06:00:14.000Z</time>
      </trkpt>
      <trkpt lat="45.79266" lon="6.23887">
        <ele>660.40002441406</ele>
        <time>2017-05-28T06:00:27.000Z</time>
      </trkpt>
      <trkpt lat="45.79287" lon="6.23889">
        <ele>663.59997558594</ele>
        <time>2017-05-28T06:00:43.000Z</time>
      </trkpt>
      <trkpt lat="45.79291" lon="6.23889">
        <ele>663.79998779297</ele>
        <time>2017-05-28T06:00:45.000Z</time>
      </trkpt>
      <trkpt lat="45.79294" lon="6.23891">
        <ele>664.40002441406</ele>
        <time>2017-05-28T06:00:47.000Z</time>
      </trkpt>
      <trkpt lat="45.79295" lon="6.23891">
        <ele>664.59997558594</ele>
        <time>2017-05-28T06:00:48.000Z</time>
      </trkpt>
      <trkpt lat="45.79314" lon="6.23902">
        <ele>667.40002441406</ele>
        <time>2017-05-28T06:01:01.000Z</time>
      </trkpt>
      <trkpt lat="45.79324" lon="6.23916">
        <ele>669.79998779297</ele>
        <time>2017-05-28T06:01:14.000Z</time>
      </trkpt>
      <trkpt lat="45.79325" lon="6.23917">
        <ele>670</ele>
        <time>2017-05-28T06:01:15.000Z</time>
      </trkpt>
      <trkpt lat="45.79332" lon="6.23922">
        <ele>672</ele>
        <time>2017-05-28T06:01:24.000Z</time>
      </trkpt>
      <trkpt lat="45.79335" lon="6.23926">
        <ele>672.59997558594</ele>
        <time>2017-05-28T06:01:28.000Z</time>
      </trkpt>
      <trkpt lat="45.79337" lon="6.23926">
        <ele>672.79998779297</ele>
        <time>2017-05-28T06:01:29.000Z</time>
      </trkpt>
      <trkpt lat="45.79338" lon="6.23927">
        <ele>673</ele>
        <time>2017-05-28T06:01:30.000Z</time>
      </trkpt>
      <trkpt lat="45.79352" lon="6.23931">
        <ele>676.20001220703</ele>
        <time>2017-05-28T06:01:44.000Z</time>
      </trkpt>
      <trkpt lat="45.79358" lon="6.23934">
        <ele>677.20001220703</ele>
        <time>2017-05-28T06:01:50.000Z</time>
      </trkpt>
      <trkpt lat="45.79385" lon="6.23945">
        <ele>680.40002441406</ele>
        <time>2017-05-28T06:02:08.000Z</time>
      </trkpt>
      <trkpt lat="45.79409" lon="6.23952">
        <ele>683.59997558594</ele>
        <time>2017-05-28T06:02:24.000Z</time>
      </trkpt>
      <trkpt lat="45.79422" lon="6.23954">
        <ele>685.40002441406</ele>
        <time>2017-05-28T06:02:34.000Z</time>
      </trkpt>
      <trkpt lat="45.79424" lon="6.23954">
        <ele>685.59997558594</ele>
        <time>2017-05-28T06:02:35.000Z</time>
      </trkpt>
      <trkpt lat="45.79425" lon="6.23953">
        <ele>685.79998779297</ele>
        <time>2017-05-28T06:02:36.000Z</time>
      </trkpt>
      <trkpt lat="45.79428" lon="6.23953">
        <ele>685.79998779297</ele>
        <time>2017-05-28T06:02:37.000Z</time>
      </trkpt>
      <trkpt lat="45.79429" lon="6.23953">
        <ele>685.79998779297</ele>
        <time>2017-05-28T06:02:38.000Z</time>
      </trkpt>
      <trkpt lat="45.79431" lon="6.23952">
        <ele>686</ele>
        <time>2017-05-28T06:02:39.000Z</time>
      </trkpt>
      <trkpt lat="45.79432" lon="6.23952">
        <ele>686.20001220703</ele>
        <time>2017-05-28T06:02:40.000Z</time>
      </trkpt>
      <trkpt lat="45.79434" lon="6.23952">
        <ele>686.40002441406</ele>
        <time>2017-05-28T06:02:41.000Z</time>
      </trkpt>
      <trkpt lat="45.79436" lon="6.23952">
        <ele>687</ele>
        <time>2017-05-28T06:02:43.000Z</time>
      </trkpt>
      <trkpt lat="45.79452" lon="6.23956">
        <ele>689.20001220703</ele>
        <time>2017-05-28T06:02:55.000Z</time>
      </trkpt>
      <trkpt lat="45.79453" lon="6.23956">
        <ele>689.40002441406</ele>
        <time>2017-05-28T06:02:56.000Z</time>
      </trkpt>
      <trkpt lat="45.79465" lon="6.23959">
        <ele>691.40002441406</ele>
        <time>2017-05-28T06:03:05.000Z</time>
      </trkpt>
      <trkpt lat="45.79466" lon="6.23959">
        <ele>691.59997558594</ele>
        <time>2017-05-28T06:03:06.000Z</time>
      </trkpt>
      <trkpt lat="45.79467" lon="6.23959">
        <ele>691.79998779297</ele>
        <time>2017-05-28T06:03:07.000Z</time>
      </trkpt>
      <trkpt lat="45.79469" lon="6.23959">
        <ele>692</ele>
        <time>2017-05-28T06:03:08.000Z</time>
      </trkpt>
      <trkpt lat="45.7947" lon="6.23959">
        <ele>692.20001220703</ele>
        <time>2017-05-28T06:03:09.000Z</time>
      </trkpt>
      <trkpt lat="45.79472" lon="6.23959">
        <ele>692.59997558594</ele>
        <time>2017-05-28T06:03:10.000Z</time>
      </trkpt>
      <trkpt lat="45.79489" lon="6.2396">
        <ele>695.59997558594</ele>
        <time>2017-05-28T06:03:26.000Z</time>
      </trkpt>
      <trkpt lat="45.79514" lon="6.23963">
        <ele>698.79998779297</ele>
        <time>2017-05-28T06:03:42.000Z</time>
      </trkpt>
      <trkpt lat="45.79527" lon="6.23963">
        <ele>701</ele>
        <time>2017-05-28T06:03:53.000Z</time>
      </trkpt>
      <trkpt lat="45.79529" lon="6.23963">
        <ele>701.20001220703</ele>
        <time>2017-05-28T06:03:54.000Z</time>
      </trkpt>
      <trkpt lat="45.7953" lon="6.23963">
        <ele>701.20001220703</ele>
        <time>2017-05-28T06:03:55.000Z</time>
      </trkpt>
      <trkpt lat="45.79534" lon="6.23961">
        <ele>701.59997558594</ele>
        <time>2017-05-28T06:03:58.000Z</time>
      </trkpt>
      <trkpt lat="45.79542" lon="6.23961">
        <ele>702.59997558594</ele>
        <time>2017-05-28T06:04:05.000Z</time>
      </trkpt>
      <trkpt lat="45.79545" lon="6.23962">
        <ele>703.20001220703</ele>
        <time>2017-05-28T06:04:08.000Z</time>
      </trkpt>
      <trkpt lat="45.79547" lon="6.23962">
        <ele>703.40002441406</ele>
        <time>2017-05-28T06:04:09.000Z</time>
      </trkpt>
      <trkpt lat="45.79549" lon="6.23963">
        <ele>703.59997558594</ele>
        <time>2017-05-28T06:04:10.000Z</time>
      </trkpt>
      <trkpt lat="45.7955" lon="6.23964">
        <ele>703.79998779297</ele>
        <time>2017-05-28T06:04:11.000Z</time>
      </trkpt>
      <trkpt lat="45.79562" lon="6.23963">
        <ele>705.20001220703</ele>
        <time>2017-05-28T06:04:18.000Z</time>
      </trkpt>
      <trkpt lat="45.79589" lon="6.23961">
        <ele>708.20001220703</ele>
        <time>2017-05-28T06:04:36.000Z</time>
      </trkpt>
      <trkpt lat="45.79606" lon="6.23954">
        <ele>711.20001220703</ele>
        <time>2017-05-28T06:04:52.000Z</time>
      </trkpt>
      <trkpt lat="45.79619" lon="6.2395">
        <ele>713.20001220703</ele>
        <time>2017-05-28T06:05:03.000Z</time>
      </trkpt>
      <trkpt lat="45.79621" lon="6.2395">
        <ele>713.59997558594</ele>
        <time>2017-05-28T06:05:04.000Z</time>
      </trkpt>
      <trkpt lat="45.79622" lon="6.23949">
        <ele>713.59997558594</ele>
        <time>2017-05-28T06:05:05.000Z</time>
      </trkpt>
      <trkpt lat="45.79625" lon="6.23946">
        <ele>714.59997558594</ele>
        <time>2017-05-28T06:05:10.000Z</time>
      </trkpt>
      <trkpt lat="45.79629" lon="6.23947">
        <ele>715.40002441406</ele>
        <time>2017-05-28T06:05:14.000Z</time>
      </trkpt>
      <trkpt lat="45.79631" lon="6.23948">
        <ele>715.40002441406</ele>
        <time>2017-05-28T06:05:15.000Z</time>
      </trkpt>
      <trkpt lat="45.79641" lon="6.23947">
        <ele>716.59997558594</ele>
        <time>2017-05-28T06:05:22.000Z</time>
      </trkpt>
      <trkpt lat="45.7965" lon="6.23945">
        <ele>718.20001220703</ele>
        <time>2017-05-28T06:05:30.000Z</time>
      </trkpt>
      <trkpt lat="45.79662" lon="6.23949">
        <ele>719.40002441406</ele>
        <time>2017-05-28T06:05:39.000Z</time>
      </trkpt>
      <trkpt lat="45.79665" lon="6.2395">
        <ele>720</ele>
        <time>2017-05-28T06:05:41.000Z</time>
      </trkpt>
      <trkpt lat="45.7967" lon="6.2395">
        <ele>720.79998779297</ele>
        <time>2017-05-28T06:05:45.000Z</time>
      </trkpt>
      <trkpt lat="45.79681" lon="6.23951">
        <ele>722.59997558594</ele>
        <time>2017-05-28T06:05:55.000Z</time>
      </trkpt>
      <trkpt lat="45.79687" lon="6.23952">
        <ele>723.40002441406</ele>
        <time>2017-05-28T06:05:59.000Z</time>
      </trkpt>
      <trkpt lat="45.79688" lon="6.23952">
        <ele>723.59997558594</ele>
        <time>2017-05-28T06:06:00.000Z</time>
      </trkpt>
      <trkpt lat="45.79691" lon="6.23952">
        <ele>724.20001220703</ele>
        <time>2017-05-28T06:06:02.000Z</time>
      </trkpt>
      <trkpt lat="45.79693" lon="6.23952">
        <ele>724.40002441406</ele>
        <time>2017-05-28T06:06:03.000Z</time>
      </trkpt>
      <trkpt lat="45.79695" lon="6.23952">
        <ele>724.40002441406</ele>
        <time>2017-05-28T06:06:04.000Z</time>
      </trkpt>
      <trkpt lat="45.79696" lon="6.23952">
        <ele>724.40002441406</ele>
        <time>2017-05-28T06:06:05.000Z</time>
      </trkpt>
      <trkpt lat="45.79698" lon="6.23952">
        <ele>724.59997558594</ele>
        <time>2017-05-28T06:06:06.000Z</time>
      </trkpt>
      <trkpt lat="45.797" lon="6.23953">
        <ele>724.79998779297</ele>
        <time>2017-05-28T06:06:07.000Z</time>
      </trkpt>
      <trkpt lat="45.79702" lon="6.23954">
        <ele>725</ele>
        <time>2017-05-28T06:06:08.000Z</time>
      </trkpt>
      <trkpt lat="45.79703" lon="6.23954">
        <ele>725.20001220703</ele>
        <time>2017-05-28T06:06:09.000Z</time>
      </trkpt>
      <trkpt lat="45.79705" lon="6.23955">
        <ele>725.40002441406</ele>
        <time>2017-05-28T06:06:10.000Z</time>
      </trkpt>
      <trkpt lat="45.79707" lon="6.23956">
        <ele>725.40002441406</ele>
        <time>2017-05-28T06:06:11.000Z</time>
      </trkpt>
      <trkpt lat="45.7971" lon="6.23957">
        <ele>725.59997558594</ele>
        <time>2017-05-28T06:06:12.000Z</time>
      </trkpt>
      <trkpt lat="45.79722" lon="6.23962">
        <ele>727.79998779297</ele>
        <time>2017-05-28T06:06:20.000Z</time>
      </trkpt>
      <trkpt lat="45.7973" lon="6.23963">
        <ele>729</ele>
        <time>2017-05-28T06:06:25.000Z</time>
      </trkpt>
      <trkpt lat="45.79738" lon="6.23972">
        <ele>730</ele>
        <time>2017-05-28T06:06:31.000Z</time>
      </trkpt>
      <trkpt lat="45.79739" lon="6.23974">
        <ele>730.40002441406</ele>
        <time>2017-05-28T06:06:32.000Z</time>
      </trkpt>
      <trkpt lat="45.7974" lon="6.23976">
        <ele>730.59997558594</ele>
        <time>2017-05-28T06:06:33.000Z</time>
      </trkpt>
      <trkpt lat="45.79741" lon="6.23978">
        <ele>730.79998779297</ele>
        <time>2017-05-28T06:06:34.000Z</time>
      </trkpt>
      <trkpt lat="45.79742" lon="6.23981">
        <ele>731</ele>
        <time>2017-05-28T06:06:35.000Z</time>
      </trkpt>
      <trkpt lat="45.79742" lon="6.23983">
        <ele>731.40002441406</ele>
        <time>2017-05-28T06:06:36.000Z</time>
      </trkpt>
      <trkpt lat="45.79748" lon="6.23987">
        <ele>732.40002441406</ele>
        <time>2017-05-28T06:06:41.000Z</time>
      </trkpt>
      <trkpt lat="45.79756" lon="6.23995">
        <ele>734</ele>
        <time>2017-05-28T06:06:48.000Z</time>
      </trkpt>
      <trkpt lat="45.79758" lon="6.23996">
        <ele>734.20001220703</ele>
        <time>2017-05-28T06:06:50.000Z</time>
      </trkpt>
      <trkpt lat="45.79759" lon="6.23996">
        <ele>734.40002441406</ele>
        <time>2017-05-28T06:06:51.000Z</time>
      </trkpt>
      <trkpt lat="45.7976" lon="6.23996">
        <ele>734.59997558594</ele>
        <time>2017-05-28T06:06:52.000Z</time>
      </trkpt>
      <trkpt lat="45.79775" lon="6.23997">
        <ele>737.79998779297</ele>
        <time>2017-05-28T06:07:06.000Z</time>
      </trkpt>
      <trkpt lat="45.79781" lon="6.23998">
        <ele>738.40002441406</ele>
        <time>2017-05-28T06:07:09.000Z</time>
      </trkpt>
      <trkpt lat="45.79784" lon="6.23998">
        <ele>738.79998779297</ele>
        <time>2017-05-28T06:07:11.000Z</time>
      </trkpt>
      <trkpt lat="45.79785" lon="6.23998">
        <ele>739.20001220703</ele>
        <time>2017-05-28T06:07:12.000Z</time>
      </trkpt>
      <trkpt lat="45.79786" lon="6.23998">
        <ele>739.40002441406</ele>
        <time>2017-05-28T06:07:13.000Z</time>
      </trkpt>
      <trkpt lat="45.79787" lon="6.23998">
        <ele>739.59997558594</ele>
        <time>2017-05-28T06:07:14.000Z</time>
      </trkpt>
      <trkpt lat="45.7979" lon="6.24">
        <ele>740.59997558594</ele>
        <time>2017-05-28T06:07:18.000Z</time>
      </trkpt>
      <trkpt lat="45.79796" lon="6.24004">
        <ele>742.20001220703</ele>
        <time>2017-05-28T06:07:25.000Z</time>
      </trkpt>
      <trkpt lat="45.79797" lon="6.24004">
        <ele>742.40002441406</ele>
        <time>2017-05-28T06:07:26.000Z</time>
      </trkpt>
      <trkpt lat="45.79798" lon="6.24005">
        <ele>742.59997558594</ele>
        <time>2017-05-28T06:07:27.000Z</time>
      </trkpt>
      <trkpt lat="45.79806" lon="6.24009">
        <ele>743.59997558594</ele>
        <time>2017-05-28T06:07:34.000Z</time>
      </trkpt>
      <trkpt lat="45.79807" lon="6.2401">
        <ele>743.79998779297</ele>
        <time>2017-05-28T06:07:35.000Z</time>
      </trkpt>
      <trkpt lat="45.79818" lon="6.24022">
        <ele>746.79998779297</ele>
        <time>2017-05-28T06:07:46.000Z</time>
      </trkpt>
      <trkpt lat="45.79825" lon="6.24026">
        <ele>748.59997558594</ele>
        <time>2017-05-28T06:07:52.000Z</time>
      </trkpt>
      <trkpt lat="45.79828" lon="6.24027">
        <ele>748.79998779297</ele>
        <time>2017-05-28T06:07:54.000Z</time>
      </trkpt>
      <trkpt lat="45.79831" lon="6.24028">
        <ele>749.59997558594</ele>
        <time>2017-05-28T06:07:56.000Z</time>
      </trkpt>
      <trkpt lat="45.79832" lon="6.2403">
        <ele>750</ele>
        <time>2017-05-28T06:07:58.000Z</time>
      </trkpt>
      <trkpt lat="45.79838" lon="6.24035">
        <ele>751.20001220703</ele>
        <time>2017-05-28T06:08:02.000Z</time>
      </trkpt>
      <trkpt lat="45.79842" lon="6.24038">
        <ele>751.59997558594</ele>
        <time>2017-05-28T06:08:04.000Z</time>
      </trkpt>
      <trkpt lat="45.79847" lon="6.24047">
        <ele>753.20001220703</ele>
        <time>2017-05-28T06:08:12.000Z</time>
      </trkpt>
      <trkpt lat="45.79854" lon="6.24048">
        <ele>754.20001220703</ele>
        <time>2017-05-28T06:08:17.000Z</time>
      </trkpt>
      <trkpt lat="45.79855" lon="6.24048">
        <ele>754.40002441406</ele>
        <time>2017-05-28T06:08:18.000Z</time>
      </trkpt>
      <trkpt lat="45.79857" lon="6.24048">
        <ele>754.79998779297</ele>
        <time>2017-05-28T06:08:20.000Z</time>
      </trkpt>
      <trkpt lat="45.79861" lon="6.24049">
        <ele>757</ele>
        <time>2017-05-28T06:08:28.000Z</time>
      </trkpt>
      <trkpt lat="45.79862" lon="6.2405">
        <ele>757.20001220703</ele>
        <time>2017-05-28T06:08:29.000Z</time>
      </trkpt>
      <trkpt lat="45.79872" lon="6.24053">
        <ele>759</ele>
        <time>2017-05-28T06:08:37.000Z</time>
      </trkpt>
      <trkpt lat="45.7988" lon="6.24056">
        <ele>760.40002441406</ele>
        <time>2017-05-28T06:08:43.000Z</time>
      </trkpt>
      <trkpt lat="45.79881" lon="6.24056">
        <ele>760.59997558594</ele>
        <time>2017-05-28T06:08:44.000Z</time>
      </trkpt>
      <trkpt lat="45.79884" lon="6.24057">
        <ele>761</ele>
        <time>2017-05-28T06:08:46.000Z</time>
      </trkpt>
      <trkpt lat="45.79885" lon="6.24057">
        <ele>761.20001220703</ele>
        <time>2017-05-28T06:08:47.000Z</time>
      </trkpt>
      <trkpt lat="45.79887" lon="6.24058">
        <ele>761.59997558594</ele>
        <time>2017-05-28T06:08:48.000Z</time>
      </trkpt>
      <trkpt lat="45.79888" lon="6.24059">
        <ele>761.79998779297</ele>
        <time>2017-05-28T06:08:49.000Z</time>
      </trkpt>
      <trkpt lat="45.79889" lon="6.2406">
        <ele>762</ele>
        <time>2017-05-28T06:08:50.000Z</time>
      </trkpt>
      <trkpt lat="45.7989" lon="6.2406">
        <ele>762.20001220703</ele>
        <time>2017-05-28T06:08:51.000Z</time>
      </trkpt>
      <trkpt lat="45.79899" lon="6.24058">
        <ele>764.79998779297</ele>
        <time>2017-05-28T06:09:01.000Z</time>
      </trkpt>
      <trkpt lat="45.79907" lon="6.24063">
        <ele>766.79998779297</ele>
        <time>2017-05-28T06:09:09.000Z</time>
      </trkpt>
      <trkpt lat="45.79907" lon="6.24064">
        <ele>767</ele>
        <time>2017-05-28T06:09:10.000Z</time>
      </trkpt>
      <trkpt lat="45.79908" lon="6.24065">
        <ele>767.40002441406</ele>
        <time>2017-05-28T06:09:11.000Z</time>
      </trkpt>
      <trkpt lat="45.79915" lon="6.24068">
        <ele>769</ele>
        <time>2017-05-28T06:09:19.000Z</time>
      </trkpt>
      <trkpt lat="45.79916" lon="6.24068">
        <ele>769.20001220703</ele>
        <time>2017-05-28T06:09:20.000Z</time>
      </trkpt>
      <trkpt lat="45.79919" lon="6.24069">
        <ele>770</ele>
        <time>2017-05-28T06:09:23.000Z</time>
      </trkpt>
      <trkpt lat="45.79921" lon="6.24071">
        <ele>770.20001220703</ele>
        <time>2017-05-28T06:09:24.000Z</time>
      </trkpt>
      <trkpt lat="45.79923" lon="6.24072">
        <ele>770.40002441406</ele>
        <time>2017-05-28T06:09:25.000Z</time>
      </trkpt>
      <trkpt lat="45.79924" lon="6.24073">
        <ele>770.59997558594</ele>
        <time>2017-05-28T06:09:26.000Z</time>
      </trkpt>
      <trkpt lat="45.79925" lon="6.24074">
        <ele>770.59997558594</ele>
        <time>2017-05-28T06:09:27.000Z</time>
      </trkpt>
      <trkpt lat="45.79926" lon="6.24074">
        <ele>770.79998779297</ele>
        <time>2017-05-28T06:09:28.000Z</time>
      </trkpt>
      <trkpt lat="45.79932" lon="6.24076">
        <ele>772.59997558594</ele>
        <time>2017-05-28T06:09:36.000Z</time>
      </trkpt>
      <trkpt lat="45.79943" lon="6.24078">
        <ele>774.79998779297</ele>
        <time>2017-05-28T06:09:44.000Z</time>
      </trkpt>
      <trkpt lat="45.79948" lon="6.24079">
        <ele>775.59997558594</ele>
        <time>2017-05-28T06:09:49.000Z</time>
      </trkpt>
      <trkpt lat="45.7995" lon="6.24079">
        <ele>776</ele>
        <time>2017-05-28T06:09:51.000Z</time>
      </trkpt>
      <trkpt lat="45.79951" lon="6.24078">
        <ele>776.20001220703</ele>
        <time>2017-05-28T06:09:52.000Z</time>
      </trkpt>
      <trkpt lat="45.79952" lon="6.24077">
        <ele>776.59997558594</ele>
        <time>2017-05-28T06:09:53.000Z</time>
      </trkpt>
      <trkpt lat="45.79954" lon="6.24075">
        <ele>777</ele>
        <time>2017-05-28T06:09:55.000Z</time>
      </trkpt>
      <trkpt lat="45.79955" lon="6.24075">
        <ele>777.59997558594</ele>
        <time>2017-05-28T06:09:57.000Z</time>
      </trkpt>
      <trkpt lat="45.79956" lon="6.24075">
        <ele>777.79998779297</ele>
        <time>2017-05-28T06:09:58.000Z</time>
      </trkpt>
      <trkpt lat="45.79958" lon="6.24077">
        <ele>778.20001220703</ele>
        <time>2017-05-28T06:10:00.000Z</time>
      </trkpt>
      <trkpt lat="45.79971" lon="6.24085">
        <ele>781.40002441406</ele>
        <time>2017-05-28T06:10:14.000Z</time>
      </trkpt>
      <trkpt lat="45.79974" lon="6.24084">
        <ele>782.20001220703</ele>
        <time>2017-05-28T06:10:17.000Z</time>
      </trkpt>
      <trkpt lat="45.79977" lon="6.24084">
        <ele>782.79998779297</ele>
        <time>2017-05-28T06:10:19.000Z</time>
      </trkpt>
      <trkpt lat="45.79978" lon="6.24083">
        <ele>783</ele>
        <time>2017-05-28T06:10:20.000Z</time>
      </trkpt>
      <trkpt lat="45.79985" lon="6.24084">
        <ele>784.20001220703</ele>
        <time>2017-05-28T06:10:26.000Z</time>
      </trkpt>
      <trkpt lat="45.79985" lon="6.24084">
        <ele>784.40002441406</ele>
        <time>2017-05-28T06:10:27.000Z</time>
      </trkpt>
      <trkpt lat="45.79992" lon="6.24079">
        <ele>787.20001220703</ele>
        <time>2017-05-28T06:10:38.000Z</time>
      </trkpt>
      <trkpt lat="45.79995" lon="6.24074">
        <ele>788.40002441406</ele>
        <time>2017-05-28T06:10:42.000Z</time>
      </trkpt>
      <trkpt lat="45.80001" lon="6.24071">
        <ele>789.40002441406</ele>
        <time>2017-05-28T06:10:47.000Z</time>
      </trkpt>
      <trkpt lat="45.80006" lon="6.24073">
        <ele>790.40002441406</ele>
        <time>2017-05-28T06:10:53.000Z</time>
      </trkpt>
      <trkpt lat="45.80007" lon="6.24073">
        <ele>791</ele>
        <time>2017-05-28T06:10:54.000Z</time>
      </trkpt>
      <trkpt lat="45.80008" lon="6.24073">
        <ele>791.40002441406</ele>
        <time>2017-05-28T06:10:55.000Z</time>
      </trkpt>
      <trkpt lat="45.80009" lon="6.24072">
        <ele>791.79998779297</ele>
        <time>2017-05-28T06:10:56.000Z</time>
      </trkpt>
      <trkpt lat="45.80011" lon="6.24072">
        <ele>791.79998779297</ele>
        <time>2017-05-28T06:10:57.000Z</time>
      </trkpt>
      <trkpt lat="45.80011" lon="6.2407">
        <ele>791.79998779297</ele>
        <time>2017-05-28T06:10:58.000Z</time>
      </trkpt>
      <trkpt lat="45.80013" lon="6.24069">
        <ele>792</ele>
        <time>2017-05-28T06:11:00.000Z</time>
      </trkpt>
      <trkpt lat="45.80014" lon="6.24069">
        <ele>792.20001220703</ele>
        <time>2017-05-28T06:11:01.000Z</time>
      </trkpt>
      <trkpt lat="45.80016" lon="6.24069">
        <ele>792.59997558594</ele>
        <time>2017-05-28T06:11:02.000Z</time>
      </trkpt>
      <trkpt lat="45.80017" lon="6.2407">
        <ele>792.79998779297</ele>
        <time>2017-05-28T06:11:03.000Z</time>
      </trkpt>
      <trkpt lat="45.80019" lon="6.2407">
        <ele>793</ele>
        <time>2017-05-28T06:11:04.000Z</time>
      </trkpt>
      <trkpt lat="45.8003" lon="6.24072">
        <ele>795.59997558594</ele>
        <time>2017-05-28T06:11:15.000Z</time>
      </trkpt>
      <trkpt lat="45.80033" lon="6.24071">
        <ele>796.79998779297</ele>
        <time>2017-05-28T06:11:19.000Z</time>
      </trkpt>
      <trkpt lat="45.80035" lon="6.24072">
        <ele>797</ele>
        <time>2017-05-28T06:11:20.000Z</time>
      </trkpt>
      <trkpt lat="45.80041" lon="6.24073">
        <ele>799</ele>
        <time>2017-05-28T06:11:29.000Z</time>
      </trkpt>
      <trkpt lat="45.80051" lon="6.24076">
        <ele>800.79998779297</ele>
        <time>2017-05-28T06:11:38.000Z</time>
      </trkpt>
      <trkpt lat="45.80054" lon="6.24078">
        <ele>801.79998779297</ele>
        <time>2017-05-28T06:11:42.000Z</time>
      </trkpt>
      <trkpt lat="45.80058" lon="6.24078">
        <ele>802.20001220703</ele>
        <time>2017-05-28T06:11:45.000Z</time>
      </trkpt>
      <trkpt lat="45.80062" lon="6.24079">
        <ele>803.40002441406</ele>
        <time>2017-05-28T06:11:50.000Z</time>
      </trkpt>
      <trkpt lat="45.80077" lon="6.24079">
        <ele>806.59997558594</ele>
        <time>2017-05-28T06:12:03.000Z</time>
      </trkpt>
      <trkpt lat="45.80089" lon="6.24079">
        <ele>809.59997558594</ele>
        <time>2017-05-28T06:12:16.000Z</time>
      </trkpt>
      <trkpt lat="45.80094" lon="6.2408">
        <ele>810.79998779297</ele>
        <time>2017-05-28T06:12:21.000Z</time>
      </trkpt>
      <trkpt lat="45.80096" lon="6.24079">
        <ele>811</ele>
        <time>2017-05-28T06:12:22.000Z</time>
      </trkpt>
      <trkpt lat="45.80108" lon="6.24076">
        <ele>814</ele>
        <time>2017-05-28T06:12:33.000Z</time>
      </trkpt>
      <trkpt lat="45.80125" lon="6.24083">
        <ele>817.20001220703</ele>
        <time>2017-05-28T06:12:48.000Z</time>
      </trkpt>
      <trkpt lat="45.80132" lon="6.24086">
        <ele>818.79998779297</ele>
        <time>2017-05-28T06:12:56.000Z</time>
      </trkpt>
      <trkpt lat="45.80135" lon="6.24086">
        <ele>819.20001220703</ele>
        <time>2017-05-28T06:12:59.000Z</time>
      </trkpt>
      <trkpt lat="45.80138" lon="6.24088">
        <ele>820</ele>
        <time>2017-05-28T06:13:04.000Z</time>
      </trkpt>
      <trkpt lat="45.80138" lon="6.24089">
        <ele>820.20001220703</ele>
        <time>2017-05-28T06:13:05.000Z</time>
      </trkpt>
      <trkpt lat="45.80138" lon="6.24091">
        <ele>820.59997558594</ele>
        <time>2017-05-28T06:13:06.000Z</time>
      </trkpt>
      <trkpt lat="45.80137" lon="6.24092">
        <ele>821</ele>
        <time>2017-05-28T06:13:07.000Z</time>
      </trkpt>
      <trkpt lat="45.80137" lon="6.24094">
        <ele>821.40002441406</ele>
        <time>2017-05-28T06:13:08.000Z</time>
      </trkpt>
      <trkpt lat="45.80137" lon="6.24095">
        <ele>821.79998779297</ele>
        <time>2017-05-28T06:13:09.000Z</time>
      </trkpt>
      <trkpt lat="45.80136" lon="6.24097">
        <ele>822.20001220703</ele>
        <time>2017-05-28T06:13:11.000Z</time>
      </trkpt>
      <trkpt lat="45.80136" lon="6.24098">
        <ele>822.40002441406</ele>
        <time>2017-05-28T06:13:12.000Z</time>
      </trkpt>
      <trkpt lat="45.80127" lon="6.24114">
        <ele>825.59997558594</ele>
        <time>2017-05-28T06:13:25.000Z</time>
      </trkpt>
      <trkpt lat="45.80117" lon="6.24123">
        <ele>828.79998779297</ele>
        <time>2017-05-28T06:13:39.000Z</time>
      </trkpt>
      <trkpt lat="45.80114" lon="6.24127">
        <ele>829.40002441406</ele>
        <time>2017-05-28T06:13:43.000Z</time>
      </trkpt>
      <trkpt lat="45.80113" lon="6.24127">
        <ele>829.59997558594</ele>
        <time>2017-05-28T06:13:44.000Z</time>
      </trkpt>
      <trkpt lat="45.80112" lon="6.24127">
        <ele>829.79998779297</ele>
        <time>2017-05-28T06:13:45.000Z</time>
      </trkpt>
      <trkpt lat="45.80111" lon="6.24128">
        <ele>830</ele>
        <time>2017-05-28T06:13:46.000Z</time>
      </trkpt>
      <trkpt lat="45.8011" lon="6.24128">
        <ele>830.20001220703</ele>
        <time>2017-05-28T06:13:47.000Z</time>
      </trkpt>
      <trkpt lat="45.80109" lon="6.24129">
        <ele>830.59997558594</ele>
        <time>2017-05-28T06:13:48.000Z</time>
      </trkpt>
      <trkpt lat="45.80101" lon="6.24131">
        <ele>833.79998779297</ele>
        <time>2017-05-28T06:14:01.000Z</time>
      </trkpt>
      <trkpt lat="45.80096" lon="6.24135">
        <ele>835</ele>
        <time>2017-05-28T06:14:08.000Z</time>
      </trkpt>
      <trkpt lat="45.80095" lon="6.24135">
        <ele>835.20001220703</ele>
        <time>2017-05-28T06:14:09.000Z</time>
      </trkpt>
      <trkpt lat="45.80087" lon="6.24143">
        <ele>836.79998779297</ele>
        <time>2017-05-28T06:14:16.000Z</time>
      </trkpt>
      <trkpt lat="45.80083" lon="6.24148">
        <ele>837.20001220703</ele>
        <time>2017-05-28T06:14:18.000Z</time>
      </trkpt>
      <trkpt lat="45.8007" lon="6.24156">
        <ele>840</ele>
        <time>2017-05-28T06:14:30.000Z</time>
      </trkpt>
      <trkpt lat="45.80068" lon="6.24154">
        <ele>840.20001220703</ele>
        <time>2017-05-28T06:14:31.000Z</time>
      </trkpt>
      <trkpt lat="45.80063" lon="6.24163">
        <ele>841.59997558594</ele>
        <time>2017-05-28T06:14:38.000Z</time>
      </trkpt>
      <trkpt lat="45.80059" lon="6.24171">
        <ele>842.79998779297</ele>
        <time>2017-05-28T06:14:44.000Z</time>
      </trkpt>
      <trkpt lat="45.80056" lon="6.24175">
        <ele>843.40002441406</ele>
        <time>2017-05-28T06:14:47.000Z</time>
      </trkpt>
      <trkpt lat="45.80046" lon="6.24179">
        <ele>846.20001220703</ele>
        <time>2017-05-28T06:14:58.000Z</time>
      </trkpt>
      <trkpt lat="45.80034" lon="6.24201">
        <ele>849</ele>
        <time>2017-05-28T06:15:12.000Z</time>
      </trkpt>
      <trkpt lat="45.80034" lon="6.24204">
        <ele>849.20001220703</ele>
        <time>2017-05-28T06:15:13.000Z</time>
      </trkpt>
      <trkpt lat="45.80031" lon="6.24223">
        <ele>852.20001220703</ele>
        <time>2017-05-28T06:15:26.000Z</time>
      </trkpt>
      <trkpt lat="45.8003" lon="6.24228">
        <ele>852.79998779297</ele>
        <time>2017-05-28T06:15:29.000Z</time>
      </trkpt>
      <trkpt lat="45.80027" lon="6.24229">
        <ele>852.79998779297</ele>
        <time>2017-05-28T06:15:30.000Z</time>
      </trkpt>
      <trkpt lat="45.80027" lon="6.2423">
        <ele>852.79998779297</ele>
        <time>2017-05-28T06:15:31.000Z</time>
      </trkpt>
      <trkpt lat="45.80025" lon="6.2423">
        <ele>853.20001220703</ele>
        <time>2017-05-28T06:15:33.000Z</time>
      </trkpt>
      <trkpt lat="45.80023" lon="6.24229">
        <ele>853.40002441406</ele>
        <time>2017-05-28T06:15:34.000Z</time>
      </trkpt>
      <trkpt lat="45.80022" lon="6.24228">
        <ele>853.59997558594</ele>
        <time>2017-05-28T06:15:35.000Z</time>
      </trkpt>
      <trkpt lat="45.80012" lon="6.24235">
        <ele>856.79998779297</ele>
        <time>2017-05-28T06:15:50.000Z</time>
      </trkpt>
      <trkpt lat="45.8001" lon="6.24237">
        <ele>857</ele>
        <time>2017-05-28T06:15:51.000Z</time>
      </trkpt>
      <trkpt lat="45.80007" lon="6.24238">
        <ele>857.59997558594</ele>
        <time>2017-05-28T06:15:53.000Z</time>
      </trkpt>
      <trkpt lat="45.80006" lon="6.24238">
        <ele>858</ele>
        <time>2017-05-28T06:15:54.000Z</time>
      </trkpt>
      <trkpt lat="45.80004" lon="6.24238">
        <ele>858.40002441406</ele>
        <time>2017-05-28T06:15:57.000Z</time>
      </trkpt>
      <trkpt lat="45.80003" lon="6.24237">
        <ele>858.59997558594</ele>
        <time>2017-05-28T06:15:58.000Z</time>
      </trkpt>
      <trkpt lat="45.80001" lon="6.24238">
        <ele>859</ele>
        <time>2017-05-28T06:16:00.000Z</time>
      </trkpt>
      <trkpt lat="45.79997" lon="6.24243">
        <ele>860.59997558594</ele>
        <time>2017-05-28T06:16:09.000Z</time>
      </trkpt>
      <trkpt lat="45.79995" lon="6.24247">
        <ele>861.79998779297</ele>
        <time>2017-05-28T06:16:13.000Z</time>
      </trkpt>
      <trkpt lat="45.79985" lon="6.24252">
        <ele>863.59997558594</ele>
        <time>2017-05-28T06:16:24.000Z</time>
      </trkpt>
      <trkpt lat="45.79969" lon="6.24252">
        <ele>866.59997558594</ele>
        <time>2017-05-28T06:16:40.000Z</time>
      </trkpt>
      <trkpt lat="45.79964" lon="6.24255">
        <ele>868.40002441406</ele>
        <time>2017-05-28T06:16:47.000Z</time>
      </trkpt>
      <trkpt lat="45.79963" lon="6.24256">
        <ele>868.59997558594</ele>
        <time>2017-05-28T06:16:48.000Z</time>
      </trkpt>
      <trkpt lat="45.79954" lon="6.24262">
        <ele>870.59997558594</ele>
        <time>2017-05-28T06:16:57.000Z</time>
      </trkpt>
      <trkpt lat="45.79945" lon="6.24254">
        <ele>872.20001220703</ele>
        <time>2017-05-28T06:17:04.000Z</time>
      </trkpt>
      <trkpt lat="45.79944" lon="6.24253">
        <ele>872.40002441406</ele>
        <time>2017-05-28T06:17:05.000Z</time>
      </trkpt>
      <trkpt lat="45.79941" lon="6.24253">
        <ele>872.79998779297</ele>
        <time>2017-05-28T06:17:07.000Z</time>
      </trkpt>
      <trkpt lat="45.79935" lon="6.24258">
        <ele>874</ele>
        <time>2017-05-28T06:17:11.000Z</time>
      </trkpt>
      <trkpt lat="45.79927" lon="6.24256">
        <ele>875.40002441406</ele>
        <time>2017-05-28T06:17:18.000Z</time>
      </trkpt>
      <trkpt lat="45.79926" lon="6.24257">
        <ele>875.79998779297</ele>
        <time>2017-05-28T06:17:19.000Z</time>
      </trkpt>
      <trkpt lat="45.79917" lon="6.2427">
        <ele>879</ele>
        <time>2017-05-28T06:17:31.000Z</time>
      </trkpt>
      <trkpt lat="45.799" lon="6.24281">
        <ele>882</ele>
        <time>2017-05-28T06:17:45.000Z</time>
      </trkpt>
      <trkpt lat="45.79899" lon="6.24282">
        <ele>882.20001220703</ele>
        <time>2017-05-28T06:17:46.000Z</time>
      </trkpt>
      <trkpt lat="45.79896" lon="6.24285">
        <ele>882.59997558594</ele>
        <time>2017-05-28T06:17:49.000Z</time>
      </trkpt>
      <trkpt lat="45.79891" lon="6.24311">
        <ele>885.79998779297</ele>
        <time>2017-05-28T06:18:01.000Z</time>
      </trkpt>
      <trkpt lat="45.79885" lon="6.24322">
        <ele>887</ele>
        <time>2017-05-28T06:18:06.000Z</time>
      </trkpt>
      <trkpt lat="45.79884" lon="6.24322">
        <ele>887</ele>
        <time>2017-05-28T06:18:07.000Z</time>
      </trkpt>
      <trkpt lat="45.79883" lon="6.24322">
        <ele>887.20001220703</ele>
        <time>2017-05-28T06:18:08.000Z</time>
      </trkpt>
      <trkpt lat="45.79873" lon="6.2432">
        <ele>888</ele>
        <time>2017-05-28T06:18:14.000Z</time>
      </trkpt>
      <trkpt lat="45.79872" lon="6.2432">
        <ele>888.20001220703</ele>
        <time>2017-05-28T06:18:15.000Z</time>
      </trkpt>
      <trkpt lat="45.79871" lon="6.2432">
        <ele>888.40002441406</ele>
        <time>2017-05-28T06:18:16.000Z</time>
      </trkpt>
      <trkpt lat="45.79859" lon="6.2433">
        <ele>891.59997558594</ele>
        <time>2017-05-28T06:18:29.000Z</time>
      </trkpt>
      <trkpt lat="45.79859" lon="6.24332">
        <ele>892.20001220703</ele>
        <time>2017-05-28T06:18:31.000Z</time>
      </trkpt>
      <trkpt lat="45.79857" lon="6.24333">
        <ele>892.59997558594</ele>
        <time>2017-05-28T06:18:33.000Z</time>
      </trkpt>
      <trkpt lat="45.79857" lon="6.24334">
        <ele>892.79998779297</ele>
        <time>2017-05-28T06:18:34.000Z</time>
      </trkpt>
      <trkpt lat="45.79854" lon="6.2434">
        <ele>893.59997558594</ele>
        <time>2017-05-28T06:18:40.000Z</time>
      </trkpt>
      <trkpt lat="45.79853" lon="6.2434">
        <ele>894</ele>
        <time>2017-05-28T06:18:41.000Z</time>
      </trkpt>
      <trkpt lat="45.79846" lon="6.2434">
        <ele>895</ele>
        <time>2017-05-28T06:18:47.000Z</time>
      </trkpt>
      <trkpt lat="45.79844" lon="6.2434">
        <ele>895</ele>
        <time>2017-05-28T06:18:48.000Z</time>
      </trkpt>
      <trkpt lat="45.79825" lon="6.24342">
        <ele>898</ele>
        <time>2017-05-28T06:19:02.000Z</time>
      </trkpt>
      <trkpt lat="45.79807" lon="6.24352">
        <ele>901</ele>
        <time>2017-05-28T06:19:14.000Z</time>
      </trkpt>
      <trkpt lat="45.79797" lon="6.24362">
        <ele>904</ele>
        <time>2017-05-28T06:19:26.000Z</time>
      </trkpt>
      <trkpt lat="45.79796" lon="6.24363">
        <ele>904.40002441406</ele>
        <time>2017-05-28T06:19:27.000Z</time>
      </trkpt>
      <trkpt lat="45.79784" lon="6.24372">
        <ele>907.20001220703</ele>
        <time>2017-05-28T06:19:40.000Z</time>
      </trkpt>
      <trkpt lat="45.79772" lon="6.2438">
        <ele>910.20001220703</ele>
        <time>2017-05-28T06:19:51.000Z</time>
      </trkpt>
      <trkpt lat="45.79763" lon="6.24391">
        <ele>913.20001220703</ele>
        <time>2017-05-28T06:20:05.000Z</time>
      </trkpt>
      <trkpt lat="45.79757" lon="6.24402">
        <ele>916.40002441406</ele>
        <time>2017-05-28T06:20:18.000Z</time>
      </trkpt>
      <trkpt lat="45.79754" lon="6.24404">
        <ele>917</ele>
        <time>2017-05-28T06:20:21.000Z</time>
      </trkpt>
      <trkpt lat="45.79753" lon="6.24405">
        <ele>917.40002441406</ele>
        <time>2017-05-28T06:20:22.000Z</time>
      </trkpt>
      <trkpt lat="45.79752" lon="6.24406">
        <ele>917.79998779297</ele>
        <time>2017-05-28T06:20:23.000Z</time>
      </trkpt>
      <trkpt lat="45.79748" lon="6.24409">
        <ele>918.59997558594</ele>
        <time>2017-05-28T06:20:26.000Z</time>
      </trkpt>
      <trkpt lat="45.79735" lon="6.24422">
        <ele>921.59997558594</ele>
        <time>2017-05-28T06:20:40.000Z</time>
      </trkpt>
      <trkpt lat="45.79725" lon="6.24427">
        <ele>924.79998779297</ele>
        <time>2017-05-28T06:20:53.000Z</time>
      </trkpt>
      <trkpt lat="45.79715" lon="6.24434">
        <ele>926.59997558594</ele>
        <time>2017-05-28T06:21:00.000Z</time>
      </trkpt>
      <trkpt lat="45.79704" lon="6.24444">
        <ele>929.59997558594</ele>
        <time>2017-05-28T06:21:13.000Z</time>
      </trkpt>
      <trkpt lat="45.797" lon="6.24443">
        <ele>930.79998779297</ele>
        <time>2017-05-28T06:21:18.000Z</time>
      </trkpt>
      <trkpt lat="45.79692" lon="6.24451">
        <ele>934</ele>
        <time>2017-05-28T06:21:32.000Z</time>
      </trkpt>
      <trkpt lat="45.79686" lon="6.24458">
        <ele>934.79998779297</ele>
        <time>2017-05-28T06:21:39.000Z</time>
      </trkpt>
      <trkpt lat="45.79684" lon="6.2446">
        <ele>936.40002441406</ele>
        <time>2017-05-28T06:21:44.000Z</time>
      </trkpt>
      <trkpt lat="45.79684" lon="6.24463">
        <ele>937.59997558594</ele>
        <time>2017-05-28T06:21:47.000Z</time>
      </trkpt>
      <trkpt lat="45.79685" lon="6.24463">
        <ele>938</ele>
        <time>2017-05-28T06:21:48.000Z</time>
      </trkpt>
      <trkpt lat="45.79696" lon="6.24467">
        <ele>939</ele>
        <time>2017-05-28T06:22:00.000Z</time>
      </trkpt>
      <trkpt lat="45.79717" lon="6.24465">
        <ele>939.79998779297</ele>
        <time>2017-05-28T06:22:08.000Z</time>
      </trkpt>
      <trkpt lat="45.79739" lon="6.24461">
        <ele>940.20001220703</ele>
        <time>2017-05-28T06:22:17.000Z</time>
      </trkpt>
      <trkpt lat="45.79762" lon="6.24463">
        <ele>940.40002441406</ele>
        <time>2017-05-28T06:22:27.000Z</time>
      </trkpt>
      <trkpt lat="45.79784" lon="6.24449">
        <ele>941.40002441406</ele>
        <time>2017-05-28T06:22:39.000Z</time>
      </trkpt>
      <trkpt lat="45.79808" lon="6.24441">
        <ele>941.40002441406</ele>
        <time>2017-05-28T06:22:50.000Z</time>
      </trkpt>
      <trkpt lat="45.79835" lon="6.24434">
        <ele>942.40002441406</ele>
        <time>2017-05-28T06:23:03.000Z</time>
      </trkpt>
      <trkpt lat="45.79862" lon="6.24436">
        <ele>942.79998779297</ele>
        <time>2017-05-28T06:23:14.000Z</time>
      </trkpt>
      <trkpt lat="45.79889" lon="6.24428">
        <ele>944</ele>
        <time>2017-05-28T06:23:25.000Z</time>
      </trkpt>
      <trkpt lat="45.79912" lon="6.24411">
        <ele>944.59997558594</ele>
        <time>2017-05-28T06:23:37.000Z</time>
      </trkpt>
      <trkpt lat="45.79938" lon="6.24409">
        <ele>945.40002441406</ele>
        <time>2017-05-28T06:23:49.000Z</time>
      </trkpt>
      <trkpt lat="45.79957" lon="6.2441">
        <ele>946.79998779297</ele>
        <time>2017-05-28T06:24:02.000Z</time>
      </trkpt>
      <trkpt lat="45.79975" lon="6.24411">
        <ele>948.40002441406</ele>
        <time>2017-05-28T06:24:11.000Z</time>
      </trkpt>
      <trkpt lat="45.79977" lon="6.24413">
        <ele>948.59997558594</ele>
        <time>2017-05-28T06:24:12.000Z</time>
      </trkpt>
      <trkpt lat="45.80011" lon="6.24417">
        <ele>950.79998779297</ele>
        <time>2017-05-28T06:24:23.000Z</time>
      </trkpt>
      <trkpt lat="45.80036" lon="6.24425">
        <ele>951.79998779297</ele>
        <time>2017-05-28T06:24:33.000Z</time>
      </trkpt>
      <trkpt lat="45.80062" lon="6.24417">
        <ele>953</ele>
        <time>2017-05-28T06:24:44.000Z</time>
      </trkpt>
      <trkpt lat="45.80082" lon="6.24401">
        <ele>954.20001220703</ele>
        <time>2017-05-28T06:24:56.000Z</time>
      </trkpt>
      <trkpt lat="45.80104" lon="6.24395">
        <ele>956.20001220703</ele>
        <time>2017-05-28T06:25:08.000Z</time>
      </trkpt>
      <trkpt lat="45.80125" lon="6.24396">
        <ele>958.40002441406</ele>
        <time>2017-05-28T06:25:21.000Z</time>
      </trkpt>
      <trkpt lat="45.80139" lon="6.24403">
        <ele>960.40002441406</ele>
        <time>2017-05-28T06:25:35.000Z</time>
      </trkpt>
      <trkpt lat="45.80141" lon="6.24405">
        <ele>960.59997558594</ele>
        <time>2017-05-28T06:25:36.000Z</time>
      </trkpt>
      <trkpt lat="45.80143" lon="6.24406">
        <ele>960.79998779297</ele>
        <time>2017-05-28T06:25:37.000Z</time>
      </trkpt>
      <trkpt lat="45.80145" lon="6.24406">
        <ele>960.79998779297</ele>
        <time>2017-05-28T06:25:38.000Z</time>
      </trkpt>
      <trkpt lat="45.80146" lon="6.24407">
        <ele>961</ele>
        <time>2017-05-28T06:25:39.000Z</time>
      </trkpt>
      <trkpt lat="45.80148" lon="6.24408">
        <ele>961.40002441406</ele>
        <time>2017-05-28T06:25:40.000Z</time>
      </trkpt>
      <trkpt lat="45.80149" lon="6.24407">
        <ele>961.59997558594</ele>
        <time>2017-05-28T06:25:41.000Z</time>
      </trkpt>
      <trkpt lat="45.8015" lon="6.24407">
        <ele>961.79998779297</ele>
        <time>2017-05-28T06:25:42.000Z</time>
      </trkpt>
      <trkpt lat="45.80152" lon="6.24406">
        <ele>962.20001220703</ele>
        <time>2017-05-28T06:25:43.000Z</time>
      </trkpt>
      <trkpt lat="45.80153" lon="6.24406">
        <ele>962.20001220703</ele>
        <time>2017-05-28T06:25:44.000Z</time>
      </trkpt>
      <trkpt lat="45.80155" lon="6.24406">
        <ele>962.20001220703</ele>
        <time>2017-05-28T06:25:45.000Z</time>
      </trkpt>
      <trkpt lat="45.80165" lon="6.24403">
        <ele>963.20001220703</ele>
        <time>2017-05-28T06:25:52.000Z</time>
      </trkpt>
      <trkpt lat="45.80166" lon="6.24402">
        <ele>963.20001220703</ele>
        <time>2017-05-28T06:25:53.000Z</time>
      </trkpt>
      <trkpt lat="45.80167" lon="6.24401">
        <ele>963.40002441406</ele>
        <time>2017-05-28T06:25:54.000Z</time>
      </trkpt>
      <trkpt lat="45.80168" lon="6.244">
        <ele>963.79998779297</ele>
        <time>2017-05-28T06:25:55.000Z</time>
      </trkpt>
      <trkpt lat="45.80169" lon="6.24399">
        <ele>964</ele>
        <time>2017-05-28T06:25:56.000Z</time>
      </trkpt>
      <trkpt lat="45.8017" lon="6.24398">
        <ele>964.40002441406</ele>
        <time>2017-05-28T06:25:57.000Z</time>
      </trkpt>
      <trkpt lat="45.80171" lon="6.24397">
        <ele>964.59997558594</ele>
        <time>2017-05-28T06:25:58.000Z</time>
      </trkpt>
      <trkpt lat="45.80173" lon="6.24398">
        <ele>964.59997558594</ele>
        <time>2017-05-28T06:25:59.000Z</time>
      </trkpt>
      <trkpt lat="45.80176" lon="6.24393">
        <ele>965.59997558594</ele>
        <time>2017-05-28T06:26:05.000Z</time>
      </trkpt>
      <trkpt lat="45.80177" lon="6.24393">
        <ele>965.79998779297</ele>
        <time>2017-05-28T06:26:06.000Z</time>
      </trkpt>
      <trkpt lat="45.80181" lon="6.24391">
        <ele>966.40002441406</ele>
        <time>2017-05-28T06:26:11.000Z</time>
      </trkpt>
      <trkpt lat="45.80189" lon="6.24393">
        <ele>968.40002441406</ele>
        <time>2017-05-28T06:26:21.000Z</time>
      </trkpt>
      <trkpt lat="45.80191" lon="6.24395">
        <ele>968.59997558594</ele>
        <time>2017-05-28T06:26:22.000Z</time>
      </trkpt>
      <trkpt lat="45.80192" lon="6.24395">
        <ele>968.79998779297</ele>
        <time>2017-05-28T06:26:23.000Z</time>
      </trkpt>
      <trkpt lat="45.80193" lon="6.24395">
        <ele>968.79998779297</ele>
        <time>2017-05-28T06:26:24.000Z</time>
      </trkpt>
      <trkpt lat="45.80194" lon="6.24395">
        <ele>969</ele>
        <time>2017-05-28T06:26:25.000Z</time>
      </trkpt>
      <trkpt lat="45.80195" lon="6.24395">
        <ele>968.79998779297</ele>
        <time>2017-05-28T06:26:26.000Z</time>
      </trkpt>
      <trkpt lat="45.80197" lon="6.24396">
        <ele>968.40002441406</ele>
        <time>2017-05-28T06:26:27.000Z</time>
      </trkpt>
      <trkpt lat="45.80199" lon="6.24396">
        <ele>968</ele>
        <time>2017-05-28T06:26:28.000Z</time>
      </trkpt>
      <trkpt lat="45.80202" lon="6.24396">
        <ele>967.79998779297</ele>
        <time>2017-05-28T06:26:29.000Z</time>
      </trkpt>
      <trkpt lat="45.80204" lon="6.24398">
        <ele>967.79998779297</ele>
        <time>2017-05-28T06:26:30.000Z</time>
      </trkpt>
      <trkpt lat="45.80206" lon="6.24399">
        <ele>967.59997558594</ele>
        <time>2017-05-28T06:26:31.000Z</time>
      </trkpt>
      <trkpt lat="45.80209" lon="6.244">
        <ele>968</ele>
        <time>2017-05-28T06:26:32.000Z</time>
      </trkpt>
      <trkpt lat="45.80232" lon="6.24408">
        <ele>969.59997558594</ele>
        <time>2017-05-28T06:26:41.000Z</time>
      </trkpt>
      <trkpt lat="45.80235" lon="6.24408">
        <ele>970.20001220703</ele>
        <time>2017-05-28T06:26:44.000Z</time>
      </trkpt>
      <trkpt lat="45.80236" lon="6.24407">
        <ele>970.40002441406</ele>
        <time>2017-05-28T06:26:45.000Z</time>
      </trkpt>
      <trkpt lat="45.80237" lon="6.24407">
        <ele>970.59997558594</ele>
        <time>2017-05-28T06:26:46.000Z</time>
      </trkpt>
      <trkpt lat="45.8024" lon="6.24405">
        <ele>970.79998779297</ele>
        <time>2017-05-28T06:26:50.000Z</time>
      </trkpt>
      <trkpt lat="45.80248" lon="6.24401">
        <ele>971.59997558594</ele>
        <time>2017-05-28T06:26:56.000Z</time>
      </trkpt>
      <trkpt lat="45.80248" lon="6.24401">
        <ele>971.79998779297</ele>
        <time>2017-05-28T06:26:57.000Z</time>
      </trkpt>
      <trkpt lat="45.80249" lon="6.244">
        <ele>972</ele>
        <time>2017-05-28T06:26:58.000Z</time>
      </trkpt>
      <trkpt lat="45.80251" lon="6.24399">
        <ele>972.40002441406</ele>
        <time>2017-05-28T06:26:59.000Z</time>
      </trkpt>
      <trkpt lat="45.80252" lon="6.244">
        <ele>972.59997558594</ele>
        <time>2017-05-28T06:27:00.000Z</time>
      </trkpt>
      <trkpt lat="45.80262" lon="6.24399">
        <ele>974.20001220703</ele>
        <time>2017-05-28T06:27:08.000Z</time>
      </trkpt>
      <trkpt lat="45.80263" lon="6.24399">
        <ele>974.59997558594</ele>
        <time>2017-05-28T06:27:09.000Z</time>
      </trkpt>
      <trkpt lat="45.80265" lon="6.24399">
        <ele>974.79998779297</ele>
        <time>2017-05-28T06:27:10.000Z</time>
      </trkpt>
      <trkpt lat="45.80267" lon="6.244">
        <ele>974.79998779297</ele>
        <time>2017-05-28T06:27:11.000Z</time>
      </trkpt>
      <trkpt lat="45.80269" lon="6.24399">
        <ele>975</ele>
        <time>2017-05-28T06:27:12.000Z</time>
      </trkpt>
      <trkpt lat="45.8027" lon="6.24398">
        <ele>975</ele>
        <time>2017-05-28T06:27:13.000Z</time>
      </trkpt>
      <trkpt lat="45.80279" lon="6.24392">
        <ele>976</ele>
        <time>2017-05-28T06:27:21.000Z</time>
      </trkpt>
      <trkpt lat="45.80281" lon="6.24392">
        <ele>976.40002441406</ele>
        <time>2017-05-28T06:27:22.000Z</time>
      </trkpt>
      <trkpt lat="45.80297" lon="6.24375">
        <ele>979.40002441406</ele>
        <time>2017-05-28T06:27:38.000Z</time>
      </trkpt>
      <trkpt lat="45.80311" lon="6.24368">
        <ele>980.59997558594</ele>
        <time>2017-05-28T06:27:47.000Z</time>
      </trkpt>
      <trkpt lat="45.80311" lon="6.2437">
        <ele>980.79998779297</ele>
        <time>2017-05-28T06:27:48.000Z</time>
      </trkpt>
      <trkpt lat="45.80313" lon="6.24372">
        <ele>981</ele>
        <time>2017-05-28T06:27:49.000Z</time>
      </trkpt>
      <trkpt lat="45.80315" lon="6.24373">
        <ele>981.40002441406</ele>
        <time>2017-05-28T06:27:50.000Z</time>
      </trkpt>
      <trkpt lat="45.80317" lon="6.24374">
        <ele>981.59997558594</ele>
        <time>2017-05-28T06:27:51.000Z</time>
      </trkpt>
      <trkpt lat="45.80318" lon="6.24374">
        <ele>981.79998779297</ele>
        <time>2017-05-28T06:27:52.000Z</time>
      </trkpt>
      <trkpt lat="45.80319" lon="6.24373">
        <ele>982</ele>
        <time>2017-05-28T06:27:53.000Z</time>
      </trkpt>
      <trkpt lat="45.8032" lon="6.24373">
        <ele>982.40002441406</ele>
        <time>2017-05-28T06:27:54.000Z</time>
      </trkpt>
      <trkpt lat="45.80322" lon="6.24373">
        <ele>982.59997558594</ele>
        <time>2017-05-28T06:27:55.000Z</time>
      </trkpt>
      <trkpt lat="45.80323" lon="6.24372">
        <ele>982.79998779297</ele>
        <time>2017-05-28T06:27:56.000Z</time>
      </trkpt>
      <trkpt lat="45.80332" lon="6.24377">
        <ele>984.59997558594</ele>
        <time>2017-05-28T06:28:04.000Z</time>
      </trkpt>
      <trkpt lat="45.80333" lon="6.24377">
        <ele>985</ele>
        <time>2017-05-28T06:28:05.000Z</time>
      </trkpt>
      <trkpt lat="45.80334" lon="6.24376">
        <ele>985.20001220703</ele>
        <time>2017-05-28T06:28:06.000Z</time>
      </trkpt>
      <trkpt lat="45.80335" lon="6.24376">
        <ele>985.20001220703</ele>
        <time>2017-05-28T06:28:07.000Z</time>
      </trkpt>
      <trkpt lat="45.80336" lon="6.24375">
        <ele>985.59997558594</ele>
        <time>2017-05-28T06:28:08.000Z</time>
      </trkpt>
      <trkpt lat="45.80338" lon="6.24374">
        <ele>985.79998779297</ele>
        <time>2017-05-28T06:28:09.000Z</time>
      </trkpt>
      <trkpt lat="45.80348" lon="6.24372">
        <ele>988</ele>
        <time>2017-05-28T06:28:20.000Z</time>
      </trkpt>
      <trkpt lat="45.8035" lon="6.24373">
        <ele>987.79998779297</ele>
        <time>2017-05-28T06:28:21.000Z</time>
      </trkpt>
      <trkpt lat="45.80372" lon="6.24378">
        <ele>989.59997558594</ele>
        <time>2017-05-28T06:28:31.000Z</time>
      </trkpt>
      <trkpt lat="45.8038" lon="6.24377">
        <ele>989.59997558594</ele>
        <time>2017-05-28T06:28:35.000Z</time>
      </trkpt>
      <trkpt lat="45.80386" lon="6.24372">
        <ele>990</ele>
        <time>2017-05-28T06:28:41.000Z</time>
      </trkpt>
      <trkpt lat="45.80389" lon="6.24369">
        <ele>991</ele>
        <time>2017-05-28T06:28:45.000Z</time>
      </trkpt>
      <trkpt lat="45.80394" lon="6.24364">
        <ele>992.40002441406</ele>
        <time>2017-05-28T06:28:51.000Z</time>
      </trkpt>
      <trkpt lat="45.80411" lon="6.24349">
        <ele>995.40002441406</ele>
        <time>2017-05-28T06:29:07.000Z</time>
      </trkpt>
      <trkpt lat="45.80415" lon="6.24346">
        <ele>996</ele>
        <time>2017-05-28T06:29:11.000Z</time>
      </trkpt>
      <trkpt lat="45.80416" lon="6.24345">
        <ele>996.20001220703</ele>
        <time>2017-05-28T06:29:12.000Z</time>
      </trkpt>
      <trkpt lat="45.80418" lon="6.24345">
        <ele>996.40002441406</ele>
        <time>2017-05-28T06:29:13.000Z</time>
      </trkpt>
      <trkpt lat="45.80419" lon="6.24344">
        <ele>996.40002441406</ele>
        <time>2017-05-28T06:29:14.000Z</time>
      </trkpt>
      <trkpt lat="45.8042" lon="6.24345">
        <ele>996.40002441406</ele>
        <time>2017-05-28T06:29:15.000Z</time>
      </trkpt>
      <trkpt lat="45.80422" lon="6.24345">
        <ele>996.79998779297</ele>
        <time>2017-05-28T06:29:16.000Z</time>
      </trkpt>
      <trkpt lat="45.80423" lon="6.24344">
        <ele>996.79998779297</ele>
        <time>2017-05-28T06:29:17.000Z</time>
      </trkpt>
      <trkpt lat="45.80429" lon="6.24339">
        <ele>998.40002441406</ele>
        <time>2017-05-28T06:29:24.000Z</time>
      </trkpt>
      <trkpt lat="45.80431" lon="6.24339">
        <ele>998.79998779297</ele>
        <time>2017-05-28T06:29:25.000Z</time>
      </trkpt>
      <trkpt lat="45.80432" lon="6.24339">
        <ele>999.20001220703</ele>
        <time>2017-05-28T06:29:26.000Z</time>
      </trkpt>
      <trkpt lat="45.80434" lon="6.24339">
        <ele>999.40002441406</ele>
        <time>2017-05-28T06:29:27.000Z</time>
      </trkpt>
      <trkpt lat="45.80444" lon="6.24337">
        <ele>1000.5999755859</ele>
        <time>2017-05-28T06:29:36.000Z</time>
      </trkpt>
      <trkpt lat="45.80448" lon="6.24335">
        <ele>1001.5999755859</ele>
        <time>2017-05-28T06:29:40.000Z</time>
      </trkpt>
      <trkpt lat="45.80449" lon="6.24335">
        <ele>1001.5999755859</ele>
        <time>2017-05-28T06:29:41.000Z</time>
      </trkpt>
      <trkpt lat="45.80455" lon="6.2432">
        <ele>1004.799987793</ele>
        <time>2017-05-28T06:29:54.000Z</time>
      </trkpt>
      <trkpt lat="45.80457" lon="6.24315">
        <ele>1005.799987793</ele>
        <time>2017-05-28T06:29:59.000Z</time>
      </trkpt>
      <trkpt lat="45.80457" lon="6.24313">
        <ele>1006</ele>
        <time>2017-05-28T06:30:00.000Z</time>
      </trkpt>
      <trkpt lat="45.80461" lon="6.24301">
        <ele>1007.4000244141</ele>
        <time>2017-05-28T06:30:09.000Z</time>
      </trkpt>
      <trkpt lat="45.80464" lon="6.24295">
        <ele>1007.799987793</ele>
        <time>2017-05-28T06:30:14.000Z</time>
      </trkpt>
      <trkpt lat="45.80464" lon="6.24293">
        <ele>1008</ele>
        <time>2017-05-28T06:30:15.000Z</time>
      </trkpt>
      <trkpt lat="45.80465" lon="6.24289">
        <ele>1008.4000244141</ele>
        <time>2017-05-28T06:30:18.000Z</time>
      </trkpt>
      <trkpt lat="45.80472" lon="6.24268">
        <ele>1011.5999755859</ele>
        <time>2017-05-28T06:30:41.000Z</time>
      </trkpt>
      <trkpt lat="45.80477" lon="6.24251">
        <ele>1014.799987793</ele>
        <time>2017-05-28T06:30:55.000Z</time>
      </trkpt>
      <trkpt lat="45.80478" lon="6.24246">
        <ele>1015.4000244141</ele>
        <time>2017-05-28T06:30:58.000Z</time>
      </trkpt>
      <trkpt lat="45.80479" lon="6.24244">
        <ele>1015.5999755859</ele>
        <time>2017-05-28T06:30:59.000Z</time>
      </trkpt>
      <trkpt lat="45.8048" lon="6.24243">
        <ele>1016</ele>
        <time>2017-05-28T06:31:00.000Z</time>
      </trkpt>
      <trkpt lat="45.80481" lon="6.24241">
        <ele>1016.4000244141</ele>
        <time>2017-05-28T06:31:01.000Z</time>
      </trkpt>
      <trkpt lat="45.80482" lon="6.24239">
        <ele>1016.5999755859</ele>
        <time>2017-05-28T06:31:02.000Z</time>
      </trkpt>
      <trkpt lat="45.80482" lon="6.24237">
        <ele>1017</ele>
        <time>2017-05-28T06:31:03.000Z</time>
      </trkpt>
      <trkpt lat="45.8049" lon="6.24221">
        <ele>1020.200012207</ele>
        <time>2017-05-28T06:31:15.000Z</time>
      </trkpt>
      <trkpt lat="45.80494" lon="6.24218">
        <ele>1021.4000244141</ele>
        <time>2017-05-28T06:31:20.000Z</time>
      </trkpt>
      <trkpt lat="45.80495" lon="6.24217">
        <ele>1021.799987793</ele>
        <time>2017-05-28T06:31:21.000Z</time>
      </trkpt>
      <trkpt lat="45.80496" lon="6.24214">
        <ele>1022.4000244141</ele>
        <time>2017-05-28T06:31:23.000Z</time>
      </trkpt>
      <trkpt lat="45.80507" lon="6.24205">
        <ele>1025.4000244141</ele>
        <time>2017-05-28T06:31:38.000Z</time>
      </trkpt>
      <trkpt lat="45.80523" lon="6.24206">
        <ele>1028</ele>
        <time>2017-05-28T06:31:51.000Z</time>
      </trkpt>
      <trkpt lat="45.80524" lon="6.24205">
        <ele>1028.1999511719</ele>
        <time>2017-05-28T06:31:52.000Z</time>
      </trkpt>
      <trkpt lat="45.80525" lon="6.24205">
        <ele>1028.4000244141</ele>
        <time>2017-05-28T06:31:53.000Z</time>
      </trkpt>
      <trkpt lat="45.80526" lon="6.24204">
        <ele>1028.8000488281</ele>
        <time>2017-05-28T06:31:54.000Z</time>
      </trkpt>
      <trkpt lat="45.80528" lon="6.24205">
        <ele>1029</ele>
        <time>2017-05-28T06:31:55.000Z</time>
      </trkpt>
      <trkpt lat="45.8054" lon="6.24212">
        <ele>1032.1999511719</ele>
        <time>2017-05-28T06:32:09.000Z</time>
      </trkpt>
      <trkpt lat="45.80544" lon="6.24212">
        <ele>1033.5999755859</ele>
        <time>2017-05-28T06:32:14.000Z</time>
      </trkpt>
      <trkpt lat="45.80545" lon="6.24212">
        <ele>1033.8000488281</ele>
        <time>2017-05-28T06:32:15.000Z</time>
      </trkpt>
      <trkpt lat="45.80546" lon="6.24212">
        <ele>1034</ele>
        <time>2017-05-28T06:32:16.000Z</time>
      </trkpt>
      <trkpt lat="45.80554" lon="6.2421">
        <ele>1036.1999511719</ele>
        <time>2017-05-28T06:32:25.000Z</time>
      </trkpt>
      <trkpt lat="45.80555" lon="6.24211">
        <ele>1036.4000244141</ele>
        <time>2017-05-28T06:32:26.000Z</time>
      </trkpt>
      <trkpt lat="45.80556" lon="6.24212">
        <ele>1036.4000244141</ele>
        <time>2017-05-28T06:32:27.000Z</time>
      </trkpt>
      <trkpt lat="45.80561" lon="6.24217">
        <ele>1037.5999755859</ele>
        <time>2017-05-28T06:32:32.000Z</time>
      </trkpt>
      <trkpt lat="45.80562" lon="6.24218">
        <ele>1037.8000488281</ele>
        <time>2017-05-28T06:32:33.000Z</time>
      </trkpt>
      <trkpt lat="45.80563" lon="6.24219">
        <ele>1038</ele>
        <time>2017-05-28T06:32:34.000Z</time>
      </trkpt>
      <trkpt lat="45.80564" lon="6.24221">
        <ele>1038.1999511719</ele>
        <time>2017-05-28T06:32:35.000Z</time>
      </trkpt>
      <trkpt lat="45.80577" lon="6.24231">
        <ele>1040</ele>
        <time>2017-05-28T06:32:46.000Z</time>
      </trkpt>
      <trkpt lat="45.80586" lon="6.2423">
        <ele>1041.5999755859</ele>
        <time>2017-05-28T06:32:55.000Z</time>
      </trkpt>
      <trkpt lat="45.80587" lon="6.2423">
        <ele>1042</ele>
        <time>2017-05-28T06:32:56.000Z</time>
      </trkpt>
      <trkpt lat="45.80588" lon="6.24231">
        <ele>1042.1999511719</ele>
        <time>2017-05-28T06:32:57.000Z</time>
      </trkpt>
      <trkpt lat="45.8059" lon="6.24231">
        <ele>1042.4000244141</ele>
        <time>2017-05-28T06:32:58.000Z</time>
      </trkpt>
      <trkpt lat="45.8059" lon="6.24231">
        <ele>1042.8000488281</ele>
        <time>2017-05-28T06:32:59.000Z</time>
      </trkpt>
      <trkpt lat="45.80592" lon="6.2423">
        <ele>1042.8000488281</ele>
        <time>2017-05-28T06:33:00.000Z</time>
      </trkpt>
      <trkpt lat="45.80593" lon="6.24231">
        <ele>1042.8000488281</ele>
        <time>2017-05-28T06:33:01.000Z</time>
      </trkpt>
      <trkpt lat="45.8061" lon="6.24241">
        <ele>1044.4000244141</ele>
        <time>2017-05-28T06:33:21.000Z</time>
      </trkpt>
      <trkpt lat="45.80614" lon="6.24246">
        <ele>1046.4000244141</ele>
        <time>2017-05-28T06:33:28.000Z</time>
      </trkpt>
      <trkpt lat="45.80616" lon="6.24246">
        <ele>1046.5999755859</ele>
        <time>2017-05-28T06:33:29.000Z</time>
      </trkpt>
      <trkpt lat="45.80618" lon="6.24245">
        <ele>1046.8000488281</ele>
        <time>2017-05-28T06:33:30.000Z</time>
      </trkpt>
      <trkpt lat="45.8062" lon="6.24245">
        <ele>1047</ele>
        <time>2017-05-28T06:33:32.000Z</time>
      </trkpt>
      <trkpt lat="45.80622" lon="6.24245">
        <ele>1047</ele>
        <time>2017-05-28T06:33:33.000Z</time>
      </trkpt>
      <trkpt lat="45.80623" lon="6.24246">
        <ele>1047.1999511719</ele>
        <time>2017-05-28T06:33:34.000Z</time>
      </trkpt>
      <trkpt lat="45.80624" lon="6.24246">
        <ele>1047.4000244141</ele>
        <time>2017-05-28T06:33:35.000Z</time>
      </trkpt>
      <trkpt lat="45.80634" lon="6.2425">
        <ele>1049.4000244141</ele>
        <time>2017-05-28T06:33:44.000Z</time>
      </trkpt>
      <trkpt lat="45.80636" lon="6.24252">
        <ele>1049.5999755859</ele>
        <time>2017-05-28T06:33:47.000Z</time>
      </trkpt>
      <trkpt lat="45.80643" lon="6.24258">
        <ele>1050.5999755859</ele>
        <time>2017-05-28T06:33:52.000Z</time>
      </trkpt>
      <trkpt lat="45.80645" lon="6.24258">
        <ele>1050.8000488281</ele>
        <time>2017-05-28T06:33:53.000Z</time>
      </trkpt>
      <trkpt lat="45.80646" lon="6.24258">
        <ele>1051</ele>
        <time>2017-05-28T06:33:54.000Z</time>
      </trkpt>
      <trkpt lat="45.80665" lon="6.24265">
        <ele>1054</ele>
        <time>2017-05-28T06:34:07.000Z</time>
      </trkpt>
      <trkpt lat="45.80679" lon="6.24276">
        <ele>1056.5999755859</ele>
        <time>2017-05-28T06:34:20.000Z</time>
      </trkpt>
      <trkpt lat="45.8068" lon="6.24277">
        <ele>1057</ele>
        <time>2017-05-28T06:34:21.000Z</time>
      </trkpt>
      <trkpt lat="45.80681" lon="6.24278">
        <ele>1057.1999511719</ele>
        <time>2017-05-28T06:34:22.000Z</time>
      </trkpt>
      <trkpt lat="45.80682" lon="6.24278">
        <ele>1057.4000244141</ele>
        <time>2017-05-28T06:34:23.000Z</time>
      </trkpt>
      <trkpt lat="45.80683" lon="6.24279">
        <ele>1057.4000244141</ele>
        <time>2017-05-28T06:34:24.000Z</time>
      </trkpt>
      <trkpt lat="45.80693" lon="6.24281">
        <ele>1059.5999755859</ele>
        <time>2017-05-28T06:34:35.000Z</time>
      </trkpt>
      <trkpt lat="45.80694" lon="6.24281">
        <ele>1059.8000488281</ele>
        <time>2017-05-28T06:34:36.000Z</time>
      </trkpt>
      <trkpt lat="45.80695" lon="6.24281">
        <ele>1060</ele>
        <time>2017-05-28T06:34:37.000Z</time>
      </trkpt>
      <trkpt lat="45.80696" lon="6.24282">
        <ele>1060.1999511719</ele>
        <time>2017-05-28T06:34:38.000Z</time>
      </trkpt>
      <trkpt lat="45.80704" lon="6.24286">
        <ele>1062.1999511719</ele>
        <time>2017-05-28T06:34:46.000Z</time>
      </trkpt>
      <trkpt lat="45.80705" lon="6.24287">
        <ele>1062.5999755859</ele>
        <time>2017-05-28T06:34:47.000Z</time>
      </trkpt>
      <trkpt lat="45.80707" lon="6.24288">
        <ele>1062.8000488281</ele>
        <time>2017-05-28T06:34:48.000Z</time>
      </trkpt>
      <trkpt lat="45.80708" lon="6.24288">
        <ele>1063</ele>
        <time>2017-05-28T06:34:49.000Z</time>
      </trkpt>
      <trkpt lat="45.80709" lon="6.24287">
        <ele>1063</ele>
        <time>2017-05-28T06:34:50.000Z</time>
      </trkpt>
      <trkpt lat="45.80725" lon="6.24289">
        <ele>1065.5999755859</ele>
        <time>2017-05-28T06:35:05.000Z</time>
      </trkpt>
      <trkpt lat="45.80727" lon="6.24292">
        <ele>1065.8000488281</ele>
        <time>2017-05-28T06:35:06.000Z</time>
      </trkpt>
      <trkpt lat="45.80728" lon="6.24292">
        <ele>1065.8000488281</ele>
        <time>2017-05-28T06:35:07.000Z</time>
      </trkpt>
      <trkpt lat="45.80729" lon="6.24293">
        <ele>1066</ele>
        <time>2017-05-28T06:35:08.000Z</time>
      </trkpt>
      <trkpt lat="45.80731" lon="6.24295">
        <ele>1066.8000488281</ele>
        <time>2017-05-28T06:35:11.000Z</time>
      </trkpt>
      <trkpt lat="45.80733" lon="6.24296">
        <ele>1067</ele>
        <time>2017-05-28T06:35:13.000Z</time>
      </trkpt>
      <trkpt lat="45.80734" lon="6.24297">
        <ele>1067.1999511719</ele>
        <time>2017-05-28T06:35:14.000Z</time>
      </trkpt>
      <trkpt lat="45.80752" lon="6.24301">
        <ele>1070.1999511719</ele>
        <time>2017-05-28T06:35:28.000Z</time>
      </trkpt>
      <trkpt lat="45.80753" lon="6.24301">
        <ele>1070.5999755859</ele>
        <time>2017-05-28T06:35:29.000Z</time>
      </trkpt>
      <trkpt lat="45.80769" lon="6.24309">
        <ele>1073.8000488281</ele>
        <time>2017-05-28T06:35:41.000Z</time>
      </trkpt>
      <trkpt lat="45.80778" lon="6.24315">
        <ele>1076.8000488281</ele>
        <time>2017-05-28T06:35:56.000Z</time>
      </trkpt>
      <trkpt lat="45.80783" lon="6.2432">
        <ele>1078.1999511719</ele>
        <time>2017-05-28T06:36:02.000Z</time>
      </trkpt>
      <trkpt lat="45.80791" lon="6.24326">
        <ele>1080.5999755859</ele>
        <time>2017-05-28T06:36:11.000Z</time>
      </trkpt>
      <trkpt lat="45.80792" lon="6.24327">
        <ele>1080.8000488281</ele>
        <time>2017-05-28T06:36:12.000Z</time>
      </trkpt>
      <trkpt lat="45.80795" lon="6.24327">
        <ele>1081.4000244141</ele>
        <time>2017-05-28T06:36:15.000Z</time>
      </trkpt>
      <trkpt lat="45.80799" lon="6.24332">
        <ele>1083.4000244141</ele>
        <time>2017-05-28T06:36:22.000Z</time>
      </trkpt>
      <trkpt lat="45.808" lon="6.24333">
        <ele>1083.8000488281</ele>
        <time>2017-05-28T06:36:23.000Z</time>
      </trkpt>
      <trkpt lat="45.80801" lon="6.24335">
        <ele>1084.1999511719</ele>
        <time>2017-05-28T06:36:24.000Z</time>
      </trkpt>
      <trkpt lat="45.80802" lon="6.24336">
        <ele>1084.4000244141</ele>
        <time>2017-05-28T06:36:25.000Z</time>
      </trkpt>
      <trkpt lat="45.80802" lon="6.24337">
        <ele>1084.4000244141</ele>
        <time>2017-05-28T06:36:26.000Z</time>
      </trkpt>
      <trkpt lat="45.80803" lon="6.24349">
        <ele>1086.8000488281</ele>
        <time>2017-05-28T06:36:33.000Z</time>
      </trkpt>
      <trkpt lat="45.80802" lon="6.2435">
        <ele>1087.1999511719</ele>
        <time>2017-05-28T06:36:34.000Z</time>
      </trkpt>
      <trkpt lat="45.80794" lon="6.24359">
        <ele>1090.4000244141</ele>
        <time>2017-05-28T06:36:47.000Z</time>
      </trkpt>
      <trkpt lat="45.80797" lon="6.24363">
        <ele>1091.8000488281</ele>
        <time>2017-05-28T06:36:52.000Z</time>
      </trkpt>
      <trkpt lat="45.80803" lon="6.24368">
        <ele>1094.8000488281</ele>
        <time>2017-05-28T06:37:03.000Z</time>
      </trkpt>
      <trkpt lat="45.8081" lon="6.24376">
        <ele>1097.8000488281</ele>
        <time>2017-05-28T06:37:16.000Z</time>
      </trkpt>
      <trkpt lat="45.8081" lon="6.24377">
        <ele>1097.8000488281</ele>
        <time>2017-05-28T06:37:17.000Z</time>
      </trkpt>
      <trkpt lat="45.80814" lon="6.24382">
        <ele>1100</ele>
        <time>2017-05-28T06:37:26.000Z</time>
      </trkpt>
      <trkpt lat="45.80814" lon="6.24383">
        <ele>1100.1999511719</ele>
        <time>2017-05-28T06:37:27.000Z</time>
      </trkpt>
      <trkpt lat="45.80831" lon="6.24397">
        <ele>1103.1999511719</ele>
        <time>2017-05-28T06:37:49.000Z</time>
      </trkpt>
      <trkpt lat="45.80833" lon="6.24399">
        <ele>1105.1999511719</ele>
        <time>2017-05-28T06:37:55.000Z</time>
      </trkpt>
      <trkpt lat="45.80835" lon="6.244">
        <ele>1105.5999755859</ele>
        <time>2017-05-28T06:37:58.000Z</time>
      </trkpt>
      <trkpt lat="45.80836" lon="6.24401">
        <ele>1106</ele>
        <time>2017-05-28T06:37:59.000Z</time>
      </trkpt>
      <trkpt lat="45.80837" lon="6.24401">
        <ele>1106.1999511719</ele>
        <time>2017-05-28T06:38:00.000Z</time>
      </trkpt>
      <trkpt lat="45.80838" lon="6.24402">
        <ele>1106.4000244141</ele>
        <time>2017-05-28T06:38:01.000Z</time>
      </trkpt>
      <trkpt lat="45.80839" lon="6.24402">
        <ele>1106.4000244141</ele>
        <time>2017-05-28T06:38:02.000Z</time>
      </trkpt>
      <trkpt lat="45.8084" lon="6.24404">
        <ele>1107</ele>
        <time>2017-05-28T06:38:04.000Z</time>
      </trkpt>
      <trkpt lat="45.80841" lon="6.24406">
        <ele>1107.1999511719</ele>
        <time>2017-05-28T06:38:05.000Z</time>
      </trkpt>
      <trkpt lat="45.80846" lon="6.24414">
        <ele>1108.8000488281</ele>
        <time>2017-05-28T06:38:13.000Z</time>
      </trkpt>
      <trkpt lat="45.80846" lon="6.24416">
        <ele>1109</ele>
        <time>2017-05-28T06:38:14.000Z</time>
      </trkpt>
      <trkpt lat="45.80846" lon="6.24419">
        <ele>1109.4000244141</ele>
        <time>2017-05-28T06:38:15.000Z</time>
      </trkpt>
      <trkpt lat="45.80846" lon="6.2442">
        <ele>1109.5999755859</ele>
        <time>2017-05-28T06:38:16.000Z</time>
      </trkpt>
      <trkpt lat="45.80846" lon="6.24422">
        <ele>1109.5999755859</ele>
        <time>2017-05-28T06:38:17.000Z</time>
      </trkpt>
      <trkpt lat="45.80847" lon="6.24431">
        <ele>1111.1999511719</ele>
        <time>2017-05-28T06:38:26.000Z</time>
      </trkpt>
      <trkpt lat="45.80844" lon="6.24434">
        <ele>1114.1999511719</ele>
        <time>2017-05-28T06:38:39.000Z</time>
      </trkpt>
      <trkpt lat="45.80845" lon="6.24436">
        <ele>1114.4000244141</ele>
        <time>2017-05-28T06:38:40.000Z</time>
      </trkpt>
      <trkpt lat="45.80851" lon="6.24447">
        <ele>1117.8000488281</ele>
        <time>2017-05-28T06:38:47.000Z</time>
      </trkpt>
      <trkpt lat="45.80851" lon="6.24451">
        <ele>1118</ele>
        <time>2017-05-28T06:38:48.000Z</time>
      </trkpt>
      <trkpt lat="45.80851" lon="6.24455">
        <ele>1118.1999511719</ele>
        <time>2017-05-28T06:38:49.000Z</time>
      </trkpt>
      <trkpt lat="45.8085" lon="6.24458">
        <ele>1118.1999511719</ele>
        <time>2017-05-28T06:38:50.000Z</time>
      </trkpt>
      <trkpt lat="45.80849" lon="6.24461">
        <ele>1118.1999511719</ele>
        <time>2017-05-28T06:38:51.000Z</time>
      </trkpt>
      <trkpt lat="45.80847" lon="6.24464">
        <ele>1118</ele>
        <time>2017-05-28T06:38:52.000Z</time>
      </trkpt>
      <trkpt lat="45.80845" lon="6.24467">
        <ele>1117.8000488281</ele>
        <time>2017-05-28T06:38:53.000Z</time>
      </trkpt>
      <trkpt lat="45.80843" lon="6.24469">
        <ele>1117.5999755859</ele>
        <time>2017-05-28T06:38:54.000Z</time>
      </trkpt>
      <trkpt lat="45.80825" lon="6.24492">
        <ele>1117</ele>
        <time>2017-05-28T06:39:02.000Z</time>
      </trkpt>
      <trkpt lat="45.80811" lon="6.24518">
        <ele>1114.5999755859</ele>
        <time>2017-05-28T06:39:08.000Z</time>
      </trkpt>
      <trkpt lat="45.808" lon="6.24541">
        <ele>1112.8000488281</ele>
        <time>2017-05-28T06:39:13.000Z</time>
      </trkpt>
      <trkpt lat="45.80796" lon="6.24555">
        <ele>1112.5999755859</ele>
        <time>2017-05-28T06:39:16.000Z</time>
      </trkpt>
      <trkpt lat="45.80792" lon="6.24579">
        <ele>1110</ele>
        <time>2017-05-28T06:39:21.000Z</time>
      </trkpt>
      <trkpt lat="45.80786" lon="6.24606">
        <ele>1108.8000488281</ele>
        <time>2017-05-28T06:39:27.000Z</time>
      </trkpt>
      <trkpt lat="45.80781" lon="6.24636">
        <ele>1107.4000244141</ele>
        <time>2017-05-28T06:39:33.000Z</time>
      </trkpt>
      <trkpt lat="45.80776" lon="6.24663">
        <ele>1105.4000244141</ele>
        <time>2017-05-28T06:39:39.000Z</time>
      </trkpt>
      <trkpt lat="45.80776" lon="6.24689">
        <ele>1102.4000244141</ele>
        <time>2017-05-28T06:39:44.000Z</time>
      </trkpt>
      <trkpt lat="45.80774" lon="6.24716">
        <ele>1099.1999511719</ele>
        <time>2017-05-28T06:39:49.000Z</time>
      </trkpt>
      <trkpt lat="45.80767" lon="6.24746">
        <ele>1096.8000488281</ele>
        <time>2017-05-28T06:39:55.000Z</time>
      </trkpt>
      <trkpt lat="45.80765" lon="6.24756">
        <ele>1096</ele>
        <time>2017-05-28T06:39:57.000Z</time>
      </trkpt>
      <trkpt lat="45.80758" lon="6.24784">
        <ele>1093.4000244141</ele>
        <time>2017-05-28T06:40:03.000Z</time>
      </trkpt>
      <trkpt lat="45.80752" lon="6.24811">
        <ele>1091.4000244141</ele>
        <time>2017-05-28T06:40:09.000Z</time>
      </trkpt>
      <trkpt lat="45.80745" lon="6.24839">
        <ele>1089.4000244141</ele>
        <time>2017-05-28T06:40:15.000Z</time>
      </trkpt>
      <trkpt lat="45.80743" lon="6.24869">
        <ele>1087</ele>
        <time>2017-05-28T06:40:21.000Z</time>
      </trkpt>
      <trkpt lat="45.80733" lon="6.24893">
        <ele>1085.5999755859</ele>
        <time>2017-05-28T06:40:27.000Z</time>
      </trkpt>
      <trkpt lat="45.80721" lon="6.24916">
        <ele>1083</ele>
        <time>2017-05-28T06:40:33.000Z</time>
      </trkpt>
      <trkpt lat="45.8071" lon="6.2494">
        <ele>1080</ele>
        <time>2017-05-28T06:40:39.000Z</time>
      </trkpt>
      <trkpt lat="45.80698" lon="6.24964">
        <ele>1077.4000244141</ele>
        <time>2017-05-28T06:40:45.000Z</time>
      </trkpt>
      <trkpt lat="45.80691" lon="6.24983">
        <ele>1074</ele>
        <time>2017-05-28T06:40:50.000Z</time>
      </trkpt>
      <trkpt lat="45.80683" lon="6.24995">
        <ele>1071</ele>
        <time>2017-05-28T06:40:54.000Z</time>
      </trkpt>
      <trkpt lat="45.8068" lon="6.24998">
        <ele>1070.1999511719</ele>
        <time>2017-05-28T06:40:55.000Z</time>
      </trkpt>
      <trkpt lat="45.80678" lon="6.25001">
        <ele>1069.5999755859</ele>
        <time>2017-05-28T06:40:56.000Z</time>
      </trkpt>
      <trkpt lat="45.80676" lon="6.25005">
        <ele>1068.5999755859</ele>
        <time>2017-05-28T06:40:57.000Z</time>
      </trkpt>
      <trkpt lat="45.80674" lon="6.25007">
        <ele>1067.4000244141</ele>
        <time>2017-05-28T06:40:58.000Z</time>
      </trkpt>
      <trkpt lat="45.80663" lon="6.2502">
        <ele>1063.5999755859</ele>
        <time>2017-05-28T06:41:02.000Z</time>
      </trkpt>
      <trkpt lat="45.80652" lon="6.25033">
        <ele>1060</ele>
        <time>2017-05-28T06:41:06.000Z</time>
      </trkpt>
      <trkpt lat="45.8064" lon="6.25051">
        <ele>1056.8000488281</ele>
        <time>2017-05-28T06:41:11.000Z</time>
      </trkpt>
      <trkpt lat="45.80635" lon="6.25062">
        <ele>1055.4000244141</ele>
        <time>2017-05-28T06:41:14.000Z</time>
      </trkpt>
      <trkpt lat="45.80629" lon="6.25078">
        <ele>1052.4000244141</ele>
        <time>2017-05-28T06:41:18.000Z</time>
      </trkpt>
      <trkpt lat="45.80621" lon="6.2509">
        <ele>1049.1999511719</ele>
        <time>2017-05-28T06:41:23.000Z</time>
      </trkpt>
      <trkpt lat="45.80618" lon="6.25093">
        <ele>1045.8000488281</ele>
        <time>2017-05-28T06:41:29.000Z</time>
      </trkpt>
      <trkpt lat="45.8061" lon="6.251">
        <ele>1042.5999755859</ele>
        <time>2017-05-28T06:41:34.000Z</time>
      </trkpt>
      <trkpt lat="45.80602" lon="6.25107">
        <ele>1039.4000244141</ele>
        <time>2017-05-28T06:41:39.000Z</time>
      </trkpt>
      <trkpt lat="45.80599" lon="6.25111">
        <ele>1036.8000488281</ele>
        <time>2017-05-28T06:41:43.000Z</time>
      </trkpt>
      <trkpt lat="45.80599" lon="6.25113">
        <ele>1035.8000488281</ele>
        <time>2017-05-28T06:41:44.000Z</time>
      </trkpt>
      <trkpt lat="45.80593" lon="6.25122">
        <ele>1032.1999511719</ele>
        <time>2017-05-28T06:41:49.000Z</time>
      </trkpt>
      <trkpt lat="45.80586" lon="6.25133">
        <ele>1031.5999755859</ele>
        <time>2017-05-28T06:41:50.000Z</time>
      </trkpt>
      <trkpt lat="45.80583" lon="6.25138">
        <ele>1030.5999755859</ele>
        <time>2017-05-28T06:41:51.000Z</time>
      </trkpt>
      <trkpt lat="45.80582" lon="6.25143">
        <ele>1029.8000488281</ele>
        <time>2017-05-28T06:41:52.000Z</time>
      </trkpt>
      <trkpt lat="45.80583" lon="6.2515">
        <ele>1028.8000488281</ele>
        <time>2017-05-28T06:41:55.000Z</time>
      </trkpt>
      <trkpt lat="45.80586" lon="6.25153">
        <ele>1028.1999511719</ele>
        <time>2017-05-28T06:41:56.000Z</time>
      </trkpt>
      <trkpt lat="45.806" lon="6.25166">
        <ele>1025.1999511719</ele>
        <time>2017-05-28T06:42:01.000Z</time>
      </trkpt>
      <trkpt lat="45.80612" lon="6.25175">
        <ele>1023.799987793</ele>
        <time>2017-05-28T06:42:04.000Z</time>
      </trkpt>
      <trkpt lat="45.80634" lon="6.25191">
        <ele>1020.5999755859</ele>
        <time>2017-05-28T06:42:11.000Z</time>
      </trkpt>
      <trkpt lat="45.80654" lon="6.25194">
        <ele>1018</ele>
        <time>2017-05-28T06:42:17.000Z</time>
      </trkpt>
      <trkpt lat="45.8067" lon="6.25201">
        <ele>1017.799987793</ele>
        <time>2017-05-28T06:42:23.000Z</time>
      </trkpt>
      <trkpt lat="45.80669" lon="6.25204">
        <ele>1017.5999755859</ele>
        <time>2017-05-28T06:42:24.000Z</time>
      </trkpt>
      <trkpt lat="45.80667" lon="6.25208">
        <ele>1017.5999755859</ele>
        <time>2017-05-28T06:42:25.000Z</time>
      </trkpt>
      <trkpt lat="45.80661" lon="6.25222">
        <ele>1017.5999755859</ele>
        <time>2017-05-28T06:42:30.000Z</time>
      </trkpt>
      <trkpt lat="45.8066" lon="6.25224">
        <ele>1017.799987793</ele>
        <time>2017-05-28T06:42:31.000Z</time>
      </trkpt>
      <trkpt lat="45.80641" lon="6.25249">
        <ele>1017</ele>
        <time>2017-05-28T06:42:42.000Z</time>
      </trkpt>
      <trkpt lat="45.80621" lon="6.2528">
        <ele>1014.4000244141</ele>
        <time>2017-05-28T06:42:49.000Z</time>
      </trkpt>
      <trkpt lat="45.80606" lon="6.2531">
        <ele>1011.4000244141</ele>
        <time>2017-05-28T06:42:56.000Z</time>
      </trkpt>
      <trkpt lat="45.80599" lon="6.2533">
        <ele>1008</ele>
        <time>2017-05-28T06:43:02.000Z</time>
      </trkpt>
      <trkpt lat="45.80591" lon="6.25343">
        <ele>1005</ele>
        <time>2017-05-28T06:43:06.000Z</time>
      </trkpt>
      <trkpt lat="45.80581" lon="6.25367">
        <ele>1001.799987793</ele>
        <time>2017-05-28T06:43:11.000Z</time>
      </trkpt>
      <trkpt lat="45.80574" lon="6.25397">
        <ele>1000.4000244141</ele>
        <time>2017-05-28T06:43:18.000Z</time>
      </trkpt>
      <trkpt lat="45.8057" lon="6.25423">
        <ele>999.79998779297</ele>
        <time>2017-05-28T06:43:25.000Z</time>
      </trkpt>
      <trkpt lat="45.80569" lon="6.25451">
        <ele>999</ele>
        <time>2017-05-28T06:43:32.000Z</time>
      </trkpt>
      <trkpt lat="45.80577" lon="6.25483">
        <ele>997.79998779297</ele>
        <time>2017-05-28T06:43:40.000Z</time>
      </trkpt>
      <trkpt lat="45.80581" lon="6.25513">
        <ele>996.59997558594</ele>
        <time>2017-05-28T06:43:47.000Z</time>
      </trkpt>
      <trkpt lat="45.80589" lon="6.25519">
        <ele>996</ele>
        <time>2017-05-28T06:44:08.000Z</time>
      </trkpt>
      <trkpt lat="45.8059" lon="6.2552">
        <ele>996</ele>
        <time>2017-05-28T06:44:14.000Z</time>
      </trkpt>
      <trkpt lat="45.80593" lon="6.25519">
        <ele>996.20001220703</ele>
        <time>2017-05-28T06:44:26.000Z</time>
      </trkpt>
      <trkpt lat="45.80593" lon="6.25519">
        <ele>996.59997558594</ele>
        <time>2017-05-28T06:44:39.000Z</time>
      </trkpt>
      <trkpt lat="45.80594" lon="6.25523">
        <ele>996.59997558594</ele>
        <time>2017-05-28T06:44:41.000Z</time>
      </trkpt>
      <trkpt lat="45.80594" lon="6.25526">
        <ele>996.59997558594</ele>
        <time>2017-05-28T06:44:42.000Z</time>
      </trkpt>
      <trkpt lat="45.80594" lon="6.2553">
        <ele>996.59997558594</ele>
        <time>2017-05-28T06:44:43.000Z</time>
      </trkpt>
      <trkpt lat="45.80592" lon="6.25557">
        <ele>996</ele>
        <time>2017-05-28T06:44:50.000Z</time>
      </trkpt>
      <trkpt lat="45.80584" lon="6.25587">
        <ele>995.40002441406</ele>
        <time>2017-05-28T06:44:57.000Z</time>
      </trkpt>
      <trkpt lat="45.80579" lon="6.25619">
        <ele>994.20001220703</ele>
        <time>2017-05-28T06:45:03.000Z</time>
      </trkpt>
      <trkpt lat="45.80578" lon="6.25647">
        <ele>993.79998779297</ele>
        <time>2017-05-28T06:45:09.000Z</time>
      </trkpt>
      <trkpt lat="45.80577" lon="6.25676">
        <ele>993</ele>
        <time>2017-05-28T06:45:15.000Z</time>
      </trkpt>
      <trkpt lat="45.80581" lon="6.25707">
        <ele>992.59997558594</ele>
        <time>2017-05-28T06:45:22.000Z</time>
      </trkpt>
      <trkpt lat="45.80582" lon="6.25735">
        <ele>992.20001220703</ele>
        <time>2017-05-28T06:45:28.000Z</time>
      </trkpt>
      <trkpt lat="45.80594" lon="6.25761">
        <ele>992</ele>
        <time>2017-05-28T06:45:35.000Z</time>
      </trkpt>
      <trkpt lat="45.80607" lon="6.25783">
        <ele>991.59997558594</ele>
        <time>2017-05-28T06:45:42.000Z</time>
      </trkpt>
      <trkpt lat="45.80623" lon="6.25803">
        <ele>991.40002441406</ele>
        <time>2017-05-28T06:45:49.000Z</time>
      </trkpt>
      <trkpt lat="45.80643" lon="6.25815">
        <ele>991.20001220703</ele>
        <time>2017-05-28T06:45:56.000Z</time>
      </trkpt>
      <trkpt lat="45.80662" lon="6.25808">
        <ele>993</ele>
        <time>2017-05-28T06:46:03.000Z</time>
      </trkpt>
      <trkpt lat="45.80683" lon="6.25807">
        <ele>995.40002441406</ele>
        <time>2017-05-28T06:46:13.000Z</time>
      </trkpt>
      <trkpt lat="45.80701" lon="6.25829">
        <ele>995.79998779297</ele>
        <time>2017-05-28T06:46:21.000Z</time>
      </trkpt>
      <trkpt lat="45.8071" lon="6.25855">
        <ele>995.79998779297</ele>
        <time>2017-05-28T06:46:29.000Z</time>
      </trkpt>
      <trkpt lat="45.80715" lon="6.25861">
        <ele>995.59997558594</ele>
        <time>2017-05-28T06:46:32.000Z</time>
      </trkpt>
      <trkpt lat="45.80716" lon="6.25862">
        <ele>995.79998779297</ele>
        <time>2017-05-28T06:46:33.000Z</time>
      </trkpt>
      <trkpt lat="45.80717" lon="6.25863">
        <ele>996</ele>
        <time>2017-05-28T06:46:34.000Z</time>
      </trkpt>
      <trkpt lat="45.8072" lon="6.25869">
        <ele>996</ele>
        <time>2017-05-28T06:46:41.000Z</time>
      </trkpt>
      <trkpt lat="45.80713" lon="6.25877">
        <ele>996</ele>
        <time>2017-05-28T06:47:04.000Z</time>
      </trkpt>
      <trkpt lat="45.80717" lon="6.2588">
        <ele>995.79998779297</ele>
        <time>2017-05-28T06:47:32.000Z</time>
      </trkpt>
      <trkpt lat="45.80716" lon="6.25878">
        <ele>995.79998779297</ele>
        <time>2017-05-28T06:48:09.000Z</time>
      </trkpt>
      <trkpt lat="45.80718" lon="6.25878">
        <ele>995.79998779297</ele>
        <time>2017-05-28T06:48:11.000Z</time>
      </trkpt>
      <trkpt lat="45.80727" lon="6.2588">
        <ele>996.20001220703</ele>
        <time>2017-05-28T06:48:17.000Z</time>
      </trkpt>
      <trkpt lat="45.80728" lon="6.2588">
        <ele>996.40002441406</ele>
        <time>2017-05-28T06:48:18.000Z</time>
      </trkpt>
      <trkpt lat="45.80733" lon="6.25874">
        <ele>998.20001220703</ele>
        <time>2017-05-28T06:48:24.000Z</time>
      </trkpt>
      <trkpt lat="45.80736" lon="6.25873">
        <ele>998.59997558594</ele>
        <time>2017-05-28T06:48:26.000Z</time>
      </trkpt>
      <trkpt lat="45.80741" lon="6.25872">
        <ele>999.40002441406</ele>
        <time>2017-05-28T06:48:28.000Z</time>
      </trkpt>
      <trkpt lat="45.80743" lon="6.25871">
        <ele>999.79998779297</ele>
        <time>2017-05-28T06:48:29.000Z</time>
      </trkpt>
      <trkpt lat="45.80746" lon="6.25871">
        <ele>1000.4000244141</ele>
        <time>2017-05-28T06:48:31.000Z</time>
      </trkpt>
      <trkpt lat="45.80748" lon="6.25871">
        <ele>1000.799987793</ele>
        <time>2017-05-28T06:48:32.000Z</time>
      </trkpt>
      <trkpt lat="45.80754" lon="6.25871">
        <ele>1002.4000244141</ele>
        <time>2017-05-28T06:48:37.000Z</time>
      </trkpt>
      <trkpt lat="45.80755" lon="6.25872">
        <ele>1002.799987793</ele>
        <time>2017-05-28T06:48:38.000Z</time>
      </trkpt>
      <trkpt lat="45.80756" lon="6.25872">
        <ele>1003.200012207</ele>
        <time>2017-05-28T06:48:39.000Z</time>
      </trkpt>
      <trkpt lat="45.80758" lon="6.25872">
        <ele>1003.4000244141</ele>
        <time>2017-05-28T06:48:40.000Z</time>
      </trkpt>
      <trkpt lat="45.80758" lon="6.25872">
        <ele>1003.799987793</ele>
        <time>2017-05-28T06:48:41.000Z</time>
      </trkpt>
      <trkpt lat="45.8076" lon="6.25873">
        <ele>1004</ele>
        <time>2017-05-28T06:48:42.000Z</time>
      </trkpt>
      <trkpt lat="45.80761" lon="6.25873">
        <ele>1004.200012207</ele>
        <time>2017-05-28T06:48:43.000Z</time>
      </trkpt>
      <trkpt lat="45.80764" lon="6.25871">
        <ele>1005</ele>
        <time>2017-05-28T06:48:45.000Z</time>
      </trkpt>
      <trkpt lat="45.80784" lon="6.25869">
        <ele>1007</ele>
        <time>2017-05-28T06:48:57.000Z</time>
      </trkpt>
      <trkpt lat="45.80797" lon="6.25874">
        <ele>1010.200012207</ele>
        <time>2017-05-28T06:49:07.000Z</time>
      </trkpt>
      <trkpt lat="45.80798" lon="6.25882">
        <ele>1010.5999755859</ele>
        <time>2017-05-28T06:49:10.000Z</time>
      </trkpt>
      <trkpt lat="45.80798" lon="6.25885">
        <ele>1010.5999755859</ele>
        <time>2017-05-28T06:49:11.000Z</time>
      </trkpt>
      <trkpt lat="45.80801" lon="6.25891">
        <ele>1009.4000244141</ele>
        <time>2017-05-28T06:49:15.000Z</time>
      </trkpt>
      <trkpt lat="45.80804" lon="6.25892">
        <ele>1009.4000244141</ele>
        <time>2017-05-28T06:49:16.000Z</time>
      </trkpt>
      <trkpt lat="45.80806" lon="6.25892">
        <ele>1009.4000244141</ele>
        <time>2017-05-28T06:49:17.000Z</time>
      </trkpt>
      <trkpt lat="45.80809" lon="6.25894">
        <ele>1009.4000244141</ele>
        <time>2017-05-28T06:49:18.000Z</time>
      </trkpt>
      <trkpt lat="45.80811" lon="6.25895">
        <ele>1009.4000244141</ele>
        <time>2017-05-28T06:49:19.000Z</time>
      </trkpt>
      <trkpt lat="45.80814" lon="6.25896">
        <ele>1009.200012207</ele>
        <time>2017-05-28T06:49:20.000Z</time>
      </trkpt>
      <trkpt lat="45.80817" lon="6.25897">
        <ele>1009</ele>
        <time>2017-05-28T06:49:21.000Z</time>
      </trkpt>
      <trkpt lat="45.80821" lon="6.25898">
        <ele>1008.799987793</ele>
        <time>2017-05-28T06:49:22.000Z</time>
      </trkpt>
      <trkpt lat="45.80843" lon="6.25904">
        <ele>1010</ele>
        <time>2017-05-28T06:49:29.000Z</time>
      </trkpt>
      <trkpt lat="45.80862" lon="6.25912">
        <ele>1009.4000244141</ele>
        <time>2017-05-28T06:49:36.000Z</time>
      </trkpt>
      <trkpt lat="45.80881" lon="6.25921">
        <ele>1008.799987793</ele>
        <time>2017-05-28T06:49:44.000Z</time>
      </trkpt>
      <trkpt lat="45.809" lon="6.25929">
        <ele>1010</ele>
        <time>2017-05-28T06:49:51.000Z</time>
      </trkpt>
      <trkpt lat="45.8092" lon="6.25943">
        <ele>1010.5999755859</ele>
        <time>2017-05-28T06:49:59.000Z</time>
      </trkpt>
      <trkpt lat="45.80941" lon="6.25947">
        <ele>1013</ele>
        <time>2017-05-28T06:50:08.000Z</time>
      </trkpt>
      <trkpt lat="45.80958" lon="6.25938">
        <ele>1016</ele>
        <time>2017-05-28T06:50:20.000Z</time>
      </trkpt>
      <trkpt lat="45.80964" lon="6.25936">
        <ele>1017.5999755859</ele>
        <time>2017-05-28T06:50:26.000Z</time>
      </trkpt>
      <trkpt lat="45.80965" lon="6.25936">
        <ele>1018</ele>
        <time>2017-05-28T06:50:27.000Z</time>
      </trkpt>
      <trkpt lat="45.80966" lon="6.25936">
        <ele>1018.200012207</ele>
        <time>2017-05-28T06:50:28.000Z</time>
      </trkpt>
      <trkpt lat="45.80967" lon="6.25936">
        <ele>1018.4000244141</ele>
        <time>2017-05-28T06:50:29.000Z</time>
      </trkpt>
      <trkpt lat="45.80968" lon="6.25935">
        <ele>1018.799987793</ele>
        <time>2017-05-28T06:50:30.000Z</time>
      </trkpt>
      <trkpt lat="45.80969" lon="6.25936">
        <ele>1019</ele>
        <time>2017-05-28T06:50:31.000Z</time>
      </trkpt>
      <trkpt lat="45.8097" lon="6.25936">
        <ele>1019.4000244141</ele>
        <time>2017-05-28T06:50:32.000Z</time>
      </trkpt>
      <trkpt lat="45.80971" lon="6.25936">
        <ele>1019.5999755859</ele>
        <time>2017-05-28T06:50:33.000Z</time>
      </trkpt>
      <trkpt lat="45.80973" lon="6.25937">
        <ele>1019.799987793</ele>
        <time>2017-05-28T06:50:34.000Z</time>
      </trkpt>
      <trkpt lat="45.80975" lon="6.25938">
        <ele>1020</ele>
        <time>2017-05-28T06:50:35.000Z</time>
      </trkpt>
      <trkpt lat="45.80982" lon="6.25938">
        <ele>1020.5999755859</ele>
        <time>2017-05-28T06:50:39.000Z</time>
      </trkpt>
      <trkpt lat="45.81002" lon="6.25945">
        <ele>1021.4000244141</ele>
        <time>2017-05-28T06:50:48.000Z</time>
      </trkpt>
      <trkpt lat="45.81021" lon="6.25954">
        <ele>1021.799987793</ele>
        <time>2017-05-28T06:50:57.000Z</time>
      </trkpt>
      <trkpt lat="45.81026" lon="6.25955">
        <ele>1021.5999755859</ele>
        <time>2017-05-28T06:50:59.000Z</time>
      </trkpt>
      <trkpt lat="45.81028" lon="6.25955">
        <ele>1021.799987793</ele>
        <time>2017-05-28T06:51:00.000Z</time>
      </trkpt>
      <trkpt lat="45.8105" lon="6.2596">
        <ele>1021</ele>
        <time>2017-05-28T06:51:08.000Z</time>
      </trkpt>
      <trkpt lat="45.8107" lon="6.25966">
        <ele>1021.799987793</ele>
        <time>2017-05-28T06:51:16.000Z</time>
      </trkpt>
      <trkpt lat="45.81088" lon="6.25969">
        <ele>1022.5999755859</ele>
        <time>2017-05-28T06:51:24.000Z</time>
      </trkpt>
      <trkpt lat="45.81105" lon="6.25962">
        <ele>1022.200012207</ele>
        <time>2017-05-28T06:51:33.000Z</time>
      </trkpt>
      <trkpt lat="45.8111" lon="6.25963">
        <ele>1022.4000244141</ele>
        <time>2017-05-28T06:51:35.000Z</time>
      </trkpt>
      <trkpt lat="45.81112" lon="6.25965">
        <ele>1022.5999755859</ele>
        <time>2017-05-28T06:51:36.000Z</time>
      </trkpt>
      <trkpt lat="45.81113" lon="6.25968">
        <ele>1022.5999755859</ele>
        <time>2017-05-28T06:51:37.000Z</time>
      </trkpt>
      <trkpt lat="45.81115" lon="6.25971">
        <ele>1022.4000244141</ele>
        <time>2017-05-28T06:51:38.000Z</time>
      </trkpt>
      <trkpt lat="45.81116" lon="6.25973">
        <ele>1022.200012207</ele>
        <time>2017-05-28T06:51:39.000Z</time>
      </trkpt>
      <trkpt lat="45.81131" lon="6.25991">
        <ele>1023.200012207</ele>
        <time>2017-05-28T06:51:48.000Z</time>
      </trkpt>
      <trkpt lat="45.81148" lon="6.25989">
        <ele>1022.799987793</ele>
        <time>2017-05-28T06:51:56.000Z</time>
      </trkpt>
      <trkpt lat="45.81168" lon="6.25993">
        <ele>1024</ele>
        <time>2017-05-28T06:52:04.000Z</time>
      </trkpt>
      <trkpt lat="45.81185" lon="6.25996">
        <ele>1025.4000244141</ele>
        <time>2017-05-28T06:52:13.000Z</time>
      </trkpt>
      <trkpt lat="45.81204" lon="6.25997">
        <ele>1026.1999511719</ele>
        <time>2017-05-28T06:52:22.000Z</time>
      </trkpt>
      <trkpt lat="45.81222" lon="6.26006">
        <ele>1026.1999511719</ele>
        <time>2017-05-28T06:52:30.000Z</time>
      </trkpt>
      <trkpt lat="45.8124" lon="6.26019">
        <ele>1025.4000244141</ele>
        <time>2017-05-28T06:52:38.000Z</time>
      </trkpt>
      <trkpt lat="45.81257" lon="6.26032">
        <ele>1024.1999511719</ele>
        <time>2017-05-28T06:52:46.000Z</time>
      </trkpt>
      <trkpt lat="45.81275" lon="6.26036">
        <ele>1023.4000244141</ele>
        <time>2017-05-28T06:52:54.000Z</time>
      </trkpt>
      <trkpt lat="45.81293" lon="6.26046">
        <ele>1023.4000244141</ele>
        <time>2017-05-28T06:53:03.000Z</time>
      </trkpt>
      <trkpt lat="45.81311" lon="6.26046">
        <ele>1025</ele>
        <time>2017-05-28T06:53:12.000Z</time>
      </trkpt>
      <trkpt lat="45.81332" lon="6.26053">
        <ele>1026.5999755859</ele>
        <time>2017-05-28T06:53:20.000Z</time>
      </trkpt>
      <trkpt lat="45.81341" lon="6.26057">
        <ele>1028.1999511719</ele>
        <time>2017-05-28T06:53:27.000Z</time>
      </trkpt>
      <trkpt lat="45.81342" lon="6.2606">
        <ele>1028.1999511719</ele>
        <time>2017-05-28T06:53:28.000Z</time>
      </trkpt>
      <trkpt lat="45.81343" lon="6.26062">
        <ele>1028.4000244141</ele>
        <time>2017-05-28T06:53:29.000Z</time>
      </trkpt>
      <trkpt lat="45.81343" lon="6.26064">
        <ele>1028.5999755859</ele>
        <time>2017-05-28T06:53:30.000Z</time>
      </trkpt>
      <trkpt lat="45.81344" lon="6.26066">
        <ele>1028.8000488281</ele>
        <time>2017-05-28T06:53:31.000Z</time>
      </trkpt>
      <trkpt lat="45.81344" lon="6.26068">
        <ele>1028.8000488281</ele>
        <time>2017-05-28T06:53:32.000Z</time>
      </trkpt>
      <trkpt lat="45.81343" lon="6.26071">
        <ele>1029</ele>
        <time>2017-05-28T06:53:33.000Z</time>
      </trkpt>
      <trkpt lat="45.81344" lon="6.26072">
        <ele>1029.1999511719</ele>
        <time>2017-05-28T06:53:34.000Z</time>
      </trkpt>
      <trkpt lat="45.81345" lon="6.26072">
        <ele>1029.5999755859</ele>
        <time>2017-05-28T06:53:36.000Z</time>
      </trkpt>
      <trkpt lat="45.81358" lon="6.26073">
        <ele>1029.8000488281</ele>
        <time>2017-05-28T06:53:46.000Z</time>
      </trkpt>
      <trkpt lat="45.81359" lon="6.26073">
        <ele>1030</ele>
        <time>2017-05-28T06:53:47.000Z</time>
      </trkpt>
      <trkpt lat="45.8136" lon="6.26072">
        <ele>1030.1999511719</ele>
        <time>2017-05-28T06:53:48.000Z</time>
      </trkpt>
      <trkpt lat="45.81364" lon="6.26075">
        <ele>1030.5999755859</ele>
        <time>2017-05-28T06:53:52.000Z</time>
      </trkpt>
      <trkpt lat="45.81367" lon="6.26077">
        <ele>1031</ele>
        <time>2017-05-28T06:53:54.000Z</time>
      </trkpt>
      <trkpt lat="45.81368" lon="6.26077">
        <ele>1031.4000244141</ele>
        <time>2017-05-28T06:53:55.000Z</time>
      </trkpt>
      <trkpt lat="45.81371" lon="6.26077">
        <ele>1032.1999511719</ele>
        <time>2017-05-28T06:53:58.000Z</time>
      </trkpt>
      <trkpt lat="45.81383" lon="6.26077">
        <ele>1033.5999755859</ele>
        <time>2017-05-28T06:54:08.000Z</time>
      </trkpt>
      <trkpt lat="45.81384" lon="6.26077">
        <ele>1033.8000488281</ele>
        <time>2017-05-28T06:54:09.000Z</time>
      </trkpt>
      <trkpt lat="45.81385" lon="6.26077">
        <ele>1034</ele>
        <time>2017-05-28T06:54:10.000Z</time>
      </trkpt>
      <trkpt lat="45.81387" lon="6.26076">
        <ele>1034</ele>
        <time>2017-05-28T06:54:11.000Z</time>
      </trkpt>
      <trkpt lat="45.81388" lon="6.26076">
        <ele>1034</ele>
        <time>2017-05-28T06:54:12.000Z</time>
      </trkpt>
      <trkpt lat="45.8139" lon="6.26076">
        <ele>1034.4000244141</ele>
        <time>2017-05-28T06:54:13.000Z</time>
      </trkpt>
      <trkpt lat="45.81391" lon="6.26077">
        <ele>1034.5999755859</ele>
        <time>2017-05-28T06:54:14.000Z</time>
      </trkpt>
      <trkpt lat="45.81392" lon="6.26077">
        <ele>1035</ele>
        <time>2017-05-28T06:54:15.000Z</time>
      </trkpt>
      <trkpt lat="45.81394" lon="6.26077">
        <ele>1035.1999511719</ele>
        <time>2017-05-28T06:54:16.000Z</time>
      </trkpt>
      <trkpt lat="45.81396" lon="6.26077">
        <ele>1035.4000244141</ele>
        <time>2017-05-28T06:54:17.000Z</time>
      </trkpt>
      <trkpt lat="45.81397" lon="6.26077">
        <ele>1035.4000244141</ele>
        <time>2017-05-28T06:54:18.000Z</time>
      </trkpt>
      <trkpt lat="45.81398" lon="6.26076">
        <ele>1035.5999755859</ele>
        <time>2017-05-28T06:54:19.000Z</time>
      </trkpt>
      <trkpt lat="45.814" lon="6.26076">
        <ele>1036</ele>
        <time>2017-05-28T06:54:20.000Z</time>
      </trkpt>
      <trkpt lat="45.81401" lon="6.26076">
        <ele>1036.1999511719</ele>
        <time>2017-05-28T06:54:21.000Z</time>
      </trkpt>
      <trkpt lat="45.81407" lon="6.26072">
        <ele>1036.5999755859</ele>
        <time>2017-05-28T06:54:26.000Z</time>
      </trkpt>
      <trkpt lat="45.81417" lon="6.26064">
        <ele>1037.8000488281</ele>
        <time>2017-05-28T06:54:37.000Z</time>
      </trkpt>
      <trkpt lat="45.8143" lon="6.26039">
        <ele>1040.8000488281</ele>
        <time>2017-05-28T06:54:53.000Z</time>
      </trkpt>
      <trkpt lat="45.81431" lon="6.26038">
        <ele>1041.4000244141</ele>
        <time>2017-05-28T06:54:54.000Z</time>
      </trkpt>
      <trkpt lat="45.81432" lon="6.26035">
        <ele>1042.4000244141</ele>
        <time>2017-05-28T06:54:57.000Z</time>
      </trkpt>
      <trkpt lat="45.81433" lon="6.26033">
        <ele>1042.5999755859</ele>
        <time>2017-05-28T06:54:58.000Z</time>
      </trkpt>
      <trkpt lat="45.81433" lon="6.26031">
        <ele>1042.8000488281</ele>
        <time>2017-05-28T06:54:59.000Z</time>
      </trkpt>
      <trkpt lat="45.81434" lon="6.26029">
        <ele>1043</ele>
        <time>2017-05-28T06:55:00.000Z</time>
      </trkpt>
      <trkpt lat="45.81435" lon="6.26026">
        <ele>1043.8000488281</ele>
        <time>2017-05-28T06:55:02.000Z</time>
      </trkpt>
      <trkpt lat="45.81436" lon="6.26024">
        <ele>1044</ele>
        <time>2017-05-28T06:55:03.000Z</time>
      </trkpt>
      <trkpt lat="45.81438" lon="6.26022">
        <ele>1045.1999511719</ele>
        <time>2017-05-28T06:55:07.000Z</time>
      </trkpt>
      <trkpt lat="45.81438" lon="6.2602">
        <ele>1045.5999755859</ele>
        <time>2017-05-28T06:55:08.000Z</time>
      </trkpt>
      <trkpt lat="45.81444" lon="6.26012">
        <ele>1048.8000488281</ele>
        <time>2017-05-28T06:55:21.000Z</time>
      </trkpt>
      <trkpt lat="45.81452" lon="6.26011">
        <ele>1051.1999511719</ele>
        <time>2017-05-28T06:55:29.000Z</time>
      </trkpt>
      <trkpt lat="45.81455" lon="6.26012">
        <ele>1052</ele>
        <time>2017-05-28T06:55:31.000Z</time>
      </trkpt>
      <trkpt lat="45.81458" lon="6.26013">
        <ele>1052.5999755859</ele>
        <time>2017-05-28T06:55:33.000Z</time>
      </trkpt>
      <trkpt lat="45.8146" lon="6.26013">
        <ele>1052.8000488281</ele>
        <time>2017-05-28T06:55:34.000Z</time>
      </trkpt>
      <trkpt lat="45.81461" lon="6.26013">
        <ele>1053</ele>
        <time>2017-05-28T06:55:35.000Z</time>
      </trkpt>
      <trkpt lat="45.81469" lon="6.26014">
        <ele>1054.8000488281</ele>
        <time>2017-05-28T06:55:42.000Z</time>
      </trkpt>
      <trkpt lat="45.8147" lon="6.26014">
        <ele>1055</ele>
        <time>2017-05-28T06:55:43.000Z</time>
      </trkpt>
      <trkpt lat="45.81475" lon="6.26014">
        <ele>1055.8000488281</ele>
        <time>2017-05-28T06:55:46.000Z</time>
      </trkpt>
      <trkpt lat="45.8148" lon="6.26016">
        <ele>1056.8000488281</ele>
        <time>2017-05-28T06:55:50.000Z</time>
      </trkpt>
      <trkpt lat="45.81485" lon="6.26014">
        <ele>1058.5999755859</ele>
        <time>2017-05-28T06:55:56.000Z</time>
      </trkpt>
      <trkpt lat="45.81497" lon="6.26008">
        <ele>1060.8000488281</ele>
        <time>2017-05-28T06:56:06.000Z</time>
      </trkpt>
      <trkpt lat="45.81499" lon="6.26008">
        <ele>1061</ele>
        <time>2017-05-28T06:56:07.000Z</time>
      </trkpt>
      <trkpt lat="45.815" lon="6.26008">
        <ele>1061</ele>
        <time>2017-05-28T06:56:08.000Z</time>
      </trkpt>
      <trkpt lat="45.81502" lon="6.26008">
        <ele>1061.4000244141</ele>
        <time>2017-05-28T06:56:09.000Z</time>
      </trkpt>
      <trkpt lat="45.81504" lon="6.26008">
        <ele>1061.4000244141</ele>
        <time>2017-05-28T06:56:10.000Z</time>
      </trkpt>
      <trkpt lat="45.81506" lon="6.26009">
        <ele>1061.8000488281</ele>
        <time>2017-05-28T06:56:11.000Z</time>
      </trkpt>
      <trkpt lat="45.81508" lon="6.26008">
        <ele>1062</ele>
        <time>2017-05-28T06:56:12.000Z</time>
      </trkpt>
      <trkpt lat="45.81509" lon="6.26009">
        <ele>1062.1999511719</ele>
        <time>2017-05-28T06:56:13.000Z</time>
      </trkpt>
      <trkpt lat="45.8151" lon="6.26008">
        <ele>1062.4000244141</ele>
        <time>2017-05-28T06:56:14.000Z</time>
      </trkpt>
      <trkpt lat="45.81513" lon="6.26008">
        <ele>1062.5999755859</ele>
        <time>2017-05-28T06:56:16.000Z</time>
      </trkpt>
      <trkpt lat="45.81515" lon="6.26007">
        <ele>1063</ele>
        <time>2017-05-28T06:56:17.000Z</time>
      </trkpt>
      <trkpt lat="45.8154" lon="6.26006">
        <ele>1066.4000244141</ele>
        <time>2017-05-28T06:56:30.000Z</time>
      </trkpt>
      <trkpt lat="45.8156" lon="6.26008">
        <ele>1068.1999511719</ele>
        <time>2017-05-28T06:56:42.000Z</time>
      </trkpt>
      <trkpt lat="45.81578" lon="6.26004">
        <ele>1070.5999755859</ele>
        <time>2017-05-28T06:56:54.000Z</time>
      </trkpt>
      <trkpt lat="45.81585" lon="6.26001">
        <ele>1072.1999511719</ele>
        <time>2017-05-28T06:57:00.000Z</time>
      </trkpt>
      <trkpt lat="45.81586" lon="6.26001">
        <ele>1072.4000244141</ele>
        <time>2017-05-28T06:57:01.000Z</time>
      </trkpt>
      <trkpt lat="45.81587" lon="6.26001">
        <ele>1072.8000488281</ele>
        <time>2017-05-28T06:57:02.000Z</time>
      </trkpt>
      <trkpt lat="45.81588" lon="6.26001">
        <ele>1073</ele>
        <time>2017-05-28T06:57:03.000Z</time>
      </trkpt>
      <trkpt lat="45.81589" lon="6.26002">
        <ele>1073.1999511719</ele>
        <time>2017-05-28T06:57:04.000Z</time>
      </trkpt>
      <trkpt lat="45.81612" lon="6.25999">
        <ele>1076</ele>
        <time>2017-05-28T06:57:21.000Z</time>
      </trkpt>
      <trkpt lat="45.81625" lon="6.25996">
        <ele>1079.8000488281</ele>
        <time>2017-05-28T06:57:31.000Z</time>
      </trkpt>
      <trkpt lat="45.81626" lon="6.25994">
        <ele>1080</ele>
        <time>2017-05-28T06:57:32.000Z</time>
      </trkpt>
      <trkpt lat="45.81636" lon="6.2599">
        <ele>1081</ele>
        <time>2017-05-28T06:57:40.000Z</time>
      </trkpt>
      <trkpt lat="45.81641" lon="6.25991">
        <ele>1081.5999755859</ele>
        <time>2017-05-28T06:57:44.000Z</time>
      </trkpt>
      <trkpt lat="45.81643" lon="6.25992">
        <ele>1081.8000488281</ele>
        <time>2017-05-28T06:57:45.000Z</time>
      </trkpt>
      <trkpt lat="45.81646" lon="6.25992">
        <ele>1082</ele>
        <time>2017-05-28T06:57:46.000Z</time>
      </trkpt>
      <trkpt lat="45.81647" lon="6.25992">
        <ele>1082</ele>
        <time>2017-05-28T06:57:47.000Z</time>
      </trkpt>
      <trkpt lat="45.81649" lon="6.25993">
        <ele>1082.1999511719</ele>
        <time>2017-05-28T06:57:48.000Z</time>
      </trkpt>
      <trkpt lat="45.81674" lon="6.26003">
        <ele>1084.5999755859</ele>
        <time>2017-05-28T06:58:03.000Z</time>
      </trkpt>
      <trkpt lat="45.81691" lon="6.26006">
        <ele>1087.8000488281</ele>
        <time>2017-05-28T06:58:15.000Z</time>
      </trkpt>
      <trkpt lat="45.81704" lon="6.2601">
        <ele>1091</ele>
        <time>2017-05-28T06:58:27.000Z</time>
      </trkpt>
      <trkpt lat="45.81714" lon="6.26009">
        <ele>1092</ele>
        <time>2017-05-28T06:58:34.000Z</time>
      </trkpt>
      <trkpt lat="45.81716" lon="6.26007">
        <ele>1092</ele>
        <time>2017-05-28T06:58:35.000Z</time>
      </trkpt>
      <trkpt lat="45.8172" lon="6.26007">
        <ele>1092</ele>
        <time>2017-05-28T06:58:37.000Z</time>
      </trkpt>
      <trkpt lat="45.81722" lon="6.26008">
        <ele>1091.5999755859</ele>
        <time>2017-05-28T06:58:38.000Z</time>
      </trkpt>
      <trkpt lat="45.81724" lon="6.2601">
        <ele>1091.5999755859</ele>
        <time>2017-05-28T06:58:39.000Z</time>
      </trkpt>
      <trkpt lat="45.81748" lon="6.26015">
        <ele>1094.5999755859</ele>
        <time>2017-05-28T06:58:54.000Z</time>
      </trkpt>
      <trkpt lat="45.81772" lon="6.26009">
        <ele>1093.1999511719</ele>
        <time>2017-05-28T06:59:05.000Z</time>
      </trkpt>
      <trkpt lat="45.81794" lon="6.2601">
        <ele>1092.8000488281</ele>
        <time>2017-05-28T06:59:16.000Z</time>
      </trkpt>
      <trkpt lat="45.81819" lon="6.26018">
        <ele>1094.5999755859</ele>
        <time>2017-05-28T06:59:25.000Z</time>
      </trkpt>
      <trkpt lat="45.8184" lon="6.26034">
        <ele>1096.1999511719</ele>
        <time>2017-05-28T06:59:37.000Z</time>
      </trkpt>
      <trkpt lat="45.81857" lon="6.26044">
        <ele>1099.5999755859</ele>
        <time>2017-05-28T06:59:49.000Z</time>
      </trkpt>
      <trkpt lat="45.81864" lon="6.26053">
        <ele>1100.1999511719</ele>
        <time>2017-05-28T06:59:55.000Z</time>
      </trkpt>
      <trkpt lat="45.81865" lon="6.26055">
        <ele>1100</ele>
        <time>2017-05-28T06:59:56.000Z</time>
      </trkpt>
      <trkpt lat="45.81866" lon="6.26056">
        <ele>1099.5999755859</ele>
        <time>2017-05-28T06:59:57.000Z</time>
      </trkpt>
      <trkpt lat="45.81877" lon="6.2606">
        <ele>1100.1999511719</ele>
        <time>2017-05-28T07:00:18.000Z</time>
      </trkpt>
      <trkpt lat="45.81877" lon="6.26063">
        <ele>1100</ele>
        <time>2017-05-28T07:00:21.000Z</time>
      </trkpt>
      <trkpt lat="45.81878" lon="6.26063">
        <ele>1100</ele>
        <time>2017-05-28T07:00:22.000Z</time>
      </trkpt>
      <trkpt lat="45.8188" lon="6.26064">
        <ele>1100</ele>
        <time>2017-05-28T07:00:23.000Z</time>
      </trkpt>
      <trkpt lat="45.81882" lon="6.26064">
        <ele>1100.1999511719</ele>
        <time>2017-05-28T07:00:24.000Z</time>
      </trkpt>
      <trkpt lat="45.81883" lon="6.26063">
        <ele>1100.4000244141</ele>
        <time>2017-05-28T07:00:25.000Z</time>
      </trkpt>
      <trkpt lat="45.81886" lon="6.26062">
        <ele>1100.8000488281</ele>
        <time>2017-05-28T07:00:26.000Z</time>
      </trkpt>
      <trkpt lat="45.81888" lon="6.26062">
        <ele>1101</ele>
        <time>2017-05-28T07:00:27.000Z</time>
      </trkpt>
      <trkpt lat="45.8189" lon="6.26061">
        <ele>1101.1999511719</ele>
        <time>2017-05-28T07:00:28.000Z</time>
      </trkpt>
      <trkpt lat="45.81894" lon="6.26058">
        <ele>1102</ele>
        <time>2017-05-28T07:00:33.000Z</time>
      </trkpt>
      <trkpt lat="45.81896" lon="6.26057">
        <ele>1102.4000244141</ele>
        <time>2017-05-28T07:00:36.000Z</time>
      </trkpt>
      <trkpt lat="45.81901" lon="6.26057">
        <ele>1103.4000244141</ele>
        <time>2017-05-28T07:00:39.000Z</time>
      </trkpt>
      <trkpt lat="45.81902" lon="6.26057">
        <ele>1103.8000488281</ele>
        <time>2017-05-28T07:00:40.000Z</time>
      </trkpt>
      <trkpt lat="45.8191" lon="6.26058">
        <ele>1106.8000488281</ele>
        <time>2017-05-28T07:00:48.000Z</time>
      </trkpt>
      <trkpt lat="45.81912" lon="6.26059">
        <ele>1107.8000488281</ele>
        <time>2017-05-28T07:00:50.000Z</time>
      </trkpt>
      <trkpt lat="45.81915" lon="6.26063">
        <ele>1109</ele>
        <time>2017-05-28T07:00:54.000Z</time>
      </trkpt>
      <trkpt lat="45.81916" lon="6.26064">
        <ele>1109.1999511719</ele>
        <time>2017-05-28T07:00:55.000Z</time>
      </trkpt>
      <trkpt lat="45.81917" lon="6.26067">
        <ele>1109.8000488281</ele>
        <time>2017-05-28T07:00:57.000Z</time>
      </trkpt>
      <trkpt lat="45.81917" lon="6.26068">
        <ele>1110.1999511719</ele>
        <time>2017-05-28T07:00:58.000Z</time>
      </trkpt>
      <trkpt lat="45.8192" lon="6.26071">
        <ele>1111.8000488281</ele>
        <time>2017-05-28T07:01:03.000Z</time>
      </trkpt>
      <trkpt lat="45.81921" lon="6.26072">
        <ele>1112</ele>
        <time>2017-05-28T07:01:04.000Z</time>
      </trkpt>
      <trkpt lat="45.81921" lon="6.26074">
        <ele>1112.5999755859</ele>
        <time>2017-05-28T07:01:05.000Z</time>
      </trkpt>
      <trkpt lat="45.81926" lon="6.2608">
        <ele>1114.1999511719</ele>
        <time>2017-05-28T07:01:11.000Z</time>
      </trkpt>
      <trkpt lat="45.81927" lon="6.26081">
        <ele>1114.4000244141</ele>
        <time>2017-05-28T07:01:12.000Z</time>
      </trkpt>
      <trkpt lat="45.81931" lon="6.26083">
        <ele>1115.4000244141</ele>
        <time>2017-05-28T07:01:16.000Z</time>
      </trkpt>
      <trkpt lat="45.81943" lon="6.26084">
        <ele>1118.5999755859</ele>
        <time>2017-05-28T07:01:27.000Z</time>
      </trkpt>
      <trkpt lat="45.81945" lon="6.26084">
        <ele>1118.8000488281</ele>
        <time>2017-05-28T07:01:28.000Z</time>
      </trkpt>
      <trkpt lat="45.81946" lon="6.26085">
        <ele>1119.1999511719</ele>
        <time>2017-05-28T07:01:29.000Z</time>
      </trkpt>
      <trkpt lat="45.81949" lon="6.26089">
        <ele>1120</ele>
        <time>2017-05-28T07:01:31.000Z</time>
      </trkpt>
      <trkpt lat="45.81954" lon="6.26098">
        <ele>1121.1999511719</ele>
        <time>2017-05-28T07:01:36.000Z</time>
      </trkpt>
      <trkpt lat="45.81962" lon="6.26101">
        <ele>1124.1999511719</ele>
        <time>2017-05-28T07:01:48.000Z</time>
      </trkpt>
      <trkpt lat="45.81965" lon="6.261">
        <ele>1125.1999511719</ele>
        <time>2017-05-28T07:01:51.000Z</time>
      </trkpt>
      <trkpt lat="45.81966" lon="6.261">
        <ele>1125.5999755859</ele>
        <time>2017-05-28T07:01:52.000Z</time>
      </trkpt>
      <trkpt lat="45.81967" lon="6.26099">
        <ele>1126</ele>
        <time>2017-05-28T07:01:53.000Z</time>
      </trkpt>
      <trkpt lat="45.81988" lon="6.26096">
        <ele>1127.4000244141</ele>
        <time>2017-05-28T07:02:04.000Z</time>
      </trkpt>
      <trkpt lat="45.82005" lon="6.26095">
        <ele>1129.5999755859</ele>
        <time>2017-05-28T07:02:12.000Z</time>
      </trkpt>
      <trkpt lat="45.82024" lon="6.26091">
        <ele>1129.4000244141</ele>
        <time>2017-05-28T07:02:21.000Z</time>
      </trkpt>
      <trkpt lat="45.82045" lon="6.26089">
        <ele>1129.5999755859</ele>
        <time>2017-05-28T07:02:31.000Z</time>
      </trkpt>
      <trkpt lat="45.82056" lon="6.26088">
        <ele>1129.5999755859</ele>
        <time>2017-05-28T07:02:36.000Z</time>
      </trkpt>
      <trkpt lat="45.82064" lon="6.26096">
        <ele>1131.8000488281</ele>
        <time>2017-05-28T07:02:47.000Z</time>
      </trkpt>
      <trkpt lat="45.82069" lon="6.261">
        <ele>1132.5999755859</ele>
        <time>2017-05-28T07:02:52.000Z</time>
      </trkpt>
      <trkpt lat="45.8207" lon="6.26101">
        <ele>1132.8000488281</ele>
        <time>2017-05-28T07:02:53.000Z</time>
      </trkpt>
      <trkpt lat="45.8208" lon="6.26108">
        <ele>1134.8000488281</ele>
        <time>2017-05-28T07:03:04.000Z</time>
      </trkpt>
      <trkpt lat="45.82081" lon="6.26109">
        <ele>1135</ele>
        <time>2017-05-28T07:03:05.000Z</time>
      </trkpt>
      <trkpt lat="45.8209" lon="6.26115">
        <ele>1136.8000488281</ele>
        <time>2017-05-28T07:03:13.000Z</time>
      </trkpt>
      <trkpt lat="45.82099" lon="6.26117">
        <ele>1138.4000244141</ele>
        <time>2017-05-28T07:03:19.000Z</time>
      </trkpt>
      <trkpt lat="45.82101" lon="6.26124">
        <ele>1139</ele>
        <time>2017-05-28T07:03:24.000Z</time>
      </trkpt>
      <trkpt lat="45.82105" lon="6.26128">
        <ele>1140.8000488281</ele>
        <time>2017-05-28T07:03:28.000Z</time>
      </trkpt>
      <trkpt lat="45.82105" lon="6.26129">
        <ele>1141.1999511719</ele>
        <time>2017-05-28T07:03:29.000Z</time>
      </trkpt>
      <trkpt lat="45.82106" lon="6.26132">
        <ele>1141.4000244141</ele>
        <time>2017-05-28T07:03:31.000Z</time>
      </trkpt>
      <trkpt lat="45.82107" lon="6.26134">
        <ele>1141.8000488281</ele>
        <time>2017-05-28T07:03:32.000Z</time>
      </trkpt>
      <trkpt lat="45.82108" lon="6.26135">
        <ele>1142.1999511719</ele>
        <time>2017-05-28T07:03:33.000Z</time>
      </trkpt>
      <trkpt lat="45.82112" lon="6.26137">
        <ele>1143.8000488281</ele>
        <time>2017-05-28T07:03:40.000Z</time>
      </trkpt>
      <trkpt lat="45.82114" lon="6.26139">
        <ele>1144.4000244141</ele>
        <time>2017-05-28T07:03:42.000Z</time>
      </trkpt>
      <trkpt lat="45.82124" lon="6.26148">
        <ele>1147</ele>
        <time>2017-05-28T07:03:54.000Z</time>
      </trkpt>
      <trkpt lat="45.82125" lon="6.26149">
        <ele>1147.4000244141</ele>
        <time>2017-05-28T07:03:55.000Z</time>
      </trkpt>
      <trkpt lat="45.82135" lon="6.26159">
        <ele>1149.4000244141</ele>
        <time>2017-05-28T07:04:03.000Z</time>
      </trkpt>
      <trkpt lat="45.82136" lon="6.26161">
        <ele>1149.8000488281</ele>
        <time>2017-05-28T07:04:04.000Z</time>
      </trkpt>
      <trkpt lat="45.82138" lon="6.26163">
        <ele>1150</ele>
        <time>2017-05-28T07:04:05.000Z</time>
      </trkpt>
      <trkpt lat="45.82138" lon="6.26164">
        <ele>1150</ele>
        <time>2017-05-28T07:04:06.000Z</time>
      </trkpt>
      <trkpt lat="45.8214" lon="6.26165">
        <ele>1150</ele>
        <time>2017-05-28T07:04:07.000Z</time>
      </trkpt>
      <trkpt lat="45.82141" lon="6.26166">
        <ele>1150</ele>
        <time>2017-05-28T07:04:08.000Z</time>
      </trkpt>
      <trkpt lat="45.82144" lon="6.26168">
        <ele>1150</ele>
        <time>2017-05-28T07:04:09.000Z</time>
      </trkpt>
      <trkpt lat="45.82146" lon="6.26168">
        <ele>1149.5999755859</ele>
        <time>2017-05-28T07:04:10.000Z</time>
      </trkpt>
      <trkpt lat="45.82148" lon="6.26169">
        <ele>1149.1999511719</ele>
        <time>2017-05-28T07:04:11.000Z</time>
      </trkpt>
      <trkpt lat="45.82153" lon="6.26175">
        <ele>1148.4000244141</ele>
        <time>2017-05-28T07:04:15.000Z</time>
      </trkpt>
      <trkpt lat="45.82154" lon="6.26177">
        <ele>1148.5999755859</ele>
        <time>2017-05-28T07:04:16.000Z</time>
      </trkpt>
      <trkpt lat="45.82155" lon="6.26178">
        <ele>1148.5999755859</ele>
        <time>2017-05-28T07:04:17.000Z</time>
      </trkpt>
      <trkpt lat="45.82156" lon="6.26179">
        <ele>1148.8000488281</ele>
        <time>2017-05-28T07:04:18.000Z</time>
      </trkpt>
      <trkpt lat="45.82158" lon="6.26182">
        <ele>1149.1999511719</ele>
        <time>2017-05-28T07:04:19.000Z</time>
      </trkpt>
      <trkpt lat="45.82159" lon="6.26184">
        <ele>1149.4000244141</ele>
        <time>2017-05-28T07:04:20.000Z</time>
      </trkpt>
      <trkpt lat="45.82161" lon="6.26186">
        <ele>1149.5999755859</ele>
        <time>2017-05-28T07:04:21.000Z</time>
      </trkpt>
      <trkpt lat="45.82162" lon="6.26187">
        <ele>1149.5999755859</ele>
        <time>2017-05-28T07:04:22.000Z</time>
      </trkpt>
      <trkpt lat="45.82166" lon="6.26188">
        <ele>1150</ele>
        <time>2017-05-28T07:04:24.000Z</time>
      </trkpt>
      <trkpt lat="45.82167" lon="6.26187">
        <ele>1150.1999511719</ele>
        <time>2017-05-28T07:04:25.000Z</time>
      </trkpt>
      <trkpt lat="45.82169" lon="6.26187">
        <ele>1150.4000244141</ele>
        <time>2017-05-28T07:04:26.000Z</time>
      </trkpt>
      <trkpt lat="45.82192" lon="6.2619">
        <ele>1153.5999755859</ele>
        <time>2017-05-28T07:04:41.000Z</time>
      </trkpt>
      <trkpt lat="45.82194" lon="6.26191">
        <ele>1154</ele>
        <time>2017-05-28T07:04:43.000Z</time>
      </trkpt>
      <trkpt lat="45.82209" lon="6.262">
        <ele>1155.1999511719</ele>
        <time>2017-05-28T07:04:51.000Z</time>
      </trkpt>
      <trkpt lat="45.8221" lon="6.26201">
        <ele>1155.4000244141</ele>
        <time>2017-05-28T07:04:52.000Z</time>
      </trkpt>
      <trkpt lat="45.82212" lon="6.26202">
        <ele>1155.8000488281</ele>
        <time>2017-05-28T07:04:53.000Z</time>
      </trkpt>
      <trkpt lat="45.82213" lon="6.26204">
        <ele>1156</ele>
        <time>2017-05-28T07:04:54.000Z</time>
      </trkpt>
      <trkpt lat="45.82214" lon="6.26205">
        <ele>1156</ele>
        <time>2017-05-28T07:04:55.000Z</time>
      </trkpt>
      <trkpt lat="45.82215" lon="6.26206">
        <ele>1156.1999511719</ele>
        <time>2017-05-28T07:04:56.000Z</time>
      </trkpt>
      <trkpt lat="45.82217" lon="6.26206">
        <ele>1156.4000244141</ele>
        <time>2017-05-28T07:04:57.000Z</time>
      </trkpt>
      <trkpt lat="45.82218" lon="6.26207">
        <ele>1156.5999755859</ele>
        <time>2017-05-28T07:04:58.000Z</time>
      </trkpt>
      <trkpt lat="45.82219" lon="6.26208">
        <ele>1157</ele>
        <time>2017-05-28T07:04:59.000Z</time>
      </trkpt>
      <trkpt lat="45.82221" lon="6.26209">
        <ele>1157.1999511719</ele>
        <time>2017-05-28T07:05:00.000Z</time>
      </trkpt>
      <trkpt lat="45.82228" lon="6.26218">
        <ele>1159</ele>
        <time>2017-05-28T07:05:08.000Z</time>
      </trkpt>
      <trkpt lat="45.8223" lon="6.26222">
        <ele>1159.8000488281</ele>
        <time>2017-05-28T07:05:11.000Z</time>
      </trkpt>
      <trkpt lat="45.82231" lon="6.26224">
        <ele>1160.4000244141</ele>
        <time>2017-05-28T07:05:13.000Z</time>
      </trkpt>
      <trkpt lat="45.82232" lon="6.26225">
        <ele>1160.5999755859</ele>
        <time>2017-05-28T07:05:14.000Z</time>
      </trkpt>
      <trkpt lat="45.82234" lon="6.26227">
        <ele>1160.8000488281</ele>
        <time>2017-05-28T07:05:16.000Z</time>
      </trkpt>
      <trkpt lat="45.82251" lon="6.26236">
        <ele>1163.4000244141</ele>
        <time>2017-05-28T07:05:31.000Z</time>
      </trkpt>
      <trkpt lat="45.82252" lon="6.26237">
        <ele>1163.4000244141</ele>
        <time>2017-05-28T07:05:32.000Z</time>
      </trkpt>
      <trkpt lat="45.82253" lon="6.26239">
        <ele>1163.4000244141</ele>
        <time>2017-05-28T07:05:33.000Z</time>
      </trkpt>
      <trkpt lat="45.82259" lon="6.26244">
        <ele>1164.4000244141</ele>
        <time>2017-05-28T07:05:38.000Z</time>
      </trkpt>
      <trkpt lat="45.82267" lon="6.26254">
        <ele>1166.5999755859</ele>
        <time>2017-05-28T07:05:48.000Z</time>
      </trkpt>
      <trkpt lat="45.82272" lon="6.26258">
        <ele>1168</ele>
        <time>2017-05-28T07:05:55.000Z</time>
      </trkpt>
      <trkpt lat="45.82274" lon="6.26259">
        <ele>1168</ele>
        <time>2017-05-28T07:05:56.000Z</time>
      </trkpt>
      <trkpt lat="45.82286" lon="6.26259">
        <ele>1170.4000244141</ele>
        <time>2017-05-28T07:06:07.000Z</time>
      </trkpt>
      <trkpt lat="45.82287" lon="6.26259">
        <ele>1170.5999755859</ele>
        <time>2017-05-28T07:06:08.000Z</time>
      </trkpt>
      <trkpt lat="45.82304" lon="6.26264">
        <ele>1173.8000488281</ele>
        <time>2017-05-28T07:06:23.000Z</time>
      </trkpt>
      <trkpt lat="45.82305" lon="6.26265">
        <ele>1174</ele>
        <time>2017-05-28T07:06:24.000Z</time>
      </trkpt>
      <trkpt lat="45.82306" lon="6.26266">
        <ele>1174.1999511719</ele>
        <time>2017-05-28T07:06:25.000Z</time>
      </trkpt>
      <trkpt lat="45.82307" lon="6.26267">
        <ele>1174.4000244141</ele>
        <time>2017-05-28T07:06:26.000Z</time>
      </trkpt>
      <trkpt lat="45.82311" lon="6.26273">
        <ele>1175.1999511719</ele>
        <time>2017-05-28T07:06:32.000Z</time>
      </trkpt>
      <trkpt lat="45.82311" lon="6.26276">
        <ele>1175.4000244141</ele>
        <time>2017-05-28T07:06:34.000Z</time>
      </trkpt>
      <trkpt lat="45.82311" lon="6.26278">
        <ele>1175.5999755859</ele>
        <time>2017-05-28T07:06:35.000Z</time>
      </trkpt>
      <trkpt lat="45.82311" lon="6.26279">
        <ele>1175.5999755859</ele>
        <time>2017-05-28T07:06:36.000Z</time>
      </trkpt>
      <trkpt lat="45.82313" lon="6.26281">
        <ele>1176.1999511719</ele>
        <time>2017-05-28T07:06:38.000Z</time>
      </trkpt>
      <trkpt lat="45.82314" lon="6.26282">
        <ele>1176.5999755859</ele>
        <time>2017-05-28T07:06:39.000Z</time>
      </trkpt>
      <trkpt lat="45.82317" lon="6.26281">
        <ele>1177</ele>
        <time>2017-05-28T07:06:41.000Z</time>
      </trkpt>
      <trkpt lat="45.82322" lon="6.2628">
        <ele>1178.5999755859</ele>
        <time>2017-05-28T07:06:47.000Z</time>
      </trkpt>
      <trkpt lat="45.82323" lon="6.26281">
        <ele>1178.8000488281</ele>
        <time>2017-05-28T07:06:48.000Z</time>
      </trkpt>
      <trkpt lat="45.82338" lon="6.26301">
        <ele>1181.8000488281</ele>
        <time>2017-05-28T07:07:02.000Z</time>
      </trkpt>
      <trkpt lat="45.82353" lon="6.26312">
        <ele>1184.5999755859</ele>
        <time>2017-05-28T07:07:16.000Z</time>
      </trkpt>
      <trkpt lat="45.82355" lon="6.26312">
        <ele>1185.1999511719</ele>
        <time>2017-05-28T07:07:18.000Z</time>
      </trkpt>
      <trkpt lat="45.82356" lon="6.26312">
        <ele>1185.4000244141</ele>
        <time>2017-05-28T07:07:19.000Z</time>
      </trkpt>
      <trkpt lat="45.82357" lon="6.26312">
        <ele>1185.5999755859</ele>
        <time>2017-05-28T07:07:20.000Z</time>
      </trkpt>
      <trkpt lat="45.82358" lon="6.26312">
        <ele>1185.8000488281</ele>
        <time>2017-05-28T07:07:21.000Z</time>
      </trkpt>
      <trkpt lat="45.8236" lon="6.26312">
        <ele>1186.1999511719</ele>
        <time>2017-05-28T07:07:22.000Z</time>
      </trkpt>
      <trkpt lat="45.82361" lon="6.26312">
        <ele>1187</ele>
        <time>2017-05-28T07:07:23.000Z</time>
      </trkpt>
      <trkpt lat="45.82367" lon="6.26314">
        <ele>1187.8000488281</ele>
        <time>2017-05-28T07:07:27.000Z</time>
      </trkpt>
      <trkpt lat="45.82368" lon="6.26316">
        <ele>1188</ele>
        <time>2017-05-28T07:07:28.000Z</time>
      </trkpt>
      <trkpt lat="45.82369" lon="6.26318">
        <ele>1188.4000244141</ele>
        <time>2017-05-28T07:07:29.000Z</time>
      </trkpt>
      <trkpt lat="45.82369" lon="6.2632">
        <ele>1188.4000244141</ele>
        <time>2017-05-28T07:07:30.000Z</time>
      </trkpt>
      <trkpt lat="45.8237" lon="6.26322">
        <ele>1188.8000488281</ele>
        <time>2017-05-28T07:07:31.000Z</time>
      </trkpt>
      <trkpt lat="45.82373" lon="6.26327">
        <ele>1189.4000244141</ele>
        <time>2017-05-28T07:07:35.000Z</time>
      </trkpt>
      <trkpt lat="45.82374" lon="6.26328">
        <ele>1189.5999755859</ele>
        <time>2017-05-28T07:07:36.000Z</time>
      </trkpt>
      <trkpt lat="45.82378" lon="6.26336">
        <ele>1190.5999755859</ele>
        <time>2017-05-28T07:07:41.000Z</time>
      </trkpt>
      <trkpt lat="45.8239" lon="6.26347">
        <ele>1193.5999755859</ele>
        <time>2017-05-28T07:08:00.000Z</time>
      </trkpt>
      <trkpt lat="45.82394" lon="6.26345">
        <ele>1194.4000244141</ele>
        <time>2017-05-28T07:08:04.000Z</time>
      </trkpt>
      <trkpt lat="45.82395" lon="6.26344">
        <ele>1194.5999755859</ele>
        <time>2017-05-28T07:08:05.000Z</time>
      </trkpt>
      <trkpt lat="45.82408" lon="6.26353">
        <ele>1198</ele>
        <time>2017-05-28T07:08:18.000Z</time>
      </trkpt>
      <trkpt lat="45.82418" lon="6.26363">
        <ele>1201.1999511719</ele>
        <time>2017-05-28T07:08:30.000Z</time>
      </trkpt>
      <trkpt lat="45.82428" lon="6.2637">
        <ele>1204.5999755859</ele>
        <time>2017-05-28T07:08:44.000Z</time>
      </trkpt>
      <trkpt lat="45.82441" lon="6.26381">
        <ele>1207.8000488281</ele>
        <time>2017-05-28T07:08:59.000Z</time>
      </trkpt>
      <trkpt lat="45.82446" lon="6.26396">
        <ele>1210.8000488281</ele>
        <time>2017-05-28T07:09:10.000Z</time>
      </trkpt>
      <trkpt lat="45.82452" lon="6.2642">
        <ele>1213.5999755859</ele>
        <time>2017-05-28T07:09:24.000Z</time>
      </trkpt>
      <trkpt lat="45.82454" lon="6.26429">
        <ele>1214.1999511719</ele>
        <time>2017-05-28T07:09:29.000Z</time>
      </trkpt>
      <trkpt lat="45.82454" lon="6.26431">
        <ele>1214.5999755859</ele>
        <time>2017-05-28T07:09:30.000Z</time>
      </trkpt>
      <trkpt lat="45.82454" lon="6.26433">
        <ele>1214.8000488281</ele>
        <time>2017-05-28T07:09:31.000Z</time>
      </trkpt>
      <trkpt lat="45.82455" lon="6.26435">
        <ele>1214.8000488281</ele>
        <time>2017-05-28T07:09:32.000Z</time>
      </trkpt>
      <trkpt lat="45.82455" lon="6.26438">
        <ele>1214.8000488281</ele>
        <time>2017-05-28T07:09:33.000Z</time>
      </trkpt>
      <trkpt lat="45.82455" lon="6.2644">
        <ele>1214.5999755859</ele>
        <time>2017-05-28T07:09:34.000Z</time>
      </trkpt>
      <trkpt lat="45.82452" lon="6.26459">
        <ele>1216.8000488281</ele>
        <time>2017-05-28T07:09:43.000Z</time>
      </trkpt>
      <trkpt lat="45.82458" lon="6.26487">
        <ele>1220</ele>
        <time>2017-05-28T07:09:59.000Z</time>
      </trkpt>
      <trkpt lat="45.82459" lon="6.26488">
        <ele>1220.1999511719</ele>
        <time>2017-05-28T07:10:00.000Z</time>
      </trkpt>
      <trkpt lat="45.82465" lon="6.26504">
        <ele>1223.1999511719</ele>
        <time>2017-05-28T07:10:10.000Z</time>
      </trkpt>
      <trkpt lat="45.82468" lon="6.26507">
        <ele>1223.4000244141</ele>
        <time>2017-05-28T07:10:13.000Z</time>
      </trkpt>
      <trkpt lat="45.82469" lon="6.26507">
        <ele>1223.4000244141</ele>
        <time>2017-05-28T07:10:14.000Z</time>
      </trkpt>
      <trkpt lat="45.82471" lon="6.26507">
        <ele>1223.5999755859</ele>
        <time>2017-05-28T07:10:15.000Z</time>
      </trkpt>
      <trkpt lat="45.82475" lon="6.26504">
        <ele>1224.8000488281</ele>
        <time>2017-05-28T07:10:20.000Z</time>
      </trkpt>
      <trkpt lat="45.82476" lon="6.26503">
        <ele>1224.8000488281</ele>
        <time>2017-05-28T07:10:21.000Z</time>
      </trkpt>
      <trkpt lat="45.82477" lon="6.26502">
        <ele>1225</ele>
        <time>2017-05-28T07:10:22.000Z</time>
      </trkpt>
      <trkpt lat="45.82484" lon="6.26496">
        <ele>1226.8000488281</ele>
        <time>2017-05-28T07:10:29.000Z</time>
      </trkpt>
      <trkpt lat="45.82485" lon="6.26496">
        <ele>1227</ele>
        <time>2017-05-28T07:10:30.000Z</time>
      </trkpt>
      <trkpt lat="45.82493" lon="6.26509">
        <ele>1230.1999511719</ele>
        <time>2017-05-28T07:10:45.000Z</time>
      </trkpt>
      <trkpt lat="45.82501" lon="6.26525">
        <ele>1233.4000244141</ele>
        <time>2017-05-28T07:10:57.000Z</time>
      </trkpt>
      <trkpt lat="45.8251" lon="6.26537">
        <ele>1236.5999755859</ele>
        <time>2017-05-28T07:11:09.000Z</time>
      </trkpt>
      <trkpt lat="45.82518" lon="6.26551">
        <ele>1239.8000488281</ele>
        <time>2017-05-28T07:11:23.000Z</time>
      </trkpt>
      <trkpt lat="45.82527" lon="6.26565">
        <ele>1243</ele>
        <time>2017-05-28T07:11:38.000Z</time>
      </trkpt>
      <trkpt lat="45.82535" lon="6.26573">
        <ele>1246.1999511719</ele>
        <time>2017-05-28T07:11:49.000Z</time>
      </trkpt>
      <trkpt lat="45.82544" lon="6.2659">
        <ele>1249.4000244141</ele>
        <time>2017-05-28T07:12:04.000Z</time>
      </trkpt>
      <trkpt lat="45.82553" lon="6.26606">
        <ele>1252.4000244141</ele>
        <time>2017-05-28T07:12:17.000Z</time>
      </trkpt>
      <trkpt lat="45.82563" lon="6.26613">
        <ele>1255.4000244141</ele>
        <time>2017-05-28T07:12:27.000Z</time>
      </trkpt>
      <trkpt lat="45.82573" lon="6.2662">
        <ele>1258.5999755859</ele>
        <time>2017-05-28T07:12:40.000Z</time>
      </trkpt>
      <trkpt lat="45.82579" lon="6.26626">
        <ele>1261.5999755859</ele>
        <time>2017-05-28T07:12:50.000Z</time>
      </trkpt>
      <trkpt lat="45.82589" lon="6.26637">
        <ele>1265</ele>
        <time>2017-05-28T07:13:02.000Z</time>
      </trkpt>
      <trkpt lat="45.82597" lon="6.26648">
        <ele>1268.1999511719</ele>
        <time>2017-05-28T07:13:14.000Z</time>
      </trkpt>
      <trkpt lat="45.82607" lon="6.26666">
        <ele>1271.1999511719</ele>
        <time>2017-05-28T07:13:29.000Z</time>
      </trkpt>
      <trkpt lat="45.82615" lon="6.26687">
        <ele>1274.4000244141</ele>
        <time>2017-05-28T07:13:44.000Z</time>
      </trkpt>
      <trkpt lat="45.82616" lon="6.26688">
        <ele>1274.5999755859</ele>
        <time>2017-05-28T07:13:46.000Z</time>
      </trkpt>
      <trkpt lat="45.82617" lon="6.2669">
        <ele>1274.8000488281</ele>
        <time>2017-05-28T07:13:48.000Z</time>
      </trkpt>
      <trkpt lat="45.82617" lon="6.26691">
        <ele>1275</ele>
        <time>2017-05-28T07:13:49.000Z</time>
      </trkpt>
      <trkpt lat="45.82621" lon="6.26696">
        <ele>1276</ele>
        <time>2017-05-28T07:13:54.000Z</time>
      </trkpt>
      <trkpt lat="45.82621" lon="6.26698">
        <ele>1276</ele>
        <time>2017-05-28T07:13:55.000Z</time>
      </trkpt>
      <trkpt lat="45.82621" lon="6.26699">
        <ele>1276</ele>
        <time>2017-05-28T07:13:56.000Z</time>
      </trkpt>
      <trkpt lat="45.82621" lon="6.26701">
        <ele>1276.1999511719</ele>
        <time>2017-05-28T07:13:57.000Z</time>
      </trkpt>
      <trkpt lat="45.82621" lon="6.26702">
        <ele>1276.4000244141</ele>
        <time>2017-05-28T07:13:58.000Z</time>
      </trkpt>
      <trkpt lat="45.82622" lon="6.26704">
        <ele>1276.8000488281</ele>
        <time>2017-05-28T07:13:59.000Z</time>
      </trkpt>
      <trkpt lat="45.82622" lon="6.26706">
        <ele>1277</ele>
        <time>2017-05-28T07:14:00.000Z</time>
      </trkpt>
      <trkpt lat="45.82622" lon="6.26707">
        <ele>1277.1999511719</ele>
        <time>2017-05-28T07:14:01.000Z</time>
      </trkpt>
      <trkpt lat="45.82623" lon="6.26709">
        <ele>1277.4000244141</ele>
        <time>2017-05-28T07:14:02.000Z</time>
      </trkpt>
      <trkpt lat="45.82626" lon="6.2672">
        <ele>1279.4000244141</ele>
        <time>2017-05-28T07:14:10.000Z</time>
      </trkpt>
      <trkpt lat="45.82626" lon="6.26725">
        <ele>1280.5999755859</ele>
        <time>2017-05-28T07:14:14.000Z</time>
      </trkpt>
      <trkpt lat="45.82627" lon="6.26726">
        <ele>1280.8000488281</ele>
        <time>2017-05-28T07:14:15.000Z</time>
      </trkpt>
      <trkpt lat="45.82633" lon="6.26744">
        <ele>1283.8000488281</ele>
        <time>2017-05-28T07:14:28.000Z</time>
      </trkpt>
      <trkpt lat="45.82639" lon="6.26758">
        <ele>1286.8000488281</ele>
        <time>2017-05-28T07:14:40.000Z</time>
      </trkpt>
      <trkpt lat="45.82647" lon="6.26781">
        <ele>1289.8000488281</ele>
        <time>2017-05-28T07:14:55.000Z</time>
      </trkpt>
      <trkpt lat="45.82647" lon="6.26783">
        <ele>1290</ele>
        <time>2017-05-28T07:14:56.000Z</time>
      </trkpt>
      <trkpt lat="45.82649" lon="6.26787">
        <ele>1290.4000244141</ele>
        <time>2017-05-28T07:14:59.000Z</time>
      </trkpt>
      <trkpt lat="45.82649" lon="6.26789">
        <ele>1290.4000244141</ele>
        <time>2017-05-28T07:15:00.000Z</time>
      </trkpt>
      <trkpt lat="45.82652" lon="6.2679">
        <ele>1291.1999511719</ele>
        <time>2017-05-28T07:15:05.000Z</time>
      </trkpt>
      <trkpt lat="45.82653" lon="6.2679">
        <ele>1291.4000244141</ele>
        <time>2017-05-28T07:15:06.000Z</time>
      </trkpt>
      <trkpt lat="45.8266" lon="6.26789">
        <ele>1293.8000488281</ele>
        <time>2017-05-28T07:15:15.000Z</time>
      </trkpt>
      <trkpt lat="45.82666" lon="6.26789">
        <ele>1295.1999511719</ele>
        <time>2017-05-28T07:15:22.000Z</time>
      </trkpt>
      <trkpt lat="45.82671" lon="6.2679">
        <ele>1296.8000488281</ele>
        <time>2017-05-28T07:15:28.000Z</time>
      </trkpt>
      <trkpt lat="45.82678" lon="6.26798">
        <ele>1299.8000488281</ele>
        <time>2017-05-28T07:15:39.000Z</time>
      </trkpt>
      <trkpt lat="45.82679" lon="6.26799">
        <ele>1300.1999511719</ele>
        <time>2017-05-28T07:15:40.000Z</time>
      </trkpt>
      <trkpt lat="45.8268" lon="6.268">
        <ele>1300.4000244141</ele>
        <time>2017-05-28T07:15:41.000Z</time>
      </trkpt>
      <trkpt lat="45.82684" lon="6.26816">
        <ele>1303.8000488281</ele>
        <time>2017-05-28T07:15:56.000Z</time>
      </trkpt>
      <trkpt lat="45.82688" lon="6.26821">
        <ele>1305.4000244141</ele>
        <time>2017-05-28T07:16:02.000Z</time>
      </trkpt>
      <trkpt lat="45.8269" lon="6.26821">
        <ele>1305.8000488281</ele>
        <time>2017-05-28T07:16:04.000Z</time>
      </trkpt>
      <trkpt lat="45.82691" lon="6.26821">
        <ele>1306</ele>
        <time>2017-05-28T07:16:05.000Z</time>
      </trkpt>
      <trkpt lat="45.82692" lon="6.2682">
        <ele>1306</ele>
        <time>2017-05-28T07:16:06.000Z</time>
      </trkpt>
      <trkpt lat="45.82693" lon="6.2682">
        <ele>1306.4000244141</ele>
        <time>2017-05-28T07:16:07.000Z</time>
      </trkpt>
      <trkpt lat="45.82695" lon="6.26817">
        <ele>1307.5999755859</ele>
        <time>2017-05-28T07:16:11.000Z</time>
      </trkpt>
      <trkpt lat="45.82696" lon="6.26817">
        <ele>1307.8000488281</ele>
        <time>2017-05-28T07:16:12.000Z</time>
      </trkpt>
      <trkpt lat="45.82697" lon="6.26817">
        <ele>1308</ele>
        <time>2017-05-28T07:16:13.000Z</time>
      </trkpt>
      <trkpt lat="45.82698" lon="6.26819">
        <ele>1308.1999511719</ele>
        <time>2017-05-28T07:16:14.000Z</time>
      </trkpt>
      <trkpt lat="45.82699" lon="6.26819">
        <ele>1308.5999755859</ele>
        <time>2017-05-28T07:16:15.000Z</time>
      </trkpt>
      <trkpt lat="45.82707" lon="6.26824">
        <ele>1311.5999755859</ele>
        <time>2017-05-28T07:16:30.000Z</time>
      </trkpt>
      <trkpt lat="45.82714" lon="6.26828">
        <ele>1314.5999755859</ele>
        <time>2017-05-28T07:16:42.000Z</time>
      </trkpt>
      <trkpt lat="45.82715" lon="6.2683">
        <ele>1314.8000488281</ele>
        <time>2017-05-28T07:16:43.000Z</time>
      </trkpt>
      <trkpt lat="45.82717" lon="6.26838">
        <ele>1316.4000244141</ele>
        <time>2017-05-28T07:16:50.000Z</time>
      </trkpt>
      <trkpt lat="45.82721" lon="6.26844">
        <ele>1318.5999755859</ele>
        <time>2017-05-28T07:17:00.000Z</time>
      </trkpt>
      <trkpt lat="45.82731" lon="6.26844">
        <ele>1321.8000488281</ele>
        <time>2017-05-28T07:17:14.000Z</time>
      </trkpt>
      <trkpt lat="45.82732" lon="6.2685">
        <ele>1323</ele>
        <time>2017-05-28T07:17:18.000Z</time>
      </trkpt>
      <trkpt lat="45.82735" lon="6.26866">
        <ele>1326</ele>
        <time>2017-05-28T07:17:33.000Z</time>
      </trkpt>
      <trkpt lat="45.82737" lon="6.26882">
        <ele>1329</ele>
        <time>2017-05-28T07:17:46.000Z</time>
      </trkpt>
      <trkpt lat="45.82742" lon="6.2689">
        <ele>1331.4000244141</ele>
        <time>2017-05-28T07:17:56.000Z</time>
      </trkpt>
      <trkpt lat="45.82746" lon="6.26888">
        <ele>1333</ele>
        <time>2017-05-28T07:18:04.000Z</time>
      </trkpt>
      <trkpt lat="45.82747" lon="6.26887">
        <ele>1333</ele>
        <time>2017-05-28T07:18:05.000Z</time>
      </trkpt>
      <trkpt lat="45.82763" lon="6.26884">
        <ele>1336.1999511719</ele>
        <time>2017-05-28T07:18:24.000Z</time>
      </trkpt>
      <trkpt lat="45.82765" lon="6.26883">
        <ele>1337</ele>
        <time>2017-05-28T07:18:26.000Z</time>
      </trkpt>
      <trkpt lat="45.82766" lon="6.26882">
        <ele>1337.1999511719</ele>
        <time>2017-05-28T07:18:27.000Z</time>
      </trkpt>
      <trkpt lat="45.82767" lon="6.26882">
        <ele>1337.4000244141</ele>
        <time>2017-05-28T07:18:28.000Z</time>
      </trkpt>
      <trkpt lat="45.82775" lon="6.26878">
        <ele>1339.4000244141</ele>
        <time>2017-05-28T07:18:35.000Z</time>
      </trkpt>
      <trkpt lat="45.82784" lon="6.26877">
        <ele>1342.1999511719</ele>
        <time>2017-05-28T07:18:47.000Z</time>
      </trkpt>
      <trkpt lat="45.82795" lon="6.2686">
        <ele>1345.1999511719</ele>
        <time>2017-05-28T07:19:00.000Z</time>
      </trkpt>
      <trkpt lat="45.82796" lon="6.2686">
        <ele>1345.4000244141</ele>
        <time>2017-05-28T07:19:01.000Z</time>
      </trkpt>
      <trkpt lat="45.82797" lon="6.26858">
        <ele>1345.5999755859</ele>
        <time>2017-05-28T07:19:02.000Z</time>
      </trkpt>
      <trkpt lat="45.82798" lon="6.26857">
        <ele>1345.5999755859</ele>
        <time>2017-05-28T07:19:03.000Z</time>
      </trkpt>
      <trkpt lat="45.82798" lon="6.26856">
        <ele>1346</ele>
        <time>2017-05-28T07:19:04.000Z</time>
      </trkpt>
      <trkpt lat="45.8281" lon="6.26834">
        <ele>1348</ele>
        <time>2017-05-28T07:19:19.000Z</time>
      </trkpt>
      <trkpt lat="45.82823" lon="6.26813">
        <ele>1349.5999755859</ele>
        <time>2017-05-28T07:19:33.000Z</time>
      </trkpt>
      <trkpt lat="45.82831" lon="6.26793">
        <ele>1352.8000488281</ele>
        <time>2017-05-28T07:19:45.000Z</time>
      </trkpt>
      <trkpt lat="45.82835" lon="6.26783">
        <ele>1354.5999755859</ele>
        <time>2017-05-28T07:19:52.000Z</time>
      </trkpt>
      <trkpt lat="45.82836" lon="6.26781">
        <ele>1354.8000488281</ele>
        <time>2017-05-28T07:19:53.000Z</time>
      </trkpt>
      <trkpt lat="45.82837" lon="6.26779">
        <ele>1355</ele>
        <time>2017-05-28T07:19:54.000Z</time>
      </trkpt>
      <trkpt lat="45.82851" lon="6.26756">
        <ele>1357.8000488281</ele>
        <time>2017-05-28T07:20:09.000Z</time>
      </trkpt>
      <trkpt lat="45.82865" lon="6.26736">
        <ele>1360.4000244141</ele>
        <time>2017-05-28T07:20:23.000Z</time>
      </trkpt>
      <trkpt lat="45.82869" lon="6.26731">
        <ele>1361.4000244141</ele>
        <time>2017-05-28T07:20:28.000Z</time>
      </trkpt>
      <trkpt lat="45.8287" lon="6.2673">
        <ele>1361.5999755859</ele>
        <time>2017-05-28T07:20:29.000Z</time>
      </trkpt>
      <trkpt lat="45.82871" lon="6.26729">
        <ele>1361.8000488281</ele>
        <time>2017-05-28T07:20:30.000Z</time>
      </trkpt>
      <trkpt lat="45.82871" lon="6.26727">
        <ele>1362</ele>
        <time>2017-05-28T07:20:31.000Z</time>
      </trkpt>
      <trkpt lat="45.82872" lon="6.26724">
        <ele>1362.1999511719</ele>
        <time>2017-05-28T07:20:32.000Z</time>
      </trkpt>
      <trkpt lat="45.82872" lon="6.26722">
        <ele>1362.4000244141</ele>
        <time>2017-05-28T07:20:33.000Z</time>
      </trkpt>
      <trkpt lat="45.82872" lon="6.26719">
        <ele>1362.5999755859</ele>
        <time>2017-05-28T07:20:34.000Z</time>
      </trkpt>
      <trkpt lat="45.82873" lon="6.26717">
        <ele>1362.5999755859</ele>
        <time>2017-05-28T07:20:35.000Z</time>
      </trkpt>
      <trkpt lat="45.82873" lon="6.26715">
        <ele>1362.8000488281</ele>
        <time>2017-05-28T07:20:36.000Z</time>
      </trkpt>
      <trkpt lat="45.82874" lon="6.26714">
        <ele>1362.8000488281</ele>
        <time>2017-05-28T07:20:37.000Z</time>
      </trkpt>
      <trkpt lat="45.82875" lon="6.26712">
        <ele>1363</ele>
        <time>2017-05-28T07:20:38.000Z</time>
      </trkpt>
      <trkpt lat="45.82875" lon="6.26711">
        <ele>1363.4000244141</ele>
        <time>2017-05-28T07:20:39.000Z</time>
      </trkpt>
      <trkpt lat="45.82885" lon="6.26684">
        <ele>1366</ele>
        <time>2017-05-28T07:20:54.000Z</time>
      </trkpt>
      <trkpt lat="45.82886" lon="6.2668">
        <ele>1366.1999511719</ele>
        <time>2017-05-28T07:20:56.000Z</time>
      </trkpt>
      <trkpt lat="45.82886" lon="6.26679">
        <ele>1366.1999511719</ele>
        <time>2017-05-28T07:20:57.000Z</time>
      </trkpt>
      <trkpt lat="45.82887" lon="6.26677">
        <ele>1366.1999511719</ele>
        <time>2017-05-28T07:20:58.000Z</time>
      </trkpt>
      <trkpt lat="45.82887" lon="6.26675">
        <ele>1366.4000244141</ele>
        <time>2017-05-28T07:20:59.000Z</time>
      </trkpt>
      <trkpt lat="45.82888" lon="6.26674">
        <ele>1366.5999755859</ele>
        <time>2017-05-28T07:21:00.000Z</time>
      </trkpt>
      <trkpt lat="45.82895" lon="6.26662">
        <ele>1368.4000244141</ele>
        <time>2017-05-28T07:21:09.000Z</time>
      </trkpt>
      <trkpt lat="45.82902" lon="6.26634">
        <ele>1371</ele>
        <time>2017-05-28T07:21:24.000Z</time>
      </trkpt>
      <trkpt lat="45.8291" lon="6.26607">
        <ele>1373.1999511719</ele>
        <time>2017-05-28T07:21:37.000Z</time>
      </trkpt>
      <trkpt lat="45.82918" lon="6.26581">
        <ele>1375.8000488281</ele>
        <time>2017-05-28T07:21:51.000Z</time>
      </trkpt>
      <trkpt lat="45.82924" lon="6.26552">
        <ele>1378.8000488281</ele>
        <time>2017-05-28T07:22:06.000Z</time>
      </trkpt>
      <trkpt lat="45.82927" lon="6.26529">
        <ele>1382</ele>
        <time>2017-05-28T07:22:20.000Z</time>
      </trkpt>
      <trkpt lat="45.82935" lon="6.26503">
        <ele>1385.4000244141</ele>
        <time>2017-05-28T07:22:36.000Z</time>
      </trkpt>
      <trkpt lat="45.82946" lon="6.26476">
        <ele>1387.8000488281</ele>
        <time>2017-05-28T07:22:49.000Z</time>
      </trkpt>
      <trkpt lat="45.82963" lon="6.26458">
        <ele>1389.1999511719</ele>
        <time>2017-05-28T07:23:02.000Z</time>
      </trkpt>
      <trkpt lat="45.82985" lon="6.2645">
        <ele>1388.8000488281</ele>
        <time>2017-05-28T07:23:11.000Z</time>
      </trkpt>
      <trkpt lat="45.83005" lon="6.26453">
        <ele>1386.8000488281</ele>
        <time>2017-05-28T07:23:18.000Z</time>
      </trkpt>
      <trkpt lat="45.83025" lon="6.26454">
        <ele>1385.8000488281</ele>
        <time>2017-05-28T07:23:25.000Z</time>
      </trkpt>
      <trkpt lat="45.83044" lon="6.26445">
        <ele>1385.8000488281</ele>
        <time>2017-05-28T07:23:33.000Z</time>
      </trkpt>
      <trkpt lat="45.8306" lon="6.26432">
        <ele>1386.1999511719</ele>
        <time>2017-05-28T07:23:41.000Z</time>
      </trkpt>
      <trkpt lat="45.83076" lon="6.26416">
        <ele>1386.8000488281</ele>
        <time>2017-05-28T07:23:49.000Z</time>
      </trkpt>
      <trkpt lat="45.83092" lon="6.26399">
        <ele>1386.8000488281</ele>
        <time>2017-05-28T07:23:58.000Z</time>
      </trkpt>
      <trkpt lat="45.83113" lon="6.26387">
        <ele>1386.8000488281</ele>
        <time>2017-05-28T07:24:07.000Z</time>
      </trkpt>
      <trkpt lat="45.83134" lon="6.26388">
        <ele>1385</ele>
        <time>2017-05-28T07:24:15.000Z</time>
      </trkpt>
      <trkpt lat="45.83152" lon="6.264">
        <ele>1383.4000244141</ele>
        <time>2017-05-28T07:24:22.000Z</time>
      </trkpt>
      <trkpt lat="45.83172" lon="6.26388">
        <ele>1383.5999755859</ele>
        <time>2017-05-28T07:24:30.000Z</time>
      </trkpt>
      <trkpt lat="45.83184" lon="6.26366">
        <ele>1384.4000244141</ele>
        <time>2017-05-28T07:24:38.000Z</time>
      </trkpt>
      <trkpt lat="45.83199" lon="6.26343">
        <ele>1384.4000244141</ele>
        <time>2017-05-28T07:24:47.000Z</time>
      </trkpt>
      <trkpt lat="45.8321" lon="6.26319">
        <ele>1383.4000244141</ele>
        <time>2017-05-28T07:24:55.000Z</time>
      </trkpt>
      <trkpt lat="45.83227" lon="6.26303">
        <ele>1382.5999755859</ele>
        <time>2017-05-28T07:25:02.000Z</time>
      </trkpt>
      <trkpt lat="45.8323" lon="6.26302">
        <ele>1382.1999511719</ele>
        <time>2017-05-28T07:25:03.000Z</time>
      </trkpt>
      <trkpt lat="45.83248" lon="6.26296">
        <ele>1378.5999755859</ele>
        <time>2017-05-28T07:25:11.000Z</time>
      </trkpt>
      <trkpt lat="45.83253" lon="6.26296">
        <ele>1377.1999511719</ele>
        <time>2017-05-28T07:25:16.000Z</time>
      </trkpt>
      <trkpt lat="45.83254" lon="6.26296">
        <ele>1376.4000244141</ele>
        <time>2017-05-28T07:25:17.000Z</time>
      </trkpt>
      <trkpt lat="45.83263" lon="6.26298">
        <ele>1373.4000244141</ele>
        <time>2017-05-28T07:25:22.000Z</time>
      </trkpt>
      <trkpt lat="45.83272" lon="6.26308">
        <ele>1370.1999511719</ele>
        <time>2017-05-28T07:25:27.000Z</time>
      </trkpt>
      <trkpt lat="45.83276" lon="6.26339">
        <ele>1367</ele>
        <time>2017-05-28T07:25:34.000Z</time>
      </trkpt>
      <trkpt lat="45.83278" lon="6.26372">
        <ele>1364.5999755859</ele>
        <time>2017-05-28T07:25:42.000Z</time>
      </trkpt>
      <trkpt lat="45.83284" lon="6.26395">
        <ele>1362</ele>
        <time>2017-05-28T07:25:48.000Z</time>
      </trkpt>
      <trkpt lat="45.8329" lon="6.26419">
        <ele>1358.8000488281</ele>
        <time>2017-05-28T07:25:55.000Z</time>
      </trkpt>
      <trkpt lat="45.83302" lon="6.26449">
        <ele>1355.5999755859</ele>
        <time>2017-05-28T07:26:04.000Z</time>
      </trkpt>
      <trkpt lat="45.83303" lon="6.26451">
        <ele>1355.4000244141</ele>
        <time>2017-05-28T07:26:05.000Z</time>
      </trkpt>
      <trkpt lat="45.83306" lon="6.26453">
        <ele>1355.1999511719</ele>
        <time>2017-05-28T07:26:06.000Z</time>
      </trkpt>
      <trkpt lat="45.83314" lon="6.26465">
        <ele>1352.1999511719</ele>
        <time>2017-05-28T07:26:11.000Z</time>
      </trkpt>
      <trkpt lat="45.83333" lon="6.2649">
        <ele>1351.8000488281</ele>
        <time>2017-05-28T07:26:20.000Z</time>
      </trkpt>
      <trkpt lat="45.83349" lon="6.26517">
        <ele>1349.5999755859</ele>
        <time>2017-05-28T07:26:30.000Z</time>
      </trkpt>
      <trkpt lat="45.83346" lon="6.2655">
        <ele>1348.1999511719</ele>
        <time>2017-05-28T07:26:41.000Z</time>
      </trkpt>
      <trkpt lat="45.83349" lon="6.2656">
        <ele>1348.1999511719</ele>
        <time>2017-05-28T07:26:45.000Z</time>
      </trkpt>
      <trkpt lat="45.83351" lon="6.2656">
        <ele>1348.1999511719</ele>
        <time>2017-05-28T07:26:46.000Z</time>
      </trkpt>
      <trkpt lat="45.83353" lon="6.26559">
        <ele>1347.8000488281</ele>
        <time>2017-05-28T07:26:47.000Z</time>
      </trkpt>
      <trkpt lat="45.83355" lon="6.26558">
        <ele>1347.8000488281</ele>
        <time>2017-05-28T07:26:48.000Z</time>
      </trkpt>
      <trkpt lat="45.83358" lon="6.26556">
        <ele>1347.4000244141</ele>
        <time>2017-05-28T07:26:49.000Z</time>
      </trkpt>
      <trkpt lat="45.83362" lon="6.26555">
        <ele>1347.1999511719</ele>
        <time>2017-05-28T07:26:50.000Z</time>
      </trkpt>
      <trkpt lat="45.83365" lon="6.26554">
        <ele>1346.8000488281</ele>
        <time>2017-05-28T07:26:51.000Z</time>
      </trkpt>
      <trkpt lat="45.83369" lon="6.26554">
        <ele>1346.1999511719</ele>
        <time>2017-05-28T07:26:52.000Z</time>
      </trkpt>
      <trkpt lat="45.83371" lon="6.26554">
        <ele>1345.8000488281</ele>
        <time>2017-05-28T07:26:53.000Z</time>
      </trkpt>
      <trkpt lat="45.83374" lon="6.26554">
        <ele>1345.4000244141</ele>
        <time>2017-05-28T07:26:54.000Z</time>
      </trkpt>
      <trkpt lat="45.83377" lon="6.26554">
        <ele>1345</ele>
        <time>2017-05-28T07:26:55.000Z</time>
      </trkpt>
      <trkpt lat="45.83393" lon="6.26555">
        <ele>1341.8000488281</ele>
        <time>2017-05-28T07:27:02.000Z</time>
      </trkpt>
      <trkpt lat="45.83395" lon="6.26554">
        <ele>1341</ele>
        <time>2017-05-28T07:27:03.000Z</time>
      </trkpt>
      <trkpt lat="45.83394" lon="6.26553">
        <ele>1340.4000244141</ele>
        <time>2017-05-28T07:27:04.000Z</time>
      </trkpt>
      <trkpt lat="45.83393" lon="6.2655">
        <ele>1339.8000488281</ele>
        <time>2017-05-28T07:27:05.000Z</time>
      </trkpt>
      <trkpt lat="45.83394" lon="6.26548">
        <ele>1339.1999511719</ele>
        <time>2017-05-28T07:27:06.000Z</time>
      </trkpt>
      <trkpt lat="45.83394" lon="6.26546">
        <ele>1338.8000488281</ele>
        <time>2017-05-28T07:27:07.000Z</time>
      </trkpt>
      <trkpt lat="45.83396" lon="6.26545">
        <ele>1338.1999511719</ele>
        <time>2017-05-28T07:27:08.000Z</time>
      </trkpt>
      <trkpt lat="45.83398" lon="6.26544">
        <ele>1337.8000488281</ele>
        <time>2017-05-28T07:27:09.000Z</time>
      </trkpt>
      <trkpt lat="45.83399" lon="6.26544">
        <ele>1337.1999511719</ele>
        <time>2017-05-28T07:27:10.000Z</time>
      </trkpt>
      <trkpt lat="45.834" lon="6.26544">
        <ele>1336.8000488281</ele>
        <time>2017-05-28T07:27:11.000Z</time>
      </trkpt>
      <trkpt lat="45.83401" lon="6.26543">
        <ele>1336.4000244141</ele>
        <time>2017-05-28T07:27:12.000Z</time>
      </trkpt>
      <trkpt lat="45.83403" lon="6.26544">
        <ele>1335.8000488281</ele>
        <time>2017-05-28T07:27:13.000Z</time>
      </trkpt>
      <trkpt lat="45.83404" lon="6.26544">
        <ele>1335.1999511719</ele>
        <time>2017-05-28T07:27:14.000Z</time>
      </trkpt>
      <trkpt lat="45.83406" lon="6.26545">
        <ele>1335</ele>
        <time>2017-05-28T07:27:15.000Z</time>
      </trkpt>
      <trkpt lat="45.83409" lon="6.2655">
        <ele>1333.8000488281</ele>
        <time>2017-05-28T07:27:18.000Z</time>
      </trkpt>
      <trkpt lat="45.83411" lon="6.26549">
        <ele>1333</ele>
        <time>2017-05-28T07:27:19.000Z</time>
      </trkpt>
      <trkpt lat="45.83412" lon="6.26548">
        <ele>1332.1999511719</ele>
        <time>2017-05-28T07:27:20.000Z</time>
      </trkpt>
      <trkpt lat="45.83413" lon="6.26546">
        <ele>1331.5999755859</ele>
        <time>2017-05-28T07:27:21.000Z</time>
      </trkpt>
      <trkpt lat="45.83414" lon="6.26545">
        <ele>1331</ele>
        <time>2017-05-28T07:27:22.000Z</time>
      </trkpt>
      <trkpt lat="45.83414" lon="6.26543">
        <ele>1330.4000244141</ele>
        <time>2017-05-28T07:27:23.000Z</time>
      </trkpt>
      <trkpt lat="45.83414" lon="6.26542">
        <ele>1330</ele>
        <time>2017-05-28T07:27:24.000Z</time>
      </trkpt>
      <trkpt lat="45.83414" lon="6.2654">
        <ele>1329.5999755859</ele>
        <time>2017-05-28T07:27:25.000Z</time>
      </trkpt>
      <trkpt lat="45.83414" lon="6.26538">
        <ele>1329</ele>
        <time>2017-05-28T07:27:26.000Z</time>
      </trkpt>
      <trkpt lat="45.83414" lon="6.26537">
        <ele>1328.5999755859</ele>
        <time>2017-05-28T07:27:27.000Z</time>
      </trkpt>
      <trkpt lat="45.83415" lon="6.26535">
        <ele>1328.1999511719</ele>
        <time>2017-05-28T07:27:28.000Z</time>
      </trkpt>
      <trkpt lat="45.83416" lon="6.26534">
        <ele>1327.5999755859</ele>
        <time>2017-05-28T07:27:29.000Z</time>
      </trkpt>
      <trkpt lat="45.83418" lon="6.26534">
        <ele>1326.8000488281</ele>
        <time>2017-05-28T07:27:30.000Z</time>
      </trkpt>
      <trkpt lat="45.83418" lon="6.26534">
        <ele>1326.4000244141</ele>
        <time>2017-05-28T07:27:31.000Z</time>
      </trkpt>
      <trkpt lat="45.8342" lon="6.26533">
        <ele>1326.1999511719</ele>
        <time>2017-05-28T07:27:32.000Z</time>
      </trkpt>
      <trkpt lat="45.83421" lon="6.26532">
        <ele>1325.5999755859</ele>
        <time>2017-05-28T07:27:33.000Z</time>
      </trkpt>
      <trkpt lat="45.83421" lon="6.26531">
        <ele>1325.4000244141</ele>
        <time>2017-05-28T07:27:34.000Z</time>
      </trkpt>
      <trkpt lat="45.83422" lon="6.2653">
        <ele>1324.8000488281</ele>
        <time>2017-05-28T07:27:35.000Z</time>
      </trkpt>
      <trkpt lat="45.83423" lon="6.26529">
        <ele>1324.1999511719</ele>
        <time>2017-05-28T07:27:36.000Z</time>
      </trkpt>
      <trkpt lat="45.83425" lon="6.26528">
        <ele>1323.8000488281</ele>
        <time>2017-05-28T07:27:37.000Z</time>
      </trkpt>
      <trkpt lat="45.83426" lon="6.26529">
        <ele>1323.5999755859</ele>
        <time>2017-05-28T07:27:38.000Z</time>
      </trkpt>
      <trkpt lat="45.83428" lon="6.2653">
        <ele>1322.4000244141</ele>
        <time>2017-05-28T07:27:39.000Z</time>
      </trkpt>
      <trkpt lat="45.8343" lon="6.26532">
        <ele>1321.8000488281</ele>
        <time>2017-05-28T07:27:40.000Z</time>
      </trkpt>
      <trkpt lat="45.83431" lon="6.26534">
        <ele>1321.5999755859</ele>
        <time>2017-05-28T07:27:41.000Z</time>
      </trkpt>
      <trkpt lat="45.83433" lon="6.26536">
        <ele>1321</ele>
        <time>2017-05-28T07:27:42.000Z</time>
      </trkpt>
      <trkpt lat="45.83435" lon="6.26537">
        <ele>1320.1999511719</ele>
        <time>2017-05-28T07:27:43.000Z</time>
      </trkpt>
      <trkpt lat="45.83437" lon="6.26539">
        <ele>1319.8000488281</ele>
        <time>2017-05-28T07:27:44.000Z</time>
      </trkpt>
      <trkpt lat="45.83449" lon="6.2655">
        <ele>1316.8000488281</ele>
        <time>2017-05-28T07:27:50.000Z</time>
      </trkpt>
      <trkpt lat="45.83455" lon="6.26562">
        <ele>1314.1999511719</ele>
        <time>2017-05-28T07:27:56.000Z</time>
      </trkpt>
      <trkpt lat="45.83455" lon="6.26565">
        <ele>1314</ele>
        <time>2017-05-28T07:27:57.000Z</time>
      </trkpt>
      <trkpt lat="45.83455" lon="6.26568">
        <ele>1313.4000244141</ele>
        <time>2017-05-28T07:27:58.000Z</time>
      </trkpt>
      <trkpt lat="45.83454" lon="6.2657">
        <ele>1312.5999755859</ele>
        <time>2017-05-28T07:27:59.000Z</time>
      </trkpt>
      <trkpt lat="45.83453" lon="6.26572">
        <ele>1312</ele>
        <time>2017-05-28T07:28:00.000Z</time>
      </trkpt>
      <trkpt lat="45.83453" lon="6.26573">
        <ele>1311.5999755859</ele>
        <time>2017-05-28T07:28:01.000Z</time>
      </trkpt>
      <trkpt lat="45.83453" lon="6.26575">
        <ele>1310.8000488281</ele>
        <time>2017-05-28T07:28:02.000Z</time>
      </trkpt>
      <trkpt lat="45.83453" lon="6.26577">
        <ele>1310.5999755859</ele>
        <time>2017-05-28T07:28:03.000Z</time>
      </trkpt>
      <trkpt lat="45.83453" lon="6.26579">
        <ele>1310.1999511719</ele>
        <time>2017-05-28T07:28:04.000Z</time>
      </trkpt>
      <trkpt lat="45.83452" lon="6.26585">
        <ele>1306.8000488281</ele>
        <time>2017-05-28T07:28:08.000Z</time>
      </trkpt>
      <trkpt lat="45.83456" lon="6.26585">
        <ele>1306.4000244141</ele>
        <time>2017-05-28T07:28:09.000Z</time>
      </trkpt>
      <trkpt lat="45.83457" lon="6.26583">
        <ele>1305.8000488281</ele>
        <time>2017-05-28T07:28:10.000Z</time>
      </trkpt>
      <trkpt lat="45.83459" lon="6.26582">
        <ele>1305.1999511719</ele>
        <time>2017-05-28T07:28:11.000Z</time>
      </trkpt>
      <trkpt lat="45.83462" lon="6.26579">
        <ele>1304.8000488281</ele>
        <time>2017-05-28T07:28:12.000Z</time>
      </trkpt>
      <trkpt lat="45.83465" lon="6.26576">
        <ele>1304.1999511719</ele>
        <time>2017-05-28T07:28:13.000Z</time>
      </trkpt>
      <trkpt lat="45.83468" lon="6.26575">
        <ele>1304</ele>
        <time>2017-05-28T07:28:14.000Z</time>
      </trkpt>
      <trkpt lat="45.8347" lon="6.26573">
        <ele>1303.4000244141</ele>
        <time>2017-05-28T07:28:15.000Z</time>
      </trkpt>
      <trkpt lat="45.83489" lon="6.26563">
        <ele>1300.1999511719</ele>
        <time>2017-05-28T07:28:24.000Z</time>
      </trkpt>
      <trkpt lat="45.83498" lon="6.26583">
        <ele>1296.5999755859</ele>
        <time>2017-05-28T07:28:33.000Z</time>
      </trkpt>
      <trkpt lat="45.835" lon="6.26581">
        <ele>1295.8000488281</ele>
        <time>2017-05-28T07:28:34.000Z</time>
      </trkpt>
      <trkpt lat="45.83502" lon="6.26579">
        <ele>1295.1999511719</ele>
        <time>2017-05-28T07:28:35.000Z</time>
      </trkpt>
      <trkpt lat="45.83505" lon="6.26574">
        <ele>1294.4000244141</ele>
        <time>2017-05-28T07:28:37.000Z</time>
      </trkpt>
      <trkpt lat="45.83516" lon="6.26551">
        <ele>1295.5999755859</ele>
        <time>2017-05-28T07:28:48.000Z</time>
      </trkpt>
      <trkpt lat="45.83516" lon="6.26549">
        <ele>1295</ele>
        <time>2017-05-28T07:28:49.000Z</time>
      </trkpt>
      <trkpt lat="45.83516" lon="6.26546">
        <ele>1294.4000244141</ele>
        <time>2017-05-28T07:28:50.000Z</time>
      </trkpt>
      <trkpt lat="45.83515" lon="6.26544">
        <ele>1294</ele>
        <time>2017-05-28T07:28:51.000Z</time>
      </trkpt>
      <trkpt lat="45.83515" lon="6.26541">
        <ele>1293.5999755859</ele>
        <time>2017-05-28T07:28:52.000Z</time>
      </trkpt>
      <trkpt lat="45.83515" lon="6.26539">
        <ele>1293.1999511719</ele>
        <time>2017-05-28T07:28:53.000Z</time>
      </trkpt>
      <trkpt lat="45.83515" lon="6.26537">
        <ele>1293</ele>
        <time>2017-05-28T07:28:54.000Z</time>
      </trkpt>
      <trkpt lat="45.83519" lon="6.26531">
        <ele>1290.4000244141</ele>
        <time>2017-05-28T07:28:58.000Z</time>
      </trkpt>
      <trkpt lat="45.8352" lon="6.26531">
        <ele>1290</ele>
        <time>2017-05-28T07:28:59.000Z</time>
      </trkpt>
      <trkpt lat="45.83531" lon="6.2654">
        <ele>1286.5999755859</ele>
        <time>2017-05-28T07:29:06.000Z</time>
      </trkpt>
      <trkpt lat="45.83532" lon="6.26548">
        <ele>1284.8000488281</ele>
        <time>2017-05-28T07:29:09.000Z</time>
      </trkpt>
      <trkpt lat="45.83531" lon="6.26551">
        <ele>1284.4000244141</ele>
        <time>2017-05-28T07:29:10.000Z</time>
      </trkpt>
      <trkpt lat="45.83531" lon="6.26567">
        <ele>1281.4000244141</ele>
        <time>2017-05-28T07:29:16.000Z</time>
      </trkpt>
      <trkpt lat="45.83531" lon="6.26576">
        <ele>1280.4000244141</ele>
        <time>2017-05-28T07:29:20.000Z</time>
      </trkpt>
      <trkpt lat="45.83532" lon="6.26579">
        <ele>1280.1999511719</ele>
        <time>2017-05-28T07:29:21.000Z</time>
      </trkpt>
      <trkpt lat="45.83532" lon="6.2658">
        <ele>1280.4000244141</ele>
        <time>2017-05-28T07:29:22.000Z</time>
      </trkpt>
      <trkpt lat="45.83531" lon="6.2658">
        <ele>1280.1999511719</ele>
        <time>2017-05-28T07:29:23.000Z</time>
      </trkpt>
      <trkpt lat="45.8353" lon="6.26578">
        <ele>1277.8000488281</ele>
        <time>2017-05-28T07:29:35.000Z</time>
      </trkpt>
      <trkpt lat="45.83531" lon="6.26577">
        <ele>1277.5999755859</ele>
        <time>2017-05-28T07:29:36.000Z</time>
      </trkpt>
      <trkpt lat="45.83532" lon="6.26577">
        <ele>1277.5999755859</ele>
        <time>2017-05-28T07:29:37.000Z</time>
      </trkpt>
      <trkpt lat="45.83534" lon="6.26579">
        <ele>1277.5999755859</ele>
        <time>2017-05-28T07:29:39.000Z</time>
      </trkpt>
      <trkpt lat="45.83536" lon="6.2658">
        <ele>1278</ele>
        <time>2017-05-28T07:29:40.000Z</time>
      </trkpt>
      <trkpt lat="45.83537" lon="6.26579">
        <ele>1278.4000244141</ele>
        <time>2017-05-28T07:29:41.000Z</time>
      </trkpt>
      <trkpt lat="45.83537" lon="6.26577">
        <ele>1278.8000488281</ele>
        <time>2017-05-28T07:29:42.000Z</time>
      </trkpt>
      <trkpt lat="45.83538" lon="6.26575">
        <ele>1278.8000488281</ele>
        <time>2017-05-28T07:29:43.000Z</time>
      </trkpt>
      <trkpt lat="45.83539" lon="6.26569">
        <ele>1279.5999755859</ele>
        <time>2017-05-28T07:29:46.000Z</time>
      </trkpt>
      <trkpt lat="45.8356" lon="6.26561">
        <ele>1281.8000488281</ele>
        <time>2017-05-28T07:30:00.000Z</time>
      </trkpt>
      <trkpt lat="45.8356" lon="6.26559">
        <ele>1282</ele>
        <time>2017-05-28T07:30:01.000Z</time>
      </trkpt>
      <trkpt lat="45.83561" lon="6.26557">
        <ele>1282.4000244141</ele>
        <time>2017-05-28T07:30:02.000Z</time>
      </trkpt>
      <trkpt lat="45.83562" lon="6.26556">
        <ele>1282.8000488281</ele>
        <time>2017-05-28T07:30:03.000Z</time>
      </trkpt>
      <trkpt lat="45.83563" lon="6.26555">
        <ele>1283</ele>
        <time>2017-05-28T07:30:04.000Z</time>
      </trkpt>
      <trkpt lat="45.83573" lon="6.26544">
        <ele>1285.1999511719</ele>
        <time>2017-05-28T07:30:15.000Z</time>
      </trkpt>
      <trkpt lat="45.83574" lon="6.26543">
        <ele>1285.4000244141</ele>
        <time>2017-05-28T07:30:16.000Z</time>
      </trkpt>
      <trkpt lat="45.83576" lon="6.26543">
        <ele>1285.8000488281</ele>
        <time>2017-05-28T07:30:17.000Z</time>
      </trkpt>
      <trkpt lat="45.83577" lon="6.26538">
        <ele>1287.1999511719</ele>
        <time>2017-05-28T07:30:21.000Z</time>
      </trkpt>
      <trkpt lat="45.83578" lon="6.26536">
        <ele>1287.4000244141</ele>
        <time>2017-05-28T07:30:22.000Z</time>
      </trkpt>
      <trkpt lat="45.83579" lon="6.26534">
        <ele>1287.5999755859</ele>
        <time>2017-05-28T07:30:24.000Z</time>
      </trkpt>
      <trkpt lat="45.83579" lon="6.26533">
        <ele>1287.8000488281</ele>
        <time>2017-05-28T07:30:25.000Z</time>
      </trkpt>
      <trkpt lat="45.83585" lon="6.26524">
        <ele>1289.1999511719</ele>
        <time>2017-05-28T07:30:31.000Z</time>
      </trkpt>
      <trkpt lat="45.83586" lon="6.26523">
        <ele>1289.4000244141</ele>
        <time>2017-05-28T07:30:32.000Z</time>
      </trkpt>
      <trkpt lat="45.83594" lon="6.26509">
        <ele>1291.1999511719</ele>
        <time>2017-05-28T07:30:40.000Z</time>
      </trkpt>
      <trkpt lat="45.83595" lon="6.26508">
        <ele>1291.4000244141</ele>
        <time>2017-05-28T07:30:41.000Z</time>
      </trkpt>
      <trkpt lat="45.83596" lon="6.26507">
        <ele>1291.8000488281</ele>
        <time>2017-05-28T07:30:42.000Z</time>
      </trkpt>
      <trkpt lat="45.83597" lon="6.26506">
        <ele>1291.8000488281</ele>
        <time>2017-05-28T07:30:43.000Z</time>
      </trkpt>
      <trkpt lat="45.83599" lon="6.26506">
        <ele>1292</ele>
        <time>2017-05-28T07:30:44.000Z</time>
      </trkpt>
      <trkpt lat="45.836" lon="6.26505">
        <ele>1292.4000244141</ele>
        <time>2017-05-28T07:30:45.000Z</time>
      </trkpt>
      <trkpt lat="45.83601" lon="6.26505">
        <ele>1292.5999755859</ele>
        <time>2017-05-28T07:30:46.000Z</time>
      </trkpt>
      <trkpt lat="45.83602" lon="6.26505">
        <ele>1292.8000488281</ele>
        <time>2017-05-28T07:30:47.000Z</time>
      </trkpt>
      <trkpt lat="45.83623" lon="6.26504">
        <ele>1295</ele>
        <time>2017-05-28T07:31:01.000Z</time>
      </trkpt>
      <trkpt lat="45.83639" lon="6.26518">
        <ele>1296</ele>
        <time>2017-05-28T07:31:15.000Z</time>
      </trkpt>
      <trkpt lat="45.83652" lon="6.26526">
        <ele>1297</ele>
        <time>2017-05-28T07:31:25.000Z</time>
      </trkpt>
      <trkpt lat="45.83653" lon="6.26527">
        <ele>1297.4000244141</ele>
        <time>2017-05-28T07:31:26.000Z</time>
      </trkpt>
      <trkpt lat="45.83655" lon="6.26527">
        <ele>1297.8000488281</ele>
        <time>2017-05-28T07:31:27.000Z</time>
      </trkpt>
      <trkpt lat="45.83656" lon="6.26528">
        <ele>1298</ele>
        <time>2017-05-28T07:31:28.000Z</time>
      </trkpt>
      <trkpt lat="45.83658" lon="6.26529">
        <ele>1298.1999511719</ele>
        <time>2017-05-28T07:31:29.000Z</time>
      </trkpt>
      <trkpt lat="45.83659" lon="6.26531">
        <ele>1298.4000244141</ele>
        <time>2017-05-28T07:31:30.000Z</time>
      </trkpt>
      <trkpt lat="45.8366" lon="6.26534">
        <ele>1298.4000244141</ele>
        <time>2017-05-28T07:31:31.000Z</time>
      </trkpt>
      <trkpt lat="45.83661" lon="6.26536">
        <ele>1298.1999511719</ele>
        <time>2017-05-28T07:31:32.000Z</time>
      </trkpt>
      <trkpt lat="45.83661" lon="6.26537">
        <ele>1298.1999511719</ele>
        <time>2017-05-28T07:31:33.000Z</time>
      </trkpt>
      <trkpt lat="45.8366" lon="6.26539">
        <ele>1298.1999511719</ele>
        <time>2017-05-28T07:31:34.000Z</time>
      </trkpt>
      <trkpt lat="45.8366" lon="6.2654">
        <ele>1298.4000244141</ele>
        <time>2017-05-28T07:31:35.000Z</time>
      </trkpt>
      <trkpt lat="45.83656" lon="6.26553">
        <ele>1301.4000244141</ele>
        <time>2017-05-28T07:31:48.000Z</time>
      </trkpt>
      <trkpt lat="45.83654" lon="6.26561">
        <ele>1302.5999755859</ele>
        <time>2017-05-28T07:31:54.000Z</time>
      </trkpt>
      <trkpt lat="45.83654" lon="6.26562">
        <ele>1302.8000488281</ele>
        <time>2017-05-28T07:31:55.000Z</time>
      </trkpt>
      <trkpt lat="45.83652" lon="6.26573">
        <ele>1305.4000244141</ele>
        <time>2017-05-28T07:32:03.000Z</time>
      </trkpt>
      <trkpt lat="45.83652" lon="6.26575">
        <ele>1305.5999755859</ele>
        <time>2017-05-28T07:32:04.000Z</time>
      </trkpt>
      <trkpt lat="45.83652" lon="6.26577">
        <ele>1305.5999755859</ele>
        <time>2017-05-28T07:32:05.000Z</time>
      </trkpt>
      <trkpt lat="45.83652" lon="6.26578">
        <ele>1305.8000488281</ele>
        <time>2017-05-28T07:32:06.000Z</time>
      </trkpt>
      <trkpt lat="45.83653" lon="6.26579">
        <ele>1305.8000488281</ele>
        <time>2017-05-28T07:32:07.000Z</time>
      </trkpt>
      <trkpt lat="45.83654" lon="6.26581">
        <ele>1306.4000244141</ele>
        <time>2017-05-28T07:32:08.000Z</time>
      </trkpt>
      <trkpt lat="45.83655" lon="6.26582">
        <ele>1306.5999755859</ele>
        <time>2017-05-28T07:32:09.000Z</time>
      </trkpt>
      <trkpt lat="45.83656" lon="6.26583">
        <ele>1307</ele>
        <time>2017-05-28T07:32:10.000Z</time>
      </trkpt>
      <trkpt lat="45.83657" lon="6.26583">
        <ele>1307.1999511719</ele>
        <time>2017-05-28T07:32:11.000Z</time>
      </trkpt>
      <trkpt lat="45.83659" lon="6.26583">
        <ele>1307.4000244141</ele>
        <time>2017-05-28T07:32:12.000Z</time>
      </trkpt>
      <trkpt lat="45.8366" lon="6.26583">
        <ele>1307.5999755859</ele>
        <time>2017-05-28T07:32:13.000Z</time>
      </trkpt>
      <trkpt lat="45.83661" lon="6.26583">
        <ele>1307.8000488281</ele>
        <time>2017-05-28T07:32:14.000Z</time>
      </trkpt>
      <trkpt lat="45.83663" lon="6.26583">
        <ele>1307.8000488281</ele>
        <time>2017-05-28T07:32:16.000Z</time>
      </trkpt>
      <trkpt lat="45.83664" lon="6.26582">
        <ele>1307.8000488281</ele>
        <time>2017-05-28T07:32:17.000Z</time>
      </trkpt>
      <trkpt lat="45.83676" lon="6.26584">
        <ele>1311</ele>
        <time>2017-05-28T07:32:30.000Z</time>
      </trkpt>
      <trkpt lat="45.83686" lon="6.26594">
        <ele>1314</ele>
        <time>2017-05-28T07:32:42.000Z</time>
      </trkpt>
      <trkpt lat="45.83699" lon="6.26608">
        <ele>1317.1999511719</ele>
        <time>2017-05-28T07:32:56.000Z</time>
      </trkpt>
      <trkpt lat="45.83716" lon="6.26621">
        <ele>1320.1999511719</ele>
        <time>2017-05-28T07:33:11.000Z</time>
      </trkpt>
      <trkpt lat="45.83732" lon="6.26638">
        <ele>1322.5999755859</ele>
        <time>2017-05-28T07:33:25.000Z</time>
      </trkpt>
      <trkpt lat="45.83733" lon="6.26639">
        <ele>1322.8000488281</ele>
        <time>2017-05-28T07:33:26.000Z</time>
      </trkpt>
      <trkpt lat="45.83733" lon="6.26641">
        <ele>1323</ele>
        <time>2017-05-28T07:33:27.000Z</time>
      </trkpt>
      <trkpt lat="45.83734" lon="6.26643">
        <ele>1323.1999511719</ele>
        <time>2017-05-28T07:33:28.000Z</time>
      </trkpt>
      <trkpt lat="45.83736" lon="6.26644">
        <ele>1323.1999511719</ele>
        <time>2017-05-28T07:33:29.000Z</time>
      </trkpt>
      <trkpt lat="45.83736" lon="6.26645">
        <ele>1323.4000244141</ele>
        <time>2017-05-28T07:33:30.000Z</time>
      </trkpt>
      <trkpt lat="45.83737" lon="6.26646">
        <ele>1323.5999755859</ele>
        <time>2017-05-28T07:33:31.000Z</time>
      </trkpt>
      <trkpt lat="45.83738" lon="6.26647">
        <ele>1323.8000488281</ele>
        <time>2017-05-28T07:33:32.000Z</time>
      </trkpt>
      <trkpt lat="45.83739" lon="6.26647">
        <ele>1324</ele>
        <time>2017-05-28T07:33:33.000Z</time>
      </trkpt>
      <trkpt lat="45.83741" lon="6.26647">
        <ele>1324.4000244141</ele>
        <time>2017-05-28T07:33:34.000Z</time>
      </trkpt>
      <trkpt lat="45.83741" lon="6.26647">
        <ele>1324.8000488281</ele>
        <time>2017-05-28T07:33:35.000Z</time>
      </trkpt>
      <trkpt lat="45.83748" lon="6.26651">
        <ele>1326</ele>
        <time>2017-05-28T07:33:40.000Z</time>
      </trkpt>
      <trkpt lat="45.83749" lon="6.26653">
        <ele>1326</ele>
        <time>2017-05-28T07:33:41.000Z</time>
      </trkpt>
      <trkpt lat="45.83751" lon="6.26654">
        <ele>1325.8000488281</ele>
        <time>2017-05-28T07:33:42.000Z</time>
      </trkpt>
      <trkpt lat="45.83753" lon="6.26655">
        <ele>1325.8000488281</ele>
        <time>2017-05-28T07:33:43.000Z</time>
      </trkpt>
      <trkpt lat="45.83755" lon="6.26656">
        <ele>1325.5999755859</ele>
        <time>2017-05-28T07:33:44.000Z</time>
      </trkpt>
      <trkpt lat="45.83757" lon="6.26657">
        <ele>1325.5999755859</ele>
        <time>2017-05-28T07:33:45.000Z</time>
      </trkpt>
      <trkpt lat="45.83759" lon="6.26657">
        <ele>1325.8000488281</ele>
        <time>2017-05-28T07:33:46.000Z</time>
      </trkpt>
      <trkpt lat="45.83761" lon="6.26658">
        <ele>1326</ele>
        <time>2017-05-28T07:33:47.000Z</time>
      </trkpt>
      <trkpt lat="45.83763" lon="6.26658">
        <ele>1326.1999511719</ele>
        <time>2017-05-28T07:33:48.000Z</time>
      </trkpt>
      <trkpt lat="45.83765" lon="6.26657">
        <ele>1326.4000244141</ele>
        <time>2017-05-28T07:33:49.000Z</time>
      </trkpt>
      <trkpt lat="45.83767" lon="6.26657">
        <ele>1326.4000244141</ele>
        <time>2017-05-28T07:33:50.000Z</time>
      </trkpt>
      <trkpt lat="45.83769" lon="6.26657">
        <ele>1326.8000488281</ele>
        <time>2017-05-28T07:33:51.000Z</time>
      </trkpt>
      <trkpt lat="45.83771" lon="6.26657">
        <ele>1327</ele>
        <time>2017-05-28T07:33:52.000Z</time>
      </trkpt>
      <trkpt lat="45.83788" lon="6.2667">
        <ele>1328.8000488281</ele>
        <time>2017-05-28T07:34:04.000Z</time>
      </trkpt>
      <trkpt lat="45.83796" lon="6.26678">
        <ele>1329.8000488281</ele>
        <time>2017-05-28T07:34:11.000Z</time>
      </trkpt>
      <trkpt lat="45.83798" lon="6.26679">
        <ele>1330</ele>
        <time>2017-05-28T07:34:12.000Z</time>
      </trkpt>
      <trkpt lat="45.83802" lon="6.26683">
        <ele>1330.8000488281</ele>
        <time>2017-05-28T07:34:16.000Z</time>
      </trkpt>
      <trkpt lat="45.83803" lon="6.26684">
        <ele>1331</ele>
        <time>2017-05-28T07:34:17.000Z</time>
      </trkpt>
      <trkpt lat="45.83804" lon="6.26686">
        <ele>1331.1999511719</ele>
        <time>2017-05-28T07:34:18.000Z</time>
      </trkpt>
      <trkpt lat="45.83805" lon="6.26687">
        <ele>1331.5999755859</ele>
        <time>2017-05-28T07:34:19.000Z</time>
      </trkpt>
      <trkpt lat="45.83806" lon="6.26688">
        <ele>1331.8000488281</ele>
        <time>2017-05-28T07:34:20.000Z</time>
      </trkpt>
      <trkpt lat="45.83807" lon="6.26688">
        <ele>1332.1999511719</ele>
        <time>2017-05-28T07:34:21.000Z</time>
      </trkpt>
      <trkpt lat="45.83808" lon="6.26689">
        <ele>1332.4000244141</ele>
        <time>2017-05-28T07:34:22.000Z</time>
      </trkpt>
      <trkpt lat="45.83809" lon="6.26689">
        <ele>1332.5999755859</ele>
        <time>2017-05-28T07:34:23.000Z</time>
      </trkpt>
      <trkpt lat="45.83811" lon="6.2669">
        <ele>1332.8000488281</ele>
        <time>2017-05-28T07:34:24.000Z</time>
      </trkpt>
      <trkpt lat="45.83812" lon="6.2669">
        <ele>1332.8000488281</ele>
        <time>2017-05-28T07:34:25.000Z</time>
      </trkpt>
      <trkpt lat="45.83828" lon="6.26691">
        <ele>1335</ele>
        <time>2017-05-28T07:34:39.000Z</time>
      </trkpt>
      <trkpt lat="45.83828" lon="6.26689">
        <ele>1335.1999511719</ele>
        <time>2017-05-28T07:34:40.000Z</time>
      </trkpt>
      <trkpt lat="45.83829" lon="6.26688">
        <ele>1335.5999755859</ele>
        <time>2017-05-28T07:34:41.000Z</time>
      </trkpt>
      <trkpt lat="45.83831" lon="6.26688">
        <ele>1335.8000488281</ele>
        <time>2017-05-28T07:34:42.000Z</time>
      </trkpt>
      <trkpt lat="45.83831" lon="6.26687">
        <ele>1336</ele>
        <time>2017-05-28T07:34:43.000Z</time>
      </trkpt>
      <trkpt lat="45.83843" lon="6.26688">
        <ele>1337.1999511719</ele>
        <time>2017-05-28T07:34:52.000Z</time>
      </trkpt>
      <trkpt lat="45.83844" lon="6.2669">
        <ele>1337.5999755859</ele>
        <time>2017-05-28T07:34:53.000Z</time>
      </trkpt>
      <trkpt lat="45.83864" lon="6.26702">
        <ele>1339.5999755859</ele>
        <time>2017-05-28T07:35:08.000Z</time>
      </trkpt>
      <trkpt lat="45.83881" lon="6.26714">
        <ele>1342.8000488281</ele>
        <time>2017-05-28T07:35:22.000Z</time>
      </trkpt>
      <trkpt lat="45.83882" lon="6.26715">
        <ele>1343.1999511719</ele>
        <time>2017-05-28T07:35:23.000Z</time>
      </trkpt>
      <trkpt lat="45.83884" lon="6.26716">
        <ele>1343.4000244141</ele>
        <time>2017-05-28T07:35:24.000Z</time>
      </trkpt>
      <trkpt lat="45.83886" lon="6.26717">
        <ele>1343.5999755859</ele>
        <time>2017-05-28T07:35:25.000Z</time>
      </trkpt>
      <trkpt lat="45.83887" lon="6.26717">
        <ele>1343.5999755859</ele>
        <time>2017-05-28T07:35:26.000Z</time>
      </trkpt>
      <trkpt lat="45.83888" lon="6.26719">
        <ele>1344</ele>
        <time>2017-05-28T07:35:27.000Z</time>
      </trkpt>
      <trkpt lat="45.83889" lon="6.2672">
        <ele>1344.1999511719</ele>
        <time>2017-05-28T07:35:28.000Z</time>
      </trkpt>
      <trkpt lat="45.83891" lon="6.2672">
        <ele>1344.4000244141</ele>
        <time>2017-05-28T07:35:29.000Z</time>
      </trkpt>
      <trkpt lat="45.83893" lon="6.26721">
        <ele>1344.5999755859</ele>
        <time>2017-05-28T07:35:30.000Z</time>
      </trkpt>
      <trkpt lat="45.83894" lon="6.26722">
        <ele>1344.5999755859</ele>
        <time>2017-05-28T07:35:31.000Z</time>
      </trkpt>
      <trkpt lat="45.83894" lon="6.26723">
        <ele>1344.8000488281</ele>
        <time>2017-05-28T07:35:32.000Z</time>
      </trkpt>
      <trkpt lat="45.83896" lon="6.26726">
        <ele>1345.4000244141</ele>
        <time>2017-05-28T07:35:34.000Z</time>
      </trkpt>
      <trkpt lat="45.83897" lon="6.26727">
        <ele>1345.5999755859</ele>
        <time>2017-05-28T07:35:35.000Z</time>
      </trkpt>
      <trkpt lat="45.83898" lon="6.26728">
        <ele>1345.5999755859</ele>
        <time>2017-05-28T07:35:36.000Z</time>
      </trkpt>
      <trkpt lat="45.839" lon="6.2673">
        <ele>1345.8000488281</ele>
        <time>2017-05-28T07:35:37.000Z</time>
      </trkpt>
      <trkpt lat="45.83901" lon="6.26731">
        <ele>1346</ele>
        <time>2017-05-28T07:35:38.000Z</time>
      </trkpt>
      <trkpt lat="45.83922" lon="6.2674">
        <ele>1349</ele>
        <time>2017-05-28T07:35:54.000Z</time>
      </trkpt>
      <trkpt lat="45.83942" lon="6.26736">
        <ele>1351.1999511719</ele>
        <time>2017-05-28T07:36:09.000Z</time>
      </trkpt>
      <trkpt lat="45.83955" lon="6.26747">
        <ele>1354.4000244141</ele>
        <time>2017-05-28T07:36:21.000Z</time>
      </trkpt>
      <trkpt lat="45.83955" lon="6.26748">
        <ele>1354.4000244141</ele>
        <time>2017-05-28T07:36:22.000Z</time>
      </trkpt>
      <trkpt lat="45.83956" lon="6.26749">
        <ele>1354.8000488281</ele>
        <time>2017-05-28T07:36:23.000Z</time>
      </trkpt>
      <trkpt lat="45.83958" lon="6.26752">
        <ele>1355.8000488281</ele>
        <time>2017-05-28T07:36:27.000Z</time>
      </trkpt>
      <trkpt lat="45.83959" lon="6.26753">
        <ele>1356.1999511719</ele>
        <time>2017-05-28T07:36:28.000Z</time>
      </trkpt>
      <trkpt lat="45.83959" lon="6.26753">
        <ele>1356.4000244141</ele>
        <time>2017-05-28T07:36:29.000Z</time>
      </trkpt>
      <trkpt lat="45.8396" lon="6.26754">
        <ele>1356.8000488281</ele>
        <time>2017-05-28T07:36:30.000Z</time>
      </trkpt>
      <trkpt lat="45.83961" lon="6.26754">
        <ele>1357.4000244141</ele>
        <time>2017-05-28T07:36:31.000Z</time>
      </trkpt>
      <trkpt lat="45.8397" lon="6.26759">
        <ele>1359.4000244141</ele>
        <time>2017-05-28T07:36:40.000Z</time>
      </trkpt>
      <trkpt lat="45.83971" lon="6.26759">
        <ele>1359.4000244141</ele>
        <time>2017-05-28T07:36:41.000Z</time>
      </trkpt>
      <trkpt lat="45.83972" lon="6.26759">
        <ele>1359.5999755859</ele>
        <time>2017-05-28T07:36:42.000Z</time>
      </trkpt>
      <trkpt lat="45.83973" lon="6.2676">
        <ele>1359.8000488281</ele>
        <time>2017-05-28T07:36:43.000Z</time>
      </trkpt>
      <trkpt lat="45.83974" lon="6.26761">
        <ele>1359.8000488281</ele>
        <time>2017-05-28T07:36:44.000Z</time>
      </trkpt>
      <trkpt lat="45.83976" lon="6.26762">
        <ele>1360</ele>
        <time>2017-05-28T07:36:45.000Z</time>
      </trkpt>
      <trkpt lat="45.83986" lon="6.26768">
        <ele>1361</ele>
        <time>2017-05-28T07:36:53.000Z</time>
      </trkpt>
      <trkpt lat="45.83988" lon="6.26768">
        <ele>1361.1999511719</ele>
        <time>2017-05-28T07:36:54.000Z</time>
      </trkpt>
      <trkpt lat="45.83989" lon="6.26769">
        <ele>1361.4000244141</ele>
        <time>2017-05-28T07:36:55.000Z</time>
      </trkpt>
      <trkpt lat="45.8399" lon="6.2677">
        <ele>1361.8000488281</ele>
        <time>2017-05-28T07:36:56.000Z</time>
      </trkpt>
      <trkpt lat="45.83991" lon="6.26772">
        <ele>1362.1999511719</ele>
        <time>2017-05-28T07:36:57.000Z</time>
      </trkpt>
      <trkpt lat="45.83991" lon="6.26773">
        <ele>1362.4000244141</ele>
        <time>2017-05-28T07:36:58.000Z</time>
      </trkpt>
      <trkpt lat="45.83991" lon="6.26774">
        <ele>1362.5999755859</ele>
        <time>2017-05-28T07:36:59.000Z</time>
      </trkpt>
      <trkpt lat="45.83993" lon="6.26776">
        <ele>1363</ele>
        <time>2017-05-28T07:37:01.000Z</time>
      </trkpt>
      <trkpt lat="45.83994" lon="6.26777">
        <ele>1363.1999511719</ele>
        <time>2017-05-28T07:37:02.000Z</time>
      </trkpt>
      <trkpt lat="45.84005" lon="6.26793">
        <ele>1366.1999511719</ele>
        <time>2017-05-28T07:37:17.000Z</time>
      </trkpt>
      <trkpt lat="45.84017" lon="6.26804">
        <ele>1369.1999511719</ele>
        <time>2017-05-28T07:37:30.000Z</time>
      </trkpt>
      <trkpt lat="45.8403" lon="6.26794">
        <ele>1372.4000244141</ele>
        <time>2017-05-28T07:37:44.000Z</time>
      </trkpt>
      <trkpt lat="45.84044" lon="6.26777">
        <ele>1375.1999511719</ele>
        <time>2017-05-28T07:37:59.000Z</time>
      </trkpt>
      <trkpt lat="45.84047" lon="6.26755">
        <ele>1375.4000244141</ele>
        <time>2017-05-28T07:38:08.000Z</time>
      </trkpt>
      <trkpt lat="45.84048" lon="6.26752">
        <ele>1375.1999511719</ele>
        <time>2017-05-28T07:38:09.000Z</time>
      </trkpt>
      <trkpt lat="45.8405" lon="6.26749">
        <ele>1375</ele>
        <time>2017-05-28T07:38:10.000Z</time>
      </trkpt>
      <trkpt lat="45.84051" lon="6.26746">
        <ele>1375</ele>
        <time>2017-05-28T07:38:11.000Z</time>
      </trkpt>
      <trkpt lat="45.84052" lon="6.26744">
        <ele>1374.8000488281</ele>
        <time>2017-05-28T07:38:12.000Z</time>
      </trkpt>
      <trkpt lat="45.84054" lon="6.26741">
        <ele>1374.5999755859</ele>
        <time>2017-05-28T07:38:13.000Z</time>
      </trkpt>
      <trkpt lat="45.84059" lon="6.2671">
        <ele>1374</ele>
        <time>2017-05-28T07:38:22.000Z</time>
      </trkpt>
      <trkpt lat="45.84066" lon="6.26683">
        <ele>1373.1999511719</ele>
        <time>2017-05-28T07:38:30.000Z</time>
      </trkpt>
      <trkpt lat="45.84078" lon="6.26662">
        <ele>1374.1999511719</ele>
        <time>2017-05-28T07:38:41.000Z</time>
      </trkpt>
      <trkpt lat="45.84083" lon="6.26655">
        <ele>1375.4000244141</ele>
        <time>2017-05-28T07:38:46.000Z</time>
      </trkpt>
      <trkpt lat="45.84083" lon="6.26653">
        <ele>1375.8000488281</ele>
        <time>2017-05-28T07:38:47.000Z</time>
      </trkpt>
      <trkpt lat="45.84084" lon="6.26651">
        <ele>1376</ele>
        <time>2017-05-28T07:38:48.000Z</time>
      </trkpt>
      <trkpt lat="45.84087" lon="6.2664">
        <ele>1377.8000488281</ele>
        <time>2017-05-28T07:38:57.000Z</time>
      </trkpt>
      <trkpt lat="45.84092" lon="6.26627">
        <ele>1381</ele>
        <time>2017-05-28T07:39:08.000Z</time>
      </trkpt>
      <trkpt lat="45.84099" lon="6.26608">
        <ele>1384</ele>
        <time>2017-05-28T07:39:22.000Z</time>
      </trkpt>
      <trkpt lat="45.84102" lon="6.26596">
        <ele>1384.8000488281</ele>
        <time>2017-05-28T07:39:29.000Z</time>
      </trkpt>
      <trkpt lat="45.841" lon="6.26591">
        <ele>1385.8000488281</ele>
        <time>2017-05-28T07:39:33.000Z</time>
      </trkpt>
      <trkpt lat="45.841" lon="6.26589">
        <ele>1385.8000488281</ele>
        <time>2017-05-28T07:39:34.000Z</time>
      </trkpt>
      <trkpt lat="45.84099" lon="6.26564">
        <ele>1389</ele>
        <time>2017-05-28T07:39:51.000Z</time>
      </trkpt>
      <trkpt lat="45.84104" lon="6.26536">
        <ele>1391.8000488281</ele>
        <time>2017-05-28T07:40:07.000Z</time>
      </trkpt>
      <trkpt lat="45.84106" lon="6.26531">
        <ele>1392.1999511719</ele>
        <time>2017-05-28T07:40:10.000Z</time>
      </trkpt>
      <trkpt lat="45.84107" lon="6.2653">
        <ele>1392.4000244141</ele>
        <time>2017-05-28T07:40:11.000Z</time>
      </trkpt>
      <trkpt lat="45.84108" lon="6.26528">
        <ele>1392.5999755859</ele>
        <time>2017-05-28T07:40:12.000Z</time>
      </trkpt>
      <trkpt lat="45.84118" lon="6.26512">
        <ele>1395.8000488281</ele>
        <time>2017-05-28T07:40:26.000Z</time>
      </trkpt>
      <trkpt lat="45.84129" lon="6.26496">
        <ele>1399</ele>
        <time>2017-05-28T07:40:39.000Z</time>
      </trkpt>
      <trkpt lat="45.84131" lon="6.26484">
        <ele>1401.5999755859</ele>
        <time>2017-05-28T07:40:50.000Z</time>
      </trkpt>
      <trkpt lat="45.84131" lon="6.26482">
        <ele>1401.8000488281</ele>
        <time>2017-05-28T07:40:51.000Z</time>
      </trkpt>
      <trkpt lat="45.84131" lon="6.26481">
        <ele>1402</ele>
        <time>2017-05-28T07:40:52.000Z</time>
      </trkpt>
      <trkpt lat="45.8413" lon="6.2648">
        <ele>1402.1999511719</ele>
        <time>2017-05-28T07:40:53.000Z</time>
      </trkpt>
      <trkpt lat="45.8413" lon="6.26479">
        <ele>1402.4000244141</ele>
        <time>2017-05-28T07:40:54.000Z</time>
      </trkpt>
      <trkpt lat="45.8413" lon="6.26477">
        <ele>1402.4000244141</ele>
        <time>2017-05-28T07:40:55.000Z</time>
      </trkpt>
      <trkpt lat="45.84129" lon="6.26476">
        <ele>1402.5999755859</ele>
        <time>2017-05-28T07:40:56.000Z</time>
      </trkpt>
      <trkpt lat="45.84127" lon="6.26469">
        <ele>1403.8000488281</ele>
        <time>2017-05-28T07:41:02.000Z</time>
      </trkpt>
      <trkpt lat="45.84126" lon="6.26467">
        <ele>1404</ele>
        <time>2017-05-28T07:41:03.000Z</time>
      </trkpt>
      <trkpt lat="45.84126" lon="6.26466">
        <ele>1404.4000244141</ele>
        <time>2017-05-28T07:41:04.000Z</time>
      </trkpt>
      <trkpt lat="45.84125" lon="6.26464">
        <ele>1404.5999755859</ele>
        <time>2017-05-28T07:41:05.000Z</time>
      </trkpt>
      <trkpt lat="45.84124" lon="6.26462">
        <ele>1404.8000488281</ele>
        <time>2017-05-28T07:41:06.000Z</time>
      </trkpt>
      <trkpt lat="45.84119" lon="6.2645">
        <ele>1406.8000488281</ele>
        <time>2017-05-28T07:41:15.000Z</time>
      </trkpt>
      <trkpt lat="45.84118" lon="6.26449">
        <ele>1407.1999511719</ele>
        <time>2017-05-28T07:41:16.000Z</time>
      </trkpt>
      <trkpt lat="45.84118" lon="6.26448">
        <ele>1407.4000244141</ele>
        <time>2017-05-28T07:41:17.000Z</time>
      </trkpt>
      <trkpt lat="45.84117" lon="6.26447">
        <ele>1407.5999755859</ele>
        <time>2017-05-28T07:41:18.000Z</time>
      </trkpt>
      <trkpt lat="45.84115" lon="6.26444">
        <ele>1408.1999511719</ele>
        <time>2017-05-28T07:41:20.000Z</time>
      </trkpt>
      <trkpt lat="45.84114" lon="6.26443">
        <ele>1408.4000244141</ele>
        <time>2017-05-28T07:41:21.000Z</time>
      </trkpt>
      <trkpt lat="45.84105" lon="6.2642">
        <ele>1411.4000244141</ele>
        <time>2017-05-28T07:41:37.000Z</time>
      </trkpt>
      <trkpt lat="45.84096" lon="6.264">
        <ele>1414.5999755859</ele>
        <time>2017-05-28T07:41:52.000Z</time>
      </trkpt>
      <trkpt lat="45.841" lon="6.26396">
        <ele>1415.5999755859</ele>
        <time>2017-05-28T07:42:00.000Z</time>
      </trkpt>
      <trkpt lat="45.84101" lon="6.26397">
        <ele>1416</ele>
        <time>2017-05-28T07:42:01.000Z</time>
      </trkpt>
      <trkpt lat="45.84104" lon="6.26393">
        <ele>1418.4000244141</ele>
        <time>2017-05-28T07:42:09.000Z</time>
      </trkpt>
      <trkpt lat="45.84103" lon="6.26391">
        <ele>1418.5999755859</ele>
        <time>2017-05-28T07:42:10.000Z</time>
      </trkpt>
      <trkpt lat="45.841" lon="6.26364">
        <ele>1420.8000488281</ele>
        <time>2017-05-28T07:42:27.000Z</time>
      </trkpt>
      <trkpt lat="45.84104" lon="6.26349">
        <ele>1422.8000488281</ele>
        <time>2017-05-28T07:42:36.000Z</time>
      </trkpt>
      <trkpt lat="45.84103" lon="6.26348">
        <ele>1423.1999511719</ele>
        <time>2017-05-28T07:42:37.000Z</time>
      </trkpt>
      <trkpt lat="45.84102" lon="6.26346">
        <ele>1423.4000244141</ele>
        <time>2017-05-28T07:42:38.000Z</time>
      </trkpt>
      <trkpt lat="45.84096" lon="6.26318">
        <ele>1424.8000488281</ele>
        <time>2017-05-28T07:42:52.000Z</time>
      </trkpt>
      <trkpt lat="45.84097" lon="6.26316">
        <ele>1425.5999755859</ele>
        <time>2017-05-28T07:42:54.000Z</time>
      </trkpt>
      <trkpt lat="45.841" lon="6.26312">
        <ele>1426.1999511719</ele>
        <time>2017-05-28T07:42:58.000Z</time>
      </trkpt>
      <trkpt lat="45.84107" lon="6.26319">
        <ele>1429.4000244141</ele>
        <time>2017-05-28T07:43:08.000Z</time>
      </trkpt>
      <trkpt lat="45.84114" lon="6.26326">
        <ele>1432.8000488281</ele>
        <time>2017-05-28T07:43:22.000Z</time>
      </trkpt>
      <trkpt lat="45.84115" lon="6.2632">
        <ele>1433.4000244141</ele>
        <time>2017-05-28T07:43:27.000Z</time>
      </trkpt>
      <trkpt lat="45.84124" lon="6.2631">
        <ele>1436.4000244141</ele>
        <time>2017-05-28T07:43:42.000Z</time>
      </trkpt>
      <trkpt lat="45.84126" lon="6.26314">
        <ele>1438</ele>
        <time>2017-05-28T07:43:46.000Z</time>
      </trkpt>
      <trkpt lat="45.84134" lon="6.2633">
        <ele>1441.5999755859</ele>
        <time>2017-05-28T07:44:03.000Z</time>
      </trkpt>
      <trkpt lat="45.84138" lon="6.26334">
        <ele>1444.5999755859</ele>
        <time>2017-05-28T07:44:13.000Z</time>
      </trkpt>
      <trkpt lat="45.84144" lon="6.26339">
        <ele>1447.8000488281</ele>
        <time>2017-05-28T07:44:24.000Z</time>
      </trkpt>
      <trkpt lat="45.84152" lon="6.26342">
        <ele>1450.8000488281</ele>
        <time>2017-05-28T07:44:38.000Z</time>
      </trkpt>
      <trkpt lat="45.84156" lon="6.26343">
        <ele>1454.1999511719</ele>
        <time>2017-05-28T07:44:52.000Z</time>
      </trkpt>
      <trkpt lat="45.84158" lon="6.26342">
        <ele>1455</ele>
        <time>2017-05-28T07:44:56.000Z</time>
      </trkpt>
      <trkpt lat="45.84167" lon="6.26349">
        <ele>1458.1999511719</ele>
        <time>2017-05-28T07:45:08.000Z</time>
      </trkpt>
      <trkpt lat="45.84177" lon="6.26363">
        <ele>1461.4000244141</ele>
        <time>2017-05-28T07:45:24.000Z</time>
      </trkpt>
      <trkpt lat="45.84186" lon="6.26367">
        <ele>1464.4000244141</ele>
        <time>2017-05-28T07:45:37.000Z</time>
      </trkpt>
      <trkpt lat="45.8419" lon="6.26374">
        <ele>1467.5999755859</ele>
        <time>2017-05-28T07:45:49.000Z</time>
      </trkpt>
      <trkpt lat="45.84195" lon="6.2638">
        <ele>1470</ele>
        <time>2017-05-28T07:45:59.000Z</time>
      </trkpt>
      <trkpt lat="45.84196" lon="6.26381">
        <ele>1470.1999511719</ele>
        <time>2017-05-28T07:46:00.000Z</time>
      </trkpt>
      <trkpt lat="45.84206" lon="6.26387">
        <ele>1473.4000244141</ele>
        <time>2017-05-28T07:46:17.000Z</time>
      </trkpt>
      <trkpt lat="45.84221" lon="6.26391">
        <ele>1476.4000244141</ele>
        <time>2017-05-28T07:46:32.000Z</time>
      </trkpt>
      <trkpt lat="45.84235" lon="6.26398">
        <ele>1479.5999755859</ele>
        <time>2017-05-28T07:46:46.000Z</time>
      </trkpt>
      <trkpt lat="45.84249" lon="6.26404">
        <ele>1482.5999755859</ele>
        <time>2017-05-28T07:47:01.000Z</time>
      </trkpt>
      <trkpt lat="45.84261" lon="6.26406">
        <ele>1485.5999755859</ele>
        <time>2017-05-28T07:47:21.000Z</time>
      </trkpt>
      <trkpt lat="45.8426" lon="6.26397">
        <ele>1488.1999511719</ele>
        <time>2017-05-28T07:47:32.000Z</time>
      </trkpt>
      <trkpt lat="45.84253" lon="6.26385">
        <ele>1491.4000244141</ele>
        <time>2017-05-28T07:47:46.000Z</time>
      </trkpt>
      <trkpt lat="45.84244" lon="6.2636">
        <ele>1494</ele>
        <time>2017-05-28T07:48:05.000Z</time>
      </trkpt>
      <trkpt lat="45.84242" lon="6.26341">
        <ele>1497.1999511719</ele>
        <time>2017-05-28T07:48:19.000Z</time>
      </trkpt>
      <trkpt lat="45.84237" lon="6.26326">
        <ele>1500.4000244141</ele>
        <time>2017-05-28T07:48:30.000Z</time>
      </trkpt>
      <trkpt lat="45.84241" lon="6.26324">
        <ele>1503.1999511719</ele>
        <time>2017-05-28T07:48:43.000Z</time>
      </trkpt>
      <trkpt lat="45.84252" lon="6.26327">
        <ele>1506.1999511719</ele>
        <time>2017-05-28T07:48:55.000Z</time>
      </trkpt>
      <trkpt lat="45.84263" lon="6.26326">
        <ele>1509.4000244141</ele>
        <time>2017-05-28T07:49:09.000Z</time>
      </trkpt>
      <trkpt lat="45.84268" lon="6.26319">
        <ele>1512.4000244141</ele>
        <time>2017-05-28T07:49:24.000Z</time>
      </trkpt>
      <trkpt lat="45.84262" lon="6.26296">
        <ele>1515.5999755859</ele>
        <time>2017-05-28T07:49:41.000Z</time>
      </trkpt>
      <trkpt lat="45.84276" lon="6.26275">
        <ele>1518.8000488281</ele>
        <time>2017-05-28T07:50:00.000Z</time>
      </trkpt>
      <trkpt lat="45.84285" lon="6.26261">
        <ele>1522</ele>
        <time>2017-05-28T07:50:16.000Z</time>
      </trkpt>
      <trkpt lat="45.84293" lon="6.2625">
        <ele>1525.1999511719</ele>
        <time>2017-05-28T07:50:28.000Z</time>
      </trkpt>
      <trkpt lat="45.84301" lon="6.26236">
        <ele>1528.1999511719</ele>
        <time>2017-05-28T07:50:46.000Z</time>
      </trkpt>
      <trkpt lat="45.84309" lon="6.26229">
        <ele>1531.4000244141</ele>
        <time>2017-05-28T07:51:01.000Z</time>
      </trkpt>
      <trkpt lat="45.84312" lon="6.26223">
        <ele>1533.5999755859</ele>
        <time>2017-05-28T07:51:08.000Z</time>
      </trkpt>
      <trkpt lat="45.84315" lon="6.26216">
        <ele>1536.5999755859</ele>
        <time>2017-05-28T07:51:17.000Z</time>
      </trkpt>
      <trkpt lat="45.84322" lon="6.26206">
        <ele>1539.5999755859</ele>
        <time>2017-05-28T07:51:33.000Z</time>
      </trkpt>
      <trkpt lat="45.84323" lon="6.26196">
        <ele>1542.1999511719</ele>
        <time>2017-05-28T07:51:43.000Z</time>
      </trkpt>
      <trkpt lat="45.84323" lon="6.26195">
        <ele>1542.1999511719</ele>
        <time>2017-05-28T07:51:44.000Z</time>
      </trkpt>
      <trkpt lat="45.84324" lon="6.26193">
        <ele>1542.4000244141</ele>
        <time>2017-05-28T07:51:45.000Z</time>
      </trkpt>
      <trkpt lat="45.84324" lon="6.26192">
        <ele>1542.5999755859</ele>
        <time>2017-05-28T07:51:46.000Z</time>
      </trkpt>
      <trkpt lat="45.84325" lon="6.26191">
        <ele>1542.8000488281</ele>
        <time>2017-05-28T07:51:47.000Z</time>
      </trkpt>
      <trkpt lat="45.84326" lon="6.2619">
        <ele>1543</ele>
        <time>2017-05-28T07:51:48.000Z</time>
      </trkpt>
      <trkpt lat="45.84327" lon="6.26189">
        <ele>1543</ele>
        <time>2017-05-28T07:51:49.000Z</time>
      </trkpt>
      <trkpt lat="45.84327" lon="6.26187">
        <ele>1543.1999511719</ele>
        <time>2017-05-28T07:51:50.000Z</time>
      </trkpt>
      <trkpt lat="45.84337" lon="6.26168">
        <ele>1546.4000244141</ele>
        <time>2017-05-28T07:52:20.000Z</time>
      </trkpt>
      <trkpt lat="45.84344" lon="6.26164">
        <ele>1549.4000244141</ele>
        <time>2017-05-28T07:52:35.000Z</time>
      </trkpt>
      <trkpt lat="45.84347" lon="6.26159">
        <ele>1552.4000244141</ele>
        <time>2017-05-28T07:52:54.000Z</time>
      </trkpt>
      <trkpt lat="45.84346" lon="6.26158">
        <ele>1552.5999755859</ele>
        <time>2017-05-28T07:52:56.000Z</time>
      </trkpt>
      <trkpt lat="45.84351" lon="6.26149">
        <ele>1555.8000488281</ele>
        <time>2017-05-28T07:53:19.000Z</time>
      </trkpt>
      <trkpt lat="45.84356" lon="6.26143">
        <ele>1558.8000488281</ele>
        <time>2017-05-28T07:53:32.000Z</time>
      </trkpt>
      <trkpt lat="45.84359" lon="6.2614">
        <ele>1562</ele>
        <time>2017-05-28T07:53:48.000Z</time>
      </trkpt>
      <trkpt lat="45.84361" lon="6.26129">
        <ele>1565.1999511719</ele>
        <time>2017-05-28T07:54:07.000Z</time>
      </trkpt>
      <trkpt lat="45.84363" lon="6.26124">
        <ele>1566.5999755859</ele>
        <time>2017-05-28T07:54:13.000Z</time>
      </trkpt>
      <trkpt lat="45.84367" lon="6.26121">
        <ele>1569.5999755859</ele>
        <time>2017-05-28T07:54:28.000Z</time>
      </trkpt>
      <trkpt lat="45.84369" lon="6.26117">
        <ele>1572.5999755859</ele>
        <time>2017-05-28T07:54:42.000Z</time>
      </trkpt>
      <trkpt lat="45.84373" lon="6.26121">
        <ele>1575.8000488281</ele>
        <time>2017-05-28T07:54:54.000Z</time>
      </trkpt>
      <trkpt lat="45.8438" lon="6.26119">
        <ele>1578.8000488281</ele>
        <time>2017-05-28T07:55:12.000Z</time>
      </trkpt>
      <trkpt lat="45.84383" lon="6.26112">
        <ele>1581</ele>
        <time>2017-05-28T07:55:22.000Z</time>
      </trkpt>
      <trkpt lat="45.84383" lon="6.26112">
        <ele>1581.1999511719</ele>
        <time>2017-05-28T07:55:23.000Z</time>
      </trkpt>
      <trkpt lat="45.84384" lon="6.26111">
        <ele>1581.4000244141</ele>
        <time>2017-05-28T07:55:24.000Z</time>
      </trkpt>
      <trkpt lat="45.84391" lon="6.26118">
        <ele>1584.4000244141</ele>
        <time>2017-05-28T07:55:38.000Z</time>
      </trkpt>
      <trkpt lat="45.84398" lon="6.2612">
        <ele>1587.4000244141</ele>
        <time>2017-05-28T07:55:52.000Z</time>
      </trkpt>
      <trkpt lat="45.84406" lon="6.26118">
        <ele>1590.5999755859</ele>
        <time>2017-05-28T07:56:09.000Z</time>
      </trkpt>
      <trkpt lat="45.84411" lon="6.26113">
        <ele>1593.8000488281</ele>
        <time>2017-05-28T07:56:28.000Z</time>
      </trkpt>
      <trkpt lat="45.84416" lon="6.26116">
        <ele>1596.8000488281</ele>
        <time>2017-05-28T07:56:44.000Z</time>
      </trkpt>
      <trkpt lat="45.84421" lon="6.26113">
        <ele>1600</ele>
        <time>2017-05-28T07:57:01.000Z</time>
      </trkpt>
      <trkpt lat="45.84426" lon="6.26115">
        <ele>1603.1999511719</ele>
        <time>2017-05-28T07:57:19.000Z</time>
      </trkpt>
      <trkpt lat="45.84435" lon="6.26117">
        <ele>1606.1999511719</ele>
        <time>2017-05-28T07:57:32.000Z</time>
      </trkpt>
      <trkpt lat="45.84443" lon="6.2611">
        <ele>1603.1999511719</ele>
        <time>2017-05-28T07:57:55.000Z</time>
      </trkpt>
      <trkpt lat="45.8444" lon="6.26103">
        <ele>1600.5999755859</ele>
        <time>2017-05-28T07:58:02.000Z</time>
      </trkpt>
      <trkpt lat="45.84442" lon="6.26085">
        <ele>1601.1999511719</ele>
        <time>2017-05-28T07:58:18.000Z</time>
      </trkpt>
      <trkpt lat="45.84445" lon="6.26076">
        <ele>1604.4000244141</ele>
        <time>2017-05-28T07:58:35.000Z</time>
      </trkpt>
      <trkpt lat="45.84449" lon="6.26073">
        <ele>1607.5999755859</ele>
        <time>2017-05-28T07:58:51.000Z</time>
      </trkpt>
      <trkpt lat="45.84451" lon="6.26069">
        <ele>1610.5999755859</ele>
        <time>2017-05-28T07:59:07.000Z</time>
      </trkpt>
      <trkpt lat="45.84456" lon="6.26062">
        <ele>1613.8000488281</ele>
        <time>2017-05-28T07:59:25.000Z</time>
      </trkpt>
      <trkpt lat="45.84459" lon="6.26059">
        <ele>1616.8000488281</ele>
        <time>2017-05-28T07:59:42.000Z</time>
      </trkpt>
      <trkpt lat="45.84469" lon="6.26048">
        <ele>1619.5999755859</ele>
        <time>2017-05-28T07:59:59.000Z</time>
      </trkpt>
      <trkpt lat="45.84484" lon="6.26045">
        <ele>1616.4000244141</ele>
        <time>2017-05-28T08:00:32.000Z</time>
      </trkpt>
      <trkpt lat="45.84494" lon="6.26038">
        <ele>1613.1999511719</ele>
        <time>2017-05-28T08:00:40.000Z</time>
      </trkpt>
      <trkpt lat="45.84496" lon="6.26037">
        <ele>1612.5999755859</ele>
        <time>2017-05-28T08:00:41.000Z</time>
      </trkpt>
      <trkpt lat="45.84498" lon="6.26036">
        <ele>1611.8000488281</ele>
        <time>2017-05-28T08:00:42.000Z</time>
      </trkpt>
      <trkpt lat="45.84499" lon="6.26035">
        <ele>1611.1999511719</ele>
        <time>2017-05-28T08:00:43.000Z</time>
      </trkpt>
      <trkpt lat="45.84505" lon="6.26032">
        <ele>1608.8000488281</ele>
        <time>2017-05-28T08:00:48.000Z</time>
      </trkpt>
      <trkpt lat="45.84506" lon="6.26031">
        <ele>1608.4000244141</ele>
        <time>2017-05-28T08:00:49.000Z</time>
      </trkpt>
      <trkpt lat="45.84515" lon="6.26026">
        <ele>1604.8000488281</ele>
        <time>2017-05-28T08:00:56.000Z</time>
      </trkpt>
      <trkpt lat="45.84517" lon="6.26026">
        <ele>1604.5999755859</ele>
        <time>2017-05-28T08:00:57.000Z</time>
      </trkpt>
      <trkpt lat="45.84518" lon="6.26025">
        <ele>1604</ele>
        <time>2017-05-28T08:00:58.000Z</time>
      </trkpt>
      <trkpt lat="45.84526" lon="6.26016">
        <ele>1600.8000488281</ele>
        <time>2017-05-28T08:01:04.000Z</time>
      </trkpt>
      <trkpt lat="45.84531" lon="6.2601">
        <ele>1599</ele>
        <time>2017-05-28T08:01:08.000Z</time>
      </trkpt>
      <trkpt lat="45.84532" lon="6.26005">
        <ele>1598</ele>
        <time>2017-05-28T08:01:10.000Z</time>
      </trkpt>
      <trkpt lat="45.84533" lon="6.26002">
        <ele>1597.4000244141</ele>
        <time>2017-05-28T08:01:11.000Z</time>
      </trkpt>
      <trkpt lat="45.84535" lon="6.26001">
        <ele>1596.8000488281</ele>
        <time>2017-05-28T08:01:12.000Z</time>
      </trkpt>
      <trkpt lat="45.84537" lon="6.25999">
        <ele>1596.1999511719</ele>
        <time>2017-05-28T08:01:13.000Z</time>
      </trkpt>
      <trkpt lat="45.8454" lon="6.25998">
        <ele>1595.8000488281</ele>
        <time>2017-05-28T08:01:14.000Z</time>
      </trkpt>
      <trkpt lat="45.84542" lon="6.25998">
        <ele>1595.4000244141</ele>
        <time>2017-05-28T08:01:15.000Z</time>
      </trkpt>
      <trkpt lat="45.84545" lon="6.25997">
        <ele>1594.8000488281</ele>
        <time>2017-05-28T08:01:16.000Z</time>
      </trkpt>
      <trkpt lat="45.84547" lon="6.25997">
        <ele>1594.4000244141</ele>
        <time>2017-05-28T08:01:17.000Z</time>
      </trkpt>
      <trkpt lat="45.8455" lon="6.25997">
        <ele>1593.8000488281</ele>
        <time>2017-05-28T08:01:18.000Z</time>
      </trkpt>
      <trkpt lat="45.84552" lon="6.25997">
        <ele>1593.5999755859</ele>
        <time>2017-05-28T08:01:19.000Z</time>
      </trkpt>
      <trkpt lat="45.84555" lon="6.25997">
        <ele>1593.4000244141</ele>
        <time>2017-05-28T08:01:20.000Z</time>
      </trkpt>
      <trkpt lat="45.84557" lon="6.25996">
        <ele>1593.1999511719</ele>
        <time>2017-05-28T08:01:21.000Z</time>
      </trkpt>
      <trkpt lat="45.8456" lon="6.25996">
        <ele>1593</ele>
        <time>2017-05-28T08:01:22.000Z</time>
      </trkpt>
      <trkpt lat="45.84563" lon="6.25995">
        <ele>1592.5999755859</ele>
        <time>2017-05-28T08:01:23.000Z</time>
      </trkpt>
      <trkpt lat="45.84583" lon="6.25992">
        <ele>1589.8000488281</ele>
        <time>2017-05-28T08:01:31.000Z</time>
      </trkpt>
      <trkpt lat="45.84606" lon="6.25989">
        <ele>1587.4000244141</ele>
        <time>2017-05-28T08:01:39.000Z</time>
      </trkpt>
      <trkpt lat="45.84628" lon="6.25986">
        <ele>1586</ele>
        <time>2017-05-28T08:01:46.000Z</time>
      </trkpt>
      <trkpt lat="45.84649" lon="6.25981">
        <ele>1584.8000488281</ele>
        <time>2017-05-28T08:01:53.000Z</time>
      </trkpt>
      <trkpt lat="45.8467" lon="6.25978">
        <ele>1582.4000244141</ele>
        <time>2017-05-28T08:02:00.000Z</time>
      </trkpt>
      <trkpt lat="45.84691" lon="6.25985">
        <ele>1579.8000488281</ele>
        <time>2017-05-28T08:02:07.000Z</time>
      </trkpt>
      <trkpt lat="45.84697" lon="6.25984">
        <ele>1579</ele>
        <time>2017-05-28T08:02:09.000Z</time>
      </trkpt>
      <trkpt lat="45.84718" lon="6.25973">
        <ele>1577</ele>
        <time>2017-05-28T08:02:16.000Z</time>
      </trkpt>
      <trkpt lat="45.84738" lon="6.25973">
        <ele>1576.4000244141</ele>
        <time>2017-05-28T08:02:23.000Z</time>
      </trkpt>
      <trkpt lat="45.84757" lon="6.25978">
        <ele>1576</ele>
        <time>2017-05-28T08:02:30.000Z</time>
      </trkpt>
      <trkpt lat="45.84776" lon="6.25974">
        <ele>1575.4000244141</ele>
        <time>2017-05-28T08:02:37.000Z</time>
      </trkpt>
      <trkpt lat="45.84794" lon="6.25967">
        <ele>1573.8000488281</ele>
        <time>2017-05-28T08:02:44.000Z</time>
      </trkpt>
      <trkpt lat="45.84815" lon="6.25966">
        <ele>1571.8000488281</ele>
        <time>2017-05-28T08:02:51.000Z</time>
      </trkpt>
      <trkpt lat="45.84835" lon="6.25965">
        <ele>1570.5999755859</ele>
        <time>2017-05-28T08:02:58.000Z</time>
      </trkpt>
      <trkpt lat="45.84856" lon="6.25966">
        <ele>1569.4000244141</ele>
        <time>2017-05-28T08:03:06.000Z</time>
      </trkpt>
      <trkpt lat="45.84877" lon="6.25964">
        <ele>1567.5999755859</ele>
        <time>2017-05-28T08:03:14.000Z</time>
      </trkpt>
      <trkpt lat="45.84897" lon="6.25963">
        <ele>1566.4000244141</ele>
        <time>2017-05-28T08:03:21.000Z</time>
      </trkpt>
      <trkpt lat="45.84917" lon="6.25963">
        <ele>1564.5999755859</ele>
        <time>2017-05-28T08:03:27.000Z</time>
      </trkpt>
      <trkpt lat="45.84936" lon="6.25954">
        <ele>1563.1999511719</ele>
        <time>2017-05-28T08:03:34.000Z</time>
      </trkpt>
      <trkpt lat="45.84951" lon="6.25938">
        <ele>1561.4000244141</ele>
        <time>2017-05-28T08:03:40.000Z</time>
      </trkpt>
      <trkpt lat="45.84963" lon="6.25919">
        <ele>1559.8000488281</ele>
        <time>2017-05-28T08:03:47.000Z</time>
      </trkpt>
      <trkpt lat="45.84982" lon="6.25912">
        <ele>1558.8000488281</ele>
        <time>2017-05-28T08:03:54.000Z</time>
      </trkpt>
      <trkpt lat="45.85001" lon="6.25905">
        <ele>1560.4000244141</ele>
        <time>2017-05-28T08:04:05.000Z</time>
      </trkpt>
      <trkpt lat="45.85019" lon="6.25895">
        <ele>1561.5999755859</ele>
        <time>2017-05-28T08:04:17.000Z</time>
      </trkpt>
      <trkpt lat="45.85038" lon="6.25887">
        <ele>1562.8000488281</ele>
        <time>2017-05-28T08:04:30.000Z</time>
      </trkpt>
      <trkpt lat="45.85059" lon="6.25884">
        <ele>1563.8000488281</ele>
        <time>2017-05-28T08:04:42.000Z</time>
      </trkpt>
      <trkpt lat="45.85077" lon="6.25874">
        <ele>1564.1999511719</ele>
        <time>2017-05-28T08:04:52.000Z</time>
      </trkpt>
      <trkpt lat="45.85096" lon="6.25863">
        <ele>1564.5999755859</ele>
        <time>2017-05-28T08:05:00.000Z</time>
      </trkpt>
      <trkpt lat="45.85113" lon="6.2585">
        <ele>1564.8000488281</ele>
        <time>2017-05-28T08:05:08.000Z</time>
      </trkpt>
      <trkpt lat="45.85118" lon="6.25824">
        <ele>1565.5999755859</ele>
        <time>2017-05-28T08:05:15.000Z</time>
      </trkpt>
      <trkpt lat="45.85121" lon="6.25813">
        <ele>1565.8000488281</ele>
        <time>2017-05-28T08:05:18.000Z</time>
      </trkpt>
      <trkpt lat="45.85123" lon="6.2581">
        <ele>1565.8000488281</ele>
        <time>2017-05-28T08:05:19.000Z</time>
      </trkpt>
      <trkpt lat="45.85125" lon="6.25808">
        <ele>1565.5999755859</ele>
        <time>2017-05-28T08:05:20.000Z</time>
      </trkpt>
      <trkpt lat="45.85128" lon="6.25806">
        <ele>1565.5999755859</ele>
        <time>2017-05-28T08:05:21.000Z</time>
      </trkpt>
      <trkpt lat="45.85131" lon="6.25804">
        <ele>1565.4000244141</ele>
        <time>2017-05-28T08:05:22.000Z</time>
      </trkpt>
      <trkpt lat="45.85152" lon="6.258">
        <ele>1564.1999511719</ele>
        <time>2017-05-28T08:05:30.000Z</time>
      </trkpt>
      <trkpt lat="45.85171" lon="6.2579">
        <ele>1562.5999755859</ele>
        <time>2017-05-28T08:05:38.000Z</time>
      </trkpt>
      <trkpt lat="45.85189" lon="6.25773">
        <ele>1560.8000488281</ele>
        <time>2017-05-28T08:05:46.000Z</time>
      </trkpt>
      <trkpt lat="45.85208" lon="6.25762">
        <ele>1557.8000488281</ele>
        <time>2017-05-28T08:05:54.000Z</time>
      </trkpt>
      <trkpt lat="45.85221" lon="6.25741">
        <ele>1554.8000488281</ele>
        <time>2017-05-28T08:06:02.000Z</time>
      </trkpt>
      <trkpt lat="45.85231" lon="6.25717">
        <ele>1551.5999755859</ele>
        <time>2017-05-28T08:06:09.000Z</time>
      </trkpt>
      <trkpt lat="45.85236" lon="6.25691">
        <ele>1548.1999511719</ele>
        <time>2017-05-28T08:06:16.000Z</time>
      </trkpt>
      <trkpt lat="45.8524" lon="6.25677">
        <ele>1546</ele>
        <time>2017-05-28T08:06:20.000Z</time>
      </trkpt>
      <trkpt lat="45.85243" lon="6.25675">
        <ele>1545.8000488281</ele>
        <time>2017-05-28T08:06:21.000Z</time>
      </trkpt>
      <trkpt lat="45.85245" lon="6.25673">
        <ele>1545.5999755859</ele>
        <time>2017-05-28T08:06:22.000Z</time>
      </trkpt>
      <trkpt lat="45.85255" lon="6.25663">
        <ele>1542.4000244141</ele>
        <time>2017-05-28T08:06:27.000Z</time>
      </trkpt>
      <trkpt lat="45.85259" lon="6.25656">
        <ele>1540.4000244141</ele>
        <time>2017-05-28T08:06:30.000Z</time>
      </trkpt>
      <trkpt lat="45.85259" lon="6.25652">
        <ele>1539.8000488281</ele>
        <time>2017-05-28T08:06:31.000Z</time>
      </trkpt>
      <trkpt lat="45.85258" lon="6.25649">
        <ele>1539.1999511719</ele>
        <time>2017-05-28T08:06:32.000Z</time>
      </trkpt>
      <trkpt lat="45.85258" lon="6.25645">
        <ele>1538.4000244141</ele>
        <time>2017-05-28T08:06:33.000Z</time>
      </trkpt>
      <trkpt lat="45.85258" lon="6.25641">
        <ele>1538.1999511719</ele>
        <time>2017-05-28T08:06:34.000Z</time>
      </trkpt>
      <trkpt lat="45.8526" lon="6.25639">
        <ele>1537.8000488281</ele>
        <time>2017-05-28T08:06:35.000Z</time>
      </trkpt>
      <trkpt lat="45.85262" lon="6.25638">
        <ele>1537.1999511719</ele>
        <time>2017-05-28T08:06:36.000Z</time>
      </trkpt>
      <trkpt lat="45.85264" lon="6.25638">
        <ele>1536.1999511719</ele>
        <time>2017-05-28T08:06:37.000Z</time>
      </trkpt>
      <trkpt lat="45.85266" lon="6.25638">
        <ele>1535.4000244141</ele>
        <time>2017-05-28T08:06:38.000Z</time>
      </trkpt>
      <trkpt lat="45.85267" lon="6.25639">
        <ele>1534.5999755859</ele>
        <time>2017-05-28T08:06:39.000Z</time>
      </trkpt>
      <trkpt lat="45.85269" lon="6.25641">
        <ele>1534.1999511719</ele>
        <time>2017-05-28T08:06:40.000Z</time>
      </trkpt>
      <trkpt lat="45.8527" lon="6.25641">
        <ele>1533.5999755859</ele>
        <time>2017-05-28T08:06:41.000Z</time>
      </trkpt>
      <trkpt lat="45.85272" lon="6.25641">
        <ele>1533</ele>
        <time>2017-05-28T08:06:42.000Z</time>
      </trkpt>
      <trkpt lat="45.85273" lon="6.25641">
        <ele>1532.4000244141</ele>
        <time>2017-05-28T08:06:43.000Z</time>
      </trkpt>
      <trkpt lat="45.85276" lon="6.2564">
        <ele>1532</ele>
        <time>2017-05-28T08:06:44.000Z</time>
      </trkpt>
      <trkpt lat="45.85278" lon="6.25638">
        <ele>1531.5999755859</ele>
        <time>2017-05-28T08:06:45.000Z</time>
      </trkpt>
      <trkpt lat="45.85279" lon="6.25636">
        <ele>1531.1999511719</ele>
        <time>2017-05-28T08:06:46.000Z</time>
      </trkpt>
      <trkpt lat="45.8528" lon="6.25633">
        <ele>1530.4000244141</ele>
        <time>2017-05-28T08:06:47.000Z</time>
      </trkpt>
      <trkpt lat="45.85279" lon="6.2563">
        <ele>1529.8000488281</ele>
        <time>2017-05-28T08:06:48.000Z</time>
      </trkpt>
      <trkpt lat="45.8528" lon="6.25627">
        <ele>1529.1999511719</ele>
        <time>2017-05-28T08:06:49.000Z</time>
      </trkpt>
      <trkpt lat="45.85279" lon="6.25623">
        <ele>1528.4000244141</ele>
        <time>2017-05-28T08:06:50.000Z</time>
      </trkpt>
      <trkpt lat="45.8528" lon="6.2562">
        <ele>1528</ele>
        <time>2017-05-28T08:06:51.000Z</time>
      </trkpt>
      <trkpt lat="45.85288" lon="6.25602">
        <ele>1525</ele>
        <time>2017-05-28T08:06:57.000Z</time>
      </trkpt>
      <trkpt lat="45.85289" lon="6.25599">
        <ele>1524.5999755859</ele>
        <time>2017-05-28T08:06:58.000Z</time>
      </trkpt>
      <trkpt lat="45.85293" lon="6.25571">
        <ele>1522.1999511719</ele>
        <time>2017-05-28T08:07:06.000Z</time>
      </trkpt>
      <trkpt lat="45.85295" lon="6.2555">
        <ele>1520.8000488281</ele>
        <time>2017-05-28T08:07:12.000Z</time>
      </trkpt>
      <trkpt lat="45.85298" lon="6.2552">
        <ele>1517.8000488281</ele>
        <time>2017-05-28T08:07:20.000Z</time>
      </trkpt>
      <trkpt lat="45.85312" lon="6.25499">
        <ele>1514.5999755859</ele>
        <time>2017-05-28T08:07:28.000Z</time>
      </trkpt>
      <trkpt lat="45.85322" lon="6.25497">
        <ele>1514.4000244141</ele>
        <time>2017-05-28T08:07:32.000Z</time>
      </trkpt>
      <trkpt lat="45.85325" lon="6.25499">
        <ele>1514.1999511719</ele>
        <time>2017-05-28T08:07:33.000Z</time>
      </trkpt>
      <trkpt lat="45.85332" lon="6.25505">
        <ele>1510.5999755859</ele>
        <time>2017-05-28T08:07:36.000Z</time>
      </trkpt>
      <trkpt lat="45.85338" lon="6.25512">
        <ele>1507.8000488281</ele>
        <time>2017-05-28T08:07:40.000Z</time>
      </trkpt>
      <trkpt lat="45.85341" lon="6.25513">
        <ele>1507</ele>
        <time>2017-05-28T08:07:41.000Z</time>
      </trkpt>
      <trkpt lat="45.85344" lon="6.25514">
        <ele>1506.4000244141</ele>
        <time>2017-05-28T08:07:42.000Z</time>
      </trkpt>
      <trkpt lat="45.85347" lon="6.25514">
        <ele>1505.5999755859</ele>
        <time>2017-05-28T08:07:43.000Z</time>
      </trkpt>
      <trkpt lat="45.85349" lon="6.25513">
        <ele>1505</ele>
        <time>2017-05-28T08:07:44.000Z</time>
      </trkpt>
      <trkpt lat="45.85351" lon="6.25509">
        <ele>1504.4000244141</ele>
        <time>2017-05-28T08:07:45.000Z</time>
      </trkpt>
      <trkpt lat="45.85352" lon="6.25505">
        <ele>1503.4000244141</ele>
        <time>2017-05-28T08:07:46.000Z</time>
      </trkpt>
      <trkpt lat="45.85351" lon="6.25501">
        <ele>1502.5999755859</ele>
        <time>2017-05-28T08:07:47.000Z</time>
      </trkpt>
      <trkpt lat="45.85349" lon="6.25498">
        <ele>1502</ele>
        <time>2017-05-28T08:07:48.000Z</time>
      </trkpt>
      <trkpt lat="45.85347" lon="6.25494">
        <ele>1501.5999755859</ele>
        <time>2017-05-28T08:07:49.000Z</time>
      </trkpt>
      <trkpt lat="45.85345" lon="6.25492">
        <ele>1500</ele>
        <time>2017-05-28T08:07:50.000Z</time>
      </trkpt>
      <trkpt lat="45.85337" lon="6.25476">
        <ele>1496.5999755859</ele>
        <time>2017-05-28T08:07:55.000Z</time>
      </trkpt>
      <trkpt lat="45.85334" lon="6.25465">
        <ele>1493</ele>
        <time>2017-05-28T08:07:59.000Z</time>
      </trkpt>
      <trkpt lat="45.85336" lon="6.25461">
        <ele>1491.8000488281</ele>
        <time>2017-05-28T08:08:01.000Z</time>
      </trkpt>
      <trkpt lat="45.85337" lon="6.25459">
        <ele>1491</ele>
        <time>2017-05-28T08:08:02.000Z</time>
      </trkpt>
      <trkpt lat="45.8534" lon="6.2546">
        <ele>1491</ele>
        <time>2017-05-28T08:08:03.000Z</time>
      </trkpt>
      <trkpt lat="45.85342" lon="6.2546">
        <ele>1490.4000244141</ele>
        <time>2017-05-28T08:08:04.000Z</time>
      </trkpt>
      <trkpt lat="45.85345" lon="6.25461">
        <ele>1489.4000244141</ele>
        <time>2017-05-28T08:08:05.000Z</time>
      </trkpt>
      <trkpt lat="45.8535" lon="6.25462">
        <ele>1488</ele>
        <time>2017-05-28T08:08:07.000Z</time>
      </trkpt>
      <trkpt lat="45.85355" lon="6.25464">
        <ele>1487.4000244141</ele>
        <time>2017-05-28T08:08:09.000Z</time>
      </trkpt>
      <trkpt lat="45.85368" lon="6.25464">
        <ele>1484.1999511719</ele>
        <time>2017-05-28T08:08:14.000Z</time>
      </trkpt>
      <trkpt lat="45.85378" lon="6.25459">
        <ele>1481.4000244141</ele>
        <time>2017-05-28T08:08:18.000Z</time>
      </trkpt>
      <trkpt lat="45.8538" lon="6.25455">
        <ele>1480.5999755859</ele>
        <time>2017-05-28T08:08:19.000Z</time>
      </trkpt>
      <trkpt lat="45.85382" lon="6.25453">
        <ele>1480</ele>
        <time>2017-05-28T08:08:20.000Z</time>
      </trkpt>
      <trkpt lat="45.85385" lon="6.2545">
        <ele>1479.5999755859</ele>
        <time>2017-05-28T08:08:21.000Z</time>
      </trkpt>
      <trkpt lat="45.85387" lon="6.25447">
        <ele>1479</ele>
        <time>2017-05-28T08:08:22.000Z</time>
      </trkpt>
      <trkpt lat="45.85389" lon="6.25444">
        <ele>1478.1999511719</ele>
        <time>2017-05-28T08:08:23.000Z</time>
      </trkpt>
      <trkpt lat="45.85391" lon="6.2544">
        <ele>1477.8000488281</ele>
        <time>2017-05-28T08:08:24.000Z</time>
      </trkpt>
      <trkpt lat="45.85402" lon="6.25425">
        <ele>1474.1999511719</ele>
        <time>2017-05-28T08:08:29.000Z</time>
      </trkpt>
      <trkpt lat="45.8541" lon="6.254">
        <ele>1471.1999511719</ele>
        <time>2017-05-28T08:08:35.000Z</time>
      </trkpt>
      <trkpt lat="45.85413" lon="6.25395">
        <ele>1470.1999511719</ele>
        <time>2017-05-28T08:08:37.000Z</time>
      </trkpt>
      <trkpt lat="45.85428" lon="6.25383">
        <ele>1466.5999755859</ele>
        <time>2017-05-28T08:08:43.000Z</time>
      </trkpt>
      <trkpt lat="45.85444" lon="6.25375">
        <ele>1463.4000244141</ele>
        <time>2017-05-28T08:08:49.000Z</time>
      </trkpt>
      <trkpt lat="45.8545" lon="6.25372">
        <ele>1462.8000488281</ele>
        <time>2017-05-28T08:08:51.000Z</time>
      </trkpt>
      <trkpt lat="45.85466" lon="6.25361">
        <ele>1459.5999755859</ele>
        <time>2017-05-28T08:08:57.000Z</time>
      </trkpt>
      <trkpt lat="45.85472" lon="6.25358">
        <ele>1458.8000488281</ele>
        <time>2017-05-28T08:08:59.000Z</time>
      </trkpt>
      <trkpt lat="45.85489" lon="6.25347">
        <ele>1455.8000488281</ele>
        <time>2017-05-28T08:09:05.000Z</time>
      </trkpt>
      <trkpt lat="45.85507" lon="6.2533">
        <ele>1453</ele>
        <time>2017-05-28T08:09:12.000Z</time>
      </trkpt>
      <trkpt lat="45.8552" lon="6.25317">
        <ele>1450</ele>
        <time>2017-05-28T08:09:18.000Z</time>
      </trkpt>
      <trkpt lat="45.85523" lon="6.25315">
        <ele>1449.5999755859</ele>
        <time>2017-05-28T08:09:19.000Z</time>
      </trkpt>
      <trkpt lat="45.8554" lon="6.25299">
        <ele>1446.1999511719</ele>
        <time>2017-05-28T08:09:26.000Z</time>
      </trkpt>
      <trkpt lat="45.85554" lon="6.25283">
        <ele>1443.1999511719</ele>
        <time>2017-05-28T08:09:32.000Z</time>
      </trkpt>
      <trkpt lat="45.85556" lon="6.25279">
        <ele>1442.8000488281</ele>
        <time>2017-05-28T08:09:33.000Z</time>
      </trkpt>
      <trkpt lat="45.85572" lon="6.25261">
        <ele>1440</ele>
        <time>2017-05-28T08:09:40.000Z</time>
      </trkpt>
      <trkpt lat="45.85587" lon="6.25243">
        <ele>1437.8000488281</ele>
        <time>2017-05-28T08:09:46.000Z</time>
      </trkpt>
      <trkpt lat="45.85606" lon="6.2523">
        <ele>1435</ele>
        <time>2017-05-28T08:09:53.000Z</time>
      </trkpt>
      <trkpt lat="45.85623" lon="6.25219">
        <ele>1432.4000244141</ele>
        <time>2017-05-28T08:09:59.000Z</time>
      </trkpt>
      <trkpt lat="45.85637" lon="6.25205">
        <ele>1429</ele>
        <time>2017-05-28T08:10:05.000Z</time>
      </trkpt>
      <trkpt lat="45.85653" lon="6.25196">
        <ele>1425.8000488281</ele>
        <time>2017-05-28T08:10:11.000Z</time>
      </trkpt>
      <trkpt lat="45.85674" lon="6.25191">
        <ele>1423.1999511719</ele>
        <time>2017-05-28T08:10:18.000Z</time>
      </trkpt>
      <trkpt lat="45.85691" lon="6.25184">
        <ele>1420.1999511719</ele>
        <time>2017-05-28T08:10:24.000Z</time>
      </trkpt>
      <trkpt lat="45.85708" lon="6.25174">
        <ele>1417</ele>
        <time>2017-05-28T08:10:30.000Z</time>
      </trkpt>
      <trkpt lat="45.85717" lon="6.25168">
        <ele>1415.8000488281</ele>
        <time>2017-05-28T08:10:33.000Z</time>
      </trkpt>
      <trkpt lat="45.85732" lon="6.25163">
        <ele>1413.4000244141</ele>
        <time>2017-05-28T08:10:38.000Z</time>
      </trkpt>
      <trkpt lat="45.85752" lon="6.25153">
        <ele>1411</ele>
        <time>2017-05-28T08:10:45.000Z</time>
      </trkpt>
      <trkpt lat="45.85769" lon="6.25144">
        <ele>1408.4000244141</ele>
        <time>2017-05-28T08:10:51.000Z</time>
      </trkpt>
      <trkpt lat="45.85781" lon="6.25137">
        <ele>1405.4000244141</ele>
        <time>2017-05-28T08:10:55.000Z</time>
      </trkpt>
      <trkpt lat="45.858" lon="6.25124">
        <ele>1402.5999755859</ele>
        <time>2017-05-28T08:11:02.000Z</time>
      </trkpt>
      <trkpt lat="45.8581" lon="6.25119">
        <ele>1401</ele>
        <time>2017-05-28T08:11:06.000Z</time>
      </trkpt>
      <trkpt lat="45.85828" lon="6.25106">
        <ele>1398.5999755859</ele>
        <time>2017-05-28T08:11:13.000Z</time>
      </trkpt>
      <trkpt lat="45.85844" lon="6.25093">
        <ele>1396.1999511719</ele>
        <time>2017-05-28T08:11:20.000Z</time>
      </trkpt>
      <trkpt lat="45.85849" lon="6.25086">
        <ele>1395.4000244141</ele>
        <time>2017-05-28T08:11:24.000Z</time>
      </trkpt>
      <trkpt lat="45.8585" lon="6.25084">
        <ele>1395.1999511719</ele>
        <time>2017-05-28T08:11:25.000Z</time>
      </trkpt>
      <trkpt lat="45.85852" lon="6.25082">
        <ele>1395.5999755859</ele>
        <time>2017-05-28T08:11:26.000Z</time>
      </trkpt>
      <trkpt lat="45.85854" lon="6.2508">
        <ele>1395.8000488281</ele>
        <time>2017-05-28T08:11:27.000Z</time>
      </trkpt>
      <trkpt lat="45.85857" lon="6.25079">
        <ele>1395.8000488281</ele>
        <time>2017-05-28T08:11:28.000Z</time>
      </trkpt>
      <trkpt lat="45.85859" lon="6.25077">
        <ele>1395.5999755859</ele>
        <time>2017-05-28T08:11:29.000Z</time>
      </trkpt>
      <trkpt lat="45.85862" lon="6.25075">
        <ele>1395.5999755859</ele>
        <time>2017-05-28T08:11:30.000Z</time>
      </trkpt>
      <trkpt lat="45.85864" lon="6.25072">
        <ele>1395.5999755859</ele>
        <time>2017-05-28T08:11:31.000Z</time>
      </trkpt>
      <trkpt lat="45.85866" lon="6.25069">
        <ele>1395.8000488281</ele>
        <time>2017-05-28T08:11:32.000Z</time>
      </trkpt>
      <trkpt lat="45.8588" lon="6.2505">
        <ele>1396.1999511719</ele>
        <time>2017-05-28T08:11:39.000Z</time>
      </trkpt>
      <trkpt lat="45.85896" lon="6.25034">
        <ele>1396.4000244141</ele>
        <time>2017-05-28T08:11:47.000Z</time>
      </trkpt>
      <trkpt lat="45.85916" lon="6.25037">
        <ele>1395.8000488281</ele>
        <time>2017-05-28T08:11:55.000Z</time>
      </trkpt>
      <trkpt lat="45.85932" lon="6.25045">
        <ele>1392.4000244141</ele>
        <time>2017-05-28T08:12:01.000Z</time>
      </trkpt>
      <trkpt lat="45.85943" lon="6.25042">
        <ele>1389</ele>
        <time>2017-05-28T08:12:06.000Z</time>
      </trkpt>
      <trkpt lat="45.85944" lon="6.25039">
        <ele>1388.1999511719</ele>
        <time>2017-05-28T08:12:07.000Z</time>
      </trkpt>
      <trkpt lat="45.85945" lon="6.25036">
        <ele>1387.5999755859</ele>
        <time>2017-05-28T08:12:08.000Z</time>
      </trkpt>
      <trkpt lat="45.85954" lon="6.25025">
        <ele>1384.4000244141</ele>
        <time>2017-05-28T08:12:13.000Z</time>
      </trkpt>
      <trkpt lat="45.85967" lon="6.25026">
        <ele>1381.4000244141</ele>
        <time>2017-05-28T08:12:18.000Z</time>
      </trkpt>
      <trkpt lat="45.85976" lon="6.25024">
        <ele>1379.5999755859</ele>
        <time>2017-05-28T08:12:21.000Z</time>
      </trkpt>
      <trkpt lat="45.85993" lon="6.25013">
        <ele>1376</ele>
        <time>2017-05-28T08:12:28.000Z</time>
      </trkpt>
      <trkpt lat="45.86007" lon="6.25001">
        <ele>1372.4000244141</ele>
        <time>2017-05-28T08:12:34.000Z</time>
      </trkpt>
      <trkpt lat="45.86018" lon="6.24992">
        <ele>1369</ele>
        <time>2017-05-28T08:12:39.000Z</time>
      </trkpt>
      <trkpt lat="45.86031" lon="6.2498">
        <ele>1365.5999755859</ele>
        <time>2017-05-28T08:12:45.000Z</time>
      </trkpt>
      <trkpt lat="45.86038" lon="6.2496">
        <ele>1362.4000244141</ele>
        <time>2017-05-28T08:12:51.000Z</time>
      </trkpt>
      <trkpt lat="45.86042" lon="6.24938">
        <ele>1359.1999511719</ele>
        <time>2017-05-28T08:12:57.000Z</time>
      </trkpt>
      <trkpt lat="45.86048" lon="6.24914">
        <ele>1356.1999511719</ele>
        <time>2017-05-28T08:13:04.000Z</time>
      </trkpt>
      <trkpt lat="45.86054" lon="6.24893">
        <ele>1352.8000488281</ele>
        <time>2017-05-28T08:13:11.000Z</time>
      </trkpt>
      <trkpt lat="45.86055" lon="6.24893">
        <ele>1350.1999511719</ele>
        <time>2017-05-28T08:13:15.000Z</time>
      </trkpt>
      <trkpt lat="45.86054" lon="6.24894">
        <ele>1349.5999755859</ele>
        <time>2017-05-28T08:13:16.000Z</time>
      </trkpt>
      <trkpt lat="45.86051" lon="6.24893">
        <ele>1349.4000244141</ele>
        <time>2017-05-28T08:13:17.000Z</time>
      </trkpt>
      <trkpt lat="45.8605" lon="6.24895">
        <ele>1349</ele>
        <time>2017-05-28T08:13:18.000Z</time>
      </trkpt>
      <trkpt lat="45.86049" lon="6.24898">
        <ele>1348.5999755859</ele>
        <time>2017-05-28T08:13:19.000Z</time>
      </trkpt>
      <trkpt lat="45.86049" lon="6.24901">
        <ele>1348.1999511719</ele>
        <time>2017-05-28T08:13:20.000Z</time>
      </trkpt>
      <trkpt lat="45.86049" lon="6.24903">
        <ele>1347.8000488281</ele>
        <time>2017-05-28T08:13:21.000Z</time>
      </trkpt>
      <trkpt lat="45.86049" lon="6.24906">
        <ele>1347.5999755859</ele>
        <time>2017-05-28T08:13:22.000Z</time>
      </trkpt>
      <trkpt lat="45.86049" lon="6.24915">
        <ele>1344.1999511719</ele>
        <time>2017-05-28T08:13:26.000Z</time>
      </trkpt>
      <trkpt lat="45.86054" lon="6.24926">
        <ele>1342.8000488281</ele>
        <time>2017-05-28T08:13:29.000Z</time>
      </trkpt>
      <trkpt lat="45.86065" lon="6.24948">
        <ele>1339.4000244141</ele>
        <time>2017-05-28T08:13:35.000Z</time>
      </trkpt>
      <trkpt lat="45.86073" lon="6.24969">
        <ele>1336</ele>
        <time>2017-05-28T08:13:41.000Z</time>
      </trkpt>
      <trkpt lat="45.86076" lon="6.24981">
        <ele>1332.5999755859</ele>
        <time>2017-05-28T08:13:46.000Z</time>
      </trkpt>
      <trkpt lat="45.86083" lon="6.24998">
        <ele>1329.1999511719</ele>
        <time>2017-05-28T08:13:52.000Z</time>
      </trkpt>
      <trkpt lat="45.86086" lon="6.25">
        <ele>1328.8000488281</ele>
        <time>2017-05-28T08:13:53.000Z</time>
      </trkpt>
      <trkpt lat="45.86088" lon="6.24999">
        <ele>1327.8000488281</ele>
        <time>2017-05-28T08:13:54.000Z</time>
      </trkpt>
      <trkpt lat="45.8609" lon="6.24999">
        <ele>1327.1999511719</ele>
        <time>2017-05-28T08:13:55.000Z</time>
      </trkpt>
      <trkpt lat="45.8609" lon="6.24996">
        <ele>1326.8000488281</ele>
        <time>2017-05-28T08:13:56.000Z</time>
      </trkpt>
      <trkpt lat="45.86092" lon="6.24995">
        <ele>1326.1999511719</ele>
        <time>2017-05-28T08:13:57.000Z</time>
      </trkpt>
      <trkpt lat="45.86093" lon="6.24993">
        <ele>1325.5999755859</ele>
        <time>2017-05-28T08:13:58.000Z</time>
      </trkpt>
      <trkpt lat="45.86094" lon="6.24991">
        <ele>1325.1999511719</ele>
        <time>2017-05-28T08:13:59.000Z</time>
      </trkpt>
      <trkpt lat="45.86097" lon="6.24992">
        <ele>1324</ele>
        <time>2017-05-28T08:14:00.000Z</time>
      </trkpt>
      <trkpt lat="45.86099" lon="6.24991">
        <ele>1323.4000244141</ele>
        <time>2017-05-28T08:14:01.000Z</time>
      </trkpt>
      <trkpt lat="45.861" lon="6.2499">
        <ele>1322.5999755859</ele>
        <time>2017-05-28T08:14:02.000Z</time>
      </trkpt>
      <trkpt lat="45.86109" lon="6.24987">
        <ele>1318.8000488281</ele>
        <time>2017-05-28T08:14:07.000Z</time>
      </trkpt>
      <trkpt lat="45.86116" lon="6.24977">
        <ele>1315.1999511719</ele>
        <time>2017-05-28T08:14:13.000Z</time>
      </trkpt>
      <trkpt lat="45.8612" lon="6.24965">
        <ele>1312</ele>
        <time>2017-05-28T08:14:18.000Z</time>
      </trkpt>
      <trkpt lat="45.86124" lon="6.24958">
        <ele>1308.1999511719</ele>
        <time>2017-05-28T08:14:22.000Z</time>
      </trkpt>
      <trkpt lat="45.86129" lon="6.24951">
        <ele>1305.1999511719</ele>
        <time>2017-05-28T08:14:26.000Z</time>
      </trkpt>
      <trkpt lat="45.86137" lon="6.24942">
        <ele>1301.5999755859</ele>
        <time>2017-05-28T08:14:32.000Z</time>
      </trkpt>
      <trkpt lat="45.86143" lon="6.24928">
        <ele>1298.1999511719</ele>
        <time>2017-05-28T08:14:37.000Z</time>
      </trkpt>
      <trkpt lat="45.86144" lon="6.24928">
        <ele>1297.4000244141</ele>
        <time>2017-05-28T08:14:38.000Z</time>
      </trkpt>
      <trkpt lat="45.86145" lon="6.24927">
        <ele>1296.5999755859</ele>
        <time>2017-05-28T08:14:39.000Z</time>
      </trkpt>
      <trkpt lat="45.86147" lon="6.24926">
        <ele>1296</ele>
        <time>2017-05-28T08:14:40.000Z</time>
      </trkpt>
      <trkpt lat="45.86154" lon="6.24909">
        <ele>1292.8000488281</ele>
        <time>2017-05-28T08:14:45.000Z</time>
      </trkpt>
      <trkpt lat="45.86156" lon="6.24907">
        <ele>1292.4000244141</ele>
        <time>2017-05-28T08:14:46.000Z</time>
      </trkpt>
      <trkpt lat="45.86161" lon="6.24887">
        <ele>1289.1999511719</ele>
        <time>2017-05-28T08:14:52.000Z</time>
      </trkpt>
      <trkpt lat="45.8616" lon="6.24881">
        <ele>1288.8000488281</ele>
        <time>2017-05-28T08:14:53.000Z</time>
      </trkpt>
      <trkpt lat="45.86164" lon="6.24882">
        <ele>1288.1999511719</ele>
        <time>2017-05-28T08:14:54.000Z</time>
      </trkpt>
      <trkpt lat="45.86165" lon="6.24879">
        <ele>1288</ele>
        <time>2017-05-28T08:14:55.000Z</time>
      </trkpt>
      <trkpt lat="45.86167" lon="6.24878">
        <ele>1287.5999755859</ele>
        <time>2017-05-28T08:14:56.000Z</time>
      </trkpt>
      <trkpt lat="45.8617" lon="6.24872">
        <ele>1286.1999511719</ele>
        <time>2017-05-28T08:14:59.000Z</time>
      </trkpt>
      <trkpt lat="45.86181" lon="6.24857">
        <ele>1283</ele>
        <time>2017-05-28T08:15:05.000Z</time>
      </trkpt>
      <trkpt lat="45.86183" lon="6.24856">
        <ele>1282</ele>
        <time>2017-05-28T08:15:06.000Z</time>
      </trkpt>
      <trkpt lat="45.86185" lon="6.24854">
        <ele>1281.4000244141</ele>
        <time>2017-05-28T08:15:07.000Z</time>
      </trkpt>
      <trkpt lat="45.86188" lon="6.24854">
        <ele>1280.5999755859</ele>
        <time>2017-05-28T08:15:08.000Z</time>
      </trkpt>
      <trkpt lat="45.8619" lon="6.24853">
        <ele>1279.8000488281</ele>
        <time>2017-05-28T08:15:09.000Z</time>
      </trkpt>
      <trkpt lat="45.86192" lon="6.24852">
        <ele>1279</ele>
        <time>2017-05-28T08:15:10.000Z</time>
      </trkpt>
      <trkpt lat="45.86194" lon="6.24854">
        <ele>1278.4000244141</ele>
        <time>2017-05-28T08:15:11.000Z</time>
      </trkpt>
      <trkpt lat="45.86198" lon="6.24857">
        <ele>1277</ele>
        <time>2017-05-28T08:15:13.000Z</time>
      </trkpt>
      <trkpt lat="45.86201" lon="6.24863">
        <ele>1276.4000244141</ele>
        <time>2017-05-28T08:15:14.000Z</time>
      </trkpt>
      <trkpt lat="45.86211" lon="6.24878">
        <ele>1272.8000488281</ele>
        <time>2017-05-28T08:15:20.000Z</time>
      </trkpt>
      <trkpt lat="45.86225" lon="6.24904">
        <ele>1269.5999755859</ele>
        <time>2017-05-28T08:15:25.000Z</time>
      </trkpt>
      <trkpt lat="45.86226" lon="6.24912">
        <ele>1267.4000244141</ele>
        <time>2017-05-28T08:15:29.000Z</time>
      </trkpt>
      <trkpt lat="45.86227" lon="6.24915">
        <ele>1266.4000244141</ele>
        <time>2017-05-28T08:15:30.000Z</time>
      </trkpt>
      <trkpt lat="45.86229" lon="6.2492">
        <ele>1265.5999755859</ele>
        <time>2017-05-28T08:15:31.000Z</time>
      </trkpt>
      <trkpt lat="45.86229" lon="6.24923">
        <ele>1264.8000488281</ele>
        <time>2017-05-28T08:15:32.000Z</time>
      </trkpt>
      <trkpt lat="45.86228" lon="6.24923">
        <ele>1264</ele>
        <time>2017-05-28T08:15:33.000Z</time>
      </trkpt>
      <trkpt lat="45.86227" lon="6.24924">
        <ele>1263.1999511719</ele>
        <time>2017-05-28T08:15:34.000Z</time>
      </trkpt>
      <trkpt lat="45.86226" lon="6.24927">
        <ele>1263</ele>
        <time>2017-05-28T08:15:35.000Z</time>
      </trkpt>
      <trkpt lat="45.86225" lon="6.24929">
        <ele>1262.5999755859</ele>
        <time>2017-05-28T08:15:36.000Z</time>
      </trkpt>
      <trkpt lat="45.86224" lon="6.24932">
        <ele>1262</ele>
        <time>2017-05-28T08:15:37.000Z</time>
      </trkpt>
      <trkpt lat="45.86223" lon="6.24933">
        <ele>1261.1999511719</ele>
        <time>2017-05-28T08:15:38.000Z</time>
      </trkpt>
      <trkpt lat="45.86223" lon="6.24936">
        <ele>1260.5999755859</ele>
        <time>2017-05-28T08:15:39.000Z</time>
      </trkpt>
      <trkpt lat="45.86228" lon="6.2494">
        <ele>1258.8000488281</ele>
        <time>2017-05-28T08:15:42.000Z</time>
      </trkpt>
      <trkpt lat="45.86229" lon="6.24941">
        <ele>1258</ele>
        <time>2017-05-28T08:15:43.000Z</time>
      </trkpt>
      <trkpt lat="45.86231" lon="6.24942">
        <ele>1257.1999511719</ele>
        <time>2017-05-28T08:15:44.000Z</time>
      </trkpt>
      <trkpt lat="45.86232" lon="6.24943">
        <ele>1256.4000244141</ele>
        <time>2017-05-28T08:15:45.000Z</time>
      </trkpt>
      <trkpt lat="45.86233" lon="6.24943">
        <ele>1255.5999755859</ele>
        <time>2017-05-28T08:15:46.000Z</time>
      </trkpt>
      <trkpt lat="45.86235" lon="6.24944">
        <ele>1255</ele>
        <time>2017-05-28T08:15:47.000Z</time>
      </trkpt>
      <trkpt lat="45.86244" lon="6.24946">
        <ele>1251.5999755859</ele>
        <time>2017-05-28T08:15:51.000Z</time>
      </trkpt>
      <trkpt lat="45.86246" lon="6.24944">
        <ele>1250.8000488281</ele>
        <time>2017-05-28T08:15:53.000Z</time>
      </trkpt>
      <trkpt lat="45.86251" lon="6.2494">
        <ele>1247.5999755859</ele>
        <time>2017-05-28T08:15:58.000Z</time>
      </trkpt>
      <trkpt lat="45.86256" lon="6.24931">
        <ele>1243.8000488281</ele>
        <time>2017-05-28T08:16:03.000Z</time>
      </trkpt>
      <trkpt lat="45.86267" lon="6.24932">
        <ele>1240.4000244141</ele>
        <time>2017-05-28T08:16:08.000Z</time>
      </trkpt>
      <trkpt lat="45.86267" lon="6.24923">
        <ele>1237.1999511719</ele>
        <time>2017-05-28T08:16:12.000Z</time>
      </trkpt>
      <trkpt lat="45.86268" lon="6.24921">
        <ele>1236.5999755859</ele>
        <time>2017-05-28T08:16:13.000Z</time>
      </trkpt>
      <trkpt lat="45.86272" lon="6.24913">
        <ele>1233.4000244141</ele>
        <time>2017-05-28T08:16:18.000Z</time>
      </trkpt>
      <trkpt lat="45.86276" lon="6.249">
        <ele>1230</ele>
        <time>2017-05-28T08:16:23.000Z</time>
      </trkpt>
      <trkpt lat="45.86274" lon="6.24874">
        <ele>1226.5999755859</ele>
        <time>2017-05-28T08:16:28.000Z</time>
      </trkpt>
      <trkpt lat="45.86279" lon="6.2487">
        <ele>1224.8000488281</ele>
        <time>2017-05-28T08:16:32.000Z</time>
      </trkpt>
      <trkpt lat="45.86282" lon="6.24871">
        <ele>1223.5999755859</ele>
        <time>2017-05-28T08:16:34.000Z</time>
      </trkpt>
      <trkpt lat="45.86284" lon="6.24871">
        <ele>1223.1999511719</ele>
        <time>2017-05-28T08:16:35.000Z</time>
      </trkpt>
      <trkpt lat="45.86286" lon="6.24871">
        <ele>1222.5999755859</ele>
        <time>2017-05-28T08:16:36.000Z</time>
      </trkpt>
      <trkpt lat="45.86285" lon="6.24865">
        <ele>1221.8000488281</ele>
        <time>2017-05-28T08:16:38.000Z</time>
      </trkpt>
      <trkpt lat="45.86287" lon="6.24864">
        <ele>1219.5999755859</ele>
        <time>2017-05-28T08:16:42.000Z</time>
      </trkpt>
      <trkpt lat="45.86289" lon="6.24863">
        <ele>1219</ele>
        <time>2017-05-28T08:16:43.000Z</time>
      </trkpt>
      <trkpt lat="45.8629" lon="6.24862">
        <ele>1218.8000488281</ele>
        <time>2017-05-28T08:16:44.000Z</time>
      </trkpt>
      <trkpt lat="45.86294" lon="6.24865">
        <ele>1218</ele>
        <time>2017-05-28T08:16:45.000Z</time>
      </trkpt>
      <trkpt lat="45.86296" lon="6.24868">
        <ele>1217.5999755859</ele>
        <time>2017-05-28T08:16:46.000Z</time>
      </trkpt>
      <trkpt lat="45.86298" lon="6.24867">
        <ele>1217.4000244141</ele>
        <time>2017-05-28T08:16:47.000Z</time>
      </trkpt>
      <trkpt lat="45.86301" lon="6.24868">
        <ele>1216.5999755859</ele>
        <time>2017-05-28T08:16:48.000Z</time>
      </trkpt>
      <trkpt lat="45.86303" lon="6.24869">
        <ele>1216.1999511719</ele>
        <time>2017-05-28T08:16:49.000Z</time>
      </trkpt>
      <trkpt lat="45.86305" lon="6.2487">
        <ele>1215.8000488281</ele>
        <time>2017-05-28T08:16:50.000Z</time>
      </trkpt>
      <trkpt lat="45.86307" lon="6.24871">
        <ele>1215.4000244141</ele>
        <time>2017-05-28T08:16:51.000Z</time>
      </trkpt>
      <trkpt lat="45.86318" lon="6.2488">
        <ele>1213.4000244141</ele>
        <time>2017-05-28T08:16:56.000Z</time>
      </trkpt>
      <trkpt lat="45.86338" lon="6.24886">
        <ele>1210.1999511719</ele>
        <time>2017-05-28T08:17:03.000Z</time>
      </trkpt>
      <trkpt lat="45.8634" lon="6.24883">
        <ele>1209.5999755859</ele>
        <time>2017-05-28T08:17:04.000Z</time>
      </trkpt>
      <trkpt lat="45.86344" lon="6.24883">
        <ele>1209.4000244141</ele>
        <time>2017-05-28T08:17:05.000Z</time>
      </trkpt>
      <trkpt lat="45.86347" lon="6.24884">
        <ele>1209</ele>
        <time>2017-05-28T08:17:06.000Z</time>
      </trkpt>
      <trkpt lat="45.86355" lon="6.24883">
        <ele>1208</ele>
        <time>2017-05-28T08:17:08.000Z</time>
      </trkpt>
      <trkpt lat="45.86363" lon="6.24881">
        <ele>1206.1999511719</ele>
        <time>2017-05-28T08:17:11.000Z</time>
      </trkpt>
      <trkpt lat="45.86376" lon="6.24868">
        <ele>1204.4000244141</ele>
        <time>2017-05-28T08:17:20.000Z</time>
      </trkpt>
      <trkpt lat="45.86371" lon="6.24855">
        <ele>1204.1999511719</ele>
        <time>2017-05-28T08:17:22.000Z</time>
      </trkpt>
      <trkpt lat="45.86373" lon="6.24851">
        <ele>1204</ele>
        <time>2017-05-28T08:17:29.000Z</time>
      </trkpt>
      <trkpt lat="45.86375" lon="6.24853">
        <ele>1204</ele>
        <time>2017-05-28T08:17:30.000Z</time>
      </trkpt>
      <trkpt lat="45.86396" lon="6.24869">
        <ele>1203.8000488281</ele>
        <time>2017-05-28T08:17:39.000Z</time>
      </trkpt>
      <trkpt lat="45.86398" lon="6.24868">
        <ele>1203.8000488281</ele>
        <time>2017-05-28T08:17:40.000Z</time>
      </trkpt>
      <trkpt lat="45.864" lon="6.24867">
        <ele>1204</ele>
        <time>2017-05-28T08:17:48.000Z</time>
      </trkpt>
      <trkpt lat="45.86399" lon="6.24868">
        <ele>1204</ele>
        <time>2017-05-28T08:17:49.000Z</time>
      </trkpt>
      <trkpt lat="45.86386" lon="6.24849">
        <ele>1203.5999755859</ele>
        <time>2017-05-28T08:17:57.000Z</time>
      </trkpt>
      <trkpt lat="45.86385" lon="6.24848">
        <ele>1203.5999755859</ele>
        <time>2017-05-28T08:17:58.000Z</time>
      </trkpt>
      <trkpt lat="45.86386" lon="6.24844">
        <ele>1203.4000244141</ele>
        <time>2017-05-28T08:18:00.000Z</time>
      </trkpt>
      <trkpt lat="45.86386" lon="6.2484">
        <ele>1203.1999511719</ele>
        <time>2017-05-28T08:18:01.000Z</time>
      </trkpt>
      <trkpt lat="45.86388" lon="6.24837">
        <ele>1203.1999511719</ele>
        <time>2017-05-28T08:18:02.000Z</time>
      </trkpt>
      <trkpt lat="45.86389" lon="6.24835">
        <ele>1202.5999755859</ele>
        <time>2017-05-28T08:18:03.000Z</time>
      </trkpt>
      <trkpt lat="45.86392" lon="6.24834">
        <ele>1202</ele>
        <time>2017-05-28T08:18:04.000Z</time>
      </trkpt>
      <trkpt lat="45.86394" lon="6.24835">
        <ele>1201.5999755859</ele>
        <time>2017-05-28T08:18:05.000Z</time>
      </trkpt>
      <trkpt lat="45.86398" lon="6.24838">
        <ele>1201</ele>
        <time>2017-05-28T08:18:06.000Z</time>
      </trkpt>
      <trkpt lat="45.8642" lon="6.24844">
        <ele>1198.4000244141</ele>
        <time>2017-05-28T08:18:15.000Z</time>
      </trkpt>
      <trkpt lat="45.86429" lon="6.2485">
        <ele>1195.1999511719</ele>
        <time>2017-05-28T08:18:18.000Z</time>
      </trkpt>
      <trkpt lat="45.86438" lon="6.24857">
        <ele>1191.4000244141</ele>
        <time>2017-05-28T08:18:21.000Z</time>
      </trkpt>
      <trkpt lat="45.86457" lon="6.24866">
        <ele>1188</ele>
        <time>2017-05-28T08:18:27.000Z</time>
      </trkpt>
      <trkpt lat="45.86471" lon="6.24863">
        <ele>1184.8000488281</ele>
        <time>2017-05-28T08:18:33.000Z</time>
      </trkpt>
      <trkpt lat="45.86477" lon="6.24854">
        <ele>1183.1999511719</ele>
        <time>2017-05-28T08:18:36.000Z</time>
      </trkpt>
      <trkpt lat="45.86489" lon="6.24849">
        <ele>1179.5999755859</ele>
        <time>2017-05-28T08:18:41.000Z</time>
      </trkpt>
      <trkpt lat="45.86493" lon="6.2485">
        <ele>1179.5999755859</ele>
        <time>2017-05-28T08:18:42.000Z</time>
      </trkpt>
      <trkpt lat="45.86499" lon="6.24855">
        <ele>1177</ele>
        <time>2017-05-28T08:18:48.000Z</time>
      </trkpt>
      <trkpt lat="45.86499" lon="6.24865">
        <ele>1173.5999755859</ele>
        <time>2017-05-28T08:18:53.000Z</time>
      </trkpt>
      <trkpt lat="45.86504" lon="6.24884">
        <ele>1170.1999511719</ele>
        <time>2017-05-28T08:18:59.000Z</time>
      </trkpt>
      <trkpt lat="45.86508" lon="6.24901">
        <ele>1167.1999511719</ele>
        <time>2017-05-28T08:19:04.000Z</time>
      </trkpt>
      <trkpt lat="45.86507" lon="6.24918">
        <ele>1164.1999511719</ele>
        <time>2017-05-28T08:19:09.000Z</time>
      </trkpt>
      <trkpt lat="45.86511" lon="6.24932">
        <ele>1162.8000488281</ele>
        <time>2017-05-28T08:19:12.000Z</time>
      </trkpt>
      <trkpt lat="45.86521" lon="6.2496">
        <ele>1159.4000244141</ele>
        <time>2017-05-28T08:19:17.000Z</time>
      </trkpt>
      <trkpt lat="45.86533" lon="6.24985">
        <ele>1157.5999755859</ele>
        <time>2017-05-28T08:19:21.000Z</time>
      </trkpt>
      <trkpt lat="45.86536" lon="6.24992">
        <ele>1157.1999511719</ele>
        <time>2017-05-28T08:19:22.000Z</time>
      </trkpt>
      <trkpt lat="45.8654" lon="6.24997">
        <ele>1155.5999755859</ele>
        <time>2017-05-28T08:19:25.000Z</time>
      </trkpt>
      <trkpt lat="45.86539" lon="6.24992">
        <ele>1154</ele>
        <time>2017-05-28T08:19:27.000Z</time>
      </trkpt>
      <trkpt lat="45.8654" lon="6.2499">
        <ele>1153.4000244141</ele>
        <time>2017-05-28T08:19:28.000Z</time>
      </trkpt>
      <trkpt lat="45.8654" lon="6.24987">
        <ele>1153</ele>
        <time>2017-05-28T08:19:29.000Z</time>
      </trkpt>
      <trkpt lat="45.86541" lon="6.24985">
        <ele>1152.4000244141</ele>
        <time>2017-05-28T08:19:30.000Z</time>
      </trkpt>
      <trkpt lat="45.86541" lon="6.24983">
        <ele>1152</ele>
        <time>2017-05-28T08:19:31.000Z</time>
      </trkpt>
      <trkpt lat="45.86542" lon="6.24979">
        <ele>1151.4000244141</ele>
        <time>2017-05-28T08:19:32.000Z</time>
      </trkpt>
      <trkpt lat="45.86543" lon="6.24978">
        <ele>1150.4000244141</ele>
        <time>2017-05-28T08:19:33.000Z</time>
      </trkpt>
      <trkpt lat="45.86545" lon="6.24976">
        <ele>1150</ele>
        <time>2017-05-28T08:19:34.000Z</time>
      </trkpt>
      <trkpt lat="45.86548" lon="6.24976">
        <ele>1149.1999511719</ele>
        <time>2017-05-28T08:19:35.000Z</time>
      </trkpt>
      <trkpt lat="45.86549" lon="6.24974">
        <ele>1148.8000488281</ele>
        <time>2017-05-28T08:19:36.000Z</time>
      </trkpt>
      <trkpt lat="45.86554" lon="6.24961">
        <ele>1145.5999755859</ele>
        <time>2017-05-28T08:19:41.000Z</time>
      </trkpt>
      <trkpt lat="45.86563" lon="6.24945">
        <ele>1142.1999511719</ele>
        <time>2017-05-28T08:19:48.000Z</time>
      </trkpt>
      <trkpt lat="45.86572" lon="6.24935">
        <ele>1139</ele>
        <time>2017-05-28T08:19:53.000Z</time>
      </trkpt>
      <trkpt lat="45.86575" lon="6.24923">
        <ele>1137</ele>
        <time>2017-05-28T08:19:57.000Z</time>
      </trkpt>
      <trkpt lat="45.86579" lon="6.24915">
        <ele>1135.1999511719</ele>
        <time>2017-05-28T08:20:01.000Z</time>
      </trkpt>
      <trkpt lat="45.86581" lon="6.24914">
        <ele>1134.1999511719</ele>
        <time>2017-05-28T08:20:02.000Z</time>
      </trkpt>
      <trkpt lat="45.86583" lon="6.24913">
        <ele>1133.5999755859</ele>
        <time>2017-05-28T08:20:03.000Z</time>
      </trkpt>
      <trkpt lat="45.866" lon="6.24907">
        <ele>1130.4000244141</ele>
        <time>2017-05-28T08:20:10.000Z</time>
      </trkpt>
      <trkpt lat="45.86607" lon="6.24897">
        <ele>1127.1999511719</ele>
        <time>2017-05-28T08:20:14.000Z</time>
      </trkpt>
      <trkpt lat="45.86619" lon="6.24894">
        <ele>1123.5999755859</ele>
        <time>2017-05-28T08:20:21.000Z</time>
      </trkpt>
      <trkpt lat="45.86622" lon="6.24894">
        <ele>1123.1999511719</ele>
        <time>2017-05-28T08:20:22.000Z</time>
      </trkpt>
      <trkpt lat="45.86625" lon="6.24895">
        <ele>1122.4000244141</ele>
        <time>2017-05-28T08:20:23.000Z</time>
      </trkpt>
      <trkpt lat="45.86628" lon="6.24897">
        <ele>1122</ele>
        <time>2017-05-28T08:20:24.000Z</time>
      </trkpt>
      <trkpt lat="45.8663" lon="6.24898">
        <ele>1121.4000244141</ele>
        <time>2017-05-28T08:20:25.000Z</time>
      </trkpt>
      <trkpt lat="45.86647" lon="6.24902">
        <ele>1118</ele>
        <time>2017-05-28T08:20:31.000Z</time>
      </trkpt>
      <trkpt lat="45.86647" lon="6.24892">
        <ele>1117.1999511719</ele>
        <time>2017-05-28T08:20:33.000Z</time>
      </trkpt>
      <trkpt lat="45.8665" lon="6.24891">
        <ele>1116.8000488281</ele>
        <time>2017-05-28T08:20:34.000Z</time>
      </trkpt>
      <trkpt lat="45.86651" lon="6.24889">
        <ele>1115.8000488281</ele>
        <time>2017-05-28T08:20:35.000Z</time>
      </trkpt>
      <trkpt lat="45.86654" lon="6.24888">
        <ele>1115.4000244141</ele>
        <time>2017-05-28T08:20:36.000Z</time>
      </trkpt>
      <trkpt lat="45.86655" lon="6.24887">
        <ele>1115</ele>
        <time>2017-05-28T08:20:37.000Z</time>
      </trkpt>
      <trkpt lat="45.86673" lon="6.24893">
        <ele>1112</ele>
        <time>2017-05-28T08:20:43.000Z</time>
      </trkpt>
      <trkpt lat="45.8669" lon="6.24904">
        <ele>1108.5999755859</ele>
        <time>2017-05-28T08:20:48.000Z</time>
      </trkpt>
      <trkpt lat="45.86706" lon="6.24918">
        <ele>1104.8000488281</ele>
        <time>2017-05-28T08:20:54.000Z</time>
      </trkpt>
      <trkpt lat="45.86721" lon="6.24931">
        <ele>1101.8000488281</ele>
        <time>2017-05-28T08:20:59.000Z</time>
      </trkpt>
      <trkpt lat="45.86741" lon="6.24948">
        <ele>1100</ele>
        <time>2017-05-28T08:21:04.000Z</time>
      </trkpt>
      <trkpt lat="45.86749" lon="6.24945">
        <ele>1097.8000488281</ele>
        <time>2017-05-28T08:21:07.000Z</time>
      </trkpt>
      <trkpt lat="45.86751" lon="6.24942">
        <ele>1097.4000244141</ele>
        <time>2017-05-28T08:21:08.000Z</time>
      </trkpt>
      <trkpt lat="45.86754" lon="6.2494">
        <ele>1096.8000488281</ele>
        <time>2017-05-28T08:21:09.000Z</time>
      </trkpt>
      <trkpt lat="45.86757" lon="6.24938">
        <ele>1096.4000244141</ele>
        <time>2017-05-28T08:21:10.000Z</time>
      </trkpt>
      <trkpt lat="45.86759" lon="6.24936">
        <ele>1095.5999755859</ele>
        <time>2017-05-28T08:21:11.000Z</time>
      </trkpt>
      <trkpt lat="45.8676" lon="6.24932">
        <ele>1095.4000244141</ele>
        <time>2017-05-28T08:21:12.000Z</time>
      </trkpt>
      <trkpt lat="45.86765" lon="6.24918">
        <ele>1092.4000244141</ele>
        <time>2017-05-28T08:21:17.000Z</time>
      </trkpt>
      <trkpt lat="45.86767" lon="6.24914">
        <ele>1090.8000488281</ele>
        <time>2017-05-28T08:21:19.000Z</time>
      </trkpt>
      <trkpt lat="45.86778" lon="6.24911">
        <ele>1087.4000244141</ele>
        <time>2017-05-28T08:21:25.000Z</time>
      </trkpt>
      <trkpt lat="45.86785" lon="6.24905">
        <ele>1084.1999511719</ele>
        <time>2017-05-28T08:21:30.000Z</time>
      </trkpt>
      <trkpt lat="45.86792" lon="6.2489">
        <ele>1080.8000488281</ele>
        <time>2017-05-28T08:21:36.000Z</time>
      </trkpt>
      <trkpt lat="45.86801" lon="6.24871">
        <ele>1077.5999755859</ele>
        <time>2017-05-28T08:21:42.000Z</time>
      </trkpt>
      <trkpt lat="45.86812" lon="6.24852">
        <ele>1074.4000244141</ele>
        <time>2017-05-28T08:21:48.000Z</time>
      </trkpt>
      <trkpt lat="45.86821" lon="6.24848">
        <ele>1072</ele>
        <time>2017-05-28T08:21:51.000Z</time>
      </trkpt>
      <trkpt lat="45.86834" lon="6.24821">
        <ele>1068.5999755859</ele>
        <time>2017-05-28T08:21:58.000Z</time>
      </trkpt>
      <trkpt lat="45.86838" lon="6.24807">
        <ele>1066.8000488281</ele>
        <time>2017-05-28T08:22:02.000Z</time>
      </trkpt>
      <trkpt lat="45.86847" lon="6.24794">
        <ele>1063.5999755859</ele>
        <time>2017-05-28T08:22:08.000Z</time>
      </trkpt>
      <trkpt lat="45.8685" lon="6.24795">
        <ele>1063.1999511719</ele>
        <time>2017-05-28T08:22:09.000Z</time>
      </trkpt>
      <trkpt lat="45.86852" lon="6.24794">
        <ele>1062.8000488281</ele>
        <time>2017-05-28T08:22:10.000Z</time>
      </trkpt>
      <trkpt lat="45.86854" lon="6.24793">
        <ele>1062.1999511719</ele>
        <time>2017-05-28T08:22:11.000Z</time>
      </trkpt>
      <trkpt lat="45.86854" lon="6.24789">
        <ele>1061.4000244141</ele>
        <time>2017-05-28T08:22:12.000Z</time>
      </trkpt>
      <trkpt lat="45.86856" lon="6.24788">
        <ele>1060.5999755859</ele>
        <time>2017-05-28T08:22:13.000Z</time>
      </trkpt>
      <trkpt lat="45.86857" lon="6.24785">
        <ele>1059.8000488281</ele>
        <time>2017-05-28T08:22:14.000Z</time>
      </trkpt>
      <trkpt lat="45.8686" lon="6.24784">
        <ele>1059.1999511719</ele>
        <time>2017-05-28T08:22:15.000Z</time>
      </trkpt>
      <trkpt lat="45.86864" lon="6.24782">
        <ele>1058.1999511719</ele>
        <time>2017-05-28T08:22:17.000Z</time>
      </trkpt>
      <trkpt lat="45.8687" lon="6.24772">
        <ele>1054.5999755859</ele>
        <time>2017-05-28T08:22:22.000Z</time>
      </trkpt>
      <trkpt lat="45.8687" lon="6.24746">
        <ele>1051.4000244141</ele>
        <time>2017-05-28T08:22:28.000Z</time>
      </trkpt>
      <trkpt lat="45.86874" lon="6.24748">
        <ele>1051</ele>
        <time>2017-05-28T08:22:29.000Z</time>
      </trkpt>
      <trkpt lat="45.86877" lon="6.24749">
        <ele>1050.5999755859</ele>
        <time>2017-05-28T08:22:30.000Z</time>
      </trkpt>
      <trkpt lat="45.86881" lon="6.24752">
        <ele>1050</ele>
        <time>2017-05-28T08:22:31.000Z</time>
      </trkpt>
      <trkpt lat="45.86884" lon="6.24752">
        <ele>1049.4000244141</ele>
        <time>2017-05-28T08:22:32.000Z</time>
      </trkpt>
      <trkpt lat="45.86887" lon="6.24755">
        <ele>1049</ele>
        <time>2017-05-28T08:22:33.000Z</time>
      </trkpt>
      <trkpt lat="45.8689" lon="6.24758">
        <ele>1048.5999755859</ele>
        <time>2017-05-28T08:22:34.000Z</time>
      </trkpt>
      <trkpt lat="45.86891" lon="6.2476">
        <ele>1048.5999755859</ele>
        <time>2017-05-28T08:22:35.000Z</time>
      </trkpt>
      <trkpt lat="45.86893" lon="6.24761">
        <ele>1047.8000488281</ele>
        <time>2017-05-28T08:22:36.000Z</time>
      </trkpt>
      <trkpt lat="45.86901" lon="6.24757">
        <ele>1044.4000244141</ele>
        <time>2017-05-28T08:22:40.000Z</time>
      </trkpt>
      <trkpt lat="45.86913" lon="6.2475">
        <ele>1041.1999511719</ele>
        <time>2017-05-28T08:22:45.000Z</time>
      </trkpt>
      <trkpt lat="45.86926" lon="6.24741">
        <ele>1037.5999755859</ele>
        <time>2017-05-28T08:22:50.000Z</time>
      </trkpt>
      <trkpt lat="45.86935" lon="6.2474">
        <ele>1034.5999755859</ele>
        <time>2017-05-28T08:22:54.000Z</time>
      </trkpt>
      <trkpt lat="45.86953" lon="6.24739">
        <ele>1031.1999511719</ele>
        <time>2017-05-28T08:23:00.000Z</time>
      </trkpt>
      <trkpt lat="45.86959" lon="6.24737">
        <ele>1029.8000488281</ele>
        <time>2017-05-28T08:23:02.000Z</time>
      </trkpt>
      <trkpt lat="45.86972" lon="6.24733">
        <ele>1026.8000488281</ele>
        <time>2017-05-28T08:23:07.000Z</time>
      </trkpt>
      <trkpt lat="45.86984" lon="6.24731">
        <ele>1023.200012207</ele>
        <time>2017-05-28T08:23:12.000Z</time>
      </trkpt>
      <trkpt lat="45.86997" lon="6.24726">
        <ele>1019.799987793</ele>
        <time>2017-05-28T08:23:17.000Z</time>
      </trkpt>
      <trkpt lat="45.87015" lon="6.24722">
        <ele>1016.4000244141</ele>
        <time>2017-05-28T08:23:23.000Z</time>
      </trkpt>
      <trkpt lat="45.87025" lon="6.24718">
        <ele>1013.4000244141</ele>
        <time>2017-05-28T08:23:28.000Z</time>
      </trkpt>
      <trkpt lat="45.87038" lon="6.24716">
        <ele>1010.200012207</ele>
        <time>2017-05-28T08:23:33.000Z</time>
      </trkpt>
      <trkpt lat="45.8705" lon="6.24708">
        <ele>1007</ele>
        <time>2017-05-28T08:23:39.000Z</time>
      </trkpt>
      <trkpt lat="45.87054" lon="6.24701">
        <ele>1005.200012207</ele>
        <time>2017-05-28T08:23:42.000Z</time>
      </trkpt>
      <trkpt lat="45.87064" lon="6.24694">
        <ele>1002</ele>
        <time>2017-05-28T08:23:47.000Z</time>
      </trkpt>
      <trkpt lat="45.87066" lon="6.24692">
        <ele>1001.799987793</ele>
        <time>2017-05-28T08:23:48.000Z</time>
      </trkpt>
      <trkpt lat="45.87076" lon="6.24683">
        <ele>998.79998779297</ele>
        <time>2017-05-28T08:23:52.000Z</time>
      </trkpt>
      <trkpt lat="45.87084" lon="6.24667">
        <ele>995</ele>
        <time>2017-05-28T08:23:57.000Z</time>
      </trkpt>
      <trkpt lat="45.87094" lon="6.24654">
        <ele>991.59997558594</ele>
        <time>2017-05-28T08:24:02.000Z</time>
      </trkpt>
      <trkpt lat="45.87104" lon="6.2464">
        <ele>988.40002441406</ele>
        <time>2017-05-28T08:24:07.000Z</time>
      </trkpt>
      <trkpt lat="45.87109" lon="6.24626">
        <ele>985.40002441406</ele>
        <time>2017-05-28T08:24:13.000Z</time>
      </trkpt>
      <trkpt lat="45.87108" lon="6.24622">
        <ele>985.20001220703</ele>
        <time>2017-05-28T08:24:14.000Z</time>
      </trkpt>
      <trkpt lat="45.87107" lon="6.2462">
        <ele>985</ele>
        <time>2017-05-28T08:24:15.000Z</time>
      </trkpt>
      <trkpt lat="45.87107" lon="6.24619">
        <ele>984.79998779297</ele>
        <time>2017-05-28T08:24:16.000Z</time>
      </trkpt>
      <trkpt lat="45.87107" lon="6.24616">
        <ele>984</ele>
        <time>2017-05-28T08:24:22.000Z</time>
      </trkpt>
      <trkpt lat="45.87108" lon="6.24616">
        <ele>984</ele>
        <time>2017-05-28T08:24:23.000Z</time>
      </trkpt>
      <trkpt lat="45.87109" lon="6.24615">
        <ele>984</ele>
        <time>2017-05-28T08:24:24.000Z</time>
      </trkpt>
      <trkpt lat="45.87109" lon="6.24615">
        <ele>983.59997558594</ele>
        <time>2017-05-28T08:24:25.000Z</time>
      </trkpt>
      <trkpt lat="45.87111" lon="6.24613">
        <ele>982.59997558594</ele>
        <time>2017-05-28T08:24:29.000Z</time>
      </trkpt>
      <trkpt lat="45.87112" lon="6.24612">
        <ele>982.20001220703</ele>
        <time>2017-05-28T08:24:30.000Z</time>
      </trkpt>
      <trkpt lat="45.87114" lon="6.24611">
        <ele>981.79998779297</ele>
        <time>2017-05-28T08:24:31.000Z</time>
      </trkpt>
      <trkpt lat="45.87116" lon="6.24611">
        <ele>981.40002441406</ele>
        <time>2017-05-28T08:24:32.000Z</time>
      </trkpt>
      <trkpt lat="45.87118" lon="6.2461">
        <ele>980.59997558594</ele>
        <time>2017-05-28T08:24:33.000Z</time>
      </trkpt>
      <trkpt lat="45.87119" lon="6.24608">
        <ele>980</ele>
        <time>2017-05-28T08:24:34.000Z</time>
      </trkpt>
      <trkpt lat="45.87127" lon="6.24605">
        <ele>976.40002441406</ele>
        <time>2017-05-28T08:24:40.000Z</time>
      </trkpt>
      <trkpt lat="45.87137" lon="6.24604">
        <ele>973</ele>
        <time>2017-05-28T08:24:45.000Z</time>
      </trkpt>
      <trkpt lat="45.87147" lon="6.24601">
        <ele>969.40002441406</ele>
        <time>2017-05-28T08:24:50.000Z</time>
      </trkpt>
      <trkpt lat="45.87155" lon="6.24597">
        <ele>966</ele>
        <time>2017-05-28T08:24:55.000Z</time>
      </trkpt>
      <trkpt lat="45.87158" lon="6.24596">
        <ele>965.40002441406</ele>
        <time>2017-05-28T08:24:56.000Z</time>
      </trkpt>
      <trkpt lat="45.87172" lon="6.24592">
        <ele>962</ele>
        <time>2017-05-28T08:25:01.000Z</time>
      </trkpt>
      <trkpt lat="45.8718" lon="6.24586">
        <ele>959.59997558594</ele>
        <time>2017-05-28T08:25:05.000Z</time>
      </trkpt>
      <trkpt lat="45.87183" lon="6.24583">
        <ele>959.20001220703</ele>
        <time>2017-05-28T08:25:06.000Z</time>
      </trkpt>
      <trkpt lat="45.87196" lon="6.24576">
        <ele>956</ele>
        <time>2017-05-28T08:25:10.000Z</time>
      </trkpt>
      <trkpt lat="45.87204" lon="6.24569">
        <ele>952.59997558594</ele>
        <time>2017-05-28T08:25:14.000Z</time>
      </trkpt>
      <trkpt lat="45.87212" lon="6.24561">
        <ele>949.59997558594</ele>
        <time>2017-05-28T08:25:18.000Z</time>
      </trkpt>
      <trkpt lat="45.87225" lon="6.24554">
        <ele>946.20001220703</ele>
        <time>2017-05-28T08:25:23.000Z</time>
      </trkpt>
      <trkpt lat="45.87234" lon="6.24549">
        <ele>942.79998779297</ele>
        <time>2017-05-28T08:25:27.000Z</time>
      </trkpt>
      <trkpt lat="45.87242" lon="6.24541">
        <ele>939.20001220703</ele>
        <time>2017-05-28T08:25:32.000Z</time>
      </trkpt>
      <trkpt lat="45.87249" lon="6.24531">
        <ele>935.59997558594</ele>
        <time>2017-05-28T08:25:37.000Z</time>
      </trkpt>
      <trkpt lat="45.87256" lon="6.2452">
        <ele>932</ele>
        <time>2017-05-28T08:25:42.000Z</time>
      </trkpt>
      <trkpt lat="45.87264" lon="6.24516">
        <ele>928.79998779297</ele>
        <time>2017-05-28T08:25:46.000Z</time>
      </trkpt>
      <trkpt lat="45.87273" lon="6.2451">
        <ele>925.20001220703</ele>
        <time>2017-05-28T08:25:51.000Z</time>
      </trkpt>
      <trkpt lat="45.87281" lon="6.24507">
        <ele>921.79998779297</ele>
        <time>2017-05-28T08:25:55.000Z</time>
      </trkpt>
      <trkpt lat="45.87288" lon="6.24504">
        <ele>918.79998779297</ele>
        <time>2017-05-28T08:25:59.000Z</time>
      </trkpt>
      <trkpt lat="45.87295" lon="6.24501">
        <ele>915.20001220703</ele>
        <time>2017-05-28T08:26:03.000Z</time>
      </trkpt>
      <trkpt lat="45.87302" lon="6.24496">
        <ele>911.59997558594</ele>
        <time>2017-05-28T08:26:07.000Z</time>
      </trkpt>
      <trkpt lat="45.87316" lon="6.24493">
        <ele>908.20001220703</ele>
        <time>2017-05-28T08:26:11.000Z</time>
      </trkpt>
      <trkpt lat="45.87327" lon="6.24489">
        <ele>905</ele>
        <time>2017-05-28T08:26:15.000Z</time>
      </trkpt>
      <trkpt lat="45.8734" lon="6.24484">
        <ele>901</ele>
        <time>2017-05-28T08:26:19.000Z</time>
      </trkpt>
      <trkpt lat="45.87351" lon="6.24473">
        <ele>897.59997558594</ele>
        <time>2017-05-28T08:26:24.000Z</time>
      </trkpt>
      <trkpt lat="45.87359" lon="6.24465">
        <ele>894</ele>
        <time>2017-05-28T08:26:29.000Z</time>
      </trkpt>
      <trkpt lat="45.87359" lon="6.24461">
        <ele>893.20001220703</ele>
        <time>2017-05-28T08:26:30.000Z</time>
      </trkpt>
      <trkpt lat="45.87357" lon="6.24453">
        <ele>892</ele>
        <time>2017-05-28T08:26:31.000Z</time>
      </trkpt>
      <trkpt lat="45.87355" lon="6.24435">
        <ele>889.40002441406</ele>
        <time>2017-05-28T08:26:35.000Z</time>
      </trkpt>
      <trkpt lat="45.87356" lon="6.24433">
        <ele>889</ele>
        <time>2017-05-28T08:26:36.000Z</time>
      </trkpt>
      <trkpt lat="45.87358" lon="6.2443">
        <ele>888.40002441406</ele>
        <time>2017-05-28T08:26:37.000Z</time>
      </trkpt>
      <trkpt lat="45.8736" lon="6.24428">
        <ele>887.79998779297</ele>
        <time>2017-05-28T08:26:38.000Z</time>
      </trkpt>
      <trkpt lat="45.87362" lon="6.24426">
        <ele>887</ele>
        <time>2017-05-28T08:26:39.000Z</time>
      </trkpt>
      <trkpt lat="45.87365" lon="6.24424">
        <ele>886.40002441406</ele>
        <time>2017-05-28T08:26:40.000Z</time>
      </trkpt>
      <trkpt lat="45.87366" lon="6.24421">
        <ele>886</ele>
        <time>2017-05-28T08:26:41.000Z</time>
      </trkpt>
      <trkpt lat="45.87368" lon="6.2442">
        <ele>885.40002441406</ele>
        <time>2017-05-28T08:26:42.000Z</time>
      </trkpt>
      <trkpt lat="45.8737" lon="6.24416">
        <ele>884.59997558594</ele>
        <time>2017-05-28T08:26:43.000Z</time>
      </trkpt>
      <trkpt lat="45.87373" lon="6.24416">
        <ele>884.20001220703</ele>
        <time>2017-05-28T08:26:44.000Z</time>
      </trkpt>
      <trkpt lat="45.87375" lon="6.24413">
        <ele>883.40002441406</ele>
        <time>2017-05-28T08:26:45.000Z</time>
      </trkpt>
      <trkpt lat="45.87378" lon="6.24413">
        <ele>882.79998779297</ele>
        <time>2017-05-28T08:26:46.000Z</time>
      </trkpt>
      <trkpt lat="45.8738" lon="6.24412">
        <ele>882.40002441406</ele>
        <time>2017-05-28T08:26:47.000Z</time>
      </trkpt>
      <trkpt lat="45.87382" lon="6.24413">
        <ele>881.79998779297</ele>
        <time>2017-05-28T08:26:48.000Z</time>
      </trkpt>
      <trkpt lat="45.87385" lon="6.24414">
        <ele>881</ele>
        <time>2017-05-28T08:26:49.000Z</time>
      </trkpt>
      <trkpt lat="45.87398" lon="6.24412">
        <ele>877.79998779297</ele>
        <time>2017-05-28T08:26:54.000Z</time>
      </trkpt>
      <trkpt lat="45.87405" lon="6.24406">
        <ele>874.40002441406</ele>
        <time>2017-05-28T08:26:58.000Z</time>
      </trkpt>
      <trkpt lat="45.8741" lon="6.24398">
        <ele>871.20001220703</ele>
        <time>2017-05-28T08:27:03.000Z</time>
      </trkpt>
      <trkpt lat="45.87412" lon="6.24387">
        <ele>868</ele>
        <time>2017-05-28T08:27:07.000Z</time>
      </trkpt>
      <trkpt lat="45.87417" lon="6.24376">
        <ele>864</ele>
        <time>2017-05-28T08:27:13.000Z</time>
      </trkpt>
      <trkpt lat="45.87424" lon="6.24371">
        <ele>860.59997558594</ele>
        <time>2017-05-28T08:27:18.000Z</time>
      </trkpt>
      <trkpt lat="45.87433" lon="6.24364">
        <ele>857.40002441406</ele>
        <time>2017-05-28T08:27:22.000Z</time>
      </trkpt>
      <trkpt lat="45.87443" lon="6.24355">
        <ele>853.79998779297</ele>
        <time>2017-05-28T08:27:27.000Z</time>
      </trkpt>
      <trkpt lat="45.87452" lon="6.24345">
        <ele>850.20001220703</ele>
        <time>2017-05-28T08:27:32.000Z</time>
      </trkpt>
      <trkpt lat="45.87461" lon="6.24338">
        <ele>846.79998779297</ele>
        <time>2017-05-28T08:27:37.000Z</time>
      </trkpt>
      <trkpt lat="45.87475" lon="6.24332">
        <ele>843.20001220703</ele>
        <time>2017-05-28T08:27:42.000Z</time>
      </trkpt>
      <trkpt lat="45.87488" lon="6.24329">
        <ele>839.79998779297</ele>
        <time>2017-05-28T08:27:46.000Z</time>
      </trkpt>
      <trkpt lat="45.87495" lon="6.24318">
        <ele>836</ele>
        <time>2017-05-28T08:27:51.000Z</time>
      </trkpt>
      <trkpt lat="45.87507" lon="6.24308">
        <ele>832.79998779297</ele>
        <time>2017-05-28T08:27:56.000Z</time>
      </trkpt>
      <trkpt lat="45.8751" lon="6.24307">
        <ele>831.79998779297</ele>
        <time>2017-05-28T08:27:57.000Z</time>
      </trkpt>
      <trkpt lat="45.87512" lon="6.24305">
        <ele>831.20001220703</ele>
        <time>2017-05-28T08:27:58.000Z</time>
      </trkpt>
      <trkpt lat="45.87515" lon="6.24304">
        <ele>830.59997558594</ele>
        <time>2017-05-28T08:27:59.000Z</time>
      </trkpt>
      <trkpt lat="45.87518" lon="6.24304">
        <ele>830</ele>
        <time>2017-05-28T08:28:00.000Z</time>
      </trkpt>
      <trkpt lat="45.87535" lon="6.243">
        <ele>825.79998779297</ele>
        <time>2017-05-28T08:28:06.000Z</time>
      </trkpt>
      <trkpt lat="45.87553" lon="6.24292">
        <ele>822.20001220703</ele>
        <time>2017-05-28T08:28:12.000Z</time>
      </trkpt>
      <trkpt lat="45.87567" lon="6.24285">
        <ele>819</ele>
        <time>2017-05-28T08:28:17.000Z</time>
      </trkpt>
      <trkpt lat="45.8758" lon="6.24283">
        <ele>816</ele>
        <time>2017-05-28T08:28:22.000Z</time>
      </trkpt>
      <trkpt lat="45.87587" lon="6.24269">
        <ele>812.20001220703</ele>
        <time>2017-05-28T08:28:27.000Z</time>
      </trkpt>
      <trkpt lat="45.8759" lon="6.24264">
        <ele>811.20001220703</ele>
        <time>2017-05-28T08:28:29.000Z</time>
      </trkpt>
      <trkpt lat="45.87602" lon="6.24253">
        <ele>807.79998779297</ele>
        <time>2017-05-28T08:28:34.000Z</time>
      </trkpt>
      <trkpt lat="45.87616" lon="6.24238">
        <ele>804.59997558594</ele>
        <time>2017-05-28T08:28:40.000Z</time>
      </trkpt>
      <trkpt lat="45.87625" lon="6.24228">
        <ele>803</ele>
        <time>2017-05-28T08:28:44.000Z</time>
      </trkpt>
      <trkpt lat="45.87627" lon="6.24226">
        <ele>802.40002441406</ele>
        <time>2017-05-28T08:28:45.000Z</time>
      </trkpt>
      <trkpt lat="45.8763" lon="6.24223">
        <ele>802.20001220703</ele>
        <time>2017-05-28T08:28:46.000Z</time>
      </trkpt>
      <trkpt lat="45.87632" lon="6.24221">
        <ele>802.20001220703</ele>
        <time>2017-05-28T08:28:47.000Z</time>
      </trkpt>
      <trkpt lat="45.87635" lon="6.24218">
        <ele>802</ele>
        <time>2017-05-28T08:28:48.000Z</time>
      </trkpt>
      <trkpt lat="45.87654" lon="6.24192">
        <ele>800.20001220703</ele>
        <time>2017-05-28T08:28:57.000Z</time>
      </trkpt>
      <trkpt lat="45.87676" lon="6.24147">
        <ele>799</ele>
        <time>2017-05-28T08:29:16.000Z</time>
      </trkpt>
      <trkpt lat="45.8769" lon="6.24109">
        <ele>798.79998779297</ele>
        <time>2017-05-28T08:29:36.000Z</time>
      </trkpt>
      <trkpt lat="45.87691" lon="6.24107">
        <ele>798.79998779297</ele>
        <time>2017-05-28T08:29:37.000Z</time>
      </trkpt>
      <trkpt lat="45.87702" lon="6.24077">
        <ele>796.40002441406</ele>
        <time>2017-05-28T08:29:56.000Z</time>
      </trkpt>
      <trkpt lat="45.87703" lon="6.24076">
        <ele>796.40002441406</ele>
        <time>2017-05-28T08:29:57.000Z</time>
      </trkpt>
      <trkpt lat="45.87704" lon="6.24075">
        <ele>796.20001220703</ele>
        <time>2017-05-28T08:29:58.000Z</time>
      </trkpt>
      <trkpt lat="45.87706" lon="6.24072">
        <ele>796</ele>
        <time>2017-05-28T08:29:59.000Z</time>
      </trkpt>
      <trkpt lat="45.87706" lon="6.2407">
        <ele>795.79998779297</ele>
        <time>2017-05-28T08:30:00.000Z</time>
      </trkpt>
      <trkpt lat="45.87707" lon="6.24068">
        <ele>795.59997558594</ele>
        <time>2017-05-28T08:30:01.000Z</time>
      </trkpt>
      <trkpt lat="45.87708" lon="6.24066">
        <ele>795.59997558594</ele>
        <time>2017-05-28T08:30:02.000Z</time>
      </trkpt>
      <trkpt lat="45.87725" lon="6.24043">
        <ele>792.59997558594</ele>
        <time>2017-05-28T08:30:18.000Z</time>
      </trkpt>
      <trkpt lat="45.87732" lon="6.2403">
        <ele>789.79998779297</ele>
        <time>2017-05-28T08:30:28.000Z</time>
      </trkpt>
      <trkpt lat="45.87732" lon="6.24024">
        <ele>789.40002441406</ele>
        <time>2017-05-28T08:30:40.000Z</time>
      </trkpt>
      <trkpt lat="45.87733" lon="6.24022">
        <ele>789.20001220703</ele>
        <time>2017-05-28T08:30:41.000Z</time>
      </trkpt>
      <trkpt lat="45.87735" lon="6.24021">
        <ele>789</ele>
        <time>2017-05-28T08:30:42.000Z</time>
      </trkpt>
      <trkpt lat="45.87744" lon="6.2401">
        <ele>785.79998779297</ele>
        <time>2017-05-28T08:30:52.000Z</time>
      </trkpt>
      <trkpt lat="45.87745" lon="6.24009">
        <ele>785.79998779297</ele>
        <time>2017-05-28T08:30:53.000Z</time>
      </trkpt>
      <trkpt lat="45.87758" lon="6.23987">
        <ele>782.20001220703</ele>
        <time>2017-05-28T08:31:02.000Z</time>
      </trkpt>
      <trkpt lat="45.87764" lon="6.2397">
        <ele>779.20001220703</ele>
        <time>2017-05-28T08:31:08.000Z</time>
      </trkpt>
      <trkpt lat="45.87768" lon="6.23949">
        <ele>776</ele>
        <time>2017-05-28T08:31:15.000Z</time>
      </trkpt>
      <trkpt lat="45.87773" lon="6.23935">
        <ele>774.40002441406</ele>
        <time>2017-05-28T08:31:18.000Z</time>
      </trkpt>
      <trkpt lat="45.87773" lon="6.23929">
        <ele>773.79998779297</ele>
        <time>2017-05-28T08:31:19.000Z</time>
      </trkpt>
      <trkpt lat="45.87775" lon="6.23926">
        <ele>773.20001220703</ele>
        <time>2017-05-28T08:31:20.000Z</time>
      </trkpt>
      <trkpt lat="45.87776" lon="6.23922">
        <ele>773</ele>
        <time>2017-05-28T08:31:21.000Z</time>
      </trkpt>
      <trkpt lat="45.8778" lon="6.23897">
        <ele>769.79998779297</ele>
        <time>2017-05-28T08:31:27.000Z</time>
      </trkpt>
      <trkpt lat="45.8778" lon="6.23882">
        <ele>768</ele>
        <time>2017-05-28T08:31:31.000Z</time>
      </trkpt>
      <trkpt lat="45.87785" lon="6.23857">
        <ele>765</ele>
        <time>2017-05-28T08:31:39.000Z</time>
      </trkpt>
      <trkpt lat="45.87782" lon="6.2381">
        <ele>762.20001220703</ele>
        <time>2017-05-28T08:31:51.000Z</time>
      </trkpt>
      <trkpt lat="45.87769" lon="6.2378">
        <ele>759.20001220703</ele>
        <time>2017-05-28T08:32:00.000Z</time>
      </trkpt>
      <trkpt lat="45.87754" lon="6.23745">
        <ele>757.59997558594</ele>
        <time>2017-05-28T08:32:08.000Z</time>
      </trkpt>
      <trkpt lat="45.87753" lon="6.23738">
        <ele>757.59997558594</ele>
        <time>2017-05-28T08:32:10.000Z</time>
      </trkpt>
      <trkpt lat="45.87753" lon="6.23735">
        <ele>757.79998779297</ele>
        <time>2017-05-28T08:32:11.000Z</time>
      </trkpt>
      <trkpt lat="45.87751" lon="6.23726">
        <ele>757.79998779297</ele>
        <time>2017-05-28T08:32:16.000Z</time>
      </trkpt>
      <trkpt lat="45.8775" lon="6.23723">
        <ele>757.40002441406</ele>
        <time>2017-05-28T08:32:19.000Z</time>
      </trkpt>
      <trkpt lat="45.87751" lon="6.23716">
        <ele>757.40002441406</ele>
        <time>2017-05-28T08:32:24.000Z</time>
      </trkpt>
      <trkpt lat="45.87753" lon="6.23705">
        <ele>757.59997558594</ele>
        <time>2017-05-28T08:32:30.000Z</time>
      </trkpt>
      <trkpt lat="45.87752" lon="6.23695">
        <ele>757.79998779297</ele>
        <time>2017-05-28T08:32:37.000Z</time>
      </trkpt>
      <trkpt lat="45.8775" lon="6.23693">
        <ele>757.59997558594</ele>
        <time>2017-05-28T08:32:39.000Z</time>
      </trkpt>
      <trkpt lat="45.8775" lon="6.23688">
        <ele>757.40002441406</ele>
        <time>2017-05-28T08:32:45.000Z</time>
      </trkpt>
      <trkpt lat="45.87751" lon="6.23688">
        <ele>758</ele>
        <time>2017-05-28T08:32:49.000Z</time>
      </trkpt>
      <trkpt lat="45.87753" lon="6.23689">
        <ele>758</ele>
        <time>2017-05-28T08:32:56.000Z</time>
      </trkpt>
      <trkpt lat="45.87755" lon="6.2369">
        <ele>757.59997558594</ele>
        <time>2017-05-28T08:32:59.000Z</time>
      </trkpt>
      <trkpt lat="45.87758" lon="6.2369">
        <ele>757.40002441406</ele>
        <time>2017-05-28T08:33:03.000Z</time>
      </trkpt>
      <trkpt lat="45.8776" lon="6.2369">
        <ele>757.20001220703</ele>
        <time>2017-05-28T08:33:04.000Z</time>
      </trkpt>
      <trkpt lat="45.87762" lon="6.2369">
        <ele>757</ele>
        <time>2017-05-28T08:33:05.000Z</time>
      </trkpt>
      <trkpt lat="45.87765" lon="6.23691">
        <ele>756.79998779297</ele>
        <time>2017-05-28T08:33:06.000Z</time>
      </trkpt>
      <trkpt lat="45.87768" lon="6.23691">
        <ele>756.59997558594</ele>
        <time>2017-05-28T08:33:07.000Z</time>
      </trkpt>
      <trkpt lat="45.87771" lon="6.23691">
        <ele>756.40002441406</ele>
        <time>2017-05-28T08:33:08.000Z</time>
      </trkpt>
      <trkpt lat="45.87774" lon="6.2369">
        <ele>756</ele>
        <time>2017-05-28T08:33:09.000Z</time>
      </trkpt>
      <trkpt lat="45.8779" lon="6.23691">
        <ele>753.40002441406</ele>
        <time>2017-05-28T08:33:19.000Z</time>
      </trkpt>
      <trkpt lat="45.87813" lon="6.23685">
        <ele>753.20001220703</ele>
        <time>2017-05-28T08:33:27.000Z</time>
      </trkpt>
      <trkpt lat="45.87829" lon="6.23661">
        <ele>752.59997558594</ele>
        <time>2017-05-28T08:33:35.000Z</time>
      </trkpt>
      <trkpt lat="45.87829" lon="6.23657">
        <ele>752.59997558594</ele>
        <time>2017-05-28T08:33:36.000Z</time>
      </trkpt>
      <trkpt lat="45.87826" lon="6.23627">
        <ele>752.59997558594</ele>
        <time>2017-05-28T08:33:43.000Z</time>
      </trkpt>
      <trkpt lat="45.87821" lon="6.23596">
        <ele>752.20001220703</ele>
        <time>2017-05-28T08:33:51.000Z</time>
      </trkpt>
      <trkpt lat="45.8781" lon="6.2357">
        <ele>752</ele>
        <time>2017-05-28T08:33:59.000Z</time>
      </trkpt>
      <trkpt lat="45.87802" lon="6.23545">
        <ele>752</ele>
        <time>2017-05-28T08:34:09.000Z</time>
      </trkpt>
      <trkpt lat="45.87801" lon="6.23533">
        <ele>752</ele>
        <time>2017-05-28T08:34:18.000Z</time>
      </trkpt>
      <trkpt lat="45.878" lon="6.23531">
        <ele>752</ele>
        <time>2017-05-28T08:34:19.000Z</time>
      </trkpt>
      <trkpt lat="45.87799" lon="6.23528">
        <ele>752</ele>
        <time>2017-05-28T08:34:20.000Z</time>
      </trkpt>
      <trkpt lat="45.87798" lon="6.23525">
        <ele>752.20001220703</ele>
        <time>2017-05-28T08:34:21.000Z</time>
      </trkpt>
      <trkpt lat="45.87798" lon="6.23521">
        <ele>752.20001220703</ele>
        <time>2017-05-28T08:34:22.000Z</time>
      </trkpt>
      <trkpt lat="45.87798" lon="6.23516">
        <ele>752</ele>
        <time>2017-05-28T08:34:23.000Z</time>
      </trkpt>
      <trkpt lat="45.87794" lon="6.23497">
        <ele>752.20001220703</ele>
        <time>2017-05-28T08:34:30.000Z</time>
      </trkpt>
      <trkpt lat="45.87794" lon="6.23495">
        <ele>752.20001220703</ele>
        <time>2017-05-28T08:34:31.000Z</time>
      </trkpt>
      <trkpt lat="45.87794" lon="6.23493">
        <ele>752.40002441406</ele>
        <time>2017-05-28T08:34:32.000Z</time>
      </trkpt>
      <trkpt lat="45.87794" lon="6.2349">
        <ele>752.40002441406</ele>
        <time>2017-05-28T08:34:33.000Z</time>
      </trkpt>
      <trkpt lat="45.87794" lon="6.23489">
        <ele>752.59997558594</ele>
        <time>2017-05-28T08:34:34.000Z</time>
      </trkpt>
      <trkpt lat="45.87794" lon="6.23486">
        <ele>752.59997558594</ele>
        <time>2017-05-28T08:34:35.000Z</time>
      </trkpt>
      <trkpt lat="45.87795" lon="6.23485">
        <ele>752.79998779297</ele>
        <time>2017-05-28T08:34:36.000Z</time>
      </trkpt>
      <trkpt lat="45.87795" lon="6.23483">
        <ele>752.79998779297</ele>
        <time>2017-05-28T08:34:37.000Z</time>
      </trkpt>
      <trkpt lat="45.87795" lon="6.23482">
        <ele>752.79998779297</ele>
        <time>2017-05-28T08:34:38.000Z</time>
      </trkpt>
      <trkpt lat="45.87795" lon="6.23479">
        <ele>752.79998779297</ele>
        <time>2017-05-28T08:34:39.000Z</time>
      </trkpt>
      <trkpt lat="45.87795" lon="6.23476">
        <ele>753.20001220703</ele>
        <time>2017-05-28T08:34:40.000Z</time>
      </trkpt>
      <trkpt lat="45.87796" lon="6.23473">
        <ele>753.40002441406</ele>
        <time>2017-05-28T08:34:41.000Z</time>
      </trkpt>
      <trkpt lat="45.87797" lon="6.2347">
        <ele>753.20001220703</ele>
        <time>2017-05-28T08:34:42.000Z</time>
      </trkpt>
      <trkpt lat="45.87815" lon="6.23439">
        <ele>753</ele>
        <time>2017-05-28T08:34:52.000Z</time>
      </trkpt>
      <trkpt lat="45.87833" lon="6.23417">
        <ele>752.40002441406</ele>
        <time>2017-05-28T08:35:00.000Z</time>
      </trkpt>
      <trkpt lat="45.87845" lon="6.23391">
        <ele>750.40002441406</ele>
        <time>2017-05-28T08:35:07.000Z</time>
      </trkpt>
      <trkpt lat="45.87856" lon="6.23365">
        <ele>749.59997558594</ele>
        <time>2017-05-28T08:35:14.000Z</time>
      </trkpt>
      <trkpt lat="45.87864" lon="6.23335">
        <ele>747.79998779297</ele>
        <time>2017-05-28T08:35:22.000Z</time>
      </trkpt>
      <trkpt lat="45.87874" lon="6.23309">
        <ele>746.79998779297</ele>
        <time>2017-05-28T08:35:29.000Z</time>
      </trkpt>
      <trkpt lat="45.87884" lon="6.2328">
        <ele>746.20001220703</ele>
        <time>2017-05-28T08:35:37.000Z</time>
      </trkpt>
      <trkpt lat="45.8789" lon="6.23245">
        <ele>745.79998779297</ele>
        <time>2017-05-28T08:35:45.000Z</time>
      </trkpt>
      <trkpt lat="45.87901" lon="6.23217">
        <ele>746.40002441406</ele>
        <time>2017-05-28T08:35:52.000Z</time>
      </trkpt>
      <trkpt lat="45.8791" lon="6.23191">
        <ele>746.40002441406</ele>
        <time>2017-05-28T08:35:59.000Z</time>
      </trkpt>
      <trkpt lat="45.8792" lon="6.23166">
        <ele>747</ele>
        <time>2017-05-28T08:36:06.000Z</time>
      </trkpt>
      <trkpt lat="45.8793" lon="6.23141">
        <ele>746.79998779297</ele>
        <time>2017-05-28T08:36:14.000Z</time>
      </trkpt>
      <trkpt lat="45.87942" lon="6.23115">
        <ele>746.59997558594</ele>
        <time>2017-05-28T08:36:21.000Z</time>
      </trkpt>
      <trkpt lat="45.87954" lon="6.2309">
        <ele>746.79998779297</ele>
        <time>2017-05-28T08:36:28.000Z</time>
      </trkpt>
      <trkpt lat="45.87969" lon="6.23071">
        <ele>747.59997558594</ele>
        <time>2017-05-28T08:36:36.000Z</time>
      </trkpt>
      <trkpt lat="45.87979" lon="6.23047">
        <ele>747.79998779297</ele>
        <time>2017-05-28T08:36:43.000Z</time>
      </trkpt>
      <trkpt lat="45.87988" lon="6.23022">
        <ele>747.20001220703</ele>
        <time>2017-05-28T08:36:50.000Z</time>
      </trkpt>
      <trkpt lat="45.87996" lon="6.22996">
        <ele>747.40002441406</ele>
        <time>2017-05-28T08:36:57.000Z</time>
      </trkpt>
      <trkpt lat="45.88009" lon="6.22978">
        <ele>747</ele>
        <time>2017-05-28T08:37:09.000Z</time>
      </trkpt>
      <trkpt lat="45.88011" lon="6.22971">
        <ele>747.20001220703</ele>
        <time>2017-05-28T08:37:46.000Z</time>
      </trkpt>
      <trkpt lat="45.88013" lon="6.22966">
        <ele>747.20001220703</ele>
        <time>2017-05-28T08:38:07.000Z</time>
      </trkpt>
      <trkpt lat="45.88012" lon="6.22965">
        <ele>747.20001220703</ele>
        <time>2017-05-28T08:38:08.000Z</time>
      </trkpt>
      <trkpt lat="45.88015" lon="6.22968">
        <ele>747</ele>
        <time>2017-05-28T08:38:25.000Z</time>
      </trkpt>
      <trkpt lat="45.8801" lon="6.22969">
        <ele>747</ele>
        <time>2017-05-28T08:39:23.000Z</time>
      </trkpt>
      <trkpt lat="45.88007" lon="6.22971">
        <ele>747.40002441406</ele>
        <time>2017-05-28T08:39:53.000Z</time>
      </trkpt>
      <trkpt lat="45.88006" lon="6.22971">
        <ele>747.40002441406</ele>
        <time>2017-05-28T08:39:54.000Z</time>
      </trkpt>
      <trkpt lat="45.88005" lon="6.2297">
        <ele>747.40002441406</ele>
        <time>2017-05-28T08:40:15.000Z</time>
      </trkpt>
      <trkpt lat="45.88007" lon="6.2297">
        <ele>747.20001220703</ele>
        <time>2017-05-28T08:40:35.000Z</time>
      </trkpt>
      <trkpt lat="45.88006" lon="6.22974">
        <ele>747.20001220703</ele>
        <time>2017-05-28T08:40:49.000Z</time>
      </trkpt>
      <trkpt lat="45.88006" lon="6.22976">
        <ele>747.20001220703</ele>
        <time>2017-05-28T08:40:50.000Z</time>
      </trkpt>
      <trkpt lat="45.88009" lon="6.22965">
        <ele>747</ele>
        <time>2017-05-28T08:41:09.000Z</time>
      </trkpt>
      <trkpt lat="45.88009" lon="6.22963">
        <ele>747</ele>
        <time>2017-05-28T08:41:10.000Z</time>
      </trkpt>
      <trkpt lat="45.88009" lon="6.22962">
        <ele>746.79998779297</ele>
        <time>2017-05-28T08:41:11.000Z</time>
      </trkpt>
      <trkpt lat="45.88009" lon="6.22949">
        <ele>747.40002441406</ele>
        <time>2017-05-28T08:41:19.000Z</time>
      </trkpt>
      <trkpt lat="45.8801" lon="6.22948">
        <ele>747.20001220703</ele>
        <time>2017-05-28T08:41:20.000Z</time>
      </trkpt>
      <trkpt lat="45.8801" lon="6.22946">
        <ele>747.20001220703</ele>
        <time>2017-05-28T08:41:21.000Z</time>
      </trkpt>
      <trkpt lat="45.88009" lon="6.22931">
        <ele>747.79998779297</ele>
        <time>2017-05-28T08:41:28.000Z</time>
      </trkpt>
      <trkpt lat="45.88008" lon="6.22929">
        <ele>747.79998779297</ele>
        <time>2017-05-28T08:41:29.000Z</time>
      </trkpt>
      <trkpt lat="45.88008" lon="6.22927">
        <ele>747.79998779297</ele>
        <time>2017-05-28T08:41:30.000Z</time>
      </trkpt>
      <trkpt lat="45.88008" lon="6.22926">
        <ele>747.59997558594</ele>
        <time>2017-05-28T08:41:31.000Z</time>
      </trkpt>
      <trkpt lat="45.88008" lon="6.22925">
        <ele>747.40002441406</ele>
        <time>2017-05-28T08:41:32.000Z</time>
      </trkpt>
      <trkpt lat="45.87999" lon="6.22895">
        <ele>748</ele>
        <time>2017-05-28T08:41:50.000Z</time>
      </trkpt>
      <trkpt lat="45.87995" lon="6.22884">
        <ele>749</ele>
        <time>2017-05-28T08:41:56.000Z</time>
      </trkpt>
      <trkpt lat="45.87994" lon="6.22882">
        <ele>749</ele>
        <time>2017-05-28T08:41:57.000Z</time>
      </trkpt>
      <trkpt lat="45.87983" lon="6.22857">
        <ele>751.79998779297</ele>
        <time>2017-05-28T08:42:11.000Z</time>
      </trkpt>
      <trkpt lat="45.87969" lon="6.22837">
        <ele>755</ele>
        <time>2017-05-28T08:42:27.000Z</time>
      </trkpt>
      <trkpt lat="45.87967" lon="6.22835">
        <ele>755.59997558594</ele>
        <time>2017-05-28T08:42:29.000Z</time>
      </trkpt>
      <trkpt lat="45.87953" lon="6.22829">
        <ele>758.59997558594</ele>
        <time>2017-05-28T08:42:41.000Z</time>
      </trkpt>
      <trkpt lat="45.87952" lon="6.22829">
        <ele>759</ele>
        <time>2017-05-28T08:42:42.000Z</time>
      </trkpt>
      <trkpt lat="45.87948" lon="6.22829">
        <ele>760</ele>
        <time>2017-05-28T08:42:46.000Z</time>
      </trkpt>
      <trkpt lat="45.87946" lon="6.22828">
        <ele>760.40002441406</ele>
        <time>2017-05-28T08:42:47.000Z</time>
      </trkpt>
      <trkpt lat="45.87929" lon="6.22825">
        <ele>763.59997558594</ele>
        <time>2017-05-28T08:43:00.000Z</time>
      </trkpt>
      <trkpt lat="45.87924" lon="6.22821">
        <ele>764.79998779297</ele>
        <time>2017-05-28T08:43:05.000Z</time>
      </trkpt>
      <trkpt lat="45.87923" lon="6.2282">
        <ele>765</ele>
        <time>2017-05-28T08:43:06.000Z</time>
      </trkpt>
      <trkpt lat="45.87922" lon="6.22819">
        <ele>765.20001220703</ele>
        <time>2017-05-28T08:43:07.000Z</time>
      </trkpt>
      <trkpt lat="45.87922" lon="6.22817">
        <ele>765.79998779297</ele>
        <time>2017-05-28T08:43:09.000Z</time>
      </trkpt>
      <trkpt lat="45.87921" lon="6.22816">
        <ele>766.20001220703</ele>
        <time>2017-05-28T08:43:10.000Z</time>
      </trkpt>
      <trkpt lat="45.87904" lon="6.22793">
        <ele>769.20001220703</ele>
        <time>2017-05-28T08:43:27.000Z</time>
      </trkpt>
      <trkpt lat="45.87887" lon="6.22776">
        <ele>772.20001220703</ele>
        <time>2017-05-28T08:43:41.000Z</time>
      </trkpt>
      <trkpt lat="45.87879" lon="6.22773">
        <ele>773.20001220703</ele>
        <time>2017-05-28T08:43:47.000Z</time>
      </trkpt>
      <trkpt lat="45.87878" lon="6.22773">
        <ele>773.20001220703</ele>
        <time>2017-05-28T08:43:48.000Z</time>
      </trkpt>
      <trkpt lat="45.87877" lon="6.22773">
        <ele>773.40002441406</ele>
        <time>2017-05-28T08:43:49.000Z</time>
      </trkpt>
      <trkpt lat="45.87877" lon="6.22771">
        <ele>773.59997558594</ele>
        <time>2017-05-28T08:43:50.000Z</time>
      </trkpt>
      <trkpt lat="45.87876" lon="6.22771">
        <ele>773.79998779297</ele>
        <time>2017-05-28T08:43:51.000Z</time>
      </trkpt>
      <trkpt lat="45.87874" lon="6.2277">
        <ele>774.40002441406</ele>
        <time>2017-05-28T08:43:53.000Z</time>
      </trkpt>
      <trkpt lat="45.87873" lon="6.2277">
        <ele>774.79998779297</ele>
        <time>2017-05-28T08:43:54.000Z</time>
      </trkpt>
      <trkpt lat="45.87872" lon="6.22771">
        <ele>775</ele>
        <time>2017-05-28T08:43:55.000Z</time>
      </trkpt>
      <trkpt lat="45.87871" lon="6.22772">
        <ele>775.20001220703</ele>
        <time>2017-05-28T08:43:56.000Z</time>
      </trkpt>
      <trkpt lat="45.8787" lon="6.22772">
        <ele>775.40002441406</ele>
        <time>2017-05-28T08:43:57.000Z</time>
      </trkpt>
      <trkpt lat="45.87869" lon="6.22772">
        <ele>775.59997558594</ele>
        <time>2017-05-28T08:43:58.000Z</time>
      </trkpt>
      <trkpt lat="45.87868" lon="6.22772">
        <ele>776</ele>
        <time>2017-05-28T08:43:59.000Z</time>
      </trkpt>
      <trkpt lat="45.87867" lon="6.22772">
        <ele>776</ele>
        <time>2017-05-28T08:44:00.000Z</time>
      </trkpt>
      <trkpt lat="45.87858" lon="6.22774">
        <ele>777.20001220703</ele>
        <time>2017-05-28T08:44:06.000Z</time>
      </trkpt>
      <trkpt lat="45.87857" lon="6.22773">
        <ele>777.40002441406</ele>
        <time>2017-05-28T08:44:07.000Z</time>
      </trkpt>
      <trkpt lat="45.87855" lon="6.22772">
        <ele>777.40002441406</ele>
        <time>2017-05-28T08:44:08.000Z</time>
      </trkpt>
      <trkpt lat="45.87837" lon="6.22766">
        <ele>778.40002441406</ele>
        <time>2017-05-28T08:44:20.000Z</time>
      </trkpt>
      <trkpt lat="45.8782" lon="6.22752">
        <ele>778.40002441406</ele>
        <time>2017-05-28T08:44:32.000Z</time>
      </trkpt>
      <trkpt lat="45.87802" lon="6.22737">
        <ele>779</ele>
        <time>2017-05-28T08:44:46.000Z</time>
      </trkpt>
      <trkpt lat="45.87789" lon="6.22717">
        <ele>781</ele>
        <time>2017-05-28T08:45:02.000Z</time>
      </trkpt>
      <trkpt lat="45.87771" lon="6.22681">
        <ele>782.40002441406</ele>
        <time>2017-05-28T08:45:17.000Z</time>
      </trkpt>
      <trkpt lat="45.87758" lon="6.22653">
        <ele>784.20001220703</ele>
        <time>2017-05-28T08:45:31.000Z</time>
      </trkpt>
      <trkpt lat="45.87754" lon="6.22645">
        <ele>784.40002441406</ele>
        <time>2017-05-28T08:45:35.000Z</time>
      </trkpt>
      <trkpt lat="45.87753" lon="6.22643">
        <ele>784.40002441406</ele>
        <time>2017-05-28T08:45:36.000Z</time>
      </trkpt>
      <trkpt lat="45.87752" lon="6.22641">
        <ele>784.59997558594</ele>
        <time>2017-05-28T08:45:37.000Z</time>
      </trkpt>
      <trkpt lat="45.87745" lon="6.22631">
        <ele>785</ele>
        <time>2017-05-28T08:45:43.000Z</time>
      </trkpt>
      <trkpt lat="45.87744" lon="6.22629">
        <ele>785</ele>
        <time>2017-05-28T08:45:44.000Z</time>
      </trkpt>
      <trkpt lat="45.87742" lon="6.22628">
        <ele>785.20001220703</ele>
        <time>2017-05-28T08:45:45.000Z</time>
      </trkpt>
      <trkpt lat="45.8774" lon="6.22624">
        <ele>785.40002441406</ele>
        <time>2017-05-28T08:45:47.000Z</time>
      </trkpt>
      <trkpt lat="45.87739" lon="6.22622">
        <ele>785.59997558594</ele>
        <time>2017-05-28T08:45:48.000Z</time>
      </trkpt>
      <trkpt lat="45.87738" lon="6.22621">
        <ele>785.79998779297</ele>
        <time>2017-05-28T08:45:49.000Z</time>
      </trkpt>
      <trkpt lat="45.87736" lon="6.22619">
        <ele>785.79998779297</ele>
        <time>2017-05-28T08:45:50.000Z</time>
      </trkpt>
      <trkpt lat="45.87735" lon="6.22617">
        <ele>785.79998779297</ele>
        <time>2017-05-28T08:45:51.000Z</time>
      </trkpt>
      <trkpt lat="45.87718" lon="6.22599">
        <ele>785.79998779297</ele>
        <time>2017-05-28T08:46:02.000Z</time>
      </trkpt>
      <trkpt lat="45.877" lon="6.22585">
        <ele>787.79998779297</ele>
        <time>2017-05-28T08:46:14.000Z</time>
      </trkpt>
      <trkpt lat="45.8768" lon="6.22579">
        <ele>789</ele>
        <time>2017-05-28T08:46:26.000Z</time>
      </trkpt>
      <trkpt lat="45.87661" lon="6.22574">
        <ele>791.40002441406</ele>
        <time>2017-05-28T08:46:40.000Z</time>
      </trkpt>
      <trkpt lat="45.87649" lon="6.2257">
        <ele>793</ele>
        <time>2017-05-28T08:46:50.000Z</time>
      </trkpt>
      <trkpt lat="45.87639" lon="6.22567">
        <ele>794.59997558594</ele>
        <time>2017-05-28T08:46:59.000Z</time>
      </trkpt>
      <trkpt lat="45.8762" lon="6.22551">
        <ele>797.59997558594</ele>
        <time>2017-05-28T08:47:14.000Z</time>
      </trkpt>
      <trkpt lat="45.87596" lon="6.22537">
        <ele>800.20001220703</ele>
        <time>2017-05-28T08:47:31.000Z</time>
      </trkpt>
      <trkpt lat="45.87594" lon="6.22536">
        <ele>800.20001220703</ele>
        <time>2017-05-28T08:47:32.000Z</time>
      </trkpt>
      <trkpt lat="45.87593" lon="6.22535">
        <ele>800.40002441406</ele>
        <time>2017-05-28T08:47:33.000Z</time>
      </trkpt>
      <trkpt lat="45.87592" lon="6.22533">
        <ele>800.40002441406</ele>
        <time>2017-05-28T08:47:34.000Z</time>
      </trkpt>
      <trkpt lat="45.8759" lon="6.22531">
        <ele>800.59997558594</ele>
        <time>2017-05-28T08:47:35.000Z</time>
      </trkpt>
      <trkpt lat="45.87589" lon="6.2253">
        <ele>800.79998779297</ele>
        <time>2017-05-28T08:47:36.000Z</time>
      </trkpt>
      <trkpt lat="45.87587" lon="6.22528">
        <ele>801</ele>
        <time>2017-05-28T08:47:37.000Z</time>
      </trkpt>
      <trkpt lat="45.87586" lon="6.22526">
        <ele>801</ele>
        <time>2017-05-28T08:47:38.000Z</time>
      </trkpt>
      <trkpt lat="45.87584" lon="6.22524">
        <ele>801.20001220703</ele>
        <time>2017-05-28T08:47:39.000Z</time>
      </trkpt>
      <trkpt lat="45.87581" lon="6.22524">
        <ele>801.40002441406</ele>
        <time>2017-05-28T08:47:40.000Z</time>
      </trkpt>
      <trkpt lat="45.8758" lon="6.22523">
        <ele>801.40002441406</ele>
        <time>2017-05-28T08:47:41.000Z</time>
      </trkpt>
      <trkpt lat="45.87578" lon="6.22522">
        <ele>801.40002441406</ele>
        <time>2017-05-28T08:47:42.000Z</time>
      </trkpt>
      <trkpt lat="45.87577" lon="6.2252">
        <ele>801.79998779297</ele>
        <time>2017-05-28T08:47:43.000Z</time>
      </trkpt>
      <trkpt lat="45.87575" lon="6.22519">
        <ele>801.79998779297</ele>
        <time>2017-05-28T08:47:44.000Z</time>
      </trkpt>
      <trkpt lat="45.87573" lon="6.22518">
        <ele>802</ele>
        <time>2017-05-28T08:47:45.000Z</time>
      </trkpt>
      <trkpt lat="45.87571" lon="6.22517">
        <ele>802</ele>
        <time>2017-05-28T08:47:46.000Z</time>
      </trkpt>
      <trkpt lat="45.87547" lon="6.22503">
        <ele>801.79998779297</ele>
        <time>2017-05-28T08:47:56.000Z</time>
      </trkpt>
      <trkpt lat="45.87526" lon="6.22487">
        <ele>802.20001220703</ele>
        <time>2017-05-28T08:48:04.000Z</time>
      </trkpt>
      <trkpt lat="45.87504" lon="6.22471">
        <ele>802.20001220703</ele>
        <time>2017-05-28T08:48:13.000Z</time>
      </trkpt>
      <trkpt lat="45.87481" lon="6.22458">
        <ele>801.79998779297</ele>
        <time>2017-05-28T08:48:22.000Z</time>
      </trkpt>
      <trkpt lat="45.87461" lon="6.22444">
        <ele>800</ele>
        <time>2017-05-28T08:48:31.000Z</time>
      </trkpt>
      <trkpt lat="45.87447" lon="6.22438">
        <ele>798</ele>
        <time>2017-05-28T08:48:36.000Z</time>
      </trkpt>
      <trkpt lat="45.87419" lon="6.22444">
        <ele>795.59997558594</ele>
        <time>2017-05-28T08:48:46.000Z</time>
      </trkpt>
      <trkpt lat="45.87396" lon="6.22453">
        <ele>793</ele>
        <time>2017-05-28T08:48:54.000Z</time>
      </trkpt>
      <trkpt lat="45.87381" lon="6.22446">
        <ele>790.59997558594</ele>
        <time>2017-05-28T08:48:58.000Z</time>
      </trkpt>
      <trkpt lat="45.87379" lon="6.22444">
        <ele>790.59997558594</ele>
        <time>2017-05-28T08:48:59.000Z</time>
      </trkpt>
      <trkpt lat="45.87372" lon="6.22442">
        <ele>790.40002441406</ele>
        <time>2017-05-28T08:49:03.000Z</time>
      </trkpt>
      <trkpt lat="45.8737" lon="6.22444">
        <ele>790.40002441406</ele>
        <time>2017-05-28T08:49:04.000Z</time>
      </trkpt>
      <trkpt lat="45.87369" lon="6.22445">
        <ele>790.40002441406</ele>
        <time>2017-05-28T08:49:05.000Z</time>
      </trkpt>
      <trkpt lat="45.87366" lon="6.22446">
        <ele>790.40002441406</ele>
        <time>2017-05-28T08:49:06.000Z</time>
      </trkpt>
      <trkpt lat="45.87363" lon="6.22448">
        <ele>790.59997558594</ele>
        <time>2017-05-28T08:49:07.000Z</time>
      </trkpt>
      <trkpt lat="45.87358" lon="6.22448">
        <ele>791.40002441406</ele>
        <time>2017-05-28T08:49:09.000Z</time>
      </trkpt>
      <trkpt lat="45.87355" lon="6.22447">
        <ele>791.59997558594</ele>
        <time>2017-05-28T08:49:10.000Z</time>
      </trkpt>
      <trkpt lat="45.87353" lon="6.22446">
        <ele>791.79998779297</ele>
        <time>2017-05-28T08:49:11.000Z</time>
      </trkpt>
      <trkpt lat="45.87352" lon="6.22445">
        <ele>791.79998779297</ele>
        <time>2017-05-28T08:49:12.000Z</time>
      </trkpt>
      <trkpt lat="45.8735" lon="6.22443">
        <ele>792</ele>
        <time>2017-05-28T08:49:13.000Z</time>
      </trkpt>
      <trkpt lat="45.87347" lon="6.22442">
        <ele>792.20001220703</ele>
        <time>2017-05-28T08:49:14.000Z</time>
      </trkpt>
      <trkpt lat="45.87333" lon="6.22414">
        <ele>791.59997558594</ele>
        <time>2017-05-28T08:49:25.000Z</time>
      </trkpt>
      <trkpt lat="45.87319" lon="6.22396">
        <ele>788.40002441406</ele>
        <time>2017-05-28T08:49:32.000Z</time>
      </trkpt>
      <trkpt lat="45.87306" lon="6.2237">
        <ele>786</ele>
        <time>2017-05-28T08:49:39.000Z</time>
      </trkpt>
      <trkpt lat="45.87298" lon="6.22339">
        <ele>783.59997558594</ele>
        <time>2017-05-28T08:49:47.000Z</time>
      </trkpt>
      <trkpt lat="45.87291" lon="6.22306">
        <ele>780.79998779297</ele>
        <time>2017-05-28T08:49:54.000Z</time>
      </trkpt>
      <trkpt lat="45.87284" lon="6.22276">
        <ele>777.79998779297</ele>
        <time>2017-05-28T08:50:00.000Z</time>
      </trkpt>
      <trkpt lat="45.87277" lon="6.22248">
        <ele>776.20001220703</ele>
        <time>2017-05-28T08:50:07.000Z</time>
      </trkpt>
      <trkpt lat="45.87269" lon="6.22219">
        <ele>774.20001220703</ele>
        <time>2017-05-28T08:50:14.000Z</time>
      </trkpt>
      <trkpt lat="45.87262" lon="6.22189">
        <ele>771.40002441406</ele>
        <time>2017-05-28T08:50:21.000Z</time>
      </trkpt>
      <trkpt lat="45.8725" lon="6.22172">
        <ele>768.20001220703</ele>
        <time>2017-05-28T08:50:27.000Z</time>
      </trkpt>
      <trkpt lat="45.87237" lon="6.22164">
        <ele>765</ele>
        <time>2017-05-28T08:50:32.000Z</time>
      </trkpt>
      <trkpt lat="45.87227" lon="6.22162">
        <ele>762</ele>
        <time>2017-05-28T08:50:36.000Z</time>
      </trkpt>
      <trkpt lat="45.87212" lon="6.22163">
        <ele>759.79998779297</ele>
        <time>2017-05-28T08:50:41.000Z</time>
      </trkpt>
      <trkpt lat="45.87198" lon="6.22166">
        <ele>756.40002441406</ele>
        <time>2017-05-28T08:50:45.000Z</time>
      </trkpt>
      <trkpt lat="45.87187" lon="6.22169">
        <ele>753</ele>
        <time>2017-05-28T08:50:48.000Z</time>
      </trkpt>
      <trkpt lat="45.8717" lon="6.22159">
        <ele>750</ele>
        <time>2017-05-28T08:50:53.000Z</time>
      </trkpt>
      <trkpt lat="45.87168" lon="6.22156">
        <ele>749.20001220703</ele>
        <time>2017-05-28T08:50:54.000Z</time>
      </trkpt>
      <trkpt lat="45.87166" lon="6.22157">
        <ele>748.40002441406</ele>
        <time>2017-05-28T08:50:55.000Z</time>
      </trkpt>
      <trkpt lat="45.87163" lon="6.22155">
        <ele>747.40002441406</ele>
        <time>2017-05-28T08:50:56.000Z</time>
      </trkpt>
      <trkpt lat="45.8716" lon="6.22154">
        <ele>746.59997558594</ele>
        <time>2017-05-28T08:50:57.000Z</time>
      </trkpt>
      <trkpt lat="45.87153" lon="6.22152">
        <ele>743.40002441406</ele>
        <time>2017-05-28T08:51:01.000Z</time>
      </trkpt>
      <trkpt lat="45.87144" lon="6.22145">
        <ele>739.79998779297</ele>
        <time>2017-05-28T08:51:06.000Z</time>
      </trkpt>
      <trkpt lat="45.87136" lon="6.22142">
        <ele>736.59997558594</ele>
        <time>2017-05-28T08:51:10.000Z</time>
      </trkpt>
      <trkpt lat="45.87123" lon="6.22135">
        <ele>733</ele>
        <time>2017-05-28T08:51:16.000Z</time>
      </trkpt>
      <trkpt lat="45.87113" lon="6.22126">
        <ele>728.79998779297</ele>
        <time>2017-05-28T08:51:20.000Z</time>
      </trkpt>
      <trkpt lat="45.87104" lon="6.22116">
        <ele>725</ele>
        <time>2017-05-28T08:51:25.000Z</time>
      </trkpt>
      <trkpt lat="45.87103" lon="6.22113">
        <ele>724.40002441406</ele>
        <time>2017-05-28T08:51:26.000Z</time>
      </trkpt>
      <trkpt lat="45.87101" lon="6.22112">
        <ele>723.59997558594</ele>
        <time>2017-05-28T08:51:27.000Z</time>
      </trkpt>
      <trkpt lat="45.87089" lon="6.22101">
        <ele>720.20001220703</ele>
        <time>2017-05-28T08:51:32.000Z</time>
      </trkpt>
      <trkpt lat="45.87079" lon="6.22089">
        <ele>717</ele>
        <time>2017-05-28T08:51:37.000Z</time>
      </trkpt>
      <trkpt lat="45.8707" lon="6.22077">
        <ele>714.59997558594</ele>
        <time>2017-05-28T08:51:41.000Z</time>
      </trkpt>
      <trkpt lat="45.87069" lon="6.22077">
        <ele>714</ele>
        <time>2017-05-28T08:51:42.000Z</time>
      </trkpt>
      <trkpt lat="45.87066" lon="6.22075">
        <ele>713.20001220703</ele>
        <time>2017-05-28T08:51:43.000Z</time>
      </trkpt>
      <trkpt lat="45.87062" lon="6.22073">
        <ele>712.40002441406</ele>
        <time>2017-05-28T08:51:44.000Z</time>
      </trkpt>
      <trkpt lat="45.87059" lon="6.22071">
        <ele>711.79998779297</ele>
        <time>2017-05-28T08:51:45.000Z</time>
      </trkpt>
      <trkpt lat="45.87056" lon="6.22071">
        <ele>711.59997558594</ele>
        <time>2017-05-28T08:51:46.000Z</time>
      </trkpt>
      <trkpt lat="45.87054" lon="6.22071">
        <ele>711.40002441406</ele>
        <time>2017-05-28T08:51:47.000Z</time>
      </trkpt>
      <trkpt lat="45.87052" lon="6.22072">
        <ele>711.40002441406</ele>
        <time>2017-05-28T08:51:48.000Z</time>
      </trkpt>
      <trkpt lat="45.8705" lon="6.22072">
        <ele>711.40002441406</ele>
        <time>2017-05-28T08:51:49.000Z</time>
      </trkpt>
      <trkpt lat="45.8703" lon="6.22078">
        <ele>714.40002441406</ele>
        <time>2017-05-28T08:52:01.000Z</time>
      </trkpt>
      <trkpt lat="45.87013" lon="6.22087">
        <ele>717.59997558594</ele>
        <time>2017-05-28T08:52:17.000Z</time>
      </trkpt>
      <trkpt lat="45.87009" lon="6.22088">
        <ele>718.40002441406</ele>
        <time>2017-05-28T08:52:20.000Z</time>
      </trkpt>
      <trkpt lat="45.87008" lon="6.22089">
        <ele>718.40002441406</ele>
        <time>2017-05-28T08:52:21.000Z</time>
      </trkpt>
      <trkpt lat="45.87007" lon="6.22089">
        <ele>718.79998779297</ele>
        <time>2017-05-28T08:52:22.000Z</time>
      </trkpt>
      <trkpt lat="45.87006" lon="6.22092">
        <ele>719</ele>
        <time>2017-05-28T08:52:23.000Z</time>
      </trkpt>
      <trkpt lat="45.87005" lon="6.22092">
        <ele>719.20001220703</ele>
        <time>2017-05-28T08:52:24.000Z</time>
      </trkpt>
      <trkpt lat="45.87004" lon="6.22093">
        <ele>719.40002441406</ele>
        <time>2017-05-28T08:52:25.000Z</time>
      </trkpt>
      <trkpt lat="45.86986" lon="6.22099">
        <ele>722.40002441406</ele>
        <time>2017-05-28T08:52:39.000Z</time>
      </trkpt>
      <trkpt lat="45.86976" lon="6.22096">
        <ele>723.20001220703</ele>
        <time>2017-05-28T08:52:44.000Z</time>
      </trkpt>
      <trkpt lat="45.86972" lon="6.22094">
        <ele>724</ele>
        <time>2017-05-28T08:52:48.000Z</time>
      </trkpt>
      <trkpt lat="45.86971" lon="6.22094">
        <ele>724.40002441406</ele>
        <time>2017-05-28T08:52:49.000Z</time>
      </trkpt>
      <trkpt lat="45.8696" lon="6.221">
        <ele>725.79998779297</ele>
        <time>2017-05-28T08:52:57.000Z</time>
      </trkpt>
      <trkpt lat="45.86959" lon="6.221">
        <ele>726</ele>
        <time>2017-05-28T08:52:58.000Z</time>
      </trkpt>
      <trkpt lat="45.86958" lon="6.221">
        <ele>726.20001220703</ele>
        <time>2017-05-28T08:52:59.000Z</time>
      </trkpt>
      <trkpt lat="45.86956" lon="6.22101">
        <ele>726.59997558594</ele>
        <time>2017-05-28T08:53:00.000Z</time>
      </trkpt>
      <trkpt lat="45.86955" lon="6.22101">
        <ele>726.59997558594</ele>
        <time>2017-05-28T08:53:01.000Z</time>
      </trkpt>
      <trkpt lat="45.86938" lon="6.22116">
        <ele>729.79998779297</ele>
        <time>2017-05-28T08:53:15.000Z</time>
      </trkpt>
      <trkpt lat="45.86924" lon="6.22135">
        <ele>732.79998779297</ele>
        <time>2017-05-28T08:53:28.000Z</time>
      </trkpt>
      <trkpt lat="45.86913" lon="6.22155">
        <ele>735.79998779297</ele>
        <time>2017-05-28T08:53:42.000Z</time>
      </trkpt>
      <trkpt lat="45.86902" lon="6.22183">
        <ele>739</ele>
        <time>2017-05-28T08:53:56.000Z</time>
      </trkpt>
      <trkpt lat="45.86897" lon="6.22198">
        <ele>742.20001220703</ele>
        <time>2017-05-28T08:54:07.000Z</time>
      </trkpt>
      <trkpt lat="45.86895" lon="6.22206">
        <ele>743.40002441406</ele>
        <time>2017-05-28T08:54:13.000Z</time>
      </trkpt>
      <trkpt lat="45.8689" lon="6.22231">
        <ele>746.59997558594</ele>
        <time>2017-05-28T08:54:26.000Z</time>
      </trkpt>
      <trkpt lat="45.86891" lon="6.22232">
        <ele>746.79998779297</ele>
        <time>2017-05-28T08:54:27.000Z</time>
      </trkpt>
      <trkpt lat="45.86891" lon="6.22234">
        <ele>747</ele>
        <time>2017-05-28T08:54:28.000Z</time>
      </trkpt>
      <trkpt lat="45.86891" lon="6.22235">
        <ele>747.20001220703</ele>
        <time>2017-05-28T08:54:29.000Z</time>
      </trkpt>
      <trkpt lat="45.86892" lon="6.22237">
        <ele>747.40002441406</ele>
        <time>2017-05-28T08:54:30.000Z</time>
      </trkpt>
      <trkpt lat="45.86892" lon="6.22239">
        <ele>747.59997558594</ele>
        <time>2017-05-28T08:54:31.000Z</time>
      </trkpt>
      <trkpt lat="45.86909" lon="6.22264">
        <ele>750.40002441406</ele>
        <time>2017-05-28T08:54:46.000Z</time>
      </trkpt>
      <trkpt lat="45.86915" lon="6.2229">
        <ele>751.79998779297</ele>
        <time>2017-05-28T08:54:59.000Z</time>
      </trkpt>
      <trkpt lat="45.86914" lon="6.22293">
        <ele>751.79998779297</ele>
        <time>2017-05-28T08:55:00.000Z</time>
      </trkpt>
      <trkpt lat="45.86907" lon="6.22322">
        <ele>751.59997558594</ele>
        <time>2017-05-28T08:55:09.000Z</time>
      </trkpt>
      <trkpt lat="45.86893" lon="6.22353">
        <ele>749.40002441406</ele>
        <time>2017-05-28T08:55:17.000Z</time>
      </trkpt>
      <trkpt lat="45.86887" lon="6.22356">
        <ele>748.40002441406</ele>
        <time>2017-05-28T08:55:19.000Z</time>
      </trkpt>
      <trkpt lat="45.86885" lon="6.22356">
        <ele>748.40002441406</ele>
        <time>2017-05-28T08:55:20.000Z</time>
      </trkpt>
      <trkpt lat="45.86882" lon="6.22355">
        <ele>748.40002441406</ele>
        <time>2017-05-28T08:55:21.000Z</time>
      </trkpt>
      <trkpt lat="45.86881" lon="6.22353">
        <ele>748.59997558594</ele>
        <time>2017-05-28T08:55:22.000Z</time>
      </trkpt>
      <trkpt lat="45.86879" lon="6.22351">
        <ele>748.59997558594</ele>
        <time>2017-05-28T08:55:23.000Z</time>
      </trkpt>
      <trkpt lat="45.86877" lon="6.2235">
        <ele>748.59997558594</ele>
        <time>2017-05-28T08:55:24.000Z</time>
      </trkpt>
      <trkpt lat="45.86875" lon="6.22349">
        <ele>748.59997558594</ele>
        <time>2017-05-28T08:55:25.000Z</time>
      </trkpt>
      <trkpt lat="45.86873" lon="6.22348">
        <ele>748.59997558594</ele>
        <time>2017-05-28T08:55:26.000Z</time>
      </trkpt>
      <trkpt lat="45.86871" lon="6.22346">
        <ele>748.59997558594</ele>
        <time>2017-05-28T08:55:27.000Z</time>
      </trkpt>
      <trkpt lat="45.86869" lon="6.22344">
        <ele>748.40002441406</ele>
        <time>2017-05-28T08:55:28.000Z</time>
      </trkpt>
      <trkpt lat="45.86867" lon="6.22343">
        <ele>748.20001220703</ele>
        <time>2017-05-28T08:55:29.000Z</time>
      </trkpt>
      <trkpt lat="45.86864" lon="6.22342">
        <ele>748</ele>
        <time>2017-05-28T08:55:30.000Z</time>
      </trkpt>
      <trkpt lat="45.86861" lon="6.22341">
        <ele>747.59997558594</ele>
        <time>2017-05-28T08:55:31.000Z</time>
      </trkpt>
      <trkpt lat="45.86858" lon="6.22338">
        <ele>747.20001220703</ele>
        <time>2017-05-28T08:55:32.000Z</time>
      </trkpt>
      <trkpt lat="45.86856" lon="6.22336">
        <ele>747</ele>
        <time>2017-05-28T08:55:33.000Z</time>
      </trkpt>
      <trkpt lat="45.86853" lon="6.22334">
        <ele>746.79998779297</ele>
        <time>2017-05-28T08:55:34.000Z</time>
      </trkpt>
      <trkpt lat="45.86851" lon="6.22333">
        <ele>746.59997558594</ele>
        <time>2017-05-28T08:55:35.000Z</time>
      </trkpt>
      <trkpt lat="45.86849" lon="6.22331">
        <ele>746.40002441406</ele>
        <time>2017-05-28T08:55:36.000Z</time>
      </trkpt>
      <trkpt lat="45.86846" lon="6.22328">
        <ele>746.20001220703</ele>
        <time>2017-05-28T08:55:37.000Z</time>
      </trkpt>
      <trkpt lat="45.86828" lon="6.22312">
        <ele>744.40002441406</ele>
        <time>2017-05-28T08:55:44.000Z</time>
      </trkpt>
      <trkpt lat="45.86826" lon="6.2231">
        <ele>744.20001220703</ele>
        <time>2017-05-28T08:55:45.000Z</time>
      </trkpt>
      <trkpt lat="45.86824" lon="6.22309">
        <ele>743.79998779297</ele>
        <time>2017-05-28T08:55:46.000Z</time>
      </trkpt>
      <trkpt lat="45.8682" lon="6.22308">
        <ele>743.59997558594</ele>
        <time>2017-05-28T08:55:47.000Z</time>
      </trkpt>
      <trkpt lat="45.86817" lon="6.22308">
        <ele>743.59997558594</ele>
        <time>2017-05-28T08:55:48.000Z</time>
      </trkpt>
      <trkpt lat="45.86814" lon="6.22309">
        <ele>743.59997558594</ele>
        <time>2017-05-28T08:55:49.000Z</time>
      </trkpt>
      <trkpt lat="45.86812" lon="6.2231">
        <ele>743.59997558594</ele>
        <time>2017-05-28T08:55:50.000Z</time>
      </trkpt>
      <trkpt lat="45.86789" lon="6.22309">
        <ele>743.40002441406</ele>
        <time>2017-05-28T08:55:59.000Z</time>
      </trkpt>
      <trkpt lat="45.8677" lon="6.2229">
        <ele>744.40002441406</ele>
        <time>2017-05-28T08:56:07.000Z</time>
      </trkpt>
      <trkpt lat="45.86749" lon="6.22292">
        <ele>744.40002441406</ele>
        <time>2017-05-28T08:56:15.000Z</time>
      </trkpt>
      <trkpt lat="45.86728" lon="6.22293">
        <ele>742.79998779297</ele>
        <time>2017-05-28T08:56:23.000Z</time>
      </trkpt>
      <trkpt lat="45.86722" lon="6.22287">
        <ele>742.20001220703</ele>
        <time>2017-05-28T08:56:26.000Z</time>
      </trkpt>
      <trkpt lat="45.8672" lon="6.22282">
        <ele>742</ele>
        <time>2017-05-28T08:56:28.000Z</time>
      </trkpt>
      <trkpt lat="45.86719" lon="6.22279">
        <ele>742</ele>
        <time>2017-05-28T08:56:29.000Z</time>
      </trkpt>
      <trkpt lat="45.86718" lon="6.22276">
        <ele>741.79998779297</ele>
        <time>2017-05-28T08:56:30.000Z</time>
      </trkpt>
      <trkpt lat="45.8671" lon="6.22248">
        <ele>740.40002441406</ele>
        <time>2017-05-28T08:56:37.000Z</time>
      </trkpt>
      <trkpt lat="45.86705" lon="6.22219">
        <ele>739.20001220703</ele>
        <time>2017-05-28T08:56:44.000Z</time>
      </trkpt>
      <trkpt lat="45.8669" lon="6.22204">
        <ele>737.20001220703</ele>
        <time>2017-05-28T08:56:52.000Z</time>
      </trkpt>
      <trkpt lat="45.8667" lon="6.22213">
        <ele>735</ele>
        <time>2017-05-28T08:56:58.000Z</time>
      </trkpt>
      <trkpt lat="45.86647" lon="6.22209">
        <ele>733.40002441406</ele>
        <time>2017-05-28T08:57:05.000Z</time>
      </trkpt>
      <trkpt lat="45.86629" lon="6.22187">
        <ele>730.79998779297</ele>
        <time>2017-05-28T08:57:12.000Z</time>
      </trkpt>
      <trkpt lat="45.86613" lon="6.22158">
        <ele>729</ele>
        <time>2017-05-28T08:57:19.000Z</time>
      </trkpt>
      <trkpt lat="45.866" lon="6.22132">
        <ele>726.59997558594</ele>
        <time>2017-05-28T08:57:26.000Z</time>
      </trkpt>
      <trkpt lat="45.86585" lon="6.22112">
        <ele>724.20001220703</ele>
        <time>2017-05-28T08:57:33.000Z</time>
      </trkpt>
      <trkpt lat="45.86577" lon="6.22105">
        <ele>723</ele>
        <time>2017-05-28T08:57:36.000Z</time>
      </trkpt>
      <trkpt lat="45.86568" lon="6.22088">
        <ele>719.79998779297</ele>
        <time>2017-05-28T08:57:41.000Z</time>
      </trkpt>
      <trkpt lat="45.86556" lon="6.22067">
        <ele>716.59997558594</ele>
        <time>2017-05-28T08:57:48.000Z</time>
      </trkpt>
      <trkpt lat="45.86543" lon="6.22048">
        <ele>713.40002441406</ele>
        <time>2017-05-28T08:57:55.000Z</time>
      </trkpt>
      <trkpt lat="45.86529" lon="6.22033">
        <ele>710</ele>
        <time>2017-05-28T08:58:02.000Z</time>
      </trkpt>
      <trkpt lat="45.86522" lon="6.2203">
        <ele>708</ele>
        <time>2017-05-28T08:58:05.000Z</time>
      </trkpt>
      <trkpt lat="45.8652" lon="6.22028">
        <ele>707.79998779297</ele>
        <time>2017-05-28T08:58:06.000Z</time>
      </trkpt>
      <trkpt lat="45.86516" lon="6.22026">
        <ele>707</ele>
        <time>2017-05-28T08:58:08.000Z</time>
      </trkpt>
      <trkpt lat="45.86513" lon="6.22024">
        <ele>706.20001220703</ele>
        <time>2017-05-28T08:58:09.000Z</time>
      </trkpt>
      <trkpt lat="45.86511" lon="6.22023">
        <ele>705.40002441406</ele>
        <time>2017-05-28T08:58:10.000Z</time>
      </trkpt>
      <trkpt lat="45.86508" lon="6.22021">
        <ele>705</ele>
        <time>2017-05-28T08:58:11.000Z</time>
      </trkpt>
      <trkpt lat="45.86507" lon="6.22018">
        <ele>704.40002441406</ele>
        <time>2017-05-28T08:58:12.000Z</time>
      </trkpt>
      <trkpt lat="45.86505" lon="6.22015">
        <ele>703.59997558594</ele>
        <time>2017-05-28T08:58:13.000Z</time>
      </trkpt>
      <trkpt lat="45.86489" lon="6.2199">
        <ele>700</ele>
        <time>2017-05-28T08:58:20.000Z</time>
      </trkpt>
      <trkpt lat="45.86473" lon="6.21967">
        <ele>697.20001220703</ele>
        <time>2017-05-28T08:58:27.000Z</time>
      </trkpt>
      <trkpt lat="45.86452" lon="6.21953">
        <ele>694.20001220703</ele>
        <time>2017-05-28T08:58:33.000Z</time>
      </trkpt>
      <trkpt lat="45.86434" lon="6.21951">
        <ele>693.20001220703</ele>
        <time>2017-05-28T08:58:42.000Z</time>
      </trkpt>
      <trkpt lat="45.86418" lon="6.21948">
        <ele>696.59997558594</ele>
        <time>2017-05-28T08:58:52.000Z</time>
      </trkpt>
      <trkpt lat="45.86404" lon="6.21948">
        <ele>699.59997558594</ele>
        <time>2017-05-28T08:59:02.000Z</time>
      </trkpt>
      <trkpt lat="45.86387" lon="6.21944">
        <ele>702.79998779297</ele>
        <time>2017-05-28T08:59:14.000Z</time>
      </trkpt>
      <trkpt lat="45.86384" lon="6.21944">
        <ele>703.40002441406</ele>
        <time>2017-05-28T08:59:17.000Z</time>
      </trkpt>
      <trkpt lat="45.86363" lon="6.21945">
        <ele>706.59997558594</ele>
        <time>2017-05-28T08:59:32.000Z</time>
      </trkpt>
      <trkpt lat="45.86344" lon="6.21943">
        <ele>709.59997558594</ele>
        <time>2017-05-28T08:59:44.000Z</time>
      </trkpt>
      <trkpt lat="45.86325" lon="6.21945">
        <ele>711.59997558594</ele>
        <time>2017-05-28T08:59:58.000Z</time>
      </trkpt>
      <trkpt lat="45.86323" lon="6.21946">
        <ele>711.59997558594</ele>
        <time>2017-05-28T08:59:59.000Z</time>
      </trkpt>
      <trkpt lat="45.86322" lon="6.21945">
        <ele>711.59997558594</ele>
        <time>2017-05-28T09:00:00.000Z</time>
      </trkpt>
      <trkpt lat="45.86308" lon="6.21938">
        <ele>713.40002441406</ele>
        <time>2017-05-28T09:00:11.000Z</time>
      </trkpt>
      <trkpt lat="45.86306" lon="6.21936">
        <ele>713.40002441406</ele>
        <time>2017-05-28T09:00:12.000Z</time>
      </trkpt>
      <trkpt lat="45.86305" lon="6.21934">
        <ele>713.59997558594</ele>
        <time>2017-05-28T09:00:13.000Z</time>
      </trkpt>
      <trkpt lat="45.86302" lon="6.21933">
        <ele>713.79998779297</ele>
        <time>2017-05-28T09:00:14.000Z</time>
      </trkpt>
      <trkpt lat="45.86301" lon="6.21932">
        <ele>714</ele>
        <time>2017-05-28T09:00:15.000Z</time>
      </trkpt>
      <trkpt lat="45.86281" lon="6.21927">
        <ele>717</ele>
        <time>2017-05-28T09:00:28.000Z</time>
      </trkpt>
      <trkpt lat="45.8628" lon="6.21927">
        <ele>717.20001220703</ele>
        <time>2017-05-28T09:00:29.000Z</time>
      </trkpt>
      <trkpt lat="45.86278" lon="6.21927">
        <ele>717.59997558594</ele>
        <time>2017-05-28T09:00:30.000Z</time>
      </trkpt>
      <trkpt lat="45.86277" lon="6.21927">
        <ele>717.79998779297</ele>
        <time>2017-05-28T09:00:31.000Z</time>
      </trkpt>
      <trkpt lat="45.86276" lon="6.21927">
        <ele>718</ele>
        <time>2017-05-28T09:00:32.000Z</time>
      </trkpt>
      <trkpt lat="45.86275" lon="6.21927">
        <ele>718.20001220703</ele>
        <time>2017-05-28T09:00:33.000Z</time>
      </trkpt>
      <trkpt lat="45.86273" lon="6.21928">
        <ele>718.40002441406</ele>
        <time>2017-05-28T09:00:34.000Z</time>
      </trkpt>
      <trkpt lat="45.86272" lon="6.21928">
        <ele>718.59997558594</ele>
        <time>2017-05-28T09:00:35.000Z</time>
      </trkpt>
      <trkpt lat="45.86249" lon="6.21944">
        <ele>721.40002441406</ele>
        <time>2017-05-28T09:00:51.000Z</time>
      </trkpt>
      <trkpt lat="45.8624" lon="6.21943">
        <ele>722.79998779297</ele>
        <time>2017-05-28T09:00:57.000Z</time>
      </trkpt>
      <trkpt lat="45.86238" lon="6.21942">
        <ele>723</ele>
        <time>2017-05-28T09:00:58.000Z</time>
      </trkpt>
      <trkpt lat="45.86236" lon="6.21943">
        <ele>723.40002441406</ele>
        <time>2017-05-28T09:01:00.000Z</time>
      </trkpt>
      <trkpt lat="45.86235" lon="6.21943">
        <ele>723.59997558594</ele>
        <time>2017-05-28T09:01:01.000Z</time>
      </trkpt>
      <trkpt lat="45.86212" lon="6.21936">
        <ele>725.20001220703</ele>
        <time>2017-05-28T09:01:15.000Z</time>
      </trkpt>
      <trkpt lat="45.86189" lon="6.21937">
        <ele>726.59997558594</ele>
        <time>2017-05-28T09:01:26.000Z</time>
      </trkpt>
      <trkpt lat="45.86167" lon="6.21944">
        <ele>727.79998779297</ele>
        <time>2017-05-28T09:01:36.000Z</time>
      </trkpt>
      <trkpt lat="45.86164" lon="6.21946">
        <ele>728.40002441406</ele>
        <time>2017-05-28T09:01:39.000Z</time>
      </trkpt>
      <trkpt lat="45.86161" lon="6.21945">
        <ele>728.40002441406</ele>
        <time>2017-05-28T09:01:41.000Z</time>
      </trkpt>
      <trkpt lat="45.86155" lon="6.21942">
        <ele>729</ele>
        <time>2017-05-28T09:01:45.000Z</time>
      </trkpt>
      <trkpt lat="45.86153" lon="6.2194">
        <ele>729.20001220703</ele>
        <time>2017-05-28T09:01:46.000Z</time>
      </trkpt>
      <trkpt lat="45.8615" lon="6.21939">
        <ele>729.40002441406</ele>
        <time>2017-05-28T09:01:47.000Z</time>
      </trkpt>
      <trkpt lat="45.86149" lon="6.21938">
        <ele>729.40002441406</ele>
        <time>2017-05-28T09:01:48.000Z</time>
      </trkpt>
      <trkpt lat="45.86147" lon="6.21936">
        <ele>729.59997558594</ele>
        <time>2017-05-28T09:01:49.000Z</time>
      </trkpt>
      <trkpt lat="45.86144" lon="6.21937">
        <ele>729.79998779297</ele>
        <time>2017-05-28T09:01:51.000Z</time>
      </trkpt>
      <trkpt lat="45.86143" lon="6.21936">
        <ele>730</ele>
        <time>2017-05-28T09:01:52.000Z</time>
      </trkpt>
      <trkpt lat="45.86141" lon="6.21934">
        <ele>730</ele>
        <time>2017-05-28T09:01:53.000Z</time>
      </trkpt>
      <trkpt lat="45.86122" lon="6.21939">
        <ele>733</ele>
        <time>2017-05-28T09:02:10.000Z</time>
      </trkpt>
      <trkpt lat="45.86115" lon="6.21974">
        <ele>733.79998779297</ele>
        <time>2017-05-28T09:02:19.000Z</time>
      </trkpt>
      <trkpt lat="45.86109" lon="6.22004">
        <ele>734.79998779297</ele>
        <time>2017-05-28T09:02:28.000Z</time>
      </trkpt>
      <trkpt lat="45.86108" lon="6.22033">
        <ele>735.59997558594</ele>
        <time>2017-05-28T09:02:37.000Z</time>
      </trkpt>
      <trkpt lat="45.861" lon="6.22059">
        <ele>736.59997558594</ele>
        <time>2017-05-28T09:02:47.000Z</time>
      </trkpt>
      <trkpt lat="45.86099" lon="6.22061">
        <ele>736.79998779297</ele>
        <time>2017-05-28T09:02:48.000Z</time>
      </trkpt>
      <trkpt lat="45.86097" lon="6.22062">
        <ele>737</ele>
        <time>2017-05-28T09:02:49.000Z</time>
      </trkpt>
      <trkpt lat="45.86096" lon="6.22063">
        <ele>737</ele>
        <time>2017-05-28T09:02:50.000Z</time>
      </trkpt>
      <trkpt lat="45.86095" lon="6.22065">
        <ele>737.20001220703</ele>
        <time>2017-05-28T09:02:51.000Z</time>
      </trkpt>
      <trkpt lat="45.86094" lon="6.22067">
        <ele>737.40002441406</ele>
        <time>2017-05-28T09:02:52.000Z</time>
      </trkpt>
      <trkpt lat="45.86092" lon="6.22071">
        <ele>737.59997558594</ele>
        <time>2017-05-28T09:02:54.000Z</time>
      </trkpt>
      <trkpt lat="45.8609" lon="6.22072">
        <ele>737.59997558594</ele>
        <time>2017-05-28T09:02:55.000Z</time>
      </trkpt>
      <trkpt lat="45.8609" lon="6.22074">
        <ele>737.79998779297</ele>
        <time>2017-05-28T09:02:56.000Z</time>
      </trkpt>
      <trkpt lat="45.86089" lon="6.22077">
        <ele>738</ele>
        <time>2017-05-28T09:02:57.000Z</time>
      </trkpt>
      <trkpt lat="45.86088" lon="6.22079">
        <ele>738.20001220703</ele>
        <time>2017-05-28T09:02:58.000Z</time>
      </trkpt>
      <trkpt lat="45.86088" lon="6.22081">
        <ele>738.40002441406</ele>
        <time>2017-05-28T09:02:59.000Z</time>
      </trkpt>
      <trkpt lat="45.86088" lon="6.22084">
        <ele>738.59997558594</ele>
        <time>2017-05-28T09:03:00.000Z</time>
      </trkpt>
      <trkpt lat="45.86086" lon="6.22122">
        <ele>741.79998779297</ele>
        <time>2017-05-28T09:03:13.000Z</time>
      </trkpt>
      <trkpt lat="45.86083" lon="6.22143">
        <ele>744.79998779297</ele>
        <time>2017-05-28T09:03:24.000Z</time>
      </trkpt>
      <trkpt lat="45.86076" lon="6.22159">
        <ele>748</ele>
        <time>2017-05-28T09:03:38.000Z</time>
      </trkpt>
      <trkpt lat="45.86073" lon="6.22172">
        <ele>749.79998779297</ele>
        <time>2017-05-28T09:03:45.000Z</time>
      </trkpt>
      <trkpt lat="45.86071" lon="6.22176">
        <ele>750</ele>
        <time>2017-05-28T09:03:46.000Z</time>
      </trkpt>
      <trkpt lat="45.86064" lon="6.222">
        <ele>753</ele>
        <time>2017-05-28T09:03:57.000Z</time>
      </trkpt>
      <trkpt lat="45.86063" lon="6.22197">
        <ele>753.20001220703</ele>
        <time>2017-05-28T09:03:58.000Z</time>
      </trkpt>
      <trkpt lat="45.86063" lon="6.22199">
        <ele>753.59997558594</ele>
        <time>2017-05-28T09:03:59.000Z</time>
      </trkpt>
      <trkpt lat="45.86063" lon="6.22197">
        <ele>753.79998779297</ele>
        <time>2017-05-28T09:04:00.000Z</time>
      </trkpt>
      <trkpt lat="45.86063" lon="6.22198">
        <ele>754</ele>
        <time>2017-05-28T09:04:01.000Z</time>
      </trkpt>
      <trkpt lat="45.86063" lon="6.222">
        <ele>754.20001220703</ele>
        <time>2017-05-28T09:04:02.000Z</time>
      </trkpt>
      <trkpt lat="45.86062" lon="6.22201">
        <ele>754.40002441406</ele>
        <time>2017-05-28T09:04:03.000Z</time>
      </trkpt>
      <trkpt lat="45.86052" lon="6.22216">
        <ele>756</ele>
        <time>2017-05-28T09:04:11.000Z</time>
      </trkpt>
      <trkpt lat="45.86052" lon="6.2222">
        <ele>755.79998779297</ele>
        <time>2017-05-28T09:04:12.000Z</time>
      </trkpt>
      <trkpt lat="45.86053" lon="6.22221">
        <ele>755.79998779297</ele>
        <time>2017-05-28T09:04:13.000Z</time>
      </trkpt>
      <trkpt lat="45.86053" lon="6.22224">
        <ele>756</ele>
        <time>2017-05-28T09:04:14.000Z</time>
      </trkpt>
      <trkpt lat="45.86054" lon="6.22226">
        <ele>756</ele>
        <time>2017-05-28T09:04:15.000Z</time>
      </trkpt>
      <trkpt lat="45.86055" lon="6.22228">
        <ele>756.40002441406</ele>
        <time>2017-05-28T09:04:16.000Z</time>
      </trkpt>
      <trkpt lat="45.86056" lon="6.2223">
        <ele>756.59997558594</ele>
        <time>2017-05-28T09:04:17.000Z</time>
      </trkpt>
      <trkpt lat="45.86055" lon="6.22232">
        <ele>756.79998779297</ele>
        <time>2017-05-28T09:04:18.000Z</time>
      </trkpt>
      <trkpt lat="45.86055" lon="6.22234">
        <ele>757</ele>
        <time>2017-05-28T09:04:19.000Z</time>
      </trkpt>
      <trkpt lat="45.86057" lon="6.22266">
        <ele>760.20001220703</ele>
        <time>2017-05-28T09:04:34.000Z</time>
      </trkpt>
      <trkpt lat="45.86059" lon="6.22273">
        <ele>760.79998779297</ele>
        <time>2017-05-28T09:04:37.000Z</time>
      </trkpt>
      <trkpt lat="45.86059" lon="6.22275">
        <ele>761</ele>
        <time>2017-05-28T09:04:38.000Z</time>
      </trkpt>
      <trkpt lat="45.86059" lon="6.22277">
        <ele>761.40002441406</ele>
        <time>2017-05-28T09:04:39.000Z</time>
      </trkpt>
      <trkpt lat="45.86059" lon="6.22279">
        <ele>761.59997558594</ele>
        <time>2017-05-28T09:04:40.000Z</time>
      </trkpt>
      <trkpt lat="45.86059" lon="6.22281">
        <ele>762</ele>
        <time>2017-05-28T09:04:41.000Z</time>
      </trkpt>
      <trkpt lat="45.86059" lon="6.22283">
        <ele>762.20001220703</ele>
        <time>2017-05-28T09:04:42.000Z</time>
      </trkpt>
      <trkpt lat="45.86059" lon="6.22285">
        <ele>762.40002441406</ele>
        <time>2017-05-28T09:04:43.000Z</time>
      </trkpt>
      <trkpt lat="45.86059" lon="6.22287">
        <ele>762.59997558594</ele>
        <time>2017-05-28T09:04:44.000Z</time>
      </trkpt>
      <trkpt lat="45.86059" lon="6.22308">
        <ele>765</ele>
        <time>2017-05-28T09:04:57.000Z</time>
      </trkpt>
      <trkpt lat="45.86059" lon="6.22309">
        <ele>765</ele>
        <time>2017-05-28T09:04:58.000Z</time>
      </trkpt>
      <trkpt lat="45.86058" lon="6.2231">
        <ele>765</ele>
        <time>2017-05-28T09:04:59.000Z</time>
      </trkpt>
      <trkpt lat="45.86055" lon="6.22311">
        <ele>765</ele>
        <time>2017-05-28T09:05:03.000Z</time>
      </trkpt>
      <trkpt lat="45.86053" lon="6.22311">
        <ele>764.79998779297</ele>
        <time>2017-05-28T09:05:04.000Z</time>
      </trkpt>
      <trkpt lat="45.86052" lon="6.22311">
        <ele>764.59997558594</ele>
        <time>2017-05-28T09:05:05.000Z</time>
      </trkpt>
      <trkpt lat="45.86049" lon="6.2231">
        <ele>763.40002441406</ele>
        <time>2017-05-28T09:05:07.000Z</time>
      </trkpt>
      <trkpt lat="45.86046" lon="6.2231">
        <ele>761.59997558594</ele>
        <time>2017-05-28T09:05:10.000Z</time>
      </trkpt>
      <trkpt lat="45.86043" lon="6.22308">
        <ele>760.40002441406</ele>
        <time>2017-05-28T09:05:12.000Z</time>
      </trkpt>
      <trkpt lat="45.8604" lon="6.22309">
        <ele>759.59997558594</ele>
        <time>2017-05-28T09:05:13.000Z</time>
      </trkpt>
      <trkpt lat="45.86039" lon="6.22307">
        <ele>758.79998779297</ele>
        <time>2017-05-28T09:05:14.000Z</time>
      </trkpt>
      <trkpt lat="45.86036" lon="6.22302">
        <ele>757.59997558594</ele>
        <time>2017-05-28T09:05:16.000Z</time>
      </trkpt>
      <trkpt lat="45.86034" lon="6.223">
        <ele>757</ele>
        <time>2017-05-28T09:05:17.000Z</time>
      </trkpt>
      <trkpt lat="45.86032" lon="6.22299">
        <ele>756.20001220703</ele>
        <time>2017-05-28T09:05:18.000Z</time>
      </trkpt>
      <trkpt lat="45.86031" lon="6.22296">
        <ele>755.59997558594</ele>
        <time>2017-05-28T09:05:19.000Z</time>
      </trkpt>
      <trkpt lat="45.86029" lon="6.22294">
        <ele>755.40002441406</ele>
        <time>2017-05-28T09:05:20.000Z</time>
      </trkpt>
      <trkpt lat="45.86026" lon="6.2229">
        <ele>755.40002441406</ele>
        <time>2017-05-28T09:05:23.000Z</time>
      </trkpt>
      <trkpt lat="45.86026" lon="6.22289">
        <ele>755</ele>
        <time>2017-05-28T09:05:24.000Z</time>
      </trkpt>
      <trkpt lat="45.86024" lon="6.22283">
        <ele>754.59997558594</ele>
        <time>2017-05-28T09:05:25.000Z</time>
      </trkpt>
      <trkpt lat="45.86023" lon="6.22279">
        <ele>754</ele>
        <time>2017-05-28T09:05:26.000Z</time>
      </trkpt>
      <trkpt lat="45.86023" lon="6.22276">
        <ele>753.59997558594</ele>
        <time>2017-05-28T09:05:27.000Z</time>
      </trkpt>
      <trkpt lat="45.86023" lon="6.22272">
        <ele>752.79998779297</ele>
        <time>2017-05-28T09:05:28.000Z</time>
      </trkpt>
      <trkpt lat="45.86023" lon="6.22268">
        <ele>751.79998779297</ele>
        <time>2017-05-28T09:05:29.000Z</time>
      </trkpt>
      <trkpt lat="45.86022" lon="6.22263">
        <ele>751.20001220703</ele>
        <time>2017-05-28T09:05:30.000Z</time>
      </trkpt>
      <trkpt lat="45.86022" lon="6.22258">
        <ele>751</ele>
        <time>2017-05-28T09:05:31.000Z</time>
      </trkpt>
      <trkpt lat="45.86022" lon="6.2225">
        <ele>750</ele>
        <time>2017-05-28T09:05:33.000Z</time>
      </trkpt>
      <trkpt lat="45.86022" lon="6.22246">
        <ele>749.20001220703</ele>
        <time>2017-05-28T09:05:34.000Z</time>
      </trkpt>
      <trkpt lat="45.86021" lon="6.22242">
        <ele>748.59997558594</ele>
        <time>2017-05-28T09:05:35.000Z</time>
      </trkpt>
      <trkpt lat="45.86021" lon="6.22239">
        <ele>748</ele>
        <time>2017-05-28T09:05:36.000Z</time>
      </trkpt>
      <trkpt lat="45.86021" lon="6.22235">
        <ele>747.59997558594</ele>
        <time>2017-05-28T09:05:37.000Z</time>
      </trkpt>
      <trkpt lat="45.86019" lon="6.22213">
        <ele>744.40002441406</ele>
        <time>2017-05-28T09:05:43.000Z</time>
      </trkpt>
      <trkpt lat="45.86019" lon="6.22207">
        <ele>743.79998779297</ele>
        <time>2017-05-28T09:05:45.000Z</time>
      </trkpt>
      <trkpt lat="45.86021" lon="6.22194">
        <ele>740.59997558594</ele>
        <time>2017-05-28T09:05:49.000Z</time>
      </trkpt>
      <trkpt lat="45.8602" lon="6.22177">
        <ele>737.59997558594</ele>
        <time>2017-05-28T09:05:55.000Z</time>
      </trkpt>
      <trkpt lat="45.86022" lon="6.22159">
        <ele>734.40002441406</ele>
        <time>2017-05-28T09:06:00.000Z</time>
      </trkpt>
      <trkpt lat="45.86022" lon="6.22156">
        <ele>734</ele>
        <time>2017-05-28T09:06:01.000Z</time>
      </trkpt>
      <trkpt lat="45.86021" lon="6.22131">
        <ele>731</ele>
        <time>2017-05-28T09:06:07.000Z</time>
      </trkpt>
      <trkpt lat="45.86022" lon="6.22093">
        <ele>727.59997558594</ele>
        <time>2017-05-28T09:06:16.000Z</time>
      </trkpt>
      <trkpt lat="45.86022" lon="6.22073">
        <ele>724.20001220703</ele>
        <time>2017-05-28T09:06:23.000Z</time>
      </trkpt>
      <trkpt lat="45.86021" lon="6.22066">
        <ele>723.20001220703</ele>
        <time>2017-05-28T09:06:25.000Z</time>
      </trkpt>
      <trkpt lat="45.86014" lon="6.22032">
        <ele>721.20001220703</ele>
        <time>2017-05-28T09:06:33.000Z</time>
      </trkpt>
      <trkpt lat="45.86011" lon="6.22005">
        <ele>717.79998779297</ele>
        <time>2017-05-28T09:06:42.000Z</time>
      </trkpt>
      <trkpt lat="45.86006" lon="6.21974">
        <ele>714.59997558594</ele>
        <time>2017-05-28T09:06:52.000Z</time>
      </trkpt>
      <trkpt lat="45.85999" lon="6.21941">
        <ele>711.20001220703</ele>
        <time>2017-05-28T09:07:00.000Z</time>
      </trkpt>
      <trkpt lat="45.85995" lon="6.21904">
        <ele>708.20001220703</ele>
        <time>2017-05-28T09:07:08.000Z</time>
      </trkpt>
      <trkpt lat="45.85994" lon="6.21869">
        <ele>706</ele>
        <time>2017-05-28T09:07:16.000Z</time>
      </trkpt>
      <trkpt lat="45.85994" lon="6.21864">
        <ele>705.79998779297</ele>
        <time>2017-05-28T09:07:17.000Z</time>
      </trkpt>
      <trkpt lat="45.85989" lon="6.21829">
        <ele>703.59997558594</ele>
        <time>2017-05-28T09:07:26.000Z</time>
      </trkpt>
      <trkpt lat="45.85987" lon="6.21813">
        <ele>703.20001220703</ele>
        <time>2017-05-28T09:07:30.000Z</time>
      </trkpt>
      <trkpt lat="45.85987" lon="6.21809">
        <ele>703</ele>
        <time>2017-05-28T09:07:31.000Z</time>
      </trkpt>
      <trkpt lat="45.85987" lon="6.21805">
        <ele>702.59997558594</ele>
        <time>2017-05-28T09:07:32.000Z</time>
      </trkpt>
      <trkpt lat="45.85982" lon="6.21768">
        <ele>700.79998779297</ele>
        <time>2017-05-28T09:07:40.000Z</time>
      </trkpt>
      <trkpt lat="45.85979" lon="6.21731">
        <ele>698.40002441406</ele>
        <time>2017-05-28T09:07:48.000Z</time>
      </trkpt>
      <trkpt lat="45.85971" lon="6.21693">
        <ele>695.40002441406</ele>
        <time>2017-05-28T09:07:55.000Z</time>
      </trkpt>
      <trkpt lat="45.8597" lon="6.21677">
        <ele>694.20001220703</ele>
        <time>2017-05-28T09:07:58.000Z</time>
      </trkpt>
      <trkpt lat="45.85969" lon="6.21673">
        <ele>693.79998779297</ele>
        <time>2017-05-28T09:07:59.000Z</time>
      </trkpt>
      <trkpt lat="45.85966" lon="6.2167">
        <ele>693.20001220703</ele>
        <time>2017-05-28T09:08:00.000Z</time>
      </trkpt>
      <trkpt lat="45.8595" lon="6.21644">
        <ele>691.79998779297</ele>
        <time>2017-05-28T09:08:08.000Z</time>
      </trkpt>
      <trkpt lat="45.85945" lon="6.21619">
        <ele>688.59997558594</ele>
        <time>2017-05-28T09:08:13.000Z</time>
      </trkpt>
      <trkpt lat="45.85942" lon="6.21609">
        <ele>688</ele>
        <time>2017-05-28T09:08:15.000Z</time>
      </trkpt>
      <trkpt lat="45.8593" lon="6.21582">
        <ele>686.40002441406</ele>
        <time>2017-05-28T09:08:21.000Z</time>
      </trkpt>
      <trkpt lat="45.85916" lon="6.21558">
        <ele>684.40002441406</ele>
        <time>2017-05-28T09:08:28.000Z</time>
      </trkpt>
      <trkpt lat="45.85906" lon="6.21536">
        <ele>682.59997558594</ele>
        <time>2017-05-28T09:08:33.000Z</time>
      </trkpt>
      <trkpt lat="45.85899" lon="6.21508">
        <ele>679.20001220703</ele>
        <time>2017-05-28T09:08:39.000Z</time>
      </trkpt>
      <trkpt lat="45.85891" lon="6.21479">
        <ele>675.59997558594</ele>
        <time>2017-05-28T09:08:46.000Z</time>
      </trkpt>
      <trkpt lat="45.85889" lon="6.21475">
        <ele>675.40002441406</ele>
        <time>2017-05-28T09:08:47.000Z</time>
      </trkpt>
      <trkpt lat="45.85884" lon="6.21463">
        <ele>674.20001220703</ele>
        <time>2017-05-28T09:08:50.000Z</time>
      </trkpt>
      <trkpt lat="45.85874" lon="6.21437">
        <ele>671.59997558594</ele>
        <time>2017-05-28T09:08:57.000Z</time>
      </trkpt>
      <trkpt lat="45.85865" lon="6.21423">
        <ele>670.20001220703</ele>
        <time>2017-05-28T09:09:01.000Z</time>
      </trkpt>
      <trkpt lat="45.85848" lon="6.21408">
        <ele>667.79998779297</ele>
        <time>2017-05-28T09:09:09.000Z</time>
      </trkpt>
      <trkpt lat="45.85846" lon="6.21406">
        <ele>667.40002441406</ele>
        <time>2017-05-28T09:09:10.000Z</time>
      </trkpt>
      <trkpt lat="45.85844" lon="6.21403">
        <ele>667</ele>
        <time>2017-05-28T09:09:11.000Z</time>
      </trkpt>
      <trkpt lat="45.85842" lon="6.21402">
        <ele>666.79998779297</ele>
        <time>2017-05-28T09:09:12.000Z</time>
      </trkpt>
      <trkpt lat="45.85839" lon="6.21401">
        <ele>666.59997558594</ele>
        <time>2017-05-28T09:09:13.000Z</time>
      </trkpt>
      <trkpt lat="45.85837" lon="6.214">
        <ele>666.40002441406</ele>
        <time>2017-05-28T09:09:14.000Z</time>
      </trkpt>
      <trkpt lat="45.85834" lon="6.21398">
        <ele>666.40002441406</ele>
        <time>2017-05-28T09:09:15.000Z</time>
      </trkpt>
      <trkpt lat="45.85831" lon="6.21397">
        <ele>666.20001220703</ele>
        <time>2017-05-28T09:09:16.000Z</time>
      </trkpt>
      <trkpt lat="45.8581" lon="6.21393">
        <ele>664.40002441406</ele>
        <time>2017-05-28T09:09:24.000Z</time>
      </trkpt>
      <trkpt lat="45.85796" lon="6.21393">
        <ele>663.40002441406</ele>
        <time>2017-05-28T09:09:32.000Z</time>
      </trkpt>
      <trkpt lat="45.85794" lon="6.21393">
        <ele>663.20001220703</ele>
        <time>2017-05-28T09:09:33.000Z</time>
      </trkpt>
      <trkpt lat="45.85793" lon="6.21392">
        <ele>663</ele>
        <time>2017-05-28T09:09:34.000Z</time>
      </trkpt>
      <trkpt lat="45.85794" lon="6.21389">
        <ele>663</ele>
        <time>2017-05-28T09:09:36.000Z</time>
      </trkpt>
      <trkpt lat="45.85807" lon="6.21371">
        <ele>660.40002441406</ele>
        <time>2017-05-28T09:09:44.000Z</time>
      </trkpt>
      <trkpt lat="45.85822" lon="6.2135">
        <ele>658.59997558594</ele>
        <time>2017-05-28T09:09:54.000Z</time>
      </trkpt>
      <trkpt lat="45.85824" lon="6.21334">
        <ele>657.79998779297</ele>
        <time>2017-05-28T09:09:57.000Z</time>
      </trkpt>
      <trkpt lat="45.85821" lon="6.2133">
        <ele>657.59997558594</ele>
        <time>2017-05-28T09:09:58.000Z</time>
      </trkpt>
      <trkpt lat="45.85818" lon="6.21327">
        <ele>657</ele>
        <time>2017-05-28T09:09:59.000Z</time>
      </trkpt>
      <trkpt lat="45.85813" lon="6.21323">
        <ele>656.59997558594</ele>
        <time>2017-05-28T09:10:00.000Z</time>
      </trkpt>
      <trkpt lat="45.8581" lon="6.2132">
        <ele>656.40002441406</ele>
        <time>2017-05-28T09:10:01.000Z</time>
      </trkpt>
      <trkpt lat="45.85807" lon="6.21318">
        <ele>655.59997558594</ele>
        <time>2017-05-28T09:10:02.000Z</time>
      </trkpt>
      <trkpt lat="45.85804" lon="6.21316">
        <ele>655.20001220703</ele>
        <time>2017-05-28T09:10:03.000Z</time>
      </trkpt>
      <trkpt lat="45.85789" lon="6.21304">
        <ele>652.20001220703</ele>
        <time>2017-05-28T09:10:10.000Z</time>
      </trkpt>
      <trkpt lat="45.8578" lon="6.21297">
        <ele>650.20001220703</ele>
        <time>2017-05-28T09:10:15.000Z</time>
      </trkpt>
      <trkpt lat="45.8578" lon="6.21296">
        <ele>649.79998779297</ele>
        <time>2017-05-28T09:10:16.000Z</time>
      </trkpt>
      <trkpt lat="45.85775" lon="6.21278">
        <ele>646.40002441406</ele>
        <time>2017-05-28T09:10:23.000Z</time>
      </trkpt>
      <trkpt lat="45.85771" lon="6.21248">
        <ele>643.20001220703</ele>
        <time>2017-05-28T09:10:31.000Z</time>
      </trkpt>
      <trkpt lat="45.85763" lon="6.21218">
        <ele>640.20001220703</ele>
        <time>2017-05-28T09:10:38.000Z</time>
      </trkpt>
      <trkpt lat="45.85754" lon="6.21184">
        <ele>636.79998779297</ele>
        <time>2017-05-28T09:10:46.000Z</time>
      </trkpt>
      <trkpt lat="45.85749" lon="6.2115">
        <ele>633.59997558594</ele>
        <time>2017-05-28T09:10:56.000Z</time>
      </trkpt>
      <trkpt lat="45.85743" lon="6.21113">
        <ele>631.79998779297</ele>
        <time>2017-05-28T09:11:05.000Z</time>
      </trkpt>
      <trkpt lat="45.85738" lon="6.21082">
        <ele>629.79998779297</ele>
        <time>2017-05-28T09:11:12.000Z</time>
      </trkpt>
      <trkpt lat="45.85736" lon="6.21051">
        <ele>627.59997558594</ele>
        <time>2017-05-28T09:11:20.000Z</time>
      </trkpt>
      <trkpt lat="45.85736" lon="6.21022">
        <ele>624.79998779297</ele>
        <time>2017-05-28T09:11:31.000Z</time>
      </trkpt>
      <trkpt lat="45.8573" lon="6.20994">
        <ele>621.59997558594</ele>
        <time>2017-05-28T09:11:42.000Z</time>
      </trkpt>
      <trkpt lat="45.85722" lon="6.20978">
        <ele>618.59997558594</ele>
        <time>2017-05-28T09:11:48.000Z</time>
      </trkpt>
      <trkpt lat="45.85723" lon="6.20976">
        <ele>617.79998779297</ele>
        <time>2017-05-28T09:11:49.000Z</time>
      </trkpt>
      <trkpt lat="45.85723" lon="6.20975">
        <ele>617.20001220703</ele>
        <time>2017-05-28T09:11:50.000Z</time>
      </trkpt>
      <trkpt lat="45.85725" lon="6.20974">
        <ele>616.79998779297</ele>
        <time>2017-05-28T09:11:51.000Z</time>
      </trkpt>
      <trkpt lat="45.85725" lon="6.20972">
        <ele>616</ele>
        <time>2017-05-28T09:11:52.000Z</time>
      </trkpt>
      <trkpt lat="45.85725" lon="6.20971">
        <ele>615.59997558594</ele>
        <time>2017-05-28T09:11:53.000Z</time>
      </trkpt>
      <trkpt lat="45.85724" lon="6.20969">
        <ele>615.20001220703</ele>
        <time>2017-05-28T09:11:54.000Z</time>
      </trkpt>
      <trkpt lat="45.85723" lon="6.20969">
        <ele>614.79998779297</ele>
        <time>2017-05-28T09:11:55.000Z</time>
      </trkpt>
      <trkpt lat="45.85721" lon="6.20968">
        <ele>614.59997558594</ele>
        <time>2017-05-28T09:11:56.000Z</time>
      </trkpt>
      <trkpt lat="45.85719" lon="6.20969">
        <ele>614.20001220703</ele>
        <time>2017-05-28T09:11:57.000Z</time>
      </trkpt>
      <trkpt lat="45.85717" lon="6.20969">
        <ele>613.40002441406</ele>
        <time>2017-05-28T09:11:58.000Z</time>
      </trkpt>
      <trkpt lat="45.85715" lon="6.20968">
        <ele>612.20001220703</ele>
        <time>2017-05-28T09:12:00.000Z</time>
      </trkpt>
      <trkpt lat="45.85715" lon="6.20967">
        <ele>611.59997558594</ele>
        <time>2017-05-28T09:12:01.000Z</time>
      </trkpt>
      <trkpt lat="45.85713" lon="6.20965">
        <ele>611</ele>
        <time>2017-05-28T09:12:02.000Z</time>
      </trkpt>
      <trkpt lat="45.85712" lon="6.20964">
        <ele>610.59997558594</ele>
        <time>2017-05-28T09:12:03.000Z</time>
      </trkpt>
      <trkpt lat="45.85711" lon="6.20962">
        <ele>610</ele>
        <time>2017-05-28T09:12:04.000Z</time>
      </trkpt>
      <trkpt lat="45.85709" lon="6.20959">
        <ele>609.79998779297</ele>
        <time>2017-05-28T09:12:05.000Z</time>
      </trkpt>
      <trkpt lat="45.85697" lon="6.20949">
        <ele>606.40002441406</ele>
        <time>2017-05-28T09:12:11.000Z</time>
      </trkpt>
      <trkpt lat="45.85686" lon="6.20946">
        <ele>603.20001220703</ele>
        <time>2017-05-28T09:12:17.000Z</time>
      </trkpt>
      <trkpt lat="45.85678" lon="6.20947">
        <ele>601</ele>
        <time>2017-05-28T09:12:21.000Z</time>
      </trkpt>
      <trkpt lat="45.85678" lon="6.20947">
        <ele>600.40002441406</ele>
        <time>2017-05-28T09:12:22.000Z</time>
      </trkpt>
      <trkpt lat="45.85678" lon="6.20947">
        <ele>599.79998779297</ele>
        <time>2017-05-28T09:12:23.000Z</time>
      </trkpt>
      <trkpt lat="45.8568" lon="6.20941">
        <ele>598.59997558594</ele>
        <time>2017-05-28T09:12:26.000Z</time>
      </trkpt>
      <trkpt lat="45.85682" lon="6.20923">
        <ele>594.79998779297</ele>
        <time>2017-05-28T09:12:32.000Z</time>
      </trkpt>
      <trkpt lat="45.85683" lon="6.20912">
        <ele>591.40002441406</ele>
        <time>2017-05-28T09:12:36.000Z</time>
      </trkpt>
      <trkpt lat="45.85691" lon="6.20899">
        <ele>588.40002441406</ele>
        <time>2017-05-28T09:12:42.000Z</time>
      </trkpt>
      <trkpt lat="45.85718" lon="6.20885">
        <ele>586</ele>
        <time>2017-05-28T09:12:54.000Z</time>
      </trkpt>
      <trkpt lat="45.85741" lon="6.2087">
        <ele>585.20001220703</ele>
        <time>2017-05-28T09:13:03.000Z</time>
      </trkpt>
      <trkpt lat="45.85764" lon="6.20849">
        <ele>582.40002441406</ele>
        <time>2017-05-28T09:13:13.000Z</time>
      </trkpt>
      <trkpt lat="45.85777" lon="6.20837">
        <ele>579</ele>
        <time>2017-05-28T09:13:19.000Z</time>
      </trkpt>
      <trkpt lat="45.85779" lon="6.20828">
        <ele>578</ele>
        <time>2017-05-28T09:13:21.000Z</time>
      </trkpt>
      <trkpt lat="45.8578" lon="6.20824">
        <ele>577.79998779297</ele>
        <time>2017-05-28T09:13:22.000Z</time>
      </trkpt>
      <trkpt lat="45.85782" lon="6.20819">
        <ele>577.40002441406</ele>
        <time>2017-05-28T09:13:23.000Z</time>
      </trkpt>
      <trkpt lat="45.85784" lon="6.20816">
        <ele>576.79998779297</ele>
        <time>2017-05-28T09:13:24.000Z</time>
      </trkpt>
      <trkpt lat="45.85785" lon="6.20811">
        <ele>576.20001220703</ele>
        <time>2017-05-28T09:13:25.000Z</time>
      </trkpt>
      <trkpt lat="45.85786" lon="6.20807">
        <ele>575.59997558594</ele>
        <time>2017-05-28T09:13:26.000Z</time>
      </trkpt>
      <trkpt lat="45.85786" lon="6.20804">
        <ele>575</ele>
        <time>2017-05-28T09:13:27.000Z</time>
      </trkpt>
      <trkpt lat="45.85787" lon="6.20801">
        <ele>574.59997558594</ele>
        <time>2017-05-28T09:13:28.000Z</time>
      </trkpt>
      <trkpt lat="45.85788" lon="6.20797">
        <ele>574</ele>
        <time>2017-05-28T09:13:29.000Z</time>
      </trkpt>
      <trkpt lat="45.85789" lon="6.20794">
        <ele>573.59997558594</ele>
        <time>2017-05-28T09:13:30.000Z</time>
      </trkpt>
      <trkpt lat="45.85798" lon="6.20768">
        <ele>570.20001220703</ele>
        <time>2017-05-28T09:13:37.000Z</time>
      </trkpt>
      <trkpt lat="45.85809" lon="6.20751">
        <ele>567</ele>
        <time>2017-05-28T09:13:43.000Z</time>
      </trkpt>
      <trkpt lat="45.85811" lon="6.20737">
        <ele>564.59997558594</ele>
        <time>2017-05-28T09:13:47.000Z</time>
      </trkpt>
      <trkpt lat="45.85811" lon="6.20732">
        <ele>564.20001220703</ele>
        <time>2017-05-28T09:13:48.000Z</time>
      </trkpt>
      <trkpt lat="45.85812" lon="6.20728">
        <ele>563.59997558594</ele>
        <time>2017-05-28T09:13:49.000Z</time>
      </trkpt>
      <trkpt lat="45.85812" lon="6.20725">
        <ele>563.20001220703</ele>
        <time>2017-05-28T09:13:50.000Z</time>
      </trkpt>
      <trkpt lat="45.85813" lon="6.20721">
        <ele>563</ele>
        <time>2017-05-28T09:13:51.000Z</time>
      </trkpt>
      <trkpt lat="45.85815" lon="6.207">
        <ele>559.20001220703</ele>
        <time>2017-05-28T09:13:58.000Z</time>
      </trkpt>
      <trkpt lat="45.85815" lon="6.20696">
        <ele>558.40002441406</ele>
        <time>2017-05-28T09:14:00.000Z</time>
      </trkpt>
      <trkpt lat="45.85816" lon="6.20691">
        <ele>557.40002441406</ele>
        <time>2017-05-28T09:14:02.000Z</time>
      </trkpt>
      <trkpt lat="45.85816" lon="6.20689">
        <ele>556.59997558594</ele>
        <time>2017-05-28T09:14:03.000Z</time>
      </trkpt>
      <trkpt lat="45.85817" lon="6.20686">
        <ele>555.79998779297</ele>
        <time>2017-05-28T09:14:04.000Z</time>
      </trkpt>
      <trkpt lat="45.85818" lon="6.20664">
        <ele>552.40002441406</ele>
        <time>2017-05-28T09:14:10.000Z</time>
      </trkpt>
      <trkpt lat="45.85816" lon="6.20649">
        <ele>548.79998779297</ele>
        <time>2017-05-28T09:14:14.000Z</time>
      </trkpt>
      <trkpt lat="45.85813" lon="6.20636">
        <ele>545.79998779297</ele>
        <time>2017-05-28T09:14:18.000Z</time>
      </trkpt>
      <trkpt lat="45.85807" lon="6.20627">
        <ele>542.40002441406</ele>
        <time>2017-05-28T09:14:23.000Z</time>
      </trkpt>
      <trkpt lat="45.85798" lon="6.2062">
        <ele>539</ele>
        <time>2017-05-28T09:14:27.000Z</time>
      </trkpt>
      <trkpt lat="45.85797" lon="6.20616">
        <ele>538.59997558594</ele>
        <time>2017-05-28T09:14:28.000Z</time>
      </trkpt>
      <trkpt lat="45.85795" lon="6.20613">
        <ele>538.40002441406</ele>
        <time>2017-05-28T09:14:29.000Z</time>
      </trkpt>
      <trkpt lat="45.85787" lon="6.20592">
        <ele>535.20001220703</ele>
        <time>2017-05-28T09:14:35.000Z</time>
      </trkpt>
      <trkpt lat="45.85773" lon="6.20566">
        <ele>532.40002441406</ele>
        <time>2017-05-28T09:14:43.000Z</time>
      </trkpt>
      <trkpt lat="45.85766" lon="6.20547">
        <ele>530.20001220703</ele>
        <time>2017-05-28T09:14:48.000Z</time>
      </trkpt>
      <trkpt lat="45.85756" lon="6.20521">
        <ele>528.20001220703</ele>
        <time>2017-05-28T09:14:55.000Z</time>
      </trkpt>
      <trkpt lat="45.85746" lon="6.20494">
        <ele>527</ele>
        <time>2017-05-28T09:15:03.000Z</time>
      </trkpt>
      <trkpt lat="45.85737" lon="6.20469">
        <ele>526.40002441406</ele>
        <time>2017-05-28T09:15:10.000Z</time>
      </trkpt>
      <trkpt lat="45.85734" lon="6.20438">
        <ele>525.20001220703</ele>
        <time>2017-05-28T09:15:18.000Z</time>
      </trkpt>
      <trkpt lat="45.85739" lon="6.2041">
        <ele>523.79998779297</ele>
        <time>2017-05-28T09:15:25.000Z</time>
      </trkpt>
      <trkpt lat="45.85749" lon="6.20384">
        <ele>523.20001220703</ele>
        <time>2017-05-28T09:15:32.000Z</time>
      </trkpt>
      <trkpt lat="45.85762" lon="6.2036">
        <ele>522.20001220703</ele>
        <time>2017-05-28T09:15:39.000Z</time>
      </trkpt>
      <trkpt lat="45.85777" lon="6.20341">
        <ele>521.59997558594</ele>
        <time>2017-05-28T09:15:46.000Z</time>
      </trkpt>
      <trkpt lat="45.85795" lon="6.20323">
        <ele>519.59997558594</ele>
        <time>2017-05-28T09:15:53.000Z</time>
      </trkpt>
      <trkpt lat="45.85808" lon="6.203">
        <ele>518.20001220703</ele>
        <time>2017-05-28T09:16:00.000Z</time>
      </trkpt>
      <trkpt lat="45.85822" lon="6.20279">
        <ele>516.40002441406</ele>
        <time>2017-05-28T09:16:07.000Z</time>
      </trkpt>
      <trkpt lat="45.85829" lon="6.20268">
        <ele>515.20001220703</ele>
        <time>2017-05-28T09:16:10.000Z</time>
      </trkpt>
      <trkpt lat="45.8585" lon="6.2026">
        <ele>512.40002441406</ele>
        <time>2017-05-28T09:16:17.000Z</time>
      </trkpt>
      <trkpt lat="45.85871" lon="6.20257">
        <ele>510.79998779297</ele>
        <time>2017-05-28T09:16:24.000Z</time>
      </trkpt>
      <trkpt lat="45.85891" lon="6.20247">
        <ele>508.79998779297</ele>
        <time>2017-05-28T09:16:31.000Z</time>
      </trkpt>
      <trkpt lat="45.85911" lon="6.20235">
        <ele>506.79998779297</ele>
        <time>2017-05-28T09:16:38.000Z</time>
      </trkpt>
      <trkpt lat="45.85932" lon="6.20223">
        <ele>505</ele>
        <time>2017-05-28T09:16:45.000Z</time>
      </trkpt>
      <trkpt lat="45.85952" lon="6.20212">
        <ele>503.39999389648</ele>
        <time>2017-05-28T09:16:52.000Z</time>
      </trkpt>
      <trkpt lat="45.85972" lon="6.20201">
        <ele>501.39999389648</ele>
        <time>2017-05-28T09:16:59.000Z</time>
      </trkpt>
      <trkpt lat="45.85994" lon="6.20197">
        <ele>500.20001220703</ele>
        <time>2017-05-28T09:17:06.000Z</time>
      </trkpt>
      <trkpt lat="45.86012" lon="6.20192">
        <ele>498.60000610352</ele>
        <time>2017-05-28T09:17:13.000Z</time>
      </trkpt>
      <trkpt lat="45.86031" lon="6.20185">
        <ele>497.39999389648</ele>
        <time>2017-05-28T09:17:20.000Z</time>
      </trkpt>
      <trkpt lat="45.8605" lon="6.20177">
        <ele>496</ele>
        <time>2017-05-28T09:17:27.000Z</time>
      </trkpt>
      <trkpt lat="45.8607" lon="6.20165">
        <ele>495.39999389648</ele>
        <time>2017-05-28T09:17:34.000Z</time>
      </trkpt>
      <trkpt lat="45.86091" lon="6.20152">
        <ele>494.60000610352</ele>
        <time>2017-05-28T09:17:41.000Z</time>
      </trkpt>
      <trkpt lat="45.86112" lon="6.2014">
        <ele>494.20001220703</ele>
        <time>2017-05-28T09:17:48.000Z</time>
      </trkpt>
      <trkpt lat="45.8613" lon="6.20131">
        <ele>494.20001220703</ele>
        <time>2017-05-28T09:17:55.000Z</time>
      </trkpt>
      <trkpt lat="45.86149" lon="6.20121">
        <ele>494.39999389648</ele>
        <time>2017-05-28T09:18:03.000Z</time>
      </trkpt>
      <trkpt lat="45.86167" lon="6.20113">
        <ele>494.60000610352</ele>
        <time>2017-05-28T09:18:10.000Z</time>
      </trkpt>
      <trkpt lat="45.86177" lon="6.20101">
        <ele>494.60000610352</ele>
        <time>2017-05-28T09:18:16.000Z</time>
      </trkpt>
      <trkpt lat="45.86175" lon="6.20098">
        <ele>494.20001220703</ele>
        <time>2017-05-28T09:18:17.000Z</time>
      </trkpt>
      <trkpt lat="45.86161" lon="6.20074">
        <ele>492.79998779297</ele>
        <time>2017-05-28T09:18:24.000Z</time>
      </trkpt>
      <trkpt lat="45.86149" lon="6.2005">
        <ele>490.79998779297</ele>
        <time>2017-05-28T09:18:31.000Z</time>
      </trkpt>
      <trkpt lat="45.86137" lon="6.20026">
        <ele>489.79998779297</ele>
        <time>2017-05-28T09:18:38.000Z</time>
      </trkpt>
      <trkpt lat="45.86122" lon="6.20006">
        <ele>489.20001220703</ele>
        <time>2017-05-28T09:18:45.000Z</time>
      </trkpt>
      <trkpt lat="45.86106" lon="6.19989">
        <ele>488.60000610352</ele>
        <time>2017-05-28T09:18:52.000Z</time>
      </trkpt>
      <trkpt lat="45.86097" lon="6.19963">
        <ele>487.39999389648</ele>
        <time>2017-05-28T09:19:01.000Z</time>
      </trkpt>
      <trkpt lat="45.86097" lon="6.19951">
        <ele>487.39999389648</ele>
        <time>2017-05-28T09:19:10.000Z</time>
      </trkpt>
      <trkpt lat="45.86101" lon="6.19948">
        <ele>487.60000610352</ele>
        <time>2017-05-28T09:19:37.000Z</time>
      </trkpt>
      <trkpt lat="45.861" lon="6.19951">
        <ele>488</ele>
        <time>2017-05-28T09:20:08.000Z</time>
      </trkpt>
      <trkpt lat="45.86109" lon="6.19953">
        <ele>488.20001220703</ele>
        <time>2017-05-28T09:20:35.000Z</time>
      </trkpt>
      <trkpt lat="45.86128" lon="6.19956">
        <ele>488.39999389648</ele>
        <time>2017-05-28T09:21:00.000Z</time>
      </trkpt>
      <trkpt lat="45.86129" lon="6.19959">
        <ele>488.39999389648</ele>
        <time>2017-05-28T09:21:01.000Z</time>
      </trkpt>
      <trkpt lat="45.86129" lon="6.19963">
        <ele>488.39999389648</ele>
        <time>2017-05-28T09:21:02.000Z</time>
      </trkpt>
      <trkpt lat="45.86128" lon="6.19956">
        <ele>488.20001220703</ele>
        <time>2017-05-28T09:21:42.000Z</time>
      </trkpt>
      <trkpt lat="45.86129" lon="6.19956">
        <ele>488.20001220703</ele>
        <time>2017-05-28T09:21:43.000Z</time>
      </trkpt>
      <trkpt lat="45.86127" lon="6.1995">
        <ele>488.20001220703</ele>
        <time>2017-05-28T09:21:47.000Z</time>
      </trkpt>
      <trkpt lat="45.86127" lon="6.19949">
        <ele>488.20001220703</ele>
        <time>2017-05-28T09:21:48.000Z</time>
      </trkpt>
      <trkpt lat="45.86131" lon="6.19945">
        <ele>488</ele>
        <time>2017-05-28T09:21:55.000Z</time>
      </trkpt>
      <trkpt lat="45.86142" lon="6.19942">
        <ele>488.20001220703</ele>
        <time>2017-05-28T09:22:20.000Z</time>
      </trkpt>
      <trkpt lat="45.86135" lon="6.19951">
        <ele>488.39999389648</ele>
        <time>2017-05-28T09:22:25.000Z</time>
      </trkpt>
      <trkpt lat="45.86129" lon="6.19958">
        <ele>488</ele>
        <time>2017-05-28T09:22:30.000Z</time>
      </trkpt>
      <trkpt lat="45.86128" lon="6.19959">
        <ele>487.79998779297</ele>
        <time>2017-05-28T09:22:31.000Z</time>
      </trkpt>
      <trkpt lat="45.86119" lon="6.19963">
        <ele>487.79998779297</ele>
        <time>2017-05-28T09:22:56.000Z</time>
      </trkpt>
      <trkpt lat="45.86116" lon="6.19964">
        <ele>488.20001220703</ele>
        <time>2017-05-28T09:23:07.000Z</time>
      </trkpt>
      <trkpt lat="45.86112" lon="6.19969">
        <ele>487.60000610352</ele>
        <time>2017-05-28T09:23:21.000Z</time>
      </trkpt>
      <trkpt lat="45.86116" lon="6.19969">
        <ele>488</ele>
        <time>2017-05-28T09:23:35.000Z</time>
      </trkpt>
      <trkpt lat="45.86119" lon="6.19963">
        <ele>487.79998779297</ele>
        <time>2017-05-28T09:23:42.000Z</time>
      </trkpt>
      <trkpt lat="45.86118" lon="6.19962">
        <ele>487.79998779297</ele>
        <time>2017-05-28T09:23:43.000Z</time>
      </trkpt>
      <trkpt lat="45.86118" lon="6.1996">
        <ele>487.79998779297</ele>
        <time>2017-05-28T09:23:45.000Z</time>
      </trkpt>
      <trkpt lat="45.86119" lon="6.19972">
        <ele>488</ele>
        <time>2017-05-28T09:24:29.000Z</time>
      </trkpt>
      <trkpt lat="45.86122" lon="6.19975">
        <ele>488</ele>
        <time>2017-05-28T09:24:42.000Z</time>
      </trkpt>
      <trkpt lat="45.86124" lon="6.19978">
        <ele>487.79998779297</ele>
        <time>2017-05-28T09:24:50.000Z</time>
      </trkpt>
      <trkpt lat="45.86125" lon="6.19972">
        <ele>487.79998779297</ele>
        <time>2017-05-28T09:24:57.000Z</time>
      </trkpt>
      <trkpt lat="45.86124" lon="6.19971">
        <ele>487.79998779297</ele>
        <time>2017-05-28T09:24:58.000Z</time>
      </trkpt>
      <trkpt lat="45.86124" lon="6.19972">
        <ele>487.79998779297</ele>
        <time>2017-05-28T09:25:00.000Z</time>
      </trkpt>
      <trkpt lat="45.86123" lon="6.1997">
        <ele>488.20001220703</ele>
        <time>2017-05-28T09:25:06.000Z</time>
      </trkpt>
      <trkpt lat="45.86121" lon="6.19959">
        <ele>487.79998779297</ele>
        <time>2017-05-28T09:25:42.000Z</time>
      </trkpt>
      <trkpt lat="45.86122" lon="6.1996">
        <ele>487.79998779297</ele>
        <time>2017-05-28T09:25:43.000Z</time>
      </trkpt>
      <trkpt lat="45.86123" lon="6.19963">
        <ele>488.20001220703</ele>
        <time>2017-05-28T09:25:54.000Z</time>
      </trkpt>
      <trkpt lat="45.86118" lon="6.19965">
        <ele>488.39999389648</ele>
        <time>2017-05-28T09:26:14.000Z</time>
      </trkpt>
      <trkpt lat="45.86114" lon="6.19965">
        <ele>488.60000610352</ele>
        <time>2017-05-28T09:26:17.000Z</time>
      </trkpt>
      <trkpt lat="45.86112" lon="6.19963">
        <ele>488.60000610352</ele>
        <time>2017-05-28T09:26:34.000Z</time>
      </trkpt>
      <trkpt lat="45.86113" lon="6.19963">
        <ele>488.60000610352</ele>
        <time>2017-05-28T09:26:35.000Z</time>
      </trkpt>
      <trkpt lat="45.86106" lon="6.19959">
        <ele>488.39999389648</ele>
        <time>2017-05-28T09:26:54.000Z</time>
      </trkpt>
      <trkpt lat="45.86107" lon="6.1996">
        <ele>488.39999389648</ele>
        <time>2017-05-28T09:26:59.000Z</time>
      </trkpt>
      <trkpt lat="45.86112" lon="6.1997">
        <ele>488.60000610352</ele>
        <time>2017-05-28T09:27:43.000Z</time>
      </trkpt>
      <trkpt lat="45.86112" lon="6.19969">
        <ele>488.60000610352</ele>
        <time>2017-05-28T09:27:44.000Z</time>
      </trkpt>
      <trkpt lat="45.86113" lon="6.1997">
        <ele>488.60000610352</ele>
        <time>2017-05-28T09:27:48.000Z</time>
      </trkpt>
      <trkpt lat="45.86117" lon="6.19971">
        <ele>488.79998779297</ele>
        <time>2017-05-28T09:28:05.000Z</time>
      </trkpt>
      <trkpt lat="45.86118" lon="6.19968">
        <ele>488.79998779297</ele>
        <time>2017-05-28T09:28:06.000Z</time>
      </trkpt>
      <trkpt lat="45.86123" lon="6.19967">
        <ele>488.20001220703</ele>
        <time>2017-05-28T09:28:26.000Z</time>
      </trkpt>
      <trkpt lat="45.86123" lon="6.19969">
        <ele>488.39999389648</ele>
        <time>2017-05-28T09:28:28.000Z</time>
      </trkpt>
      <trkpt lat="45.86122" lon="6.19973">
        <ele>488.20001220703</ele>
        <time>2017-05-28T09:28:31.000Z</time>
      </trkpt>
      <trkpt lat="45.86121" lon="6.19989">
        <ele>489.20001220703</ele>
        <time>2017-05-28T09:28:39.000Z</time>
      </trkpt>
      <trkpt lat="45.86122" lon="6.1999">
        <ele>489.39999389648</ele>
        <time>2017-05-28T09:28:40.000Z</time>
      </trkpt>
      <trkpt lat="45.86125" lon="6.19995">
        <ele>489.60000610352</ele>
        <time>2017-05-28T09:28:43.000Z</time>
      </trkpt>
      <trkpt lat="45.86127" lon="6.19996">
        <ele>489.60000610352</ele>
        <time>2017-05-28T09:28:44.000Z</time>
      </trkpt>
      <trkpt lat="45.86128" lon="6.19997">
        <ele>489.79998779297</ele>
        <time>2017-05-28T09:28:45.000Z</time>
      </trkpt>
      <trkpt lat="45.86129" lon="6.19997">
        <ele>490</ele>
        <time>2017-05-28T09:28:46.000Z</time>
      </trkpt>
      <trkpt lat="45.8613" lon="6.19998">
        <ele>490</ele>
        <time>2017-05-28T09:28:47.000Z</time>
      </trkpt>
      <trkpt lat="45.86131" lon="6.19998">
        <ele>490</ele>
        <time>2017-05-28T09:28:48.000Z</time>
      </trkpt>
      <trkpt lat="45.86132" lon="6.2">
        <ele>490</ele>
        <time>2017-05-28T09:28:49.000Z</time>
      </trkpt>
      <trkpt lat="45.86133" lon="6.20002">
        <ele>490</ele>
        <time>2017-05-28T09:28:50.000Z</time>
      </trkpt>
      <trkpt lat="45.86134" lon="6.20004">
        <ele>489.79998779297</ele>
        <time>2017-05-28T09:28:51.000Z</time>
      </trkpt>
      <trkpt lat="45.86135" lon="6.20006">
        <ele>489.79998779297</ele>
        <time>2017-05-28T09:28:52.000Z</time>
      </trkpt>
      <trkpt lat="45.86148" lon="6.20031">
        <ele>490.60000610352</ele>
        <time>2017-05-28T09:29:05.000Z</time>
      </trkpt>
      <trkpt lat="45.86157" lon="6.20058">
        <ele>491.60000610352</ele>
        <time>2017-05-28T09:29:19.000Z</time>
      </trkpt>
      <trkpt lat="45.86157" lon="6.20062">
        <ele>491.79998779297</ele>
        <time>2017-05-28T09:29:34.000Z</time>
      </trkpt>
      <trkpt lat="45.86158" lon="6.20063">
        <ele>492</ele>
        <time>2017-05-28T09:29:35.000Z</time>
      </trkpt>
      <trkpt lat="45.86171" lon="6.20087">
        <ele>493.20001220703</ele>
        <time>2017-05-28T09:29:46.000Z</time>
      </trkpt>
      <trkpt lat="45.86179" lon="6.20105">
        <ele>494.39999389648</ele>
        <time>2017-05-28T09:29:53.000Z</time>
      </trkpt>
      <trkpt lat="45.86182" lon="6.20105">
        <ele>494.79998779297</ele>
        <time>2017-05-28T09:29:54.000Z</time>
      </trkpt>
      <trkpt lat="45.86201" lon="6.201">
        <ele>496</ele>
        <time>2017-05-28T09:30:03.000Z</time>
      </trkpt>
      <trkpt lat="45.86207" lon="6.20096">
        <ele>496.20001220703</ele>
        <time>2017-05-28T09:30:08.000Z</time>
      </trkpt>
      <trkpt lat="45.86208" lon="6.20094">
        <ele>496.20001220703</ele>
        <time>2017-05-28T09:30:09.000Z</time>
      </trkpt>
      <trkpt lat="45.8621" lon="6.20093">
        <ele>496.20001220703</ele>
        <time>2017-05-28T09:30:10.000Z</time>
      </trkpt>
      <trkpt lat="45.86211" lon="6.20092">
        <ele>496.20001220703</ele>
        <time>2017-05-28T09:30:11.000Z</time>
      </trkpt>
      <trkpt lat="45.86213" lon="6.2009">
        <ele>496.20001220703</ele>
        <time>2017-05-28T09:30:12.000Z</time>
      </trkpt>
      <trkpt lat="45.86215" lon="6.20089">
        <ele>496.39999389648</ele>
        <time>2017-05-28T09:30:13.000Z</time>
      </trkpt>
      <trkpt lat="45.86217" lon="6.20087">
        <ele>496.60000610352</ele>
        <time>2017-05-28T09:30:14.000Z</time>
      </trkpt>
      <trkpt lat="45.86219" lon="6.20086">
        <ele>496.60000610352</ele>
        <time>2017-05-28T09:30:15.000Z</time>
      </trkpt>
      <trkpt lat="45.86221" lon="6.20086">
        <ele>496.60000610352</ele>
        <time>2017-05-28T09:30:16.000Z</time>
      </trkpt>
      <trkpt lat="45.86223" lon="6.20085">
        <ele>496.79998779297</ele>
        <time>2017-05-28T09:30:17.000Z</time>
      </trkpt>
      <trkpt lat="45.86225" lon="6.20084">
        <ele>496.60000610352</ele>
        <time>2017-05-28T09:30:18.000Z</time>
      </trkpt>
      <trkpt lat="45.86235" lon="6.20077">
        <ele>497.20001220703</ele>
        <time>2017-05-28T09:30:23.000Z</time>
      </trkpt>
      <trkpt lat="45.86237" lon="6.20076">
        <ele>497.39999389648</ele>
        <time>2017-05-28T09:30:24.000Z</time>
      </trkpt>
      <trkpt lat="45.86252" lon="6.20062">
        <ele>497.20001220703</ele>
        <time>2017-05-28T09:30:32.000Z</time>
      </trkpt>
      <trkpt lat="45.8627" lon="6.20047">
        <ele>498.20001220703</ele>
        <time>2017-05-28T09:30:42.000Z</time>
      </trkpt>
      <trkpt lat="45.86287" lon="6.20033">
        <ele>499.60000610352</ele>
        <time>2017-05-28T09:30:51.000Z</time>
      </trkpt>
      <trkpt lat="45.86305" lon="6.20017">
        <ele>500.39999389648</ele>
        <time>2017-05-28T09:31:00.000Z</time>
      </trkpt>
      <trkpt lat="45.86321" lon="6.20002">
        <ele>499.79998779297</ele>
        <time>2017-05-28T09:31:08.000Z</time>
      </trkpt>
      <trkpt lat="45.86341" lon="6.19988">
        <ele>498.20001220703</ele>
        <time>2017-05-28T09:31:17.000Z</time>
      </trkpt>
      <trkpt lat="45.86357" lon="6.19995">
        <ele>499.39999389648</ele>
        <time>2017-05-28T09:31:25.000Z</time>
      </trkpt>
      <trkpt lat="45.86359" lon="6.19996">
        <ele>499.60000610352</ele>
        <time>2017-05-28T09:31:26.000Z</time>
      </trkpt>
      <trkpt lat="45.86369" lon="6.20005">
        <ele>501.79998779297</ele>
        <time>2017-05-28T09:31:35.000Z</time>
      </trkpt>
      <trkpt lat="45.8637" lon="6.20007">
        <ele>502</ele>
        <time>2017-05-28T09:31:36.000Z</time>
      </trkpt>
      <trkpt lat="45.8637" lon="6.20008">
        <ele>502</ele>
        <time>2017-05-28T09:31:37.000Z</time>
      </trkpt>
      <trkpt lat="45.86371" lon="6.2001">
        <ele>502.20001220703</ele>
        <time>2017-05-28T09:31:38.000Z</time>
      </trkpt>
      <trkpt lat="45.86372" lon="6.20012">
        <ele>502.39999389648</ele>
        <time>2017-05-28T09:31:39.000Z</time>
      </trkpt>
      <trkpt lat="45.86381" lon="6.20024">
        <ele>504.79998779297</ele>
        <time>2017-05-28T09:31:51.000Z</time>
      </trkpt>
      <trkpt lat="45.86381" lon="6.20025">
        <ele>505.20001220703</ele>
        <time>2017-05-28T09:31:52.000Z</time>
      </trkpt>
      <trkpt lat="45.86381" lon="6.20027">
        <ele>505.60000610352</ele>
        <time>2017-05-28T09:31:53.000Z</time>
      </trkpt>
      <trkpt lat="45.86382" lon="6.20028">
        <ele>505.79998779297</ele>
        <time>2017-05-28T09:31:54.000Z</time>
      </trkpt>
      <trkpt lat="45.86382" lon="6.20029">
        <ele>505.79998779297</ele>
        <time>2017-05-28T09:31:55.000Z</time>
      </trkpt>
      <trkpt lat="45.86386" lon="6.2004">
        <ele>507.39999389648</ele>
        <time>2017-05-28T09:32:00.000Z</time>
      </trkpt>
      <trkpt lat="45.86387" lon="6.20043">
        <ele>507.79998779297</ele>
        <time>2017-05-28T09:32:01.000Z</time>
      </trkpt>
      <trkpt lat="45.86388" lon="6.20044">
        <ele>508</ele>
        <time>2017-05-28T09:32:02.000Z</time>
      </trkpt>
      <trkpt lat="45.86386" lon="6.20054">
        <ele>509.20001220703</ele>
        <time>2017-05-28T09:32:08.000Z</time>
      </trkpt>
      <trkpt lat="45.86385" lon="6.20056">
        <ele>509.39999389648</ele>
        <time>2017-05-28T09:32:09.000Z</time>
      </trkpt>
      <trkpt lat="45.86385" lon="6.20058">
        <ele>509.60000610352</ele>
        <time>2017-05-28T09:32:10.000Z</time>
      </trkpt>
      <trkpt lat="45.86381" lon="6.20069">
        <ele>512</ele>
        <time>2017-05-28T09:32:19.000Z</time>
      </trkpt>
      <trkpt lat="45.86379" lon="6.20072">
        <ele>513.40002441406</ele>
        <time>2017-05-28T09:32:23.000Z</time>
      </trkpt>
      <trkpt lat="45.86376" lon="6.20073">
        <ele>514.40002441406</ele>
        <time>2017-05-28T09:32:26.000Z</time>
      </trkpt>
      <trkpt lat="45.86374" lon="6.20074">
        <ele>514.59997558594</ele>
        <time>2017-05-28T09:32:27.000Z</time>
      </trkpt>
      <trkpt lat="45.86373" lon="6.20074">
        <ele>514.79998779297</ele>
        <time>2017-05-28T09:32:28.000Z</time>
      </trkpt>
      <trkpt lat="45.86372" lon="6.20075">
        <ele>515</ele>
        <time>2017-05-28T09:32:29.000Z</time>
      </trkpt>
      <trkpt lat="45.8637" lon="6.20077">
        <ele>515.20001220703</ele>
        <time>2017-05-28T09:32:30.000Z</time>
      </trkpt>
      <trkpt lat="45.86368" lon="6.20078">
        <ele>515.40002441406</ele>
        <time>2017-05-28T09:32:31.000Z</time>
      </trkpt>
      <trkpt lat="45.86367" lon="6.2008">
        <ele>515.59997558594</ele>
        <time>2017-05-28T09:32:32.000Z</time>
      </trkpt>
      <trkpt lat="45.86367" lon="6.20082">
        <ele>515.79998779297</ele>
        <time>2017-05-28T09:32:33.000Z</time>
      </trkpt>
      <trkpt lat="45.86367" lon="6.20083">
        <ele>516.20001220703</ele>
        <time>2017-05-28T09:32:34.000Z</time>
      </trkpt>
      <trkpt lat="45.86367" lon="6.20085">
        <ele>516.59997558594</ele>
        <time>2017-05-28T09:32:35.000Z</time>
      </trkpt>
      <trkpt lat="45.86366" lon="6.20087">
        <ele>517</ele>
        <time>2017-05-28T09:32:36.000Z</time>
      </trkpt>
      <trkpt lat="45.86367" lon="6.20088">
        <ele>517.20001220703</ele>
        <time>2017-05-28T09:32:37.000Z</time>
      </trkpt>
      <trkpt lat="45.86367" lon="6.20092">
        <ele>518</ele>
        <time>2017-05-28T09:32:40.000Z</time>
      </trkpt>
      <trkpt lat="45.86369" lon="6.20099">
        <ele>519.59997558594</ele>
        <time>2017-05-28T09:32:48.000Z</time>
      </trkpt>
      <trkpt lat="45.86369" lon="6.20103">
        <ele>520.20001220703</ele>
        <time>2017-05-28T09:32:53.000Z</time>
      </trkpt>
      <trkpt lat="45.8637" lon="6.20107">
        <ele>520.79998779297</ele>
        <time>2017-05-28T09:32:56.000Z</time>
      </trkpt>
      <trkpt lat="45.8637" lon="6.20113">
        <ele>522</ele>
        <time>2017-05-28T09:33:01.000Z</time>
      </trkpt>
      <trkpt lat="45.86374" lon="6.20126">
        <ele>525.40002441406</ele>
        <time>2017-05-28T09:33:16.000Z</time>
      </trkpt>
      <trkpt lat="45.86373" lon="6.20137">
        <ele>527.40002441406</ele>
        <time>2017-05-28T09:33:29.000Z</time>
      </trkpt>
      <trkpt lat="45.86373" lon="6.20141">
        <ele>527</ele>
        <time>2017-05-28T09:33:30.000Z</time>
      </trkpt>
      <trkpt lat="45.86373" lon="6.20143">
        <ele>527</ele>
        <time>2017-05-28T09:33:31.000Z</time>
      </trkpt>
      <trkpt lat="45.86373" lon="6.20146">
        <ele>527.20001220703</ele>
        <time>2017-05-28T09:33:32.000Z</time>
      </trkpt>
      <trkpt lat="45.86373" lon="6.20148">
        <ele>527.20001220703</ele>
        <time>2017-05-28T09:33:33.000Z</time>
      </trkpt>
      <trkpt lat="45.86373" lon="6.2015">
        <ele>527.59997558594</ele>
        <time>2017-05-28T09:33:34.000Z</time>
      </trkpt>
      <trkpt lat="45.86373" lon="6.20152">
        <ele>528</ele>
        <time>2017-05-28T09:33:35.000Z</time>
      </trkpt>
      <trkpt lat="45.86373" lon="6.20153">
        <ele>528.40002441406</ele>
        <time>2017-05-28T09:33:36.000Z</time>
      </trkpt>
      <trkpt lat="45.86372" lon="6.20169">
        <ele>531.40002441406</ele>
        <time>2017-05-28T09:33:46.000Z</time>
      </trkpt>
      <trkpt lat="45.86369" lon="6.20187">
        <ele>534.59997558594</ele>
        <time>2017-05-28T09:33:58.000Z</time>
      </trkpt>
      <trkpt lat="45.86366" lon="6.20214">
        <ele>537.59997558594</ele>
        <time>2017-05-28T09:34:13.000Z</time>
      </trkpt>
      <trkpt lat="45.86363" lon="6.20223">
        <ele>539.40002441406</ele>
        <time>2017-05-28T09:34:18.000Z</time>
      </trkpt>
      <trkpt lat="45.86347" lon="6.20245">
        <ele>542.40002441406</ele>
        <time>2017-05-28T09:34:34.000Z</time>
      </trkpt>
      <trkpt lat="45.86339" lon="6.20259">
        <ele>543.59997558594</ele>
        <time>2017-05-28T09:34:43.000Z</time>
      </trkpt>
      <trkpt lat="45.86339" lon="6.2026">
        <ele>543.59997558594</ele>
        <time>2017-05-28T09:34:44.000Z</time>
      </trkpt>
      <trkpt lat="45.86339" lon="6.20262">
        <ele>543.59997558594</ele>
        <time>2017-05-28T09:34:45.000Z</time>
      </trkpt>
      <trkpt lat="45.86338" lon="6.20267">
        <ele>544.59997558594</ele>
        <time>2017-05-28T09:34:49.000Z</time>
      </trkpt>
      <trkpt lat="45.86338" lon="6.20268">
        <ele>545</ele>
        <time>2017-05-28T09:34:50.000Z</time>
      </trkpt>
      <trkpt lat="45.86329" lon="6.20284">
        <ele>547.40002441406</ele>
        <time>2017-05-28T09:35:01.000Z</time>
      </trkpt>
      <trkpt lat="45.86321" lon="6.20302">
        <ele>549.20001220703</ele>
        <time>2017-05-28T09:35:12.000Z</time>
      </trkpt>
      <trkpt lat="45.8632" lon="6.20304">
        <ele>549.40002441406</ele>
        <time>2017-05-28T09:35:13.000Z</time>
      </trkpt>
      <trkpt lat="45.8632" lon="6.20305">
        <ele>549.40002441406</ele>
        <time>2017-05-28T09:35:14.000Z</time>
      </trkpt>
      <trkpt lat="45.86319" lon="6.20307">
        <ele>549.59997558594</ele>
        <time>2017-05-28T09:35:15.000Z</time>
      </trkpt>
      <trkpt lat="45.86318" lon="6.20308">
        <ele>549.79998779297</ele>
        <time>2017-05-28T09:35:16.000Z</time>
      </trkpt>
      <trkpt lat="45.86317" lon="6.20311">
        <ele>550</ele>
        <time>2017-05-28T09:35:18.000Z</time>
      </trkpt>
      <trkpt lat="45.86317" lon="6.20314">
        <ele>550</ele>
        <time>2017-05-28T09:35:19.000Z</time>
      </trkpt>
      <trkpt lat="45.86316" lon="6.20315">
        <ele>550</ele>
        <time>2017-05-28T09:35:20.000Z</time>
      </trkpt>
      <trkpt lat="45.86316" lon="6.20317">
        <ele>550.20001220703</ele>
        <time>2017-05-28T09:35:21.000Z</time>
      </trkpt>
      <trkpt lat="45.86308" lon="6.20334">
        <ele>551.40002441406</ele>
        <time>2017-05-28T09:35:33.000Z</time>
      </trkpt>
      <trkpt lat="45.86306" lon="6.20334">
        <ele>551.59997558594</ele>
        <time>2017-05-28T09:35:34.000Z</time>
      </trkpt>
      <trkpt lat="45.86304" lon="6.20336">
        <ele>551.59997558594</ele>
        <time>2017-05-28T09:35:35.000Z</time>
      </trkpt>
      <trkpt lat="45.86303" lon="6.20337">
        <ele>551.79998779297</ele>
        <time>2017-05-28T09:35:36.000Z</time>
      </trkpt>
      <trkpt lat="45.86302" lon="6.20339">
        <ele>552</ele>
        <time>2017-05-28T09:35:37.000Z</time>
      </trkpt>
      <trkpt lat="45.86301" lon="6.2034">
        <ele>552.20001220703</ele>
        <time>2017-05-28T09:35:38.000Z</time>
      </trkpt>
      <trkpt lat="45.863" lon="6.20342">
        <ele>552.40002441406</ele>
        <time>2017-05-28T09:35:39.000Z</time>
      </trkpt>
      <trkpt lat="45.86299" lon="6.20343">
        <ele>552.59997558594</ele>
        <time>2017-05-28T09:35:40.000Z</time>
      </trkpt>
      <trkpt lat="45.86298" lon="6.20344">
        <ele>552.79998779297</ele>
        <time>2017-05-28T09:35:41.000Z</time>
      </trkpt>
      <trkpt lat="45.86297" lon="6.20345">
        <ele>552.79998779297</ele>
        <time>2017-05-28T09:35:42.000Z</time>
      </trkpt>
      <trkpt lat="45.86284" lon="6.20368">
        <ele>555.40002441406</ele>
        <time>2017-05-28T09:35:56.000Z</time>
      </trkpt>
      <trkpt lat="45.86278" lon="6.20377">
        <ele>557.20001220703</ele>
        <time>2017-05-28T09:36:04.000Z</time>
      </trkpt>
      <trkpt lat="45.86277" lon="6.20377">
        <ele>557.40002441406</ele>
        <time>2017-05-28T09:36:05.000Z</time>
      </trkpt>
      <trkpt lat="45.86276" lon="6.20379">
        <ele>557.59997558594</ele>
        <time>2017-05-28T09:36:06.000Z</time>
      </trkpt>
      <trkpt lat="45.86274" lon="6.2038">
        <ele>557.79998779297</ele>
        <time>2017-05-28T09:36:07.000Z</time>
      </trkpt>
      <trkpt lat="45.86273" lon="6.20381">
        <ele>558</ele>
        <time>2017-05-28T09:36:08.000Z</time>
      </trkpt>
      <trkpt lat="45.86255" lon="6.20397">
        <ele>561.20001220703</ele>
        <time>2017-05-28T09:36:25.000Z</time>
      </trkpt>
      <trkpt lat="45.86255" lon="6.20398">
        <ele>561.40002441406</ele>
        <time>2017-05-28T09:36:26.000Z</time>
      </trkpt>
      <trkpt lat="45.86246" lon="6.20412">
        <ele>564.40002441406</ele>
        <time>2017-05-28T09:36:46.000Z</time>
      </trkpt>
      <trkpt lat="45.86256" lon="6.20417">
        <ele>566.59997558594</ele>
        <time>2017-05-28T09:36:59.000Z</time>
      </trkpt>
      <trkpt lat="45.86257" lon="6.20417">
        <ele>566.79998779297</ele>
        <time>2017-05-28T09:37:00.000Z</time>
      </trkpt>
      <trkpt lat="45.86258" lon="6.20417">
        <ele>567</ele>
        <time>2017-05-28T09:37:01.000Z</time>
      </trkpt>
      <trkpt lat="45.86264" lon="6.2042">
        <ele>568</ele>
        <time>2017-05-28T09:37:07.000Z</time>
      </trkpt>
      <trkpt lat="45.86269" lon="6.20426">
        <ele>571</ele>
        <time>2017-05-28T09:37:17.000Z</time>
      </trkpt>
      <trkpt lat="45.86271" lon="6.20423">
        <ele>571.79998779297</ele>
        <time>2017-05-28T09:37:20.000Z</time>
      </trkpt>
      <trkpt lat="45.86272" lon="6.20423">
        <ele>572</ele>
        <time>2017-05-28T09:37:21.000Z</time>
      </trkpt>
      <trkpt lat="45.86273" lon="6.20422">
        <ele>572.20001220703</ele>
        <time>2017-05-28T09:37:22.000Z</time>
      </trkpt>
      <trkpt lat="45.86278" lon="6.20421">
        <ele>572.79998779297</ele>
        <time>2017-05-28T09:37:25.000Z</time>
      </trkpt>
      <trkpt lat="45.8628" lon="6.20421">
        <ele>573</ele>
        <time>2017-05-28T09:37:26.000Z</time>
      </trkpt>
      <trkpt lat="45.86291" lon="6.20426">
        <ele>576.20001220703</ele>
        <time>2017-05-28T09:37:35.000Z</time>
      </trkpt>
      <trkpt lat="45.86303" lon="6.20433">
        <ele>579.20001220703</ele>
        <time>2017-05-28T09:37:44.000Z</time>
      </trkpt>
      <trkpt lat="45.86309" lon="6.20436">
        <ele>580.40002441406</ele>
        <time>2017-05-28T09:37:49.000Z</time>
      </trkpt>
      <trkpt lat="45.8631" lon="6.20436">
        <ele>580.59997558594</ele>
        <time>2017-05-28T09:37:50.000Z</time>
      </trkpt>
      <trkpt lat="45.86311" lon="6.20437">
        <ele>581</ele>
        <time>2017-05-28T09:37:51.000Z</time>
      </trkpt>
      <trkpt lat="45.86323" lon="6.2045">
        <ele>584</ele>
        <time>2017-05-28T09:38:05.000Z</time>
      </trkpt>
      <trkpt lat="45.86347" lon="6.20453">
        <ele>587</ele>
        <time>2017-05-28T09:38:21.000Z</time>
      </trkpt>
      <trkpt lat="45.86351" lon="6.20454">
        <ele>587.40002441406</ele>
        <time>2017-05-28T09:38:23.000Z</time>
      </trkpt>
      <trkpt lat="45.86352" lon="6.20455">
        <ele>587.79998779297</ele>
        <time>2017-05-28T09:38:24.000Z</time>
      </trkpt>
      <trkpt lat="45.86355" lon="6.20457">
        <ele>588</ele>
        <time>2017-05-28T09:38:25.000Z</time>
      </trkpt>
      <trkpt lat="45.86357" lon="6.20457">
        <ele>588</ele>
        <time>2017-05-28T09:38:26.000Z</time>
      </trkpt>
      <trkpt lat="45.86359" lon="6.20458">
        <ele>588.20001220703</ele>
        <time>2017-05-28T09:38:27.000Z</time>
      </trkpt>
      <trkpt lat="45.86362" lon="6.20458">
        <ele>588.40002441406</ele>
        <time>2017-05-28T09:38:28.000Z</time>
      </trkpt>
      <trkpt lat="45.86375" lon="6.20465">
        <ele>588.40002441406</ele>
        <time>2017-05-28T09:38:36.000Z</time>
      </trkpt>
      <trkpt lat="45.86377" lon="6.20465">
        <ele>588.40002441406</ele>
        <time>2017-05-28T09:38:37.000Z</time>
      </trkpt>
      <trkpt lat="45.86379" lon="6.20466">
        <ele>588.40002441406</ele>
        <time>2017-05-28T09:38:38.000Z</time>
      </trkpt>
      <trkpt lat="45.86381" lon="6.20466">
        <ele>588.20001220703</ele>
        <time>2017-05-28T09:38:39.000Z</time>
      </trkpt>
      <trkpt lat="45.86384" lon="6.20467">
        <ele>588</ele>
        <time>2017-05-28T09:38:40.000Z</time>
      </trkpt>
      <trkpt lat="45.86386" lon="6.20467">
        <ele>587.79998779297</ele>
        <time>2017-05-28T09:38:41.000Z</time>
      </trkpt>
      <trkpt lat="45.86404" lon="6.20477">
        <ele>585.40002441406</ele>
        <time>2017-05-28T09:38:50.000Z</time>
      </trkpt>
      <trkpt lat="45.86423" lon="6.20491">
        <ele>583.79998779297</ele>
        <time>2017-05-28T09:38:58.000Z</time>
      </trkpt>
      <trkpt lat="45.86433" lon="6.20513">
        <ele>582.20001220703</ele>
        <time>2017-05-28T09:39:05.000Z</time>
      </trkpt>
      <trkpt lat="45.86443" lon="6.2054">
        <ele>581.79998779297</ele>
        <time>2017-05-28T09:39:14.000Z</time>
      </trkpt>
      <trkpt lat="45.86449" lon="6.20567">
        <ele>581.59997558594</ele>
        <time>2017-05-28T09:39:23.000Z</time>
      </trkpt>
      <trkpt lat="45.86452" lon="6.20567">
        <ele>581.59997558594</ele>
        <time>2017-05-28T09:39:24.000Z</time>
      </trkpt>
      <trkpt lat="45.86452" lon="6.2057">
        <ele>581.59997558594</ele>
        <time>2017-05-28T09:39:25.000Z</time>
      </trkpt>
      <trkpt lat="45.86454" lon="6.20573">
        <ele>581.59997558594</ele>
        <time>2017-05-28T09:39:26.000Z</time>
      </trkpt>
      <trkpt lat="45.86462" lon="6.20601">
        <ele>581.20001220703</ele>
        <time>2017-05-28T09:39:34.000Z</time>
      </trkpt>
      <trkpt lat="45.86474" lon="6.20629">
        <ele>579.79998779297</ele>
        <time>2017-05-28T09:39:42.000Z</time>
      </trkpt>
      <trkpt lat="45.86488" lon="6.20655">
        <ele>578</ele>
        <time>2017-05-28T09:39:50.000Z</time>
      </trkpt>
      <trkpt lat="45.86509" lon="6.20679">
        <ele>576.59997558594</ele>
        <time>2017-05-28T09:39:58.000Z</time>
      </trkpt>
      <trkpt lat="45.86522" lon="6.20702">
        <ele>575.40002441406</ele>
        <time>2017-05-28T09:40:07.000Z</time>
      </trkpt>
      <trkpt lat="45.86524" lon="6.20703">
        <ele>575</ele>
        <time>2017-05-28T09:40:08.000Z</time>
      </trkpt>
      <trkpt lat="45.86538" lon="6.20716">
        <ele>572.59997558594</ele>
        <time>2017-05-28T09:40:14.000Z</time>
      </trkpt>
      <trkpt lat="45.86555" lon="6.20731">
        <ele>569.40002441406</ele>
        <time>2017-05-28T09:40:21.000Z</time>
      </trkpt>
      <trkpt lat="45.86566" lon="6.20756">
        <ele>567</ele>
        <time>2017-05-28T09:40:29.000Z</time>
      </trkpt>
      <trkpt lat="45.86576" lon="6.20783">
        <ele>563.79998779297</ele>
        <time>2017-05-28T09:40:37.000Z</time>
      </trkpt>
      <trkpt lat="45.86594" lon="6.20796">
        <ele>560.59997558594</ele>
        <time>2017-05-28T09:40:43.000Z</time>
      </trkpt>
      <trkpt lat="45.86614" lon="6.20815">
        <ele>559.40002441406</ele>
        <time>2017-05-28T09:40:52.000Z</time>
      </trkpt>
      <trkpt lat="45.86629" lon="6.20831">
        <ele>560.40002441406</ele>
        <time>2017-05-28T09:41:01.000Z</time>
      </trkpt>
      <trkpt lat="45.86628" lon="6.20838">
        <ele>560.59997558594</ele>
        <time>2017-05-28T09:41:02.000Z</time>
      </trkpt>
      <trkpt lat="45.86628" lon="6.20842">
        <ele>560.79998779297</ele>
        <time>2017-05-28T09:41:03.000Z</time>
      </trkpt>
      <trkpt lat="45.86629" lon="6.20845">
        <ele>561</ele>
        <time>2017-05-28T09:41:04.000Z</time>
      </trkpt>
      <trkpt lat="45.8665" lon="6.20875">
        <ele>563.40002441406</ele>
        <time>2017-05-28T09:41:20.000Z</time>
      </trkpt>
      <trkpt lat="45.86671" lon="6.20892">
        <ele>564.20001220703</ele>
        <time>2017-05-28T09:41:31.000Z</time>
      </trkpt>
      <trkpt lat="45.86689" lon="6.20923">
        <ele>565.40002441406</ele>
        <time>2017-05-28T09:41:42.000Z</time>
      </trkpt>
      <trkpt lat="45.86697" lon="6.20958">
        <ele>566.79998779297</ele>
        <time>2017-05-28T09:41:53.000Z</time>
      </trkpt>
      <trkpt lat="45.86699" lon="6.2096">
        <ele>566.79998779297</ele>
        <time>2017-05-28T09:41:54.000Z</time>
      </trkpt>
      <trkpt lat="45.86707" lon="6.20988">
        <ele>568.40002441406</ele>
        <time>2017-05-28T09:42:06.000Z</time>
      </trkpt>
      <trkpt lat="45.86722" lon="6.21011">
        <ele>570.20001220703</ele>
        <time>2017-05-28T09:42:20.000Z</time>
      </trkpt>
      <trkpt lat="45.86726" lon="6.21012">
        <ele>570.40002441406</ele>
        <time>2017-05-28T09:42:22.000Z</time>
      </trkpt>
      <trkpt lat="45.86727" lon="6.21012">
        <ele>570.40002441406</ele>
        <time>2017-05-28T09:42:23.000Z</time>
      </trkpt>
      <trkpt lat="45.86729" lon="6.21014">
        <ele>570.59997558594</ele>
        <time>2017-05-28T09:42:24.000Z</time>
      </trkpt>
      <trkpt lat="45.86741" lon="6.21019">
        <ele>571.59997558594</ele>
        <time>2017-05-28T09:42:33.000Z</time>
      </trkpt>
      <trkpt lat="45.86744" lon="6.21018">
        <ele>571.59997558594</ele>
        <time>2017-05-28T09:42:34.000Z</time>
      </trkpt>
      <trkpt lat="45.86747" lon="6.21018">
        <ele>571.59997558594</ele>
        <time>2017-05-28T09:42:35.000Z</time>
      </trkpt>
      <trkpt lat="45.86748" lon="6.21018">
        <ele>571.79998779297</ele>
        <time>2017-05-28T09:42:36.000Z</time>
      </trkpt>
      <trkpt lat="45.86752" lon="6.21016">
        <ele>572.20001220703</ele>
        <time>2017-05-28T09:42:37.000Z</time>
      </trkpt>
      <trkpt lat="45.86755" lon="6.21016">
        <ele>572.40002441406</ele>
        <time>2017-05-28T09:42:38.000Z</time>
      </trkpt>
      <trkpt lat="45.86757" lon="6.21014">
        <ele>572.40002441406</ele>
        <time>2017-05-28T09:42:39.000Z</time>
      </trkpt>
      <trkpt lat="45.86758" lon="6.21014">
        <ele>572.59997558594</ele>
        <time>2017-05-28T09:42:40.000Z</time>
      </trkpt>
      <trkpt lat="45.8676" lon="6.21013">
        <ele>572.79998779297</ele>
        <time>2017-05-28T09:42:41.000Z</time>
      </trkpt>
      <trkpt lat="45.86761" lon="6.21011">
        <ele>573</ele>
        <time>2017-05-28T09:42:42.000Z</time>
      </trkpt>
      <trkpt lat="45.86762" lon="6.2101">
        <ele>573.20001220703</ele>
        <time>2017-05-28T09:42:43.000Z</time>
      </trkpt>
      <trkpt lat="45.86764" lon="6.21009">
        <ele>573.40002441406</ele>
        <time>2017-05-28T09:42:44.000Z</time>
      </trkpt>
      <trkpt lat="45.86765" lon="6.21009">
        <ele>573.59997558594</ele>
        <time>2017-05-28T09:42:45.000Z</time>
      </trkpt>
      <trkpt lat="45.86769" lon="6.21009">
        <ele>575.20001220703</ele>
        <time>2017-05-28T09:42:49.000Z</time>
      </trkpt>
      <trkpt lat="45.86771" lon="6.2101">
        <ele>575.79998779297</ele>
        <time>2017-05-28T09:42:50.000Z</time>
      </trkpt>
      <trkpt lat="45.8679" lon="6.21008">
        <ele>578.59997558594</ele>
        <time>2017-05-28T09:43:03.000Z</time>
      </trkpt>
      <trkpt lat="45.86799" lon="6.2101">
        <ele>581</ele>
        <time>2017-05-28T09:43:13.000Z</time>
      </trkpt>
      <trkpt lat="45.868" lon="6.2101">
        <ele>581</ele>
        <time>2017-05-28T09:43:14.000Z</time>
      </trkpt>
      <trkpt lat="45.86802" lon="6.21011">
        <ele>581.20001220703</ele>
        <time>2017-05-28T09:43:15.000Z</time>
      </trkpt>
      <trkpt lat="45.86803" lon="6.21011">
        <ele>581.40002441406</ele>
        <time>2017-05-28T09:43:16.000Z</time>
      </trkpt>
      <trkpt lat="45.86818" lon="6.21014">
        <ele>583.79998779297</ele>
        <time>2017-05-28T09:43:29.000Z</time>
      </trkpt>
      <trkpt lat="45.86819" lon="6.21014">
        <ele>583.79998779297</ele>
        <time>2017-05-28T09:43:30.000Z</time>
      </trkpt>
      <trkpt lat="45.8682" lon="6.21014">
        <ele>584</ele>
        <time>2017-05-28T09:43:31.000Z</time>
      </trkpt>
      <trkpt lat="45.86822" lon="6.21012">
        <ele>584.40002441406</ele>
        <time>2017-05-28T09:43:32.000Z</time>
      </trkpt>
      <trkpt lat="45.86823" lon="6.21012">
        <ele>584.40002441406</ele>
        <time>2017-05-28T09:43:33.000Z</time>
      </trkpt>
      <trkpt lat="45.86826" lon="6.21013">
        <ele>584.40002441406</ele>
        <time>2017-05-28T09:43:34.000Z</time>
      </trkpt>
      <trkpt lat="45.86827" lon="6.21013">
        <ele>584.40002441406</ele>
        <time>2017-05-28T09:43:35.000Z</time>
      </trkpt>
      <trkpt lat="45.86829" lon="6.21013">
        <ele>584.40002441406</ele>
        <time>2017-05-28T09:43:36.000Z</time>
      </trkpt>
      <trkpt lat="45.86831" lon="6.21012">
        <ele>584.59997558594</ele>
        <time>2017-05-28T09:43:37.000Z</time>
      </trkpt>
      <trkpt lat="45.86833" lon="6.21013">
        <ele>584.59997558594</ele>
        <time>2017-05-28T09:43:38.000Z</time>
      </trkpt>
      <trkpt lat="45.86856" lon="6.2101">
        <ele>587</ele>
        <time>2017-05-28T09:43:53.000Z</time>
      </trkpt>
      <trkpt lat="45.86857" lon="6.2101">
        <ele>587</ele>
        <time>2017-05-28T09:43:54.000Z</time>
      </trkpt>
      <trkpt lat="45.86858" lon="6.2101">
        <ele>587.20001220703</ele>
        <time>2017-05-28T09:43:55.000Z</time>
      </trkpt>
      <trkpt lat="45.8686" lon="6.21011">
        <ele>587.40002441406</ele>
        <time>2017-05-28T09:43:56.000Z</time>
      </trkpt>
      <trkpt lat="45.86861" lon="6.21012">
        <ele>587.59997558594</ele>
        <time>2017-05-28T09:43:57.000Z</time>
      </trkpt>
      <trkpt lat="45.86883" lon="6.21009">
        <ele>588.59997558594</ele>
        <time>2017-05-28T09:44:09.000Z</time>
      </trkpt>
      <trkpt lat="45.86902" lon="6.21022">
        <ele>590</ele>
        <time>2017-05-28T09:44:21.000Z</time>
      </trkpt>
      <trkpt lat="45.86905" lon="6.21024">
        <ele>590.40002441406</ele>
        <time>2017-05-28T09:44:23.000Z</time>
      </trkpt>
      <trkpt lat="45.86907" lon="6.21024">
        <ele>590.59997558594</ele>
        <time>2017-05-28T09:44:24.000Z</time>
      </trkpt>
      <trkpt lat="45.86908" lon="6.21025">
        <ele>590.79998779297</ele>
        <time>2017-05-28T09:44:25.000Z</time>
      </trkpt>
      <trkpt lat="45.8691" lon="6.21027">
        <ele>590.79998779297</ele>
        <time>2017-05-28T09:44:26.000Z</time>
      </trkpt>
      <trkpt lat="45.86911" lon="6.21028">
        <ele>591</ele>
        <time>2017-05-28T09:44:27.000Z</time>
      </trkpt>
      <trkpt lat="45.86913" lon="6.2103">
        <ele>591.20001220703</ele>
        <time>2017-05-28T09:44:28.000Z</time>
      </trkpt>
      <trkpt lat="45.86915" lon="6.21031">
        <ele>591.20001220703</ele>
        <time>2017-05-28T09:44:29.000Z</time>
      </trkpt>
      <trkpt lat="45.86917" lon="6.21031">
        <ele>591.20001220703</ele>
        <time>2017-05-28T09:44:30.000Z</time>
      </trkpt>
      <trkpt lat="45.86919" lon="6.21031">
        <ele>591.40002441406</ele>
        <time>2017-05-28T09:44:31.000Z</time>
      </trkpt>
      <trkpt lat="45.86921" lon="6.21031">
        <ele>591.59997558594</ele>
        <time>2017-05-28T09:44:32.000Z</time>
      </trkpt>
      <trkpt lat="45.86923" lon="6.21031">
        <ele>591.59997558594</ele>
        <time>2017-05-28T09:44:33.000Z</time>
      </trkpt>
      <trkpt lat="45.86943" lon="6.21039">
        <ele>593.59997558594</ele>
        <time>2017-05-28T09:44:44.000Z</time>
      </trkpt>
      <trkpt lat="45.8695" lon="6.21042">
        <ele>594</ele>
        <time>2017-05-28T09:44:48.000Z</time>
      </trkpt>
      <trkpt lat="45.86967" lon="6.21037">
        <ele>593.79998779297</ele>
        <time>2017-05-28T09:45:00.000Z</time>
      </trkpt>
      <trkpt lat="45.86982" lon="6.21029">
        <ele>595.20001220703</ele>
        <time>2017-05-28T09:45:14.000Z</time>
      </trkpt>
      <trkpt lat="45.86988" lon="6.21027">
        <ele>596.20001220703</ele>
        <time>2017-05-28T09:45:20.000Z</time>
      </trkpt>
      <trkpt lat="45.8699" lon="6.21026">
        <ele>596.40002441406</ele>
        <time>2017-05-28T09:45:21.000Z</time>
      </trkpt>
      <trkpt lat="45.87003" lon="6.21008">
        <ele>599.40002441406</ele>
        <time>2017-05-28T09:45:35.000Z</time>
      </trkpt>
      <trkpt lat="45.87017" lon="6.20986">
        <ele>602.20001220703</ele>
        <time>2017-05-28T09:45:51.000Z</time>
      </trkpt>
      <trkpt lat="45.87029" lon="6.20963">
        <ele>604.20001220703</ele>
        <time>2017-05-28T09:46:05.000Z</time>
      </trkpt>
      <trkpt lat="45.8703" lon="6.20962">
        <ele>604.20001220703</ele>
        <time>2017-05-28T09:46:06.000Z</time>
      </trkpt>
      <trkpt lat="45.87031" lon="6.2096">
        <ele>604.40002441406</ele>
        <time>2017-05-28T09:46:07.000Z</time>
      </trkpt>
      <trkpt lat="45.87031" lon="6.20958">
        <ele>604.40002441406</ele>
        <time>2017-05-28T09:46:08.000Z</time>
      </trkpt>
      <trkpt lat="45.87031" lon="6.20957">
        <ele>604.59997558594</ele>
        <time>2017-05-28T09:46:09.000Z</time>
      </trkpt>
      <trkpt lat="45.87039" lon="6.20925">
        <ele>606.79998779297</ele>
        <time>2017-05-28T09:46:22.000Z</time>
      </trkpt>
      <trkpt lat="45.87047" lon="6.20895">
        <ele>608</ele>
        <time>2017-05-28T09:46:35.000Z</time>
      </trkpt>
      <trkpt lat="45.87054" lon="6.20864">
        <ele>610.59997558594</ele>
        <time>2017-05-28T09:46:50.000Z</time>
      </trkpt>
      <trkpt lat="45.87056" lon="6.20835">
        <ele>612.59997558594</ele>
        <time>2017-05-28T09:47:08.000Z</time>
      </trkpt>
      <trkpt lat="45.87054" lon="6.20832">
        <ele>612.59997558594</ele>
        <time>2017-05-28T09:47:09.000Z</time>
      </trkpt>
      <trkpt lat="45.87053" lon="6.20828">
        <ele>612.59997558594</ele>
        <time>2017-05-28T09:47:10.000Z</time>
      </trkpt>
      <trkpt lat="45.87051" lon="6.20823">
        <ele>613.20001220703</ele>
        <time>2017-05-28T09:47:13.000Z</time>
      </trkpt>
      <trkpt lat="45.8705" lon="6.2082">
        <ele>613.59997558594</ele>
        <time>2017-05-28T09:47:14.000Z</time>
      </trkpt>
      <trkpt lat="45.87049" lon="6.20818">
        <ele>613.79998779297</ele>
        <time>2017-05-28T09:47:15.000Z</time>
      </trkpt>
      <trkpt lat="45.87048" lon="6.20816">
        <ele>614</ele>
        <time>2017-05-28T09:47:16.000Z</time>
      </trkpt>
      <trkpt lat="45.87047" lon="6.20815">
        <ele>614.40002441406</ele>
        <time>2017-05-28T09:47:17.000Z</time>
      </trkpt>
      <trkpt lat="45.87041" lon="6.20802">
        <ele>616.40002441406</ele>
        <time>2017-05-28T09:47:25.000Z</time>
      </trkpt>
      <trkpt lat="45.8704" lon="6.20801">
        <ele>616.59997558594</ele>
        <time>2017-05-28T09:47:26.000Z</time>
      </trkpt>
      <trkpt lat="45.8704" lon="6.20798">
        <ele>616.59997558594</ele>
        <time>2017-05-28T09:47:27.000Z</time>
      </trkpt>
      <trkpt lat="45.87034" lon="6.20785">
        <ele>617.40002441406</ele>
        <time>2017-05-28T09:47:35.000Z</time>
      </trkpt>
      <trkpt lat="45.87032" lon="6.20761">
        <ele>619.59997558594</ele>
        <time>2017-05-28T09:47:47.000Z</time>
      </trkpt>
      <trkpt lat="45.87033" lon="6.20759">
        <ele>619.79998779297</ele>
        <time>2017-05-28T09:47:48.000Z</time>
      </trkpt>
      <trkpt lat="45.87034" lon="6.20757">
        <ele>620</ele>
        <time>2017-05-28T09:47:49.000Z</time>
      </trkpt>
      <trkpt lat="45.87035" lon="6.20756">
        <ele>620.20001220703</ele>
        <time>2017-05-28T09:47:50.000Z</time>
      </trkpt>
      <trkpt lat="45.87036" lon="6.20756">
        <ele>620.40002441406</ele>
        <time>2017-05-28T09:47:51.000Z</time>
      </trkpt>
      <trkpt lat="45.87037" lon="6.20756">
        <ele>620.59997558594</ele>
        <time>2017-05-28T09:47:52.000Z</time>
      </trkpt>
      <trkpt lat="45.87038" lon="6.20755">
        <ele>620.59997558594</ele>
        <time>2017-05-28T09:47:53.000Z</time>
      </trkpt>
      <trkpt lat="45.87039" lon="6.20755">
        <ele>621</ele>
        <time>2017-05-28T09:47:54.000Z</time>
      </trkpt>
      <trkpt lat="45.8704" lon="6.20754">
        <ele>621.40002441406</ele>
        <time>2017-05-28T09:47:55.000Z</time>
      </trkpt>
      <trkpt lat="45.87041" lon="6.20754">
        <ele>621.59997558594</ele>
        <time>2017-05-28T09:47:56.000Z</time>
      </trkpt>
      <trkpt lat="45.87058" lon="6.20766">
        <ele>623.40002441406</ele>
        <time>2017-05-28T09:48:10.000Z</time>
      </trkpt>
      <trkpt lat="45.8706" lon="6.20765">
        <ele>623.59997558594</ele>
        <time>2017-05-28T09:48:11.000Z</time>
      </trkpt>
      <trkpt lat="45.87062" lon="6.20766">
        <ele>623.59997558594</ele>
        <time>2017-05-28T09:48:12.000Z</time>
      </trkpt>
      <trkpt lat="45.87064" lon="6.20765">
        <ele>623.59997558594</ele>
        <time>2017-05-28T09:48:13.000Z</time>
      </trkpt>
      <trkpt lat="45.87066" lon="6.20766">
        <ele>623.79998779297</ele>
        <time>2017-05-28T09:48:14.000Z</time>
      </trkpt>
      <trkpt lat="45.87068" lon="6.20766">
        <ele>623.79998779297</ele>
        <time>2017-05-28T09:48:15.000Z</time>
      </trkpt>
      <trkpt lat="45.87069" lon="6.20769">
        <ele>623.79998779297</ele>
        <time>2017-05-28T09:48:16.000Z</time>
      </trkpt>
      <trkpt lat="45.87071" lon="6.20771">
        <ele>624</ele>
        <time>2017-05-28T09:48:17.000Z</time>
      </trkpt>
      <trkpt lat="45.87072" lon="6.20772">
        <ele>624</ele>
        <time>2017-05-28T09:48:18.000Z</time>
      </trkpt>
      <trkpt lat="45.87073" lon="6.20773">
        <ele>624</ele>
        <time>2017-05-28T09:48:19.000Z</time>
      </trkpt>
      <trkpt lat="45.87075" lon="6.20774">
        <ele>624</ele>
        <time>2017-05-28T09:48:20.000Z</time>
      </trkpt>
      <trkpt lat="45.87076" lon="6.20776">
        <ele>624</ele>
        <time>2017-05-28T09:48:21.000Z</time>
      </trkpt>
      <trkpt lat="45.87077" lon="6.20776">
        <ele>624.20001220703</ele>
        <time>2017-05-28T09:48:22.000Z</time>
      </trkpt>
      <trkpt lat="45.87079" lon="6.20777">
        <ele>624.20001220703</ele>
        <time>2017-05-28T09:48:23.000Z</time>
      </trkpt>
      <trkpt lat="45.8708" lon="6.20787">
        <ele>624.40002441406</ele>
        <time>2017-05-28T09:48:25.000Z</time>
      </trkpt>
      <trkpt lat="45.8708" lon="6.20793">
        <ele>624.59997558594</ele>
        <time>2017-05-28T09:48:26.000Z</time>
      </trkpt>
      <trkpt lat="45.87081" lon="6.20795">
        <ele>624.59997558594</ele>
        <time>2017-05-28T09:48:27.000Z</time>
      </trkpt>
      <trkpt lat="45.87096" lon="6.2082">
        <ele>625</ele>
        <time>2017-05-28T09:48:38.000Z</time>
      </trkpt>
      <trkpt lat="45.87113" lon="6.20839">
        <ele>624.79998779297</ele>
        <time>2017-05-28T09:48:46.000Z</time>
      </trkpt>
      <trkpt lat="45.8713" lon="6.20847">
        <ele>625</ele>
        <time>2017-05-28T09:48:54.000Z</time>
      </trkpt>
      <trkpt lat="45.87151" lon="6.20857">
        <ele>625.20001220703</ele>
        <time>2017-05-28T09:49:02.000Z</time>
      </trkpt>
      <trkpt lat="45.87164" lon="6.20875">
        <ele>625.59997558594</ele>
        <time>2017-05-28T09:49:11.000Z</time>
      </trkpt>
      <trkpt lat="45.87166" lon="6.20876">
        <ele>625.59997558594</ele>
        <time>2017-05-28T09:49:12.000Z</time>
      </trkpt>
      <trkpt lat="45.87167" lon="6.20878">
        <ele>625.79998779297</ele>
        <time>2017-05-28T09:49:13.000Z</time>
      </trkpt>
      <trkpt lat="45.87169" lon="6.20879">
        <ele>626</ele>
        <time>2017-05-28T09:49:14.000Z</time>
      </trkpt>
      <trkpt lat="45.8717" lon="6.20881">
        <ele>626</ele>
        <time>2017-05-28T09:49:15.000Z</time>
      </trkpt>
      <trkpt lat="45.87185" lon="6.20901">
        <ele>625.59997558594</ele>
        <time>2017-05-28T09:49:23.000Z</time>
      </trkpt>
      <trkpt lat="45.87196" lon="6.20925">
        <ele>625.40002441406</ele>
        <time>2017-05-28T09:49:31.000Z</time>
      </trkpt>
      <trkpt lat="45.87207" lon="6.20949">
        <ele>624.79998779297</ele>
        <time>2017-05-28T09:49:39.000Z</time>
      </trkpt>
      <trkpt lat="45.87217" lon="6.20974">
        <ele>624.40002441406</ele>
        <time>2017-05-28T09:49:47.000Z</time>
      </trkpt>
      <trkpt lat="45.87229" lon="6.20997">
        <ele>623.79998779297</ele>
        <time>2017-05-28T09:49:55.000Z</time>
      </trkpt>
      <trkpt lat="45.87239" lon="6.2102">
        <ele>623.59997558594</ele>
        <time>2017-05-28T09:50:03.000Z</time>
      </trkpt>
      <trkpt lat="45.8725" lon="6.21044">
        <ele>623</ele>
        <time>2017-05-28T09:50:11.000Z</time>
      </trkpt>
      <trkpt lat="45.87258" lon="6.2108">
        <ele>622.40002441406</ele>
        <time>2017-05-28T09:50:22.000Z</time>
      </trkpt>
      <trkpt lat="45.87267" lon="6.21097">
        <ele>621</ele>
        <time>2017-05-28T09:50:31.000Z</time>
      </trkpt>
      <trkpt lat="45.87269" lon="6.21095">
        <ele>621</ele>
        <time>2017-05-28T09:50:32.000Z</time>
      </trkpt>
      <trkpt lat="45.87271" lon="6.21096">
        <ele>621</ele>
        <time>2017-05-28T09:50:33.000Z</time>
      </trkpt>
      <trkpt lat="45.87284" lon="6.2108">
        <ele>623</ele>
        <time>2017-05-28T09:50:47.000Z</time>
      </trkpt>
      <trkpt lat="45.87284" lon="6.21078">
        <ele>623.20001220703</ele>
        <time>2017-05-28T09:50:48.000Z</time>
      </trkpt>
      <trkpt lat="45.87285" lon="6.21077">
        <ele>623.40002441406</ele>
        <time>2017-05-28T09:50:49.000Z</time>
      </trkpt>
      <trkpt lat="45.87287" lon="6.21075">
        <ele>623.59997558594</ele>
        <time>2017-05-28T09:50:50.000Z</time>
      </trkpt>
      <trkpt lat="45.87298" lon="6.21057">
        <ele>625.20001220703</ele>
        <time>2017-05-28T09:51:00.000Z</time>
      </trkpt>
      <trkpt lat="45.87299" lon="6.21055">
        <ele>625.20001220703</ele>
        <time>2017-05-28T09:51:01.000Z</time>
      </trkpt>
      <trkpt lat="45.87301" lon="6.21054">
        <ele>625.40002441406</ele>
        <time>2017-05-28T09:51:02.000Z</time>
      </trkpt>
      <trkpt lat="45.87302" lon="6.21052">
        <ele>625.59997558594</ele>
        <time>2017-05-28T09:51:03.000Z</time>
      </trkpt>
      <trkpt lat="45.87303" lon="6.21051">
        <ele>625.79998779297</ele>
        <time>2017-05-28T09:51:04.000Z</time>
      </trkpt>
      <trkpt lat="45.87304" lon="6.21049">
        <ele>626</ele>
        <time>2017-05-28T09:51:05.000Z</time>
      </trkpt>
      <trkpt lat="45.87306" lon="6.21047">
        <ele>626</ele>
        <time>2017-05-28T09:51:06.000Z</time>
      </trkpt>
      <trkpt lat="45.87307" lon="6.21045">
        <ele>626.20001220703</ele>
        <time>2017-05-28T09:51:07.000Z</time>
      </trkpt>
      <trkpt lat="45.87308" lon="6.21043">
        <ele>626.40002441406</ele>
        <time>2017-05-28T09:51:08.000Z</time>
      </trkpt>
      <trkpt lat="45.87319" lon="6.21012">
        <ele>629</ele>
        <time>2017-05-28T09:51:26.000Z</time>
      </trkpt>
      <trkpt lat="45.87314" lon="6.2099">
        <ele>630.40002441406</ele>
        <time>2017-05-28T09:51:36.000Z</time>
      </trkpt>
      <trkpt lat="45.87314" lon="6.20988">
        <ele>630.59997558594</ele>
        <time>2017-05-28T09:51:37.000Z</time>
      </trkpt>
      <trkpt lat="45.87307" lon="6.20961">
        <ele>631.79998779297</ele>
        <time>2017-05-28T09:51:50.000Z</time>
      </trkpt>
      <trkpt lat="45.873" lon="6.20945">
        <ele>632.59997558594</ele>
        <time>2017-05-28T09:51:58.000Z</time>
      </trkpt>
      <trkpt lat="45.87299" lon="6.20944">
        <ele>632.59997558594</ele>
        <time>2017-05-28T09:51:59.000Z</time>
      </trkpt>
      <trkpt lat="45.87298" lon="6.20942">
        <ele>632.79998779297</ele>
        <time>2017-05-28T09:52:00.000Z</time>
      </trkpt>
      <trkpt lat="45.87298" lon="6.2094">
        <ele>632.79998779297</ele>
        <time>2017-05-28T09:52:01.000Z</time>
      </trkpt>
      <trkpt lat="45.87297" lon="6.20938">
        <ele>632.79998779297</ele>
        <time>2017-05-28T09:52:02.000Z</time>
      </trkpt>
      <trkpt lat="45.87296" lon="6.20936">
        <ele>633</ele>
        <time>2017-05-28T09:52:03.000Z</time>
      </trkpt>
      <trkpt lat="45.87295" lon="6.20934">
        <ele>633</ele>
        <time>2017-05-28T09:52:04.000Z</time>
      </trkpt>
      <trkpt lat="45.87294" lon="6.20932">
        <ele>633</ele>
        <time>2017-05-28T09:52:05.000Z</time>
      </trkpt>
      <trkpt lat="45.87294" lon="6.2093">
        <ele>633.20001220703</ele>
        <time>2017-05-28T09:52:06.000Z</time>
      </trkpt>
      <trkpt lat="45.87292" lon="6.20926">
        <ele>633.59997558594</ele>
        <time>2017-05-28T09:52:08.000Z</time>
      </trkpt>
      <trkpt lat="45.87291" lon="6.20925">
        <ele>633.79998779297</ele>
        <time>2017-05-28T09:52:09.000Z</time>
      </trkpt>
      <trkpt lat="45.87279" lon="6.20901">
        <ele>635.20001220703</ele>
        <time>2017-05-28T09:52:22.000Z</time>
      </trkpt>
      <trkpt lat="45.87266" lon="6.2088">
        <ele>636.40002441406</ele>
        <time>2017-05-28T09:52:34.000Z</time>
      </trkpt>
      <trkpt lat="45.87254" lon="6.20858">
        <ele>637.40002441406</ele>
        <time>2017-05-28T09:52:46.000Z</time>
      </trkpt>
      <trkpt lat="45.87241" lon="6.20836">
        <ele>639</ele>
        <time>2017-05-28T09:52:59.000Z</time>
      </trkpt>
      <trkpt lat="45.87235" lon="6.20814">
        <ele>640.20001220703</ele>
        <time>2017-05-28T09:53:09.000Z</time>
      </trkpt>
      <trkpt lat="45.87234" lon="6.20813">
        <ele>640.40002441406</ele>
        <time>2017-05-28T09:53:10.000Z</time>
      </trkpt>
      <trkpt lat="45.87233" lon="6.20811">
        <ele>640.40002441406</ele>
        <time>2017-05-28T09:53:11.000Z</time>
      </trkpt>
      <trkpt lat="45.87232" lon="6.2081">
        <ele>640.59997558594</ele>
        <time>2017-05-28T09:53:12.000Z</time>
      </trkpt>
      <trkpt lat="45.87231" lon="6.20808">
        <ele>640.79998779297</ele>
        <time>2017-05-28T09:53:13.000Z</time>
      </trkpt>
      <trkpt lat="45.87231" lon="6.20806">
        <ele>641</ele>
        <time>2017-05-28T09:53:14.000Z</time>
      </trkpt>
      <trkpt lat="45.8723" lon="6.20803">
        <ele>641</ele>
        <time>2017-05-28T09:53:15.000Z</time>
      </trkpt>
      <trkpt lat="45.8723" lon="6.20801">
        <ele>641.20001220703</ele>
        <time>2017-05-28T09:53:16.000Z</time>
      </trkpt>
      <trkpt lat="45.87229" lon="6.208">
        <ele>641.40002441406</ele>
        <time>2017-05-28T09:53:17.000Z</time>
      </trkpt>
      <trkpt lat="45.87228" lon="6.20797">
        <ele>641.40002441406</ele>
        <time>2017-05-28T09:53:18.000Z</time>
      </trkpt>
      <trkpt lat="45.87227" lon="6.20796">
        <ele>641.59997558594</ele>
        <time>2017-05-28T09:53:19.000Z</time>
      </trkpt>
      <trkpt lat="45.87226" lon="6.20794">
        <ele>642</ele>
        <time>2017-05-28T09:53:20.000Z</time>
      </trkpt>
      <trkpt lat="45.87226" lon="6.20793">
        <ele>642.20001220703</ele>
        <time>2017-05-28T09:53:21.000Z</time>
      </trkpt>
      <trkpt lat="45.87225" lon="6.20792">
        <ele>642.40002441406</ele>
        <time>2017-05-28T09:53:22.000Z</time>
      </trkpt>
      <trkpt lat="45.87217" lon="6.20773">
        <ele>645.20001220703</ele>
        <time>2017-05-28T09:53:40.000Z</time>
      </trkpt>
      <trkpt lat="45.87203" lon="6.20747">
        <ele>647.40002441406</ele>
        <time>2017-05-28T09:53:54.000Z</time>
      </trkpt>
      <trkpt lat="45.87192" lon="6.20722">
        <ele>649.59997558594</ele>
        <time>2017-05-28T09:54:08.000Z</time>
      </trkpt>
      <trkpt lat="45.87192" lon="6.20716">
        <ele>650</ele>
        <time>2017-05-28T09:54:11.000Z</time>
      </trkpt>
      <trkpt lat="45.87193" lon="6.20714">
        <ele>650</ele>
        <time>2017-05-28T09:54:12.000Z</time>
      </trkpt>
      <trkpt lat="45.87194" lon="6.20713">
        <ele>650.20001220703</ele>
        <time>2017-05-28T09:54:13.000Z</time>
      </trkpt>
      <trkpt lat="45.87195" lon="6.20711">
        <ele>650.20001220703</ele>
        <time>2017-05-28T09:54:14.000Z</time>
      </trkpt>
      <trkpt lat="45.87196" lon="6.2071">
        <ele>650.40002441406</ele>
        <time>2017-05-28T09:54:15.000Z</time>
      </trkpt>
      <trkpt lat="45.87197" lon="6.20709">
        <ele>650.59997558594</ele>
        <time>2017-05-28T09:54:16.000Z</time>
      </trkpt>
      <trkpt lat="45.87198" lon="6.20708">
        <ele>650.79998779297</ele>
        <time>2017-05-28T09:54:17.000Z</time>
      </trkpt>
      <trkpt lat="45.87199" lon="6.20708">
        <ele>651</ele>
        <time>2017-05-28T09:54:18.000Z</time>
      </trkpt>
      <trkpt lat="45.87201" lon="6.20707">
        <ele>651.20001220703</ele>
        <time>2017-05-28T09:54:19.000Z</time>
      </trkpt>
      <trkpt lat="45.87218" lon="6.20717">
        <ele>653.20001220703</ele>
        <time>2017-05-28T09:54:31.000Z</time>
      </trkpt>
      <trkpt lat="45.87235" lon="6.20719">
        <ele>655.40002441406</ele>
        <time>2017-05-28T09:54:45.000Z</time>
      </trkpt>
      <trkpt lat="45.87253" lon="6.20713">
        <ele>658.79998779297</ele>
        <time>2017-05-28T09:55:02.000Z</time>
      </trkpt>
      <trkpt lat="45.87265" lon="6.20712">
        <ele>660.20001220703</ele>
        <time>2017-05-28T09:55:10.000Z</time>
      </trkpt>
      <trkpt lat="45.87266" lon="6.20712">
        <ele>660.40002441406</ele>
        <time>2017-05-28T09:55:11.000Z</time>
      </trkpt>
      <trkpt lat="45.87267" lon="6.20712">
        <ele>660.59997558594</ele>
        <time>2017-05-28T09:55:12.000Z</time>
      </trkpt>
      <trkpt lat="45.87269" lon="6.20711">
        <ele>660.79998779297</ele>
        <time>2017-05-28T09:55:13.000Z</time>
      </trkpt>
      <trkpt lat="45.87269" lon="6.20711">
        <ele>661</ele>
        <time>2017-05-28T09:55:14.000Z</time>
      </trkpt>
      <trkpt lat="45.8728" lon="6.20713">
        <ele>662.59997558594</ele>
        <time>2017-05-28T09:55:24.000Z</time>
      </trkpt>
      <trkpt lat="45.87281" lon="6.20712">
        <ele>662.59997558594</ele>
        <time>2017-05-28T09:55:25.000Z</time>
      </trkpt>
      <trkpt lat="45.87303" lon="6.20702">
        <ele>665.79998779297</ele>
        <time>2017-05-28T09:55:40.000Z</time>
      </trkpt>
      <trkpt lat="45.87316" lon="6.20703">
        <ele>668.20001220703</ele>
        <time>2017-05-28T09:55:53.000Z</time>
      </trkpt>
      <trkpt lat="45.87317" lon="6.20703">
        <ele>668.40002441406</ele>
        <time>2017-05-28T09:55:54.000Z</time>
      </trkpt>
      <trkpt lat="45.87324" lon="6.20699">
        <ele>669.40002441406</ele>
        <time>2017-05-28T09:56:00.000Z</time>
      </trkpt>
      <trkpt lat="45.87325" lon="6.20698">
        <ele>669.40002441406</ele>
        <time>2017-05-28T09:56:01.000Z</time>
      </trkpt>
      <trkpt lat="45.87327" lon="6.20698">
        <ele>669.79998779297</ele>
        <time>2017-05-28T09:56:02.000Z</time>
      </trkpt>
      <trkpt lat="45.87329" lon="6.20698">
        <ele>670</ele>
        <time>2017-05-28T09:56:03.000Z</time>
      </trkpt>
      <trkpt lat="45.87331" lon="6.20697">
        <ele>670.20001220703</ele>
        <time>2017-05-28T09:56:04.000Z</time>
      </trkpt>
      <trkpt lat="45.87333" lon="6.20697">
        <ele>670.40002441406</ele>
        <time>2017-05-28T09:56:05.000Z</time>
      </trkpt>
      <trkpt lat="45.87334" lon="6.20697">
        <ele>670.59997558594</ele>
        <time>2017-05-28T09:56:06.000Z</time>
      </trkpt>
      <trkpt lat="45.87335" lon="6.20697">
        <ele>670.59997558594</ele>
        <time>2017-05-28T09:56:07.000Z</time>
      </trkpt>
      <trkpt lat="45.87335" lon="6.20697">
        <ele>671</ele>
        <time>2017-05-28T09:56:08.000Z</time>
      </trkpt>
      <trkpt lat="45.87336" lon="6.20697">
        <ele>671</ele>
        <time>2017-05-28T09:56:09.000Z</time>
      </trkpt>
      <trkpt lat="45.87337" lon="6.20696">
        <ele>671.20001220703</ele>
        <time>2017-05-28T09:56:10.000Z</time>
      </trkpt>
      <trkpt lat="45.87338" lon="6.20695">
        <ele>671.40002441406</ele>
        <time>2017-05-28T09:56:11.000Z</time>
      </trkpt>
      <trkpt lat="45.87339" lon="6.20695">
        <ele>671.59997558594</ele>
        <time>2017-05-28T09:56:12.000Z</time>
      </trkpt>
      <trkpt lat="45.8734" lon="6.20695">
        <ele>671.79998779297</ele>
        <time>2017-05-28T09:56:13.000Z</time>
      </trkpt>
      <trkpt lat="45.8734" lon="6.20694">
        <ele>672.20001220703</ele>
        <time>2017-05-28T09:56:15.000Z</time>
      </trkpt>
      <trkpt lat="45.8734" lon="6.20694">
        <ele>672.40002441406</ele>
        <time>2017-05-28T09:56:16.000Z</time>
      </trkpt>
      <trkpt lat="45.8734" lon="6.20692">
        <ele>673</ele>
        <time>2017-05-28T09:56:18.000Z</time>
      </trkpt>
      <trkpt lat="45.87338" lon="6.20689">
        <ele>673.79998779297</ele>
        <time>2017-05-28T09:56:22.000Z</time>
      </trkpt>
      <trkpt lat="45.87338" lon="6.20688">
        <ele>674</ele>
        <time>2017-05-28T09:56:23.000Z</time>
      </trkpt>
      <trkpt lat="45.87338" lon="6.20686">
        <ele>674.20001220703</ele>
        <time>2017-05-28T09:56:24.000Z</time>
      </trkpt>
      <trkpt lat="45.87336" lon="6.20683">
        <ele>674.59997558594</ele>
        <time>2017-05-28T09:56:26.000Z</time>
      </trkpt>
      <trkpt lat="45.87322" lon="6.20664">
        <ele>675.79998779297</ele>
        <time>2017-05-28T09:56:41.000Z</time>
      </trkpt>
      <trkpt lat="45.87319" lon="6.20664">
        <ele>675.79998779297</ele>
        <time>2017-05-28T09:56:43.000Z</time>
      </trkpt>
      <trkpt lat="45.87314" lon="6.20663">
        <ele>675.59997558594</ele>
        <time>2017-05-28T09:56:46.000Z</time>
      </trkpt>
      <trkpt lat="45.87313" lon="6.20662">
        <ele>675.59997558594</ele>
        <time>2017-05-28T09:56:47.000Z</time>
      </trkpt>
      <trkpt lat="45.87312" lon="6.20663">
        <ele>675.59997558594</ele>
        <time>2017-05-28T09:56:48.000Z</time>
      </trkpt>
      <trkpt lat="45.8731" lon="6.20662">
        <ele>675.59997558594</ele>
        <time>2017-05-28T09:56:49.000Z</time>
      </trkpt>
      <trkpt lat="45.87309" lon="6.20661">
        <ele>675.40002441406</ele>
        <time>2017-05-28T09:56:50.000Z</time>
      </trkpt>
      <trkpt lat="45.87303" lon="6.20655">
        <ele>675.40002441406</ele>
        <time>2017-05-28T09:56:56.000Z</time>
      </trkpt>
      <trkpt lat="45.87303" lon="6.2065">
        <ele>675.59997558594</ele>
        <time>2017-05-28T09:57:01.000Z</time>
      </trkpt>
      <trkpt lat="45.873" lon="6.2065">
        <ele>676</ele>
        <time>2017-05-28T09:57:06.000Z</time>
      </trkpt>
      <trkpt lat="45.87282" lon="6.20635">
        <ele>676.20001220703</ele>
        <time>2017-05-28T09:57:20.000Z</time>
      </trkpt>
      <trkpt lat="45.87265" lon="6.20622">
        <ele>676.79998779297</ele>
        <time>2017-05-28T09:57:31.000Z</time>
      </trkpt>
      <trkpt lat="45.87249" lon="6.20606">
        <ele>676.40002441406</ele>
        <time>2017-05-28T09:57:44.000Z</time>
      </trkpt>
      <trkpt lat="45.8723" lon="6.20591">
        <ele>675.40002441406</ele>
        <time>2017-05-28T09:57:52.000Z</time>
      </trkpt>
      <trkpt lat="45.87211" lon="6.20575">
        <ele>675.20001220703</ele>
        <time>2017-05-28T09:58:00.000Z</time>
      </trkpt>
      <trkpt lat="45.87196" lon="6.20555">
        <ele>676</ele>
        <time>2017-05-28T09:58:09.000Z</time>
      </trkpt>
      <trkpt lat="45.87179" lon="6.20539">
        <ele>677</ele>
        <time>2017-05-28T09:58:20.000Z</time>
      </trkpt>
      <trkpt lat="45.87166" lon="6.20531">
        <ele>677.40002441406</ele>
        <time>2017-05-28T09:58:27.000Z</time>
      </trkpt>
      <trkpt lat="45.87165" lon="6.2053">
        <ele>677.40002441406</ele>
        <time>2017-05-28T09:58:28.000Z</time>
      </trkpt>
      <trkpt lat="45.87163" lon="6.20528">
        <ele>677.40002441406</ele>
        <time>2017-05-28T09:58:29.000Z</time>
      </trkpt>
      <trkpt lat="45.87161" lon="6.20528">
        <ele>677.59997558594</ele>
        <time>2017-05-28T09:58:30.000Z</time>
      </trkpt>
      <trkpt lat="45.87159" lon="6.20527">
        <ele>677.79998779297</ele>
        <time>2017-05-28T09:58:31.000Z</time>
      </trkpt>
      <trkpt lat="45.87141" lon="6.20509">
        <ele>677.79998779297</ele>
        <time>2017-05-28T09:58:41.000Z</time>
      </trkpt>
      <trkpt lat="45.87122" lon="6.2049">
        <ele>678.40002441406</ele>
        <time>2017-05-28T09:58:50.000Z</time>
      </trkpt>
      <trkpt lat="45.87105" lon="6.20469">
        <ele>680.79998779297</ele>
        <time>2017-05-28T09:59:04.000Z</time>
      </trkpt>
      <trkpt lat="45.87106" lon="6.20465">
        <ele>681</ele>
        <time>2017-05-28T09:59:05.000Z</time>
      </trkpt>
      <trkpt lat="45.87106" lon="6.20463">
        <ele>681.20001220703</ele>
        <time>2017-05-28T09:59:06.000Z</time>
      </trkpt>
      <trkpt lat="45.87106" lon="6.20461">
        <ele>681.40002441406</ele>
        <time>2017-05-28T09:59:07.000Z</time>
      </trkpt>
      <trkpt lat="45.87107" lon="6.2046">
        <ele>681.59997558594</ele>
        <time>2017-05-28T09:59:08.000Z</time>
      </trkpt>
      <trkpt lat="45.87108" lon="6.20458">
        <ele>682</ele>
        <time>2017-05-28T09:59:09.000Z</time>
      </trkpt>
      <trkpt lat="45.87109" lon="6.20458">
        <ele>682</ele>
        <time>2017-05-28T09:59:10.000Z</time>
      </trkpt>
      <trkpt lat="45.8711" lon="6.20456">
        <ele>682.20001220703</ele>
        <time>2017-05-28T09:59:11.000Z</time>
      </trkpt>
      <trkpt lat="45.87111" lon="6.20456">
        <ele>682.20001220703</ele>
        <time>2017-05-28T09:59:12.000Z</time>
      </trkpt>
      <trkpt lat="45.87112" lon="6.20455">
        <ele>682.20001220703</ele>
        <time>2017-05-28T09:59:13.000Z</time>
      </trkpt>
      <trkpt lat="45.87113" lon="6.20454">
        <ele>682.40002441406</ele>
        <time>2017-05-28T09:59:14.000Z</time>
      </trkpt>
      <trkpt lat="45.87116" lon="6.20453">
        <ele>683.20001220703</ele>
        <time>2017-05-28T09:59:16.000Z</time>
      </trkpt>
      <trkpt lat="45.87116" lon="6.20453">
        <ele>683.59997558594</ele>
        <time>2017-05-28T09:59:17.000Z</time>
      </trkpt>
      <trkpt lat="45.87118" lon="6.20452">
        <ele>683.79998779297</ele>
        <time>2017-05-28T09:59:18.000Z</time>
      </trkpt>
      <trkpt lat="45.87122" lon="6.2045">
        <ele>685.20001220703</ele>
        <time>2017-05-28T09:59:23.000Z</time>
      </trkpt>
      <trkpt lat="45.87122" lon="6.20449">
        <ele>685.59997558594</ele>
        <time>2017-05-28T09:59:24.000Z</time>
      </trkpt>
      <trkpt lat="45.87124" lon="6.20449">
        <ele>686.20001220703</ele>
        <time>2017-05-28T09:59:26.000Z</time>
      </trkpt>
      <trkpt lat="45.87126" lon="6.20447">
        <ele>687</ele>
        <time>2017-05-28T09:59:29.000Z</time>
      </trkpt>
      <trkpt lat="45.87128" lon="6.20447">
        <ele>688</ele>
        <time>2017-05-28T09:59:32.000Z</time>
      </trkpt>
      <trkpt lat="45.8713" lon="6.20447">
        <ele>688.20001220703</ele>
        <time>2017-05-28T09:59:33.000Z</time>
      </trkpt>
      <trkpt lat="45.87131" lon="6.20446">
        <ele>688.40002441406</ele>
        <time>2017-05-28T09:59:34.000Z</time>
      </trkpt>
      <trkpt lat="45.87143" lon="6.20441">
        <ele>691.59997558594</ele>
        <time>2017-05-28T09:59:47.000Z</time>
      </trkpt>
      <trkpt lat="45.87146" lon="6.20441">
        <ele>692.59997558594</ele>
        <time>2017-05-28T09:59:50.000Z</time>
      </trkpt>
      <trkpt lat="45.87148" lon="6.20437">
        <ele>693</ele>
        <time>2017-05-28T09:59:52.000Z</time>
      </trkpt>
      <trkpt lat="45.87149" lon="6.20436">
        <ele>693.20001220703</ele>
        <time>2017-05-28T09:59:53.000Z</time>
      </trkpt>
      <trkpt lat="45.8715" lon="6.20435">
        <ele>693.40002441406</ele>
        <time>2017-05-28T09:59:54.000Z</time>
      </trkpt>
      <trkpt lat="45.87153" lon="6.20432">
        <ele>694.20001220703</ele>
        <time>2017-05-28T09:59:57.000Z</time>
      </trkpt>
      <trkpt lat="45.87161" lon="6.20429">
        <ele>696.20001220703</ele>
        <time>2017-05-28T10:00:06.000Z</time>
      </trkpt>
      <trkpt lat="45.87162" lon="6.2043">
        <ele>696.40002441406</ele>
        <time>2017-05-28T10:00:07.000Z</time>
      </trkpt>
      <trkpt lat="45.87163" lon="6.2043">
        <ele>696.79998779297</ele>
        <time>2017-05-28T10:00:08.000Z</time>
      </trkpt>
      <trkpt lat="45.87164" lon="6.2043">
        <ele>697.20001220703</ele>
        <time>2017-05-28T10:00:09.000Z</time>
      </trkpt>
      <trkpt lat="45.87165" lon="6.20431">
        <ele>697.40002441406</ele>
        <time>2017-05-28T10:00:10.000Z</time>
      </trkpt>
      <trkpt lat="45.87166" lon="6.20431">
        <ele>697.59997558594</ele>
        <time>2017-05-28T10:00:11.000Z</time>
      </trkpt>
      <trkpt lat="45.87169" lon="6.2044">
        <ele>698.79998779297</ele>
        <time>2017-05-28T10:00:17.000Z</time>
      </trkpt>
      <trkpt lat="45.8717" lon="6.20443">
        <ele>699.79998779297</ele>
        <time>2017-05-28T10:00:20.000Z</time>
      </trkpt>
      <trkpt lat="45.87175" lon="6.20449">
        <ele>701</ele>
        <time>2017-05-28T10:00:26.000Z</time>
      </trkpt>
      <trkpt lat="45.87175" lon="6.20449">
        <ele>701.20001220703</ele>
        <time>2017-05-28T10:00:27.000Z</time>
      </trkpt>
      <trkpt lat="45.87179" lon="6.20447">
        <ele>701.79998779297</ele>
        <time>2017-05-28T10:00:30.000Z</time>
      </trkpt>
      <trkpt lat="45.87181" lon="6.20446">
        <ele>702</ele>
        <time>2017-05-28T10:00:31.000Z</time>
      </trkpt>
      <trkpt lat="45.87183" lon="6.20447">
        <ele>702.40002441406</ele>
        <time>2017-05-28T10:00:33.000Z</time>
      </trkpt>
      <trkpt lat="45.87184" lon="6.20449">
        <ele>702.59997558594</ele>
        <time>2017-05-28T10:00:34.000Z</time>
      </trkpt>
      <trkpt lat="45.87186" lon="6.20449">
        <ele>703.20001220703</ele>
        <time>2017-05-28T10:00:36.000Z</time>
      </trkpt>
      <trkpt lat="45.87187" lon="6.20449">
        <ele>703.20001220703</ele>
        <time>2017-05-28T10:00:37.000Z</time>
      </trkpt>
      <trkpt lat="45.8719" lon="6.20448">
        <ele>704.59997558594</ele>
        <time>2017-05-28T10:00:42.000Z</time>
      </trkpt>
      <trkpt lat="45.87195" lon="6.20448">
        <ele>706</ele>
        <time>2017-05-28T10:00:48.000Z</time>
      </trkpt>
      <trkpt lat="45.87196" lon="6.20448">
        <ele>706.20001220703</ele>
        <time>2017-05-28T10:00:49.000Z</time>
      </trkpt>
      <trkpt lat="45.87197" lon="6.20448">
        <ele>706.40002441406</ele>
        <time>2017-05-28T10:00:50.000Z</time>
      </trkpt>
      <trkpt lat="45.87199" lon="6.20448">
        <ele>706.59997558594</ele>
        <time>2017-05-28T10:00:51.000Z</time>
      </trkpt>
      <trkpt lat="45.872" lon="6.20447">
        <ele>706.79998779297</ele>
        <time>2017-05-28T10:00:52.000Z</time>
      </trkpt>
      <trkpt lat="45.87201" lon="6.20447">
        <ele>707.20001220703</ele>
        <time>2017-05-28T10:00:53.000Z</time>
      </trkpt>
      <trkpt lat="45.87204" lon="6.2045">
        <ele>708.20001220703</ele>
        <time>2017-05-28T10:00:58.000Z</time>
      </trkpt>
      <trkpt lat="45.87204" lon="6.20451">
        <ele>708.40002441406</ele>
        <time>2017-05-28T10:00:59.000Z</time>
      </trkpt>
      <trkpt lat="45.87205" lon="6.20452">
        <ele>708.59997558594</ele>
        <time>2017-05-28T10:01:00.000Z</time>
      </trkpt>
      <trkpt lat="45.87207" lon="6.2045">
        <ele>708.79998779297</ele>
        <time>2017-05-28T10:01:01.000Z</time>
      </trkpt>
      <trkpt lat="45.87208" lon="6.20448">
        <ele>709.40002441406</ele>
        <time>2017-05-28T10:01:02.000Z</time>
      </trkpt>
      <trkpt lat="45.87218" lon="6.2045">
        <ele>712.40002441406</ele>
        <time>2017-05-28T10:01:16.000Z</time>
      </trkpt>
      <trkpt lat="45.87232" lon="6.20439">
        <ele>715.40002441406</ele>
        <time>2017-05-28T10:01:30.000Z</time>
      </trkpt>
      <trkpt lat="45.87242" lon="6.20432">
        <ele>718.59997558594</ele>
        <time>2017-05-28T10:01:42.000Z</time>
      </trkpt>
      <trkpt lat="45.87248" lon="6.20428">
        <ele>720</ele>
        <time>2017-05-28T10:01:48.000Z</time>
      </trkpt>
      <trkpt lat="45.87256" lon="6.20436">
        <ele>721.79998779297</ele>
        <time>2017-05-28T10:01:56.000Z</time>
      </trkpt>
      <trkpt lat="45.87257" lon="6.20437">
        <ele>722</ele>
        <time>2017-05-28T10:01:57.000Z</time>
      </trkpt>
      <trkpt lat="45.87258" lon="6.20438">
        <ele>722.20001220703</ele>
        <time>2017-05-28T10:01:58.000Z</time>
      </trkpt>
      <trkpt lat="45.87259" lon="6.2044">
        <ele>722.40002441406</ele>
        <time>2017-05-28T10:01:59.000Z</time>
      </trkpt>
      <trkpt lat="45.87262" lon="6.20445">
        <ele>723.59997558594</ele>
        <time>2017-05-28T10:02:04.000Z</time>
      </trkpt>
      <trkpt lat="45.87264" lon="6.20448">
        <ele>724.20001220703</ele>
        <time>2017-05-28T10:02:07.000Z</time>
      </trkpt>
      <trkpt lat="45.87265" lon="6.20448">
        <ele>724.59997558594</ele>
        <time>2017-05-28T10:02:08.000Z</time>
      </trkpt>
      <trkpt lat="45.87266" lon="6.20449">
        <ele>724.79998779297</ele>
        <time>2017-05-28T10:02:09.000Z</time>
      </trkpt>
      <trkpt lat="45.87268" lon="6.20449">
        <ele>725</ele>
        <time>2017-05-28T10:02:10.000Z</time>
      </trkpt>
      <trkpt lat="45.87269" lon="6.20449">
        <ele>725</ele>
        <time>2017-05-28T10:02:11.000Z</time>
      </trkpt>
      <trkpt lat="45.87271" lon="6.20447">
        <ele>725.20001220703</ele>
        <time>2017-05-28T10:02:12.000Z</time>
      </trkpt>
      <trkpt lat="45.87272" lon="6.20447">
        <ele>725.40002441406</ele>
        <time>2017-05-28T10:02:13.000Z</time>
      </trkpt>
      <trkpt lat="45.87273" lon="6.20448">
        <ele>726</ele>
        <time>2017-05-28T10:02:15.000Z</time>
      </trkpt>
      <trkpt lat="45.87275" lon="6.20447">
        <ele>726.79998779297</ele>
        <time>2017-05-28T10:02:18.000Z</time>
      </trkpt>
      <trkpt lat="45.87285" lon="6.20451">
        <ele>730</ele>
        <time>2017-05-28T10:02:32.000Z</time>
      </trkpt>
      <trkpt lat="45.87291" lon="6.2045">
        <ele>731.20001220703</ele>
        <time>2017-05-28T10:02:37.000Z</time>
      </trkpt>
      <trkpt lat="45.87296" lon="6.20448">
        <ele>732.59997558594</ele>
        <time>2017-05-28T10:02:42.000Z</time>
      </trkpt>
      <trkpt lat="45.87299" lon="6.20446">
        <ele>733.79998779297</ele>
        <time>2017-05-28T10:02:46.000Z</time>
      </trkpt>
      <trkpt lat="45.873" lon="6.20445">
        <ele>734</ele>
        <time>2017-05-28T10:02:47.000Z</time>
      </trkpt>
      <trkpt lat="45.87307" lon="6.20443">
        <ele>736.20001220703</ele>
        <time>2017-05-28T10:02:56.000Z</time>
      </trkpt>
      <trkpt lat="45.87308" lon="6.20443">
        <ele>736.40002441406</ele>
        <time>2017-05-28T10:02:57.000Z</time>
      </trkpt>
      <trkpt lat="45.87312" lon="6.20443">
        <ele>737.59997558594</ele>
        <time>2017-05-28T10:03:02.000Z</time>
      </trkpt>
      <trkpt lat="45.87313" lon="6.20443">
        <ele>737.79998779297</ele>
        <time>2017-05-28T10:03:03.000Z</time>
      </trkpt>
      <trkpt lat="45.87314" lon="6.20443">
        <ele>738</ele>
        <time>2017-05-28T10:03:04.000Z</time>
      </trkpt>
      <trkpt lat="45.87333" lon="6.20447">
        <ele>741.20001220703</ele>
        <time>2017-05-28T10:03:21.000Z</time>
      </trkpt>
      <trkpt lat="45.87338" lon="6.20441">
        <ele>742.40002441406</ele>
        <time>2017-05-28T10:03:27.000Z</time>
      </trkpt>
      <trkpt lat="45.87339" lon="6.20441">
        <ele>742.79998779297</ele>
        <time>2017-05-28T10:03:28.000Z</time>
      </trkpt>
      <trkpt lat="45.87349" lon="6.20439">
        <ele>745</ele>
        <time>2017-05-28T10:03:39.000Z</time>
      </trkpt>
      <trkpt lat="45.87351" lon="6.20438">
        <ele>745.20001220703</ele>
        <time>2017-05-28T10:03:40.000Z</time>
      </trkpt>
      <trkpt lat="45.87353" lon="6.20437">
        <ele>745.40002441406</ele>
        <time>2017-05-28T10:03:41.000Z</time>
      </trkpt>
      <trkpt lat="45.87353" lon="6.20437">
        <ele>745.59997558594</ele>
        <time>2017-05-28T10:03:42.000Z</time>
      </trkpt>
      <trkpt lat="45.87354" lon="6.20437">
        <ele>745.59997558594</ele>
        <time>2017-05-28T10:03:43.000Z</time>
      </trkpt>
      <trkpt lat="45.8736" lon="6.20435">
        <ele>746.79998779297</ele>
        <time>2017-05-28T10:03:48.000Z</time>
      </trkpt>
      <trkpt lat="45.8738" lon="6.20437">
        <ele>748.79998779297</ele>
        <time>2017-05-28T10:04:03.000Z</time>
      </trkpt>
      <trkpt lat="45.87391" lon="6.20441">
        <ele>749.20001220703</ele>
        <time>2017-05-28T10:04:11.000Z</time>
      </trkpt>
      <trkpt lat="45.87392" lon="6.20441">
        <ele>749.40002441406</ele>
        <time>2017-05-28T10:04:12.000Z</time>
      </trkpt>
      <trkpt lat="45.87393" lon="6.20442">
        <ele>749.40002441406</ele>
        <time>2017-05-28T10:04:13.000Z</time>
      </trkpt>
      <trkpt lat="45.87395" lon="6.20442">
        <ele>749.59997558594</ele>
        <time>2017-05-28T10:04:14.000Z</time>
      </trkpt>
      <trkpt lat="45.87396" lon="6.20442">
        <ele>749.79998779297</ele>
        <time>2017-05-28T10:04:15.000Z</time>
      </trkpt>
      <trkpt lat="45.87398" lon="6.20441">
        <ele>750</ele>
        <time>2017-05-28T10:04:16.000Z</time>
      </trkpt>
      <trkpt lat="45.87399" lon="6.20441">
        <ele>750</ele>
        <time>2017-05-28T10:04:17.000Z</time>
      </trkpt>
      <trkpt lat="45.874" lon="6.20441">
        <ele>750.20001220703</ele>
        <time>2017-05-28T10:04:18.000Z</time>
      </trkpt>
      <trkpt lat="45.87421" lon="6.20442">
        <ele>752.40002441406</ele>
        <time>2017-05-28T10:04:33.000Z</time>
      </trkpt>
      <trkpt lat="45.87441" lon="6.20442">
        <ele>755.20001220703</ele>
        <time>2017-05-28T10:04:51.000Z</time>
      </trkpt>
      <trkpt lat="45.87446" lon="6.20442">
        <ele>757</ele>
        <time>2017-05-28T10:04:58.000Z</time>
      </trkpt>
      <trkpt lat="45.87453" lon="6.20443">
        <ele>758.40002441406</ele>
        <time>2017-05-28T10:05:04.000Z</time>
      </trkpt>
      <trkpt lat="45.87454" lon="6.20443">
        <ele>758.40002441406</ele>
        <time>2017-05-28T10:05:05.000Z</time>
      </trkpt>
      <trkpt lat="45.87466" lon="6.2044">
        <ele>761.40002441406</ele>
        <time>2017-05-28T10:05:20.000Z</time>
      </trkpt>
      <trkpt lat="45.87467" lon="6.20438">
        <ele>761.59997558594</ele>
        <time>2017-05-28T10:05:21.000Z</time>
      </trkpt>
      <trkpt lat="45.87473" lon="6.20434">
        <ele>763.40002441406</ele>
        <time>2017-05-28T10:05:28.000Z</time>
      </trkpt>
      <trkpt lat="45.87484" lon="6.2043">
        <ele>765.40002441406</ele>
        <time>2017-05-28T10:05:38.000Z</time>
      </trkpt>
      <trkpt lat="45.87486" lon="6.20429">
        <ele>765.40002441406</ele>
        <time>2017-05-28T10:05:39.000Z</time>
      </trkpt>
      <trkpt lat="45.87493" lon="6.20431">
        <ele>766.79998779297</ele>
        <time>2017-05-28T10:05:46.000Z</time>
      </trkpt>
      <trkpt lat="45.87494" lon="6.20431">
        <ele>767.20001220703</ele>
        <time>2017-05-28T10:05:47.000Z</time>
      </trkpt>
      <trkpt lat="45.87496" lon="6.20432">
        <ele>767.40002441406</ele>
        <time>2017-05-28T10:05:48.000Z</time>
      </trkpt>
      <trkpt lat="45.87515" lon="6.20427">
        <ele>770.59997558594</ele>
        <time>2017-05-28T10:06:05.000Z</time>
      </trkpt>
      <trkpt lat="45.87516" lon="6.20426">
        <ele>770.79998779297</ele>
        <time>2017-05-28T10:06:06.000Z</time>
      </trkpt>
      <trkpt lat="45.87517" lon="6.20424">
        <ele>771</ele>
        <time>2017-05-28T10:06:07.000Z</time>
      </trkpt>
      <trkpt lat="45.87518" lon="6.20424">
        <ele>771.40002441406</ele>
        <time>2017-05-28T10:06:08.000Z</time>
      </trkpt>
      <trkpt lat="45.87519" lon="6.20424">
        <ele>771.59997558594</ele>
        <time>2017-05-28T10:06:09.000Z</time>
      </trkpt>
      <trkpt lat="45.8752" lon="6.20425">
        <ele>771.79998779297</ele>
        <time>2017-05-28T10:06:10.000Z</time>
      </trkpt>
      <trkpt lat="45.87524" lon="6.20425">
        <ele>775</ele>
        <time>2017-05-28T10:06:24.000Z</time>
      </trkpt>
      <trkpt lat="45.87536" lon="6.20423">
        <ele>776.79998779297</ele>
        <time>2017-05-28T10:06:33.000Z</time>
      </trkpt>
      <trkpt lat="45.8754" lon="6.20422">
        <ele>777.59997558594</ele>
        <time>2017-05-28T10:06:37.000Z</time>
      </trkpt>
      <trkpt lat="45.87542" lon="6.20422">
        <ele>777.79998779297</ele>
        <time>2017-05-28T10:06:38.000Z</time>
      </trkpt>
      <trkpt lat="45.87544" lon="6.20422">
        <ele>777.79998779297</ele>
        <time>2017-05-28T10:06:39.000Z</time>
      </trkpt>
      <trkpt lat="45.87544" lon="6.20422">
        <ele>778</ele>
        <time>2017-05-28T10:06:40.000Z</time>
      </trkpt>
      <trkpt lat="45.87546" lon="6.20422">
        <ele>778.20001220703</ele>
        <time>2017-05-28T10:06:41.000Z</time>
      </trkpt>
      <trkpt lat="45.87547" lon="6.20422">
        <ele>778.40002441406</ele>
        <time>2017-05-28T10:06:42.000Z</time>
      </trkpt>
      <trkpt lat="45.87549" lon="6.20422">
        <ele>778.40002441406</ele>
        <time>2017-05-28T10:06:43.000Z</time>
      </trkpt>
      <trkpt lat="45.8755" lon="6.20424">
        <ele>778.59997558594</ele>
        <time>2017-05-28T10:06:44.000Z</time>
      </trkpt>
      <trkpt lat="45.87551" lon="6.20425">
        <ele>778.59997558594</ele>
        <time>2017-05-28T10:06:45.000Z</time>
      </trkpt>
      <trkpt lat="45.87552" lon="6.20425">
        <ele>779</ele>
        <time>2017-05-28T10:06:46.000Z</time>
      </trkpt>
      <trkpt lat="45.87557" lon="6.20423">
        <ele>780.20001220703</ele>
        <time>2017-05-28T10:06:51.000Z</time>
      </trkpt>
      <trkpt lat="45.87559" lon="6.20423">
        <ele>780.59997558594</ele>
        <time>2017-05-28T10:06:54.000Z</time>
      </trkpt>
      <trkpt lat="45.87577" lon="6.20419">
        <ele>783.79998779297</ele>
        <time>2017-05-28T10:07:08.000Z</time>
      </trkpt>
      <trkpt lat="45.87579" lon="6.20418">
        <ele>784.40002441406</ele>
        <time>2017-05-28T10:07:10.000Z</time>
      </trkpt>
      <trkpt lat="45.87585" lon="6.20415">
        <ele>786.59997558594</ele>
        <time>2017-05-28T10:07:19.000Z</time>
      </trkpt>
      <trkpt lat="45.87589" lon="6.20411">
        <ele>787.40002441406</ele>
        <time>2017-05-28T10:07:23.000Z</time>
      </trkpt>
      <trkpt lat="45.87593" lon="6.2041">
        <ele>788.20001220703</ele>
        <time>2017-05-28T10:07:28.000Z</time>
      </trkpt>
      <trkpt lat="45.87596" lon="6.2041">
        <ele>789</ele>
        <time>2017-05-28T10:07:34.000Z</time>
      </trkpt>
      <trkpt lat="45.87597" lon="6.20409">
        <ele>789</ele>
        <time>2017-05-28T10:07:35.000Z</time>
      </trkpt>
      <trkpt lat="45.87599" lon="6.20406">
        <ele>789.20001220703</ele>
        <time>2017-05-28T10:07:36.000Z</time>
      </trkpt>
      <trkpt lat="45.87614" lon="6.20387">
        <ele>792.40002441406</ele>
        <time>2017-05-28T10:07:52.000Z</time>
      </trkpt>
      <trkpt lat="45.87621" lon="6.20386">
        <ele>794</ele>
        <time>2017-05-28T10:08:02.000Z</time>
      </trkpt>
      <trkpt lat="45.87624" lon="6.20385">
        <ele>794.79998779297</ele>
        <time>2017-05-28T10:08:06.000Z</time>
      </trkpt>
      <trkpt lat="45.87629" lon="6.20383">
        <ele>795.79998779297</ele>
        <time>2017-05-28T10:08:11.000Z</time>
      </trkpt>
      <trkpt lat="45.87636" lon="6.20388">
        <ele>797</ele>
        <time>2017-05-28T10:08:18.000Z</time>
      </trkpt>
      <trkpt lat="45.87642" lon="6.20388">
        <ele>797.79998779297</ele>
        <time>2017-05-28T10:08:22.000Z</time>
      </trkpt>
      <trkpt lat="45.87644" lon="6.20387">
        <ele>798</ele>
        <time>2017-05-28T10:08:23.000Z</time>
      </trkpt>
      <trkpt lat="45.87664" lon="6.20387">
        <ele>801.20001220703</ele>
        <time>2017-05-28T10:08:38.000Z</time>
      </trkpt>
      <trkpt lat="45.8767" lon="6.20391">
        <ele>802</ele>
        <time>2017-05-28T10:08:45.000Z</time>
      </trkpt>
      <trkpt lat="45.87676" lon="6.2039">
        <ele>803.40002441406</ele>
        <time>2017-05-28T10:08:52.000Z</time>
      </trkpt>
      <trkpt lat="45.87678" lon="6.20389">
        <ele>803.59997558594</ele>
        <time>2017-05-28T10:08:53.000Z</time>
      </trkpt>
      <trkpt lat="45.87678" lon="6.20389">
        <ele>803.79998779297</ele>
        <time>2017-05-28T10:08:54.000Z</time>
      </trkpt>
      <trkpt lat="45.87679" lon="6.20388">
        <ele>803.79998779297</ele>
        <time>2017-05-28T10:08:55.000Z</time>
      </trkpt>
      <trkpt lat="45.87685" lon="6.20384">
        <ele>807</ele>
        <time>2017-05-28T10:09:08.000Z</time>
      </trkpt>
      <trkpt lat="45.87699" lon="6.20374">
        <ele>810.20001220703</ele>
        <time>2017-05-28T10:09:22.000Z</time>
      </trkpt>
      <trkpt lat="45.87717" lon="6.20359">
        <ele>813.20001220703</ele>
        <time>2017-05-28T10:09:40.000Z</time>
      </trkpt>
      <trkpt lat="45.87727" lon="6.20354">
        <ele>813.79998779297</ele>
        <time>2017-05-28T10:09:50.000Z</time>
      </trkpt>
      <trkpt lat="45.87736" lon="6.20353">
        <ele>815.79998779297</ele>
        <time>2017-05-28T10:10:01.000Z</time>
      </trkpt>
      <trkpt lat="45.87737" lon="6.20352">
        <ele>816</ele>
        <time>2017-05-28T10:10:02.000Z</time>
      </trkpt>
      <trkpt lat="45.87742" lon="6.20351">
        <ele>816.59997558594</ele>
        <time>2017-05-28T10:10:06.000Z</time>
      </trkpt>
      <trkpt lat="45.87753" lon="6.20379">
        <ele>819.79998779297</ele>
        <time>2017-05-28T10:10:28.000Z</time>
      </trkpt>
      <trkpt lat="45.87761" lon="6.20379">
        <ele>821.59997558594</ele>
        <time>2017-05-28T10:10:36.000Z</time>
      </trkpt>
      <trkpt lat="45.87762" lon="6.20379">
        <ele>821.79998779297</ele>
        <time>2017-05-28T10:10:37.000Z</time>
      </trkpt>
      <trkpt lat="45.87762" lon="6.20378">
        <ele>822</ele>
        <time>2017-05-28T10:10:38.000Z</time>
      </trkpt>
      <trkpt lat="45.87766" lon="6.20374">
        <ele>823.59997558594</ele>
        <time>2017-05-28T10:10:46.000Z</time>
      </trkpt>
      <trkpt lat="45.87767" lon="6.20374">
        <ele>823.79998779297</ele>
        <time>2017-05-28T10:10:47.000Z</time>
      </trkpt>
      <trkpt lat="45.87778" lon="6.20338">
        <ele>827</ele>
        <time>2017-05-28T10:11:09.000Z</time>
      </trkpt>
      <trkpt lat="45.87791" lon="6.20302">
        <ele>830</ele>
        <time>2017-05-28T10:11:26.000Z</time>
      </trkpt>
      <trkpt lat="45.87797" lon="6.20289">
        <ele>831.79998779297</ele>
        <time>2017-05-28T10:11:35.000Z</time>
      </trkpt>
      <trkpt lat="45.87799" lon="6.20286">
        <ele>832</ele>
        <time>2017-05-28T10:11:36.000Z</time>
      </trkpt>
      <trkpt lat="45.87799" lon="6.20284">
        <ele>832.40002441406</ele>
        <time>2017-05-28T10:11:37.000Z</time>
      </trkpt>
      <trkpt lat="45.87802" lon="6.20271">
        <ele>834.40002441406</ele>
        <time>2017-05-28T10:11:47.000Z</time>
      </trkpt>
      <trkpt lat="45.87803" lon="6.2027">
        <ele>834.40002441406</ele>
        <time>2017-05-28T10:11:48.000Z</time>
      </trkpt>
      <trkpt lat="45.8781" lon="6.20247">
        <ele>837</ele>
        <time>2017-05-28T10:12:08.000Z</time>
      </trkpt>
      <trkpt lat="45.87811" lon="6.20246">
        <ele>837</ele>
        <time>2017-05-28T10:12:09.000Z</time>
      </trkpt>
      <trkpt lat="45.87818" lon="6.20238">
        <ele>840.20001220703</ele>
        <time>2017-05-28T10:12:24.000Z</time>
      </trkpt>
      <trkpt lat="45.87819" lon="6.20235">
        <ele>840.40002441406</ele>
        <time>2017-05-28T10:12:26.000Z</time>
      </trkpt>
      <trkpt lat="45.87825" lon="6.20231">
        <ele>842.59997558594</ele>
        <time>2017-05-28T10:12:37.000Z</time>
      </trkpt>
      <trkpt lat="45.87827" lon="6.20229">
        <ele>842.79998779297</ele>
        <time>2017-05-28T10:12:39.000Z</time>
      </trkpt>
      <trkpt lat="45.87828" lon="6.20228">
        <ele>843</ele>
        <time>2017-05-28T10:12:40.000Z</time>
      </trkpt>
      <trkpt lat="45.87829" lon="6.20226">
        <ele>843.20001220703</ele>
        <time>2017-05-28T10:12:41.000Z</time>
      </trkpt>
      <trkpt lat="45.87831" lon="6.20224">
        <ele>844.79998779297</ele>
        <time>2017-05-28T10:12:47.000Z</time>
      </trkpt>
      <trkpt lat="45.87838" lon="6.20231">
        <ele>847.59997558594</ele>
        <time>2017-05-28T10:13:01.000Z</time>
      </trkpt>
      <trkpt lat="45.8784" lon="6.20231">
        <ele>848</ele>
        <time>2017-05-28T10:13:03.000Z</time>
      </trkpt>
      <trkpt lat="45.87841" lon="6.2023">
        <ele>848.20001220703</ele>
        <time>2017-05-28T10:13:04.000Z</time>
      </trkpt>
      <trkpt lat="45.8785" lon="6.20232">
        <ele>849</ele>
        <time>2017-05-28T10:13:08.000Z</time>
      </trkpt>
      <trkpt lat="45.87852" lon="6.20233">
        <ele>849.20001220703</ele>
        <time>2017-05-28T10:13:09.000Z</time>
      </trkpt>
      <trkpt lat="45.87864" lon="6.20235">
        <ele>849.59997558594</ele>
        <time>2017-05-28T10:13:14.000Z</time>
      </trkpt>
      <trkpt lat="45.87866" lon="6.20234">
        <ele>849.79998779297</ele>
        <time>2017-05-28T10:13:15.000Z</time>
      </trkpt>
      <trkpt lat="45.87867" lon="6.20233">
        <ele>850</ele>
        <time>2017-05-28T10:13:16.000Z</time>
      </trkpt>
      <trkpt lat="45.87875" lon="6.20242">
        <ele>849.40002441406</ele>
        <time>2017-05-28T10:13:31.000Z</time>
      </trkpt>
      <trkpt lat="45.87876" lon="6.20245">
        <ele>849.40002441406</ele>
        <time>2017-05-28T10:13:33.000Z</time>
      </trkpt>
      <trkpt lat="45.87877" lon="6.20247">
        <ele>849.20001220703</ele>
        <time>2017-05-28T10:13:34.000Z</time>
      </trkpt>
      <trkpt lat="45.87878" lon="6.20248">
        <ele>849</ele>
        <time>2017-05-28T10:13:35.000Z</time>
      </trkpt>
      <trkpt lat="45.87878" lon="6.20251">
        <ele>849.20001220703</ele>
        <time>2017-05-28T10:13:36.000Z</time>
      </trkpt>
      <trkpt lat="45.87879" lon="6.20252">
        <ele>849</ele>
        <time>2017-05-28T10:13:37.000Z</time>
      </trkpt>
      <trkpt lat="45.8788" lon="6.20254">
        <ele>848.59997558594</ele>
        <time>2017-05-28T10:13:39.000Z</time>
      </trkpt>
      <trkpt lat="45.87882" lon="6.20254">
        <ele>848.20001220703</ele>
        <time>2017-05-28T10:13:41.000Z</time>
      </trkpt>
      <trkpt lat="45.87884" lon="6.20254">
        <ele>848</ele>
        <time>2017-05-28T10:13:42.000Z</time>
      </trkpt>
      <trkpt lat="45.87885" lon="6.20253">
        <ele>848</ele>
        <time>2017-05-28T10:13:43.000Z</time>
      </trkpt>
      <trkpt lat="45.87886" lon="6.20253">
        <ele>848</ele>
        <time>2017-05-28T10:13:44.000Z</time>
      </trkpt>
      <trkpt lat="45.87887" lon="6.20253">
        <ele>848</ele>
        <time>2017-05-28T10:13:45.000Z</time>
      </trkpt>
      <trkpt lat="45.87888" lon="6.20252">
        <ele>848</ele>
        <time>2017-05-28T10:13:46.000Z</time>
      </trkpt>
      <trkpt lat="45.8789" lon="6.20251">
        <ele>847.79998779297</ele>
        <time>2017-05-28T10:13:47.000Z</time>
      </trkpt>
      <trkpt lat="45.87892" lon="6.2025">
        <ele>847.79998779297</ele>
        <time>2017-05-28T10:13:48.000Z</time>
      </trkpt>
      <trkpt lat="45.87914" lon="6.2025">
        <ele>847.20001220703</ele>
        <time>2017-05-28T10:14:00.000Z</time>
      </trkpt>
      <trkpt lat="45.87916" lon="6.2025">
        <ele>847.40002441406</ele>
        <time>2017-05-28T10:14:01.000Z</time>
      </trkpt>
      <trkpt lat="45.87917" lon="6.20251">
        <ele>847.40002441406</ele>
        <time>2017-05-28T10:14:02.000Z</time>
      </trkpt>
      <trkpt lat="45.87919" lon="6.20251">
        <ele>847.40002441406</ele>
        <time>2017-05-28T10:14:03.000Z</time>
      </trkpt>
      <trkpt lat="45.87924" lon="6.20254">
        <ele>847.40002441406</ele>
        <time>2017-05-28T10:14:10.000Z</time>
      </trkpt>
      <trkpt lat="45.87925" lon="6.20255">
        <ele>847.40002441406</ele>
        <time>2017-05-28T10:14:11.000Z</time>
      </trkpt>
      <trkpt lat="45.87939" lon="6.20258">
        <ele>848</ele>
        <time>2017-05-28T10:14:23.000Z</time>
      </trkpt>
      <trkpt lat="45.87941" lon="6.20256">
        <ele>848</ele>
        <time>2017-05-28T10:14:25.000Z</time>
      </trkpt>
      <trkpt lat="45.87943" lon="6.20255">
        <ele>848</ele>
        <time>2017-05-28T10:14:26.000Z</time>
      </trkpt>
      <trkpt lat="45.87973" lon="6.20246">
        <ele>848</ele>
        <time>2017-05-28T10:14:45.000Z</time>
      </trkpt>
      <trkpt lat="45.87975" lon="6.20248">
        <ele>848</ele>
        <time>2017-05-28T10:14:47.000Z</time>
      </trkpt>
      <trkpt lat="45.87976" lon="6.20248">
        <ele>847.79998779297</ele>
        <time>2017-05-28T10:14:48.000Z</time>
      </trkpt>
      <trkpt lat="45.87978" lon="6.20248">
        <ele>847.79998779297</ele>
        <time>2017-05-28T10:14:49.000Z</time>
      </trkpt>
      <trkpt lat="45.87992" lon="6.20247">
        <ele>847.20001220703</ele>
        <time>2017-05-28T10:14:57.000Z</time>
      </trkpt>
      <trkpt lat="45.87997" lon="6.20247">
        <ele>846.40002441406</ele>
        <time>2017-05-28T10:15:00.000Z</time>
      </trkpt>
      <trkpt lat="45.87999" lon="6.20247">
        <ele>846</ele>
        <time>2017-05-28T10:15:01.000Z</time>
      </trkpt>
      <trkpt lat="45.88001" lon="6.20247">
        <ele>845.79998779297</ele>
        <time>2017-05-28T10:15:02.000Z</time>
      </trkpt>
      <trkpt lat="45.88002" lon="6.20248">
        <ele>845.20001220703</ele>
        <time>2017-05-28T10:15:03.000Z</time>
      </trkpt>
      <trkpt lat="45.88003" lon="6.20249">
        <ele>844.79998779297</ele>
        <time>2017-05-28T10:15:04.000Z</time>
      </trkpt>
      <trkpt lat="45.88004" lon="6.20249">
        <ele>844.59997558594</ele>
        <time>2017-05-28T10:15:05.000Z</time>
      </trkpt>
      <trkpt lat="45.88016" lon="6.20254">
        <ele>842</ele>
        <time>2017-05-28T10:15:13.000Z</time>
      </trkpt>
      <trkpt lat="45.88018" lon="6.20254">
        <ele>841.79998779297</ele>
        <time>2017-05-28T10:15:14.000Z</time>
      </trkpt>
      <trkpt lat="45.88025" lon="6.20255">
        <ele>840.20001220703</ele>
        <time>2017-05-28T10:15:18.000Z</time>
      </trkpt>
      <trkpt lat="45.88028" lon="6.20253">
        <ele>839.79998779297</ele>
        <time>2017-05-28T10:15:19.000Z</time>
      </trkpt>
      <trkpt lat="45.88041" lon="6.20247">
        <ele>837.20001220703</ele>
        <time>2017-05-28T10:15:25.000Z</time>
      </trkpt>
      <trkpt lat="45.88043" lon="6.20246">
        <ele>837</ele>
        <time>2017-05-28T10:15:26.000Z</time>
      </trkpt>
      <trkpt lat="45.88044" lon="6.20245">
        <ele>836.79998779297</ele>
        <time>2017-05-28T10:15:27.000Z</time>
      </trkpt>
      <trkpt lat="45.88047" lon="6.20241">
        <ele>836.79998779297</ele>
        <time>2017-05-28T10:15:28.000Z</time>
      </trkpt>
      <trkpt lat="45.88049" lon="6.20241">
        <ele>836.79998779297</ele>
        <time>2017-05-28T10:15:29.000Z</time>
      </trkpt>
      <trkpt lat="45.8805" lon="6.20242">
        <ele>836.59997558594</ele>
        <time>2017-05-28T10:15:30.000Z</time>
      </trkpt>
      <trkpt lat="45.88051" lon="6.20243">
        <ele>836.40002441406</ele>
        <time>2017-05-28T10:15:31.000Z</time>
      </trkpt>
      <trkpt lat="45.88053" lon="6.20243">
        <ele>836</ele>
        <time>2017-05-28T10:15:32.000Z</time>
      </trkpt>
      <trkpt lat="45.88054" lon="6.20244">
        <ele>835.40002441406</ele>
        <time>2017-05-28T10:15:33.000Z</time>
      </trkpt>
      <trkpt lat="45.88055" lon="6.20245">
        <ele>835</ele>
        <time>2017-05-28T10:15:34.000Z</time>
      </trkpt>
      <trkpt lat="45.88057" lon="6.20246">
        <ele>834.59997558594</ele>
        <time>2017-05-28T10:15:35.000Z</time>
      </trkpt>
      <trkpt lat="45.88059" lon="6.20247">
        <ele>834.20001220703</ele>
        <time>2017-05-28T10:15:36.000Z</time>
      </trkpt>
      <trkpt lat="45.88061" lon="6.20248">
        <ele>833.79998779297</ele>
        <time>2017-05-28T10:15:37.000Z</time>
      </trkpt>
      <trkpt lat="45.88063" lon="6.20247">
        <ele>833.40002441406</ele>
        <time>2017-05-28T10:15:38.000Z</time>
      </trkpt>
      <trkpt lat="45.88065" lon="6.20248">
        <ele>832.59997558594</ele>
        <time>2017-05-28T10:15:39.000Z</time>
      </trkpt>
      <trkpt lat="45.88067" lon="6.20247">
        <ele>832</ele>
        <time>2017-05-28T10:15:40.000Z</time>
      </trkpt>
      <trkpt lat="45.88069" lon="6.20247">
        <ele>831.59997558594</ele>
        <time>2017-05-28T10:15:41.000Z</time>
      </trkpt>
      <trkpt lat="45.88071" lon="6.20247">
        <ele>831.40002441406</ele>
        <time>2017-05-28T10:15:42.000Z</time>
      </trkpt>
      <trkpt lat="45.88077" lon="6.2025">
        <ele>829.59997558594</ele>
        <time>2017-05-28T10:15:46.000Z</time>
      </trkpt>
      <trkpt lat="45.8808" lon="6.20248">
        <ele>829.20001220703</ele>
        <time>2017-05-28T10:15:47.000Z</time>
      </trkpt>
      <trkpt lat="45.88085" lon="6.20245">
        <ele>828</ele>
        <time>2017-05-28T10:15:50.000Z</time>
      </trkpt>
      <trkpt lat="45.8809" lon="6.20247">
        <ele>826.40002441406</ele>
        <time>2017-05-28T10:15:54.000Z</time>
      </trkpt>
      <trkpt lat="45.88093" lon="6.20243">
        <ele>825.79998779297</ele>
        <time>2017-05-28T10:15:56.000Z</time>
      </trkpt>
      <trkpt lat="45.88108" lon="6.20227">
        <ele>822.59997558594</ele>
        <time>2017-05-28T10:16:05.000Z</time>
      </trkpt>
      <trkpt lat="45.88116" lon="6.20225">
        <ele>821.40002441406</ele>
        <time>2017-05-28T10:16:12.000Z</time>
      </trkpt>
      <trkpt lat="45.8813" lon="6.20201">
        <ele>821.40002441406</ele>
        <time>2017-05-28T10:16:22.000Z</time>
      </trkpt>
      <trkpt lat="45.8813" lon="6.20199">
        <ele>821.59997558594</ele>
        <time>2017-05-28T10:16:23.000Z</time>
      </trkpt>
      <trkpt lat="45.88144" lon="6.20164">
        <ele>821</ele>
        <time>2017-05-28T10:16:37.000Z</time>
      </trkpt>
      <trkpt lat="45.88158" lon="6.20154">
        <ele>821.40002441406</ele>
        <time>2017-05-28T10:16:57.000Z</time>
      </trkpt>
      <trkpt lat="45.88155" lon="6.20156">
        <ele>821.59997558594</ele>
        <time>2017-05-28T10:17:03.000Z</time>
      </trkpt>
      <trkpt lat="45.88154" lon="6.20156">
        <ele>821.59997558594</ele>
        <time>2017-05-28T10:17:04.000Z</time>
      </trkpt>
      <trkpt lat="45.88158" lon="6.20178">
        <ele>822.40002441406</ele>
        <time>2017-05-28T10:17:13.000Z</time>
      </trkpt>
      <trkpt lat="45.88162" lon="6.20182">
        <ele>822.40002441406</ele>
        <time>2017-05-28T10:17:14.000Z</time>
      </trkpt>
      <trkpt lat="45.88165" lon="6.20184">
        <ele>822.40002441406</ele>
        <time>2017-05-28T10:17:15.000Z</time>
      </trkpt>
      <trkpt lat="45.88167" lon="6.20186">
        <ele>822.40002441406</ele>
        <time>2017-05-28T10:17:16.000Z</time>
      </trkpt>
      <trkpt lat="45.88172" lon="6.2019">
        <ele>822.59997558594</ele>
        <time>2017-05-28T10:17:17.000Z</time>
      </trkpt>
      <trkpt lat="45.88182" lon="6.20196">
        <ele>824</ele>
        <time>2017-05-28T10:17:24.000Z</time>
      </trkpt>
      <trkpt lat="45.88182" lon="6.20198">
        <ele>824.40002441406</ele>
        <time>2017-05-28T10:17:25.000Z</time>
      </trkpt>
      <trkpt lat="45.88183" lon="6.20199">
        <ele>824.40002441406</ele>
        <time>2017-05-28T10:17:26.000Z</time>
      </trkpt>
      <trkpt lat="45.88184" lon="6.202">
        <ele>824.79998779297</ele>
        <time>2017-05-28T10:17:27.000Z</time>
      </trkpt>
      <trkpt lat="45.88185" lon="6.20201">
        <ele>825</ele>
        <time>2017-05-28T10:17:28.000Z</time>
      </trkpt>
      <trkpt lat="45.88184" lon="6.20203">
        <ele>825</ele>
        <time>2017-05-28T10:17:29.000Z</time>
      </trkpt>
      <trkpt lat="45.88187" lon="6.20204">
        <ele>825.20001220703</ele>
        <time>2017-05-28T10:17:30.000Z</time>
      </trkpt>
      <trkpt lat="45.88193" lon="6.20206">
        <ele>826</ele>
        <time>2017-05-28T10:17:34.000Z</time>
      </trkpt>
      <trkpt lat="45.88199" lon="6.20216">
        <ele>829</ele>
        <time>2017-05-28T10:17:47.000Z</time>
      </trkpt>
      <trkpt lat="45.882" lon="6.20217">
        <ele>829.40002441406</ele>
        <time>2017-05-28T10:17:49.000Z</time>
      </trkpt>
      <trkpt lat="45.88201" lon="6.20218">
        <ele>829.59997558594</ele>
        <time>2017-05-28T10:17:50.000Z</time>
      </trkpt>
      <trkpt lat="45.88202" lon="6.20219">
        <ele>830</ele>
        <time>2017-05-28T10:17:51.000Z</time>
      </trkpt>
      <trkpt lat="45.88202" lon="6.2022">
        <ele>830.20001220703</ele>
        <time>2017-05-28T10:17:52.000Z</time>
      </trkpt>
      <trkpt lat="45.88202" lon="6.20221">
        <ele>830.79998779297</ele>
        <time>2017-05-28T10:17:54.000Z</time>
      </trkpt>
      <trkpt lat="45.88207" lon="6.20228">
        <ele>834</ele>
        <time>2017-05-28T10:18:09.000Z</time>
      </trkpt>
      <trkpt lat="45.88208" lon="6.20229">
        <ele>834.20001220703</ele>
        <time>2017-05-28T10:18:10.000Z</time>
      </trkpt>
      <trkpt lat="45.88209" lon="6.2023">
        <ele>834.20001220703</ele>
        <time>2017-05-28T10:18:13.000Z</time>
      </trkpt>
      <trkpt lat="45.8821" lon="6.20231">
        <ele>834</ele>
        <time>2017-05-28T10:18:16.000Z</time>
      </trkpt>
      <trkpt lat="45.88209" lon="6.20235">
        <ele>834.59997558594</ele>
        <time>2017-05-28T10:18:25.000Z</time>
      </trkpt>
      <trkpt lat="45.8821" lon="6.20241">
        <ele>834.59997558594</ele>
        <time>2017-05-28T10:18:34.000Z</time>
      </trkpt>
      <trkpt lat="45.88209" lon="6.20243">
        <ele>834.40002441406</ele>
        <time>2017-05-28T10:18:35.000Z</time>
      </trkpt>
      <trkpt lat="45.88206" lon="6.2025">
        <ele>834</ele>
        <time>2017-05-28T10:18:40.000Z</time>
      </trkpt>
      <trkpt lat="45.88205" lon="6.20251">
        <ele>834</ele>
        <time>2017-05-28T10:18:41.000Z</time>
      </trkpt>
      <trkpt lat="45.88207" lon="6.20248">
        <ele>834.59997558594</ele>
        <time>2017-05-28T10:18:53.000Z</time>
      </trkpt>
      <trkpt lat="45.88208" lon="6.20246">
        <ele>834.59997558594</ele>
        <time>2017-05-28T10:18:54.000Z</time>
      </trkpt>
      <trkpt lat="45.88214" lon="6.20239">
        <ele>834.59997558594</ele>
        <time>2017-05-28T10:18:59.000Z</time>
      </trkpt>
      <trkpt lat="45.88214" lon="6.20238">
        <ele>834.59997558594</ele>
        <time>2017-05-28T10:19:00.000Z</time>
      </trkpt>
      <trkpt lat="45.88215" lon="6.20239">
        <ele>834.59997558594</ele>
        <time>2017-05-28T10:19:14.000Z</time>
      </trkpt>
      <trkpt lat="45.88213" lon="6.2024">
        <ele>834.20001220703</ele>
        <time>2017-05-28T10:19:36.000Z</time>
      </trkpt>
      <trkpt lat="45.88214" lon="6.20239">
        <ele>834.59997558594</ele>
        <time>2017-05-28T10:19:48.000Z</time>
      </trkpt>
      <trkpt lat="45.88215" lon="6.20239">
        <ele>835.20001220703</ele>
        <time>2017-05-28T10:19:50.000Z</time>
      </trkpt>
      <trkpt lat="45.88216" lon="6.20242">
        <ele>836</ele>
        <time>2017-05-28T10:19:54.000Z</time>
      </trkpt>
      <trkpt lat="45.88217" lon="6.20243">
        <ele>836.40002441406</ele>
        <time>2017-05-28T10:19:55.000Z</time>
      </trkpt>
      <trkpt lat="45.88217" lon="6.20245">
        <ele>836.40002441406</ele>
        <time>2017-05-28T10:19:56.000Z</time>
      </trkpt>
      <trkpt lat="45.88217" lon="6.20247">
        <ele>836.59997558594</ele>
        <time>2017-05-28T10:19:57.000Z</time>
      </trkpt>
      <trkpt lat="45.88218" lon="6.2025">
        <ele>836.59997558594</ele>
        <time>2017-05-28T10:19:58.000Z</time>
      </trkpt>
      <trkpt lat="45.88224" lon="6.2026">
        <ele>836.20001220703</ele>
        <time>2017-05-28T10:20:04.000Z</time>
      </trkpt>
      <trkpt lat="45.88225" lon="6.20262">
        <ele>836.20001220703</ele>
        <time>2017-05-28T10:20:05.000Z</time>
      </trkpt>
      <trkpt lat="45.88227" lon="6.20262">
        <ele>836.20001220703</ele>
        <time>2017-05-28T10:20:06.000Z</time>
      </trkpt>
      <trkpt lat="45.88229" lon="6.20264">
        <ele>836.20001220703</ele>
        <time>2017-05-28T10:20:07.000Z</time>
      </trkpt>
      <trkpt lat="45.8823" lon="6.20265">
        <ele>836.20001220703</ele>
        <time>2017-05-28T10:20:08.000Z</time>
      </trkpt>
      <trkpt lat="45.88232" lon="6.20265">
        <ele>836.59997558594</ele>
        <time>2017-05-28T10:20:09.000Z</time>
      </trkpt>
      <trkpt lat="45.88233" lon="6.20266">
        <ele>836.79998779297</ele>
        <time>2017-05-28T10:20:10.000Z</time>
      </trkpt>
      <trkpt lat="45.88235" lon="6.20266">
        <ele>837</ele>
        <time>2017-05-28T10:20:11.000Z</time>
      </trkpt>
      <trkpt lat="45.88236" lon="6.20267">
        <ele>837</ele>
        <time>2017-05-28T10:20:12.000Z</time>
      </trkpt>
      <trkpt lat="45.88237" lon="6.20268">
        <ele>837</ele>
        <time>2017-05-28T10:20:13.000Z</time>
      </trkpt>
      <trkpt lat="45.88239" lon="6.20269">
        <ele>836.79998779297</ele>
        <time>2017-05-28T10:20:14.000Z</time>
      </trkpt>
      <trkpt lat="45.88245" lon="6.20269">
        <ele>837.40002441406</ele>
        <time>2017-05-28T10:20:18.000Z</time>
      </trkpt>
      <trkpt lat="45.88257" lon="6.20267">
        <ele>838</ele>
        <time>2017-05-28T10:20:23.000Z</time>
      </trkpt>
      <trkpt lat="45.88259" lon="6.20266">
        <ele>838</ele>
        <time>2017-05-28T10:20:24.000Z</time>
      </trkpt>
      <trkpt lat="45.88263" lon="6.20267">
        <ele>838.20001220703</ele>
        <time>2017-05-28T10:20:26.000Z</time>
      </trkpt>
      <trkpt lat="45.88265" lon="6.20267">
        <ele>838.20001220703</ele>
        <time>2017-05-28T10:20:27.000Z</time>
      </trkpt>
      <trkpt lat="45.88267" lon="6.20269">
        <ele>838</ele>
        <time>2017-05-28T10:20:28.000Z</time>
      </trkpt>
      <trkpt lat="45.88269" lon="6.2027">
        <ele>838</ele>
        <time>2017-05-28T10:20:29.000Z</time>
      </trkpt>
      <trkpt lat="45.88271" lon="6.20271">
        <ele>838</ele>
        <time>2017-05-28T10:20:30.000Z</time>
      </trkpt>
      <trkpt lat="45.88273" lon="6.20272">
        <ele>838</ele>
        <time>2017-05-28T10:20:31.000Z</time>
      </trkpt>
      <trkpt lat="45.88294" lon="6.20282">
        <ele>837</ele>
        <time>2017-05-28T10:20:43.000Z</time>
      </trkpt>
      <trkpt lat="45.88304" lon="6.2028">
        <ele>837.20001220703</ele>
        <time>2017-05-28T10:20:47.000Z</time>
      </trkpt>
      <trkpt lat="45.88306" lon="6.2028">
        <ele>837.20001220703</ele>
        <time>2017-05-28T10:20:48.000Z</time>
      </trkpt>
      <trkpt lat="45.88328" lon="6.20293">
        <ele>836.20001220703</ele>
        <time>2017-05-28T10:21:00.000Z</time>
      </trkpt>
      <trkpt lat="45.88331" lon="6.20292">
        <ele>835.59997558594</ele>
        <time>2017-05-28T10:21:01.000Z</time>
      </trkpt>
      <trkpt lat="45.88333" lon="6.20292">
        <ele>835.20001220703</ele>
        <time>2017-05-28T10:21:02.000Z</time>
      </trkpt>
      <trkpt lat="45.88336" lon="6.20291">
        <ele>835</ele>
        <time>2017-05-28T10:21:03.000Z</time>
      </trkpt>
      <trkpt lat="45.88339" lon="6.20291">
        <ele>835.20001220703</ele>
        <time>2017-05-28T10:21:04.000Z</time>
      </trkpt>
      <trkpt lat="45.88359" lon="6.20287">
        <ele>838</ele>
        <time>2017-05-28T10:21:16.000Z</time>
      </trkpt>
      <trkpt lat="45.88382" lon="6.20278">
        <ele>840.59997558594</ele>
        <time>2017-05-28T10:21:31.000Z</time>
      </trkpt>
      <trkpt lat="45.88383" lon="6.20278">
        <ele>840.59997558594</ele>
        <time>2017-05-28T10:21:32.000Z</time>
      </trkpt>
      <trkpt lat="45.88384" lon="6.20276">
        <ele>840.79998779297</ele>
        <time>2017-05-28T10:21:33.000Z</time>
      </trkpt>
      <trkpt lat="45.88404" lon="6.2027">
        <ele>843.20001220703</ele>
        <time>2017-05-28T10:21:52.000Z</time>
      </trkpt>
      <trkpt lat="45.88406" lon="6.2027">
        <ele>843.59997558594</ele>
        <time>2017-05-28T10:21:54.000Z</time>
      </trkpt>
      <trkpt lat="45.88408" lon="6.2027">
        <ele>844.20001220703</ele>
        <time>2017-05-28T10:21:57.000Z</time>
      </trkpt>
      <trkpt lat="45.88416" lon="6.20272">
        <ele>846</ele>
        <time>2017-05-28T10:22:06.000Z</time>
      </trkpt>
      <trkpt lat="45.8842" lon="6.20267">
        <ele>848.20001220703</ele>
        <time>2017-05-28T10:22:15.000Z</time>
      </trkpt>
      <trkpt lat="45.88421" lon="6.20265">
        <ele>848.40002441406</ele>
        <time>2017-05-28T10:22:16.000Z</time>
      </trkpt>
      <trkpt lat="45.88423" lon="6.20261">
        <ele>849</ele>
        <time>2017-05-28T10:22:19.000Z</time>
      </trkpt>
      <trkpt lat="45.88428" lon="6.20259">
        <ele>850</ele>
        <time>2017-05-28T10:22:24.000Z</time>
      </trkpt>
      <trkpt lat="45.88429" lon="6.20257">
        <ele>850.20001220703</ele>
        <time>2017-05-28T10:22:25.000Z</time>
      </trkpt>
      <trkpt lat="45.8843" lon="6.20257">
        <ele>850.20001220703</ele>
        <time>2017-05-28T10:22:26.000Z</time>
      </trkpt>
      <trkpt lat="45.88433" lon="6.20257">
        <ele>850.79998779297</ele>
        <time>2017-05-28T10:22:28.000Z</time>
      </trkpt>
      <trkpt lat="45.88453" lon="6.20249">
        <ele>851.79998779297</ele>
        <time>2017-05-28T10:22:43.000Z</time>
      </trkpt>
      <trkpt lat="45.88468" lon="6.20254">
        <ele>852.79998779297</ele>
        <time>2017-05-28T10:22:53.000Z</time>
      </trkpt>
      <trkpt lat="45.8847" lon="6.20253">
        <ele>852.79998779297</ele>
        <time>2017-05-28T10:22:54.000Z</time>
      </trkpt>
      <trkpt lat="45.88471" lon="6.20252">
        <ele>853</ele>
        <time>2017-05-28T10:22:55.000Z</time>
      </trkpt>
      <trkpt lat="45.88485" lon="6.20247">
        <ele>854.20001220703</ele>
        <time>2017-05-28T10:23:05.000Z</time>
      </trkpt>
      <trkpt lat="45.88489" lon="6.20248">
        <ele>855.20001220703</ele>
        <time>2017-05-28T10:23:08.000Z</time>
      </trkpt>
      <trkpt lat="45.88491" lon="6.20246">
        <ele>855.40002441406</ele>
        <time>2017-05-28T10:23:09.000Z</time>
      </trkpt>
      <trkpt lat="45.88493" lon="6.20247">
        <ele>855.59997558594</ele>
        <time>2017-05-28T10:23:10.000Z</time>
      </trkpt>
      <trkpt lat="45.88496" lon="6.20247">
        <ele>855.79998779297</ele>
        <time>2017-05-28T10:23:11.000Z</time>
      </trkpt>
      <trkpt lat="45.88499" lon="6.20247">
        <ele>856</ele>
        <time>2017-05-28T10:23:12.000Z</time>
      </trkpt>
      <trkpt lat="45.88508" lon="6.20252">
        <ele>857.20001220703</ele>
        <time>2017-05-28T10:23:17.000Z</time>
      </trkpt>
      <trkpt lat="45.88509" lon="6.20253">
        <ele>857.40002441406</ele>
        <time>2017-05-28T10:23:18.000Z</time>
      </trkpt>
      <trkpt lat="45.8851" lon="6.20253">
        <ele>857.59997558594</ele>
        <time>2017-05-28T10:23:19.000Z</time>
      </trkpt>
      <trkpt lat="45.88514" lon="6.20255">
        <ele>858.20001220703</ele>
        <time>2017-05-28T10:23:22.000Z</time>
      </trkpt>
      <trkpt lat="45.8852" lon="6.20258">
        <ele>859.79998779297</ele>
        <time>2017-05-28T10:23:29.000Z</time>
      </trkpt>
      <trkpt lat="45.88521" lon="6.20257">
        <ele>860</ele>
        <time>2017-05-28T10:23:30.000Z</time>
      </trkpt>
      <trkpt lat="45.88523" lon="6.20257">
        <ele>860.40002441406</ele>
        <time>2017-05-28T10:23:31.000Z</time>
      </trkpt>
      <trkpt lat="45.8853" lon="6.20251">
        <ele>863.40002441406</ele>
        <time>2017-05-28T10:23:42.000Z</time>
      </trkpt>
      <trkpt lat="45.88535" lon="6.20248">
        <ele>866.20001220703</ele>
        <time>2017-05-28T10:23:53.000Z</time>
      </trkpt>
      <trkpt lat="45.88538" lon="6.20246">
        <ele>867</ele>
        <time>2017-05-28T10:23:57.000Z</time>
      </trkpt>
      <trkpt lat="45.88542" lon="6.20241">
        <ele>870.20001220703</ele>
        <time>2017-05-28T10:24:10.000Z</time>
      </trkpt>
      <trkpt lat="45.88543" lon="6.2024">
        <ele>872</ele>
        <time>2017-05-28T10:24:16.000Z</time>
      </trkpt>
      <trkpt lat="45.88553" lon="6.20239">
        <ele>875</ele>
        <time>2017-05-28T10:24:28.000Z</time>
      </trkpt>
      <trkpt lat="45.8856" lon="6.20239">
        <ele>877.40002441406</ele>
        <time>2017-05-28T10:24:37.000Z</time>
      </trkpt>
      <trkpt lat="45.88566" lon="6.20241">
        <ele>879.20001220703</ele>
        <time>2017-05-28T10:24:45.000Z</time>
      </trkpt>
      <trkpt lat="45.88567" lon="6.2024">
        <ele>879.79998779297</ele>
        <time>2017-05-28T10:24:47.000Z</time>
      </trkpt>
      <trkpt lat="45.88573" lon="6.20237">
        <ele>882.79998779297</ele>
        <time>2017-05-28T10:25:04.000Z</time>
      </trkpt>
      <trkpt lat="45.88574" lon="6.20237">
        <ele>883.20001220703</ele>
        <time>2017-05-28T10:25:05.000Z</time>
      </trkpt>
      <trkpt lat="45.8858" lon="6.20237">
        <ele>884.20001220703</ele>
        <time>2017-05-28T10:25:11.000Z</time>
      </trkpt>
      <trkpt lat="45.88587" lon="6.20238">
        <ele>887.20001220703</ele>
        <time>2017-05-28T10:25:25.000Z</time>
      </trkpt>
      <trkpt lat="45.8859" lon="6.20239">
        <ele>888.59997558594</ele>
        <time>2017-05-28T10:25:32.000Z</time>
      </trkpt>
      <trkpt lat="45.88598" lon="6.20235">
        <ele>891.79998779297</ele>
        <time>2017-05-28T10:25:45.000Z</time>
      </trkpt>
      <trkpt lat="45.886" lon="6.20235">
        <ele>892.20001220703</ele>
        <time>2017-05-28T10:25:47.000Z</time>
      </trkpt>
      <trkpt lat="45.88608" lon="6.20229">
        <ele>895.40002441406</ele>
        <time>2017-05-28T10:25:59.000Z</time>
      </trkpt>
      <trkpt lat="45.88614" lon="6.20221">
        <ele>898.40002441406</ele>
        <time>2017-05-28T10:26:14.000Z</time>
      </trkpt>
      <trkpt lat="45.88621" lon="6.20215">
        <ele>901.40002441406</ele>
        <time>2017-05-28T10:26:27.000Z</time>
      </trkpt>
      <trkpt lat="45.88629" lon="6.20213">
        <ele>904.40002441406</ele>
        <time>2017-05-28T10:26:41.000Z</time>
      </trkpt>
      <trkpt lat="45.88628" lon="6.20208">
        <ele>907.59997558594</ele>
        <time>2017-05-28T10:26:56.000Z</time>
      </trkpt>
      <trkpt lat="45.8863" lon="6.20209">
        <ele>908</ele>
        <time>2017-05-28T10:26:58.000Z</time>
      </trkpt>
      <trkpt lat="45.88638" lon="6.20203">
        <ele>911.20001220703</ele>
        <time>2017-05-28T10:27:11.000Z</time>
      </trkpt>
      <trkpt lat="45.88641" lon="6.20201">
        <ele>914.20001220703</ele>
        <time>2017-05-28T10:27:25.000Z</time>
      </trkpt>
      <trkpt lat="45.88643" lon="6.20203">
        <ele>915</ele>
        <time>2017-05-28T10:27:29.000Z</time>
      </trkpt>
      <trkpt lat="45.88644" lon="6.20204">
        <ele>915.59997558594</ele>
        <time>2017-05-28T10:27:32.000Z</time>
      </trkpt>
      <trkpt lat="45.88652" lon="6.20201">
        <ele>918.20001220703</ele>
        <time>2017-05-28T10:27:46.000Z</time>
      </trkpt>
      <trkpt lat="45.88653" lon="6.20201">
        <ele>918.40002441406</ele>
        <time>2017-05-28T10:27:47.000Z</time>
      </trkpt>
      <trkpt lat="45.88654" lon="6.20202">
        <ele>918.79998779297</ele>
        <time>2017-05-28T10:27:48.000Z</time>
      </trkpt>
      <trkpt lat="45.88659" lon="6.20199">
        <ele>919.40002441406</ele>
        <time>2017-05-28T10:27:52.000Z</time>
      </trkpt>
      <trkpt lat="45.88661" lon="6.20199">
        <ele>919.79998779297</ele>
        <time>2017-05-28T10:27:53.000Z</time>
      </trkpt>
      <trkpt lat="45.88669" lon="6.202">
        <ele>921</ele>
        <time>2017-05-28T10:27:59.000Z</time>
      </trkpt>
      <trkpt lat="45.8867" lon="6.202">
        <ele>921.20001220703</ele>
        <time>2017-05-28T10:28:00.000Z</time>
      </trkpt>
      <trkpt lat="45.88672" lon="6.20201">
        <ele>921.40002441406</ele>
        <time>2017-05-28T10:28:02.000Z</time>
      </trkpt>
      <trkpt lat="45.88681" lon="6.20201">
        <ele>924</ele>
        <time>2017-05-28T10:28:16.000Z</time>
      </trkpt>
      <trkpt lat="45.88682" lon="6.20202">
        <ele>924</ele>
        <time>2017-05-28T10:28:17.000Z</time>
      </trkpt>
      <trkpt lat="45.88683" lon="6.20201">
        <ele>924</ele>
        <time>2017-05-28T10:28:18.000Z</time>
      </trkpt>
      <trkpt lat="45.88684" lon="6.20201">
        <ele>924</ele>
        <time>2017-05-28T10:28:19.000Z</time>
      </trkpt>
      <trkpt lat="45.88685" lon="6.202">
        <ele>924.20001220703</ele>
        <time>2017-05-28T10:28:20.000Z</time>
      </trkpt>
      <trkpt lat="45.88686" lon="6.202">
        <ele>924.40002441406</ele>
        <time>2017-05-28T10:28:21.000Z</time>
      </trkpt>
      <trkpt lat="45.88704" lon="6.20193">
        <ele>927.40002441406</ele>
        <time>2017-05-28T10:28:40.000Z</time>
      </trkpt>
      <trkpt lat="45.88708" lon="6.20191">
        <ele>928</ele>
        <time>2017-05-28T10:28:44.000Z</time>
      </trkpt>
      <trkpt lat="45.88709" lon="6.2019">
        <ele>928</ele>
        <time>2017-05-28T10:28:45.000Z</time>
      </trkpt>
      <trkpt lat="45.88713" lon="6.20188">
        <ele>928.40002441406</ele>
        <time>2017-05-28T10:28:48.000Z</time>
      </trkpt>
      <trkpt lat="45.88714" lon="6.20188">
        <ele>928.59997558594</ele>
        <time>2017-05-28T10:28:49.000Z</time>
      </trkpt>
      <trkpt lat="45.88726" lon="6.20183">
        <ele>931.59997558594</ele>
        <time>2017-05-28T10:29:03.000Z</time>
      </trkpt>
      <trkpt lat="45.88746" lon="6.20177">
        <ele>932.20001220703</ele>
        <time>2017-05-28T10:29:21.000Z</time>
      </trkpt>
      <trkpt lat="45.88746" lon="6.20177">
        <ele>932.20001220703</ele>
        <time>2017-05-28T10:29:23.000Z</time>
      </trkpt>
      <trkpt lat="45.88749" lon="6.20176">
        <ele>932</ele>
        <time>2017-05-28T10:29:24.000Z</time>
      </trkpt>
      <trkpt lat="45.88772" lon="6.20173">
        <ele>934.59997558594</ele>
        <time>2017-05-28T10:29:41.000Z</time>
      </trkpt>
      <trkpt lat="45.88774" lon="6.20174">
        <ele>934.79998779297</ele>
        <time>2017-05-28T10:29:42.000Z</time>
      </trkpt>
      <trkpt lat="45.88775" lon="6.20175">
        <ele>935.20001220703</ele>
        <time>2017-05-28T10:29:43.000Z</time>
      </trkpt>
      <trkpt lat="45.88775" lon="6.20176">
        <ele>935.20001220703</ele>
        <time>2017-05-28T10:29:44.000Z</time>
      </trkpt>
      <trkpt lat="45.88789" lon="6.20184">
        <ele>938</ele>
        <time>2017-05-28T10:30:01.000Z</time>
      </trkpt>
      <trkpt lat="45.88797" lon="6.20188">
        <ele>940.20001220703</ele>
        <time>2017-05-28T10:30:11.000Z</time>
      </trkpt>
      <trkpt lat="45.88798" lon="6.20188">
        <ele>940.40002441406</ele>
        <time>2017-05-28T10:30:12.000Z</time>
      </trkpt>
      <trkpt lat="45.88799" lon="6.20187">
        <ele>940.59997558594</ele>
        <time>2017-05-28T10:30:13.000Z</time>
      </trkpt>
      <trkpt lat="45.88806" lon="6.20184">
        <ele>941</ele>
        <time>2017-05-28T10:30:18.000Z</time>
      </trkpt>
      <trkpt lat="45.88807" lon="6.20184">
        <ele>941.20001220703</ele>
        <time>2017-05-28T10:30:19.000Z</time>
      </trkpt>
      <trkpt lat="45.88808" lon="6.20185">
        <ele>941</ele>
        <time>2017-05-28T10:30:20.000Z</time>
      </trkpt>
      <trkpt lat="45.88809" lon="6.20186">
        <ele>941</ele>
        <time>2017-05-28T10:30:21.000Z</time>
      </trkpt>
      <trkpt lat="45.88809" lon="6.20186">
        <ele>941</ele>
        <time>2017-05-28T10:30:22.000Z</time>
      </trkpt>
      <trkpt lat="45.88823" lon="6.20194">
        <ele>937.40002441406</ele>
        <time>2017-05-28T10:30:37.000Z</time>
      </trkpt>
      <trkpt lat="45.88828" lon="6.20193">
        <ele>935.59997558594</ele>
        <time>2017-05-28T10:30:41.000Z</time>
      </trkpt>
      <trkpt lat="45.88844" lon="6.20189">
        <ele>932.59997558594</ele>
        <time>2017-05-28T10:30:52.000Z</time>
      </trkpt>
      <trkpt lat="45.88873" lon="6.20175">
        <ele>933.20001220703</ele>
        <time>2017-05-28T10:31:08.000Z</time>
      </trkpt>
      <trkpt lat="45.88884" lon="6.20174">
        <ele>933.20001220703</ele>
        <time>2017-05-28T10:31:15.000Z</time>
      </trkpt>
      <trkpt lat="45.88885" lon="6.20176">
        <ele>933.20001220703</ele>
        <time>2017-05-28T10:31:16.000Z</time>
      </trkpt>
      <trkpt lat="45.88886" lon="6.20177">
        <ele>933.20001220703</ele>
        <time>2017-05-28T10:31:17.000Z</time>
      </trkpt>
      <trkpt lat="45.88903" lon="6.20185">
        <ele>936.40002441406</ele>
        <time>2017-05-28T10:31:34.000Z</time>
      </trkpt>
      <trkpt lat="45.88918" lon="6.20191">
        <ele>939</ele>
        <time>2017-05-28T10:31:49.000Z</time>
      </trkpt>
      <trkpt lat="45.8892" lon="6.20191">
        <ele>939</ele>
        <time>2017-05-28T10:31:50.000Z</time>
      </trkpt>
      <trkpt lat="45.88939" lon="6.20201">
        <ele>942.20001220703</ele>
        <time>2017-05-28T10:32:12.000Z</time>
      </trkpt>
      <trkpt lat="45.88949" lon="6.20202">
        <ele>943.20001220703</ele>
        <time>2017-05-28T10:32:21.000Z</time>
      </trkpt>
      <trkpt lat="45.88949" lon="6.20201">
        <ele>943.20001220703</ele>
        <time>2017-05-28T10:32:22.000Z</time>
      </trkpt>
      <trkpt lat="45.88949" lon="6.20197">
        <ele>944</ele>
        <time>2017-05-28T10:32:27.000Z</time>
      </trkpt>
      <trkpt lat="45.88948" lon="6.20194">
        <ele>944.20001220703</ele>
        <time>2017-05-28T10:32:29.000Z</time>
      </trkpt>
      <trkpt lat="45.88952" lon="6.20196">
        <ele>945.59997558594</ele>
        <time>2017-05-28T10:32:38.000Z</time>
      </trkpt>
      <trkpt lat="45.88961" lon="6.202">
        <ele>947</ele>
        <time>2017-05-28T10:32:46.000Z</time>
      </trkpt>
      <trkpt lat="45.88973" lon="6.20205">
        <ele>950</ele>
        <time>2017-05-28T10:33:04.000Z</time>
      </trkpt>
      <trkpt lat="45.88982" lon="6.202">
        <ele>952.79998779297</ele>
        <time>2017-05-28T10:33:17.000Z</time>
      </trkpt>
      <trkpt lat="45.88984" lon="6.20198">
        <ele>952.79998779297</ele>
        <time>2017-05-28T10:33:19.000Z</time>
      </trkpt>
      <trkpt lat="45.88998" lon="6.20195">
        <ele>954.59997558594</ele>
        <time>2017-05-28T10:33:32.000Z</time>
      </trkpt>
      <trkpt lat="45.88999" lon="6.20195">
        <ele>954.79998779297</ele>
        <time>2017-05-28T10:33:33.000Z</time>
      </trkpt>
      <trkpt lat="45.8901" lon="6.20197">
        <ele>956.59997558594</ele>
        <time>2017-05-28T10:33:44.000Z</time>
      </trkpt>
      <trkpt lat="45.89012" lon="6.20197">
        <ele>956.59997558594</ele>
        <time>2017-05-28T10:33:45.000Z</time>
      </trkpt>
      <trkpt lat="45.89014" lon="6.20198">
        <ele>957</ele>
        <time>2017-05-28T10:33:47.000Z</time>
      </trkpt>
      <trkpt lat="45.89029" lon="6.2019">
        <ele>960</ele>
        <time>2017-05-28T10:34:04.000Z</time>
      </trkpt>
      <trkpt lat="45.8903" lon="6.2019">
        <ele>960.40002441406</ele>
        <time>2017-05-28T10:34:06.000Z</time>
      </trkpt>
      <trkpt lat="45.89051" lon="6.20195">
        <ele>963.40002441406</ele>
        <time>2017-05-28T10:34:28.000Z</time>
      </trkpt>
      <trkpt lat="45.89052" lon="6.20195">
        <ele>963.40002441406</ele>
        <time>2017-05-28T10:34:29.000Z</time>
      </trkpt>
      <trkpt lat="45.89056" lon="6.20196">
        <ele>964.20001220703</ele>
        <time>2017-05-28T10:34:32.000Z</time>
      </trkpt>
      <trkpt lat="45.89058" lon="6.20196">
        <ele>964.20001220703</ele>
        <time>2017-05-28T10:34:33.000Z</time>
      </trkpt>
      <trkpt lat="45.89065" lon="6.20192">
        <ele>965</ele>
        <time>2017-05-28T10:34:39.000Z</time>
      </trkpt>
      <trkpt lat="45.89067" lon="6.20191">
        <ele>965.20001220703</ele>
        <time>2017-05-28T10:34:40.000Z</time>
      </trkpt>
      <trkpt lat="45.89068" lon="6.2019">
        <ele>965.59997558594</ele>
        <time>2017-05-28T10:34:41.000Z</time>
      </trkpt>
      <trkpt lat="45.89072" lon="6.20189">
        <ele>966.79998779297</ele>
        <time>2017-05-28T10:34:48.000Z</time>
      </trkpt>
      <trkpt lat="45.89074" lon="6.20188">
        <ele>967</ele>
        <time>2017-05-28T10:34:49.000Z</time>
      </trkpt>
      <trkpt lat="45.89082" lon="6.20184">
        <ele>968.59997558594</ele>
        <time>2017-05-28T10:34:57.000Z</time>
      </trkpt>
      <trkpt lat="45.89084" lon="6.20184">
        <ele>968.79998779297</ele>
        <time>2017-05-28T10:34:58.000Z</time>
      </trkpt>
      <trkpt lat="45.89102" lon="6.20186">
        <ele>971.79998779297</ele>
        <time>2017-05-28T10:35:15.000Z</time>
      </trkpt>
      <trkpt lat="45.89108" lon="6.20192">
        <ele>972.40002441406</ele>
        <time>2017-05-28T10:35:19.000Z</time>
      </trkpt>
      <trkpt lat="45.89111" lon="6.20193">
        <ele>973</ele>
        <time>2017-05-28T10:35:21.000Z</time>
      </trkpt>
      <trkpt lat="45.89126" lon="6.20185">
        <ele>976.20001220703</ele>
        <time>2017-05-28T10:35:36.000Z</time>
      </trkpt>
      <trkpt lat="45.89131" lon="6.20181">
        <ele>977.20001220703</ele>
        <time>2017-05-28T10:35:41.000Z</time>
      </trkpt>
      <trkpt lat="45.89132" lon="6.20181">
        <ele>977.40002441406</ele>
        <time>2017-05-28T10:35:42.000Z</time>
      </trkpt>
      <trkpt lat="45.89137" lon="6.20175">
        <ele>978.20001220703</ele>
        <time>2017-05-28T10:35:47.000Z</time>
      </trkpt>
      <trkpt lat="45.89144" lon="6.20178">
        <ele>979.40002441406</ele>
        <time>2017-05-28T10:35:56.000Z</time>
      </trkpt>
      <trkpt lat="45.89153" lon="6.20181">
        <ele>980.59997558594</ele>
        <time>2017-05-28T10:36:04.000Z</time>
      </trkpt>
      <trkpt lat="45.89156" lon="6.20179">
        <ele>981</ele>
        <time>2017-05-28T10:36:06.000Z</time>
      </trkpt>
      <trkpt lat="45.89163" lon="6.20177">
        <ele>982.40002441406</ele>
        <time>2017-05-28T10:36:13.000Z</time>
      </trkpt>
      <trkpt lat="45.89165" lon="6.20176">
        <ele>982.79998779297</ele>
        <time>2017-05-28T10:36:14.000Z</time>
      </trkpt>
      <trkpt lat="45.89167" lon="6.20176">
        <ele>982.79998779297</ele>
        <time>2017-05-28T10:36:15.000Z</time>
      </trkpt>
      <trkpt lat="45.89194" lon="6.20168">
        <ele>985.20001220703</ele>
        <time>2017-05-28T10:36:35.000Z</time>
      </trkpt>
      <trkpt lat="45.89197" lon="6.2017">
        <ele>986.40002441406</ele>
        <time>2017-05-28T10:36:38.000Z</time>
      </trkpt>
      <trkpt lat="45.89199" lon="6.20171">
        <ele>986.40002441406</ele>
        <time>2017-05-28T10:36:39.000Z</time>
      </trkpt>
      <trkpt lat="45.892" lon="6.20172">
        <ele>986.59997558594</ele>
        <time>2017-05-28T10:36:40.000Z</time>
      </trkpt>
      <trkpt lat="45.89201" lon="6.20171">
        <ele>986.59997558594</ele>
        <time>2017-05-28T10:36:41.000Z</time>
      </trkpt>
      <trkpt lat="45.89212" lon="6.20171">
        <ele>988.79998779297</ele>
        <time>2017-05-28T10:36:53.000Z</time>
      </trkpt>
      <trkpt lat="45.89212" lon="6.20171">
        <ele>989</ele>
        <time>2017-05-28T10:36:54.000Z</time>
      </trkpt>
      <trkpt lat="45.89221" lon="6.20171">
        <ele>992.20001220703</ele>
        <time>2017-05-28T10:37:05.000Z</time>
      </trkpt>
      <trkpt lat="45.89237" lon="6.20182">
        <ele>995.20001220703</ele>
        <time>2017-05-28T10:37:24.000Z</time>
      </trkpt>
      <trkpt lat="45.89244" lon="6.20181">
        <ele>998.20001220703</ele>
        <time>2017-05-28T10:37:34.000Z</time>
      </trkpt>
      <trkpt lat="45.89252" lon="6.20184">
        <ele>1000</ele>
        <time>2017-05-28T10:37:44.000Z</time>
      </trkpt>
      <trkpt lat="45.89255" lon="6.20185">
        <ele>1000.4000244141</ele>
        <time>2017-05-28T10:37:47.000Z</time>
      </trkpt>
      <trkpt lat="45.89258" lon="6.20183">
        <ele>1000.799987793</ele>
        <time>2017-05-28T10:37:50.000Z</time>
      </trkpt>
      <trkpt lat="45.89258" lon="6.20182">
        <ele>1001</ele>
        <time>2017-05-28T10:37:51.000Z</time>
      </trkpt>
      <trkpt lat="45.89267" lon="6.20179">
        <ele>1002.4000244141</ele>
        <time>2017-05-28T10:38:01.000Z</time>
      </trkpt>
      <trkpt lat="45.89268" lon="6.2018">
        <ele>1002.4000244141</ele>
        <time>2017-05-28T10:38:02.000Z</time>
      </trkpt>
      <trkpt lat="45.89275" lon="6.20177">
        <ele>1003.4000244141</ele>
        <time>2017-05-28T10:38:08.000Z</time>
      </trkpt>
      <trkpt lat="45.89277" lon="6.20177">
        <ele>1003.4000244141</ele>
        <time>2017-05-28T10:38:09.000Z</time>
      </trkpt>
      <trkpt lat="45.89279" lon="6.20179">
        <ele>1003.4000244141</ele>
        <time>2017-05-28T10:38:10.000Z</time>
      </trkpt>
      <trkpt lat="45.89291" lon="6.20181">
        <ele>1004.4000244141</ele>
        <time>2017-05-28T10:38:19.000Z</time>
      </trkpt>
      <trkpt lat="45.89296" lon="6.20186">
        <ele>1005.4000244141</ele>
        <time>2017-05-28T10:38:23.000Z</time>
      </trkpt>
      <trkpt lat="45.89298" lon="6.20187">
        <ele>1005.4000244141</ele>
        <time>2017-05-28T10:38:24.000Z</time>
      </trkpt>
      <trkpt lat="45.8931" lon="6.20187">
        <ele>1006.5999755859</ele>
        <time>2017-05-28T10:38:35.000Z</time>
      </trkpt>
      <trkpt lat="45.89311" lon="6.20188">
        <ele>1006.5999755859</ele>
        <time>2017-05-28T10:38:36.000Z</time>
      </trkpt>
      <trkpt lat="45.89331" lon="6.2019">
        <ele>1009.5999755859</ele>
        <time>2017-05-28T10:38:56.000Z</time>
      </trkpt>
      <trkpt lat="45.89351" lon="6.20198">
        <ele>1012.5999755859</ele>
        <time>2017-05-28T10:39:13.000Z</time>
      </trkpt>
      <trkpt lat="45.89378" lon="6.20204">
        <ele>1015.4000244141</ele>
        <time>2017-05-28T10:39:37.000Z</time>
      </trkpt>
      <trkpt lat="45.89391" lon="6.20195">
        <ele>1018.5999755859</ele>
        <time>2017-05-28T10:39:52.000Z</time>
      </trkpt>
      <trkpt lat="45.89396" lon="6.20188">
        <ele>1020.5999755859</ele>
        <time>2017-05-28T10:40:03.000Z</time>
      </trkpt>
      <trkpt lat="45.89403" lon="6.20186">
        <ele>1021.200012207</ele>
        <time>2017-05-28T10:40:11.000Z</time>
      </trkpt>
      <trkpt lat="45.89422" lon="6.20177">
        <ele>1023.200012207</ele>
        <time>2017-05-28T10:40:25.000Z</time>
      </trkpt>
      <trkpt lat="45.89426" lon="6.20177">
        <ele>1023.799987793</ele>
        <time>2017-05-28T10:40:28.000Z</time>
      </trkpt>
      <trkpt lat="45.89427" lon="6.20176">
        <ele>1024.1999511719</ele>
        <time>2017-05-28T10:40:29.000Z</time>
      </trkpt>
      <trkpt lat="45.89431" lon="6.20178">
        <ele>1024.5999755859</ele>
        <time>2017-05-28T10:40:33.000Z</time>
      </trkpt>
      <trkpt lat="45.89435" lon="6.20178">
        <ele>1025.4000244141</ele>
        <time>2017-05-28T10:40:36.000Z</time>
      </trkpt>
      <trkpt lat="45.89436" lon="6.20179">
        <ele>1025.5999755859</ele>
        <time>2017-05-28T10:40:37.000Z</time>
      </trkpt>
      <trkpt lat="45.89438" lon="6.2018">
        <ele>1025.5999755859</ele>
        <time>2017-05-28T10:40:38.000Z</time>
      </trkpt>
      <trkpt lat="45.89444" lon="6.20179">
        <ele>1026.5999755859</ele>
        <time>2017-05-28T10:40:43.000Z</time>
      </trkpt>
      <trkpt lat="45.89461" lon="6.20181">
        <ele>1029.5999755859</ele>
        <time>2017-05-28T10:41:02.000Z</time>
      </trkpt>
      <trkpt lat="45.89466" lon="6.20178">
        <ele>1031.1999511719</ele>
        <time>2017-05-28T10:41:09.000Z</time>
      </trkpt>
      <trkpt lat="45.89479" lon="6.2017">
        <ele>1034.4000244141</ele>
        <time>2017-05-28T10:41:25.000Z</time>
      </trkpt>
      <trkpt lat="45.8948" lon="6.2017">
        <ele>1034.5999755859</ele>
        <time>2017-05-28T10:41:26.000Z</time>
      </trkpt>
      <trkpt lat="45.89481" lon="6.2017">
        <ele>1034.5999755859</ele>
        <time>2017-05-28T10:41:27.000Z</time>
      </trkpt>
      <trkpt lat="45.8949" lon="6.20163">
        <ele>1036.8000488281</ele>
        <time>2017-05-28T10:41:42.000Z</time>
      </trkpt>
      <trkpt lat="45.89496" lon="6.20158">
        <ele>1038.8000488281</ele>
        <time>2017-05-28T10:41:51.000Z</time>
      </trkpt>
      <trkpt lat="45.89498" lon="6.20153">
        <ele>1041.8000488281</ele>
        <time>2017-05-28T10:42:05.000Z</time>
      </trkpt>
      <trkpt lat="45.89497" lon="6.20148">
        <ele>1044</ele>
        <time>2017-05-28T10:42:16.000Z</time>
      </trkpt>
      <trkpt lat="45.89497" lon="6.20147">
        <ele>1044.1999511719</ele>
        <time>2017-05-28T10:42:17.000Z</time>
      </trkpt>
      <trkpt lat="45.89494" lon="6.20134">
        <ele>1047.1999511719</ele>
        <time>2017-05-28T10:42:30.000Z</time>
      </trkpt>
      <trkpt lat="45.89499" lon="6.20126">
        <ele>1050.1999511719</ele>
        <time>2017-05-28T10:42:47.000Z</time>
      </trkpt>
      <trkpt lat="45.89503" lon="6.20122">
        <ele>1051.5999755859</ele>
        <time>2017-05-28T10:42:54.000Z</time>
      </trkpt>
      <trkpt lat="45.89503" lon="6.2012">
        <ele>1051.5999755859</ele>
        <time>2017-05-28T10:42:55.000Z</time>
      </trkpt>
      <trkpt lat="45.89504" lon="6.20118">
        <ele>1051.5999755859</ele>
        <time>2017-05-28T10:42:56.000Z</time>
      </trkpt>
      <trkpt lat="45.89506" lon="6.20108">
        <ele>1052.8000488281</ele>
        <time>2017-05-28T10:43:05.000Z</time>
      </trkpt>
      <trkpt lat="45.89507" lon="6.20107">
        <ele>1052.8000488281</ele>
        <time>2017-05-28T10:43:06.000Z</time>
      </trkpt>
      <trkpt lat="45.89506" lon="6.20105">
        <ele>1053</ele>
        <time>2017-05-28T10:43:07.000Z</time>
      </trkpt>
      <trkpt lat="45.89507" lon="6.20104">
        <ele>1053.1999511719</ele>
        <time>2017-05-28T10:43:08.000Z</time>
      </trkpt>
      <trkpt lat="45.89507" lon="6.20103">
        <ele>1053.4000244141</ele>
        <time>2017-05-28T10:43:09.000Z</time>
      </trkpt>
      <trkpt lat="45.89506" lon="6.20101">
        <ele>1053.4000244141</ele>
        <time>2017-05-28T10:43:10.000Z</time>
      </trkpt>
      <trkpt lat="45.89506" lon="6.20099">
        <ele>1053.5999755859</ele>
        <time>2017-05-28T10:43:11.000Z</time>
      </trkpt>
      <trkpt lat="45.89511" lon="6.20093">
        <ele>1054.8000488281</ele>
        <time>2017-05-28T10:43:18.000Z</time>
      </trkpt>
      <trkpt lat="45.89514" lon="6.20093">
        <ele>1056.5999755859</ele>
        <time>2017-05-28T10:43:26.000Z</time>
      </trkpt>
      <trkpt lat="45.8952" lon="6.20093">
        <ele>1056</ele>
        <time>2017-05-28T10:43:34.000Z</time>
      </trkpt>
      <trkpt lat="45.89524" lon="6.20094">
        <ele>1055.4000244141</ele>
        <time>2017-05-28T10:43:37.000Z</time>
      </trkpt>
      <trkpt lat="45.89525" lon="6.20094">
        <ele>1055.4000244141</ele>
        <time>2017-05-28T10:43:39.000Z</time>
      </trkpt>
      <trkpt lat="45.89525" lon="6.20094">
        <ele>1055.1999511719</ele>
        <time>2017-05-28T10:43:54.000Z</time>
      </trkpt>
      <trkpt lat="45.89524" lon="6.20094">
        <ele>1055</ele>
        <time>2017-05-28T10:43:57.000Z</time>
      </trkpt>
      <trkpt lat="45.8952" lon="6.20094">
        <ele>1054.8000488281</ele>
        <time>2017-05-28T10:44:02.000Z</time>
      </trkpt>
      <trkpt lat="45.89516" lon="6.20092">
        <ele>1054.8000488281</ele>
        <time>2017-05-28T10:44:06.000Z</time>
      </trkpt>
      <trkpt lat="45.89516" lon="6.20096">
        <ele>1055.4000244141</ele>
        <time>2017-05-28T10:44:27.000Z</time>
      </trkpt>
      <trkpt lat="45.89521" lon="6.20097">
        <ele>1055.8000488281</ele>
        <time>2017-05-28T10:44:30.000Z</time>
      </trkpt>
      <trkpt lat="45.89522" lon="6.20097">
        <ele>1055.8000488281</ele>
        <time>2017-05-28T10:44:31.000Z</time>
      </trkpt>
      <trkpt lat="45.89523" lon="6.20097">
        <ele>1055.5999755859</ele>
        <time>2017-05-28T10:44:32.000Z</time>
      </trkpt>
      <trkpt lat="45.89529" lon="6.20098">
        <ele>1054.5999755859</ele>
        <time>2017-05-28T10:44:38.000Z</time>
      </trkpt>
      <trkpt lat="45.8953" lon="6.20098">
        <ele>1054.4000244141</ele>
        <time>2017-05-28T10:44:39.000Z</time>
      </trkpt>
      <trkpt lat="45.89541" lon="6.20094">
        <ele>1052.8000488281</ele>
        <time>2017-05-28T10:44:53.000Z</time>
      </trkpt>
      <trkpt lat="45.89543" lon="6.20095">
        <ele>1052.4000244141</ele>
        <time>2017-05-28T10:44:54.000Z</time>
      </trkpt>
      <trkpt lat="45.89546" lon="6.20091">
        <ele>1050.8000488281</ele>
        <time>2017-05-28T10:45:00.000Z</time>
      </trkpt>
      <trkpt lat="45.89546" lon="6.2009">
        <ele>1050.4000244141</ele>
        <time>2017-05-28T10:45:01.000Z</time>
      </trkpt>
      <trkpt lat="45.89547" lon="6.2009">
        <ele>1050.1999511719</ele>
        <time>2017-05-28T10:45:02.000Z</time>
      </trkpt>
      <trkpt lat="45.89549" lon="6.20084">
        <ele>1047.4000244141</ele>
        <time>2017-05-28T10:45:13.000Z</time>
      </trkpt>
      <trkpt lat="45.89549" lon="6.20083">
        <ele>1047.1999511719</ele>
        <time>2017-05-28T10:45:14.000Z</time>
      </trkpt>
      <trkpt lat="45.89548" lon="6.20082">
        <ele>1047</ele>
        <time>2017-05-28T10:45:15.000Z</time>
      </trkpt>
      <trkpt lat="45.89547" lon="6.2008">
        <ele>1046.8000488281</ele>
        <time>2017-05-28T10:45:16.000Z</time>
      </trkpt>
      <trkpt lat="45.89534" lon="6.20063">
        <ele>1044</ele>
        <time>2017-05-28T10:45:23.000Z</time>
      </trkpt>
      <trkpt lat="45.89534" lon="6.20061">
        <ele>1043.8000488281</ele>
        <time>2017-05-28T10:45:24.000Z</time>
      </trkpt>
      <trkpt lat="45.89528" lon="6.20047">
        <ele>1041.5999755859</ele>
        <time>2017-05-28T10:45:30.000Z</time>
      </trkpt>
      <trkpt lat="45.89527" lon="6.20045">
        <ele>1041.4000244141</ele>
        <time>2017-05-28T10:45:31.000Z</time>
      </trkpt>
      <trkpt lat="45.89524" lon="6.20042">
        <ele>1041.1999511719</ele>
        <time>2017-05-28T10:45:32.000Z</time>
      </trkpt>
      <trkpt lat="45.89524" lon="6.2004">
        <ele>1040.8000488281</ele>
        <time>2017-05-28T10:45:33.000Z</time>
      </trkpt>
      <trkpt lat="45.89524" lon="6.20038">
        <ele>1040.4000244141</ele>
        <time>2017-05-28T10:45:34.000Z</time>
      </trkpt>
      <trkpt lat="45.89525" lon="6.20036">
        <ele>1040.1999511719</ele>
        <time>2017-05-28T10:45:35.000Z</time>
      </trkpt>
      <trkpt lat="45.89526" lon="6.20035">
        <ele>1040</ele>
        <time>2017-05-28T10:45:36.000Z</time>
      </trkpt>
      <trkpt lat="45.89527" lon="6.20033">
        <ele>1039.4000244141</ele>
        <time>2017-05-28T10:45:37.000Z</time>
      </trkpt>
      <trkpt lat="45.89527" lon="6.20032">
        <ele>1039</ele>
        <time>2017-05-28T10:45:38.000Z</time>
      </trkpt>
      <trkpt lat="45.89526" lon="6.2003">
        <ele>1038.5999755859</ele>
        <time>2017-05-28T10:45:39.000Z</time>
      </trkpt>
      <trkpt lat="45.89525" lon="6.20029">
        <ele>1038.4000244141</ele>
        <time>2017-05-28T10:45:40.000Z</time>
      </trkpt>
      <trkpt lat="45.89525" lon="6.20028">
        <ele>1038</ele>
        <time>2017-05-28T10:45:41.000Z</time>
      </trkpt>
      <trkpt lat="45.89525" lon="6.20026">
        <ele>1037.5999755859</ele>
        <time>2017-05-28T10:45:42.000Z</time>
      </trkpt>
      <trkpt lat="45.89519" lon="6.20001">
        <ele>1034.8000488281</ele>
        <time>2017-05-28T10:45:58.000Z</time>
      </trkpt>
      <trkpt lat="45.8952" lon="6.19998">
        <ele>1033.8000488281</ele>
        <time>2017-05-28T10:46:00.000Z</time>
      </trkpt>
      <trkpt lat="45.89522" lon="6.1999">
        <ele>1032.5999755859</ele>
        <time>2017-05-28T10:46:08.000Z</time>
      </trkpt>
      <trkpt lat="45.89522" lon="6.19988">
        <ele>1032.1999511719</ele>
        <time>2017-05-28T10:46:09.000Z</time>
      </trkpt>
      <trkpt lat="45.89522" lon="6.19987">
        <ele>1031.5999755859</ele>
        <time>2017-05-28T10:46:10.000Z</time>
      </trkpt>
      <trkpt lat="45.89522" lon="6.19985">
        <ele>1030.1999511719</ele>
        <time>2017-05-28T10:46:12.000Z</time>
      </trkpt>
      <trkpt lat="45.89523" lon="6.19984">
        <ele>1029.4000244141</ele>
        <time>2017-05-28T10:46:14.000Z</time>
      </trkpt>
      <trkpt lat="45.89521" lon="6.19981">
        <ele>1029</ele>
        <time>2017-05-28T10:46:16.000Z</time>
      </trkpt>
      <trkpt lat="45.89516" lon="6.19973">
        <ele>1026.5999755859</ele>
        <time>2017-05-28T10:46:24.000Z</time>
      </trkpt>
      <trkpt lat="45.89517" lon="6.19972">
        <ele>1025.8000488281</ele>
        <time>2017-05-28T10:46:26.000Z</time>
      </trkpt>
      <trkpt lat="45.89512" lon="6.19968">
        <ele>1023.799987793</ele>
        <time>2017-05-28T10:46:30.000Z</time>
      </trkpt>
      <trkpt lat="45.89511" lon="6.19966">
        <ele>1023.4000244141</ele>
        <time>2017-05-28T10:46:31.000Z</time>
      </trkpt>
      <trkpt lat="45.8951" lon="6.19965">
        <ele>1023</ele>
        <time>2017-05-28T10:46:32.000Z</time>
      </trkpt>
      <trkpt lat="45.89508" lon="6.19963">
        <ele>1022.4000244141</ele>
        <time>2017-05-28T10:46:33.000Z</time>
      </trkpt>
      <trkpt lat="45.89506" lon="6.1996">
        <ele>1022</ele>
        <time>2017-05-28T10:46:34.000Z</time>
      </trkpt>
      <trkpt lat="45.895" lon="6.1995">
        <ele>1018.799987793</ele>
        <time>2017-05-28T10:46:39.000Z</time>
      </trkpt>
      <trkpt lat="45.89496" lon="6.19946">
        <ele>1017.200012207</ele>
        <time>2017-05-28T10:46:43.000Z</time>
      </trkpt>
      <trkpt lat="45.89496" lon="6.19943">
        <ele>1017</ele>
        <time>2017-05-28T10:46:44.000Z</time>
      </trkpt>
      <trkpt lat="45.89493" lon="6.1994">
        <ele>1016.4000244141</ele>
        <time>2017-05-28T10:46:45.000Z</time>
      </trkpt>
      <trkpt lat="45.89493" lon="6.19938">
        <ele>1016.200012207</ele>
        <time>2017-05-28T10:46:46.000Z</time>
      </trkpt>
      <trkpt lat="45.8949" lon="6.19935">
        <ele>1016</ele>
        <time>2017-05-28T10:46:47.000Z</time>
      </trkpt>
      <trkpt lat="45.89488" lon="6.19933">
        <ele>1015.5999755859</ele>
        <time>2017-05-28T10:46:48.000Z</time>
      </trkpt>
      <trkpt lat="45.89485" lon="6.1993">
        <ele>1015</ele>
        <time>2017-05-28T10:46:49.000Z</time>
      </trkpt>
      <trkpt lat="45.89483" lon="6.19928">
        <ele>1014.799987793</ele>
        <time>2017-05-28T10:46:50.000Z</time>
      </trkpt>
      <trkpt lat="45.89482" lon="6.19926">
        <ele>1014.200012207</ele>
        <time>2017-05-28T10:46:51.000Z</time>
      </trkpt>
      <trkpt lat="45.89482" lon="6.19925">
        <ele>1013.5999755859</ele>
        <time>2017-05-28T10:46:52.000Z</time>
      </trkpt>
      <trkpt lat="45.89482" lon="6.19925">
        <ele>1013.200012207</ele>
        <time>2017-05-28T10:46:54.000Z</time>
      </trkpt>
      <trkpt lat="45.89471" lon="6.19917">
        <ele>1013</ele>
        <time>2017-05-28T10:46:57.000Z</time>
      </trkpt>
      <trkpt lat="45.89469" lon="6.19915">
        <ele>1012.799987793</ele>
        <time>2017-05-28T10:46:58.000Z</time>
      </trkpt>
      <trkpt lat="45.89467" lon="6.19913">
        <ele>1012.5999755859</ele>
        <time>2017-05-28T10:46:59.000Z</time>
      </trkpt>
      <trkpt lat="45.89461" lon="6.19908">
        <ele>1011.4000244141</ele>
        <time>2017-05-28T10:47:03.000Z</time>
      </trkpt>
      <trkpt lat="45.89458" lon="6.19906">
        <ele>1011.4000244141</ele>
        <time>2017-05-28T10:47:04.000Z</time>
      </trkpt>
      <trkpt lat="45.89425" lon="6.19881">
        <ele>1009</ele>
        <time>2017-05-28T10:47:17.000Z</time>
      </trkpt>
      <trkpt lat="45.89398" lon="6.19847">
        <ele>1006</ele>
        <time>2017-05-28T10:47:30.000Z</time>
      </trkpt>
      <trkpt lat="45.89383" lon="6.1983">
        <ele>1003.200012207</ele>
        <time>2017-05-28T10:47:41.000Z</time>
      </trkpt>
      <trkpt lat="45.8938" lon="6.19829">
        <ele>1002.5999755859</ele>
        <time>2017-05-28T10:47:42.000Z</time>
      </trkpt>
      <trkpt lat="45.89379" lon="6.19828">
        <ele>1002.200012207</ele>
        <time>2017-05-28T10:47:43.000Z</time>
      </trkpt>
      <trkpt lat="45.89377" lon="6.19827">
        <ele>1001.799987793</ele>
        <time>2017-05-28T10:47:44.000Z</time>
      </trkpt>
      <trkpt lat="45.89375" lon="6.19825">
        <ele>1001.200012207</ele>
        <time>2017-05-28T10:47:45.000Z</time>
      </trkpt>
      <trkpt lat="45.89362" lon="6.19815">
        <ele>999</ele>
        <time>2017-05-28T10:47:52.000Z</time>
      </trkpt>
      <trkpt lat="45.89359" lon="6.19813">
        <ele>998.79998779297</ele>
        <time>2017-05-28T10:47:53.000Z</time>
      </trkpt>
      <trkpt lat="45.89331" lon="6.19785">
        <ele>996.79998779297</ele>
        <time>2017-05-28T10:48:06.000Z</time>
      </trkpt>
      <trkpt lat="45.89318" lon="6.19775">
        <ele>993.59997558594</ele>
        <time>2017-05-28T10:48:16.000Z</time>
      </trkpt>
      <trkpt lat="45.89312" lon="6.19773">
        <ele>993.40002441406</ele>
        <time>2017-05-28T10:48:17.000Z</time>
      </trkpt>
      <trkpt lat="45.89309" lon="6.19771">
        <ele>993.40002441406</ele>
        <time>2017-05-28T10:48:18.000Z</time>
      </trkpt>
      <trkpt lat="45.89309" lon="6.1977">
        <ele>993.20001220703</ele>
        <time>2017-05-28T10:48:19.000Z</time>
      </trkpt>
      <trkpt lat="45.89308" lon="6.19769">
        <ele>993</ele>
        <time>2017-05-28T10:48:20.000Z</time>
      </trkpt>
      <trkpt lat="45.89305" lon="6.19765">
        <ele>992.40002441406</ele>
        <time>2017-05-28T10:48:21.000Z</time>
      </trkpt>
      <trkpt lat="45.89304" lon="6.19762">
        <ele>992.20001220703</ele>
        <time>2017-05-28T10:48:22.000Z</time>
      </trkpt>
      <trkpt lat="45.89301" lon="6.19759">
        <ele>991.79998779297</ele>
        <time>2017-05-28T10:48:23.000Z</time>
      </trkpt>
      <trkpt lat="45.8929" lon="6.19738">
        <ele>993.59997558594</ele>
        <time>2017-05-28T10:48:45.000Z</time>
      </trkpt>
      <trkpt lat="45.8929" lon="6.19738">
        <ele>993.79998779297</ele>
        <time>2017-05-28T10:48:46.000Z</time>
      </trkpt>
      <trkpt lat="45.89288" lon="6.19734">
        <ele>994.40002441406</ele>
        <time>2017-05-28T10:48:51.000Z</time>
      </trkpt>
      <trkpt lat="45.89287" lon="6.19733">
        <ele>994.40002441406</ele>
        <time>2017-05-28T10:48:52.000Z</time>
      </trkpt>
      <trkpt lat="45.89284" lon="6.19731">
        <ele>994.79998779297</ele>
        <time>2017-05-28T10:48:55.000Z</time>
      </trkpt>
      <trkpt lat="45.89282" lon="6.19729">
        <ele>995</ele>
        <time>2017-05-28T10:48:56.000Z</time>
      </trkpt>
      <trkpt lat="45.89279" lon="6.19727">
        <ele>995</ele>
        <time>2017-05-28T10:48:57.000Z</time>
      </trkpt>
      <trkpt lat="45.89278" lon="6.19726">
        <ele>995</ele>
        <time>2017-05-28T10:48:58.000Z</time>
      </trkpt>
      <trkpt lat="45.89278" lon="6.19726">
        <ele>995.20001220703</ele>
        <time>2017-05-28T10:49:00.000Z</time>
      </trkpt>
      <trkpt lat="45.89274" lon="6.1972">
        <ele>996.20001220703</ele>
        <time>2017-05-28T10:49:06.000Z</time>
      </trkpt>
      <trkpt lat="45.89274" lon="6.19719">
        <ele>996.20001220703</ele>
        <time>2017-05-28T10:49:07.000Z</time>
      </trkpt>
      <trkpt lat="45.89274" lon="6.19718">
        <ele>996.20001220703</ele>
        <time>2017-05-28T10:49:08.000Z</time>
      </trkpt>
      <trkpt lat="45.89274" lon="6.19718">
        <ele>996.40002441406</ele>
        <time>2017-05-28T10:49:09.000Z</time>
      </trkpt>
      <trkpt lat="45.89273" lon="6.19717">
        <ele>996.40002441406</ele>
        <time>2017-05-28T10:49:10.000Z</time>
      </trkpt>
      <trkpt lat="45.8926" lon="6.19709">
        <ele>998.59997558594</ele>
        <time>2017-05-28T10:49:23.000Z</time>
      </trkpt>
      <trkpt lat="45.89239" lon="6.19685">
        <ele>1000.200012207</ele>
        <time>2017-05-28T10:49:38.000Z</time>
      </trkpt>
      <trkpt lat="45.89233" lon="6.1968">
        <ele>1001</ele>
        <time>2017-05-28T10:49:45.000Z</time>
      </trkpt>
      <trkpt lat="45.8923" lon="6.19676">
        <ele>1001.5999755859</ele>
        <time>2017-05-28T10:49:49.000Z</time>
      </trkpt>
      <trkpt lat="45.89229" lon="6.19675">
        <ele>1001.5999755859</ele>
        <time>2017-05-28T10:49:50.000Z</time>
      </trkpt>
      <trkpt lat="45.89228" lon="6.19675">
        <ele>1002</ele>
        <time>2017-05-28T10:49:51.000Z</time>
      </trkpt>
      <trkpt lat="45.89227" lon="6.19674">
        <ele>1002</ele>
        <time>2017-05-28T10:49:52.000Z</time>
      </trkpt>
      <trkpt lat="45.89226" lon="6.19672">
        <ele>1002</ele>
        <time>2017-05-28T10:49:53.000Z</time>
      </trkpt>
      <trkpt lat="45.89223" lon="6.19671">
        <ele>1002.200012207</ele>
        <time>2017-05-28T10:49:54.000Z</time>
      </trkpt>
      <trkpt lat="45.89222" lon="6.1967">
        <ele>1002.4000244141</ele>
        <time>2017-05-28T10:49:55.000Z</time>
      </trkpt>
      <trkpt lat="45.89221" lon="6.19668">
        <ele>1002.4000244141</ele>
        <time>2017-05-28T10:49:56.000Z</time>
      </trkpt>
      <trkpt lat="45.89196" lon="6.19641">
        <ele>1004.799987793</ele>
        <time>2017-05-28T10:50:14.000Z</time>
      </trkpt>
      <trkpt lat="45.89185" lon="6.19631">
        <ele>1006</ele>
        <time>2017-05-28T10:50:24.000Z</time>
      </trkpt>
      <trkpt lat="45.89183" lon="6.19631">
        <ele>1006.200012207</ele>
        <time>2017-05-28T10:50:25.000Z</time>
      </trkpt>
      <trkpt lat="45.89172" lon="6.19625">
        <ele>1006.799987793</ele>
        <time>2017-05-28T10:50:33.000Z</time>
      </trkpt>
      <trkpt lat="45.89168" lon="6.1962">
        <ele>1006.799987793</ele>
        <time>2017-05-28T10:50:34.000Z</time>
      </trkpt>
      <trkpt lat="45.89141" lon="6.19596">
        <ele>1009</ele>
        <time>2017-05-28T10:50:51.000Z</time>
      </trkpt>
      <trkpt lat="45.89123" lon="6.19577">
        <ele>1011.200012207</ele>
        <time>2017-05-28T10:51:08.000Z</time>
      </trkpt>
      <trkpt lat="45.89122" lon="6.19577">
        <ele>1011.4000244141</ele>
        <time>2017-05-28T10:51:10.000Z</time>
      </trkpt>
      <trkpt lat="45.89119" lon="6.19568">
        <ele>1012.200012207</ele>
        <time>2017-05-28T10:51:17.000Z</time>
      </trkpt>
      <trkpt lat="45.89117" lon="6.19565">
        <ele>1012.200012207</ele>
        <time>2017-05-28T10:51:18.000Z</time>
      </trkpt>
      <trkpt lat="45.89103" lon="6.19543">
        <ele>1014</ele>
        <time>2017-05-28T10:51:31.000Z</time>
      </trkpt>
      <trkpt lat="45.89102" lon="6.19541">
        <ele>1014</ele>
        <time>2017-05-28T10:51:32.000Z</time>
      </trkpt>
      <trkpt lat="45.89102" lon="6.1954">
        <ele>1014.200012207</ele>
        <time>2017-05-28T10:51:33.000Z</time>
      </trkpt>
      <trkpt lat="45.89088" lon="6.19515">
        <ele>1015.799987793</ele>
        <time>2017-05-28T10:51:45.000Z</time>
      </trkpt>
      <trkpt lat="45.89087" lon="6.19514">
        <ele>1015.799987793</ele>
        <time>2017-05-28T10:51:46.000Z</time>
      </trkpt>
      <trkpt lat="45.89078" lon="6.1948">
        <ele>1017.799987793</ele>
        <time>2017-05-28T10:52:05.000Z</time>
      </trkpt>
      <trkpt lat="45.89064" lon="6.19457">
        <ele>1019.4000244141</ele>
        <time>2017-05-28T10:52:21.000Z</time>
      </trkpt>
      <trkpt lat="45.89046" lon="6.19429">
        <ele>1020.5999755859</ele>
        <time>2017-05-28T10:52:34.000Z</time>
      </trkpt>
      <trkpt lat="45.89029" lon="6.19402">
        <ele>1022.4000244141</ele>
        <time>2017-05-28T10:52:48.000Z</time>
      </trkpt>
      <trkpt lat="45.89026" lon="6.19389">
        <ele>1023.4000244141</ele>
        <time>2017-05-28T10:52:56.000Z</time>
      </trkpt>
      <trkpt lat="45.89026" lon="6.19387">
        <ele>1023.4000244141</ele>
        <time>2017-05-28T10:52:57.000Z</time>
      </trkpt>
      <trkpt lat="45.89026" lon="6.19385">
        <ele>1023.4000244141</ele>
        <time>2017-05-28T10:52:58.000Z</time>
      </trkpt>
      <trkpt lat="45.89026" lon="6.19382">
        <ele>1023.4000244141</ele>
        <time>2017-05-28T10:52:59.000Z</time>
      </trkpt>
      <trkpt lat="45.89027" lon="6.1938">
        <ele>1023.4000244141</ele>
        <time>2017-05-28T10:53:00.000Z</time>
      </trkpt>
      <trkpt lat="45.89029" lon="6.19379">
        <ele>1023.200012207</ele>
        <time>2017-05-28T10:53:02.000Z</time>
      </trkpt>
      <trkpt lat="45.89052" lon="6.1938">
        <ele>1019.799987793</ele>
        <time>2017-05-28T10:53:15.000Z</time>
      </trkpt>
      <trkpt lat="45.89072" lon="6.19378">
        <ele>1017.5999755859</ele>
        <time>2017-05-28T10:53:23.000Z</time>
      </trkpt>
      <trkpt lat="45.89097" lon="6.19364">
        <ele>1016.5999755859</ele>
        <time>2017-05-28T10:53:35.000Z</time>
      </trkpt>
      <trkpt lat="45.89127" lon="6.19347">
        <ele>1016.799987793</ele>
        <time>2017-05-28T10:53:50.000Z</time>
      </trkpt>
      <trkpt lat="45.89149" lon="6.19334">
        <ele>1019.799987793</ele>
        <time>2017-05-28T10:54:06.000Z</time>
      </trkpt>
      <trkpt lat="45.89154" lon="6.19331">
        <ele>1020.200012207</ele>
        <time>2017-05-28T10:54:08.000Z</time>
      </trkpt>
      <trkpt lat="45.89161" lon="6.19324">
        <ele>1021.4000244141</ele>
        <time>2017-05-28T10:54:13.000Z</time>
      </trkpt>
      <trkpt lat="45.89162" lon="6.19324">
        <ele>1021.5999755859</ele>
        <time>2017-05-28T10:54:14.000Z</time>
      </trkpt>
      <trkpt lat="45.89176" lon="6.19324">
        <ele>1024.8000488281</ele>
        <time>2017-05-28T10:54:28.000Z</time>
      </trkpt>
      <trkpt lat="45.89177" lon="6.19322">
        <ele>1025</ele>
        <time>2017-05-28T10:54:29.000Z</time>
      </trkpt>
      <trkpt lat="45.89182" lon="6.19311">
        <ele>1027</ele>
        <time>2017-05-28T10:54:38.000Z</time>
      </trkpt>
      <trkpt lat="45.89184" lon="6.19309">
        <ele>1027.1999511719</ele>
        <time>2017-05-28T10:54:39.000Z</time>
      </trkpt>
      <trkpt lat="45.89194" lon="6.19299">
        <ele>1029.8000488281</ele>
        <time>2017-05-28T10:54:52.000Z</time>
      </trkpt>
      <trkpt lat="45.89195" lon="6.19298">
        <ele>1030.1999511719</ele>
        <time>2017-05-28T10:54:55.000Z</time>
      </trkpt>
      <trkpt lat="45.89196" lon="6.19297">
        <ele>1030.5999755859</ele>
        <time>2017-05-28T10:54:56.000Z</time>
      </trkpt>
      <trkpt lat="45.89196" lon="6.19297">
        <ele>1030.8000488281</ele>
        <time>2017-05-28T10:54:57.000Z</time>
      </trkpt>
      <trkpt lat="45.89197" lon="6.19297">
        <ele>1031</ele>
        <time>2017-05-28T10:54:58.000Z</time>
      </trkpt>
      <trkpt lat="45.89197" lon="6.19296">
        <ele>1031.4000244141</ele>
        <time>2017-05-28T10:54:59.000Z</time>
      </trkpt>
      <trkpt lat="45.89207" lon="6.19299">
        <ele>1032.5999755859</ele>
        <time>2017-05-28T10:55:09.000Z</time>
      </trkpt>
      <trkpt lat="45.89208" lon="6.19298">
        <ele>1032.5999755859</ele>
        <time>2017-05-28T10:55:10.000Z</time>
      </trkpt>
      <trkpt lat="45.89209" lon="6.19298">
        <ele>1032.8000488281</ele>
        <time>2017-05-28T10:55:11.000Z</time>
      </trkpt>
      <trkpt lat="45.89215" lon="6.19296">
        <ele>1033.5999755859</ele>
        <time>2017-05-28T10:55:18.000Z</time>
      </trkpt>
      <trkpt lat="45.89217" lon="6.19293">
        <ele>1034</ele>
        <time>2017-05-28T10:55:20.000Z</time>
      </trkpt>
      <trkpt lat="45.89219" lon="6.19293">
        <ele>1034.1999511719</ele>
        <time>2017-05-28T10:55:21.000Z</time>
      </trkpt>
      <trkpt lat="45.89219" lon="6.19293">
        <ele>1034.4000244141</ele>
        <time>2017-05-28T10:55:22.000Z</time>
      </trkpt>
      <trkpt lat="45.89224" lon="6.19293">
        <ele>1034.5999755859</ele>
        <time>2017-05-28T10:55:26.000Z</time>
      </trkpt>
      <trkpt lat="45.89225" lon="6.19293">
        <ele>1034.5999755859</ele>
        <time>2017-05-28T10:55:27.000Z</time>
      </trkpt>
      <trkpt lat="45.89227" lon="6.19292">
        <ele>1034.8000488281</ele>
        <time>2017-05-28T10:55:28.000Z</time>
      </trkpt>
      <trkpt lat="45.89228" lon="6.19292">
        <ele>1035</ele>
        <time>2017-05-28T10:55:29.000Z</time>
      </trkpt>
      <trkpt lat="45.89229" lon="6.19292">
        <ele>1035</ele>
        <time>2017-05-28T10:55:30.000Z</time>
      </trkpt>
      <trkpt lat="45.89247" lon="6.19283">
        <ele>1037</ele>
        <time>2017-05-28T10:55:44.000Z</time>
      </trkpt>
      <trkpt lat="45.89249" lon="6.19282">
        <ele>1037.5999755859</ele>
        <time>2017-05-28T10:55:46.000Z</time>
      </trkpt>
      <trkpt lat="45.8926" lon="6.19267">
        <ele>1040.5999755859</ele>
        <time>2017-05-28T10:55:59.000Z</time>
      </trkpt>
      <trkpt lat="45.89262" lon="6.19265">
        <ele>1041</ele>
        <time>2017-05-28T10:56:01.000Z</time>
      </trkpt>
      <trkpt lat="45.89263" lon="6.19264">
        <ele>1041.1999511719</ele>
        <time>2017-05-28T10:56:02.000Z</time>
      </trkpt>
      <trkpt lat="45.89266" lon="6.19261">
        <ele>1041.5999755859</ele>
        <time>2017-05-28T10:56:05.000Z</time>
      </trkpt>
      <trkpt lat="45.89266" lon="6.1926">
        <ele>1041.8000488281</ele>
        <time>2017-05-28T10:56:06.000Z</time>
      </trkpt>
      <trkpt lat="45.89272" lon="6.19257">
        <ele>1044.1999511719</ele>
        <time>2017-05-28T10:56:15.000Z</time>
      </trkpt>
      <trkpt lat="45.8927" lon="6.19249">
        <ele>1047.1999511719</ele>
        <time>2017-05-28T10:56:28.000Z</time>
      </trkpt>
      <trkpt lat="45.89268" lon="6.19247">
        <ele>1048</ele>
        <time>2017-05-28T10:56:33.000Z</time>
      </trkpt>
      <trkpt lat="45.89266" lon="6.19245">
        <ele>1048.8000488281</ele>
        <time>2017-05-28T10:56:37.000Z</time>
      </trkpt>
      <trkpt lat="45.8926" lon="6.19242">
        <ele>1049.4000244141</ele>
        <time>2017-05-28T10:56:43.000Z</time>
      </trkpt>
      <trkpt lat="45.89257" lon="6.19241">
        <ele>1049.8000488281</ele>
        <time>2017-05-28T10:56:46.000Z</time>
      </trkpt>
      <trkpt lat="45.89256" lon="6.19241">
        <ele>1049.8000488281</ele>
        <time>2017-05-28T10:56:47.000Z</time>
      </trkpt>
      <trkpt lat="45.89253" lon="6.1924">
        <ele>1050</ele>
        <time>2017-05-28T10:56:49.000Z</time>
      </trkpt>
      <trkpt lat="45.89252" lon="6.19238">
        <ele>1050.4000244141</ele>
        <time>2017-05-28T10:56:51.000Z</time>
      </trkpt>
      <trkpt lat="45.89251" lon="6.19237">
        <ele>1050.8000488281</ele>
        <time>2017-05-28T10:56:52.000Z</time>
      </trkpt>
      <trkpt lat="45.89246" lon="6.19243">
        <ele>1051.5999755859</ele>
        <time>2017-05-28T10:56:58.000Z</time>
      </trkpt>
      <trkpt lat="45.89244" lon="6.19243">
        <ele>1051.4000244141</ele>
        <time>2017-05-28T10:56:59.000Z</time>
      </trkpt>
      <trkpt lat="45.89242" lon="6.19244">
        <ele>1051.4000244141</ele>
        <time>2017-05-28T10:57:00.000Z</time>
      </trkpt>
      <trkpt lat="45.8924" lon="6.19244">
        <ele>1051.1999511719</ele>
        <time>2017-05-28T10:57:01.000Z</time>
      </trkpt>
      <trkpt lat="45.89238" lon="6.19243">
        <ele>1051</ele>
        <time>2017-05-28T10:57:02.000Z</time>
      </trkpt>
      <trkpt lat="45.89236" lon="6.19243">
        <ele>1051.1999511719</ele>
        <time>2017-05-28T10:57:03.000Z</time>
      </trkpt>
      <trkpt lat="45.89234" lon="6.19243">
        <ele>1051.5999755859</ele>
        <time>2017-05-28T10:57:04.000Z</time>
      </trkpt>
      <trkpt lat="45.89233" lon="6.19242">
        <ele>1052</ele>
        <time>2017-05-28T10:57:05.000Z</time>
      </trkpt>
      <trkpt lat="45.89232" lon="6.19241">
        <ele>1052.1999511719</ele>
        <time>2017-05-28T10:57:06.000Z</time>
      </trkpt>
      <trkpt lat="45.8923" lon="6.1924">
        <ele>1052.5999755859</ele>
        <time>2017-05-28T10:57:07.000Z</time>
      </trkpt>
      <trkpt lat="45.8923" lon="6.19241">
        <ele>1052.8000488281</ele>
        <time>2017-05-28T10:57:08.000Z</time>
      </trkpt>
      <trkpt lat="45.89229" lon="6.19242">
        <ele>1053</ele>
        <time>2017-05-28T10:57:09.000Z</time>
      </trkpt>
      <trkpt lat="45.89228" lon="6.19242">
        <ele>1053.1999511719</ele>
        <time>2017-05-28T10:57:10.000Z</time>
      </trkpt>
      <trkpt lat="45.89227" lon="6.19243">
        <ele>1053.5999755859</ele>
        <time>2017-05-28T10:57:11.000Z</time>
      </trkpt>
      <trkpt lat="45.89226" lon="6.19242">
        <ele>1053.8000488281</ele>
        <time>2017-05-28T10:57:12.000Z</time>
      </trkpt>
      <trkpt lat="45.89226" lon="6.19242">
        <ele>1054.1999511719</ele>
        <time>2017-05-28T10:57:13.000Z</time>
      </trkpt>
      <trkpt lat="45.89226" lon="6.19239">
        <ele>1056</ele>
        <time>2017-05-28T10:57:18.000Z</time>
      </trkpt>
      <trkpt lat="45.89226" lon="6.19237">
        <ele>1056.4000244141</ele>
        <time>2017-05-28T10:57:19.000Z</time>
      </trkpt>
      <trkpt lat="45.89227" lon="6.19236">
        <ele>1056.5999755859</ele>
        <time>2017-05-28T10:57:20.000Z</time>
      </trkpt>
      <trkpt lat="45.89228" lon="6.19235">
        <ele>1056.5999755859</ele>
        <time>2017-05-28T10:57:21.000Z</time>
      </trkpt>
      <trkpt lat="45.89228" lon="6.19234">
        <ele>1056.5999755859</ele>
        <time>2017-05-28T10:57:22.000Z</time>
      </trkpt>
      <trkpt lat="45.89233" lon="6.19228">
        <ele>1058.1999511719</ele>
        <time>2017-05-28T10:57:29.000Z</time>
      </trkpt>
      <trkpt lat="45.89233" lon="6.19226">
        <ele>1058.4000244141</ele>
        <time>2017-05-28T10:57:30.000Z</time>
      </trkpt>
      <trkpt lat="45.89231" lon="6.19214">
        <ele>1060.4000244141</ele>
        <time>2017-05-28T10:57:40.000Z</time>
      </trkpt>
      <trkpt lat="45.89228" lon="6.1922">
        <ele>1063.4000244141</ele>
        <time>2017-05-28T10:57:55.000Z</time>
      </trkpt>
      <trkpt lat="45.89221" lon="6.19219">
        <ele>1064.4000244141</ele>
        <time>2017-05-28T10:58:04.000Z</time>
      </trkpt>
      <trkpt lat="45.8922" lon="6.19219">
        <ele>1064.5999755859</ele>
        <time>2017-05-28T10:58:05.000Z</time>
      </trkpt>
      <trkpt lat="45.89219" lon="6.19219">
        <ele>1064.5999755859</ele>
        <time>2017-05-28T10:58:06.000Z</time>
      </trkpt>
      <trkpt lat="45.89217" lon="6.19218">
        <ele>1065</ele>
        <time>2017-05-28T10:58:07.000Z</time>
      </trkpt>
      <trkpt lat="45.89216" lon="6.19218">
        <ele>1065.1999511719</ele>
        <time>2017-05-28T10:58:08.000Z</time>
      </trkpt>
      <trkpt lat="45.89215" lon="6.19217">
        <ele>1065.4000244141</ele>
        <time>2017-05-28T10:58:09.000Z</time>
      </trkpt>
      <trkpt lat="45.89213" lon="6.19217">
        <ele>1065.8000488281</ele>
        <time>2017-05-28T10:58:10.000Z</time>
      </trkpt>
      <trkpt lat="45.89203" lon="6.1922">
        <ele>1067.5999755859</ele>
        <time>2017-05-28T10:58:19.000Z</time>
      </trkpt>
      <trkpt lat="45.89201" lon="6.1922">
        <ele>1067.8000488281</ele>
        <time>2017-05-28T10:58:21.000Z</time>
      </trkpt>
      <trkpt lat="45.89185" lon="6.19223">
        <ele>1070.8000488281</ele>
        <time>2017-05-28T10:58:38.000Z</time>
      </trkpt>
      <trkpt lat="45.8918" lon="6.19221">
        <ele>1071.8000488281</ele>
        <time>2017-05-28T10:58:44.000Z</time>
      </trkpt>
      <trkpt lat="45.89175" lon="6.1922">
        <ele>1072.4000244141</ele>
        <time>2017-05-28T10:58:48.000Z</time>
      </trkpt>
      <trkpt lat="45.89164" lon="6.19219">
        <ele>1074.4000244141</ele>
        <time>2017-05-28T10:58:59.000Z</time>
      </trkpt>
      <trkpt lat="45.89162" lon="6.19217">
        <ele>1075.1999511719</ele>
        <time>2017-05-28T10:59:01.000Z</time>
      </trkpt>
      <trkpt lat="45.8915" lon="6.1921">
        <ele>1078.1999511719</ele>
        <time>2017-05-28T10:59:16.000Z</time>
      </trkpt>
      <trkpt lat="45.89147" lon="6.19208">
        <ele>1079</ele>
        <time>2017-05-28T10:59:20.000Z</time>
      </trkpt>
      <trkpt lat="45.89145" lon="6.19208">
        <ele>1079.1999511719</ele>
        <time>2017-05-28T10:59:21.000Z</time>
      </trkpt>
      <trkpt lat="45.89144" lon="6.19207">
        <ele>1079.4000244141</ele>
        <time>2017-05-28T10:59:22.000Z</time>
      </trkpt>
      <trkpt lat="45.89133" lon="6.19206">
        <ele>1081.5999755859</ele>
        <time>2017-05-28T10:59:34.000Z</time>
      </trkpt>
      <trkpt lat="45.8913" lon="6.19209">
        <ele>1082.8000488281</ele>
        <time>2017-05-28T10:59:43.000Z</time>
      </trkpt>
      <trkpt lat="45.89126" lon="6.19209">
        <ele>1083</ele>
        <time>2017-05-28T10:59:46.000Z</time>
      </trkpt>
      <trkpt lat="45.89124" lon="6.19209">
        <ele>1083.1999511719</ele>
        <time>2017-05-28T10:59:48.000Z</time>
      </trkpt>
      <trkpt lat="45.89122" lon="6.19208">
        <ele>1083.5999755859</ele>
        <time>2017-05-28T10:59:49.000Z</time>
      </trkpt>
      <trkpt lat="45.89118" lon="6.19208">
        <ele>1084.4000244141</ele>
        <time>2017-05-28T10:59:53.000Z</time>
      </trkpt>
      <trkpt lat="45.89114" lon="6.19208">
        <ele>1085.4000244141</ele>
        <time>2017-05-28T10:59:57.000Z</time>
      </trkpt>
      <trkpt lat="45.89113" lon="6.19208">
        <ele>1085.5999755859</ele>
        <time>2017-05-28T10:59:58.000Z</time>
      </trkpt>
      <trkpt lat="45.89099" lon="6.19202">
        <ele>1088.5999755859</ele>
        <time>2017-05-28T11:00:14.000Z</time>
      </trkpt>
      <trkpt lat="45.8909" lon="6.19198">
        <ele>1091.5999755859</ele>
        <time>2017-05-28T11:00:30.000Z</time>
      </trkpt>
      <trkpt lat="45.89085" lon="6.19198">
        <ele>1092.4000244141</ele>
        <time>2017-05-28T11:00:34.000Z</time>
      </trkpt>
      <trkpt lat="45.89084" lon="6.19198">
        <ele>1092.4000244141</ele>
        <time>2017-05-28T11:00:35.000Z</time>
      </trkpt>
      <trkpt lat="45.89083" lon="6.19199">
        <ele>1092.8000488281</ele>
        <time>2017-05-28T11:00:36.000Z</time>
      </trkpt>
      <trkpt lat="45.89079" lon="6.19197">
        <ele>1093.8000488281</ele>
        <time>2017-05-28T11:00:40.000Z</time>
      </trkpt>
      <trkpt lat="45.89076" lon="6.19194">
        <ele>1095</ele>
        <time>2017-05-28T11:00:43.000Z</time>
      </trkpt>
      <trkpt lat="45.89075" lon="6.19192">
        <ele>1095.4000244141</ele>
        <time>2017-05-28T11:00:44.000Z</time>
      </trkpt>
      <trkpt lat="45.89074" lon="6.19191">
        <ele>1095.5999755859</ele>
        <time>2017-05-28T11:00:45.000Z</time>
      </trkpt>
      <trkpt lat="45.89073" lon="6.19188">
        <ele>1096.4000244141</ele>
        <time>2017-05-28T11:00:48.000Z</time>
      </trkpt>
      <trkpt lat="45.89069" lon="6.19184">
        <ele>1097.8000488281</ele>
        <time>2017-05-28T11:00:53.000Z</time>
      </trkpt>
      <trkpt lat="45.89069" lon="6.19177">
        <ele>1100.5999755859</ele>
        <time>2017-05-28T11:01:04.000Z</time>
      </trkpt>
      <trkpt lat="45.89063" lon="6.19163">
        <ele>1102.5999755859</ele>
        <time>2017-05-28T11:01:16.000Z</time>
      </trkpt>
      <trkpt lat="45.89065" lon="6.1916">
        <ele>1103</ele>
        <time>2017-05-28T11:01:19.000Z</time>
      </trkpt>
      <trkpt lat="45.89066" lon="6.19159">
        <ele>1103.4000244141</ele>
        <time>2017-05-28T11:01:20.000Z</time>
      </trkpt>
      <trkpt lat="45.89072" lon="6.19145">
        <ele>1106.4000244141</ele>
        <time>2017-05-28T11:01:36.000Z</time>
      </trkpt>
      <trkpt lat="45.89076" lon="6.19141">
        <ele>1109.4000244141</ele>
        <time>2017-05-28T11:01:48.000Z</time>
      </trkpt>
      <trkpt lat="45.89087" lon="6.19132">
        <ele>1112.5999755859</ele>
        <time>2017-05-28T11:02:05.000Z</time>
      </trkpt>
      <trkpt lat="45.89094" lon="6.1913">
        <ele>1114</ele>
        <time>2017-05-28T11:02:12.000Z</time>
      </trkpt>
      <trkpt lat="45.89097" lon="6.19124">
        <ele>1115.1999511719</ele>
        <time>2017-05-28T11:02:19.000Z</time>
      </trkpt>
      <trkpt lat="45.8909" lon="6.19117">
        <ele>1117</ele>
        <time>2017-05-28T11:02:28.000Z</time>
      </trkpt>
      <trkpt lat="45.89089" lon="6.19116">
        <ele>1117.1999511719</ele>
        <time>2017-05-28T11:02:29.000Z</time>
      </trkpt>
      <trkpt lat="45.89089" lon="6.19115">
        <ele>1117.4000244141</ele>
        <time>2017-05-28T11:02:30.000Z</time>
      </trkpt>
      <trkpt lat="45.89088" lon="6.19112">
        <ele>1117.8000488281</ele>
        <time>2017-05-28T11:02:32.000Z</time>
      </trkpt>
      <trkpt lat="45.89087" lon="6.19111">
        <ele>1117.8000488281</ele>
        <time>2017-05-28T11:02:33.000Z</time>
      </trkpt>
      <trkpt lat="45.89086" lon="6.19108">
        <ele>1118.1999511719</ele>
        <time>2017-05-28T11:02:35.000Z</time>
      </trkpt>
      <trkpt lat="45.89088" lon="6.19105">
        <ele>1119.1999511719</ele>
        <time>2017-05-28T11:02:39.000Z</time>
      </trkpt>
      <trkpt lat="45.89091" lon="6.19103">
        <ele>1119.8000488281</ele>
        <time>2017-05-28T11:02:43.000Z</time>
      </trkpt>
      <trkpt lat="45.89099" lon="6.19102">
        <ele>1122.1999511719</ele>
        <time>2017-05-28T11:02:57.000Z</time>
      </trkpt>
      <trkpt lat="45.89098" lon="6.19101">
        <ele>1122.5999755859</ele>
        <time>2017-05-28T11:02:59.000Z</time>
      </trkpt>
      <trkpt lat="45.89097" lon="6.191">
        <ele>1122.8000488281</ele>
        <time>2017-05-28T11:03:00.000Z</time>
      </trkpt>
      <trkpt lat="45.89098" lon="6.19095">
        <ele>1125.4000244141</ele>
        <time>2017-05-28T11:03:13.000Z</time>
      </trkpt>
      <trkpt lat="45.89099" lon="6.19094">
        <ele>1125.5999755859</ele>
        <time>2017-05-28T11:03:14.000Z</time>
      </trkpt>
      <trkpt lat="45.891" lon="6.19081">
        <ele>1127.8000488281</ele>
        <time>2017-05-28T11:03:27.000Z</time>
      </trkpt>
      <trkpt lat="45.89104" lon="6.19082">
        <ele>1129.4000244141</ele>
        <time>2017-05-28T11:03:33.000Z</time>
      </trkpt>
      <trkpt lat="45.8911" lon="6.19085">
        <ele>1129.8000488281</ele>
        <time>2017-05-28T11:03:39.000Z</time>
      </trkpt>
      <trkpt lat="45.89111" lon="6.19086">
        <ele>1130.1999511719</ele>
        <time>2017-05-28T11:03:40.000Z</time>
      </trkpt>
      <trkpt lat="45.89116" lon="6.19084">
        <ele>1132.4000244141</ele>
        <time>2017-05-28T11:03:50.000Z</time>
      </trkpt>
      <trkpt lat="45.89117" lon="6.19082">
        <ele>1133.5999755859</ele>
        <time>2017-05-28T11:03:58.000Z</time>
      </trkpt>
      <trkpt lat="45.89113" lon="6.19084">
        <ele>1135.8000488281</ele>
        <time>2017-05-28T11:04:08.000Z</time>
      </trkpt>
      <trkpt lat="45.89112" lon="6.19084">
        <ele>1136</ele>
        <time>2017-05-28T11:04:09.000Z</time>
      </trkpt>
      <trkpt lat="45.89111" lon="6.19084">
        <ele>1136.4000244141</ele>
        <time>2017-05-28T11:04:11.000Z</time>
      </trkpt>
      <trkpt lat="45.8911" lon="6.19084">
        <ele>1136.5999755859</ele>
        <time>2017-05-28T11:04:12.000Z</time>
      </trkpt>
      <trkpt lat="45.8911" lon="6.19082">
        <ele>1136.8000488281</ele>
        <time>2017-05-28T11:04:13.000Z</time>
      </trkpt>
      <trkpt lat="45.89109" lon="6.19082">
        <ele>1137</ele>
        <time>2017-05-28T11:04:14.000Z</time>
      </trkpt>
      <trkpt lat="45.89108" lon="6.19081">
        <ele>1137.4000244141</ele>
        <time>2017-05-28T11:04:17.000Z</time>
      </trkpt>
      <trkpt lat="45.89107" lon="6.1908">
        <ele>1137.4000244141</ele>
        <time>2017-05-28T11:04:18.000Z</time>
      </trkpt>
      <trkpt lat="45.89099" lon="6.19075">
        <ele>1140.5999755859</ele>
        <time>2017-05-28T11:04:34.000Z</time>
      </trkpt>
      <trkpt lat="45.89096" lon="6.19073">
        <ele>1141</ele>
        <time>2017-05-28T11:04:36.000Z</time>
      </trkpt>
      <trkpt lat="45.89095" lon="6.19072">
        <ele>1141</ele>
        <time>2017-05-28T11:04:37.000Z</time>
      </trkpt>
      <trkpt lat="45.89085" lon="6.19063">
        <ele>1142.8000488281</ele>
        <time>2017-05-28T11:04:47.000Z</time>
      </trkpt>
      <trkpt lat="45.89084" lon="6.19062">
        <ele>1143</ele>
        <time>2017-05-28T11:04:48.000Z</time>
      </trkpt>
      <trkpt lat="45.89083" lon="6.19063">
        <ele>1143.4000244141</ele>
        <time>2017-05-28T11:04:50.000Z</time>
      </trkpt>
      <trkpt lat="45.8908" lon="6.19064">
        <ele>1144.1999511719</ele>
        <time>2017-05-28T11:04:54.000Z</time>
      </trkpt>
      <trkpt lat="45.89074" lon="6.19066">
        <ele>1147.1999511719</ele>
        <time>2017-05-28T11:05:13.000Z</time>
      </trkpt>
      <trkpt lat="45.89069" lon="6.19061">
        <ele>1150.1999511719</ele>
        <time>2017-05-28T11:05:29.000Z</time>
      </trkpt>
      <trkpt lat="45.89063" lon="6.19051">
        <ele>1153.4000244141</ele>
        <time>2017-05-28T11:05:44.000Z</time>
      </trkpt>
      <trkpt lat="45.8906" lon="6.19046">
        <ele>1156.5999755859</ele>
        <time>2017-05-28T11:06:03.000Z</time>
      </trkpt>
      <trkpt lat="45.8906" lon="6.19051">
        <ele>1159.5999755859</ele>
        <time>2017-05-28T11:06:19.000Z</time>
      </trkpt>
      <trkpt lat="45.8906" lon="6.19051">
        <ele>1160.5999755859</ele>
        <time>2017-05-28T11:06:23.000Z</time>
      </trkpt>
      <trkpt lat="45.89058" lon="6.19042">
        <ele>1162</ele>
        <time>2017-05-28T11:06:34.000Z</time>
      </trkpt>
      <trkpt lat="45.8906" lon="6.19045">
        <ele>1162.5999755859</ele>
        <time>2017-05-28T11:06:38.000Z</time>
      </trkpt>
      <trkpt lat="45.8906" lon="6.19045">
        <ele>1162.8000488281</ele>
        <time>2017-05-28T11:06:39.000Z</time>
      </trkpt>
      <trkpt lat="45.89071" lon="6.19053">
        <ele>1165.8000488281</ele>
        <time>2017-05-28T11:06:58.000Z</time>
      </trkpt>
      <trkpt lat="45.89076" lon="6.19055">
        <ele>1168.8000488281</ele>
        <time>2017-05-28T11:07:11.000Z</time>
      </trkpt>
      <trkpt lat="45.89079" lon="6.19046">
        <ele>1172</ele>
        <time>2017-05-28T11:07:28.000Z</time>
      </trkpt>
      <trkpt lat="45.89087" lon="6.1904">
        <ele>1175</ele>
        <time>2017-05-28T11:07:38.000Z</time>
      </trkpt>
      <trkpt lat="45.89087" lon="6.19039">
        <ele>1175.4000244141</ele>
        <time>2017-05-28T11:07:39.000Z</time>
      </trkpt>
      <trkpt lat="45.89088" lon="6.19024">
        <ele>1178.4000244141</ele>
        <time>2017-05-28T11:07:51.000Z</time>
      </trkpt>
      <trkpt lat="45.89082" lon="6.19013">
        <ele>1179.1999511719</ele>
        <time>2017-05-28T11:07:59.000Z</time>
      </trkpt>
      <trkpt lat="45.89086" lon="6.19004">
        <ele>1182.1999511719</ele>
        <time>2017-05-28T11:08:12.000Z</time>
      </trkpt>
      <trkpt lat="45.89092" lon="6.18993">
        <ele>1185.1999511719</ele>
        <time>2017-05-28T11:08:26.000Z</time>
      </trkpt>
      <trkpt lat="45.89097" lon="6.18977">
        <ele>1188.4000244141</ele>
        <time>2017-05-28T11:08:54.000Z</time>
      </trkpt>
      <trkpt lat="45.891" lon="6.1897">
        <ele>1191.5999755859</ele>
        <time>2017-05-28T11:09:08.000Z</time>
      </trkpt>
      <trkpt lat="45.89104" lon="6.18969">
        <ele>1194.5999755859</ele>
        <time>2017-05-28T11:09:24.000Z</time>
      </trkpt>
      <trkpt lat="45.89109" lon="6.18964">
        <ele>1197.5999755859</ele>
        <time>2017-05-28T11:09:37.000Z</time>
      </trkpt>
      <trkpt lat="45.89116" lon="6.18958">
        <ele>1200.8000488281</ele>
        <time>2017-05-28T11:09:53.000Z</time>
      </trkpt>
      <trkpt lat="45.89127" lon="6.18953">
        <ele>1201.5999755859</ele>
        <time>2017-05-28T11:10:58.000Z</time>
      </trkpt>
      <trkpt lat="45.89134" lon="6.18954">
        <ele>1203</ele>
        <time>2017-05-28T11:11:05.000Z</time>
      </trkpt>
      <trkpt lat="45.89134" lon="6.18955">
        <ele>1203.4000244141</ele>
        <time>2017-05-28T11:11:06.000Z</time>
      </trkpt>
      <trkpt lat="45.89139" lon="6.18964">
        <ele>1206.5999755859</ele>
        <time>2017-05-28T11:11:21.000Z</time>
      </trkpt>
      <trkpt lat="45.89144" lon="6.18961">
        <ele>1208.5999755859</ele>
        <time>2017-05-28T11:11:29.000Z</time>
      </trkpt>
      <trkpt lat="45.89145" lon="6.1896">
        <ele>1208.8000488281</ele>
        <time>2017-05-28T11:11:30.000Z</time>
      </trkpt>
      <trkpt lat="45.89148" lon="6.18956">
        <ele>1210.1999511719</ele>
        <time>2017-05-28T11:11:37.000Z</time>
      </trkpt>
      <trkpt lat="45.89148" lon="6.18955">
        <ele>1210.1999511719</ele>
        <time>2017-05-28T11:11:38.000Z</time>
      </trkpt>
      <trkpt lat="45.89149" lon="6.18954">
        <ele>1210.4000244141</ele>
        <time>2017-05-28T11:11:39.000Z</time>
      </trkpt>
      <trkpt lat="45.89159" lon="6.18946">
        <ele>1213.4000244141</ele>
        <time>2017-05-28T11:11:55.000Z</time>
      </trkpt>
      <trkpt lat="45.89176" lon="6.18941">
        <ele>1215.5999755859</ele>
        <time>2017-05-28T11:12:14.000Z</time>
      </trkpt>
      <trkpt lat="45.8918" lon="6.18942">
        <ele>1215.4000244141</ele>
        <time>2017-05-28T11:12:17.000Z</time>
      </trkpt>
      <trkpt lat="45.89181" lon="6.18941">
        <ele>1215.4000244141</ele>
        <time>2017-05-28T11:12:18.000Z</time>
      </trkpt>
      <trkpt lat="45.89182" lon="6.18939">
        <ele>1215.4000244141</ele>
        <time>2017-05-28T11:12:19.000Z</time>
      </trkpt>
      <trkpt lat="45.89184" lon="6.18939">
        <ele>1215.5999755859</ele>
        <time>2017-05-28T11:12:20.000Z</time>
      </trkpt>
      <trkpt lat="45.89185" lon="6.18938">
        <ele>1215.8000488281</ele>
        <time>2017-05-28T11:12:21.000Z</time>
      </trkpt>
      <trkpt lat="45.89186" lon="6.18937">
        <ele>1216</ele>
        <time>2017-05-28T11:12:22.000Z</time>
      </trkpt>
      <trkpt lat="45.89187" lon="6.18935">
        <ele>1216</ele>
        <time>2017-05-28T11:12:23.000Z</time>
      </trkpt>
      <trkpt lat="45.89188" lon="6.18934">
        <ele>1216.1999511719</ele>
        <time>2017-05-28T11:12:24.000Z</time>
      </trkpt>
      <trkpt lat="45.89189" lon="6.18933">
        <ele>1216.1999511719</ele>
        <time>2017-05-28T11:12:25.000Z</time>
      </trkpt>
      <trkpt lat="45.8919" lon="6.18933">
        <ele>1216.1999511719</ele>
        <time>2017-05-28T11:12:26.000Z</time>
      </trkpt>
      <trkpt lat="45.89191" lon="6.18932">
        <ele>1216.1999511719</ele>
        <time>2017-05-28T11:12:27.000Z</time>
      </trkpt>
      <trkpt lat="45.89193" lon="6.18931">
        <ele>1216</ele>
        <time>2017-05-28T11:12:28.000Z</time>
      </trkpt>
      <trkpt lat="45.89194" lon="6.1893">
        <ele>1215.8000488281</ele>
        <time>2017-05-28T11:12:29.000Z</time>
      </trkpt>
      <trkpt lat="45.89195" lon="6.18929">
        <ele>1215.5999755859</ele>
        <time>2017-05-28T11:12:30.000Z</time>
      </trkpt>
      <trkpt lat="45.89196" lon="6.18928">
        <ele>1215.4000244141</ele>
        <time>2017-05-28T11:12:31.000Z</time>
      </trkpt>
      <trkpt lat="45.89205" lon="6.18921">
        <ele>1215.1999511719</ele>
        <time>2017-05-28T11:12:40.000Z</time>
      </trkpt>
      <trkpt lat="45.89206" lon="6.18921">
        <ele>1214.8000488281</ele>
        <time>2017-05-28T11:12:41.000Z</time>
      </trkpt>
      <trkpt lat="45.89207" lon="6.1892">
        <ele>1214.5999755859</ele>
        <time>2017-05-28T11:12:42.000Z</time>
      </trkpt>
      <trkpt lat="45.89208" lon="6.1892">
        <ele>1214.5999755859</ele>
        <time>2017-05-28T11:12:43.000Z</time>
      </trkpt>
      <trkpt lat="45.89209" lon="6.18919">
        <ele>1214.8000488281</ele>
        <time>2017-05-28T11:12:44.000Z</time>
      </trkpt>
      <trkpt lat="45.8921" lon="6.18919">
        <ele>1214.8000488281</ele>
        <time>2017-05-28T11:12:45.000Z</time>
      </trkpt>
      <trkpt lat="45.8922" lon="6.18919">
        <ele>1214.1999511719</ele>
        <time>2017-05-28T11:13:16.000Z</time>
      </trkpt>
      <trkpt lat="45.89223" lon="6.18919">
        <ele>1214.1999511719</ele>
        <time>2017-05-28T11:13:19.000Z</time>
      </trkpt>
      <trkpt lat="45.89224" lon="6.18918">
        <ele>1214.1999511719</ele>
        <time>2017-05-28T11:13:20.000Z</time>
      </trkpt>
      <trkpt lat="45.89231" lon="6.18914">
        <ele>1213.5999755859</ele>
        <time>2017-05-28T11:13:26.000Z</time>
      </trkpt>
      <trkpt lat="45.89232" lon="6.18912">
        <ele>1213.8000488281</ele>
        <time>2017-05-28T11:13:27.000Z</time>
      </trkpt>
      <trkpt lat="45.89233" lon="6.18909">
        <ele>1213.8000488281</ele>
        <time>2017-05-28T11:13:28.000Z</time>
      </trkpt>
      <trkpt lat="45.89235" lon="6.18907">
        <ele>1213.8000488281</ele>
        <time>2017-05-28T11:13:29.000Z</time>
      </trkpt>
      <trkpt lat="45.89237" lon="6.18906">
        <ele>1213.5999755859</ele>
        <time>2017-05-28T11:13:30.000Z</time>
      </trkpt>
      <trkpt lat="45.89239" lon="6.18904">
        <ele>1213.5999755859</ele>
        <time>2017-05-28T11:13:31.000Z</time>
      </trkpt>
      <trkpt lat="45.89241" lon="6.18902">
        <ele>1213.1999511719</ele>
        <time>2017-05-28T11:13:32.000Z</time>
      </trkpt>
      <trkpt lat="45.89243" lon="6.18902">
        <ele>1213</ele>
        <time>2017-05-28T11:13:33.000Z</time>
      </trkpt>
      <trkpt lat="45.89245" lon="6.18901">
        <ele>1212.8000488281</ele>
        <time>2017-05-28T11:13:34.000Z</time>
      </trkpt>
      <trkpt lat="45.89247" lon="6.18901">
        <ele>1212.5999755859</ele>
        <time>2017-05-28T11:13:35.000Z</time>
      </trkpt>
      <trkpt lat="45.89257" lon="6.18902">
        <ele>1211.5999755859</ele>
        <time>2017-05-28T11:13:40.000Z</time>
      </trkpt>
      <trkpt lat="45.89258" lon="6.18902">
        <ele>1211.4000244141</ele>
        <time>2017-05-28T11:13:41.000Z</time>
      </trkpt>
      <trkpt lat="45.8926" lon="6.18903">
        <ele>1211.1999511719</ele>
        <time>2017-05-28T11:13:42.000Z</time>
      </trkpt>
      <trkpt lat="45.89261" lon="6.18903">
        <ele>1211</ele>
        <time>2017-05-28T11:13:43.000Z</time>
      </trkpt>
      <trkpt lat="45.89262" lon="6.18904">
        <ele>1210.5999755859</ele>
        <time>2017-05-28T11:13:44.000Z</time>
      </trkpt>
      <trkpt lat="45.89263" lon="6.18905">
        <ele>1210.1999511719</ele>
        <time>2017-05-28T11:13:45.000Z</time>
      </trkpt>
      <trkpt lat="45.89265" lon="6.18905">
        <ele>1209.8000488281</ele>
        <time>2017-05-28T11:13:46.000Z</time>
      </trkpt>
      <trkpt lat="45.89266" lon="6.18905">
        <ele>1209.1999511719</ele>
        <time>2017-05-28T11:13:47.000Z</time>
      </trkpt>
      <trkpt lat="45.89267" lon="6.18906">
        <ele>1208.8000488281</ele>
        <time>2017-05-28T11:13:48.000Z</time>
      </trkpt>
      <trkpt lat="45.89269" lon="6.18905">
        <ele>1208.5999755859</ele>
        <time>2017-05-28T11:13:49.000Z</time>
      </trkpt>
      <trkpt lat="45.89269" lon="6.18904">
        <ele>1208.1999511719</ele>
        <time>2017-05-28T11:13:50.000Z</time>
      </trkpt>
      <trkpt lat="45.8927" lon="6.18902">
        <ele>1207.5999755859</ele>
        <time>2017-05-28T11:13:51.000Z</time>
      </trkpt>
      <trkpt lat="45.8927" lon="6.18901">
        <ele>1207.1999511719</ele>
        <time>2017-05-28T11:13:52.000Z</time>
      </trkpt>
      <trkpt lat="45.89271" lon="6.18899">
        <ele>1206.4000244141</ele>
        <time>2017-05-28T11:13:53.000Z</time>
      </trkpt>
      <trkpt lat="45.89273" lon="6.18899">
        <ele>1206</ele>
        <time>2017-05-28T11:13:54.000Z</time>
      </trkpt>
      <trkpt lat="45.89274" lon="6.18899">
        <ele>1206</ele>
        <time>2017-05-28T11:13:55.000Z</time>
      </trkpt>
      <trkpt lat="45.89275" lon="6.18899">
        <ele>1205.5999755859</ele>
        <time>2017-05-28T11:13:56.000Z</time>
      </trkpt>
      <trkpt lat="45.89277" lon="6.18899">
        <ele>1205.4000244141</ele>
        <time>2017-05-28T11:13:57.000Z</time>
      </trkpt>
      <trkpt lat="45.8928" lon="6.18899">
        <ele>1205</ele>
        <time>2017-05-28T11:13:58.000Z</time>
      </trkpt>
      <trkpt lat="45.89281" lon="6.18898">
        <ele>1204.4000244141</ele>
        <time>2017-05-28T11:13:59.000Z</time>
      </trkpt>
      <trkpt lat="45.89283" lon="6.18898">
        <ele>1204</ele>
        <time>2017-05-28T11:14:00.000Z</time>
      </trkpt>
      <trkpt lat="45.89285" lon="6.18897">
        <ele>1203.8000488281</ele>
        <time>2017-05-28T11:14:01.000Z</time>
      </trkpt>
      <trkpt lat="45.89287" lon="6.18897">
        <ele>1203.1999511719</ele>
        <time>2017-05-28T11:14:02.000Z</time>
      </trkpt>
      <trkpt lat="45.89288" lon="6.18896">
        <ele>1202.8000488281</ele>
        <time>2017-05-28T11:14:03.000Z</time>
      </trkpt>
      <trkpt lat="45.8929" lon="6.18895">
        <ele>1202.5999755859</ele>
        <time>2017-05-28T11:14:04.000Z</time>
      </trkpt>
      <trkpt lat="45.89291" lon="6.18894">
        <ele>1202.5999755859</ele>
        <time>2017-05-28T11:14:05.000Z</time>
      </trkpt>
      <trkpt lat="45.89293" lon="6.18892">
        <ele>1202.5999755859</ele>
        <time>2017-05-28T11:14:06.000Z</time>
      </trkpt>
      <trkpt lat="45.89296" lon="6.18891">
        <ele>1202.4000244141</ele>
        <time>2017-05-28T11:14:07.000Z</time>
      </trkpt>
      <trkpt lat="45.89299" lon="6.18889">
        <ele>1202</ele>
        <time>2017-05-28T11:14:08.000Z</time>
      </trkpt>
      <trkpt lat="45.89301" lon="6.18887">
        <ele>1201.5999755859</ele>
        <time>2017-05-28T11:14:09.000Z</time>
      </trkpt>
      <trkpt lat="45.89303" lon="6.18885">
        <ele>1201.4000244141</ele>
        <time>2017-05-28T11:14:10.000Z</time>
      </trkpt>
      <trkpt lat="45.89304" lon="6.18884">
        <ele>1201.1999511719</ele>
        <time>2017-05-28T11:14:11.000Z</time>
      </trkpt>
      <trkpt lat="45.8932" lon="6.18878">
        <ele>1202.5999755859</ele>
        <time>2017-05-28T11:14:22.000Z</time>
      </trkpt>
      <trkpt lat="45.89321" lon="6.18878">
        <ele>1203</ele>
        <time>2017-05-28T11:14:23.000Z</time>
      </trkpt>
      <trkpt lat="45.89322" lon="6.18877">
        <ele>1203.1999511719</ele>
        <time>2017-05-28T11:14:24.000Z</time>
      </trkpt>
      <trkpt lat="45.89323" lon="6.18877">
        <ele>1203.4000244141</ele>
        <time>2017-05-28T11:14:25.000Z</time>
      </trkpt>
      <trkpt lat="45.89324" lon="6.18877">
        <ele>1203.4000244141</ele>
        <time>2017-05-28T11:14:26.000Z</time>
      </trkpt>
      <trkpt lat="45.89326" lon="6.18878">
        <ele>1203.4000244141</ele>
        <time>2017-05-28T11:14:27.000Z</time>
      </trkpt>
      <trkpt lat="45.89328" lon="6.18878">
        <ele>1203.4000244141</ele>
        <time>2017-05-28T11:14:28.000Z</time>
      </trkpt>
      <trkpt lat="45.8933" lon="6.18878">
        <ele>1203.1999511719</ele>
        <time>2017-05-28T11:14:29.000Z</time>
      </trkpt>
      <trkpt lat="45.89332" lon="6.18878">
        <ele>1202.8000488281</ele>
        <time>2017-05-28T11:14:30.000Z</time>
      </trkpt>
      <trkpt lat="45.89334" lon="6.18877">
        <ele>1202.8000488281</ele>
        <time>2017-05-28T11:14:31.000Z</time>
      </trkpt>
      <trkpt lat="45.89355" lon="6.18866">
        <ele>1203.4000244141</ele>
        <time>2017-05-28T11:14:49.000Z</time>
      </trkpt>
      <trkpt lat="45.89363" lon="6.18861">
        <ele>1202</ele>
        <time>2017-05-28T11:14:55.000Z</time>
      </trkpt>
      <trkpt lat="45.89375" lon="6.18851">
        <ele>1205.1999511719</ele>
        <time>2017-05-28T11:15:08.000Z</time>
      </trkpt>
      <trkpt lat="45.89379" lon="6.18847">
        <ele>1206.1999511719</ele>
        <time>2017-05-28T11:15:14.000Z</time>
      </trkpt>
      <trkpt lat="45.89388" lon="6.18842">
        <ele>1206.1999511719</ele>
        <time>2017-05-28T11:15:22.000Z</time>
      </trkpt>
      <trkpt lat="45.8939" lon="6.18841">
        <ele>1206.5999755859</ele>
        <time>2017-05-28T11:15:24.000Z</time>
      </trkpt>
      <trkpt lat="45.89391" lon="6.1884">
        <ele>1206.8000488281</ele>
        <time>2017-05-28T11:15:25.000Z</time>
      </trkpt>
      <trkpt lat="45.89398" lon="6.18836">
        <ele>1209</ele>
        <time>2017-05-28T11:15:34.000Z</time>
      </trkpt>
      <trkpt lat="45.89399" lon="6.18836">
        <ele>1209.1999511719</ele>
        <time>2017-05-28T11:15:35.000Z</time>
      </trkpt>
      <trkpt lat="45.89401" lon="6.18836">
        <ele>1209.4000244141</ele>
        <time>2017-05-28T11:15:36.000Z</time>
      </trkpt>
      <trkpt lat="45.89414" lon="6.18825">
        <ele>1212.4000244141</ele>
        <time>2017-05-28T11:15:53.000Z</time>
      </trkpt>
      <trkpt lat="45.89434" lon="6.18818">
        <ele>1212.4000244141</ele>
        <time>2017-05-28T11:16:09.000Z</time>
      </trkpt>
      <trkpt lat="45.89435" lon="6.18817">
        <ele>1212.4000244141</ele>
        <time>2017-05-28T11:16:10.000Z</time>
      </trkpt>
      <trkpt lat="45.89436" lon="6.18817">
        <ele>1212.1999511719</ele>
        <time>2017-05-28T11:16:11.000Z</time>
      </trkpt>
      <trkpt lat="45.89438" lon="6.18817">
        <ele>1212.1999511719</ele>
        <time>2017-05-28T11:16:12.000Z</time>
      </trkpt>
      <trkpt lat="45.89439" lon="6.18817">
        <ele>1212</ele>
        <time>2017-05-28T11:16:13.000Z</time>
      </trkpt>
      <trkpt lat="45.89457" lon="6.18808">
        <ele>1211.5999755859</ele>
        <time>2017-05-28T11:16:34.000Z</time>
      </trkpt>
      <trkpt lat="45.89466" lon="6.18807">
        <ele>1208.5999755859</ele>
        <time>2017-05-28T11:16:55.000Z</time>
      </trkpt>
      <trkpt lat="45.89466" lon="6.18805">
        <ele>1208.1999511719</ele>
        <time>2017-05-28T11:16:56.000Z</time>
      </trkpt>
      <trkpt lat="45.89467" lon="6.18801">
        <ele>1207.8000488281</ele>
        <time>2017-05-28T11:16:58.000Z</time>
      </trkpt>
      <trkpt lat="45.89468" lon="6.18799">
        <ele>1207.8000488281</ele>
        <time>2017-05-28T11:16:59.000Z</time>
      </trkpt>
      <trkpt lat="45.89473" lon="6.18797">
        <ele>1208</ele>
        <time>2017-05-28T11:17:03.000Z</time>
      </trkpt>
      <trkpt lat="45.89482" lon="6.18788">
        <ele>1211.1999511719</ele>
        <time>2017-05-28T11:17:15.000Z</time>
      </trkpt>
      <trkpt lat="45.89487" lon="6.18784">
        <ele>1214.1999511719</ele>
        <time>2017-05-28T11:17:27.000Z</time>
      </trkpt>
      <trkpt lat="45.89491" lon="6.18781">
        <ele>1217.1999511719</ele>
        <time>2017-05-28T11:17:38.000Z</time>
      </trkpt>
      <trkpt lat="45.89494" lon="6.18775">
        <ele>1220.4000244141</ele>
        <time>2017-05-28T11:17:51.000Z</time>
      </trkpt>
      <trkpt lat="45.89497" lon="6.1877">
        <ele>1223.4000244141</ele>
        <time>2017-05-28T11:18:07.000Z</time>
      </trkpt>
      <trkpt lat="45.89506" lon="6.18766">
        <ele>1226.4000244141</ele>
        <time>2017-05-28T11:18:24.000Z</time>
      </trkpt>
      <trkpt lat="45.89514" lon="6.18761">
        <ele>1227.8000488281</ele>
        <time>2017-05-28T11:18:37.000Z</time>
      </trkpt>
      <trkpt lat="45.89525" lon="6.18768">
        <ele>1224.5999755859</ele>
        <time>2017-05-28T11:18:50.000Z</time>
      </trkpt>
      <trkpt lat="45.89541" lon="6.18765">
        <ele>1225</ele>
        <time>2017-05-28T11:19:00.000Z</time>
      </trkpt>
      <trkpt lat="45.89556" lon="6.18753">
        <ele>1228.1999511719</ele>
        <time>2017-05-28T11:19:17.000Z</time>
      </trkpt>
      <trkpt lat="45.89561" lon="6.1875">
        <ele>1229.1999511719</ele>
        <time>2017-05-28T11:19:24.000Z</time>
      </trkpt>
      <trkpt lat="45.89579" lon="6.18736">
        <ele>1229.1999511719</ele>
        <time>2017-05-28T11:19:41.000Z</time>
      </trkpt>
      <trkpt lat="45.89584" lon="6.18735">
        <ele>1230</ele>
        <time>2017-05-28T11:19:47.000Z</time>
      </trkpt>
      <trkpt lat="45.89585" lon="6.18735">
        <ele>1230.1999511719</ele>
        <time>2017-05-28T11:19:48.000Z</time>
      </trkpt>
      <trkpt lat="45.89594" lon="6.18733">
        <ele>1233.4000244141</ele>
        <time>2017-05-28T11:20:02.000Z</time>
      </trkpt>
      <trkpt lat="45.896" lon="6.18734">
        <ele>1236.4000244141</ele>
        <time>2017-05-28T11:20:18.000Z</time>
      </trkpt>
      <trkpt lat="45.89608" lon="6.18726">
        <ele>1239.4000244141</ele>
        <time>2017-05-28T11:20:34.000Z</time>
      </trkpt>
      <trkpt lat="45.89614" lon="6.18721">
        <ele>1242.4000244141</ele>
        <time>2017-05-28T11:20:47.000Z</time>
      </trkpt>
      <trkpt lat="45.8962" lon="6.18714">
        <ele>1245.5999755859</ele>
        <time>2017-05-28T11:21:04.000Z</time>
      </trkpt>
      <trkpt lat="45.89627" lon="6.18708">
        <ele>1248.8000488281</ele>
        <time>2017-05-28T11:21:22.000Z</time>
      </trkpt>
      <trkpt lat="45.89631" lon="6.187">
        <ele>1251.8000488281</ele>
        <time>2017-05-28T11:21:40.000Z</time>
      </trkpt>
      <trkpt lat="45.8965" lon="6.18697">
        <ele>1251.4000244141</ele>
        <time>2017-05-28T11:22:03.000Z</time>
      </trkpt>
      <trkpt lat="45.89657" lon="6.1869">
        <ele>1254.5999755859</ele>
        <time>2017-05-28T11:22:17.000Z</time>
      </trkpt>
      <trkpt lat="45.89663" lon="6.18687">
        <ele>1255.5999755859</ele>
        <time>2017-05-28T11:22:26.000Z</time>
      </trkpt>
      <trkpt lat="45.89664" lon="6.18687">
        <ele>1255.4000244141</ele>
        <time>2017-05-28T11:22:27.000Z</time>
      </trkpt>
      <trkpt lat="45.89665" lon="6.18686">
        <ele>1255.4000244141</ele>
        <time>2017-05-28T11:22:28.000Z</time>
      </trkpt>
      <trkpt lat="45.89666" lon="6.18686">
        <ele>1255.5999755859</ele>
        <time>2017-05-28T11:22:29.000Z</time>
      </trkpt>
      <trkpt lat="45.89667" lon="6.18686">
        <ele>1255.5999755859</ele>
        <time>2017-05-28T11:22:30.000Z</time>
      </trkpt>
      <trkpt lat="45.89675" lon="6.18669">
        <ele>1258.1999511719</ele>
        <time>2017-05-28T11:22:48.000Z</time>
      </trkpt>
      <trkpt lat="45.89682" lon="6.18642">
        <ele>1257.8000488281</ele>
        <time>2017-05-28T11:23:14.000Z</time>
      </trkpt>
      <trkpt lat="45.89684" lon="6.18639">
        <ele>1256.1999511719</ele>
        <time>2017-05-28T11:23:32.000Z</time>
      </trkpt>
      <trkpt lat="45.89679" lon="6.18642">
        <ele>1253.1999511719</ele>
        <time>2017-05-28T11:23:45.000Z</time>
      </trkpt>
      <trkpt lat="45.89675" lon="6.18638">
        <ele>1251.1999511719</ele>
        <time>2017-05-28T11:23:52.000Z</time>
      </trkpt>
      <trkpt lat="45.89675" lon="6.18635">
        <ele>1250.8000488281</ele>
        <time>2017-05-28T11:23:53.000Z</time>
      </trkpt>
      <trkpt lat="45.89675" lon="6.18631">
        <ele>1250.5999755859</ele>
        <time>2017-05-28T11:23:54.000Z</time>
      </trkpt>
      <trkpt lat="45.8968" lon="6.18612">
        <ele>1248.4000244141</ele>
        <time>2017-05-28T11:24:03.000Z</time>
      </trkpt>
      <trkpt lat="45.89681" lon="6.1861">
        <ele>1248.1999511719</ele>
        <time>2017-05-28T11:24:04.000Z</time>
      </trkpt>
      <trkpt lat="45.89685" lon="6.18605">
        <ele>1246.8000488281</ele>
        <time>2017-05-28T11:24:14.000Z</time>
      </trkpt>
      <trkpt lat="45.89687" lon="6.18603">
        <ele>1246.5999755859</ele>
        <time>2017-05-28T11:24:15.000Z</time>
      </trkpt>
      <trkpt lat="45.89688" lon="6.18602">
        <ele>1246.1999511719</ele>
        <time>2017-05-28T11:24:16.000Z</time>
      </trkpt>
      <trkpt lat="45.8969" lon="6.18602">
        <ele>1246</ele>
        <time>2017-05-28T11:24:17.000Z</time>
      </trkpt>
      <trkpt lat="45.89691" lon="6.18602">
        <ele>1245.8000488281</ele>
        <time>2017-05-28T11:24:18.000Z</time>
      </trkpt>
      <trkpt lat="45.89702" lon="6.18609">
        <ele>1248.8000488281</ele>
        <time>2017-05-28T11:24:39.000Z</time>
      </trkpt>
      <trkpt lat="45.8972" lon="6.18618">
        <ele>1246.8000488281</ele>
        <time>2017-05-28T11:24:55.000Z</time>
      </trkpt>
      <trkpt lat="45.89721" lon="6.18617">
        <ele>1246.1999511719</ele>
        <time>2017-05-28T11:24:56.000Z</time>
      </trkpt>
      <trkpt lat="45.89742" lon="6.18613">
        <ele>1246.1999511719</ele>
        <time>2017-05-28T11:25:10.000Z</time>
      </trkpt>
      <trkpt lat="45.8975" lon="6.18613">
        <ele>1246.5999755859</ele>
        <time>2017-05-28T11:25:15.000Z</time>
      </trkpt>
      <trkpt lat="45.89752" lon="6.18613">
        <ele>1246.4000244141</ele>
        <time>2017-05-28T11:25:16.000Z</time>
      </trkpt>
      <trkpt lat="45.89771" lon="6.1861">
        <ele>1245.4000244141</ele>
        <time>2017-05-28T11:25:26.000Z</time>
      </trkpt>
      <trkpt lat="45.89773" lon="6.18611">
        <ele>1245.1999511719</ele>
        <time>2017-05-28T11:25:27.000Z</time>
      </trkpt>
      <trkpt lat="45.89798" lon="6.18612">
        <ele>1242.1999511719</ele>
        <time>2017-05-28T11:25:36.000Z</time>
      </trkpt>
      <trkpt lat="45.89821" lon="6.18609">
        <ele>1239.4000244141</ele>
        <time>2017-05-28T11:25:46.000Z</time>
      </trkpt>
      <trkpt lat="45.89842" lon="6.18603">
        <ele>1236.1999511719</ele>
        <time>2017-05-28T11:25:55.000Z</time>
      </trkpt>
      <trkpt lat="45.89859" lon="6.18604">
        <ele>1233</ele>
        <time>2017-05-28T11:26:02.000Z</time>
      </trkpt>
      <trkpt lat="45.89861" lon="6.18605">
        <ele>1232.8000488281</ele>
        <time>2017-05-28T11:26:03.000Z</time>
      </trkpt>
      <trkpt lat="45.8987" lon="6.1861">
        <ele>1231.1999511719</ele>
        <time>2017-05-28T11:26:08.000Z</time>
      </trkpt>
      <trkpt lat="45.89872" lon="6.18609">
        <ele>1230.5999755859</ele>
        <time>2017-05-28T11:26:09.000Z</time>
      </trkpt>
      <trkpt lat="45.89873" lon="6.18607">
        <ele>1230.1999511719</ele>
        <time>2017-05-28T11:26:10.000Z</time>
      </trkpt>
      <trkpt lat="45.89877" lon="6.18588">
        <ele>1228</ele>
        <time>2017-05-28T11:26:18.000Z</time>
      </trkpt>
      <trkpt lat="45.89878" lon="6.18586">
        <ele>1227.5999755859</ele>
        <time>2017-05-28T11:26:19.000Z</time>
      </trkpt>
      <trkpt lat="45.8988" lon="6.18586">
        <ele>1227.4000244141</ele>
        <time>2017-05-28T11:26:20.000Z</time>
      </trkpt>
      <trkpt lat="45.89882" lon="6.18586">
        <ele>1227</ele>
        <time>2017-05-28T11:26:21.000Z</time>
      </trkpt>
      <trkpt lat="45.89883" lon="6.18586">
        <ele>1226.1999511719</ele>
        <time>2017-05-28T11:26:22.000Z</time>
      </trkpt>
      <trkpt lat="45.89885" lon="6.18586">
        <ele>1225.8000488281</ele>
        <time>2017-05-28T11:26:23.000Z</time>
      </trkpt>
      <trkpt lat="45.89887" lon="6.18585">
        <ele>1225.1999511719</ele>
        <time>2017-05-28T11:26:24.000Z</time>
      </trkpt>
      <trkpt lat="45.89888" lon="6.18585">
        <ele>1224.4000244141</ele>
        <time>2017-05-28T11:26:25.000Z</time>
      </trkpt>
      <trkpt lat="45.89889" lon="6.18586">
        <ele>1224.1999511719</ele>
        <time>2017-05-28T11:26:26.000Z</time>
      </trkpt>
      <trkpt lat="45.89891" lon="6.18586">
        <ele>1223.8000488281</ele>
        <time>2017-05-28T11:26:27.000Z</time>
      </trkpt>
      <trkpt lat="45.89892" lon="6.18586">
        <ele>1223.4000244141</ele>
        <time>2017-05-28T11:26:28.000Z</time>
      </trkpt>
      <trkpt lat="45.89906" lon="6.18585">
        <ele>1220</ele>
        <time>2017-05-28T11:26:36.000Z</time>
      </trkpt>
      <trkpt lat="45.89924" lon="6.18582">
        <ele>1216.5999755859</ele>
        <time>2017-05-28T11:26:45.000Z</time>
      </trkpt>
      <trkpt lat="45.89937" lon="6.18582">
        <ele>1213.1999511719</ele>
        <time>2017-05-28T11:26:51.000Z</time>
      </trkpt>
      <trkpt lat="45.8994" lon="6.18581">
        <ele>1212.4000244141</ele>
        <time>2017-05-28T11:26:53.000Z</time>
      </trkpt>
      <trkpt lat="45.89946" lon="6.18578">
        <ele>1211</ele>
        <time>2017-05-28T11:26:56.000Z</time>
      </trkpt>
      <trkpt lat="45.89947" lon="6.18578">
        <ele>1210.4000244141</ele>
        <time>2017-05-28T11:26:57.000Z</time>
      </trkpt>
      <trkpt lat="45.89956" lon="6.18575">
        <ele>1207.5999755859</ele>
        <time>2017-05-28T11:27:02.000Z</time>
      </trkpt>
      <trkpt lat="45.89958" lon="6.18574">
        <ele>1207</ele>
        <time>2017-05-28T11:27:03.000Z</time>
      </trkpt>
      <trkpt lat="45.89961" lon="6.18574">
        <ele>1206</ele>
        <time>2017-05-28T11:27:05.000Z</time>
      </trkpt>
      <trkpt lat="45.8997" lon="6.18572">
        <ele>1203.1999511719</ele>
        <time>2017-05-28T11:27:10.000Z</time>
      </trkpt>
      <trkpt lat="45.89971" lon="6.18572">
        <ele>1203</ele>
        <time>2017-05-28T11:27:11.000Z</time>
      </trkpt>
      <trkpt lat="45.89973" lon="6.18572">
        <ele>1202.5999755859</ele>
        <time>2017-05-28T11:27:12.000Z</time>
      </trkpt>
      <trkpt lat="45.89974" lon="6.18572">
        <ele>1201.5999755859</ele>
        <time>2017-05-28T11:27:13.000Z</time>
      </trkpt>
      <trkpt lat="45.89977" lon="6.18571">
        <ele>1200.4000244141</ele>
        <time>2017-05-28T11:27:16.000Z</time>
      </trkpt>
      <trkpt lat="45.8998" lon="6.18571">
        <ele>1198.8000488281</ele>
        <time>2017-05-28T11:27:19.000Z</time>
      </trkpt>
      <trkpt lat="45.89986" lon="6.18575">
        <ele>1196</ele>
        <time>2017-05-28T11:27:25.000Z</time>
      </trkpt>
      <trkpt lat="45.9" lon="6.18579">
        <ele>1193.1999511719</ele>
        <time>2017-05-28T11:27:33.000Z</time>
      </trkpt>
      <trkpt lat="45.90012" lon="6.1858">
        <ele>1189.5999755859</ele>
        <time>2017-05-28T11:27:43.000Z</time>
      </trkpt>
      <trkpt lat="45.90015" lon="6.18582">
        <ele>1188.5999755859</ele>
        <time>2017-05-28T11:27:46.000Z</time>
      </trkpt>
      <trkpt lat="45.90017" lon="6.18583">
        <ele>1188.4000244141</ele>
        <time>2017-05-28T11:27:47.000Z</time>
      </trkpt>
      <trkpt lat="45.90018" lon="6.18584">
        <ele>1188</ele>
        <time>2017-05-28T11:27:48.000Z</time>
      </trkpt>
      <trkpt lat="45.90024" lon="6.18587">
        <ele>1185</ele>
        <time>2017-05-28T11:27:55.000Z</time>
      </trkpt>
      <trkpt lat="45.90031" lon="6.18592">
        <ele>1182</ele>
        <time>2017-05-28T11:28:02.000Z</time>
      </trkpt>
      <trkpt lat="45.90036" lon="6.18594">
        <ele>1178.5999755859</ele>
        <time>2017-05-28T11:28:12.000Z</time>
      </trkpt>
      <trkpt lat="45.90038" lon="6.18596">
        <ele>1177.8000488281</ele>
        <time>2017-05-28T11:28:14.000Z</time>
      </trkpt>
      <trkpt lat="45.90043" lon="6.18599">
        <ele>1174.5999755859</ele>
        <time>2017-05-28T11:28:21.000Z</time>
      </trkpt>
      <trkpt lat="45.90044" lon="6.18599">
        <ele>1173.8000488281</ele>
        <time>2017-05-28T11:28:23.000Z</time>
      </trkpt>
      <trkpt lat="45.90046" lon="6.18601">
        <ele>1172.5999755859</ele>
        <time>2017-05-28T11:28:26.000Z</time>
      </trkpt>
      <trkpt lat="45.90048" lon="6.18601">
        <ele>1172.1999511719</ele>
        <time>2017-05-28T11:28:27.000Z</time>
      </trkpt>
      <trkpt lat="45.90048" lon="6.18602">
        <ele>1171.8000488281</ele>
        <time>2017-05-28T11:28:28.000Z</time>
      </trkpt>
      <trkpt lat="45.90051" lon="6.18604">
        <ele>1170.4000244141</ele>
        <time>2017-05-28T11:28:32.000Z</time>
      </trkpt>
      <trkpt lat="45.90058" lon="6.18609">
        <ele>1167.1999511719</ele>
        <time>2017-05-28T11:28:40.000Z</time>
      </trkpt>
      <trkpt lat="45.90066" lon="6.18612">
        <ele>1164</ele>
        <time>2017-05-28T11:28:48.000Z</time>
      </trkpt>
      <trkpt lat="45.90072" lon="6.18612">
        <ele>1160.8000488281</ele>
        <time>2017-05-28T11:28:55.000Z</time>
      </trkpt>
      <trkpt lat="45.90077" lon="6.18613">
        <ele>1158.5999755859</ele>
        <time>2017-05-28T11:29:00.000Z</time>
      </trkpt>
      <trkpt lat="45.9008" lon="6.18612">
        <ele>1157.4000244141</ele>
        <time>2017-05-28T11:29:03.000Z</time>
      </trkpt>
      <trkpt lat="45.90081" lon="6.18611">
        <ele>1156.8000488281</ele>
        <time>2017-05-28T11:29:04.000Z</time>
      </trkpt>
      <trkpt lat="45.90082" lon="6.18611">
        <ele>1156.4000244141</ele>
        <time>2017-05-28T11:29:05.000Z</time>
      </trkpt>
      <trkpt lat="45.90083" lon="6.18612">
        <ele>1156</ele>
        <time>2017-05-28T11:29:06.000Z</time>
      </trkpt>
      <trkpt lat="45.90087" lon="6.18615">
        <ele>1154.8000488281</ele>
        <time>2017-05-28T11:29:10.000Z</time>
      </trkpt>
      <trkpt lat="45.90088" lon="6.18613">
        <ele>1153.8000488281</ele>
        <time>2017-05-28T11:29:12.000Z</time>
      </trkpt>
      <trkpt lat="45.90089" lon="6.18611">
        <ele>1153</ele>
        <time>2017-05-28T11:29:14.000Z</time>
      </trkpt>
      <trkpt lat="45.90094" lon="6.18607">
        <ele>1151.8000488281</ele>
        <time>2017-05-28T11:29:19.000Z</time>
      </trkpt>
      <trkpt lat="45.90095" lon="6.18606">
        <ele>1151.1999511719</ele>
        <time>2017-05-28T11:29:20.000Z</time>
      </trkpt>
      <trkpt lat="45.90096" lon="6.18605">
        <ele>1150.8000488281</ele>
        <time>2017-05-28T11:29:21.000Z</time>
      </trkpt>
      <trkpt lat="45.90097" lon="6.18605">
        <ele>1150.5999755859</ele>
        <time>2017-05-28T11:29:22.000Z</time>
      </trkpt>
      <trkpt lat="45.90098" lon="6.18605">
        <ele>1150.1999511719</ele>
        <time>2017-05-28T11:29:23.000Z</time>
      </trkpt>
      <trkpt lat="45.90104" lon="6.18606">
        <ele>1147.8000488281</ele>
        <time>2017-05-28T11:29:31.000Z</time>
      </trkpt>
      <trkpt lat="45.90105" lon="6.18606">
        <ele>1147.5999755859</ele>
        <time>2017-05-28T11:29:32.000Z</time>
      </trkpt>
      <trkpt lat="45.90108" lon="6.18607">
        <ele>1147.1999511719</ele>
        <time>2017-05-28T11:29:34.000Z</time>
      </trkpt>
      <trkpt lat="45.90109" lon="6.18607">
        <ele>1146.8000488281</ele>
        <time>2017-05-28T11:29:35.000Z</time>
      </trkpt>
      <trkpt lat="45.9011" lon="6.18606">
        <ele>1146.1999511719</ele>
        <time>2017-05-28T11:29:36.000Z</time>
      </trkpt>
      <trkpt lat="45.90112" lon="6.18605">
        <ele>1146</ele>
        <time>2017-05-28T11:29:37.000Z</time>
      </trkpt>
      <trkpt lat="45.90114" lon="6.18603">
        <ele>1145.5999755859</ele>
        <time>2017-05-28T11:29:38.000Z</time>
      </trkpt>
      <trkpt lat="45.90115" lon="6.18602">
        <ele>1145.4000244141</ele>
        <time>2017-05-28T11:29:39.000Z</time>
      </trkpt>
      <trkpt lat="45.90128" lon="6.1859">
        <ele>1142.4000244141</ele>
        <time>2017-05-28T11:29:54.000Z</time>
      </trkpt>
      <trkpt lat="45.9015" lon="6.18566">
        <ele>1141.1999511719</ele>
        <time>2017-05-28T11:30:07.000Z</time>
      </trkpt>
      <trkpt lat="45.9016" lon="6.18561">
        <ele>1139</ele>
        <time>2017-05-28T11:30:13.000Z</time>
      </trkpt>
      <trkpt lat="45.90186" lon="6.18549">
        <ele>1135.8000488281</ele>
        <time>2017-05-28T11:30:29.000Z</time>
      </trkpt>
      <trkpt lat="45.90195" lon="6.18544">
        <ele>1132.5999755859</ele>
        <time>2017-05-28T11:30:34.000Z</time>
      </trkpt>
      <trkpt lat="45.9021" lon="6.18541">
        <ele>1129.4000244141</ele>
        <time>2017-05-28T11:30:41.000Z</time>
      </trkpt>
      <trkpt lat="45.90228" lon="6.18537">
        <ele>1126.1999511719</ele>
        <time>2017-05-28T11:30:48.000Z</time>
      </trkpt>
      <trkpt lat="45.90255" lon="6.1852">
        <ele>1126.1999511719</ele>
        <time>2017-05-28T11:31:01.000Z</time>
      </trkpt>
      <trkpt lat="45.90258" lon="6.18516">
        <ele>1125.8000488281</ele>
        <time>2017-05-28T11:31:04.000Z</time>
      </trkpt>
      <trkpt lat="45.9026" lon="6.18516">
        <ele>1125.5999755859</ele>
        <time>2017-05-28T11:31:05.000Z</time>
      </trkpt>
      <trkpt lat="45.90261" lon="6.18515">
        <ele>1125.4000244141</ele>
        <time>2017-05-28T11:31:06.000Z</time>
      </trkpt>
      <trkpt lat="45.90262" lon="6.18515">
        <ele>1125.1999511719</ele>
        <time>2017-05-28T11:31:07.000Z</time>
      </trkpt>
      <trkpt lat="45.90272" lon="6.18515">
        <ele>1122.5999755859</ele>
        <time>2017-05-28T11:31:15.000Z</time>
      </trkpt>
      <trkpt lat="45.90273" lon="6.18515">
        <ele>1122.4000244141</ele>
        <time>2017-05-28T11:31:16.000Z</time>
      </trkpt>
      <trkpt lat="45.90275" lon="6.18515">
        <ele>1122.1999511719</ele>
        <time>2017-05-28T11:31:17.000Z</time>
      </trkpt>
      <trkpt lat="45.90277" lon="6.18515">
        <ele>1121.8000488281</ele>
        <time>2017-05-28T11:31:18.000Z</time>
      </trkpt>
      <trkpt lat="45.90278" lon="6.18514">
        <ele>1121.1999511719</ele>
        <time>2017-05-28T11:31:19.000Z</time>
      </trkpt>
      <trkpt lat="45.90285" lon="6.18511">
        <ele>1119.5999755859</ele>
        <time>2017-05-28T11:31:24.000Z</time>
      </trkpt>
      <trkpt lat="45.90285" lon="6.18509">
        <ele>1119.1999511719</ele>
        <time>2017-05-28T11:31:25.000Z</time>
      </trkpt>
      <trkpt lat="45.90286" lon="6.18509">
        <ele>1118.5999755859</ele>
        <time>2017-05-28T11:31:26.000Z</time>
      </trkpt>
      <trkpt lat="45.90296" lon="6.18504">
        <ele>1115.5999755859</ele>
        <time>2017-05-28T11:31:35.000Z</time>
      </trkpt>
      <trkpt lat="45.903" lon="6.18502">
        <ele>1115.4000244141</ele>
        <time>2017-05-28T11:31:37.000Z</time>
      </trkpt>
      <trkpt lat="45.90303" lon="6.18501">
        <ele>1115.1999511719</ele>
        <time>2017-05-28T11:31:38.000Z</time>
      </trkpt>
      <trkpt lat="45.90319" lon="6.18495">
        <ele>1112.1999511719</ele>
        <time>2017-05-28T11:31:50.000Z</time>
      </trkpt>
      <trkpt lat="45.90327" lon="6.18495">
        <ele>1110.8000488281</ele>
        <time>2017-05-28T11:31:56.000Z</time>
      </trkpt>
      <trkpt lat="45.90328" lon="6.18495">
        <ele>1110.5999755859</ele>
        <time>2017-05-28T11:31:57.000Z</time>
      </trkpt>
      <trkpt lat="45.90329" lon="6.18495">
        <ele>1110.4000244141</ele>
        <time>2017-05-28T11:31:58.000Z</time>
      </trkpt>
      <trkpt lat="45.9033" lon="6.18495">
        <ele>1110.1999511719</ele>
        <time>2017-05-28T11:31:59.000Z</time>
      </trkpt>
      <trkpt lat="45.90336" lon="6.18497">
        <ele>1108</ele>
        <time>2017-05-28T11:32:05.000Z</time>
      </trkpt>
      <trkpt lat="45.90337" lon="6.18496">
        <ele>1107.8000488281</ele>
        <time>2017-05-28T11:32:06.000Z</time>
      </trkpt>
      <trkpt lat="45.90339" lon="6.18495">
        <ele>1107</ele>
        <time>2017-05-28T11:32:08.000Z</time>
      </trkpt>
      <trkpt lat="45.90347" lon="6.18496">
        <ele>1104.1999511719</ele>
        <time>2017-05-28T11:32:17.000Z</time>
      </trkpt>
      <trkpt lat="45.9035" lon="6.18496">
        <ele>1103.8000488281</ele>
        <time>2017-05-28T11:32:19.000Z</time>
      </trkpt>
      <trkpt lat="45.90351" lon="6.18496">
        <ele>1103.4000244141</ele>
        <time>2017-05-28T11:32:20.000Z</time>
      </trkpt>
      <trkpt lat="45.90354" lon="6.18496">
        <ele>1102.5999755859</ele>
        <time>2017-05-28T11:32:22.000Z</time>
      </trkpt>
      <trkpt lat="45.90356" lon="6.18497">
        <ele>1102.1999511719</ele>
        <time>2017-05-28T11:32:23.000Z</time>
      </trkpt>
      <trkpt lat="45.90357" lon="6.18498">
        <ele>1102</ele>
        <time>2017-05-28T11:32:24.000Z</time>
      </trkpt>
      <trkpt lat="45.90359" lon="6.18499">
        <ele>1101.5999755859</ele>
        <time>2017-05-28T11:32:25.000Z</time>
      </trkpt>
      <trkpt lat="45.9036" lon="6.18499">
        <ele>1101.1999511719</ele>
        <time>2017-05-28T11:32:26.000Z</time>
      </trkpt>
      <trkpt lat="45.90362" lon="6.18498">
        <ele>1101</ele>
        <time>2017-05-28T11:32:27.000Z</time>
      </trkpt>
      <trkpt lat="45.90363" lon="6.18497">
        <ele>1100.8000488281</ele>
        <time>2017-05-28T11:32:28.000Z</time>
      </trkpt>
      <trkpt lat="45.90384" lon="6.18493">
        <ele>1097.5999755859</ele>
        <time>2017-05-28T11:32:43.000Z</time>
      </trkpt>
      <trkpt lat="45.90387" lon="6.18493">
        <ele>1097</ele>
        <time>2017-05-28T11:32:45.000Z</time>
      </trkpt>
      <trkpt lat="45.90388" lon="6.18493">
        <ele>1096.4000244141</ele>
        <time>2017-05-28T11:32:46.000Z</time>
      </trkpt>
      <trkpt lat="45.90394" lon="6.18491">
        <ele>1095</ele>
        <time>2017-05-28T11:32:51.000Z</time>
      </trkpt>
      <trkpt lat="45.90395" lon="6.18491">
        <ele>1094.8000488281</ele>
        <time>2017-05-28T11:32:52.000Z</time>
      </trkpt>
      <trkpt lat="45.90397" lon="6.18491">
        <ele>1094.1999511719</ele>
        <time>2017-05-28T11:32:53.000Z</time>
      </trkpt>
      <trkpt lat="45.90399" lon="6.18491">
        <ele>1093.1999511719</ele>
        <time>2017-05-28T11:32:54.000Z</time>
      </trkpt>
      <trkpt lat="45.90401" lon="6.18491">
        <ele>1092.4000244141</ele>
        <time>2017-05-28T11:32:55.000Z</time>
      </trkpt>
      <trkpt lat="45.90402" lon="6.18491">
        <ele>1092</ele>
        <time>2017-05-28T11:32:56.000Z</time>
      </trkpt>
      <trkpt lat="45.90404" lon="6.18491">
        <ele>1091.8000488281</ele>
        <time>2017-05-28T11:32:57.000Z</time>
      </trkpt>
      <trkpt lat="45.90412" lon="6.18491">
        <ele>1088.5999755859</ele>
        <time>2017-05-28T11:33:05.000Z</time>
      </trkpt>
      <trkpt lat="45.90421" lon="6.1849">
        <ele>1086.1999511719</ele>
        <time>2017-05-28T11:33:10.000Z</time>
      </trkpt>
      <trkpt lat="45.90431" lon="6.18486">
        <ele>1083</ele>
        <time>2017-05-28T11:33:16.000Z</time>
      </trkpt>
      <trkpt lat="45.90444" lon="6.18482">
        <ele>1079.1999511719</ele>
        <time>2017-05-28T11:33:23.000Z</time>
      </trkpt>
      <trkpt lat="45.90449" lon="6.1848">
        <ele>1078.4000244141</ele>
        <time>2017-05-28T11:33:25.000Z</time>
      </trkpt>
      <trkpt lat="45.90463" lon="6.18471">
        <ele>1076</ele>
        <time>2017-05-28T11:33:32.000Z</time>
      </trkpt>
      <trkpt lat="45.90477" lon="6.18463">
        <ele>1072.8000488281</ele>
        <time>2017-05-28T11:33:40.000Z</time>
      </trkpt>
      <trkpt lat="45.90487" lon="6.18459">
        <ele>1070.8000488281</ele>
        <time>2017-05-28T11:33:45.000Z</time>
      </trkpt>
      <trkpt lat="45.90512" lon="6.18443">
        <ele>1067.5999755859</ele>
        <time>2017-05-28T11:33:56.000Z</time>
      </trkpt>
      <trkpt lat="45.90523" lon="6.18433">
        <ele>1064.5999755859</ele>
        <time>2017-05-28T11:34:00.000Z</time>
      </trkpt>
      <trkpt lat="45.90546" lon="6.18415">
        <ele>1062.4000244141</ele>
        <time>2017-05-28T11:34:11.000Z</time>
      </trkpt>
      <trkpt lat="45.90553" lon="6.18405">
        <ele>1060.4000244141</ele>
        <time>2017-05-28T11:34:16.000Z</time>
      </trkpt>
      <trkpt lat="45.90564" lon="6.184">
        <ele>1057</ele>
        <time>2017-05-28T11:34:26.000Z</time>
      </trkpt>
      <trkpt lat="45.90567" lon="6.18397">
        <ele>1056.5999755859</ele>
        <time>2017-05-28T11:34:28.000Z</time>
      </trkpt>
      <trkpt lat="45.90569" lon="6.18396">
        <ele>1056.1999511719</ele>
        <time>2017-05-28T11:34:29.000Z</time>
      </trkpt>
      <trkpt lat="45.90571" lon="6.18394">
        <ele>1055.8000488281</ele>
        <time>2017-05-28T11:34:30.000Z</time>
      </trkpt>
      <trkpt lat="45.90573" lon="6.18393">
        <ele>1055.4000244141</ele>
        <time>2017-05-28T11:34:31.000Z</time>
      </trkpt>
      <trkpt lat="45.90575" lon="6.18391">
        <ele>1055</ele>
        <time>2017-05-28T11:34:32.000Z</time>
      </trkpt>
      <trkpt lat="45.90577" lon="6.18388">
        <ele>1054.4000244141</ele>
        <time>2017-05-28T11:34:33.000Z</time>
      </trkpt>
      <trkpt lat="45.90579" lon="6.18386">
        <ele>1054.4000244141</ele>
        <time>2017-05-28T11:34:34.000Z</time>
      </trkpt>
      <trkpt lat="45.90581" lon="6.18383">
        <ele>1054.4000244141</ele>
        <time>2017-05-28T11:34:35.000Z</time>
      </trkpt>
      <trkpt lat="45.90584" lon="6.1838">
        <ele>1054.5999755859</ele>
        <time>2017-05-28T11:34:36.000Z</time>
      </trkpt>
      <trkpt lat="45.90593" lon="6.18366">
        <ele>1053.1999511719</ele>
        <time>2017-05-28T11:34:45.000Z</time>
      </trkpt>
      <trkpt lat="45.90595" lon="6.18363">
        <ele>1053</ele>
        <time>2017-05-28T11:34:47.000Z</time>
      </trkpt>
      <trkpt lat="45.90595" lon="6.18361">
        <ele>1053</ele>
        <time>2017-05-28T11:34:48.000Z</time>
      </trkpt>
      <trkpt lat="45.90597" lon="6.18358">
        <ele>1053</ele>
        <time>2017-05-28T11:34:49.000Z</time>
      </trkpt>
      <trkpt lat="45.90597" lon="6.18356">
        <ele>1053</ele>
        <time>2017-05-28T11:34:50.000Z</time>
      </trkpt>
      <trkpt lat="45.90599" lon="6.18354">
        <ele>1053</ele>
        <time>2017-05-28T11:34:51.000Z</time>
      </trkpt>
      <trkpt lat="45.906" lon="6.18352">
        <ele>1053.1999511719</ele>
        <time>2017-05-28T11:34:52.000Z</time>
      </trkpt>
      <trkpt lat="45.90601" lon="6.1835">
        <ele>1052.8000488281</ele>
        <time>2017-05-28T11:34:53.000Z</time>
      </trkpt>
      <trkpt lat="45.90603" lon="6.18346">
        <ele>1052.8000488281</ele>
        <time>2017-05-28T11:34:55.000Z</time>
      </trkpt>
      <trkpt lat="45.90606" lon="6.18339">
        <ele>1052.8000488281</ele>
        <time>2017-05-28T11:34:59.000Z</time>
      </trkpt>
      <trkpt lat="45.90611" lon="6.18324">
        <ele>1052.1999511719</ele>
        <time>2017-05-28T11:35:08.000Z</time>
      </trkpt>
      <trkpt lat="45.90612" lon="6.18322">
        <ele>1052.1999511719</ele>
        <time>2017-05-28T11:35:09.000Z</time>
      </trkpt>
      <trkpt lat="45.90612" lon="6.1832">
        <ele>1052.1999511719</ele>
        <time>2017-05-28T11:35:10.000Z</time>
      </trkpt>
      <trkpt lat="45.90613" lon="6.18318">
        <ele>1052</ele>
        <time>2017-05-28T11:35:11.000Z</time>
      </trkpt>
      <trkpt lat="45.90614" lon="6.18316">
        <ele>1051.8000488281</ele>
        <time>2017-05-28T11:35:12.000Z</time>
      </trkpt>
      <trkpt lat="45.90615" lon="6.18314">
        <ele>1051.8000488281</ele>
        <time>2017-05-28T11:35:13.000Z</time>
      </trkpt>
      <trkpt lat="45.90615" lon="6.1831">
        <ele>1051.8000488281</ele>
        <time>2017-05-28T11:35:14.000Z</time>
      </trkpt>
      <trkpt lat="45.90615" lon="6.18308">
        <ele>1051.8000488281</ele>
        <time>2017-05-28T11:35:15.000Z</time>
      </trkpt>
      <trkpt lat="45.90616" lon="6.18294">
        <ele>1051.4000244141</ele>
        <time>2017-05-28T11:35:20.000Z</time>
      </trkpt>
      <trkpt lat="45.90618" lon="6.18271">
        <ele>1048.1999511719</ele>
        <time>2017-05-28T11:35:29.000Z</time>
      </trkpt>
      <trkpt lat="45.90631" lon="6.18234">
        <ele>1045.1999511719</ele>
        <time>2017-05-28T11:35:44.000Z</time>
      </trkpt>
      <trkpt lat="45.90641" lon="6.18211">
        <ele>1045.5999755859</ele>
        <time>2017-05-28T11:35:52.000Z</time>
      </trkpt>
      <trkpt lat="45.90641" lon="6.18208">
        <ele>1045.5999755859</ele>
        <time>2017-05-28T11:35:53.000Z</time>
      </trkpt>
      <trkpt lat="45.90656" lon="6.18166">
        <ele>1046.5999755859</ele>
        <time>2017-05-28T11:36:07.000Z</time>
      </trkpt>
      <trkpt lat="45.90659" lon="6.18145">
        <ele>1044.4000244141</ele>
        <time>2017-05-28T11:36:12.000Z</time>
      </trkpt>
      <trkpt lat="45.90662" lon="6.18126">
        <ele>1042</ele>
        <time>2017-05-28T11:36:17.000Z</time>
      </trkpt>
      <trkpt lat="45.90669" lon="6.1809">
        <ele>1039.8000488281</ele>
        <time>2017-05-28T11:36:28.000Z</time>
      </trkpt>
      <trkpt lat="45.90673" lon="6.18074">
        <ele>1038.4000244141</ele>
        <time>2017-05-28T11:36:31.000Z</time>
      </trkpt>
      <trkpt lat="45.90682" lon="6.18057">
        <ele>1036.5999755859</ele>
        <time>2017-05-28T11:36:35.000Z</time>
      </trkpt>
      <trkpt lat="45.90683" lon="6.18053">
        <ele>1036.1999511719</ele>
        <time>2017-05-28T11:36:36.000Z</time>
      </trkpt>
      <trkpt lat="45.90694" lon="6.18023">
        <ele>1033.1999511719</ele>
        <time>2017-05-28T11:36:47.000Z</time>
      </trkpt>
      <trkpt lat="45.90695" lon="6.1802">
        <ele>1032.5999755859</ele>
        <time>2017-05-28T11:36:48.000Z</time>
      </trkpt>
      <trkpt lat="45.90699" lon="6.18011">
        <ele>1031.8000488281</ele>
        <time>2017-05-28T11:36:50.000Z</time>
      </trkpt>
      <trkpt lat="45.90701" lon="6.17992">
        <ele>1029.8000488281</ele>
        <time>2017-05-28T11:36:54.000Z</time>
      </trkpt>
      <trkpt lat="45.90701" lon="6.17976">
        <ele>1028.4000244141</ele>
        <time>2017-05-28T11:36:57.000Z</time>
      </trkpt>
      <trkpt lat="45.90702" lon="6.17967">
        <ele>1027.1999511719</ele>
        <time>2017-05-28T11:36:59.000Z</time>
      </trkpt>
      <trkpt lat="45.90702" lon="6.17964">
        <ele>1027</ele>
        <time>2017-05-28T11:37:00.000Z</time>
      </trkpt>
      <trkpt lat="45.90697" lon="6.17927">
        <ele>1025.4000244141</ele>
        <time>2017-05-28T11:37:11.000Z</time>
      </trkpt>
      <trkpt lat="45.90696" lon="6.17921">
        <ele>1024.8000488281</ele>
        <time>2017-05-28T11:37:13.000Z</time>
      </trkpt>
      <trkpt lat="45.90698" lon="6.17899">
        <ele>1022</ele>
        <time>2017-05-28T11:37:19.000Z</time>
      </trkpt>
      <trkpt lat="45.90703" lon="6.17875">
        <ele>1018.799987793</ele>
        <time>2017-05-28T11:37:25.000Z</time>
      </trkpt>
      <trkpt lat="45.90705" lon="6.17846">
        <ele>1015.200012207</ele>
        <time>2017-05-28T11:37:32.000Z</time>
      </trkpt>
      <trkpt lat="45.90706" lon="6.1784">
        <ele>1014</ele>
        <time>2017-05-28T11:37:34.000Z</time>
      </trkpt>
      <trkpt lat="45.90707" lon="6.17837">
        <ele>1013.5999755859</ele>
        <time>2017-05-28T11:37:35.000Z</time>
      </trkpt>
      <trkpt lat="45.90707" lon="6.17834">
        <ele>1012.5999755859</ele>
        <time>2017-05-28T11:37:36.000Z</time>
      </trkpt>
      <trkpt lat="45.90707" lon="6.17832">
        <ele>1012</ele>
        <time>2017-05-28T11:37:37.000Z</time>
      </trkpt>
      <trkpt lat="45.90708" lon="6.1783">
        <ele>1011.5999755859</ele>
        <time>2017-05-28T11:37:38.000Z</time>
      </trkpt>
      <trkpt lat="45.90708" lon="6.17816">
        <ele>1008.200012207</ele>
        <time>2017-05-28T11:37:44.000Z</time>
      </trkpt>
      <trkpt lat="45.90713" lon="6.17803">
        <ele>1004.4000244141</ele>
        <time>2017-05-28T11:37:50.000Z</time>
      </trkpt>
      <trkpt lat="45.90715" lon="6.17799">
        <ele>1003.5999755859</ele>
        <time>2017-05-28T11:37:52.000Z</time>
      </trkpt>
      <trkpt lat="45.90718" lon="6.17785">
        <ele>1000.200012207</ele>
        <time>2017-05-28T11:37:58.000Z</time>
      </trkpt>
      <trkpt lat="45.9072" lon="6.17774">
        <ele>998.40002441406</ele>
        <time>2017-05-28T11:38:02.000Z</time>
      </trkpt>
      <trkpt lat="45.9072" lon="6.1777">
        <ele>998.20001220703</ele>
        <time>2017-05-28T11:38:03.000Z</time>
      </trkpt>
      <trkpt lat="45.90721" lon="6.17767">
        <ele>997.79998779297</ele>
        <time>2017-05-28T11:38:04.000Z</time>
      </trkpt>
      <trkpt lat="45.90721" lon="6.17763">
        <ele>997.20001220703</ele>
        <time>2017-05-28T11:38:05.000Z</time>
      </trkpt>
      <trkpt lat="45.90722" lon="6.17759">
        <ele>996.79998779297</ele>
        <time>2017-05-28T11:38:06.000Z</time>
      </trkpt>
      <trkpt lat="45.90725" lon="6.1775">
        <ele>995.79998779297</ele>
        <time>2017-05-28T11:38:08.000Z</time>
      </trkpt>
      <trkpt lat="45.90726" lon="6.17746">
        <ele>995.20001220703</ele>
        <time>2017-05-28T11:38:09.000Z</time>
      </trkpt>
      <trkpt lat="45.90728" lon="6.17742">
        <ele>995</ele>
        <time>2017-05-28T11:38:10.000Z</time>
      </trkpt>
      <trkpt lat="45.90728" lon="6.17738">
        <ele>994.79998779297</ele>
        <time>2017-05-28T11:38:11.000Z</time>
      </trkpt>
      <trkpt lat="45.90729" lon="6.17734">
        <ele>994</ele>
        <time>2017-05-28T11:38:12.000Z</time>
      </trkpt>
      <trkpt lat="45.9073" lon="6.1773">
        <ele>993.40002441406</ele>
        <time>2017-05-28T11:38:13.000Z</time>
      </trkpt>
      <trkpt lat="45.90731" lon="6.17727">
        <ele>993</ele>
        <time>2017-05-28T11:38:14.000Z</time>
      </trkpt>
      <trkpt lat="45.90728" lon="6.17713">
        <ele>991.59997558594</ele>
        <time>2017-05-28T11:38:18.000Z</time>
      </trkpt>
      <trkpt lat="45.90729" lon="6.17709">
        <ele>991.20001220703</ele>
        <time>2017-05-28T11:38:19.000Z</time>
      </trkpt>
      <trkpt lat="45.90731" lon="6.17706">
        <ele>990.59997558594</ele>
        <time>2017-05-28T11:38:20.000Z</time>
      </trkpt>
      <trkpt lat="45.90732" lon="6.17705">
        <ele>990</ele>
        <time>2017-05-28T11:38:21.000Z</time>
      </trkpt>
      <trkpt lat="45.90733" lon="6.17704">
        <ele>989.59997558594</ele>
        <time>2017-05-28T11:38:22.000Z</time>
      </trkpt>
      <trkpt lat="45.90734" lon="6.17703">
        <ele>989.20001220703</ele>
        <time>2017-05-28T11:38:23.000Z</time>
      </trkpt>
      <trkpt lat="45.90736" lon="6.17701">
        <ele>988.40002441406</ele>
        <time>2017-05-28T11:38:24.000Z</time>
      </trkpt>
      <trkpt lat="45.90737" lon="6.17699">
        <ele>987.59997558594</ele>
        <time>2017-05-28T11:38:25.000Z</time>
      </trkpt>
      <trkpt lat="45.90741" lon="6.17685">
        <ele>984.20001220703</ele>
        <time>2017-05-28T11:38:30.000Z</time>
      </trkpt>
      <trkpt lat="45.9074" lon="6.17682">
        <ele>984</ele>
        <time>2017-05-28T11:38:31.000Z</time>
      </trkpt>
      <trkpt lat="45.90745" lon="6.17662">
        <ele>980.59997558594</ele>
        <time>2017-05-28T11:38:37.000Z</time>
      </trkpt>
      <trkpt lat="45.9075" lon="6.17636">
        <ele>977</ele>
        <time>2017-05-28T11:38:44.000Z</time>
      </trkpt>
      <trkpt lat="45.90752" lon="6.17616">
        <ele>973</ele>
        <time>2017-05-28T11:38:50.000Z</time>
      </trkpt>
      <trkpt lat="45.90757" lon="6.17604">
        <ele>969.79998779297</ele>
        <time>2017-05-28T11:38:55.000Z</time>
      </trkpt>
      <trkpt lat="45.90761" lon="6.17585">
        <ele>966.40002441406</ele>
        <time>2017-05-28T11:39:01.000Z</time>
      </trkpt>
      <trkpt lat="45.90758" lon="6.17563">
        <ele>962.79998779297</ele>
        <time>2017-05-28T11:39:07.000Z</time>
      </trkpt>
      <trkpt lat="45.90757" lon="6.17541">
        <ele>959.79998779297</ele>
        <time>2017-05-28T11:39:13.000Z</time>
      </trkpt>
      <trkpt lat="45.90758" lon="6.17525">
        <ele>956.59997558594</ele>
        <time>2017-05-28T11:39:18.000Z</time>
      </trkpt>
      <trkpt lat="45.9076" lon="6.17513">
        <ele>953.40002441406</ele>
        <time>2017-05-28T11:39:23.000Z</time>
      </trkpt>
      <trkpt lat="45.90761" lon="6.17501">
        <ele>949.79998779297</ele>
        <time>2017-05-28T11:39:31.000Z</time>
      </trkpt>
      <trkpt lat="45.90761" lon="6.17497">
        <ele>948.40002441406</ele>
        <time>2017-05-28T11:39:33.000Z</time>
      </trkpt>
      <trkpt lat="45.90761" lon="6.17495">
        <ele>948</ele>
        <time>2017-05-28T11:39:34.000Z</time>
      </trkpt>
      <trkpt lat="45.90762" lon="6.17493">
        <ele>947.20001220703</ele>
        <time>2017-05-28T11:39:35.000Z</time>
      </trkpt>
      <trkpt lat="45.90762" lon="6.17491">
        <ele>946.59997558594</ele>
        <time>2017-05-28T11:39:36.000Z</time>
      </trkpt>
      <trkpt lat="45.90761" lon="6.17488">
        <ele>945.79998779297</ele>
        <time>2017-05-28T11:39:37.000Z</time>
      </trkpt>
      <trkpt lat="45.90763" lon="6.17483">
        <ele>945</ele>
        <time>2017-05-28T11:39:39.000Z</time>
      </trkpt>
      <trkpt lat="45.90764" lon="6.17481">
        <ele>944.79998779297</ele>
        <time>2017-05-28T11:39:40.000Z</time>
      </trkpt>
      <trkpt lat="45.90764" lon="6.17479">
        <ele>944.40002441406</ele>
        <time>2017-05-28T11:39:41.000Z</time>
      </trkpt>
      <trkpt lat="45.90765" lon="6.17477">
        <ele>944</ele>
        <time>2017-05-28T11:39:42.000Z</time>
      </trkpt>
      <trkpt lat="45.90765" lon="6.17475">
        <ele>943.20001220703</ele>
        <time>2017-05-28T11:39:43.000Z</time>
      </trkpt>
      <trkpt lat="45.90767" lon="6.17468">
        <ele>941.40002441406</ele>
        <time>2017-05-28T11:39:46.000Z</time>
      </trkpt>
      <trkpt lat="45.90766" lon="6.17462">
        <ele>940.59997558594</ele>
        <time>2017-05-28T11:39:48.000Z</time>
      </trkpt>
      <trkpt lat="45.90765" lon="6.1746">
        <ele>940</ele>
        <time>2017-05-28T11:39:49.000Z</time>
      </trkpt>
      <trkpt lat="45.90764" lon="6.17457">
        <ele>939.40002441406</ele>
        <time>2017-05-28T11:39:50.000Z</time>
      </trkpt>
      <trkpt lat="45.90764" lon="6.17441">
        <ele>935.79998779297</ele>
        <time>2017-05-28T11:39:57.000Z</time>
      </trkpt>
      <trkpt lat="45.90766" lon="6.1743">
        <ele>932.59997558594</ele>
        <time>2017-05-28T11:40:03.000Z</time>
      </trkpt>
      <trkpt lat="45.90768" lon="6.17423">
        <ele>930.20001220703</ele>
        <time>2017-05-28T11:40:07.000Z</time>
      </trkpt>
      <trkpt lat="45.90769" lon="6.17421">
        <ele>929.59997558594</ele>
        <time>2017-05-28T11:40:08.000Z</time>
      </trkpt>
      <trkpt lat="45.90771" lon="6.17418">
        <ele>928.79998779297</ele>
        <time>2017-05-28T11:40:10.000Z</time>
      </trkpt>
      <trkpt lat="45.90773" lon="6.17418">
        <ele>928.20001220703</ele>
        <time>2017-05-28T11:40:11.000Z</time>
      </trkpt>
      <trkpt lat="45.90775" lon="6.17417">
        <ele>927.79998779297</ele>
        <time>2017-05-28T11:40:12.000Z</time>
      </trkpt>
      <trkpt lat="45.90775" lon="6.17414">
        <ele>927.40002441406</ele>
        <time>2017-05-28T11:40:13.000Z</time>
      </trkpt>
      <trkpt lat="45.90777" lon="6.17414">
        <ele>926.59997558594</ele>
        <time>2017-05-28T11:40:14.000Z</time>
      </trkpt>
      <trkpt lat="45.90778" lon="6.17414">
        <ele>926.20001220703</ele>
        <time>2017-05-28T11:40:15.000Z</time>
      </trkpt>
      <trkpt lat="45.90781" lon="6.17412">
        <ele>925</ele>
        <time>2017-05-28T11:40:17.000Z</time>
      </trkpt>
      <trkpt lat="45.90782" lon="6.1741">
        <ele>924.79998779297</ele>
        <time>2017-05-28T11:40:18.000Z</time>
      </trkpt>
      <trkpt lat="45.90783" lon="6.17408">
        <ele>924</ele>
        <time>2017-05-28T11:40:19.000Z</time>
      </trkpt>
      <trkpt lat="45.90783" lon="6.17406">
        <ele>923.20001220703</ele>
        <time>2017-05-28T11:40:20.000Z</time>
      </trkpt>
      <trkpt lat="45.90784" lon="6.17404">
        <ele>922.79998779297</ele>
        <time>2017-05-28T11:40:21.000Z</time>
      </trkpt>
      <trkpt lat="45.90783" lon="6.17401">
        <ele>922.20001220703</ele>
        <time>2017-05-28T11:40:22.000Z</time>
      </trkpt>
      <trkpt lat="45.90784" lon="6.17398">
        <ele>921.59997558594</ele>
        <time>2017-05-28T11:40:23.000Z</time>
      </trkpt>
      <trkpt lat="45.90785" lon="6.17396">
        <ele>920.79998779297</ele>
        <time>2017-05-28T11:40:24.000Z</time>
      </trkpt>
      <trkpt lat="45.90786" lon="6.17394">
        <ele>920.20001220703</ele>
        <time>2017-05-28T11:40:25.000Z</time>
      </trkpt>
      <trkpt lat="45.90786" lon="6.17392">
        <ele>919.59997558594</ele>
        <time>2017-05-28T11:40:26.000Z</time>
      </trkpt>
      <trkpt lat="45.9079" lon="6.17383">
        <ele>916.59997558594</ele>
        <time>2017-05-28T11:40:31.000Z</time>
      </trkpt>
      <trkpt lat="45.90793" lon="6.17366">
        <ele>913.20001220703</ele>
        <time>2017-05-28T11:40:37.000Z</time>
      </trkpt>
      <trkpt lat="45.90795" lon="6.17357">
        <ele>911.59997558594</ele>
        <time>2017-05-28T11:40:41.000Z</time>
      </trkpt>
      <trkpt lat="45.90797" lon="6.17346">
        <ele>908.59997558594</ele>
        <time>2017-05-28T11:40:46.000Z</time>
      </trkpt>
      <trkpt lat="45.90799" lon="6.17343">
        <ele>907.79998779297</ele>
        <time>2017-05-28T11:40:48.000Z</time>
      </trkpt>
      <trkpt lat="45.90799" lon="6.1734">
        <ele>907.40002441406</ele>
        <time>2017-05-28T11:40:49.000Z</time>
      </trkpt>
      <trkpt lat="45.90798" lon="6.17337">
        <ele>907</ele>
        <time>2017-05-28T11:40:50.000Z</time>
      </trkpt>
      <trkpt lat="45.90797" lon="6.17335">
        <ele>906.59997558594</ele>
        <time>2017-05-28T11:40:51.000Z</time>
      </trkpt>
      <trkpt lat="45.90797" lon="6.17332">
        <ele>906</ele>
        <time>2017-05-28T11:40:52.000Z</time>
      </trkpt>
      <trkpt lat="45.90798" lon="6.17328">
        <ele>905.59997558594</ele>
        <time>2017-05-28T11:40:53.000Z</time>
      </trkpt>
      <trkpt lat="45.90798" lon="6.17325">
        <ele>905.20001220703</ele>
        <time>2017-05-28T11:40:54.000Z</time>
      </trkpt>
      <trkpt lat="45.90799" lon="6.17322">
        <ele>904.59997558594</ele>
        <time>2017-05-28T11:40:55.000Z</time>
      </trkpt>
      <trkpt lat="45.90799" lon="6.17319">
        <ele>904.20001220703</ele>
        <time>2017-05-28T11:40:56.000Z</time>
      </trkpt>
      <trkpt lat="45.908" lon="6.17317">
        <ele>903.59997558594</ele>
        <time>2017-05-28T11:40:57.000Z</time>
      </trkpt>
      <trkpt lat="45.90801" lon="6.17314">
        <ele>902.79998779297</ele>
        <time>2017-05-28T11:40:58.000Z</time>
      </trkpt>
      <trkpt lat="45.90801" lon="6.17311">
        <ele>902.40002441406</ele>
        <time>2017-05-28T11:40:59.000Z</time>
      </trkpt>
      <trkpt lat="45.90802" lon="6.1731">
        <ele>902</ele>
        <time>2017-05-28T11:41:00.000Z</time>
      </trkpt>
      <trkpt lat="45.90802" lon="6.17307">
        <ele>901.59997558594</ele>
        <time>2017-05-28T11:41:01.000Z</time>
      </trkpt>
      <trkpt lat="45.90803" lon="6.17305">
        <ele>901.20001220703</ele>
        <time>2017-05-28T11:41:02.000Z</time>
      </trkpt>
      <trkpt lat="45.90804" lon="6.17284">
        <ele>897.59997558594</ele>
        <time>2017-05-28T11:41:09.000Z</time>
      </trkpt>
      <trkpt lat="45.90806" lon="6.17278">
        <ele>896.40002441406</ele>
        <time>2017-05-28T11:41:11.000Z</time>
      </trkpt>
      <trkpt lat="45.90807" lon="6.17275">
        <ele>895.79998779297</ele>
        <time>2017-05-28T11:41:12.000Z</time>
      </trkpt>
      <trkpt lat="45.90807" lon="6.17273">
        <ele>895.20001220703</ele>
        <time>2017-05-28T11:41:13.000Z</time>
      </trkpt>
      <trkpt lat="45.90807" lon="6.17271">
        <ele>894.79998779297</ele>
        <time>2017-05-28T11:41:14.000Z</time>
      </trkpt>
      <trkpt lat="45.90807" lon="6.17268">
        <ele>894.40002441406</ele>
        <time>2017-05-28T11:41:15.000Z</time>
      </trkpt>
      <trkpt lat="45.90806" lon="6.17266">
        <ele>894</ele>
        <time>2017-05-28T11:41:16.000Z</time>
      </trkpt>
      <trkpt lat="45.90806" lon="6.17263">
        <ele>893.79998779297</ele>
        <time>2017-05-28T11:41:17.000Z</time>
      </trkpt>
      <trkpt lat="45.90805" lon="6.17261">
        <ele>893.40002441406</ele>
        <time>2017-05-28T11:41:18.000Z</time>
      </trkpt>
      <trkpt lat="45.90802" lon="6.17238">
        <ele>891.20001220703</ele>
        <time>2017-05-28T11:41:25.000Z</time>
      </trkpt>
      <trkpt lat="45.90795" lon="6.17218">
        <ele>887.79998779297</ele>
        <time>2017-05-28T11:41:32.000Z</time>
      </trkpt>
      <trkpt lat="45.90782" lon="6.17195">
        <ele>884.59997558594</ele>
        <time>2017-05-28T11:41:41.000Z</time>
      </trkpt>
      <trkpt lat="45.90771" lon="6.1718">
        <ele>882</ele>
        <time>2017-05-28T11:41:47.000Z</time>
      </trkpt>
      <trkpt lat="45.90761" lon="6.1716">
        <ele>879</ele>
        <time>2017-05-28T11:41:54.000Z</time>
      </trkpt>
      <trkpt lat="45.9076" lon="6.17157">
        <ele>878.79998779297</ele>
        <time>2017-05-28T11:41:55.000Z</time>
      </trkpt>
      <trkpt lat="45.90754" lon="6.17148">
        <ele>876</ele>
        <time>2017-05-28T11:42:00.000Z</time>
      </trkpt>
      <trkpt lat="45.90751" lon="6.17143">
        <ele>875.79998779297</ele>
        <time>2017-05-28T11:42:02.000Z</time>
      </trkpt>
      <trkpt lat="45.9075" lon="6.17141">
        <ele>875.40002441406</ele>
        <time>2017-05-28T11:42:03.000Z</time>
      </trkpt>
      <trkpt lat="45.90748" lon="6.1714">
        <ele>875.20001220703</ele>
        <time>2017-05-28T11:42:04.000Z</time>
      </trkpt>
      <trkpt lat="45.90746" lon="6.17139">
        <ele>874.79998779297</ele>
        <time>2017-05-28T11:42:05.000Z</time>
      </trkpt>
      <trkpt lat="45.90745" lon="6.17138">
        <ele>874.59997558594</ele>
        <time>2017-05-28T11:42:06.000Z</time>
      </trkpt>
      <trkpt lat="45.90743" lon="6.17137">
        <ele>874.20001220703</ele>
        <time>2017-05-28T11:42:07.000Z</time>
      </trkpt>
      <trkpt lat="45.9074" lon="6.17136">
        <ele>873.79998779297</ele>
        <time>2017-05-28T11:42:08.000Z</time>
      </trkpt>
      <trkpt lat="45.90738" lon="6.17135">
        <ele>873.40002441406</ele>
        <time>2017-05-28T11:42:09.000Z</time>
      </trkpt>
      <trkpt lat="45.90737" lon="6.17133">
        <ele>873</ele>
        <time>2017-05-28T11:42:10.000Z</time>
      </trkpt>
      <trkpt lat="45.90736" lon="6.17133">
        <ele>872.79998779297</ele>
        <time>2017-05-28T11:42:11.000Z</time>
      </trkpt>
      <trkpt lat="45.90735" lon="6.17132">
        <ele>872.40002441406</ele>
        <time>2017-05-28T11:42:12.000Z</time>
      </trkpt>
      <trkpt lat="45.90734" lon="6.17131">
        <ele>868.79998779297</ele>
        <time>2017-05-28T11:42:21.000Z</time>
      </trkpt>
      <trkpt lat="45.90733" lon="6.1713">
        <ele>868.59997558594</ele>
        <time>2017-05-28T11:42:22.000Z</time>
      </trkpt>
      <trkpt lat="45.90733" lon="6.1713">
        <ele>868.20001220703</ele>
        <time>2017-05-28T11:42:23.000Z</time>
      </trkpt>
      <trkpt lat="45.90732" lon="6.17129">
        <ele>867.59997558594</ele>
        <time>2017-05-28T11:42:24.000Z</time>
      </trkpt>
      <trkpt lat="45.90731" lon="6.17128">
        <ele>867.20001220703</ele>
        <time>2017-05-28T11:42:25.000Z</time>
      </trkpt>
      <trkpt lat="45.90729" lon="6.17126">
        <ele>866.79998779297</ele>
        <time>2017-05-28T11:42:26.000Z</time>
      </trkpt>
      <trkpt lat="45.90728" lon="6.17126">
        <ele>866.40002441406</ele>
        <time>2017-05-28T11:42:27.000Z</time>
      </trkpt>
      <trkpt lat="45.90726" lon="6.17124">
        <ele>865.79998779297</ele>
        <time>2017-05-28T11:42:28.000Z</time>
      </trkpt>
      <trkpt lat="45.90724" lon="6.1712">
        <ele>865.59997558594</ele>
        <time>2017-05-28T11:42:29.000Z</time>
      </trkpt>
      <trkpt lat="45.9072" lon="6.17116">
        <ele>865</ele>
        <time>2017-05-28T11:42:31.000Z</time>
      </trkpt>
      <trkpt lat="45.90719" lon="6.17113">
        <ele>864.40002441406</ele>
        <time>2017-05-28T11:42:32.000Z</time>
      </trkpt>
      <trkpt lat="45.90717" lon="6.17111">
        <ele>863.79998779297</ele>
        <time>2017-05-28T11:42:33.000Z</time>
      </trkpt>
      <trkpt lat="45.90715" lon="6.17109">
        <ele>863.40002441406</ele>
        <time>2017-05-28T11:42:34.000Z</time>
      </trkpt>
      <trkpt lat="45.90713" lon="6.17106">
        <ele>863</ele>
        <time>2017-05-28T11:42:35.000Z</time>
      </trkpt>
      <trkpt lat="45.90712" lon="6.17105">
        <ele>863</ele>
        <time>2017-05-28T11:42:36.000Z</time>
      </trkpt>
      <trkpt lat="45.9071" lon="6.17104">
        <ele>862.59997558594</ele>
        <time>2017-05-28T11:42:37.000Z</time>
      </trkpt>
      <trkpt lat="45.90703" lon="6.17102">
        <ele>861.20001220703</ele>
        <time>2017-05-28T11:42:44.000Z</time>
      </trkpt>
      <trkpt lat="45.90703" lon="6.17102">
        <ele>860.79998779297</ele>
        <time>2017-05-28T11:42:45.000Z</time>
      </trkpt>
      <trkpt lat="45.90703" lon="6.17098">
        <ele>859.20001220703</ele>
        <time>2017-05-28T11:42:48.000Z</time>
      </trkpt>
      <trkpt lat="45.90703" lon="6.17097">
        <ele>858.79998779297</ele>
        <time>2017-05-28T11:42:49.000Z</time>
      </trkpt>
      <trkpt lat="45.90705" lon="6.17092">
        <ele>857.20001220703</ele>
        <time>2017-05-28T11:42:56.000Z</time>
      </trkpt>
      <trkpt lat="45.90706" lon="6.1709">
        <ele>857</ele>
        <time>2017-05-28T11:42:57.000Z</time>
      </trkpt>
      <trkpt lat="45.90707" lon="6.1709">
        <ele>856.79998779297</ele>
        <time>2017-05-28T11:42:58.000Z</time>
      </trkpt>
      <trkpt lat="45.90708" lon="6.1709">
        <ele>856.59997558594</ele>
        <time>2017-05-28T11:42:59.000Z</time>
      </trkpt>
      <trkpt lat="45.9071" lon="6.17088">
        <ele>855.40002441406</ele>
        <time>2017-05-28T11:43:04.000Z</time>
      </trkpt>
      <trkpt lat="45.90709" lon="6.17086">
        <ele>855</ele>
        <time>2017-05-28T11:43:05.000Z</time>
      </trkpt>
      <trkpt lat="45.90708" lon="6.17082">
        <ele>854.59997558594</ele>
        <time>2017-05-28T11:43:06.000Z</time>
      </trkpt>
      <trkpt lat="45.90704" lon="6.17072">
        <ele>852.40002441406</ele>
        <time>2017-05-28T11:43:12.000Z</time>
      </trkpt>
      <trkpt lat="45.90699" lon="6.17067">
        <ele>850.40002441406</ele>
        <time>2017-05-28T11:43:20.000Z</time>
      </trkpt>
      <trkpt lat="45.90698" lon="6.17068">
        <ele>849</ele>
        <time>2017-05-28T11:43:26.000Z</time>
      </trkpt>
      <trkpt lat="45.90698" lon="6.17067">
        <ele>848.79998779297</ele>
        <time>2017-05-28T11:43:27.000Z</time>
      </trkpt>
      <trkpt lat="45.90697" lon="6.17066">
        <ele>848.20001220703</ele>
        <time>2017-05-28T11:43:28.000Z</time>
      </trkpt>
      <trkpt lat="45.90699" lon="6.1706">
        <ele>846.79998779297</ele>
        <time>2017-05-28T11:43:32.000Z</time>
      </trkpt>
      <trkpt lat="45.907" lon="6.1706">
        <ele>846.40002441406</ele>
        <time>2017-05-28T11:43:33.000Z</time>
      </trkpt>
      <trkpt lat="45.90702" lon="6.17059">
        <ele>846</ele>
        <time>2017-05-28T11:43:34.000Z</time>
      </trkpt>
      <trkpt lat="45.90704" lon="6.17059">
        <ele>845.79998779297</ele>
        <time>2017-05-28T11:43:35.000Z</time>
      </trkpt>
      <trkpt lat="45.90706" lon="6.1706">
        <ele>845.59997558594</ele>
        <time>2017-05-28T11:43:36.000Z</time>
      </trkpt>
      <trkpt lat="45.90708" lon="6.17059">
        <ele>845.20001220703</ele>
        <time>2017-05-28T11:43:37.000Z</time>
      </trkpt>
      <trkpt lat="45.90712" lon="6.17057">
        <ele>843.79998779297</ele>
        <time>2017-05-28T11:43:40.000Z</time>
      </trkpt>
      <trkpt lat="45.90711" lon="6.17056">
        <ele>843</ele>
        <time>2017-05-28T11:43:41.000Z</time>
      </trkpt>
      <trkpt lat="45.9071" lon="6.17054">
        <ele>842.59997558594</ele>
        <time>2017-05-28T11:43:42.000Z</time>
      </trkpt>
      <trkpt lat="45.90708" lon="6.17053">
        <ele>842</ele>
        <time>2017-05-28T11:43:43.000Z</time>
      </trkpt>
      <trkpt lat="45.90707" lon="6.17052">
        <ele>841.59997558594</ele>
        <time>2017-05-28T11:43:44.000Z</time>
      </trkpt>
      <trkpt lat="45.90704" lon="6.17048">
        <ele>840.79998779297</ele>
        <time>2017-05-28T11:43:46.000Z</time>
      </trkpt>
      <trkpt lat="45.90693" lon="6.17038">
        <ele>837.79998779297</ele>
        <time>2017-05-28T11:43:55.000Z</time>
      </trkpt>
      <trkpt lat="45.90685" lon="6.17031">
        <ele>834.59997558594</ele>
        <time>2017-05-28T11:44:05.000Z</time>
      </trkpt>
      <trkpt lat="45.90684" lon="6.1703">
        <ele>834.20001220703</ele>
        <time>2017-05-28T11:44:06.000Z</time>
      </trkpt>
      <trkpt lat="45.90683" lon="6.17029">
        <ele>833.59997558594</ele>
        <time>2017-05-28T11:44:07.000Z</time>
      </trkpt>
      <trkpt lat="45.90683" lon="6.17029">
        <ele>833</ele>
        <time>2017-05-28T11:44:08.000Z</time>
      </trkpt>
      <trkpt lat="45.90682" lon="6.17027">
        <ele>832.40002441406</ele>
        <time>2017-05-28T11:44:09.000Z</time>
      </trkpt>
      <trkpt lat="45.90683" lon="6.17026">
        <ele>832</ele>
        <time>2017-05-28T11:44:10.000Z</time>
      </trkpt>
      <trkpt lat="45.90683" lon="6.17026">
        <ele>831.59997558594</ele>
        <time>2017-05-28T11:44:11.000Z</time>
      </trkpt>
      <trkpt lat="45.90684" lon="6.17024">
        <ele>831.20001220703</ele>
        <time>2017-05-28T11:44:12.000Z</time>
      </trkpt>
      <trkpt lat="45.90681" lon="6.17017">
        <ele>828.20001220703</ele>
        <time>2017-05-28T11:44:19.000Z</time>
      </trkpt>
      <trkpt lat="45.90679" lon="6.17013">
        <ele>826.79998779297</ele>
        <time>2017-05-28T11:44:21.000Z</time>
      </trkpt>
      <trkpt lat="45.90679" lon="6.17009">
        <ele>825.40002441406</ele>
        <time>2017-05-28T11:44:23.000Z</time>
      </trkpt>
      <trkpt lat="45.90679" lon="6.17008">
        <ele>824.79998779297</ele>
        <time>2017-05-28T11:44:24.000Z</time>
      </trkpt>
      <trkpt lat="45.90679" lon="6.17007">
        <ele>824.20001220703</ele>
        <time>2017-05-28T11:44:25.000Z</time>
      </trkpt>
      <trkpt lat="45.90679" lon="6.17005">
        <ele>823.79998779297</ele>
        <time>2017-05-28T11:44:26.000Z</time>
      </trkpt>
      <trkpt lat="45.9068" lon="6.17004">
        <ele>823.20001220703</ele>
        <time>2017-05-28T11:44:27.000Z</time>
      </trkpt>
      <trkpt lat="45.9068" lon="6.17003">
        <ele>822.40002441406</ele>
        <time>2017-05-28T11:44:28.000Z</time>
      </trkpt>
      <trkpt lat="45.90681" lon="6.17002">
        <ele>822</ele>
        <time>2017-05-28T11:44:29.000Z</time>
      </trkpt>
      <trkpt lat="45.90682" lon="6.16999">
        <ele>820.79998779297</ele>
        <time>2017-05-28T11:44:32.000Z</time>
      </trkpt>
      <trkpt lat="45.90682" lon="6.16994">
        <ele>818.20001220703</ele>
        <time>2017-05-28T11:44:39.000Z</time>
      </trkpt>
      <trkpt lat="45.9068" lon="6.16994">
        <ele>817.79998779297</ele>
        <time>2017-05-28T11:44:40.000Z</time>
      </trkpt>
      <trkpt lat="45.90672" lon="6.16996">
        <ele>815</ele>
        <time>2017-05-28T11:44:49.000Z</time>
      </trkpt>
      <trkpt lat="45.90672" lon="6.16995">
        <ele>814.20001220703</ele>
        <time>2017-05-28T11:44:50.000Z</time>
      </trkpt>
      <trkpt lat="45.90669" lon="6.16994">
        <ele>813.59997558594</ele>
        <time>2017-05-28T11:44:53.000Z</time>
      </trkpt>
      <trkpt lat="45.90668" lon="6.16995">
        <ele>813.59997558594</ele>
        <time>2017-05-28T11:44:54.000Z</time>
      </trkpt>
      <trkpt lat="45.90664" lon="6.16992">
        <ele>812.79998779297</ele>
        <time>2017-05-28T11:44:57.000Z</time>
      </trkpt>
      <trkpt lat="45.90663" lon="6.1699">
        <ele>812.20001220703</ele>
        <time>2017-05-28T11:44:58.000Z</time>
      </trkpt>
      <trkpt lat="45.90661" lon="6.16988">
        <ele>811.79998779297</ele>
        <time>2017-05-28T11:44:59.000Z</time>
      </trkpt>
      <trkpt lat="45.90648" lon="6.1698">
        <ele>808.40002441406</ele>
        <time>2017-05-28T11:45:08.000Z</time>
      </trkpt>
      <trkpt lat="45.90645" lon="6.16978">
        <ele>807.59997558594</ele>
        <time>2017-05-28T11:45:10.000Z</time>
      </trkpt>
      <trkpt lat="45.90644" lon="6.16977">
        <ele>807.20001220703</ele>
        <time>2017-05-28T11:45:11.000Z</time>
      </trkpt>
      <trkpt lat="45.90643" lon="6.16976">
        <ele>806.59997558594</ele>
        <time>2017-05-28T11:45:12.000Z</time>
      </trkpt>
      <trkpt lat="45.90641" lon="6.16974">
        <ele>806.20001220703</ele>
        <time>2017-05-28T11:45:13.000Z</time>
      </trkpt>
      <trkpt lat="45.90639" lon="6.16973">
        <ele>805.59997558594</ele>
        <time>2017-05-28T11:45:14.000Z</time>
      </trkpt>
      <trkpt lat="45.90637" lon="6.16972">
        <ele>805</ele>
        <time>2017-05-28T11:45:15.000Z</time>
      </trkpt>
      <trkpt lat="45.90636" lon="6.16971">
        <ele>804.40002441406</ele>
        <time>2017-05-28T11:45:16.000Z</time>
      </trkpt>
      <trkpt lat="45.90634" lon="6.16969">
        <ele>803.79998779297</ele>
        <time>2017-05-28T11:45:17.000Z</time>
      </trkpt>
      <trkpt lat="45.90632" lon="6.16968">
        <ele>803.40002441406</ele>
        <time>2017-05-28T11:45:18.000Z</time>
      </trkpt>
      <trkpt lat="45.9063" lon="6.16967">
        <ele>803</ele>
        <time>2017-05-28T11:45:19.000Z</time>
      </trkpt>
      <trkpt lat="45.90629" lon="6.16967">
        <ele>802.59997558594</ele>
        <time>2017-05-28T11:45:20.000Z</time>
      </trkpt>
      <trkpt lat="45.90627" lon="6.16967">
        <ele>802</ele>
        <time>2017-05-28T11:45:21.000Z</time>
      </trkpt>
      <trkpt lat="45.90623" lon="6.16961">
        <ele>800.40002441406</ele>
        <time>2017-05-28T11:45:25.000Z</time>
      </trkpt>
      <trkpt lat="45.90623" lon="6.1696">
        <ele>800.20001220703</ele>
        <time>2017-05-28T11:45:26.000Z</time>
      </trkpt>
      <trkpt lat="45.90624" lon="6.16958">
        <ele>800.20001220703</ele>
        <time>2017-05-28T11:45:27.000Z</time>
      </trkpt>
      <trkpt lat="45.90625" lon="6.16958">
        <ele>799.59997558594</ele>
        <time>2017-05-28T11:45:28.000Z</time>
      </trkpt>
      <trkpt lat="45.90627" lon="6.16958">
        <ele>799.20001220703</ele>
        <time>2017-05-28T11:45:29.000Z</time>
      </trkpt>
      <trkpt lat="45.9063" lon="6.16956">
        <ele>798.59997558594</ele>
        <time>2017-05-28T11:45:30.000Z</time>
      </trkpt>
      <trkpt lat="45.90632" lon="6.16955">
        <ele>798</ele>
        <time>2017-05-28T11:45:31.000Z</time>
      </trkpt>
      <trkpt lat="45.90635" lon="6.16954">
        <ele>797.59997558594</ele>
        <time>2017-05-28T11:45:32.000Z</time>
      </trkpt>
      <trkpt lat="45.90639" lon="6.16951">
        <ele>796.20001220703</ele>
        <time>2017-05-28T11:45:35.000Z</time>
      </trkpt>
      <trkpt lat="45.90641" lon="6.1695">
        <ele>796.20001220703</ele>
        <time>2017-05-28T11:45:36.000Z</time>
      </trkpt>
      <trkpt lat="45.90643" lon="6.1695">
        <ele>795.79998779297</ele>
        <time>2017-05-28T11:45:37.000Z</time>
      </trkpt>
      <trkpt lat="45.90646" lon="6.1695">
        <ele>795.40002441406</ele>
        <time>2017-05-28T11:45:38.000Z</time>
      </trkpt>
      <trkpt lat="45.90648" lon="6.1695">
        <ele>795</ele>
        <time>2017-05-28T11:45:39.000Z</time>
      </trkpt>
      <trkpt lat="45.90651" lon="6.1695">
        <ele>794.20001220703</ele>
        <time>2017-05-28T11:45:41.000Z</time>
      </trkpt>
      <trkpt lat="45.90656" lon="6.16945">
        <ele>793</ele>
        <time>2017-05-28T11:45:44.000Z</time>
      </trkpt>
      <trkpt lat="45.90667" lon="6.16936">
        <ele>791.20001220703</ele>
        <time>2017-05-28T11:45:51.000Z</time>
      </trkpt>
      <trkpt lat="45.90669" lon="6.16932">
        <ele>790.20001220703</ele>
        <time>2017-05-28T11:45:53.000Z</time>
      </trkpt>
      <trkpt lat="45.9067" lon="6.16931">
        <ele>789.59997558594</ele>
        <time>2017-05-28T11:45:54.000Z</time>
      </trkpt>
      <trkpt lat="45.90671" lon="6.16929">
        <ele>789.20001220703</ele>
        <time>2017-05-28T11:45:55.000Z</time>
      </trkpt>
      <trkpt lat="45.90673" lon="6.16925">
        <ele>789</ele>
        <time>2017-05-28T11:45:56.000Z</time>
      </trkpt>
      <trkpt lat="45.90675" lon="6.16923">
        <ele>788.59997558594</ele>
        <time>2017-05-28T11:45:57.000Z</time>
      </trkpt>
      <trkpt lat="45.9068" lon="6.16905">
        <ele>786.40002441406</ele>
        <time>2017-05-28T11:46:02.000Z</time>
      </trkpt>
      <trkpt lat="45.90691" lon="6.16879">
        <ele>783.20001220703</ele>
        <time>2017-05-28T11:46:10.000Z</time>
      </trkpt>
      <trkpt lat="45.90704" lon="6.16861">
        <ele>779.79998779297</ele>
        <time>2017-05-28T11:46:18.000Z</time>
      </trkpt>
      <trkpt lat="45.90718" lon="6.16839">
        <ele>776.79998779297</ele>
        <time>2017-05-28T11:46:26.000Z</time>
      </trkpt>
      <trkpt lat="45.90721" lon="6.16837">
        <ele>776.40002441406</ele>
        <time>2017-05-28T11:46:27.000Z</time>
      </trkpt>
      <trkpt lat="45.90723" lon="6.16836">
        <ele>776</ele>
        <time>2017-05-28T11:46:28.000Z</time>
      </trkpt>
      <trkpt lat="45.90725" lon="6.16834">
        <ele>775.40002441406</ele>
        <time>2017-05-28T11:46:29.000Z</time>
      </trkpt>
      <trkpt lat="45.90727" lon="6.16833">
        <ele>774.79998779297</ele>
        <time>2017-05-28T11:46:30.000Z</time>
      </trkpt>
      <trkpt lat="45.90728" lon="6.16833">
        <ele>774.40002441406</ele>
        <time>2017-05-28T11:46:31.000Z</time>
      </trkpt>
      <trkpt lat="45.90728" lon="6.16832">
        <ele>774</ele>
        <time>2017-05-28T11:46:32.000Z</time>
      </trkpt>
      <trkpt lat="45.90726" lon="6.1683">
        <ele>773.20001220703</ele>
        <time>2017-05-28T11:46:35.000Z</time>
      </trkpt>
      <trkpt lat="45.90713" lon="6.16826">
        <ele>770.20001220703</ele>
        <time>2017-05-28T11:46:44.000Z</time>
      </trkpt>
      <trkpt lat="45.90701" lon="6.16823">
        <ele>766.59997558594</ele>
        <time>2017-05-28T11:46:51.000Z</time>
      </trkpt>
      <trkpt lat="45.90689" lon="6.16828">
        <ele>763.40002441406</ele>
        <time>2017-05-28T11:46:59.000Z</time>
      </trkpt>
      <trkpt lat="45.90677" lon="6.16835">
        <ele>760.20001220703</ele>
        <time>2017-05-28T11:47:06.000Z</time>
      </trkpt>
      <trkpt lat="45.90675" lon="6.16838">
        <ele>759.40002441406</ele>
        <time>2017-05-28T11:47:08.000Z</time>
      </trkpt>
      <trkpt lat="45.90673" lon="6.16843">
        <ele>758.20001220703</ele>
        <time>2017-05-28T11:47:10.000Z</time>
      </trkpt>
      <trkpt lat="45.90673" lon="6.16844">
        <ele>757.79998779297</ele>
        <time>2017-05-28T11:47:11.000Z</time>
      </trkpt>
      <trkpt lat="45.90673" lon="6.16844">
        <ele>757.59997558594</ele>
        <time>2017-05-28T11:47:12.000Z</time>
      </trkpt>
      <trkpt lat="45.90673" lon="6.16842">
        <ele>757.59997558594</ele>
        <time>2017-05-28T11:47:13.000Z</time>
      </trkpt>
      <trkpt lat="45.90671" lon="6.16844">
        <ele>757.20001220703</ele>
        <time>2017-05-28T11:47:14.000Z</time>
      </trkpt>
      <trkpt lat="45.90676" lon="6.1684">
        <ele>754.79998779297</ele>
        <time>2017-05-28T11:47:22.000Z</time>
      </trkpt>
      <trkpt lat="45.90677" lon="6.16839">
        <ele>754.20001220703</ele>
        <time>2017-05-28T11:47:23.000Z</time>
      </trkpt>
      <trkpt lat="45.90678" lon="6.16838">
        <ele>753.79998779297</ele>
        <time>2017-05-28T11:47:24.000Z</time>
      </trkpt>
      <trkpt lat="45.90679" lon="6.16837">
        <ele>753.59997558594</ele>
        <time>2017-05-28T11:47:25.000Z</time>
      </trkpt>
      <trkpt lat="45.9068" lon="6.16836">
        <ele>753.20001220703</ele>
        <time>2017-05-28T11:47:26.000Z</time>
      </trkpt>
      <trkpt lat="45.90681" lon="6.16834">
        <ele>752.79998779297</ele>
        <time>2017-05-28T11:47:27.000Z</time>
      </trkpt>
      <trkpt lat="45.90687" lon="6.16828">
        <ele>751.20001220703</ele>
        <time>2017-05-28T11:47:31.000Z</time>
      </trkpt>
      <trkpt lat="45.90687" lon="6.16822">
        <ele>748</ele>
        <time>2017-05-28T11:47:38.000Z</time>
      </trkpt>
      <trkpt lat="45.90685" lon="6.16819">
        <ele>747.79998779297</ele>
        <time>2017-05-28T11:47:40.000Z</time>
      </trkpt>
      <trkpt lat="45.90683" lon="6.16817">
        <ele>747.20001220703</ele>
        <time>2017-05-28T11:47:41.000Z</time>
      </trkpt>
      <trkpt lat="45.90682" lon="6.16815">
        <ele>747</ele>
        <time>2017-05-28T11:47:42.000Z</time>
      </trkpt>
      <trkpt lat="45.90671" lon="6.16812">
        <ele>744.20001220703</ele>
        <time>2017-05-28T11:47:51.000Z</time>
      </trkpt>
      <trkpt lat="45.9067" lon="6.16812">
        <ele>744</ele>
        <time>2017-05-28T11:47:52.000Z</time>
      </trkpt>
      <trkpt lat="45.90666" lon="6.16811">
        <ele>743.59997558594</ele>
        <time>2017-05-28T11:47:55.000Z</time>
      </trkpt>
      <trkpt lat="45.90662" lon="6.16814">
        <ele>743.20001220703</ele>
        <time>2017-05-28T11:47:56.000Z</time>
      </trkpt>
      <trkpt lat="45.9066" lon="6.16814">
        <ele>742.79998779297</ele>
        <time>2017-05-28T11:47:57.000Z</time>
      </trkpt>
      <trkpt lat="45.9066" lon="6.16814">
        <ele>742.20001220703</ele>
        <time>2017-05-28T11:47:58.000Z</time>
      </trkpt>
      <trkpt lat="45.90661" lon="6.16813">
        <ele>741.79998779297</ele>
        <time>2017-05-28T11:47:59.000Z</time>
      </trkpt>
      <trkpt lat="45.90662" lon="6.16813">
        <ele>741.40002441406</ele>
        <time>2017-05-28T11:48:00.000Z</time>
      </trkpt>
      <trkpt lat="45.90663" lon="6.16813">
        <ele>741.20001220703</ele>
        <time>2017-05-28T11:48:01.000Z</time>
      </trkpt>
      <trkpt lat="45.90663" lon="6.16812">
        <ele>741</ele>
        <time>2017-05-28T11:48:02.000Z</time>
      </trkpt>
      <trkpt lat="45.90664" lon="6.16812">
        <ele>740.59997558594</ele>
        <time>2017-05-28T11:48:03.000Z</time>
      </trkpt>
      <trkpt lat="45.90675" lon="6.16805">
        <ele>737.40002441406</ele>
        <time>2017-05-28T11:48:14.000Z</time>
      </trkpt>
      <trkpt lat="45.90675" lon="6.16803">
        <ele>736.40002441406</ele>
        <time>2017-05-28T11:48:16.000Z</time>
      </trkpt>
      <trkpt lat="45.90673" lon="6.16802">
        <ele>735.79998779297</ele>
        <time>2017-05-28T11:48:17.000Z</time>
      </trkpt>
      <trkpt lat="45.90672" lon="6.16801">
        <ele>735.20001220703</ele>
        <time>2017-05-28T11:48:18.000Z</time>
      </trkpt>
      <trkpt lat="45.9067" lon="6.16799">
        <ele>735</ele>
        <time>2017-05-28T11:48:19.000Z</time>
      </trkpt>
      <trkpt lat="45.90669" lon="6.16797">
        <ele>734.59997558594</ele>
        <time>2017-05-28T11:48:20.000Z</time>
      </trkpt>
      <trkpt lat="45.90668" lon="6.16797">
        <ele>734.40002441406</ele>
        <time>2017-05-28T11:48:21.000Z</time>
      </trkpt>
      <trkpt lat="45.90666" lon="6.16796">
        <ele>734</ele>
        <time>2017-05-28T11:48:22.000Z</time>
      </trkpt>
      <trkpt lat="45.90655" lon="6.16795">
        <ele>731.20001220703</ele>
        <time>2017-05-28T11:48:28.000Z</time>
      </trkpt>
      <trkpt lat="45.90649" lon="6.16796">
        <ele>730</ele>
        <time>2017-05-28T11:48:31.000Z</time>
      </trkpt>
      <trkpt lat="45.90647" lon="6.168">
        <ele>729.20001220703</ele>
        <time>2017-05-28T11:48:33.000Z</time>
      </trkpt>
      <trkpt lat="45.90647" lon="6.168">
        <ele>728.79998779297</ele>
        <time>2017-05-28T11:48:34.000Z</time>
      </trkpt>
      <trkpt lat="45.90648" lon="6.168">
        <ele>728.40002441406</ele>
        <time>2017-05-28T11:48:35.000Z</time>
      </trkpt>
      <trkpt lat="45.90654" lon="6.16791">
        <ele>725.40002441406</ele>
        <time>2017-05-28T11:48:43.000Z</time>
      </trkpt>
      <trkpt lat="45.90655" lon="6.1679">
        <ele>725</ele>
        <time>2017-05-28T11:48:44.000Z</time>
      </trkpt>
      <trkpt lat="45.90664" lon="6.16774">
        <ele>722</ele>
        <time>2017-05-28T11:48:52.000Z</time>
      </trkpt>
      <trkpt lat="45.90681" lon="6.16765">
        <ele>719</ele>
        <time>2017-05-28T11:49:01.000Z</time>
      </trkpt>
      <trkpt lat="45.9069" lon="6.16764">
        <ele>715.59997558594</ele>
        <time>2017-05-28T11:49:06.000Z</time>
      </trkpt>
      <trkpt lat="45.90689" lon="6.16763">
        <ele>715.40002441406</ele>
        <time>2017-05-28T11:49:07.000Z</time>
      </trkpt>
      <trkpt lat="45.90688" lon="6.16762">
        <ele>715</ele>
        <time>2017-05-28T11:49:08.000Z</time>
      </trkpt>
      <trkpt lat="45.90687" lon="6.16762">
        <ele>714.40002441406</ele>
        <time>2017-05-28T11:49:09.000Z</time>
      </trkpt>
      <trkpt lat="45.90678" lon="6.16751">
        <ele>711.40002441406</ele>
        <time>2017-05-28T11:49:16.000Z</time>
      </trkpt>
      <trkpt lat="45.90663" lon="6.16742">
        <ele>708.40002441406</ele>
        <time>2017-05-28T11:49:25.000Z</time>
      </trkpt>
      <trkpt lat="45.90662" lon="6.16741">
        <ele>707.79998779297</ele>
        <time>2017-05-28T11:49:26.000Z</time>
      </trkpt>
      <trkpt lat="45.90661" lon="6.16741">
        <ele>707.20001220703</ele>
        <time>2017-05-28T11:49:27.000Z</time>
      </trkpt>
      <trkpt lat="45.90659" lon="6.1674">
        <ele>706.79998779297</ele>
        <time>2017-05-28T11:49:28.000Z</time>
      </trkpt>
      <trkpt lat="45.90655" lon="6.16738">
        <ele>705.20001220703</ele>
        <time>2017-05-28T11:49:32.000Z</time>
      </trkpt>
      <trkpt lat="45.90641" lon="6.1674">
        <ele>702</ele>
        <time>2017-05-28T11:49:40.000Z</time>
      </trkpt>
      <trkpt lat="45.9064" lon="6.1674">
        <ele>701.20001220703</ele>
        <time>2017-05-28T11:49:41.000Z</time>
      </trkpt>
      <trkpt lat="45.90637" lon="6.16742">
        <ele>700.59997558594</ele>
        <time>2017-05-28T11:49:42.000Z</time>
      </trkpt>
      <trkpt lat="45.90636" lon="6.16742">
        <ele>700.20001220703</ele>
        <time>2017-05-28T11:49:43.000Z</time>
      </trkpt>
      <trkpt lat="45.90636" lon="6.1674">
        <ele>699.59997558594</ele>
        <time>2017-05-28T11:49:44.000Z</time>
      </trkpt>
      <trkpt lat="45.90637" lon="6.16738">
        <ele>699.20001220703</ele>
        <time>2017-05-28T11:49:45.000Z</time>
      </trkpt>
      <trkpt lat="45.90637" lon="6.16736">
        <ele>698.79998779297</ele>
        <time>2017-05-28T11:49:46.000Z</time>
      </trkpt>
      <trkpt lat="45.90638" lon="6.16733">
        <ele>698.20001220703</ele>
        <time>2017-05-28T11:49:47.000Z</time>
      </trkpt>
      <trkpt lat="45.9064" lon="6.1673">
        <ele>697.59997558594</ele>
        <time>2017-05-28T11:49:48.000Z</time>
      </trkpt>
      <trkpt lat="45.90641" lon="6.16729">
        <ele>696.40002441406</ele>
        <time>2017-05-28T11:49:50.000Z</time>
      </trkpt>
      <trkpt lat="45.90638" lon="6.16725">
        <ele>695</ele>
        <time>2017-05-28T11:49:53.000Z</time>
      </trkpt>
      <trkpt lat="45.90637" lon="6.16724">
        <ele>694.40002441406</ele>
        <time>2017-05-28T11:49:54.000Z</time>
      </trkpt>
      <trkpt lat="45.90635" lon="6.16721">
        <ele>693.20001220703</ele>
        <time>2017-05-28T11:49:56.000Z</time>
      </trkpt>
      <trkpt lat="45.90622" lon="6.16718">
        <ele>690</ele>
        <time>2017-05-28T11:50:04.000Z</time>
      </trkpt>
      <trkpt lat="45.90612" lon="6.16725">
        <ele>687</ele>
        <time>2017-05-28T11:50:10.000Z</time>
      </trkpt>
      <trkpt lat="45.90611" lon="6.16725">
        <ele>686.40002441406</ele>
        <time>2017-05-28T11:50:11.000Z</time>
      </trkpt>
      <trkpt lat="45.90608" lon="6.16727">
        <ele>686</ele>
        <time>2017-05-28T11:50:12.000Z</time>
      </trkpt>
      <trkpt lat="45.90606" lon="6.16727">
        <ele>685.59997558594</ele>
        <time>2017-05-28T11:50:13.000Z</time>
      </trkpt>
      <trkpt lat="45.90612" lon="6.16707">
        <ele>682</ele>
        <time>2017-05-28T11:50:22.000Z</time>
      </trkpt>
      <trkpt lat="45.90619" lon="6.16696">
        <ele>679</ele>
        <time>2017-05-28T11:50:29.000Z</time>
      </trkpt>
      <trkpt lat="45.9062" lon="6.16694">
        <ele>678.59997558594</ele>
        <time>2017-05-28T11:50:30.000Z</time>
      </trkpt>
      <trkpt lat="45.90618" lon="6.16689">
        <ele>677.40002441406</ele>
        <time>2017-05-28T11:50:33.000Z</time>
      </trkpt>
      <trkpt lat="45.90617" lon="6.16688">
        <ele>677</ele>
        <time>2017-05-28T11:50:34.000Z</time>
      </trkpt>
      <trkpt lat="45.90603" lon="6.16678">
        <ele>674</ele>
        <time>2017-05-28T11:50:42.000Z</time>
      </trkpt>
      <trkpt lat="45.90595" lon="6.16681">
        <ele>671.59997558594</ele>
        <time>2017-05-28T11:50:48.000Z</time>
      </trkpt>
      <trkpt lat="45.90592" lon="6.16679">
        <ele>670.59997558594</ele>
        <time>2017-05-28T11:50:50.000Z</time>
      </trkpt>
      <trkpt lat="45.9059" lon="6.1668">
        <ele>670.20001220703</ele>
        <time>2017-05-28T11:50:51.000Z</time>
      </trkpt>
      <trkpt lat="45.90589" lon="6.16679">
        <ele>669.40002441406</ele>
        <time>2017-05-28T11:50:52.000Z</time>
      </trkpt>
      <trkpt lat="45.9058" lon="6.16674">
        <ele>666.40002441406</ele>
        <time>2017-05-28T11:50:58.000Z</time>
      </trkpt>
      <trkpt lat="45.90578" lon="6.16672">
        <ele>666.20001220703</ele>
        <time>2017-05-28T11:50:59.000Z</time>
      </trkpt>
      <trkpt lat="45.90566" lon="6.16665">
        <ele>663</ele>
        <time>2017-05-28T11:51:04.000Z</time>
      </trkpt>
      <trkpt lat="45.90555" lon="6.16665">
        <ele>660</ele>
        <time>2017-05-28T11:51:09.000Z</time>
      </trkpt>
      <trkpt lat="45.90547" lon="6.16661">
        <ele>657.40002441406</ele>
        <time>2017-05-28T11:51:14.000Z</time>
      </trkpt>
      <trkpt lat="45.90533" lon="6.16657">
        <ele>654.20001220703</ele>
        <time>2017-05-28T11:51:22.000Z</time>
      </trkpt>
      <trkpt lat="45.90529" lon="6.16657">
        <ele>652.79998779297</ele>
        <time>2017-05-28T11:51:24.000Z</time>
      </trkpt>
      <trkpt lat="45.90529" lon="6.16656">
        <ele>652</ele>
        <time>2017-05-28T11:51:25.000Z</time>
      </trkpt>
      <trkpt lat="45.90528" lon="6.16657">
        <ele>650.59997558594</ele>
        <time>2017-05-28T11:51:28.000Z</time>
      </trkpt>
      <trkpt lat="45.9053" lon="6.16658">
        <ele>650.40002441406</ele>
        <time>2017-05-28T11:51:29.000Z</time>
      </trkpt>
      <trkpt lat="45.90531" lon="6.16658">
        <ele>650.20001220703</ele>
        <time>2017-05-28T11:51:30.000Z</time>
      </trkpt>
      <trkpt lat="45.90533" lon="6.16659">
        <ele>650</ele>
        <time>2017-05-28T11:51:31.000Z</time>
      </trkpt>
      <trkpt lat="45.90535" lon="6.16659">
        <ele>649.79998779297</ele>
        <time>2017-05-28T11:51:32.000Z</time>
      </trkpt>
      <trkpt lat="45.90539" lon="6.16655">
        <ele>647.40002441406</ele>
        <time>2017-05-28T11:51:37.000Z</time>
      </trkpt>
      <trkpt lat="45.90538" lon="6.16654">
        <ele>647.20001220703</ele>
        <time>2017-05-28T11:51:38.000Z</time>
      </trkpt>
      <trkpt lat="45.90536" lon="6.16652">
        <ele>646.59997558594</ele>
        <time>2017-05-28T11:51:39.000Z</time>
      </trkpt>
      <trkpt lat="45.90534" lon="6.16652">
        <ele>646.20001220703</ele>
        <time>2017-05-28T11:51:40.000Z</time>
      </trkpt>
      <trkpt lat="45.90532" lon="6.16651">
        <ele>645.79998779297</ele>
        <time>2017-05-28T11:51:41.000Z</time>
      </trkpt>
      <trkpt lat="45.9053" lon="6.1665">
        <ele>645.40002441406</ele>
        <time>2017-05-28T11:51:42.000Z</time>
      </trkpt>
      <trkpt lat="45.90517" lon="6.16647">
        <ele>642.20001220703</ele>
        <time>2017-05-28T11:51:50.000Z</time>
      </trkpt>
      <trkpt lat="45.90505" lon="6.16644">
        <ele>639.20001220703</ele>
        <time>2017-05-28T11:51:57.000Z</time>
      </trkpt>
      <trkpt lat="45.90499" lon="6.16642">
        <ele>637.59997558594</ele>
        <time>2017-05-28T11:52:00.000Z</time>
      </trkpt>
      <trkpt lat="45.90499" lon="6.16639">
        <ele>636.79998779297</ele>
        <time>2017-05-28T11:52:02.000Z</time>
      </trkpt>
      <trkpt lat="45.90499" lon="6.16637">
        <ele>636.20001220703</ele>
        <time>2017-05-28T11:52:03.000Z</time>
      </trkpt>
      <trkpt lat="45.90499" lon="6.16636">
        <ele>635.59997558594</ele>
        <time>2017-05-28T11:52:04.000Z</time>
      </trkpt>
      <trkpt lat="45.90497" lon="6.16634">
        <ele>634.59997558594</ele>
        <time>2017-05-28T11:52:05.000Z</time>
      </trkpt>
      <trkpt lat="45.90496" lon="6.16632">
        <ele>634</ele>
        <time>2017-05-28T11:52:06.000Z</time>
      </trkpt>
      <trkpt lat="45.90494" lon="6.16631">
        <ele>633.40002441406</ele>
        <time>2017-05-28T11:52:07.000Z</time>
      </trkpt>
      <trkpt lat="45.90484" lon="6.16623">
        <ele>632.20001220703</ele>
        <time>2017-05-28T11:52:12.000Z</time>
      </trkpt>
      <trkpt lat="45.9047" lon="6.16611">
        <ele>629</ele>
        <time>2017-05-28T11:52:20.000Z</time>
      </trkpt>
      <trkpt lat="45.90472" lon="6.1661">
        <ele>628.40002441406</ele>
        <time>2017-05-28T11:52:21.000Z</time>
      </trkpt>
      <trkpt lat="45.90483" lon="6.166">
        <ele>625.20001220703</ele>
        <time>2017-05-28T11:52:30.000Z</time>
      </trkpt>
      <trkpt lat="45.90494" lon="6.16603">
        <ele>623</ele>
        <time>2017-05-28T11:52:37.000Z</time>
      </trkpt>
      <trkpt lat="45.90494" lon="6.16604">
        <ele>622.79998779297</ele>
        <time>2017-05-28T11:52:38.000Z</time>
      </trkpt>
      <trkpt lat="45.90495" lon="6.16605">
        <ele>622.20001220703</ele>
        <time>2017-05-28T11:52:39.000Z</time>
      </trkpt>
      <trkpt lat="45.90495" lon="6.16605">
        <ele>621.79998779297</ele>
        <time>2017-05-28T11:52:40.000Z</time>
      </trkpt>
      <trkpt lat="45.90496" lon="6.16605">
        <ele>621.20001220703</ele>
        <time>2017-05-28T11:52:41.000Z</time>
      </trkpt>
      <trkpt lat="45.90497" lon="6.16605">
        <ele>620.79998779297</ele>
        <time>2017-05-28T11:52:42.000Z</time>
      </trkpt>
      <trkpt lat="45.90498" lon="6.16605">
        <ele>620.40002441406</ele>
        <time>2017-05-28T11:52:43.000Z</time>
      </trkpt>
      <trkpt lat="45.905" lon="6.16605">
        <ele>620.20001220703</ele>
        <time>2017-05-28T11:52:44.000Z</time>
      </trkpt>
      <trkpt lat="45.90505" lon="6.16606">
        <ele>618.20001220703</ele>
        <time>2017-05-28T11:52:48.000Z</time>
      </trkpt>
      <trkpt lat="45.90506" lon="6.16607">
        <ele>617.79998779297</ele>
        <time>2017-05-28T11:52:49.000Z</time>
      </trkpt>
      <trkpt lat="45.90509" lon="6.16604">
        <ele>616.20001220703</ele>
        <time>2017-05-28T11:52:54.000Z</time>
      </trkpt>
      <trkpt lat="45.90512" lon="6.16599">
        <ele>614.79998779297</ele>
        <time>2017-05-28T11:52:59.000Z</time>
      </trkpt>
      <trkpt lat="45.90513" lon="6.16598">
        <ele>614</ele>
        <time>2017-05-28T11:53:00.000Z</time>
      </trkpt>
      <trkpt lat="45.90514" lon="6.16597">
        <ele>613.59997558594</ele>
        <time>2017-05-28T11:53:01.000Z</time>
      </trkpt>
      <trkpt lat="45.90516" lon="6.16597">
        <ele>613.20001220703</ele>
        <time>2017-05-28T11:53:02.000Z</time>
      </trkpt>
      <trkpt lat="45.90517" lon="6.16596">
        <ele>612.59997558594</ele>
        <time>2017-05-28T11:53:03.000Z</time>
      </trkpt>
      <trkpt lat="45.90518" lon="6.16596">
        <ele>612.20001220703</ele>
        <time>2017-05-28T11:53:04.000Z</time>
      </trkpt>
      <trkpt lat="45.90527" lon="6.16589">
        <ele>609</ele>
        <time>2017-05-28T11:53:10.000Z</time>
      </trkpt>
      <trkpt lat="45.90532" lon="6.16585">
        <ele>607.79998779297</ele>
        <time>2017-05-28T11:53:13.000Z</time>
      </trkpt>
      <trkpt lat="45.90533" lon="6.16586">
        <ele>607.40002441406</ele>
        <time>2017-05-28T11:53:14.000Z</time>
      </trkpt>
      <trkpt lat="45.90537" lon="6.16586">
        <ele>606</ele>
        <time>2017-05-28T11:53:20.000Z</time>
      </trkpt>
      <trkpt lat="45.90539" lon="6.16583">
        <ele>605.40002441406</ele>
        <time>2017-05-28T11:53:22.000Z</time>
      </trkpt>
      <trkpt lat="45.90538" lon="6.16578">
        <ele>602.20001220703</ele>
        <time>2017-05-28T11:53:30.000Z</time>
      </trkpt>
      <trkpt lat="45.90533" lon="6.16569">
        <ele>598.79998779297</ele>
        <time>2017-05-28T11:53:40.000Z</time>
      </trkpt>
      <trkpt lat="45.90533" lon="6.16568">
        <ele>598</ele>
        <time>2017-05-28T11:53:42.000Z</time>
      </trkpt>
      <trkpt lat="45.90532" lon="6.16554">
        <ele>594.79998779297</ele>
        <time>2017-05-28T11:53:53.000Z</time>
      </trkpt>
      <trkpt lat="45.9053" lon="6.16548">
        <ele>591.40002441406</ele>
        <time>2017-05-28T11:54:05.000Z</time>
      </trkpt>
      <trkpt lat="45.90531" lon="6.16546">
        <ele>590.59997558594</ele>
        <time>2017-05-28T11:54:09.000Z</time>
      </trkpt>
      <trkpt lat="45.90534" lon="6.16543">
        <ele>587.59997558594</ele>
        <time>2017-05-28T11:54:16.000Z</time>
      </trkpt>
      <trkpt lat="45.90535" lon="6.16541">
        <ele>585.40002441406</ele>
        <time>2017-05-28T11:54:22.000Z</time>
      </trkpt>
      <trkpt lat="45.90534" lon="6.1654">
        <ele>585.20001220703</ele>
        <time>2017-05-28T11:54:23.000Z</time>
      </trkpt>
      <trkpt lat="45.90528" lon="6.1654">
        <ele>583.79998779297</ele>
        <time>2017-05-28T11:54:31.000Z</time>
      </trkpt>
      <trkpt lat="45.90526" lon="6.16539">
        <ele>583.79998779297</ele>
        <time>2017-05-28T11:54:32.000Z</time>
      </trkpt>
      <trkpt lat="45.90511" lon="6.16532">
        <ele>580.59997558594</ele>
        <time>2017-05-28T11:54:45.000Z</time>
      </trkpt>
      <trkpt lat="45.90503" lon="6.16531">
        <ele>578.20001220703</ele>
        <time>2017-05-28T11:54:51.000Z</time>
      </trkpt>
      <trkpt lat="45.90501" lon="6.1653">
        <ele>577.40002441406</ele>
        <time>2017-05-28T11:54:54.000Z</time>
      </trkpt>
      <trkpt lat="45.905" lon="6.1653">
        <ele>577</ele>
        <time>2017-05-28T11:54:55.000Z</time>
      </trkpt>
      <trkpt lat="45.90498" lon="6.16529">
        <ele>576.79998779297</ele>
        <time>2017-05-28T11:54:56.000Z</time>
      </trkpt>
      <trkpt lat="45.90494" lon="6.16528">
        <ele>575.40002441406</ele>
        <time>2017-05-28T11:54:59.000Z</time>
      </trkpt>
      <trkpt lat="45.90482" lon="6.16523">
        <ele>572.40002441406</ele>
        <time>2017-05-28T11:55:09.000Z</time>
      </trkpt>
      <trkpt lat="45.90475" lon="6.16518">
        <ele>570.79998779297</ele>
        <time>2017-05-28T11:55:16.000Z</time>
      </trkpt>
      <trkpt lat="45.90473" lon="6.16516">
        <ele>571</ele>
        <time>2017-05-28T11:55:17.000Z</time>
      </trkpt>
      <trkpt lat="45.90472" lon="6.16514">
        <ele>570.79998779297</ele>
        <time>2017-05-28T11:55:18.000Z</time>
      </trkpt>
      <trkpt lat="45.90459" lon="6.16494">
        <ele>569.79998779297</ele>
        <time>2017-05-28T11:55:34.000Z</time>
      </trkpt>
      <trkpt lat="45.90459" lon="6.16494">
        <ele>569.79998779297</ele>
        <time>2017-05-28T11:55:35.000Z</time>
      </trkpt>
      <trkpt lat="45.90456" lon="6.16493">
        <ele>567</ele>
        <time>2017-05-28T11:55:46.000Z</time>
      </trkpt>
      <trkpt lat="45.90458" lon="6.16493">
        <ele>567</ele>
        <time>2017-05-28T11:55:47.000Z</time>
      </trkpt>
      <trkpt lat="45.90459" lon="6.16494">
        <ele>566.79998779297</ele>
        <time>2017-05-28T11:55:48.000Z</time>
      </trkpt>
      <trkpt lat="45.90462" lon="6.16496">
        <ele>565.79998779297</ele>
        <time>2017-05-28T11:55:50.000Z</time>
      </trkpt>
      <trkpt lat="45.90462" lon="6.16494">
        <ele>564.79998779297</ele>
        <time>2017-05-28T11:55:52.000Z</time>
      </trkpt>
      <trkpt lat="45.90461" lon="6.16492">
        <ele>564.59997558594</ele>
        <time>2017-05-28T11:55:53.000Z</time>
      </trkpt>
      <trkpt lat="45.90459" lon="6.1649">
        <ele>564.40002441406</ele>
        <time>2017-05-28T11:55:54.000Z</time>
      </trkpt>
      <trkpt lat="45.90458" lon="6.16489">
        <ele>564</ele>
        <time>2017-05-28T11:55:55.000Z</time>
      </trkpt>
      <trkpt lat="45.90458" lon="6.16487">
        <ele>563.59997558594</ele>
        <time>2017-05-28T11:55:56.000Z</time>
      </trkpt>
      <trkpt lat="45.90457" lon="6.16485">
        <ele>563</ele>
        <time>2017-05-28T11:55:57.000Z</time>
      </trkpt>
      <trkpt lat="45.90443" lon="6.16469">
        <ele>559.79998779297</ele>
        <time>2017-05-28T11:56:05.000Z</time>
      </trkpt>
      <trkpt lat="45.90434" lon="6.16456">
        <ele>556.59997558594</ele>
        <time>2017-05-28T11:56:11.000Z</time>
      </trkpt>
      <trkpt lat="45.90428" lon="6.16452">
        <ele>554.79998779297</ele>
        <time>2017-05-28T11:56:16.000Z</time>
      </trkpt>
      <trkpt lat="45.90427" lon="6.1645">
        <ele>554.59997558594</ele>
        <time>2017-05-28T11:56:17.000Z</time>
      </trkpt>
      <trkpt lat="45.90426" lon="6.16449">
        <ele>554.40002441406</ele>
        <time>2017-05-28T11:56:18.000Z</time>
      </trkpt>
      <trkpt lat="45.90426" lon="6.16447">
        <ele>554</ele>
        <time>2017-05-28T11:56:19.000Z</time>
      </trkpt>
      <trkpt lat="45.90426" lon="6.16445">
        <ele>553.40002441406</ele>
        <time>2017-05-28T11:56:21.000Z</time>
      </trkpt>
      <trkpt lat="45.90428" lon="6.16444">
        <ele>553.20001220703</ele>
        <time>2017-05-28T11:56:22.000Z</time>
      </trkpt>
      <trkpt lat="45.90438" lon="6.16438">
        <ele>550</ele>
        <time>2017-05-28T11:56:30.000Z</time>
      </trkpt>
      <trkpt lat="45.90449" lon="6.16435">
        <ele>546.79998779297</ele>
        <time>2017-05-28T11:56:37.000Z</time>
      </trkpt>
      <trkpt lat="45.90452" lon="6.16434">
        <ele>546</ele>
        <time>2017-05-28T11:56:39.000Z</time>
      </trkpt>
      <trkpt lat="45.90461" lon="6.16434">
        <ele>544.40002441406</ele>
        <time>2017-05-28T11:56:44.000Z</time>
      </trkpt>
      <trkpt lat="45.90462" lon="6.16432">
        <ele>543</ele>
        <time>2017-05-28T11:56:47.000Z</time>
      </trkpt>
      <trkpt lat="45.9046" lon="6.16431">
        <ele>542.59997558594</ele>
        <time>2017-05-28T11:56:48.000Z</time>
      </trkpt>
      <trkpt lat="45.90459" lon="6.16429">
        <ele>542.40002441406</ele>
        <time>2017-05-28T11:56:49.000Z</time>
      </trkpt>
      <trkpt lat="45.90454" lon="6.16418">
        <ele>539.40002441406</ele>
        <time>2017-05-28T11:56:55.000Z</time>
      </trkpt>
      <trkpt lat="45.90446" lon="6.16407">
        <ele>535.79998779297</ele>
        <time>2017-05-28T11:57:02.000Z</time>
      </trkpt>
      <trkpt lat="45.90446" lon="6.16407">
        <ele>535.20001220703</ele>
        <time>2017-05-28T11:57:03.000Z</time>
      </trkpt>
      <trkpt lat="45.90446" lon="6.16406">
        <ele>534.79998779297</ele>
        <time>2017-05-28T11:57:04.000Z</time>
      </trkpt>
      <trkpt lat="45.90462" lon="6.16404">
        <ele>531.40002441406</ele>
        <time>2017-05-28T11:57:13.000Z</time>
      </trkpt>
      <trkpt lat="45.90484" lon="6.164">
        <ele>528.20001220703</ele>
        <time>2017-05-28T11:57:22.000Z</time>
      </trkpt>
      <trkpt lat="45.90499" lon="6.164">
        <ele>526.59997558594</ele>
        <time>2017-05-28T11:57:31.000Z</time>
      </trkpt>
      <trkpt lat="45.90501" lon="6.16401">
        <ele>526.59997558594</ele>
        <time>2017-05-28T11:57:32.000Z</time>
      </trkpt>
      <trkpt lat="45.90503" lon="6.16402">
        <ele>526.59997558594</ele>
        <time>2017-05-28T11:57:33.000Z</time>
      </trkpt>
      <trkpt lat="45.90504" lon="6.16402">
        <ele>526.40002441406</ele>
        <time>2017-05-28T11:57:34.000Z</time>
      </trkpt>
      <trkpt lat="45.90506" lon="6.16402">
        <ele>526</ele>
        <time>2017-05-28T11:57:35.000Z</time>
      </trkpt>
      <trkpt lat="45.90507" lon="6.16401">
        <ele>525.79998779297</ele>
        <time>2017-05-28T11:57:36.000Z</time>
      </trkpt>
      <trkpt lat="45.90508" lon="6.164">
        <ele>525</ele>
        <time>2017-05-28T11:57:37.000Z</time>
      </trkpt>
      <trkpt lat="45.90509" lon="6.16399">
        <ele>524.59997558594</ele>
        <time>2017-05-28T11:57:38.000Z</time>
      </trkpt>
      <trkpt lat="45.90508" lon="6.16398">
        <ele>524.40002441406</ele>
        <time>2017-05-28T11:57:39.000Z</time>
      </trkpt>
      <trkpt lat="45.90506" lon="6.16397">
        <ele>524.20001220703</ele>
        <time>2017-05-28T11:57:40.000Z</time>
      </trkpt>
      <trkpt lat="45.90505" lon="6.16396">
        <ele>523.59997558594</ele>
        <time>2017-05-28T11:57:41.000Z</time>
      </trkpt>
      <trkpt lat="45.90494" lon="6.16388">
        <ele>520</ele>
        <time>2017-05-28T11:57:49.000Z</time>
      </trkpt>
      <trkpt lat="45.9048" lon="6.16375">
        <ele>516.79998779297</ele>
        <time>2017-05-28T11:57:57.000Z</time>
      </trkpt>
      <trkpt lat="45.90475" lon="6.16372">
        <ele>515.79998779297</ele>
        <time>2017-05-28T11:57:59.000Z</time>
      </trkpt>
      <trkpt lat="45.90474" lon="6.16371">
        <ele>515.40002441406</ele>
        <time>2017-05-28T11:58:00.000Z</time>
      </trkpt>
      <trkpt lat="45.90473" lon="6.16369">
        <ele>514.40002441406</ele>
        <time>2017-05-28T11:58:01.000Z</time>
      </trkpt>
      <trkpt lat="45.90471" lon="6.16366">
        <ele>513.59997558594</ele>
        <time>2017-05-28T11:58:02.000Z</time>
      </trkpt>
      <trkpt lat="45.90469" lon="6.16364">
        <ele>513</ele>
        <time>2017-05-28T11:58:03.000Z</time>
      </trkpt>
      <trkpt lat="45.90467" lon="6.16361">
        <ele>512.40002441406</ele>
        <time>2017-05-28T11:58:04.000Z</time>
      </trkpt>
      <trkpt lat="45.90466" lon="6.16358">
        <ele>511.60000610352</ele>
        <time>2017-05-28T11:58:05.000Z</time>
      </trkpt>
      <trkpt lat="45.90461" lon="6.16349">
        <ele>508.39999389648</ele>
        <time>2017-05-28T11:58:10.000Z</time>
      </trkpt>
      <trkpt lat="45.9046" lon="6.16344">
        <ele>507.39999389648</ele>
        <time>2017-05-28T11:58:12.000Z</time>
      </trkpt>
      <trkpt lat="45.9046" lon="6.16342">
        <ele>506.60000610352</ele>
        <time>2017-05-28T11:58:13.000Z</time>
      </trkpt>
      <trkpt lat="45.9046" lon="6.16337">
        <ele>505.79998779297</ele>
        <time>2017-05-28T11:58:15.000Z</time>
      </trkpt>
      <trkpt lat="45.90459" lon="6.1633">
        <ele>503.20001220703</ele>
        <time>2017-05-28T11:58:19.000Z</time>
      </trkpt>
      <trkpt lat="45.90459" lon="6.16327">
        <ele>502.79998779297</ele>
        <time>2017-05-28T11:58:20.000Z</time>
      </trkpt>
      <trkpt lat="45.90459" lon="6.16325">
        <ele>502.20001220703</ele>
        <time>2017-05-28T11:58:21.000Z</time>
      </trkpt>
      <trkpt lat="45.90458" lon="6.16321">
        <ele>501.20001220703</ele>
        <time>2017-05-28T11:58:22.000Z</time>
      </trkpt>
      <trkpt lat="45.90458" lon="6.16318">
        <ele>500.60000610352</ele>
        <time>2017-05-28T11:58:23.000Z</time>
      </trkpt>
      <trkpt lat="45.90458" lon="6.16316">
        <ele>500.20001220703</ele>
        <time>2017-05-28T11:58:24.000Z</time>
      </trkpt>
      <trkpt lat="45.90459" lon="6.16313">
        <ele>499.39999389648</ele>
        <time>2017-05-28T11:58:25.000Z</time>
      </trkpt>
      <trkpt lat="45.90459" lon="6.16309">
        <ele>498.79998779297</ele>
        <time>2017-05-28T11:58:26.000Z</time>
      </trkpt>
      <trkpt lat="45.9046" lon="6.1629">
        <ele>495.79998779297</ele>
        <time>2017-05-28T11:58:32.000Z</time>
      </trkpt>
      <trkpt lat="45.9046" lon="6.16277">
        <ele>493.60000610352</ele>
        <time>2017-05-28T11:58:36.000Z</time>
      </trkpt>
      <trkpt lat="45.9046" lon="6.16274">
        <ele>492.79998779297</ele>
        <time>2017-05-28T11:58:37.000Z</time>
      </trkpt>
      <trkpt lat="45.9046" lon="6.16255">
        <ele>489.60000610352</ele>
        <time>2017-05-28T11:58:42.000Z</time>
      </trkpt>
      <trkpt lat="45.90458" lon="6.16226">
        <ele>486.39999389648</ele>
        <time>2017-05-28T11:58:48.000Z</time>
      </trkpt>
      <trkpt lat="45.90454" lon="6.16206">
        <ele>485.39999389648</ele>
        <time>2017-05-28T11:58:53.000Z</time>
      </trkpt>
      <trkpt lat="45.90454" lon="6.16202">
        <ele>485.20001220703</ele>
        <time>2017-05-28T11:58:54.000Z</time>
      </trkpt>
      <trkpt lat="45.90454" lon="6.16198">
        <ele>484</ele>
        <time>2017-05-28T11:58:55.000Z</time>
      </trkpt>
      <trkpt lat="45.90454" lon="6.16194">
        <ele>482.20001220703</ele>
        <time>2017-05-28T11:58:56.000Z</time>
      </trkpt>
      <trkpt lat="45.90454" lon="6.1619">
        <ele>481.39999389648</ele>
        <time>2017-05-28T11:58:57.000Z</time>
      </trkpt>
      <trkpt lat="45.90452" lon="6.16186">
        <ele>480.60000610352</ele>
        <time>2017-05-28T11:58:58.000Z</time>
      </trkpt>
      <trkpt lat="45.90451" lon="6.16183">
        <ele>479.79998779297</ele>
        <time>2017-05-28T11:58:59.000Z</time>
      </trkpt>
      <trkpt lat="45.90442" lon="6.16167">
        <ele>476.39999389648</ele>
        <time>2017-05-28T11:59:05.000Z</time>
      </trkpt>
      <trkpt lat="45.90434" lon="6.16149">
        <ele>473</ele>
        <time>2017-05-28T11:59:11.000Z</time>
      </trkpt>
      <trkpt lat="45.90423" lon="6.16131">
        <ele>469.60000610352</ele>
        <time>2017-05-28T11:59:17.000Z</time>
      </trkpt>
      <trkpt lat="45.90413" lon="6.16108">
        <ele>466.39999389648</ele>
        <time>2017-05-28T11:59:24.000Z</time>
      </trkpt>
      <trkpt lat="45.90407" lon="6.16088">
        <ele>463.20001220703</ele>
        <time>2017-05-28T11:59:30.000Z</time>
      </trkpt>
      <trkpt lat="45.90398" lon="6.16064">
        <ele>460</ele>
        <time>2017-05-28T11:59:37.000Z</time>
      </trkpt>
      <trkpt lat="45.90391" lon="6.16043">
        <ele>458.20001220703</ele>
        <time>2017-05-28T11:59:42.000Z</time>
      </trkpt>
      <trkpt lat="45.90387" lon="6.16014">
        <ele>454.79998779297</ele>
        <time>2017-05-28T11:59:49.000Z</time>
      </trkpt>
      <trkpt lat="45.90388" lon="6.1601">
        <ele>454.20001220703</ele>
        <time>2017-05-28T11:59:51.000Z</time>
      </trkpt>
      <trkpt lat="45.90389" lon="6.16008">
        <ele>453.20001220703</ele>
        <time>2017-05-28T11:59:53.000Z</time>
      </trkpt>
      <trkpt lat="45.90395" lon="6.16002">
        <ele>452</ele>
        <time>2017-05-28T12:00:19.000Z</time>
      </trkpt>
      <trkpt lat="45.90394" lon="6.16005">
        <ele>452</ele>
        <time>2017-05-28T12:01:09.000Z</time>
      </trkpt>
      <trkpt lat="45.904" lon="6.16004">
        <ele>452.20001220703</ele>
        <time>2017-05-28T12:02:51.000Z</time>
      </trkpt>
      <trkpt lat="45.90397" lon="6.15996">
        <ele>451.60000610352</ele>
        <time>2017-05-28T12:04:26.000Z</time>
      </trkpt>
      <trkpt lat="45.90396" lon="6.15994">
        <ele>451.79998779297</ele>
        <time>2017-05-28T12:04:27.000Z</time>
      </trkpt>
      <trkpt lat="45.90395" lon="6.15993">
        <ele>451.79998779297</ele>
        <time>2017-05-28T12:04:28.000Z</time>
      </trkpt>
      <trkpt lat="45.90394" lon="6.15992">
        <ele>451.60000610352</ele>
        <time>2017-05-28T12:04:29.000Z</time>
      </trkpt>
      <trkpt lat="45.90393" lon="6.15991">
        <ele>451.60000610352</ele>
        <time>2017-05-28T12:04:30.000Z</time>
      </trkpt>
      <trkpt lat="45.90392" lon="6.1599">
        <ele>451.39999389648</ele>
        <time>2017-05-28T12:04:31.000Z</time>
      </trkpt>
      <trkpt lat="45.90391" lon="6.15988">
        <ele>451.20001220703</ele>
        <time>2017-05-28T12:04:32.000Z</time>
      </trkpt>
      <trkpt lat="45.9039" lon="6.15986">
        <ele>450.79998779297</ele>
        <time>2017-05-28T12:04:33.000Z</time>
      </trkpt>
      <trkpt lat="45.90389" lon="6.15984">
        <ele>450.39999389648</ele>
        <time>2017-05-28T12:04:34.000Z</time>
      </trkpt>
      <trkpt lat="45.90388" lon="6.15979">
        <ele>450.39999389648</ele>
        <time>2017-05-28T12:04:36.000Z</time>
      </trkpt>
      <trkpt lat="45.90389" lon="6.15977">
        <ele>450.39999389648</ele>
        <time>2017-05-28T12:04:37.000Z</time>
      </trkpt>
      <trkpt lat="45.9039" lon="6.15975">
        <ele>450.39999389648</ele>
        <time>2017-05-28T12:04:38.000Z</time>
      </trkpt>
      <trkpt lat="45.90392" lon="6.15972">
        <ele>450.39999389648</ele>
        <time>2017-05-28T12:04:39.000Z</time>
      </trkpt>
      <trkpt lat="45.90394" lon="6.15971">
        <ele>450.39999389648</ele>
        <time>2017-05-28T12:04:40.000Z</time>
      </trkpt>
      <trkpt lat="45.90396" lon="6.1597">
        <ele>450.60000610352</ele>
        <time>2017-05-28T12:04:41.000Z</time>
      </trkpt>
      <trkpt lat="45.90399" lon="6.15969">
        <ele>450.39999389648</ele>
        <time>2017-05-28T12:04:42.000Z</time>
      </trkpt>
      <trkpt lat="45.904" lon="6.15967">
        <ele>450.20001220703</ele>
        <time>2017-05-28T12:04:43.000Z</time>
      </trkpt>
      <trkpt lat="45.90402" lon="6.15963">
        <ele>450</ele>
        <time>2017-05-28T12:04:44.000Z</time>
      </trkpt>
      <trkpt lat="45.90403" lon="6.1596">
        <ele>450</ele>
        <time>2017-05-28T12:04:45.000Z</time>
      </trkpt>
      <trkpt lat="45.90405" lon="6.15958">
        <ele>450</ele>
        <time>2017-05-28T12:04:46.000Z</time>
      </trkpt>
      <trkpt lat="45.90407" lon="6.15957">
        <ele>450</ele>
        <time>2017-05-28T12:04:47.000Z</time>
      </trkpt>
      <trkpt lat="45.90409" lon="6.15955">
        <ele>449.60000610352</ele>
        <time>2017-05-28T12:04:48.000Z</time>
      </trkpt>
      <trkpt lat="45.90411" lon="6.15953">
        <ele>449.79998779297</ele>
        <time>2017-05-28T12:04:49.000Z</time>
      </trkpt>
      <trkpt lat="45.90413" lon="6.15951">
        <ele>450</ele>
        <time>2017-05-28T12:04:50.000Z</time>
      </trkpt>
      <trkpt lat="45.90416" lon="6.1595">
        <ele>450</ele>
        <time>2017-05-28T12:04:51.000Z</time>
      </trkpt>
      <trkpt lat="45.90418" lon="6.15948">
        <ele>450</ele>
        <time>2017-05-28T12:04:52.000Z</time>
      </trkpt>
      <trkpt lat="45.90437" lon="6.15935">
        <ele>449.79998779297</ele>
        <time>2017-05-28T12:05:00.000Z</time>
      </trkpt>
      <trkpt lat="45.90455" lon="6.15921">
        <ele>449.79998779297</ele>
        <time>2017-05-28T12:05:08.000Z</time>
      </trkpt>
      <trkpt lat="45.90472" lon="6.15903">
        <ele>449.79998779297</ele>
        <time>2017-05-28T12:05:17.000Z</time>
      </trkpt>
      <trkpt lat="45.90488" lon="6.15885">
        <ele>449.39999389648</ele>
        <time>2017-05-28T12:05:25.000Z</time>
      </trkpt>
      <trkpt lat="45.90504" lon="6.15867">
        <ele>448.79998779297</ele>
        <time>2017-05-28T12:05:33.000Z</time>
      </trkpt>
      <trkpt lat="45.90516" lon="6.15847">
        <ele>449.20001220703</ele>
        <time>2017-05-28T12:05:41.000Z</time>
      </trkpt>
      <trkpt lat="45.90526" lon="6.15822">
        <ele>449.39999389648</ele>
        <time>2017-05-28T12:05:49.000Z</time>
      </trkpt>
      <trkpt lat="45.90532" lon="6.15795">
        <ele>449.39999389648</ele>
        <time>2017-05-28T12:05:57.000Z</time>
      </trkpt>
      <trkpt lat="45.90541" lon="6.1577">
        <ele>449.60000610352</ele>
        <time>2017-05-28T12:06:05.000Z</time>
      </trkpt>
      <trkpt lat="45.90553" lon="6.15748">
        <ele>448.79998779297</ele>
        <time>2017-05-28T12:06:12.000Z</time>
      </trkpt>
      <trkpt lat="45.90567" lon="6.15724">
        <ele>449.20001220703</ele>
        <time>2017-05-28T12:06:20.000Z</time>
      </trkpt>
      <trkpt lat="45.9058" lon="6.15703">
        <ele>449.20001220703</ele>
        <time>2017-05-28T12:06:28.000Z</time>
      </trkpt>
      <trkpt lat="45.90588" lon="6.15674">
        <ele>449.60000610352</ele>
        <time>2017-05-28T12:06:37.000Z</time>
      </trkpt>
      <trkpt lat="45.90591" lon="6.15643">
        <ele>449.79998779297</ele>
        <time>2017-05-28T12:06:45.000Z</time>
      </trkpt>
      <trkpt lat="45.9059" lon="6.15614">
        <ele>450.39999389648</ele>
        <time>2017-05-28T12:06:53.000Z</time>
      </trkpt>
      <trkpt lat="45.90589" lon="6.15584">
        <ele>450.39999389648</ele>
        <time>2017-05-28T12:07:00.000Z</time>
      </trkpt>
      <trkpt lat="45.90586" lon="6.15552">
        <ele>450.39999389648</ele>
        <time>2017-05-28T12:07:08.000Z</time>
      </trkpt>
      <trkpt lat="45.90582" lon="6.15521">
        <ele>450.20001220703</ele>
        <time>2017-05-28T12:07:16.000Z</time>
      </trkpt>
      <trkpt lat="45.90577" lon="6.15491">
        <ele>450.39999389648</ele>
        <time>2017-05-28T12:07:24.000Z</time>
      </trkpt>
      <trkpt lat="45.90572" lon="6.15461">
        <ele>450.20001220703</ele>
        <time>2017-05-28T12:07:32.000Z</time>
      </trkpt>
      <trkpt lat="45.90567" lon="6.15433">
        <ele>450.20001220703</ele>
        <time>2017-05-28T12:07:39.000Z</time>
      </trkpt>
      <trkpt lat="45.90563" lon="6.15403">
        <ele>450.20001220703</ele>
        <time>2017-05-28T12:07:47.000Z</time>
      </trkpt>
      <trkpt lat="45.90558" lon="6.15376">
        <ele>450</ele>
        <time>2017-05-28T12:07:54.000Z</time>
      </trkpt>
      <trkpt lat="45.90556" lon="6.15347">
        <ele>450</ele>
        <time>2017-05-28T12:08:01.000Z</time>
      </trkpt>
      <trkpt lat="45.90549" lon="6.15319">
        <ele>450.39999389648</ele>
        <time>2017-05-28T12:08:09.000Z</time>
      </trkpt>
      <trkpt lat="45.90549" lon="6.15315">
        <ele>450.39999389648</ele>
        <time>2017-05-28T12:08:10.000Z</time>
      </trkpt>
      <trkpt lat="45.90548" lon="6.15312">
        <ele>450.39999389648</ele>
        <time>2017-05-28T12:08:11.000Z</time>
      </trkpt>
      <trkpt lat="45.90544" lon="6.15283">
        <ele>450.60000610352</ele>
        <time>2017-05-28T12:08:18.000Z</time>
      </trkpt>
      <trkpt lat="45.9054" lon="6.15254">
        <ele>450.39999389648</ele>
        <time>2017-05-28T12:08:26.000Z</time>
      </trkpt>
      <trkpt lat="45.90535" lon="6.15223">
        <ele>450.79998779297</ele>
        <time>2017-05-28T12:08:34.000Z</time>
      </trkpt>
      <trkpt lat="45.9053" lon="6.15193">
        <ele>450.60000610352</ele>
        <time>2017-05-28T12:08:42.000Z</time>
      </trkpt>
      <trkpt lat="45.90526" lon="6.15162">
        <ele>450.39999389648</ele>
        <time>2017-05-28T12:08:50.000Z</time>
      </trkpt>
      <trkpt lat="45.9052" lon="6.15133">
        <ele>450.20001220703</ele>
        <time>2017-05-28T12:08:58.000Z</time>
      </trkpt>
      <trkpt lat="45.90515" lon="6.15104">
        <ele>450.20001220703</ele>
        <time>2017-05-28T12:09:05.000Z</time>
      </trkpt>
      <trkpt lat="45.9051" lon="6.15075">
        <ele>450.39999389648</ele>
        <time>2017-05-28T12:09:12.000Z</time>
      </trkpt>
      <trkpt lat="45.90508" lon="6.15046">
        <ele>450.79998779297</ele>
        <time>2017-05-28T12:09:18.000Z</time>
      </trkpt>
      <trkpt lat="45.90505" lon="6.15015">
        <ele>450.39999389648</ele>
        <time>2017-05-28T12:09:25.000Z</time>
      </trkpt>
      <trkpt lat="45.90501" lon="6.14984">
        <ele>450.60000610352</ele>
        <time>2017-05-28T12:09:32.000Z</time>
      </trkpt>
      <trkpt lat="45.90495" lon="6.14954">
        <ele>450.39999389648</ele>
        <time>2017-05-28T12:09:39.000Z</time>
      </trkpt>
      <trkpt lat="45.90489" lon="6.14925">
        <ele>450.60000610352</ele>
        <time>2017-05-28T12:09:45.000Z</time>
      </trkpt>
      <trkpt lat="45.90484" lon="6.14895">
        <ele>450.60000610352</ele>
        <time>2017-05-28T12:09:52.000Z</time>
      </trkpt>
      <trkpt lat="45.90479" lon="6.14865">
        <ele>450.39999389648</ele>
        <time>2017-05-28T12:09:59.000Z</time>
      </trkpt>
      <trkpt lat="45.90474" lon="6.14842">
        <ele>450.60000610352</ele>
        <time>2017-05-28T12:10:05.000Z</time>
      </trkpt>
      <trkpt lat="45.90473" lon="6.14841">
        <ele>450.60000610352</ele>
        <time>2017-05-28T12:10:06.000Z</time>
      </trkpt>
      <trkpt lat="45.90471" lon="6.14841">
        <ele>450.39999389648</ele>
        <time>2017-05-28T12:10:07.000Z</time>
      </trkpt>
      <trkpt lat="45.90469" lon="6.14841">
        <ele>450.39999389648</ele>
        <time>2017-05-28T12:10:08.000Z</time>
      </trkpt>
      <trkpt lat="45.90467" lon="6.14842">
        <ele>450.20001220703</ele>
        <time>2017-05-28T12:10:09.000Z</time>
      </trkpt>
      <trkpt lat="45.90457" lon="6.14848">
        <ele>449.79998779297</ele>
        <time>2017-05-28T12:10:14.000Z</time>
      </trkpt>
      <trkpt lat="45.90456" lon="6.14851">
        <ele>449.39999389648</ele>
        <time>2017-05-28T12:10:15.000Z</time>
      </trkpt>
      <trkpt lat="45.90456" lon="6.14856">
        <ele>449.60000610352</ele>
        <time>2017-05-28T12:10:16.000Z</time>
      </trkpt>
      <trkpt lat="45.90456" lon="6.14861">
        <ele>449.60000610352</ele>
        <time>2017-05-28T12:10:17.000Z</time>
      </trkpt>
      <trkpt lat="45.90456" lon="6.14866">
        <ele>449.79998779297</ele>
        <time>2017-05-28T12:10:18.000Z</time>
      </trkpt>
      <trkpt lat="45.90457" lon="6.14872">
        <ele>450</ele>
        <time>2017-05-28T12:10:19.000Z</time>
      </trkpt>
      <trkpt lat="45.9046" lon="6.14903">
        <ele>449.79998779297</ele>
        <time>2017-05-28T12:10:25.000Z</time>
      </trkpt>
      <trkpt lat="45.90466" lon="6.14934">
        <ele>450</ele>
        <time>2017-05-28T12:10:32.000Z</time>
      </trkpt>
      <trkpt lat="45.90472" lon="6.14965">
        <ele>450</ele>
        <time>2017-05-28T12:10:39.000Z</time>
      </trkpt>
      <trkpt lat="45.90476" lon="6.1499">
        <ele>450</ele>
        <time>2017-05-28T12:10:55.000Z</time>
      </trkpt>
      <trkpt lat="45.90471" lon="6.1499">
        <ele>450.20001220703</ele>
        <time>2017-05-28T12:11:13.000Z</time>
      </trkpt>
    </trkseg>
  </trk>
</gpx>